<?xml version='1.0' encoding='UTF-8'?><gpx version="1.1" creator="JPX - https://github.com/jenetics/jpx" xmlns="http://www.topografix.com/GPX/1/1"><trk><trkseg><trkpt lat="44.6883723" lon="10.0515975"><ele>184.0</ele><time>2026-04-11T07:13:56.948Z</time></trkpt><trkpt lat="44.6883327" lon="10.0514949"><ele>184.0</ele><time>2026-04-11T07:13:59.947Z</time></trkpt><trkpt lat="44.6883578" lon="10.0514046"><ele>184.0</ele><time>2026-04-11T07:15:01.949Z</time></trkpt><trkpt lat="44.6883951" lon="10.0512482"><ele>184.0</ele><time>2026-04-11T07:15:04.948Z</time></trkpt><trkpt lat="44.6884255" lon="10.0510881"><ele>184.0</ele><time>2026-04-11T07:15:06.947Z</time></trkpt><trkpt lat="44.688446" lon="10.0509842"><ele>184.0</ele><time>2026-04-11T07:15:07.947Z</time></trkpt><trkpt lat="44.6884684" lon="10.050878"><ele>184.0</ele><time>2026-04-11T07:15:08.947Z</time></trkpt><trkpt lat="44.6884923" lon="10.0507719"><ele>184.0</ele><time>2026-04-11T07:15:09.947Z</time></trkpt><trkpt lat="44.6885173" lon="10.0506524"><ele>184.0</ele><time>2026-04-11T07:15:10.947Z</time></trkpt><trkpt lat="44.6885396" lon="10.0505355"><ele>184.0</ele><time>2026-04-11T07:15:11.948Z</time></trkpt><trkpt lat="44.688562" lon="10.0504178"><ele>184.0</ele><time>2026-04-11T07:15:12.948Z</time></trkpt><trkpt lat="44.6885871" lon="10.0502972"><ele>186.2</ele><time>2026-04-11T07:15:13.948Z</time></trkpt><trkpt lat="44.6886106" lon="10.0501737"><ele>188.39999999999998</ele><time>2026-04-11T07:15:14.947Z</time></trkpt><trkpt lat="44.6886279" lon="10.0500543"><ele>190.6</ele><time>2026-04-11T07:15:15.948Z</time></trkpt><trkpt lat="44.6886379" lon="10.0499276"><ele>192.8</ele><time>2026-04-11T07:15:16.948Z</time></trkpt><trkpt lat="44.6886423" lon="10.0498035"><ele>195.0</ele><time>2026-04-11T07:15:17.948Z</time></trkpt><trkpt lat="44.6886373" lon="10.0496721"><ele>195.0</ele><time>2026-04-11T07:15:18.948Z</time></trkpt><trkpt lat="44.688623" lon="10.0495363"><ele>195.0</ele><time>2026-04-11T07:15:19.947Z</time></trkpt><trkpt lat="44.6886084" lon="10.0494142"><ele>195.0</ele><time>2026-04-11T07:15:20.948Z</time></trkpt><trkpt lat="44.6885975" lon="10.0492955"><ele>195.0</ele><time>2026-04-11T07:15:21.948Z</time></trkpt><trkpt lat="44.6885814" lon="10.0491706"><ele>195.0</ele><time>2026-04-11T07:15:22.947Z</time></trkpt><trkpt lat="44.6885697" lon="10.0490384"><ele>193.33333333333334</ele><time>2026-04-11T07:15:23.948Z</time></trkpt><trkpt lat="44.688557" lon="10.0489093"><ele>191.66666666666666</ele><time>2026-04-11T07:15:24.947Z</time></trkpt><trkpt lat="44.6885395" lon="10.0487808"><ele>190.0</ele><time>2026-04-11T07:15:25.948Z</time></trkpt><trkpt lat="44.6885269" lon="10.0486591"><ele>188.33333333333331</ele><time>2026-04-11T07:15:26.948Z</time></trkpt><trkpt lat="44.6885136" lon="10.0485405"><ele>186.66666666666666</ele><time>2026-04-11T07:15:27.948Z</time></trkpt><trkpt lat="44.6885108" lon="10.0484298"><ele>185.0</ele><time>2026-04-11T07:15:28.947Z</time></trkpt><trkpt lat="44.6885006" lon="10.0483138"><ele>185.16666666666666</ele><time>2026-04-11T07:15:29.947Z</time></trkpt><trkpt lat="44.688494" lon="10.0481977"><ele>185.33333333333331</ele><time>2026-04-11T07:15:30.948Z</time></trkpt><trkpt lat="44.6884788" lon="10.0480903"><ele>185.5</ele><time>2026-04-11T07:15:31.947Z</time></trkpt><trkpt lat="44.6884764" lon="10.0479707"><ele>185.66666666666666</ele><time>2026-04-11T07:15:32.947Z</time></trkpt><trkpt lat="44.688471" lon="10.0478406"><ele>185.83333333333334</ele><time>2026-04-11T07:15:33.948Z</time></trkpt><trkpt lat="44.688466" lon="10.047721"><ele>186.0</ele><time>2026-04-11T07:15:34.947Z</time></trkpt><trkpt lat="44.6884552" lon="10.047607"><ele>186.0</ele><time>2026-04-11T07:15:35.948Z</time></trkpt><trkpt lat="44.6884367" lon="10.0474747"><ele>186.0</ele><time>2026-04-11T07:15:36.948Z</time></trkpt><trkpt lat="44.6884213" lon="10.0473684"><ele>186.0</ele><time>2026-04-11T07:15:37.948Z</time></trkpt><trkpt lat="44.6884051" lon="10.0472456"><ele>186.0</ele><time>2026-04-11T07:15:38.948Z</time></trkpt><trkpt lat="44.6883895" lon="10.0471529"><ele>186.0</ele><time>2026-04-11T07:15:39.948Z</time></trkpt><trkpt lat="44.6883684" lon="10.0470301"><ele>186.0</ele><time>2026-04-11T07:15:40.948Z</time></trkpt><trkpt lat="44.6883455" lon="10.046914"><ele>186.33333333333334</ele><time>2026-04-11T07:15:41.947Z</time></trkpt><trkpt lat="44.6883327" lon="10.0468121"><ele>186.66666666666666</ele><time>2026-04-11T07:15:42.948Z</time></trkpt><trkpt lat="44.6883074" lon="10.0467119"><ele>187.0</ele><time>2026-04-11T07:15:43.948Z</time></trkpt><trkpt lat="44.6883019" lon="10.0466022"><ele>187.33333333333331</ele><time>2026-04-11T07:15:44.948Z</time></trkpt><trkpt lat="44.6882821" lon="10.0465073"><ele>187.66666666666666</ele><time>2026-04-11T07:15:45.948Z</time></trkpt><trkpt lat="44.6882538" lon="10.0463783"><ele>188.0</ele><time>2026-04-11T07:15:46.948Z</time></trkpt><trkpt lat="44.688238" lon="10.0462732"><ele>188.0</ele><time>2026-04-11T07:15:47.948Z</time></trkpt><trkpt lat="44.6882132" lon="10.0461631"><ele>188.0</ele><time>2026-04-11T07:15:48.948Z</time></trkpt><trkpt lat="44.6881909" lon="10.046062"><ele>188.0</ele><time>2026-04-11T07:15:49.947Z</time></trkpt><trkpt lat="44.688167" lon="10.045965"><ele>188.0</ele><time>2026-04-11T07:15:50.948Z</time></trkpt><trkpt lat="44.6881383" lon="10.045815"><ele>188.0</ele><time>2026-04-11T07:15:52.948Z</time></trkpt><trkpt lat="44.6880649" lon="10.0458138"><ele>188.0</ele><time>2026-04-11T07:15:54.948Z</time></trkpt><trkpt lat="44.6879968" lon="10.0458314"><ele>188.0</ele><time>2026-04-11T07:15:56.948Z</time></trkpt><trkpt lat="44.6879311" lon="10.0458667"><ele>188.0</ele><time>2026-04-11T07:15:58.948Z</time></trkpt><trkpt lat="44.6878619" lon="10.0458923"><ele>188.0</ele><time>2026-04-11T07:16:00.947Z</time></trkpt><trkpt lat="44.6877899" lon="10.0459186"><ele>188.0</ele><time>2026-04-11T07:16:02.948Z</time></trkpt><trkpt lat="44.6877204" lon="10.0459461"><ele>188.0</ele><time>2026-04-11T07:16:04.948Z</time></trkpt><trkpt lat="44.6876634" lon="10.0459852"><ele>188.0</ele><time>2026-04-11T07:16:06.947Z</time></trkpt><trkpt lat="44.6875871" lon="10.0460327"><ele>188.0</ele><time>2026-04-11T07:16:09.948Z</time></trkpt><trkpt lat="44.6875211" lon="10.0460724"><ele>188.0</ele><time>2026-04-11T07:16:11.948Z</time></trkpt><trkpt lat="44.6875459" lon="10.0459786"><ele>188.0</ele><time>2026-04-11T07:16:17.948Z</time></trkpt><trkpt lat="44.6876253" lon="10.0459575"><ele>188.0</ele><time>2026-04-11T07:16:20.947Z</time></trkpt><trkpt lat="44.6877391" lon="10.0459087"><ele>188.0</ele><time>2026-04-11T07:16:44.948Z</time></trkpt><trkpt lat="44.687809" lon="10.0458811"><ele>188.0</ele><time>2026-04-11T07:16:45.947Z</time></trkpt><trkpt lat="44.6878919" lon="10.0458486"><ele>188.0</ele><time>2026-04-11T07:16:46.948Z</time></trkpt><trkpt lat="44.6879782" lon="10.045808"><ele>188.5</ele><time>2026-04-11T07:16:47.948Z</time></trkpt><trkpt lat="44.6880387" lon="10.0457767"><ele>189.0</ele><time>2026-04-11T07:16:48.947Z</time></trkpt><trkpt lat="44.6880914" lon="10.045684"><ele>189.5</ele><time>2026-04-11T07:16:50.948Z</time></trkpt><trkpt lat="44.68808" lon="10.0455338"><ele>190.0</ele><time>2026-04-11T07:16:52.948Z</time></trkpt><trkpt lat="44.6880575" lon="10.0454228"><ele>190.5</ele><time>2026-04-11T07:16:53.948Z</time></trkpt><trkpt lat="44.6880332" lon="10.0452861"><ele>191.0</ele><time>2026-04-11T07:16:54.947Z</time></trkpt><trkpt lat="44.6880058" lon="10.0451398"><ele>191.0</ele><time>2026-04-11T07:16:55.948Z</time></trkpt><trkpt lat="44.6879754" lon="10.0449706"><ele>191.0</ele><time>2026-04-11T07:16:56.947Z</time></trkpt><trkpt lat="44.6879398" lon="10.0447976"><ele>191.0</ele><time>2026-04-11T07:16:57.947Z</time></trkpt><trkpt lat="44.6879066" lon="10.044624"><ele>191.0</ele><time>2026-04-11T07:16:58.948Z</time></trkpt><trkpt lat="44.687866" lon="10.0444418"><ele>191.25</ele><time>2026-04-11T07:16:59.948Z</time></trkpt><trkpt lat="44.6878234" lon="10.0442704"><ele>191.5</ele><time>2026-04-11T07:17:00.948Z</time></trkpt><trkpt lat="44.6877809" lon="10.0440601"><ele>191.75</ele><time>2026-04-11T07:17:01.948Z</time></trkpt><trkpt lat="44.6877468" lon="10.043874"><ele>192.0</ele><time>2026-04-11T07:17:02.948Z</time></trkpt><trkpt lat="44.6877088" lon="10.0436875"><ele>192.5</ele><time>2026-04-11T07:17:03.948Z</time></trkpt><trkpt lat="44.6876828" lon="10.0435173"><ele>193.0</ele><time>2026-04-11T07:17:04.948Z</time></trkpt><trkpt lat="44.6876347" lon="10.0433342"><ele>193.5</ele><time>2026-04-11T07:17:05.948Z</time></trkpt><trkpt lat="44.6875783" lon="10.0431514"><ele>194.0</ele><time>2026-04-11T07:17:06.948Z</time></trkpt><trkpt lat="44.6875107" lon="10.0429643"><ele>194.0</ele><time>2026-04-11T07:17:07.948Z</time></trkpt><trkpt lat="44.6874506" lon="10.0427874"><ele>194.0</ele><time>2026-04-11T07:17:08.948Z</time></trkpt><trkpt lat="44.6873835" lon="10.0426179"><ele>194.0</ele><time>2026-04-11T07:17:09.948Z</time></trkpt><trkpt lat="44.6873167" lon="10.042474"><ele>194.0</ele><time>2026-04-11T07:17:10.948Z</time></trkpt><trkpt lat="44.6872509" lon="10.0423301"><ele>194.0</ele><time>2026-04-11T07:17:11.947Z</time></trkpt><trkpt lat="44.6872162" lon="10.042244"><ele>194.0</ele><time>2026-04-11T07:17:12.948Z</time></trkpt><trkpt lat="44.6871707" lon="10.0421289"><ele>194.0</ele><time>2026-04-11T07:17:13.948Z</time></trkpt><trkpt lat="44.6871582" lon="10.0419798"><ele>194.0</ele><time>2026-04-11T07:17:14.948Z</time></trkpt><trkpt lat="44.6871332" lon="10.0418403"><ele>194.0</ele><time>2026-04-11T07:17:15.947Z</time></trkpt><trkpt lat="44.6871469" lon="10.0416925"><ele>191.0</ele><time>2026-04-11T07:17:16.947Z</time></trkpt><trkpt lat="44.6871543" lon="10.0415324"><ele>188.0</ele><time>2026-04-11T07:17:17.948Z</time></trkpt><trkpt lat="44.6872043" lon="10.0413817"><ele>185.0</ele><time>2026-04-11T07:17:18.947Z</time></trkpt><trkpt lat="44.6872805" lon="10.0412555"><ele>182.0</ele><time>2026-04-11T07:17:19.947Z</time></trkpt><trkpt lat="44.6873181" lon="10.0411084"><ele>182.0</ele><time>2026-04-11T07:17:20.948Z</time></trkpt><trkpt lat="44.6873943" lon="10.0409752"><ele>182.0</ele><time>2026-04-11T07:17:21.948Z</time></trkpt><trkpt lat="44.6874581" lon="10.0408429"><ele>182.0</ele><time>2026-04-11T07:17:22.948Z</time></trkpt><trkpt lat="44.6875272" lon="10.0407154"><ele>182.0</ele><time>2026-04-11T07:17:23.948Z</time></trkpt><trkpt lat="44.6876115" lon="10.0406004"><ele>181.2</ele><time>2026-04-11T07:17:24.949Z</time></trkpt><trkpt lat="44.6876979" lon="10.0404877"><ele>180.39999999999998</ele><time>2026-04-11T07:17:25.948Z</time></trkpt><trkpt lat="44.6877468" lon="10.0403744"><ele>179.60000000000002</ele><time>2026-04-11T07:17:26.947Z</time></trkpt><trkpt lat="44.6878294" lon="10.0403162"><ele>178.8</ele><time>2026-04-11T07:17:27.947Z</time></trkpt><trkpt lat="44.687822" lon="10.0401767"><ele>178.0</ele><time>2026-04-11T07:17:28.948Z</time></trkpt><trkpt lat="44.687848" lon="10.0400539"><ele>178.8</ele><time>2026-04-11T07:17:29.948Z</time></trkpt><trkpt lat="44.6878522" lon="10.0399163"><ele>179.60000000000002</ele><time>2026-04-11T07:17:30.948Z</time></trkpt><trkpt lat="44.6878415" lon="10.0397632"><ele>180.39999999999998</ele><time>2026-04-11T07:17:31.948Z</time></trkpt><trkpt lat="44.6878409" lon="10.0396004"><ele>181.2</ele><time>2026-04-11T07:17:32.948Z</time></trkpt><trkpt lat="44.6878469" lon="10.0394452"><ele>182.0</ele><time>2026-04-11T07:17:33.948Z</time></trkpt><trkpt lat="44.687852" lon="10.0392864"><ele>182.25</ele><time>2026-04-11T07:17:34.949Z</time></trkpt><trkpt lat="44.6878609" lon="10.0391143"><ele>182.5</ele><time>2026-04-11T07:17:35.948Z</time></trkpt><trkpt lat="44.6878653" lon="10.03892"><ele>182.75</ele><time>2026-04-11T07:17:36.948Z</time></trkpt><trkpt lat="44.687865" lon="10.0386996"><ele>183.0</ele><time>2026-04-11T07:17:37.948Z</time></trkpt><trkpt lat="44.6878642" lon="10.0384899"><ele>181.75</ele><time>2026-04-11T07:17:38.948Z</time></trkpt><trkpt lat="44.6878541" lon="10.0382816"><ele>180.5</ele><time>2026-04-11T07:17:39.948Z</time></trkpt><trkpt lat="44.6878587" lon="10.0380962"><ele>179.25</ele><time>2026-04-11T07:17:40.947Z</time></trkpt><trkpt lat="44.6878592" lon="10.0379073"><ele>178.0</ele><time>2026-04-11T07:17:41.948Z</time></trkpt><trkpt lat="44.6878742" lon="10.0377751"><ele>178.0</ele><time>2026-04-11T07:17:42.948Z</time></trkpt><trkpt lat="44.6878776" lon="10.0376089"><ele>178.0</ele><time>2026-04-11T07:17:43.948Z</time></trkpt><trkpt lat="44.6878807" lon="10.0374643"><ele>178.0</ele><time>2026-04-11T07:17:44.948Z</time></trkpt><trkpt lat="44.6878785" lon="10.037341"><ele>178.0</ele><time>2026-04-11T07:17:45.948Z</time></trkpt><trkpt lat="44.6878778" lon="10.0372239"><ele>178.0</ele><time>2026-04-11T07:17:46.947Z</time></trkpt><trkpt lat="44.6878865" lon="10.0370915"><ele>178.4</ele><time>2026-04-11T07:17:47.947Z</time></trkpt><trkpt lat="44.6879001" lon="10.0369581"><ele>178.8</ele><time>2026-04-11T07:17:48.947Z</time></trkpt><trkpt lat="44.6879098" lon="10.0368183"><ele>179.2</ele><time>2026-04-11T07:17:49.947Z</time></trkpt><trkpt lat="44.68793" lon="10.0366645"><ele>179.6</ele><time>2026-04-11T07:17:50.948Z</time></trkpt><trkpt lat="44.6879576" lon="10.0365102"><ele>180.0</ele><time>2026-04-11T07:17:51.948Z</time></trkpt><trkpt lat="44.6879846" lon="10.0363565"><ele>180.6</ele><time>2026-04-11T07:17:52.948Z</time></trkpt><trkpt lat="44.6880047" lon="10.0362018"><ele>181.2</ele><time>2026-04-11T07:17:53.948Z</time></trkpt><trkpt lat="44.688012" lon="10.036043"><ele>181.8</ele><time>2026-04-11T07:17:54.948Z</time></trkpt><trkpt lat="44.6880069" lon="10.0358945"><ele>182.4</ele><time>2026-04-11T07:17:55.948Z</time></trkpt><trkpt lat="44.6879932" lon="10.035751"><ele>183.0</ele><time>2026-04-11T07:17:56.948Z</time></trkpt><trkpt lat="44.6879712" lon="10.0356015"><ele>183.2</ele><time>2026-04-11T07:17:57.948Z</time></trkpt><trkpt lat="44.6879502" lon="10.0354556"><ele>183.4</ele><time>2026-04-11T07:17:58.948Z</time></trkpt><trkpt lat="44.6879344" lon="10.0353152"><ele>183.6</ele><time>2026-04-11T07:17:59.948Z</time></trkpt><trkpt lat="44.68792" lon="10.0351771"><ele>183.79999999999998</ele><time>2026-04-11T07:18:00.948Z</time></trkpt><trkpt lat="44.6879087" lon="10.0350396"><ele>184.0</ele><time>2026-04-11T07:18:01.948Z</time></trkpt><trkpt lat="44.6878976" lon="10.034898"><ele>184.0</ele><time>2026-04-11T07:18:02.948Z</time></trkpt><trkpt lat="44.6878826" lon="10.0347585"><ele>184.0</ele><time>2026-04-11T07:18:03.948Z</time></trkpt><trkpt lat="44.6878614" lon="10.0346169"><ele>184.0</ele><time>2026-04-11T07:18:04.948Z</time></trkpt><trkpt lat="44.6878306" lon="10.0344847"><ele>184.0</ele><time>2026-04-11T07:18:05.948Z</time></trkpt><trkpt lat="44.6877883" lon="10.0343616"><ele>184.0</ele><time>2026-04-11T07:18:06.948Z</time></trkpt><trkpt lat="44.6877403" lon="10.0342496"><ele>181.6</ele><time>2026-04-11T07:18:07.948Z</time></trkpt><trkpt lat="44.6876808" lon="10.0341346"><ele>179.2</ele><time>2026-04-11T07:18:08.948Z</time></trkpt><trkpt lat="44.6876242" lon="10.0340137"><ele>176.79999999999998</ele><time>2026-04-11T07:18:09.948Z</time></trkpt><trkpt lat="44.6875699" lon="10.0338887"><ele>174.39999999999998</ele><time>2026-04-11T07:18:10.949Z</time></trkpt><trkpt lat="44.6875191" lon="10.0337682"><ele>172.0</ele><time>2026-04-11T07:18:11.948Z</time></trkpt><trkpt lat="44.6874624" lon="10.0336623"><ele>172.0</ele><time>2026-04-11T07:18:12.948Z</time></trkpt><trkpt lat="44.6874041" lon="10.033574"><ele>172.0</ele><time>2026-04-11T07:18:13.948Z</time></trkpt><trkpt lat="44.6873355" lon="10.0335116"><ele>172.0</ele><time>2026-04-11T07:18:14.947Z</time></trkpt><trkpt lat="44.6872498" lon="10.0335083"><ele>172.0</ele><time>2026-04-11T07:18:15.947Z</time></trkpt><trkpt lat="44.6871875" lon="10.0334852"><ele>172.0</ele><time>2026-04-11T07:18:16.948Z</time></trkpt><trkpt lat="44.6871141" lon="10.0333956"><ele>172.0</ele><time>2026-04-11T07:18:18.947Z</time></trkpt><trkpt lat="44.6870992" lon="10.0332457"><ele>172.42857142857144</ele><time>2026-04-11T07:18:20.948Z</time></trkpt><trkpt lat="44.6871043" lon="10.033151"><ele>172.85714285714286</ele><time>2026-04-11T07:18:21.948Z</time></trkpt><trkpt lat="44.6871071" lon="10.0330619"><ele>173.28571428571428</ele><time>2026-04-11T07:18:22.949Z</time></trkpt><trkpt lat="44.6871042" lon="10.0329643"><ele>173.71428571428572</ele><time>2026-04-11T07:18:23.948Z</time></trkpt><trkpt lat="44.6870992" lon="10.0328599"><ele>174.14285714285714</ele><time>2026-04-11T07:18:24.948Z</time></trkpt><trkpt lat="44.6870994" lon="10.0327537"><ele>174.57142857142858</ele><time>2026-04-11T07:18:25.948Z</time></trkpt><trkpt lat="44.6871027" lon="10.0326374"><ele>175.0</ele><time>2026-04-11T07:18:26.948Z</time></trkpt><trkpt lat="44.6871075" lon="10.0325223"><ele>175.33333333333334</ele><time>2026-04-11T07:18:27.948Z</time></trkpt><trkpt lat="44.6871081" lon="10.0324074"><ele>175.66666666666669</ele><time>2026-04-11T07:18:28.948Z</time></trkpt><trkpt lat="44.6871046" lon="10.0322967"><ele>176.0</ele><time>2026-04-11T07:18:29.948Z</time></trkpt><trkpt lat="44.6871033" lon="10.0321801"><ele>176.33333333333334</ele><time>2026-04-11T07:18:30.948Z</time></trkpt><trkpt lat="44.6871071" lon="10.0320718"><ele>176.66666666666666</ele><time>2026-04-11T07:18:31.949Z</time></trkpt><trkpt lat="44.6871031" lon="10.0319672"><ele>177.0</ele><time>2026-04-11T07:18:32.948Z</time></trkpt><trkpt lat="44.6871019" lon="10.0318654"><ele>177.0</ele><time>2026-04-11T07:18:33.948Z</time></trkpt><trkpt lat="44.687102" lon="10.0317736"><ele>177.0</ele><time>2026-04-11T07:18:34.948Z</time></trkpt><trkpt lat="44.6870989" lon="10.031682"><ele>177.0</ele><time>2026-04-11T07:18:35.948Z</time></trkpt><trkpt lat="44.6870858" lon="10.031593"><ele>177.0</ele><time>2026-04-11T07:18:36.948Z</time></trkpt><trkpt lat="44.687075" lon="10.0315045"><ele>177.0</ele><time>2026-04-11T07:18:37.948Z</time></trkpt><trkpt lat="44.6870525" lon="10.0314216"><ele>177.0</ele><time>2026-04-11T07:18:38.948Z</time></trkpt><trkpt lat="44.6870311" lon="10.0313342"><ele>177.0</ele><time>2026-04-11T07:18:39.947Z</time></trkpt><trkpt lat="44.6870183" lon="10.0312413"><ele>177.16666666666666</ele><time>2026-04-11T07:18:40.947Z</time></trkpt><trkpt lat="44.6870122" lon="10.0311324"><ele>177.33333333333334</ele><time>2026-04-11T07:18:41.947Z</time></trkpt><trkpt lat="44.6870097" lon="10.0310229"><ele>177.5</ele><time>2026-04-11T07:18:42.947Z</time></trkpt><trkpt lat="44.6870036" lon="10.0309015"><ele>177.66666666666669</ele><time>2026-04-11T07:18:43.948Z</time></trkpt><trkpt lat="44.6869999" lon="10.0307723"><ele>177.83333333333334</ele><time>2026-04-11T07:18:44.948Z</time></trkpt><trkpt lat="44.6869977" lon="10.0306388"><ele>178.0</ele><time>2026-04-11T07:18:45.948Z</time></trkpt><trkpt lat="44.6869989" lon="10.0304966"><ele>178.0</ele><time>2026-04-11T07:18:46.948Z</time></trkpt><trkpt lat="44.6869958" lon="10.0303527"><ele>178.0</ele><time>2026-04-11T07:18:47.948Z</time></trkpt><trkpt lat="44.6869922" lon="10.030202"><ele>178.0</ele><time>2026-04-11T07:18:48.948Z</time></trkpt><trkpt lat="44.6869884" lon="10.0300497"><ele>178.0</ele><time>2026-04-11T07:18:49.948Z</time></trkpt><trkpt lat="44.6869816" lon="10.029896"><ele>178.0</ele><time>2026-04-11T07:18:50.948Z</time></trkpt><trkpt lat="44.6869789" lon="10.0297445"><ele>178.0</ele><time>2026-04-11T07:18:51.948Z</time></trkpt><trkpt lat="44.6869747" lon="10.0295858"><ele>178.0</ele><time>2026-04-11T07:18:52.948Z</time></trkpt><trkpt lat="44.6869684" lon="10.0294302"><ele>178.0</ele><time>2026-04-11T07:18:53.948Z</time></trkpt><trkpt lat="44.6869601" lon="10.0292728"><ele>178.0</ele><time>2026-04-11T07:18:54.948Z</time></trkpt><trkpt lat="44.6869467" lon="10.0291111"><ele>178.5</ele><time>2026-04-11T07:18:55.949Z</time></trkpt><trkpt lat="44.6869298" lon="10.0289523"><ele>179.0</ele><time>2026-04-11T07:18:56.948Z</time></trkpt><trkpt lat="44.6869091" lon="10.0287944"><ele>179.5</ele><time>2026-04-11T07:18:57.948Z</time></trkpt><trkpt lat="44.6868844" lon="10.0286413"><ele>180.0</ele><time>2026-04-11T07:18:58.947Z</time></trkpt><trkpt lat="44.6868567" lon="10.0284886"><ele>180.0</ele><time>2026-04-11T07:18:59.947Z</time></trkpt><trkpt lat="44.6868248" lon="10.0283366"><ele>180.0</ele><time>2026-04-11T07:19:00.948Z</time></trkpt><trkpt lat="44.686792" lon="10.028191"><ele>180.0</ele><time>2026-04-11T07:19:01.948Z</time></trkpt><trkpt lat="44.6867572" lon="10.0280373"><ele>180.0</ele><time>2026-04-11T07:19:02.948Z</time></trkpt><trkpt lat="44.6867192" lon="10.027884"><ele>180.5</ele><time>2026-04-11T07:19:03.947Z</time></trkpt><trkpt lat="44.6866757" lon="10.0277325"><ele>181.0</ele><time>2026-04-11T07:19:04.948Z</time></trkpt><trkpt lat="44.6866326" lon="10.0275803"><ele>181.5</ele><time>2026-04-11T07:19:05.948Z</time></trkpt><trkpt lat="44.6865874" lon="10.0274291"><ele>182.0</ele><time>2026-04-11T07:19:06.948Z</time></trkpt><trkpt lat="44.6865392" lon="10.0272806"><ele>182.0</ele><time>2026-04-11T07:19:07.948Z</time></trkpt><trkpt lat="44.6864852" lon="10.0271328"><ele>182.0</ele><time>2026-04-11T07:19:08.947Z</time></trkpt><trkpt lat="44.686432" lon="10.0269837"><ele>182.0</ele><time>2026-04-11T07:19:09.948Z</time></trkpt><trkpt lat="44.6863751" lon="10.0268411"><ele>182.0</ele><time>2026-04-11T07:19:10.948Z</time></trkpt><trkpt lat="44.6863181" lon="10.0266965"><ele>182.0</ele><time>2026-04-11T07:19:11.947Z</time></trkpt><trkpt lat="44.6862504" lon="10.0265575"><ele>182.0</ele><time>2026-04-11T07:19:12.949Z</time></trkpt><trkpt lat="44.6861852" lon="10.0264225"><ele>182.0</ele><time>2026-04-11T07:19:13.948Z</time></trkpt><trkpt lat="44.6861202" lon="10.0262883"><ele>182.0</ele><time>2026-04-11T07:19:14.947Z</time></trkpt><trkpt lat="44.6860513" lon="10.026153"><ele>181.5</ele><time>2026-04-11T07:19:15.948Z</time></trkpt><trkpt lat="44.6859794" lon="10.0260239"><ele>181.0</ele><time>2026-04-11T07:19:16.948Z</time></trkpt><trkpt lat="44.685909" lon="10.0258924"><ele>180.5</ele><time>2026-04-11T07:19:17.948Z</time></trkpt><trkpt lat="44.6858414" lon="10.0257588"><ele>180.0</ele><time>2026-04-11T07:19:18.947Z</time></trkpt><trkpt lat="44.685777" lon="10.0256263"><ele>180.0</ele><time>2026-04-11T07:19:19.948Z</time></trkpt><trkpt lat="44.6857168" lon="10.0254911"><ele>180.0</ele><time>2026-04-11T07:19:20.947Z</time></trkpt><trkpt lat="44.6856631" lon="10.0253453"><ele>180.0</ele><time>2026-04-11T07:19:21.948Z</time></trkpt><trkpt lat="44.6856113" lon="10.025205"><ele>180.0</ele><time>2026-04-11T07:19:22.948Z</time></trkpt><trkpt lat="44.6855667" lon="10.0250537"><ele>180.25</ele><time>2026-04-11T07:19:23.948Z</time></trkpt><trkpt lat="44.6855257" lon="10.0248988"><ele>180.5</ele><time>2026-04-11T07:19:24.948Z</time></trkpt><trkpt lat="44.6854968" lon="10.0247431"><ele>180.75</ele><time>2026-04-11T07:19:25.948Z</time></trkpt><trkpt lat="44.6854711" lon="10.0245798"><ele>181.0</ele><time>2026-04-11T07:19:26.948Z</time></trkpt><trkpt lat="44.6854481" lon="10.0244232"><ele>181.0</ele><time>2026-04-11T07:19:27.948Z</time></trkpt><trkpt lat="44.6854289" lon="10.0242672"><ele>181.0</ele><time>2026-04-11T07:19:28.948Z</time></trkpt><trkpt lat="44.68542" lon="10.0241082"><ele>181.0</ele><time>2026-04-11T07:19:29.947Z</time></trkpt><trkpt lat="44.6854164" lon="10.0239453"><ele>181.0</ele><time>2026-04-11T07:19:30.948Z</time></trkpt><trkpt lat="44.6854146" lon="10.023788"><ele>181.25</ele><time>2026-04-11T07:19:31.948Z</time></trkpt><trkpt lat="44.6854071" lon="10.0236244"><ele>181.5</ele><time>2026-04-11T07:19:32.948Z</time></trkpt><trkpt lat="44.6854015" lon="10.0234586"><ele>181.75</ele><time>2026-04-11T07:19:33.947Z</time></trkpt><trkpt lat="44.6853967" lon="10.0232961"><ele>182.0</ele><time>2026-04-11T07:19:34.948Z</time></trkpt><trkpt lat="44.6853896" lon="10.0231311"><ele>182.0</ele><time>2026-04-11T07:19:35.948Z</time></trkpt><trkpt lat="44.6853859" lon="10.0229672"><ele>182.0</ele><time>2026-04-11T07:19:36.949Z</time></trkpt><trkpt lat="44.6853811" lon="10.0228025"><ele>182.0</ele><time>2026-04-11T07:19:37.948Z</time></trkpt><trkpt lat="44.6853761" lon="10.0226364"><ele>182.0</ele><time>2026-04-11T07:19:38.948Z</time></trkpt><trkpt lat="44.68537" lon="10.0224691"><ele>181.25</ele><time>2026-04-11T07:19:39.948Z</time></trkpt><trkpt lat="44.685365" lon="10.0223004"><ele>180.5</ele><time>2026-04-11T07:19:40.948Z</time></trkpt><trkpt lat="44.6853627" lon="10.0221276"><ele>179.75</ele><time>2026-04-11T07:19:41.947Z</time></trkpt><trkpt lat="44.685357" lon="10.0219533"><ele>179.0</ele><time>2026-04-11T07:19:42.948Z</time></trkpt><trkpt lat="44.6853546" lon="10.0217868"><ele>178.75</ele><time>2026-04-11T07:19:43.948Z</time></trkpt><trkpt lat="44.6853531" lon="10.02162"><ele>178.5</ele><time>2026-04-11T07:19:44.948Z</time></trkpt><trkpt lat="44.6853525" lon="10.0214515"><ele>178.25</ele><time>2026-04-11T07:19:45.947Z</time></trkpt><trkpt lat="44.6853483" lon="10.02128"><ele>178.0</ele><time>2026-04-11T07:19:46.949Z</time></trkpt><trkpt lat="44.6853377" lon="10.0211097"><ele>178.0</ele><time>2026-04-11T07:19:47.948Z</time></trkpt><trkpt lat="44.6853281" lon="10.020938"><ele>178.0</ele><time>2026-04-11T07:19:48.948Z</time></trkpt><trkpt lat="44.6853192" lon="10.0207671"><ele>178.0</ele><time>2026-04-11T07:19:49.947Z</time></trkpt><trkpt lat="44.6853086" lon="10.0205952"><ele>178.0</ele><time>2026-04-11T07:19:50.947Z</time></trkpt><trkpt lat="44.6852945" lon="10.0204236"><ele>177.5</ele><time>2026-04-11T07:19:51.948Z</time></trkpt><trkpt lat="44.68528" lon="10.0202534"><ele>177.0</ele><time>2026-04-11T07:19:52.948Z</time></trkpt><trkpt lat="44.6852705" lon="10.0200817"><ele>176.5</ele><time>2026-04-11T07:19:53.948Z</time></trkpt><trkpt lat="44.6852676" lon="10.0199128"><ele>176.0</ele><time>2026-04-11T07:19:54.947Z</time></trkpt><trkpt lat="44.6852774" lon="10.0197423"><ele>177.0</ele><time>2026-04-11T07:19:55.948Z</time></trkpt><trkpt lat="44.6852896" lon="10.0195785"><ele>178.0</ele><time>2026-04-11T07:19:56.948Z</time></trkpt><trkpt lat="44.6853044" lon="10.0194095"><ele>179.0</ele><time>2026-04-11T07:19:57.948Z</time></trkpt><trkpt lat="44.6853227" lon="10.0192391"><ele>180.0</ele><time>2026-04-11T07:19:58.948Z</time></trkpt><trkpt lat="44.6853385" lon="10.0190667"><ele>181.25</ele><time>2026-04-11T07:19:59.948Z</time></trkpt><trkpt lat="44.6853522" lon="10.0188944"><ele>182.5</ele><time>2026-04-11T07:20:00.947Z</time></trkpt><trkpt lat="44.6853677" lon="10.0187199"><ele>183.75</ele><time>2026-04-11T07:20:01.948Z</time></trkpt><trkpt lat="44.6853843" lon="10.0185487"><ele>185.0</ele><time>2026-04-11T07:20:02.948Z</time></trkpt><trkpt lat="44.6853975" lon="10.0183788"><ele>185.5</ele><time>2026-04-11T07:20:03.947Z</time></trkpt><trkpt lat="44.6854122" lon="10.018212"><ele>186.0</ele><time>2026-04-11T07:20:04.947Z</time></trkpt><trkpt lat="44.6854321" lon="10.0180503"><ele>186.5</ele><time>2026-04-11T07:20:05.948Z</time></trkpt><trkpt lat="44.6854524" lon="10.0178931"><ele>187.0</ele><time>2026-04-11T07:20:06.948Z</time></trkpt><trkpt lat="44.685483" lon="10.0177321"><ele>187.0</ele><time>2026-04-11T07:20:07.948Z</time></trkpt><trkpt lat="44.68552" lon="10.0175729"><ele>187.0</ele><time>2026-04-11T07:20:08.948Z</time></trkpt><trkpt lat="44.6855643" lon="10.0174157"><ele>187.0</ele><time>2026-04-11T07:20:09.948Z</time></trkpt><trkpt lat="44.6856155" lon="10.0172653"><ele>187.0</ele><time>2026-04-11T07:20:10.947Z</time></trkpt><trkpt lat="44.68567" lon="10.0171223"><ele>186.8</ele><time>2026-04-11T07:20:11.948Z</time></trkpt><trkpt lat="44.685722" lon="10.0169842"><ele>186.6</ele><time>2026-04-11T07:20:12.948Z</time></trkpt><trkpt lat="44.6857681" lon="10.0168556"><ele>186.4</ele><time>2026-04-11T07:20:13.948Z</time></trkpt><trkpt lat="44.6858126" lon="10.0167362"><ele>186.20000000000002</ele><time>2026-04-11T07:20:14.947Z</time></trkpt><trkpt lat="44.6858481" lon="10.0166228"><ele>186.0</ele><time>2026-04-11T07:20:15.948Z</time></trkpt><trkpt lat="44.6858734" lon="10.0165225"><ele>185.66666666666666</ele><time>2026-04-11T07:20:16.948Z</time></trkpt><trkpt lat="44.6858873" lon="10.0164142"><ele>185.33333333333334</ele><time>2026-04-11T07:20:17.947Z</time></trkpt><trkpt lat="44.6857776" lon="10.016339"><ele>185.0</ele><time>2026-04-11T07:20:19.948Z</time></trkpt><trkpt lat="44.6857045" lon="10.0163257"><ele>184.66666666666669</ele><time>2026-04-11T07:20:20.948Z</time></trkpt><trkpt lat="44.6856266" lon="10.016317"><ele>184.33333333333334</ele><time>2026-04-11T07:20:21.948Z</time></trkpt><trkpt lat="44.68554" lon="10.0163148"><ele>184.0</ele><time>2026-04-11T07:20:22.947Z</time></trkpt><trkpt lat="44.6854418" lon="10.0163166"><ele>184.0</ele><time>2026-04-11T07:20:23.947Z</time></trkpt><trkpt lat="44.6853303" lon="10.0163199"><ele>184.0</ele><time>2026-04-11T07:20:24.948Z</time></trkpt><trkpt lat="44.685211" lon="10.0163238"><ele>184.0</ele><time>2026-04-11T07:20:25.948Z</time></trkpt><trkpt lat="44.6850907" lon="10.0163264"><ele>184.0</ele><time>2026-04-11T07:20:26.948Z</time></trkpt><trkpt lat="44.6849673" lon="10.0163357"><ele>183.25</ele><time>2026-04-11T07:20:27.947Z</time></trkpt><trkpt lat="44.6848352" lon="10.0163428"><ele>182.5</ele><time>2026-04-11T07:20:28.948Z</time></trkpt><trkpt lat="44.684705" lon="10.0163453"><ele>181.75</ele><time>2026-04-11T07:20:29.948Z</time></trkpt><trkpt lat="44.6845751" lon="10.0163452"><ele>181.0</ele><time>2026-04-11T07:20:30.948Z</time></trkpt><trkpt lat="44.6844429" lon="10.0163488"><ele>182.0</ele><time>2026-04-11T07:20:31.947Z</time></trkpt><trkpt lat="44.6843109" lon="10.0163537"><ele>183.0</ele><time>2026-04-11T07:20:32.948Z</time></trkpt><trkpt lat="44.6841792" lon="10.0163576"><ele>184.0</ele><time>2026-04-11T07:20:33.948Z</time></trkpt><trkpt lat="44.6840487" lon="10.0163607"><ele>185.0</ele><time>2026-04-11T07:20:34.948Z</time></trkpt><trkpt lat="44.6839201" lon="10.0163661"><ele>185.0</ele><time>2026-04-11T07:20:35.947Z</time></trkpt><trkpt lat="44.6837893" lon="10.0163761"><ele>185.0</ele><time>2026-04-11T07:20:36.948Z</time></trkpt><trkpt lat="44.6836585" lon="10.0163828"><ele>185.0</ele><time>2026-04-11T07:20:37.948Z</time></trkpt><trkpt lat="44.6835276" lon="10.0163864"><ele>185.0</ele><time>2026-04-11T07:20:38.947Z</time></trkpt><trkpt lat="44.6833975" lon="10.016393"><ele>183.0</ele><time>2026-04-11T07:20:39.947Z</time></trkpt><trkpt lat="44.6832706" lon="10.0163995"><ele>181.0</ele><time>2026-04-11T07:20:40.947Z</time></trkpt><trkpt lat="44.6831466" lon="10.0163955"><ele>179.0</ele><time>2026-04-11T07:20:41.946Z</time></trkpt><trkpt lat="44.6830209" lon="10.0163982"><ele>177.0</ele><time>2026-04-11T07:20:42.947Z</time></trkpt><trkpt lat="44.6828889" lon="10.0163991"><ele>176.75</ele><time>2026-04-11T07:20:43.947Z</time></trkpt><trkpt lat="44.6827574" lon="10.0164065"><ele>176.5</ele><time>2026-04-11T07:20:44.947Z</time></trkpt><trkpt lat="44.6826257" lon="10.0164136"><ele>176.25</ele><time>2026-04-11T07:20:45.947Z</time></trkpt><trkpt lat="44.6824921" lon="10.0164199"><ele>176.0</ele><time>2026-04-11T07:20:46.947Z</time></trkpt><trkpt lat="44.6823572" lon="10.0164261"><ele>176.0</ele><time>2026-04-11T07:20:47.947Z</time></trkpt><trkpt lat="44.6822241" lon="10.0164365"><ele>176.0</ele><time>2026-04-11T07:20:48.946Z</time></trkpt><trkpt lat="44.6820903" lon="10.016442"><ele>176.0</ele><time>2026-04-11T07:20:49.947Z</time></trkpt><trkpt lat="44.6819601" lon="10.0164424"><ele>176.0</ele><time>2026-04-11T07:20:50.946Z</time></trkpt><trkpt lat="44.6818305" lon="10.0164366"><ele>176.75</ele><time>2026-04-11T07:20:51.947Z</time></trkpt><trkpt lat="44.6816995" lon="10.0164373"><ele>177.5</ele><time>2026-04-11T07:20:52.947Z</time></trkpt><trkpt lat="44.6815698" lon="10.016432"><ele>178.25</ele><time>2026-04-11T07:20:53.946Z</time></trkpt><trkpt lat="44.6814387" lon="10.016412"><ele>179.0</ele><time>2026-04-11T07:20:54.947Z</time></trkpt><trkpt lat="44.6813062" lon="10.0163818"><ele>179.0</ele><time>2026-04-11T07:20:55.947Z</time></trkpt><trkpt lat="44.6811719" lon="10.0163608"><ele>179.0</ele><time>2026-04-11T07:20:56.947Z</time></trkpt><trkpt lat="44.6810354" lon="10.0163505"><ele>179.0</ele><time>2026-04-11T07:20:57.947Z</time></trkpt><trkpt lat="44.6808966" lon="10.0163464"><ele>179.0</ele><time>2026-04-11T07:20:58.947Z</time></trkpt><trkpt lat="44.6807583" lon="10.0163488"><ele>179.25</ele><time>2026-04-11T07:20:59.947Z</time></trkpt><trkpt lat="44.6806179" lon="10.0163509"><ele>179.5</ele><time>2026-04-11T07:21:00.947Z</time></trkpt><trkpt lat="44.6804764" lon="10.0163614"><ele>179.75</ele><time>2026-04-11T07:21:01.946Z</time></trkpt><trkpt lat="44.680336" lon="10.0163677"><ele>180.0</ele><time>2026-04-11T07:21:02.947Z</time></trkpt><trkpt lat="44.6801957" lon="10.0163738"><ele>181.0</ele><time>2026-04-11T07:21:03.947Z</time></trkpt><trkpt lat="44.6800518" lon="10.0163886"><ele>182.0</ele><time>2026-04-11T07:21:04.947Z</time></trkpt><trkpt lat="44.6799109" lon="10.0163975"><ele>183.0</ele><time>2026-04-11T07:21:05.946Z</time></trkpt><trkpt lat="44.6797697" lon="10.016413"><ele>184.0</ele><time>2026-04-11T07:21:06.946Z</time></trkpt><trkpt lat="44.6796326" lon="10.0164413"><ele>184.0</ele><time>2026-04-11T07:21:07.947Z</time></trkpt><trkpt lat="44.6794986" lon="10.0164829"><ele>184.0</ele><time>2026-04-11T07:21:08.947Z</time></trkpt><trkpt lat="44.6793686" lon="10.0165321"><ele>184.0</ele><time>2026-04-11T07:21:09.946Z</time></trkpt><trkpt lat="44.6792492" lon="10.016597"><ele>184.0</ele><time>2026-04-11T07:21:10.947Z</time></trkpt><trkpt lat="44.679136" lon="10.0166781"><ele>185.79999999999998</ele><time>2026-04-11T07:21:11.947Z</time></trkpt><trkpt lat="44.6790336" lon="10.0167741"><ele>187.6</ele><time>2026-04-11T07:21:12.947Z</time></trkpt><trkpt lat="44.6789472" lon="10.0168774"><ele>189.4</ele><time>2026-04-11T07:21:13.947Z</time></trkpt><trkpt lat="44.6788694" lon="10.0169793"><ele>191.2</ele><time>2026-04-11T07:21:14.947Z</time></trkpt><trkpt lat="44.6787942" lon="10.0170573"><ele>193.0</ele><time>2026-04-11T07:21:15.947Z</time></trkpt><trkpt lat="44.6787229" lon="10.017124"><ele>193.0</ele><time>2026-04-11T07:21:16.947Z</time></trkpt><trkpt lat="44.6786523" lon="10.0171858"><ele>193.0</ele><time>2026-04-11T07:21:17.946Z</time></trkpt><trkpt lat="44.6785687" lon="10.0172395"><ele>193.0</ele><time>2026-04-11T07:21:18.946Z</time></trkpt><trkpt lat="44.6784757" lon="10.0172903"><ele>193.0</ele><time>2026-04-11T07:21:19.947Z</time></trkpt><trkpt lat="44.6783669" lon="10.0173273"><ele>193.0</ele><time>2026-04-11T07:21:20.947Z</time></trkpt><trkpt lat="44.6782519" lon="10.0173761"><ele>192.25</ele><time>2026-04-11T07:21:21.947Z</time></trkpt><trkpt lat="44.6781382" lon="10.0174268"><ele>191.5</ele><time>2026-04-11T07:21:22.946Z</time></trkpt><trkpt lat="44.6780255" lon="10.017488"><ele>190.75</ele><time>2026-04-11T07:21:23.946Z</time></trkpt><trkpt lat="44.6779161" lon="10.0175569"><ele>190.0</ele><time>2026-04-11T07:21:24.946Z</time></trkpt><trkpt lat="44.6778175" lon="10.017636"><ele>190.66666666666669</ele><time>2026-04-11T07:21:25.947Z</time></trkpt><trkpt lat="44.6777375" lon="10.0177026"><ele>191.33333333333334</ele><time>2026-04-11T07:21:26.947Z</time></trkpt><trkpt lat="44.6776628" lon="10.0177656"><ele>192.0</ele><time>2026-04-11T07:21:27.947Z</time></trkpt><trkpt lat="44.6775677" lon="10.0178341"><ele>192.66666666666669</ele><time>2026-04-11T07:21:29.946Z</time></trkpt><trkpt lat="44.67748" lon="10.0178527"><ele>193.33333333333334</ele><time>2026-04-11T07:21:31.946Z</time></trkpt><trkpt lat="44.6774116" lon="10.0178139"><ele>194.0</ele><time>2026-04-11T07:21:34.947Z</time></trkpt><trkpt lat="44.6773088" lon="10.0177597"><ele>194.00000000000003</ele><time>2026-04-11T07:21:37.947Z</time></trkpt><trkpt lat="44.6772324" lon="10.0177165"><ele>194.0</ele><time>2026-04-11T07:21:39.947Z</time></trkpt><trkpt lat="44.6772857" lon="10.0177777"><ele>194.0</ele><time>2026-04-11T07:21:43.946Z</time></trkpt><trkpt lat="44.6773676" lon="10.0178258"><ele>194.0</ele><time>2026-04-11T07:21:44.946Z</time></trkpt><trkpt lat="44.6774526" lon="10.0178352"><ele>194.00000000000003</ele><time>2026-04-11T07:21:45.946Z</time></trkpt><trkpt lat="44.6775446" lon="10.0178321"><ele>194.0</ele><time>2026-04-11T07:21:46.947Z</time></trkpt><trkpt lat="44.6776157" lon="10.0178253"><ele>194.0</ele><time>2026-04-11T07:21:47.946Z</time></trkpt><trkpt lat="44.6777241" lon="10.0177504"><ele>194.0</ele><time>2026-04-11T07:21:49.947Z</time></trkpt><trkpt lat="44.6777993" lon="10.017647"><ele>194.0</ele><time>2026-04-11T07:21:51.948Z</time></trkpt><trkpt lat="44.6777899" lon="10.0175373"><ele>194.0</ele><time>2026-04-11T07:21:54.947Z</time></trkpt><trkpt lat="44.6777801" lon="10.0174361"><ele>194.0</ele><time>2026-04-11T07:21:58.947Z</time></trkpt><trkpt lat="44.6777175" lon="10.0173136"><ele>195.50000000000003</ele><time>2026-04-11T07:22:00.947Z</time></trkpt><trkpt lat="44.6776368" lon="10.0171917"><ele>197.0</ele><time>2026-04-11T07:22:02.947Z</time></trkpt><trkpt lat="44.6775856" lon="10.0171385"><ele>198.5</ele><time>2026-04-11T07:22:03.947Z</time></trkpt><trkpt lat="44.6775251" lon="10.0170904"><ele>200.0</ele><time>2026-04-11T07:22:04.946Z</time></trkpt><trkpt lat="44.6774525" lon="10.0170569"><ele>201.50000000000003</ele><time>2026-04-11T07:22:05.947Z</time></trkpt><trkpt lat="44.6773781" lon="10.0170401"><ele>203.0</ele><time>2026-04-11T07:22:06.947Z</time></trkpt><trkpt lat="44.6773033" lon="10.0170318"><ele>203.00000000000003</ele><time>2026-04-11T07:22:07.947Z</time></trkpt><trkpt lat="44.6772407" lon="10.0170107"><ele>203.0</ele><time>2026-04-11T07:22:08.947Z</time></trkpt><trkpt lat="44.6771487" lon="10.0168816"><ele>203.0</ele><time>2026-04-11T07:22:10.947Z</time></trkpt><trkpt lat="44.6770966" lon="10.0168102"><ele>203.0</ele><time>2026-04-11T07:22:11.946Z</time></trkpt><trkpt lat="44.6770515" lon="10.0167331"><ele>203.00000000000003</ele><time>2026-04-11T07:22:12.946Z</time></trkpt><trkpt lat="44.6769876" lon="10.0166577"><ele>203.0</ele><time>2026-04-11T07:22:13.946Z</time></trkpt><trkpt lat="44.6768932" lon="10.016638"><ele>204.8</ele><time>2026-04-11T07:22:14.946Z</time></trkpt><trkpt lat="44.6768089" lon="10.0165833"><ele>206.60000000000002</ele><time>2026-04-11T07:22:15.947Z</time></trkpt><trkpt lat="44.6767173" lon="10.016536"><ele>208.39999999999998</ele><time>2026-04-11T07:22:16.947Z</time></trkpt><trkpt lat="44.676622" lon="10.0165039"><ele>210.2</ele><time>2026-04-11T07:22:17.947Z</time></trkpt><trkpt lat="44.6765175" lon="10.0164731"><ele>212.0</ele><time>2026-04-11T07:22:18.946Z</time></trkpt><trkpt lat="44.6764235" lon="10.016443"><ele>212.0</ele><time>2026-04-11T07:22:19.946Z</time></trkpt><trkpt lat="44.6763348" lon="10.0164167"><ele>212.0</ele><time>2026-04-11T07:22:20.947Z</time></trkpt><trkpt lat="44.6762695" lon="10.0164034"><ele>212.0</ele><time>2026-04-11T07:22:21.947Z</time></trkpt><trkpt lat="44.6762034" lon="10.0163961"><ele>212.0</ele><time>2026-04-11T07:22:22.947Z</time></trkpt><trkpt lat="44.676275" lon="10.0163864"><ele>212.0</ele><time>2026-04-11T07:22:47.946Z</time></trkpt><trkpt lat="44.6763255" lon="10.0164649"><ele>212.0</ele><time>2026-04-11T07:22:50.946Z</time></trkpt><trkpt lat="44.6762584" lon="10.0165063"><ele>212.0</ele><time>2026-04-11T07:23:00.947Z</time></trkpt><trkpt lat="44.6761854" lon="10.0165151"><ele>212.00000000000003</ele><time>2026-04-11T07:23:02.947Z</time></trkpt><trkpt lat="44.6761077" lon="10.0164916"><ele>212.0</ele><time>2026-04-11T07:23:04.948Z</time></trkpt><trkpt lat="44.6760273" lon="10.0164382"><ele>212.0</ele><time>2026-04-11T07:23:06.947Z</time></trkpt><trkpt lat="44.6759424" lon="10.0164074"><ele>212.0</ele><time>2026-04-11T07:23:08.947Z</time></trkpt><trkpt lat="44.6758581" lon="10.0164254"><ele>212.00000000000003</ele><time>2026-04-11T07:23:10.947Z</time></trkpt><trkpt lat="44.6757879" lon="10.0164359"><ele>212.0</ele><time>2026-04-11T07:23:12.947Z</time></trkpt><trkpt lat="44.6757222" lon="10.0164179"><ele>211.50000000000003</ele><time>2026-04-11T07:23:15.948Z</time></trkpt><trkpt lat="44.6756389" lon="10.0164588"><ele>211.0</ele><time>2026-04-11T07:23:22.947Z</time></trkpt><trkpt lat="44.6755797" lon="10.0165068"><ele>210.5</ele><time>2026-04-11T07:23:26.947Z</time></trkpt><trkpt lat="44.6755079" lon="10.0165512"><ele>210.0</ele><time>2026-04-11T07:23:32.947Z</time></trkpt><trkpt lat="44.6754282" lon="10.0165279"><ele>209.50000000000003</ele><time>2026-04-11T07:23:35.946Z</time></trkpt><trkpt lat="44.6753434" lon="10.016516"><ele>209.0</ele><time>2026-04-11T07:23:38.947Z</time></trkpt><trkpt lat="44.6752779" lon="10.0165181"><ele>209.2</ele><time>2026-04-11T07:23:40.946Z</time></trkpt><trkpt lat="44.6751856" lon="10.0165145"><ele>209.39999999999998</ele><time>2026-04-11T07:23:53.946Z</time></trkpt><trkpt lat="44.6750861" lon="10.0165297"><ele>209.6</ele><time>2026-04-11T07:23:55.947Z</time></trkpt><trkpt lat="44.6749685" lon="10.0165149"><ele>209.8</ele><time>2026-04-11T07:23:57.946Z</time></trkpt><trkpt lat="44.6748659" lon="10.0165219"><ele>210.0</ele><time>2026-04-11T07:23:59.946Z</time></trkpt><trkpt lat="44.6747668" lon="10.0165266"><ele>210.0</ele><time>2026-04-11T07:24:01.946Z</time></trkpt><trkpt lat="44.6747044" lon="10.0165107"><ele>210.0</ele><time>2026-04-11T07:24:03.946Z</time></trkpt><trkpt lat="44.6747107" lon="10.0166306"><ele>210.0</ele><time>2026-04-11T07:24:42.947Z</time></trkpt><trkpt lat="44.6747361" lon="10.0167379"><ele>210.0</ele><time>2026-04-11T07:24:58.947Z</time></trkpt><trkpt lat="44.6747555" lon="10.0168604"><ele>210.0</ele><time>2026-04-11T07:25:01.947Z</time></trkpt><trkpt lat="44.6747762" lon="10.0169783"><ele>210.0</ele><time>2026-04-11T07:25:05.946Z</time></trkpt><trkpt lat="44.6747657" lon="10.0170837"><ele>209.5</ele><time>2026-04-11T07:25:07.947Z</time></trkpt><trkpt lat="44.6747166" lon="10.0171606"><ele>209.0</ele><time>2026-04-11T07:25:10.947Z</time></trkpt><trkpt lat="44.6746476" lon="10.0172462"><ele>208.5</ele><time>2026-04-11T07:25:43.946Z</time></trkpt><trkpt lat="44.6745957" lon="10.0173099"><ele>208.0</ele><time>2026-04-11T07:25:46.947Z</time></trkpt><trkpt lat="44.6746448" lon="10.0172499"><ele>207.5</ele><time>2026-04-11T07:26:17.947Z</time></trkpt><trkpt lat="44.6746877" lon="10.0171468"><ele>207.0</ele><time>2026-04-11T07:26:23.947Z</time></trkpt><trkpt lat="44.6747535" lon="10.017073"><ele>207.00000000000003</ele><time>2026-04-11T07:26:26.947Z</time></trkpt><trkpt lat="44.6747809" lon="10.0169824"><ele>207.0</ele><time>2026-04-11T07:26:28.946Z</time></trkpt><trkpt lat="44.6747807" lon="10.0168858"><ele>207.0</ele><time>2026-04-11T07:26:31.946Z</time></trkpt><trkpt lat="44.6747439" lon="10.0168068"><ele>207.0</ele><time>2026-04-11T07:26:34.947Z</time></trkpt><trkpt lat="44.6747401" lon="10.0166759"><ele>207.0</ele><time>2026-04-11T07:26:37.946Z</time></trkpt><trkpt lat="44.6747248" lon="10.0165881"><ele>207.00000000000003</ele><time>2026-04-11T07:26:39.947Z</time></trkpt><trkpt lat="44.6746564" lon="10.0165159"><ele>207.0</ele><time>2026-04-11T07:26:42.946Z</time></trkpt><trkpt lat="44.6745811" lon="10.0164986"><ele>207.6</ele><time>2026-04-11T07:26:44.946Z</time></trkpt><trkpt lat="44.6745121" lon="10.0164553"><ele>208.2</ele><time>2026-04-11T07:26:46.948Z</time></trkpt><trkpt lat="44.6744073" lon="10.0163879"><ele>208.8</ele><time>2026-04-11T07:26:48.946Z</time></trkpt><trkpt lat="44.6742906" lon="10.0163854"><ele>209.4</ele><time>2026-04-11T07:26:50.946Z</time></trkpt><trkpt lat="44.6741617" lon="10.0163965"><ele>210.0</ele><time>2026-04-11T07:26:52.947Z</time></trkpt><trkpt lat="44.6740988" lon="10.0163893"><ele>210.5</ele><time>2026-04-11T07:26:53.947Z</time></trkpt><trkpt lat="44.6740358" lon="10.0163744"><ele>211.0</ele><time>2026-04-11T07:26:54.947Z</time></trkpt><trkpt lat="44.6739719" lon="10.0163678"><ele>211.5</ele><time>2026-04-11T07:26:55.946Z</time></trkpt><trkpt lat="44.6738559" lon="10.0163467"><ele>212.0</ele><time>2026-04-11T07:26:57.947Z</time></trkpt><trkpt lat="44.6737567" lon="10.0163013"><ele>212.5</ele><time>2026-04-11T07:26:59.947Z</time></trkpt><trkpt lat="44.6737006" lon="10.01626"><ele>213.0</ele><time>2026-04-11T07:27:00.947Z</time></trkpt><trkpt lat="44.6736344" lon="10.016235"><ele>212.85714285714283</ele><time>2026-04-11T07:27:01.947Z</time></trkpt><trkpt lat="44.6735572" lon="10.0161891"><ele>212.71428571428572</ele><time>2026-04-11T07:27:02.947Z</time></trkpt><trkpt lat="44.6734911" lon="10.0161439"><ele>212.57142857142856</ele><time>2026-04-11T07:27:03.947Z</time></trkpt><trkpt lat="44.6734211" lon="10.0161134"><ele>212.42857142857142</ele><time>2026-04-11T07:27:04.946Z</time></trkpt><trkpt lat="44.6733632" lon="10.0160669"><ele>212.28571428571428</ele><time>2026-04-11T07:27:05.947Z</time></trkpt><trkpt lat="44.6733003" lon="10.0160387"><ele>212.14285714285714</ele><time>2026-04-11T07:27:06.946Z</time></trkpt><trkpt lat="44.6732314" lon="10.0160076"><ele>212.0</ele><time>2026-04-11T07:27:07.947Z</time></trkpt><trkpt lat="44.6731557" lon="10.0159885"><ele>212.00000000000003</ele><time>2026-04-11T07:27:08.947Z</time></trkpt><trkpt lat="44.6730788" lon="10.0159675"><ele>212.0</ele><time>2026-04-11T07:27:09.947Z</time></trkpt><trkpt lat="44.6730009" lon="10.015953"><ele>212.0</ele><time>2026-04-11T07:27:10.947Z</time></trkpt><trkpt lat="44.6729249" lon="10.0159375"><ele>212.0</ele><time>2026-04-11T07:27:11.946Z</time></trkpt><trkpt lat="44.6728494" lon="10.015925"><ele>212.00000000000003</ele><time>2026-04-11T07:27:12.947Z</time></trkpt><trkpt lat="44.6727692" lon="10.0159075"><ele>212.0</ele><time>2026-04-11T07:27:13.947Z</time></trkpt><trkpt lat="44.6726793" lon="10.0159182"><ele>212.50000000000003</ele><time>2026-04-11T07:27:14.947Z</time></trkpt><trkpt lat="44.6725981" lon="10.01593"><ele>213.0</ele><time>2026-04-11T07:27:15.947Z</time></trkpt><trkpt lat="44.6724715" lon="10.0159454"><ele>213.5</ele><time>2026-04-11T07:27:17.947Z</time></trkpt><trkpt lat="44.6724063" lon="10.0159543"><ele>214.0</ele><time>2026-04-11T07:27:19.947Z</time></trkpt><trkpt lat="44.6723404" lon="10.0158888"><ele>214.50000000000003</ele><time>2026-04-11T07:27:21.947Z</time></trkpt><trkpt lat="44.6722537" lon="10.0158386"><ele>215.0</ele><time>2026-04-11T07:27:23.946Z</time></trkpt><trkpt lat="44.6721611" lon="10.0158439"><ele>215.00000000000003</ele><time>2026-04-11T07:27:24.946Z</time></trkpt><trkpt lat="44.6720616" lon="10.0158343"><ele>215.0</ele><time>2026-04-11T07:27:26.946Z</time></trkpt><trkpt lat="44.6720002" lon="10.0158608"><ele>215.0</ele><time>2026-04-11T07:27:28.947Z</time></trkpt><trkpt lat="44.6719457" lon="10.0159287"><ele>215.0</ele><time>2026-04-11T07:27:36.947Z</time></trkpt><trkpt lat="44.6718643" lon="10.0159968"><ele>215.00000000000003</ele><time>2026-04-11T07:27:39.947Z</time></trkpt><trkpt lat="44.6717957" lon="10.0160024"><ele>215.0</ele><time>2026-04-11T07:27:41.947Z</time></trkpt><trkpt lat="44.6717605" lon="10.0159281"><ele>217.2</ele><time>2026-04-11T07:27:42.946Z</time></trkpt><trkpt lat="44.6716665" lon="10.0158196"><ele>219.4</ele><time>2026-04-11T07:27:44.947Z</time></trkpt><trkpt lat="44.6716112" lon="10.0157638"><ele>221.60000000000002</ele><time>2026-04-11T07:27:45.947Z</time></trkpt><trkpt lat="44.6715501" lon="10.0156971"><ele>223.8</ele><time>2026-04-11T07:27:46.946Z</time></trkpt><trkpt lat="44.6714694" lon="10.0156132"><ele>226.0</ele><time>2026-04-11T07:27:47.946Z</time></trkpt><trkpt lat="44.6714017" lon="10.0155425"><ele>225.99999999999997</ele><time>2026-04-11T07:27:48.946Z</time></trkpt><trkpt lat="44.671339" lon="10.015493"><ele>226.0</ele><time>2026-04-11T07:27:49.947Z</time></trkpt><trkpt lat="44.6712657" lon="10.0154591"><ele>226.0</ele><time>2026-04-11T07:27:50.946Z</time></trkpt><trkpt lat="44.6711872" lon="10.015433"><ele>226.0</ele><time>2026-04-11T07:27:51.947Z</time></trkpt><trkpt lat="44.6711027" lon="10.0154139"><ele>225.99999999999997</ele><time>2026-04-11T07:27:52.947Z</time></trkpt><trkpt lat="44.6710285" lon="10.0153906"><ele>226.0</ele><time>2026-04-11T07:27:53.946Z</time></trkpt><trkpt lat="44.6709498" lon="10.0153681"><ele>225.83333333333331</ele><time>2026-04-11T07:27:54.946Z</time></trkpt><trkpt lat="44.6708779" lon="10.0153435"><ele>225.66666666666666</ele><time>2026-04-11T07:27:55.947Z</time></trkpt><trkpt lat="44.6708128" lon="10.0153046"><ele>225.5</ele><time>2026-04-11T07:27:56.947Z</time></trkpt><trkpt lat="44.6707451" lon="10.0152439"><ele>225.33333333333331</ele><time>2026-04-11T07:27:57.946Z</time></trkpt><trkpt lat="44.6706833" lon="10.0151571"><ele>225.16666666666666</ele><time>2026-04-11T07:27:58.947Z</time></trkpt><trkpt lat="44.670633" lon="10.0150515"><ele>225.0</ele><time>2026-04-11T07:27:59.947Z</time></trkpt><trkpt lat="44.6705886" lon="10.0149451"><ele>226.28571428571433</ele><time>2026-04-11T07:28:00.947Z</time></trkpt><trkpt lat="44.6705499" lon="10.014854"><ele>227.57142857142858</ele><time>2026-04-11T07:28:01.947Z</time></trkpt><trkpt lat="44.6705036" lon="10.0147761"><ele>228.8571428571429</ele><time>2026-04-11T07:28:02.947Z</time></trkpt><trkpt lat="44.6704526" lon="10.0147034"><ele>230.14285714285717</ele><time>2026-04-11T07:28:03.947Z</time></trkpt><trkpt lat="44.6704039" lon="10.0146299"><ele>231.42857142857144</ele><time>2026-04-11T07:28:04.946Z</time></trkpt><trkpt lat="44.6703696" lon="10.0145409"><ele>232.71428571428572</ele><time>2026-04-11T07:28:06.947Z</time></trkpt><trkpt lat="44.6704106" lon="10.0146099"><ele>234.0</ele><time>2026-04-11T07:28:42.947Z</time></trkpt><trkpt lat="44.6704529" lon="10.0147077"><ele>234.0</ele><time>2026-04-11T07:29:30.947Z</time></trkpt><trkpt lat="44.6704998" lon="10.0147723"><ele>234.0</ele><time>2026-04-11T07:29:32.947Z</time></trkpt><trkpt lat="44.6705474" lon="10.0148442"><ele>234.0</ele><time>2026-04-11T07:29:34.946Z</time></trkpt><trkpt lat="44.6705908" lon="10.0149276"><ele>234.0</ele><time>2026-04-11T07:29:36.946Z</time></trkpt><trkpt lat="44.6706208" lon="10.0150468"><ele>234.0</ele><time>2026-04-11T07:29:38.947Z</time></trkpt><trkpt lat="44.6706528" lon="10.0151652"><ele>234.0</ele><time>2026-04-11T07:29:40.947Z</time></trkpt><trkpt lat="44.6707041" lon="10.0152614"><ele>232.39999999999998</ele><time>2026-04-11T07:29:42.947Z</time></trkpt><trkpt lat="44.6707988" lon="10.0153251"><ele>230.79999999999998</ele><time>2026-04-11T07:29:44.947Z</time></trkpt><trkpt lat="44.6708696" lon="10.0153562"><ele>229.20000000000002</ele><time>2026-04-11T07:29:45.947Z</time></trkpt><trkpt lat="44.6709745" lon="10.0153885"><ele>227.60000000000002</ele><time>2026-04-11T07:29:47.948Z</time></trkpt><trkpt lat="44.671075" lon="10.0154253"><ele>226.0</ele><time>2026-04-11T07:29:49.947Z</time></trkpt><trkpt lat="44.6712014" lon="10.0154465"><ele>226.0</ele><time>2026-04-11T07:29:51.947Z</time></trkpt><trkpt lat="44.6713172" lon="10.0154897"><ele>226.00000000000003</ele><time>2026-04-11T07:29:53.947Z</time></trkpt><trkpt lat="44.6714281" lon="10.0155713"><ele>226.00000000000003</ele><time>2026-04-11T07:29:55.947Z</time></trkpt><trkpt lat="44.6714778" lon="10.0156327"><ele>226.0</ele><time>2026-04-11T07:29:56.947Z</time></trkpt><trkpt lat="44.6715739" lon="10.0157497"><ele>226.0</ele><time>2026-04-11T07:29:58.947Z</time></trkpt><trkpt lat="44.6716615" lon="10.0158397"><ele>226.16666666666666</ele><time>2026-04-11T07:30:00.946Z</time></trkpt><trkpt lat="44.6717517" lon="10.0159218"><ele>226.33333333333331</ele><time>2026-04-11T07:30:02.947Z</time></trkpt><trkpt lat="44.6718167" lon="10.0159271"><ele>226.5</ele><time>2026-04-11T07:30:04.947Z</time></trkpt><trkpt lat="44.6718902" lon="10.0158958"><ele>226.66666666666669</ele><time>2026-04-11T07:30:07.946Z</time></trkpt><trkpt lat="44.6719607" lon="10.0158576"><ele>226.83333333333334</ele><time>2026-04-11T07:30:09.947Z</time></trkpt><trkpt lat="44.6720591" lon="10.015823"><ele>227.0</ele><time>2026-04-11T07:30:11.947Z</time></trkpt><trkpt lat="44.6721413" lon="10.0158145"><ele>225.00000000000003</ele><time>2026-04-11T07:30:13.947Z</time></trkpt><trkpt lat="44.6722273" lon="10.0158237"><ele>223.0</ele><time>2026-04-11T07:30:15.947Z</time></trkpt><trkpt lat="44.6723009" lon="10.0158476"><ele>221.0</ele><time>2026-04-11T07:30:17.947Z</time></trkpt><trkpt lat="44.6723898" lon="10.0158989"><ele>219.0</ele><time>2026-04-11T07:30:19.946Z</time></trkpt><trkpt lat="44.6724446" lon="10.0159458"><ele>217.00000000000003</ele><time>2026-04-11T07:30:21.947Z</time></trkpt><trkpt lat="44.6725485" lon="10.0159618"><ele>215.0</ele><time>2026-04-11T07:30:23.947Z</time></trkpt><trkpt lat="44.6726243" lon="10.0159512"><ele>215.0</ele><time>2026-04-11T07:30:24.947Z</time></trkpt><trkpt lat="44.6726986" lon="10.0159405"><ele>215.0</ele><time>2026-04-11T07:30:25.946Z</time></trkpt><trkpt lat="44.6727726" lon="10.0159353"><ele>215.0</ele><time>2026-04-11T07:30:26.946Z</time></trkpt><trkpt lat="44.6728502" lon="10.0159281"><ele>215.0</ele><time>2026-04-11T07:30:27.946Z</time></trkpt><trkpt lat="44.6729115" lon="10.01595"><ele>215.0</ele><time>2026-04-11T07:30:28.946Z</time></trkpt><trkpt lat="44.672977" lon="10.0159605"><ele>215.0</ele><time>2026-04-11T07:30:29.946Z</time></trkpt><trkpt lat="44.6730507" lon="10.0159688"><ele>215.0</ele><time>2026-04-11T07:30:30.946Z</time></trkpt><trkpt lat="44.6731356" lon="10.0159754"><ele>214.66666666666669</ele><time>2026-04-11T07:30:31.946Z</time></trkpt><trkpt lat="44.6732171" lon="10.0159915"><ele>214.33333333333334</ele><time>2026-04-11T07:30:32.947Z</time></trkpt><trkpt lat="44.673296" lon="10.0160231"><ele>214.0</ele><time>2026-04-11T07:30:33.947Z</time></trkpt><trkpt lat="44.6733824" lon="10.0160539"><ele>213.66666666666669</ele><time>2026-04-11T07:30:34.946Z</time></trkpt><trkpt lat="44.6734666" lon="10.016094"><ele>213.33333333333334</ele><time>2026-04-11T07:30:35.947Z</time></trkpt><trkpt lat="44.6735482" lon="10.016139"><ele>213.0</ele><time>2026-04-11T07:30:36.947Z</time></trkpt><trkpt lat="44.6736174" lon="10.0161929"><ele>213.0</ele><time>2026-04-11T07:30:37.947Z</time></trkpt><trkpt lat="44.6737023" lon="10.0162304"><ele>213.0</ele><time>2026-04-11T07:30:38.947Z</time></trkpt><trkpt lat="44.6737616" lon="10.016277"><ele>213.0</ele><time>2026-04-11T07:30:39.947Z</time></trkpt><trkpt lat="44.6738548" lon="10.0163272"><ele>213.0</ele><time>2026-04-11T07:30:41.946Z</time></trkpt><trkpt lat="44.673974" lon="10.016344"><ele>213.0</ele><time>2026-04-11T07:30:43.947Z</time></trkpt><trkpt lat="44.6740882" lon="10.0163549"><ele>213.0</ele><time>2026-04-11T07:30:45.946Z</time></trkpt><trkpt lat="44.6741976" lon="10.0163662"><ele>213.0</ele><time>2026-04-11T07:30:47.946Z</time></trkpt><trkpt lat="44.6742987" lon="10.0163514"><ele>213.0</ele><time>2026-04-11T07:30:49.946Z</time></trkpt><trkpt lat="44.674388" lon="10.0163421"><ele>213.0</ele><time>2026-04-11T07:30:51.946Z</time></trkpt><trkpt lat="44.6744653" lon="10.0163568"><ele>213.0</ele><time>2026-04-11T07:30:53.946Z</time></trkpt><trkpt lat="44.6745228" lon="10.0164125"><ele>213.0</ele><time>2026-04-11T07:30:54.946Z</time></trkpt><trkpt lat="44.6746237" lon="10.0164937"><ele>212.4</ele><time>2026-04-11T07:30:56.946Z</time></trkpt><trkpt lat="44.6747188" lon="10.0165132"><ele>211.8</ele><time>2026-04-11T07:30:58.946Z</time></trkpt><trkpt lat="44.674827" lon="10.0165032"><ele>211.2</ele><time>2026-04-11T07:31:00.945Z</time></trkpt><trkpt lat="44.6749523" lon="10.0164909"><ele>210.6</ele><time>2026-04-11T07:31:02.945Z</time></trkpt><trkpt lat="44.6750602" lon="10.0164936"><ele>210.0</ele><time>2026-04-11T07:31:04.946Z</time></trkpt><trkpt lat="44.6751637" lon="10.0165064"><ele>209.8</ele><time>2026-04-11T07:31:06.945Z</time></trkpt><trkpt lat="44.6752759" lon="10.0164962"><ele>209.6</ele><time>2026-04-11T07:31:08.946Z</time></trkpt><trkpt lat="44.6753699" lon="10.0164691"><ele>209.39999999999998</ele><time>2026-04-11T07:31:12.946Z</time></trkpt><trkpt lat="44.6754414" lon="10.0164764"><ele>209.2</ele><time>2026-04-11T07:31:15.946Z</time></trkpt><trkpt lat="44.6755252" lon="10.016462"><ele>209.0</ele><time>2026-04-11T07:31:18.946Z</time></trkpt><trkpt lat="44.6756074" lon="10.0164123"><ele>209.00000000000003</ele><time>2026-04-11T07:31:20.946Z</time></trkpt><trkpt lat="44.6756976" lon="10.0163682"><ele>209.0</ele><time>2026-04-11T07:31:22.946Z</time></trkpt><trkpt lat="44.6757902" lon="10.0163545"><ele>209.0</ele><time>2026-04-11T07:31:26.945Z</time></trkpt><trkpt lat="44.6758574" lon="10.0163447"><ele>209.0</ele><time>2026-04-11T07:31:28.945Z</time></trkpt><trkpt lat="44.6759327" lon="10.0163573"><ele>209.00000000000003</ele><time>2026-04-11T07:31:30.945Z</time></trkpt><trkpt lat="44.6760013" lon="10.0163911"><ele>209.0</ele><time>2026-04-11T07:31:32.946Z</time></trkpt><trkpt lat="44.676083" lon="10.0164381"><ele>209.50000000000003</ele><time>2026-04-11T07:31:34.946Z</time></trkpt><trkpt lat="44.6761755" lon="10.016489"><ele>210.0</ele><time>2026-04-11T07:31:36.946Z</time></trkpt><trkpt lat="44.6762396" lon="10.0164972"><ele>210.5</ele><time>2026-04-11T07:31:38.945Z</time></trkpt><trkpt lat="44.6762966" lon="10.0164495"><ele>211.0</ele><time>2026-04-11T07:31:40.946Z</time></trkpt><trkpt lat="44.6763795" lon="10.0164049"><ele>211.50000000000003</ele><time>2026-04-11T07:31:42.945Z</time></trkpt><trkpt lat="44.6764872" lon="10.0164157"><ele>212.0</ele><time>2026-04-11T07:31:44.946Z</time></trkpt><trkpt lat="44.6765527" lon="10.0164435"><ele>212.00000000000003</ele><time>2026-04-11T07:31:45.945Z</time></trkpt><trkpt lat="44.6766279" lon="10.016474"><ele>212.0</ele><time>2026-04-11T07:31:46.945Z</time></trkpt><trkpt lat="44.6767088" lon="10.0164989"><ele>212.0</ele><time>2026-04-11T07:31:47.946Z</time></trkpt><trkpt lat="44.6767957" lon="10.0165375"><ele>212.0</ele><time>2026-04-11T07:31:48.946Z</time></trkpt><trkpt lat="44.6768788" lon="10.016577"><ele>212.00000000000003</ele><time>2026-04-11T07:31:49.946Z</time></trkpt><trkpt lat="44.6769597" lon="10.016621"><ele>212.0</ele><time>2026-04-11T07:31:50.946Z</time></trkpt><trkpt lat="44.6770223" lon="10.0166826"><ele>210.2</ele><time>2026-04-11T07:31:51.946Z</time></trkpt><trkpt lat="44.6770766" lon="10.0167556"><ele>208.39999999999998</ele><time>2026-04-11T07:31:52.946Z</time></trkpt><trkpt lat="44.6771204" lon="10.0168303"><ele>206.60000000000002</ele><time>2026-04-11T07:31:53.946Z</time></trkpt><trkpt lat="44.6771929" lon="10.016973"><ele>204.8</ele><time>2026-04-11T07:31:55.947Z</time></trkpt><trkpt lat="44.6772716" lon="10.0170089"><ele>203.0</ele><time>2026-04-11T07:31:57.946Z</time></trkpt><trkpt lat="44.6773927" lon="10.0170316"><ele>203.00000000000003</ele><time>2026-04-11T07:31:59.946Z</time></trkpt><trkpt lat="44.6775086" lon="10.0170827"><ele>203.0</ele><time>2026-04-11T07:32:01.946Z</time></trkpt><trkpt lat="44.6775748" lon="10.0171377"><ele>203.0</ele><time>2026-04-11T07:32:02.946Z</time></trkpt><trkpt lat="44.6776462" lon="10.0171902"><ele>203.0</ele><time>2026-04-11T07:32:03.946Z</time></trkpt><trkpt lat="44.6777044" lon="10.0172556"><ele>203.00000000000003</ele><time>2026-04-11T07:32:04.946Z</time></trkpt><trkpt lat="44.6777464" lon="10.017338"><ele>203.0</ele><time>2026-04-11T07:32:05.945Z</time></trkpt><trkpt lat="44.6777509" lon="10.0174449"><ele>201.50000000000003</ele><time>2026-04-11T07:32:07.945Z</time></trkpt><trkpt lat="44.6777653" lon="10.0175479"><ele>200.0</ele><time>2026-04-11T07:32:10.946Z</time></trkpt><trkpt lat="44.6777972" lon="10.0176461"><ele>198.5</ele><time>2026-04-11T07:32:13.945Z</time></trkpt><trkpt lat="44.6777454" lon="10.0177461"><ele>197.0</ele><time>2026-04-11T07:32:16.946Z</time></trkpt><trkpt lat="44.6776816" lon="10.017799"><ele>195.50000000000003</ele><time>2026-04-11T07:32:19.945Z</time></trkpt><trkpt lat="44.6776078" lon="10.017831"><ele>194.0</ele><time>2026-04-11T07:32:26.946Z</time></trkpt><trkpt lat="44.6774989" lon="10.0178369"><ele>194.00000000000003</ele><time>2026-04-11T07:32:28.946Z</time></trkpt><trkpt lat="44.6774223" lon="10.0178171"><ele>194.0</ele><time>2026-04-11T07:32:29.945Z</time></trkpt><trkpt lat="44.6773413" lon="10.0177785"><ele>194.0</ele><time>2026-04-11T07:32:30.946Z</time></trkpt><trkpt lat="44.677267" lon="10.0177557"><ele>194.0</ele><time>2026-04-11T07:32:31.946Z</time></trkpt><trkpt lat="44.6771958" lon="10.017729"><ele>194.00000000000003</ele><time>2026-04-11T07:32:32.946Z</time></trkpt><trkpt lat="44.6771401" lon="10.017787"><ele>194.0</ele><time>2026-04-11T07:32:33.946Z</time></trkpt><trkpt lat="44.6771122" lon="10.0179381"><ele>194.0</ele><time>2026-04-11T07:32:35.946Z</time></trkpt><trkpt lat="44.6771366" lon="10.0180438"><ele>194.0</ele><time>2026-04-11T07:32:36.946Z</time></trkpt><trkpt lat="44.6771782" lon="10.0181272"><ele>194.0</ele><time>2026-04-11T07:32:37.946Z</time></trkpt><trkpt lat="44.6772324" lon="10.0182546"><ele>194.0</ele><time>2026-04-11T07:32:38.946Z</time></trkpt><trkpt lat="44.6772789" lon="10.0183839"><ele>194.0</ele><time>2026-04-11T07:32:39.946Z</time></trkpt><trkpt lat="44.6773219" lon="10.0185254"><ele>196.5</ele><time>2026-04-11T07:32:40.946Z</time></trkpt><trkpt lat="44.6773733" lon="10.0186791"><ele>199.0</ele><time>2026-04-11T07:32:41.946Z</time></trkpt><trkpt lat="44.6774459" lon="10.0188134"><ele>201.5</ele><time>2026-04-11T07:32:42.946Z</time></trkpt><trkpt lat="44.6775517" lon="10.0189232"><ele>204.0</ele><time>2026-04-11T07:32:43.945Z</time></trkpt><trkpt lat="44.6776543" lon="10.0189955"><ele>204.0</ele><time>2026-04-11T07:32:44.945Z</time></trkpt><trkpt lat="44.6777243" lon="10.0190858"><ele>204.0</ele><time>2026-04-11T07:32:45.945Z</time></trkpt><trkpt lat="44.677784" lon="10.0191907"><ele>204.0</ele><time>2026-04-11T07:32:46.945Z</time></trkpt><trkpt lat="44.6778194" lon="10.0193185"><ele>204.0</ele><time>2026-04-11T07:32:47.946Z</time></trkpt><trkpt lat="44.6778418" lon="10.0194675"><ele>204.0</ele><time>2026-04-11T07:32:48.946Z</time></trkpt><trkpt lat="44.6778544" lon="10.0196331"><ele>206.0</ele><time>2026-04-11T07:32:49.946Z</time></trkpt><trkpt lat="44.6778556" lon="10.0198181"><ele>208.0</ele><time>2026-04-11T07:32:50.945Z</time></trkpt><trkpt lat="44.6778503" lon="10.0200343"><ele>210.0</ele><time>2026-04-11T07:32:51.946Z</time></trkpt><trkpt lat="44.6778415" lon="10.0202653"><ele>210.33333333333331</ele><time>2026-04-11T07:32:52.946Z</time></trkpt><trkpt lat="44.6778363" lon="10.0205003"><ele>210.66666666666666</ele><time>2026-04-11T07:32:53.947Z</time></trkpt><trkpt lat="44.6778275" lon="10.0207499"><ele>211.0</ele><time>2026-04-11T07:32:54.946Z</time></trkpt><trkpt lat="44.6778179" lon="10.0209905"><ele>210.5</ele><time>2026-04-11T07:32:55.945Z</time></trkpt><trkpt lat="44.6778148" lon="10.0212183"><ele>210.0</ele><time>2026-04-11T07:32:56.946Z</time></trkpt><trkpt lat="44.6778405" lon="10.0214242"><ele>209.5</ele><time>2026-04-11T07:32:57.946Z</time></trkpt><trkpt lat="44.6778918" lon="10.0216015"><ele>209.0</ele><time>2026-04-11T07:32:58.946Z</time></trkpt><trkpt lat="44.6779573" lon="10.0217592"><ele>208.25</ele><time>2026-04-11T07:32:59.946Z</time></trkpt><trkpt lat="44.6780191" lon="10.021915"><ele>207.5</ele><time>2026-04-11T07:33:00.946Z</time></trkpt><trkpt lat="44.6780642" lon="10.0220748"><ele>206.75</ele><time>2026-04-11T07:33:01.946Z</time></trkpt><trkpt lat="44.6780825" lon="10.0222362"><ele>206.0</ele><time>2026-04-11T07:33:02.946Z</time></trkpt><trkpt lat="44.6780689" lon="10.0223992"><ele>206.5</ele><time>2026-04-11T07:33:03.946Z</time></trkpt><trkpt lat="44.6780256" lon="10.0225566"><ele>207.0</ele><time>2026-04-11T07:33:04.946Z</time></trkpt><trkpt lat="44.6779706" lon="10.022707"><ele>207.5</ele><time>2026-04-11T07:33:05.946Z</time></trkpt><trkpt lat="44.6779359" lon="10.0228643"><ele>208.0</ele><time>2026-04-11T07:33:06.946Z</time></trkpt><trkpt lat="44.6779307" lon="10.0230266"><ele>208.0</ele><time>2026-04-11T07:33:07.946Z</time></trkpt><trkpt lat="44.6779448" lon="10.0231889"><ele>208.0</ele><time>2026-04-11T07:33:08.946Z</time></trkpt><trkpt lat="44.6779756" lon="10.0233544"><ele>208.0</ele><time>2026-04-11T07:33:09.946Z</time></trkpt><trkpt lat="44.6780097" lon="10.0235248"><ele>208.0</ele><time>2026-04-11T07:33:10.945Z</time></trkpt><trkpt lat="44.6780469" lon="10.0237008"><ele>207.25</ele><time>2026-04-11T07:33:11.945Z</time></trkpt><trkpt lat="44.6780902" lon="10.0238822"><ele>206.5</ele><time>2026-04-11T07:33:12.945Z</time></trkpt><trkpt lat="44.6781307" lon="10.0240655"><ele>205.75</ele><time>2026-04-11T07:33:13.946Z</time></trkpt><trkpt lat="44.6781676" lon="10.024235"><ele>205.0</ele><time>2026-04-11T07:33:14.946Z</time></trkpt><trkpt lat="44.6782025" lon="10.0243944"><ele>205.0</ele><time>2026-04-11T07:33:15.946Z</time></trkpt><trkpt lat="44.6782331" lon="10.0245509"><ele>205.0</ele><time>2026-04-11T07:33:16.946Z</time></trkpt><trkpt lat="44.67826" lon="10.0247091"><ele>205.0</ele><time>2026-04-11T07:33:17.945Z</time></trkpt><trkpt lat="44.6782788" lon="10.0248704"><ele>205.0</ele><time>2026-04-11T07:33:18.946Z</time></trkpt><trkpt lat="44.6782931" lon="10.0250284"><ele>205.2</ele><time>2026-04-11T07:33:19.945Z</time></trkpt><trkpt lat="44.6783014" lon="10.0251803"><ele>205.4</ele><time>2026-04-11T07:33:20.946Z</time></trkpt><trkpt lat="44.6783119" lon="10.0253219"><ele>205.60000000000002</ele><time>2026-04-11T07:33:21.946Z</time></trkpt><trkpt lat="44.6783407" lon="10.0254437"><ele>205.8</ele><time>2026-04-11T07:33:22.946Z</time></trkpt><trkpt lat="44.6783904" lon="10.0255557"><ele>206.0</ele><time>2026-04-11T07:33:23.946Z</time></trkpt><trkpt lat="44.6784555" lon="10.025656"><ele>206.0</ele><time>2026-04-11T07:33:24.946Z</time></trkpt><trkpt lat="44.6785353" lon="10.0257553"><ele>206.0</ele><time>2026-04-11T07:33:25.946Z</time></trkpt><trkpt lat="44.6786156" lon="10.0258577"><ele>206.0</ele><time>2026-04-11T07:33:26.946Z</time></trkpt><trkpt lat="44.6786895" lon="10.0259635"><ele>206.0</ele><time>2026-04-11T07:33:27.945Z</time></trkpt><trkpt lat="44.6787533" lon="10.0260828"><ele>206.0</ele><time>2026-04-11T07:33:28.946Z</time></trkpt><trkpt lat="44.6788055" lon="10.0262074"><ele>205.0</ele><time>2026-04-11T07:33:29.946Z</time></trkpt><trkpt lat="44.6788563" lon="10.026326"><ele>204.0</ele><time>2026-04-11T07:33:30.945Z</time></trkpt><trkpt lat="44.67889" lon="10.0264504"><ele>203.0</ele><time>2026-04-11T07:33:31.945Z</time></trkpt><trkpt lat="44.6789158" lon="10.026577"><ele>202.0</ele><time>2026-04-11T07:33:32.946Z</time></trkpt><trkpt lat="44.6789352" lon="10.0267049"><ele>201.0</ele><time>2026-04-11T07:33:33.946Z</time></trkpt><trkpt lat="44.6789458" lon="10.0268304"><ele>201.0</ele><time>2026-04-11T07:33:34.946Z</time></trkpt><trkpt lat="44.6789463" lon="10.0269562"><ele>201.0</ele><time>2026-04-11T07:33:35.946Z</time></trkpt><trkpt lat="44.6789431" lon="10.0270747"><ele>201.0</ele><time>2026-04-11T07:33:36.947Z</time></trkpt><trkpt lat="44.6789359" lon="10.0271938"><ele>201.0</ele><time>2026-04-11T07:33:37.946Z</time></trkpt><trkpt lat="44.6789303" lon="10.0273054"><ele>201.0</ele><time>2026-04-11T07:33:38.945Z</time></trkpt><trkpt lat="44.6789192" lon="10.0274044"><ele>201.0</ele><time>2026-04-11T07:33:39.946Z</time></trkpt><trkpt lat="44.6789137" lon="10.0275449"><ele>200.66666666666666</ele><time>2026-04-11T07:33:41.946Z</time></trkpt><trkpt lat="44.6789215" lon="10.027652"><ele>200.33333333333331</ele><time>2026-04-11T07:33:44.946Z</time></trkpt><trkpt lat="44.6788151" lon="10.027651"><ele>200.0</ele><time>2026-04-11T07:33:55.946Z</time></trkpt><trkpt lat="44.6787501" lon="10.0276155"><ele>199.66666666666666</ele><time>2026-04-11T07:33:56.946Z</time></trkpt><trkpt lat="44.6786757" lon="10.0275965"><ele>199.33333333333331</ele><time>2026-04-11T07:33:57.946Z</time></trkpt><trkpt lat="44.67861" lon="10.027587"><ele>199.0</ele><time>2026-04-11T07:33:58.946Z</time></trkpt><trkpt lat="44.6785467" lon="10.0275891"><ele>200.49999999999997</ele><time>2026-04-11T07:33:59.945Z</time></trkpt><trkpt lat="44.6784814" lon="10.0275914"><ele>202.0</ele><time>2026-04-11T07:34:00.946Z</time></trkpt><trkpt lat="44.6784084" lon="10.0275975"><ele>203.5</ele><time>2026-04-11T07:34:01.946Z</time></trkpt><trkpt lat="44.6783245" lon="10.0275981"><ele>205.0</ele><time>2026-04-11T07:34:02.945Z</time></trkpt><trkpt lat="44.6782378" lon="10.0275781"><ele>206.49999999999997</ele><time>2026-04-11T07:34:03.946Z</time></trkpt><trkpt lat="44.6781472" lon="10.0275509"><ele>208.0</ele><time>2026-04-11T07:34:04.946Z</time></trkpt><trkpt lat="44.678062" lon="10.0275104"><ele>207.99999999999997</ele><time>2026-04-11T07:34:05.946Z</time></trkpt><trkpt lat="44.6779833" lon="10.0274778"><ele>208.0</ele><time>2026-04-11T07:34:06.946Z</time></trkpt><trkpt lat="44.6779006" lon="10.0274437"><ele>208.0</ele><time>2026-04-11T07:34:07.945Z</time></trkpt><trkpt lat="44.6778137" lon="10.0274079"><ele>208.0</ele><time>2026-04-11T07:34:08.945Z</time></trkpt><trkpt lat="44.6777351" lon="10.0273622"><ele>207.99999999999997</ele><time>2026-04-11T07:34:09.946Z</time></trkpt><trkpt lat="44.6776556" lon="10.0273342"><ele>208.0</ele><time>2026-04-11T07:34:10.946Z</time></trkpt><trkpt lat="44.6775832" lon="10.0273021"><ele>209.33333333333331</ele><time>2026-04-11T07:34:11.946Z</time></trkpt><trkpt lat="44.6775248" lon="10.0272563"><ele>210.66666666666666</ele><time>2026-04-11T07:34:12.946Z</time></trkpt><trkpt lat="44.6774058" lon="10.0272492"><ele>212.0</ele><time>2026-04-11T07:34:14.945Z</time></trkpt><trkpt lat="44.6772764" lon="10.0272435"><ele>213.33333333333331</ele><time>2026-04-11T07:34:16.945Z</time></trkpt><trkpt lat="44.6772093" lon="10.0272352"><ele>214.66666666666666</ele><time>2026-04-11T07:34:17.945Z</time></trkpt><trkpt lat="44.6771463" lon="10.0272238"><ele>216.0</ele><time>2026-04-11T07:34:18.946Z</time></trkpt><trkpt lat="44.6770708" lon="10.0272199"><ele>216.0</ele><time>2026-04-11T07:34:20.946Z</time></trkpt><trkpt lat="44.6770052" lon="10.0271749"><ele>216.0</ele><time>2026-04-11T07:34:22.946Z</time></trkpt><trkpt lat="44.6769287" lon="10.0271377"><ele>216.0</ele><time>2026-04-11T07:34:24.946Z</time></trkpt><trkpt lat="44.6768045" lon="10.0270998"><ele>216.0</ele><time>2026-04-11T07:34:26.946Z</time></trkpt><trkpt lat="44.6767353" lon="10.0270848"><ele>216.0</ele><time>2026-04-11T07:34:27.946Z</time></trkpt><trkpt lat="44.6766617" lon="10.0270801"><ele>216.0</ele><time>2026-04-11T07:34:28.946Z</time></trkpt><trkpt lat="44.6765979" lon="10.0270636"><ele>215.0</ele><time>2026-04-11T07:34:29.946Z</time></trkpt><trkpt lat="44.6765363" lon="10.0270441"><ele>214.0</ele><time>2026-04-11T07:34:30.946Z</time></trkpt><trkpt lat="44.6764424" lon="10.0270141"><ele>213.0</ele><time>2026-04-11T07:34:32.946Z</time></trkpt><trkpt lat="44.6763603" lon="10.0270019"><ele>212.0</ele><time>2026-04-11T07:34:34.946Z</time></trkpt><trkpt lat="44.6762791" lon="10.0269716"><ele>211.0</ele><time>2026-04-11T07:34:36.946Z</time></trkpt><trkpt lat="44.6761712" lon="10.0269207"><ele>210.0</ele><time>2026-04-11T07:34:38.946Z</time></trkpt><trkpt lat="44.6760708" lon="10.0268722"><ele>209.0</ele><time>2026-04-11T07:34:40.946Z</time></trkpt><trkpt lat="44.6759931" lon="10.0268346"><ele>208.0</ele><time>2026-04-11T07:34:42.946Z</time></trkpt><trkpt lat="44.6759189" lon="10.0268063"><ele>207.0</ele><time>2026-04-11T07:34:44.946Z</time></trkpt><trkpt lat="44.675842" lon="10.0267751"><ele>206.0</ele><time>2026-04-11T07:34:46.946Z</time></trkpt><trkpt lat="44.6757611" lon="10.0267357"><ele>205.0</ele><time>2026-04-11T07:34:48.945Z</time></trkpt><trkpt lat="44.675663" lon="10.0267011"><ele>204.0</ele><time>2026-04-11T07:34:50.946Z</time></trkpt><trkpt lat="44.6755772" lon="10.0266784"><ele>204.0</ele><time>2026-04-11T07:34:52.946Z</time></trkpt><trkpt lat="44.6755129" lon="10.026667"><ele>204.0</ele><time>2026-04-11T07:34:54.946Z</time></trkpt><trkpt lat="44.6754433" lon="10.0266326"><ele>204.0</ele><time>2026-04-11T07:34:56.945Z</time></trkpt><trkpt lat="44.6753817" lon="10.026609"><ele>204.0</ele><time>2026-04-11T07:34:58.946Z</time></trkpt><trkpt lat="44.675306" lon="10.0265669"><ele>204.0</ele><time>2026-04-11T07:35:00.946Z</time></trkpt><trkpt lat="44.6752361" lon="10.0265121"><ele>204.0</ele><time>2026-04-11T07:35:02.946Z</time></trkpt><trkpt lat="44.6751785" lon="10.0264276"><ele>204.0</ele><time>2026-04-11T07:35:04.946Z</time></trkpt><trkpt lat="44.6751364" lon="10.0263466"><ele>203.83333333333334</ele><time>2026-04-11T07:35:06.946Z</time></trkpt><trkpt lat="44.6751218" lon="10.0262573"><ele>203.66666666666669</ele><time>2026-04-11T07:35:08.945Z</time></trkpt><trkpt lat="44.675133" lon="10.0261202"><ele>203.5</ele><time>2026-04-11T07:35:10.946Z</time></trkpt><trkpt lat="44.6751261" lon="10.025989"><ele>203.33333333333334</ele><time>2026-04-11T07:35:12.947Z</time></trkpt><trkpt lat="44.6751002" lon="10.0258746"><ele>203.16666666666669</ele><time>2026-04-11T07:35:14.946Z</time></trkpt><trkpt lat="44.6750382" lon="10.0257685"><ele>203.0</ele><time>2026-04-11T07:35:17.946Z</time></trkpt><trkpt lat="44.6749645" lon="10.0257393"><ele>204.2</ele><time>2026-04-11T07:35:19.946Z</time></trkpt><trkpt lat="44.6748732" lon="10.0257173"><ele>205.4</ele><time>2026-04-11T07:35:21.946Z</time></trkpt><trkpt lat="44.6747903" lon="10.0256881"><ele>206.6</ele><time>2026-04-11T07:35:23.945Z</time></trkpt><trkpt lat="44.6747016" lon="10.0256758"><ele>207.79999999999998</ele><time>2026-04-11T07:35:25.946Z</time></trkpt><trkpt lat="44.6745968" lon="10.0256788"><ele>209.0</ele><time>2026-04-11T07:35:27.946Z</time></trkpt><trkpt lat="44.6745029" lon="10.0256692"><ele>208.6</ele><time>2026-04-11T07:35:29.946Z</time></trkpt><trkpt lat="44.6744106" lon="10.0256296"><ele>208.2</ele><time>2026-04-11T07:35:31.946Z</time></trkpt><trkpt lat="44.6743338" lon="10.0255389"><ele>207.79999999999998</ele><time>2026-04-11T07:35:33.946Z</time></trkpt><trkpt lat="44.6742549" lon="10.0254405"><ele>207.39999999999998</ele><time>2026-04-11T07:35:35.946Z</time></trkpt><trkpt lat="44.6741701" lon="10.0253854"><ele>207.0</ele><time>2026-04-11T07:35:37.945Z</time></trkpt><trkpt lat="44.6740695" lon="10.0253499"><ele>207.0</ele><time>2026-04-11T07:35:39.946Z</time></trkpt><trkpt lat="44.6739689" lon="10.0253089"><ele>207.0</ele><time>2026-04-11T07:35:41.946Z</time></trkpt><trkpt lat="44.6738571" lon="10.0252759"><ele>207.0</ele><time>2026-04-11T07:35:43.946Z</time></trkpt><trkpt lat="44.673755" lon="10.0252489"><ele>207.0</ele><time>2026-04-11T07:35:45.946Z</time></trkpt><trkpt lat="44.6736472" lon="10.0252002"><ele>207.0</ele><time>2026-04-11T07:35:47.946Z</time></trkpt><trkpt lat="44.6735921" lon="10.0251338"><ele>208.6</ele><time>2026-04-11T07:35:49.946Z</time></trkpt><trkpt lat="44.6735399" lon="10.025036"><ele>210.2</ele><time>2026-04-11T07:36:25.945Z</time></trkpt><trkpt lat="44.6734957" lon="10.0249425"><ele>211.8</ele><time>2026-04-11T07:36:27.945Z</time></trkpt><trkpt lat="44.6734422" lon="10.0248159"><ele>213.4</ele><time>2026-04-11T07:36:29.945Z</time></trkpt><trkpt lat="44.6733859" lon="10.0246851"><ele>215.0</ele><time>2026-04-11T07:36:31.945Z</time></trkpt><trkpt lat="44.6733401" lon="10.0245508"><ele>215.16666666666669</ele><time>2026-04-11T07:36:33.946Z</time></trkpt><trkpt lat="44.6733306" lon="10.0244329"><ele>215.33333333333334</ele><time>2026-04-11T07:36:35.946Z</time></trkpt><trkpt lat="44.6733012" lon="10.0243068"><ele>215.5</ele><time>2026-04-11T07:36:38.945Z</time></trkpt><trkpt lat="44.6732727" lon="10.0242247"><ele>215.66666666666669</ele><time>2026-04-11T07:36:40.946Z</time></trkpt><trkpt lat="44.6732123" lon="10.0241251"><ele>215.83333333333334</ele><time>2026-04-11T07:36:42.946Z</time></trkpt><trkpt lat="44.6731585" lon="10.0240083"><ele>216.0</ele><time>2026-04-11T07:36:44.946Z</time></trkpt><trkpt lat="44.6731084" lon="10.0238775"><ele>217.25</ele><time>2026-04-11T07:36:46.946Z</time></trkpt><trkpt lat="44.673089" lon="10.0237164"><ele>218.5</ele><time>2026-04-11T07:36:48.946Z</time></trkpt><trkpt lat="44.6731084" lon="10.0235427"><ele>219.75</ele><time>2026-04-11T07:36:50.946Z</time></trkpt><trkpt lat="44.6731317" lon="10.0233942"><ele>221.0</ele><time>2026-04-11T07:36:52.946Z</time></trkpt><trkpt lat="44.6731695" lon="10.0232566"><ele>223.4</ele><time>2026-04-11T07:36:54.946Z</time></trkpt><trkpt lat="44.6732155" lon="10.0231101"><ele>225.8</ele><time>2026-04-11T07:36:56.946Z</time></trkpt><trkpt lat="44.6732671" lon="10.0229603"><ele>228.20000000000002</ele><time>2026-04-11T07:36:58.946Z</time></trkpt><trkpt lat="44.6732906" lon="10.0228764"><ele>230.60000000000002</ele><time>2026-04-11T07:36:59.946Z</time></trkpt><trkpt lat="44.673312" lon="10.0227877"><ele>233.0</ele><time>2026-04-11T07:37:00.946Z</time></trkpt><trkpt lat="44.6733745" lon="10.0226348"><ele>233.00000000000003</ele><time>2026-04-11T07:37:02.946Z</time></trkpt><trkpt lat="44.6734172" lon="10.0225664"><ele>233.0</ele><time>2026-04-11T07:37:03.945Z</time></trkpt><trkpt lat="44.6734717" lon="10.022498"><ele>233.0</ele><time>2026-04-11T07:37:04.945Z</time></trkpt><trkpt lat="44.6735205" lon="10.0224388"><ele>233.0</ele><time>2026-04-11T07:37:05.946Z</time></trkpt><trkpt lat="44.6735975" lon="10.0223218"><ele>233.00000000000003</ele><time>2026-04-11T07:37:07.946Z</time></trkpt><trkpt lat="44.67368" lon="10.0221796"><ele>233.0</ele><time>2026-04-11T07:37:09.946Z</time></trkpt><trkpt lat="44.6737478" lon="10.0220637"><ele>236.8</ele><time>2026-04-11T07:37:11.946Z</time></trkpt><trkpt lat="44.6738617" lon="10.021975"><ele>240.60000000000002</ele><time>2026-04-11T07:37:13.946Z</time></trkpt><trkpt lat="44.6739183" lon="10.0219254"><ele>244.39999999999998</ele><time>2026-04-11T07:37:14.946Z</time></trkpt><trkpt lat="44.6740049" lon="10.0218213"><ele>248.2</ele><time>2026-04-11T07:37:16.945Z</time></trkpt><trkpt lat="44.6740501" lon="10.021684"><ele>252.0</ele><time>2026-04-11T07:37:18.946Z</time></trkpt><trkpt lat="44.6740888" lon="10.0215068"><ele>254.5</ele><time>2026-04-11T07:37:20.946Z</time></trkpt><trkpt lat="44.6741069" lon="10.0214109"><ele>257.0</ele><time>2026-04-11T07:37:21.946Z</time></trkpt><trkpt lat="44.6741333" lon="10.0213206"><ele>259.5</ele><time>2026-04-11T07:37:22.946Z</time></trkpt><trkpt lat="44.6741599" lon="10.0212302"><ele>262.0</ele><time>2026-04-11T07:37:23.945Z</time></trkpt><trkpt lat="44.6741868" lon="10.0211458"><ele>264.5</ele><time>2026-04-11T07:37:24.946Z</time></trkpt><trkpt lat="44.6742236" lon="10.0210166"><ele>267.0</ele><time>2026-04-11T07:37:26.946Z</time></trkpt><trkpt lat="44.6742354" lon="10.0209094"><ele>267.0</ele><time>2026-04-11T07:37:29.945Z</time></trkpt><trkpt lat="44.6741972" lon="10.0207851"><ele>267.0</ele><time>2026-04-11T07:37:32.946Z</time></trkpt><trkpt lat="44.6741441" lon="10.0206905"><ele>267.0</ele><time>2026-04-11T07:37:35.946Z</time></trkpt><trkpt lat="44.6740606" lon="10.0206768"><ele>267.0</ele><time>2026-04-11T07:37:43.946Z</time></trkpt><trkpt lat="44.6739643" lon="10.0206469"><ele>267.0</ele><time>2026-04-11T07:37:49.946Z</time></trkpt><trkpt lat="44.6738725" lon="10.0205852"><ele>267.0</ele><time>2026-04-11T07:37:51.946Z</time></trkpt><trkpt lat="44.6738117" lon="10.0205513"><ele>267.0</ele><time>2026-04-11T07:37:52.946Z</time></trkpt><trkpt lat="44.6737519" lon="10.0205205"><ele>267.0</ele><time>2026-04-11T07:37:53.946Z</time></trkpt><trkpt lat="44.6736374" lon="10.0204767"><ele>267.0</ele><time>2026-04-11T07:37:55.945Z</time></trkpt><trkpt lat="44.6735573" lon="10.0203757"><ele>267.0</ele><time>2026-04-11T07:37:57.946Z</time></trkpt><trkpt lat="44.6734521" lon="10.0202977"><ele>267.4</ele><time>2026-04-11T07:37:59.946Z</time></trkpt><trkpt lat="44.6733542" lon="10.0202168"><ele>267.79999999999995</ele><time>2026-04-11T07:38:01.946Z</time></trkpt><trkpt lat="44.6732459" lon="10.0201794"><ele>268.2</ele><time>2026-04-11T07:38:03.946Z</time></trkpt><trkpt lat="44.6731487" lon="10.0201409"><ele>268.59999999999997</ele><time>2026-04-11T07:38:05.946Z</time></trkpt><trkpt lat="44.6730718" lon="10.0200554"><ele>269.0</ele><time>2026-04-11T07:38:07.945Z</time></trkpt><trkpt lat="44.6730141" lon="10.0199628"><ele>269.0</ele><time>2026-04-11T07:38:09.946Z</time></trkpt><trkpt lat="44.6729302" lon="10.0198134"><ele>269.0</ele><time>2026-04-11T07:38:11.946Z</time></trkpt><trkpt lat="44.6728768" lon="10.0197432"><ele>269.0</ele><time>2026-04-11T07:38:12.946Z</time></trkpt><trkpt lat="44.6728148" lon="10.0196743"><ele>269.0</ele><time>2026-04-11T07:38:13.946Z</time></trkpt><trkpt lat="44.6727045" lon="10.0196476"><ele>269.0</ele><time>2026-04-11T07:38:15.945Z</time></trkpt><trkpt lat="44.6726085" lon="10.0196089"><ele>270.8</ele><time>2026-04-11T07:38:17.946Z</time></trkpt><trkpt lat="44.672516" lon="10.0195783"><ele>272.59999999999997</ele><time>2026-04-11T07:38:19.946Z</time></trkpt><trkpt lat="44.6724002" lon="10.0195809"><ele>274.4</ele><time>2026-04-11T07:38:21.945Z</time></trkpt><trkpt lat="44.6722838" lon="10.0195575"><ele>276.2</ele><time>2026-04-11T07:38:23.946Z</time></trkpt><trkpt lat="44.6721746" lon="10.0195282"><ele>278.0</ele><time>2026-04-11T07:38:25.946Z</time></trkpt><trkpt lat="44.6720705" lon="10.0194865"><ele>278.0</ele><time>2026-04-11T07:38:27.946Z</time></trkpt><trkpt lat="44.6719791" lon="10.0194426"><ele>278.0</ele><time>2026-04-11T07:38:29.946Z</time></trkpt><trkpt lat="44.67187" lon="10.0194177"><ele>278.0</ele><time>2026-04-11T07:38:31.946Z</time></trkpt><trkpt lat="44.6718034" lon="10.0194105"><ele>278.0</ele><time>2026-04-11T07:38:32.946Z</time></trkpt><trkpt lat="44.6716865" lon="10.0194447"><ele>278.0</ele><time>2026-04-11T07:38:34.946Z</time></trkpt><trkpt lat="44.6716258" lon="10.0194904"><ele>279.0</ele><time>2026-04-11T07:38:35.946Z</time></trkpt><trkpt lat="44.6715717" lon="10.0195514"><ele>280.0</ele><time>2026-04-11T07:38:36.946Z</time></trkpt><trkpt lat="44.6714747" lon="10.0196167"><ele>281.0</ele><time>2026-04-11T07:38:38.946Z</time></trkpt><trkpt lat="44.6713745" lon="10.0196109"><ele>282.0</ele><time>2026-04-11T07:38:41.946Z</time></trkpt><trkpt lat="44.6712764" lon="10.0196084"><ele>283.0</ele><time>2026-04-11T07:38:43.945Z</time></trkpt><trkpt lat="44.6712101" lon="10.0195926"><ele>284.0</ele><time>2026-04-11T07:38:44.946Z</time></trkpt><trkpt lat="44.6711367" lon="10.0195537"><ele>287.0</ele><time>2026-04-11T07:38:45.946Z</time></trkpt><trkpt lat="44.6710643" lon="10.0195141"><ele>290.0</ele><time>2026-04-11T07:38:46.946Z</time></trkpt><trkpt lat="44.6709682" lon="10.0194584"><ele>293.0</ele><time>2026-04-11T07:38:48.946Z</time></trkpt><trkpt lat="44.6708955" lon="10.0194079"><ele>296.0</ele><time>2026-04-11T07:38:50.946Z</time></trkpt><trkpt lat="44.6707992" lon="10.0193896"><ele>299.0</ele><time>2026-04-11T07:39:10.946Z</time></trkpt><trkpt lat="44.6706888" lon="10.0193443"><ele>299.0</ele><time>2026-04-11T07:39:12.946Z</time></trkpt><trkpt lat="44.6706214" lon="10.0193102"><ele>299.0</ele><time>2026-04-11T07:39:13.946Z</time></trkpt><trkpt lat="44.6705627" lon="10.0192746"><ele>299.0</ele><time>2026-04-11T07:39:14.945Z</time></trkpt><trkpt lat="44.6705023" lon="10.0192469"><ele>299.0</ele><time>2026-04-11T07:39:15.945Z</time></trkpt><trkpt lat="44.6704304" lon="10.0192505"><ele>299.0</ele><time>2026-04-11T07:39:16.946Z</time></trkpt><trkpt lat="44.6703543" lon="10.0192078"><ele>299.0</ele><time>2026-04-11T07:39:18.946Z</time></trkpt><trkpt lat="44.6702838" lon="10.0191265"><ele>299.0</ele><time>2026-04-11T07:39:20.945Z</time></trkpt><trkpt lat="44.6701964" lon="10.0190819"><ele>299.0</ele><time>2026-04-11T07:39:22.945Z</time></trkpt><trkpt lat="44.6701122" lon="10.0190419"><ele>299.0</ele><time>2026-04-11T07:39:26.946Z</time></trkpt><trkpt lat="44.6700432" lon="10.0189598"><ele>299.0</ele><time>2026-04-11T07:39:28.945Z</time></trkpt><trkpt lat="44.6699668" lon="10.0188641"><ele>299.0</ele><time>2026-04-11T07:39:30.945Z</time></trkpt><trkpt lat="44.6699034" lon="10.018855"><ele>299.0</ele><time>2026-04-11T07:39:31.945Z</time></trkpt><trkpt lat="44.669834" lon="10.0188489"><ele>299.0</ele><time>2026-04-11T07:39:32.945Z</time></trkpt><trkpt lat="44.6697138" lon="10.0188052"><ele>299.0</ele><time>2026-04-11T07:39:34.945Z</time></trkpt><trkpt lat="44.6696082" lon="10.0187088"><ele>299.0</ele><time>2026-04-11T07:39:36.944Z</time></trkpt><trkpt lat="44.6695042" lon="10.0186397"><ele>299.0</ele><time>2026-04-11T07:39:38.945Z</time></trkpt><trkpt lat="44.6694384" lon="10.0186317"><ele>299.0</ele><time>2026-04-11T07:39:39.945Z</time></trkpt><trkpt lat="44.6693259" lon="10.0185852"><ele>299.0</ele><time>2026-04-11T07:39:41.944Z</time></trkpt><trkpt lat="44.669266" lon="10.0185251"><ele>302.1428571428571</ele><time>2026-04-11T07:39:42.945Z</time></trkpt><trkpt lat="44.6692062" lon="10.0184849"><ele>305.2857142857143</ele><time>2026-04-11T07:39:43.945Z</time></trkpt><trkpt lat="44.6691493" lon="10.0184407"><ele>308.42857142857144</ele><time>2026-04-11T07:39:44.945Z</time></trkpt><trkpt lat="44.6690957" lon="10.0183852"><ele>311.57142857142856</ele><time>2026-04-11T07:39:45.945Z</time></trkpt><trkpt lat="44.6690241" lon="10.0183657"><ele>314.7142857142857</ele><time>2026-04-11T07:39:46.945Z</time></trkpt><trkpt lat="44.6689503" lon="10.0183719"><ele>317.85714285714283</ele><time>2026-04-11T07:39:47.944Z</time></trkpt><trkpt lat="44.6688839" lon="10.0183775"><ele>321.0</ele><time>2026-04-11T07:39:48.945Z</time></trkpt><trkpt lat="44.6688207" lon="10.0183742"><ele>321.0</ele><time>2026-04-11T07:39:49.945Z</time></trkpt><trkpt lat="44.6686961" lon="10.018337"><ele>321.0</ele><time>2026-04-11T07:39:51.945Z</time></trkpt><trkpt lat="44.668623" lon="10.0183174"><ele>321.0</ele><time>2026-04-11T07:39:52.944Z</time></trkpt><trkpt lat="44.6685133" lon="10.0183355"><ele>321.0</ele><time>2026-04-11T07:39:54.944Z</time></trkpt><trkpt lat="44.6684253" lon="10.018339"><ele>321.0</ele><time>2026-04-11T07:39:56.944Z</time></trkpt><trkpt lat="44.6683315" lon="10.0183345"><ele>321.4</ele><time>2026-04-11T07:39:58.944Z</time></trkpt><trkpt lat="44.6682261" lon="10.0183174"><ele>321.8</ele><time>2026-04-11T07:40:00.944Z</time></trkpt><trkpt lat="44.6681225" lon="10.0182881"><ele>322.2</ele><time>2026-04-11T07:40:02.945Z</time></trkpt><trkpt lat="44.6680219" lon="10.0182766"><ele>322.59999999999997</ele><time>2026-04-11T07:40:04.945Z</time></trkpt><trkpt lat="44.6679431" lon="10.0182558"><ele>323.0</ele><time>2026-04-11T07:40:06.945Z</time></trkpt><trkpt lat="44.6678784" lon="10.01823"><ele>323.0</ele><time>2026-04-11T07:40:09.945Z</time></trkpt><trkpt lat="44.6679717" lon="10.0182529"><ele>323.0</ele><time>2026-04-11T07:40:40.945Z</time></trkpt><trkpt lat="44.6680753" lon="10.0182569"><ele>323.0</ele><time>2026-04-11T07:40:42.944Z</time></trkpt><trkpt lat="44.6679833" lon="10.0182732"><ele>323.0</ele><time>2026-04-11T07:41:31.945Z</time></trkpt><trkpt lat="44.6678852" lon="10.0182395"><ele>323.0</ele><time>2026-04-11T07:41:33.945Z</time></trkpt><trkpt lat="44.6678043" lon="10.0181635"><ele>327.2</ele><time>2026-04-11T07:41:35.945Z</time></trkpt><trkpt lat="44.6677226" lon="10.0180882"><ele>331.4</ele><time>2026-04-11T07:41:37.945Z</time></trkpt><trkpt lat="44.667636" lon="10.0180016"><ele>335.59999999999997</ele><time>2026-04-11T07:41:39.945Z</time></trkpt><trkpt lat="44.6675538" lon="10.0179112"><ele>339.79999999999995</ele><time>2026-04-11T07:41:41.944Z</time></trkpt><trkpt lat="44.6674448" lon="10.0178675"><ele>344.0</ele><time>2026-04-11T07:41:43.945Z</time></trkpt><trkpt lat="44.6673399" lon="10.0178155"><ele>344.0</ele><time>2026-04-11T07:41:45.945Z</time></trkpt><trkpt lat="44.6672722" lon="10.0177427"><ele>344.0</ele><time>2026-04-11T07:41:47.945Z</time></trkpt><trkpt lat="44.6672259" lon="10.0176689"><ele>344.0</ele><time>2026-04-11T07:41:49.944Z</time></trkpt><trkpt lat="44.6671667" lon="10.0176297"><ele>344.0</ele><time>2026-04-11T07:41:51.945Z</time></trkpt><trkpt lat="44.667067" lon="10.0176462"><ele>344.0</ele><time>2026-04-11T07:43:07.944Z</time></trkpt><trkpt lat="44.6669629" lon="10.0177066"><ele>344.0</ele><time>2026-04-11T07:43:09.944Z</time></trkpt><trkpt lat="44.6668928" lon="10.0177286"><ele>347.1666666666667</ele><time>2026-04-11T07:43:10.945Z</time></trkpt><trkpt lat="44.6668248" lon="10.0177492"><ele>350.33333333333337</ele><time>2026-04-11T07:43:11.945Z</time></trkpt><trkpt lat="44.6667585" lon="10.0177831"><ele>353.5</ele><time>2026-04-11T07:43:12.945Z</time></trkpt><trkpt lat="44.666693" lon="10.01781"><ele>356.6666666666667</ele><time>2026-04-11T07:43:13.945Z</time></trkpt><trkpt lat="44.6665845" lon="10.017807"><ele>359.8333333333333</ele><time>2026-04-11T07:43:15.944Z</time></trkpt><trkpt lat="44.6664647" lon="10.0177899"><ele>363.0</ele><time>2026-04-11T07:43:17.944Z</time></trkpt><trkpt lat="44.6663919" lon="10.0177954"><ele>363.0</ele><time>2026-04-11T07:43:18.944Z</time></trkpt><trkpt lat="44.6663278" lon="10.0178185"><ele>363.0</ele><time>2026-04-11T07:43:19.944Z</time></trkpt><trkpt lat="44.666264" lon="10.0178327"><ele>363.0</ele><time>2026-04-11T07:43:20.945Z</time></trkpt><trkpt lat="44.6661487" lon="10.0178074"><ele>363.0</ele><time>2026-04-11T07:43:22.945Z</time></trkpt><trkpt lat="44.666027" lon="10.017767"><ele>363.0</ele><time>2026-04-11T07:43:24.944Z</time></trkpt><trkpt lat="44.6659638" lon="10.0177411"><ele>363.0</ele><time>2026-04-11T07:43:25.945Z</time></trkpt><trkpt lat="44.6658455" lon="10.0177697"><ele>365.6666666666667</ele><time>2026-04-11T07:43:27.945Z</time></trkpt><trkpt lat="44.6657872" lon="10.017817"><ele>368.3333333333333</ele><time>2026-04-11T07:43:28.945Z</time></trkpt><trkpt lat="44.6657364" lon="10.0179019"><ele>371.0</ele><time>2026-04-11T07:43:29.944Z</time></trkpt><trkpt lat="44.6656833" lon="10.0179865"><ele>373.66666666666663</ele><time>2026-04-11T07:43:30.944Z</time></trkpt><trkpt lat="44.665634" lon="10.0180928"><ele>376.3333333333333</ele><time>2026-04-11T07:43:31.944Z</time></trkpt><trkpt lat="44.6655886" lon="10.0181906"><ele>379.0</ele><time>2026-04-11T07:43:32.945Z</time></trkpt><trkpt lat="44.6655393" lon="10.0182907"><ele>380.6</ele><time>2026-04-11T07:43:33.945Z</time></trkpt><trkpt lat="44.6654982" lon="10.0184017"><ele>382.2</ele><time>2026-04-11T07:43:34.946Z</time></trkpt><trkpt lat="44.6654327" lon="10.0184863"><ele>383.8</ele><time>2026-04-11T07:43:35.945Z</time></trkpt><trkpt lat="44.6653544" lon="10.0185601"><ele>385.40000000000003</ele><time>2026-04-11T07:43:36.945Z</time></trkpt><trkpt lat="44.665257" lon="10.0186495"><ele>387.0</ele><time>2026-04-11T07:43:38.945Z</time></trkpt><trkpt lat="44.6651948" lon="10.0187028"><ele>390.8333333333333</ele><time>2026-04-11T07:43:39.945Z</time></trkpt><trkpt lat="44.6651769" lon="10.0188023"><ele>394.66666666666663</ele><time>2026-04-11T07:43:40.945Z</time></trkpt><trkpt lat="44.6651443" lon="10.0188925"><ele>398.5</ele><time>2026-04-11T07:43:41.945Z</time></trkpt><trkpt lat="44.6650939" lon="10.0189923"><ele>402.3333333333333</ele><time>2026-04-11T07:43:42.945Z</time></trkpt><trkpt lat="44.6650544" lon="10.0190849"><ele>406.16666666666663</ele><time>2026-04-11T07:43:43.945Z</time></trkpt><trkpt lat="44.6650131" lon="10.0191782"><ele>410.0</ele><time>2026-04-11T07:43:44.945Z</time></trkpt><trkpt lat="44.6649299" lon="10.0192522"><ele>409.99999999999994</ele><time>2026-04-11T07:43:45.946Z</time></trkpt><trkpt lat="44.6648605" lon="10.0193244"><ele>410.0</ele><time>2026-04-11T07:43:46.945Z</time></trkpt><trkpt lat="44.6647979" lon="10.0194012"><ele>410.0</ele><time>2026-04-11T07:43:47.945Z</time></trkpt><trkpt lat="44.6647449" lon="10.0194694"><ele>410.0</ele><time>2026-04-11T07:43:48.944Z</time></trkpt><trkpt lat="44.6646981" lon="10.0195339"><ele>409.99999999999994</ele><time>2026-04-11T07:43:49.945Z</time></trkpt><trkpt lat="44.6646117" lon="10.0196425"><ele>410.0</ele><time>2026-04-11T07:43:51.945Z</time></trkpt><trkpt lat="44.6645444" lon="10.0197938"><ele>410.0</ele><time>2026-04-11T07:43:53.945Z</time></trkpt><trkpt lat="44.6644959" lon="10.0198572"><ele>410.0</ele><time>2026-04-11T07:43:54.945Z</time></trkpt><trkpt lat="44.6643974" lon="10.0199534"><ele>410.0</ele><time>2026-04-11T07:43:56.945Z</time></trkpt><trkpt lat="44.664324" lon="10.0200222"><ele>410.0</ele><time>2026-04-11T07:43:58.944Z</time></trkpt><trkpt lat="44.6642277" lon="10.0201141"><ele>410.0</ele><time>2026-04-11T07:44:00.945Z</time></trkpt><trkpt lat="44.6641184" lon="10.0201708"><ele>410.3333333333333</ele><time>2026-04-11T07:44:02.946Z</time></trkpt><trkpt lat="44.6639865" lon="10.0201929"><ele>410.66666666666663</ele><time>2026-04-11T07:44:04.945Z</time></trkpt><trkpt lat="44.6639095" lon="10.0201829"><ele>411.0</ele><time>2026-04-11T07:44:05.945Z</time></trkpt><trkpt lat="44.6638436" lon="10.0201659"><ele>411.33333333333337</ele><time>2026-04-11T07:44:06.945Z</time></trkpt><trkpt lat="44.6637796" lon="10.0201547"><ele>411.6666666666667</ele><time>2026-04-11T07:44:07.945Z</time></trkpt><trkpt lat="44.6637089" lon="10.0201487"><ele>412.0</ele><time>2026-04-11T07:44:08.944Z</time></trkpt><trkpt lat="44.6636341" lon="10.0201544"><ele>415.1666666666667</ele><time>2026-04-11T07:44:09.944Z</time></trkpt><trkpt lat="44.6635162" lon="10.0201818"><ele>418.33333333333337</ele><time>2026-04-11T07:44:11.945Z</time></trkpt><trkpt lat="44.6634553" lon="10.0202194"><ele>421.5</ele><time>2026-04-11T07:44:12.945Z</time></trkpt><trkpt lat="44.6634016" lon="10.0202704"><ele>424.66666666666663</ele><time>2026-04-11T07:44:13.945Z</time></trkpt><trkpt lat="44.6633789" lon="10.0203618"><ele>427.8333333333333</ele><time>2026-04-11T07:44:14.945Z</time></trkpt><trkpt lat="44.6633667" lon="10.0205108"><ele>431.0</ele><time>2026-04-11T07:44:16.945Z</time></trkpt><trkpt lat="44.663368" lon="10.0206021"><ele>431.0</ele><time>2026-04-11T07:44:17.945Z</time></trkpt><trkpt lat="44.6634248" lon="10.0207621"><ele>431.0</ele><time>2026-04-11T07:44:19.945Z</time></trkpt><trkpt lat="44.6634608" lon="10.0208607"><ele>431.0</ele><time>2026-04-11T07:44:20.945Z</time></trkpt><trkpt lat="44.663507" lon="10.0210197"><ele>431.0</ele><time>2026-04-11T07:44:22.945Z</time></trkpt><trkpt lat="44.6635264" lon="10.0211949"><ele>427.8333333333333</ele><time>2026-04-11T07:44:24.945Z</time></trkpt><trkpt lat="44.663525" lon="10.0213714"><ele>424.66666666666663</ele><time>2026-04-11T07:44:26.945Z</time></trkpt><trkpt lat="44.6635061" lon="10.021457"><ele>421.5</ele><time>2026-04-11T07:44:27.944Z</time></trkpt><trkpt lat="44.6634729" lon="10.0215455"><ele>418.33333333333337</ele><time>2026-04-11T07:44:28.945Z</time></trkpt><trkpt lat="44.6634375" lon="10.0216388"><ele>415.1666666666667</ele><time>2026-04-11T07:44:29.945Z</time></trkpt><trkpt lat="44.6633955" lon="10.0217294"><ele>412.0</ele><time>2026-04-11T07:44:30.945Z</time></trkpt><trkpt lat="44.663345" lon="10.0218665"><ele>409.0</ele><time>2026-04-11T07:44:32.945Z</time></trkpt><trkpt lat="44.6632932" lon="10.022018"><ele>406.0</ele><time>2026-04-11T07:44:34.945Z</time></trkpt><trkpt lat="44.6632667" lon="10.0221653"><ele>403.0</ele><time>2026-04-11T07:44:36.944Z</time></trkpt><trkpt lat="44.6632476" lon="10.0223158"><ele>400.0</ele><time>2026-04-11T07:44:38.945Z</time></trkpt><trkpt lat="44.6632111" lon="10.0224504"><ele>397.0</ele><time>2026-04-11T07:44:40.945Z</time></trkpt><trkpt lat="44.6631573" lon="10.0225967"><ele>394.40000000000003</ele><time>2026-04-11T07:44:42.945Z</time></trkpt><trkpt lat="44.6631216" lon="10.0227449"><ele>391.8</ele><time>2026-04-11T07:44:44.943Z</time></trkpt><trkpt lat="44.6630953" lon="10.022899"><ele>389.2</ele><time>2026-04-11T07:44:46.944Z</time></trkpt><trkpt lat="44.6630243" lon="10.0230132"><ele>386.6</ele><time>2026-04-11T07:44:48.944Z</time></trkpt><trkpt lat="44.6629791" lon="10.0230835"><ele>384.0</ele><time>2026-04-11T07:44:49.945Z</time></trkpt><trkpt lat="44.6629514" lon="10.0231715"><ele>384.0</ele><time>2026-04-11T07:44:50.945Z</time></trkpt><trkpt lat="44.6628974" lon="10.02327"><ele>384.0</ele><time>2026-04-11T07:44:51.944Z</time></trkpt><trkpt lat="44.6628333" lon="10.0233673"><ele>384.0</ele><time>2026-04-11T07:44:52.945Z</time></trkpt><trkpt lat="44.6627796" lon="10.0234639"><ele>384.0</ele><time>2026-04-11T07:44:53.944Z</time></trkpt><trkpt lat="44.6627148" lon="10.023553"><ele>384.0</ele><time>2026-04-11T07:44:54.944Z</time></trkpt><trkpt lat="44.6626521" lon="10.0236399"><ele>384.0</ele><time>2026-04-11T07:44:55.944Z</time></trkpt><trkpt lat="44.6625763" lon="10.0236713"><ele>384.6666666666667</ele><time>2026-04-11T07:44:56.944Z</time></trkpt><trkpt lat="44.6625036" lon="10.0237284"><ele>385.33333333333337</ele><time>2026-04-11T07:44:57.943Z</time></trkpt><trkpt lat="44.6624417" lon="10.023791"><ele>386.0</ele><time>2026-04-11T07:44:58.943Z</time></trkpt><trkpt lat="44.6623871" lon="10.0238592"><ele>386.6666666666667</ele><time>2026-04-11T07:44:59.943Z</time></trkpt><trkpt lat="44.6623436" lon="10.0239336"><ele>387.33333333333337</ele><time>2026-04-11T07:45:00.944Z</time></trkpt><trkpt lat="44.6622978" lon="10.0240193"><ele>388.0</ele><time>2026-04-11T07:45:01.944Z</time></trkpt><trkpt lat="44.6622535" lon="10.024101"><ele>385.50000000000006</ele><time>2026-04-11T07:45:02.943Z</time></trkpt><trkpt lat="44.6622143" lon="10.0241927"><ele>383.0</ele><time>2026-04-11T07:45:03.943Z</time></trkpt><trkpt lat="44.6621826" lon="10.0242964"><ele>380.5</ele><time>2026-04-11T07:45:04.943Z</time></trkpt><trkpt lat="44.6621504" lon="10.0243977"><ele>378.0</ele><time>2026-04-11T07:45:05.944Z</time></trkpt><trkpt lat="44.6621167" lon="10.024501"><ele>375.5</ele><time>2026-04-11T07:45:06.944Z</time></trkpt><trkpt lat="44.6620963" lon="10.0246054"><ele>373.0</ele><time>2026-04-11T07:45:07.944Z</time></trkpt><trkpt lat="44.6620775" lon="10.0247029"><ele>373.0</ele><time>2026-04-11T07:45:08.944Z</time></trkpt><trkpt lat="44.6620495" lon="10.0247835"><ele>373.0</ele><time>2026-04-11T07:45:09.944Z</time></trkpt><trkpt lat="44.6619743" lon="10.0249223"><ele>373.0</ele><time>2026-04-11T07:45:11.944Z</time></trkpt><trkpt lat="44.6619405" lon="10.0250096"><ele>373.0</ele><time>2026-04-11T07:45:12.944Z</time></trkpt><trkpt lat="44.6619151" lon="10.0250931"><ele>373.0</ele><time>2026-04-11T07:45:13.944Z</time></trkpt><trkpt lat="44.6618978" lon="10.0251825"><ele>373.0</ele><time>2026-04-11T07:45:14.944Z</time></trkpt><trkpt lat="44.6618884" lon="10.0252762"><ele>372.3333333333333</ele><time>2026-04-11T07:45:15.943Z</time></trkpt><trkpt lat="44.6618789" lon="10.02537"><ele>371.66666666666663</ele><time>2026-04-11T07:45:16.944Z</time></trkpt><trkpt lat="44.661883" lon="10.0254622"><ele>371.0</ele><time>2026-04-11T07:45:17.943Z</time></trkpt><trkpt lat="44.6618778" lon="10.0255563"><ele>370.3333333333333</ele><time>2026-04-11T07:45:18.943Z</time></trkpt><trkpt lat="44.6618525" lon="10.0256476"><ele>369.6666666666667</ele><time>2026-04-11T07:45:19.943Z</time></trkpt><trkpt lat="44.6618345" lon="10.0257334"><ele>369.0</ele><time>2026-04-11T07:45:20.943Z</time></trkpt><trkpt lat="44.6617633" lon="10.0258638"><ele>369.0</ele><time>2026-04-11T07:45:22.944Z</time></trkpt><trkpt lat="44.6617235" lon="10.025956"><ele>369.0</ele><time>2026-04-11T07:45:23.944Z</time></trkpt><trkpt lat="44.6616841" lon="10.026046"><ele>369.0</ele><time>2026-04-11T07:45:24.944Z</time></trkpt><trkpt lat="44.661649" lon="10.0261409"><ele>369.0</ele><time>2026-04-11T07:45:25.944Z</time></trkpt><trkpt lat="44.6616269" lon="10.0262355"><ele>369.0</ele><time>2026-04-11T07:45:26.944Z</time></trkpt><trkpt lat="44.6616219" lon="10.0263274"><ele>369.0</ele><time>2026-04-11T07:45:27.944Z</time></trkpt><trkpt lat="44.6616436" lon="10.0264239"><ele>369.0</ele><time>2026-04-11T07:45:28.944Z</time></trkpt><trkpt lat="44.6616676" lon="10.026506"><ele>369.0</ele><time>2026-04-11T07:45:29.944Z</time></trkpt><trkpt lat="44.6616907" lon="10.0265971"><ele>369.0</ele><time>2026-04-11T07:45:30.944Z</time></trkpt><trkpt lat="44.6617142" lon="10.0266818"><ele>369.0</ele><time>2026-04-11T07:45:31.943Z</time></trkpt><trkpt lat="44.6617344" lon="10.0268499"><ele>369.0</ele><time>2026-04-11T07:45:33.943Z</time></trkpt><trkpt lat="44.6617181" lon="10.0270007"><ele>369.0</ele><time>2026-04-11T07:45:35.943Z</time></trkpt><trkpt lat="44.6617188" lon="10.0270903"><ele>369.0</ele><time>2026-04-11T07:45:36.944Z</time></trkpt><trkpt lat="44.6617569" lon="10.0273018"><ele>367.0</ele><time>2026-04-11T07:45:38.943Z</time></trkpt><trkpt lat="44.6617815" lon="10.0274232"><ele>365.0</ele><time>2026-04-11T07:45:39.943Z</time></trkpt><trkpt lat="44.6618059" lon="10.0275459"><ele>363.0</ele><time>2026-04-11T07:45:40.943Z</time></trkpt><trkpt lat="44.6618104" lon="10.0276689"><ele>361.0</ele><time>2026-04-11T07:45:41.944Z</time></trkpt><trkpt lat="44.6618098" lon="10.0278049"><ele>359.0</ele><time>2026-04-11T07:45:42.944Z</time></trkpt><trkpt lat="44.661808" lon="10.027937"><ele>357.2</ele><time>2026-04-11T07:45:43.943Z</time></trkpt><trkpt lat="44.6618207" lon="10.0280664"><ele>355.4</ele><time>2026-04-11T07:45:44.944Z</time></trkpt><trkpt lat="44.6618465" lon="10.0281957"><ele>353.6</ele><time>2026-04-11T07:45:45.944Z</time></trkpt><trkpt lat="44.6618802" lon="10.0283227"><ele>351.8</ele><time>2026-04-11T07:45:46.944Z</time></trkpt><trkpt lat="44.6619123" lon="10.0284514"><ele>350.0</ele><time>2026-04-11T07:45:47.944Z</time></trkpt><trkpt lat="44.6619392" lon="10.0285767"><ele>350.0</ele><time>2026-04-11T07:45:48.944Z</time></trkpt><trkpt lat="44.6619414" lon="10.0286951"><ele>350.0</ele><time>2026-04-11T07:45:49.944Z</time></trkpt><trkpt lat="44.6619427" lon="10.0288112"><ele>350.0</ele><time>2026-04-11T07:45:50.943Z</time></trkpt><trkpt lat="44.6619246" lon="10.0289258"><ele>350.0</ele><time>2026-04-11T07:45:51.943Z</time></trkpt><trkpt lat="44.6618873" lon="10.029055"><ele>350.0</ele><time>2026-04-11T07:45:52.943Z</time></trkpt><trkpt lat="44.6618373" lon="10.0291913"><ele>350.0</ele><time>2026-04-11T07:45:53.944Z</time></trkpt><trkpt lat="44.6617863" lon="10.0293269"><ele>350.0</ele><time>2026-04-11T07:45:54.944Z</time></trkpt><trkpt lat="44.661735" lon="10.0294515"><ele>350.0</ele><time>2026-04-11T07:45:55.944Z</time></trkpt><trkpt lat="44.6616866" lon="10.0295716"><ele>350.0</ele><time>2026-04-11T07:45:56.944Z</time></trkpt><trkpt lat="44.6616471" lon="10.0296967"><ele>350.0</ele><time>2026-04-11T07:45:57.944Z</time></trkpt><trkpt lat="44.6616128" lon="10.0298329"><ele>350.0</ele><time>2026-04-11T07:45:58.944Z</time></trkpt><trkpt lat="44.661588" lon="10.0299733"><ele>350.0</ele><time>2026-04-11T07:45:59.944Z</time></trkpt><trkpt lat="44.661571" lon="10.03012"><ele>350.0</ele><time>2026-04-11T07:46:00.944Z</time></trkpt><trkpt lat="44.6615584" lon="10.0302703"><ele>350.0</ele><time>2026-04-11T07:46:01.944Z</time></trkpt><trkpt lat="44.6615477" lon="10.0304215"><ele>350.0</ele><time>2026-04-11T07:46:02.944Z</time></trkpt><trkpt lat="44.6615381" lon="10.0305641"><ele>349.1666666666667</ele><time>2026-04-11T07:46:03.944Z</time></trkpt><trkpt lat="44.6615318" lon="10.0306828"><ele>348.33333333333337</ele><time>2026-04-11T07:46:04.944Z</time></trkpt><trkpt lat="44.6615256" lon="10.0308066"><ele>347.5</ele><time>2026-04-11T07:46:05.944Z</time></trkpt><trkpt lat="44.6614668" lon="10.0308426"><ele>346.6666666666667</ele><time>2026-04-11T07:46:06.944Z</time></trkpt><trkpt lat="44.6613707" lon="10.0309006"><ele>345.8333333333333</ele><time>2026-04-11T07:46:08.944Z</time></trkpt><trkpt lat="44.6612844" lon="10.030874"><ele>345.0</ele><time>2026-04-11T07:46:09.944Z</time></trkpt><trkpt lat="44.6611943" lon="10.0308466"><ele>343.8333333333333</ele><time>2026-04-11T07:46:10.945Z</time></trkpt><trkpt lat="44.6611118" lon="10.03082"><ele>342.6666666666667</ele><time>2026-04-11T07:46:11.944Z</time></trkpt><trkpt lat="44.6610246" lon="10.0307747"><ele>341.5</ele><time>2026-04-11T07:46:12.943Z</time></trkpt><trkpt lat="44.6609616" lon="10.0307432"><ele>340.33333333333337</ele><time>2026-04-11T07:46:13.943Z</time></trkpt><trkpt lat="44.6608915" lon="10.030724"><ele>339.1666666666667</ele><time>2026-04-11T07:46:14.944Z</time></trkpt><trkpt lat="44.660814" lon="10.0307243"><ele>338.0</ele><time>2026-04-11T07:46:16.943Z</time></trkpt><trkpt lat="44.6607389" lon="10.030716"><ele>338.0</ele><time>2026-04-11T07:46:19.944Z</time></trkpt><trkpt lat="44.6606498" lon="10.0306579"><ele>338.0</ele><time>2026-04-11T07:46:27.944Z</time></trkpt><trkpt lat="44.66058" lon="10.0305425"><ele>338.0</ele><time>2026-04-11T07:46:29.944Z</time></trkpt><trkpt lat="44.6605478" lon="10.030365"><ele>338.0</ele><time>2026-04-11T07:46:31.943Z</time></trkpt><trkpt lat="44.6605429" lon="10.03024"><ele>338.0</ele><time>2026-04-11T07:46:32.944Z</time></trkpt><trkpt lat="44.6605429" lon="10.0301172"><ele>338.0</ele><time>2026-04-11T07:46:33.944Z</time></trkpt><trkpt lat="44.6605375" lon="10.0300178"><ele>338.0</ele><time>2026-04-11T07:46:34.945Z</time></trkpt><trkpt lat="44.6605055" lon="10.0299395"><ele>338.0</ele><time>2026-04-11T07:46:35.943Z</time></trkpt><trkpt lat="44.6604572" lon="10.0298801"><ele>338.0</ele><time>2026-04-11T07:46:36.943Z</time></trkpt><trkpt lat="44.6603385" lon="10.0298199"><ele>338.0</ele><time>2026-04-11T07:46:38.944Z</time></trkpt><trkpt lat="44.6602653" lon="10.0298064"><ele>338.0</ele><time>2026-04-11T07:46:39.944Z</time></trkpt><trkpt lat="44.6601837" lon="10.0298052"><ele>335.5</ele><time>2026-04-11T07:46:40.944Z</time></trkpt><trkpt lat="44.6601003" lon="10.029819"><ele>333.0</ele><time>2026-04-11T07:46:41.944Z</time></trkpt><trkpt lat="44.6600207" lon="10.0298528"><ele>330.5</ele><time>2026-04-11T07:46:42.944Z</time></trkpt><trkpt lat="44.6599538" lon="10.0298791"><ele>328.0</ele><time>2026-04-11T07:46:43.944Z</time></trkpt><trkpt lat="44.6598798" lon="10.0299096"><ele>325.5</ele><time>2026-04-11T07:46:44.944Z</time></trkpt><trkpt lat="44.6598288" lon="10.0299619"><ele>323.0</ele><time>2026-04-11T07:46:45.944Z</time></trkpt><trkpt lat="44.6597581" lon="10.0300048"><ele>323.0</ele><time>2026-04-11T07:46:46.944Z</time></trkpt><trkpt lat="44.6596625" lon="10.0300581"><ele>323.0</ele><time>2026-04-11T07:46:48.943Z</time></trkpt><trkpt lat="44.6595861" lon="10.030076"><ele>323.0</ele><time>2026-04-11T07:46:50.944Z</time></trkpt><trkpt lat="44.6594847" lon="10.0301473"><ele>323.0</ele><time>2026-04-11T07:46:52.945Z</time></trkpt><trkpt lat="44.6594283" lon="10.0301937"><ele>323.0</ele><time>2026-04-11T07:46:53.944Z</time></trkpt><trkpt lat="44.6593682" lon="10.0302436"><ele>323.0</ele><time>2026-04-11T07:46:54.944Z</time></trkpt><trkpt lat="44.6593061" lon="10.0303016"><ele>320.1666666666667</ele><time>2026-04-11T07:46:55.944Z</time></trkpt><trkpt lat="44.6592426" lon="10.0303628"><ele>317.33333333333337</ele><time>2026-04-11T07:46:56.943Z</time></trkpt><trkpt lat="44.6591774" lon="10.0304269"><ele>314.5</ele><time>2026-04-11T07:46:57.943Z</time></trkpt><trkpt lat="44.6591096" lon="10.0304944"><ele>311.6666666666667</ele><time>2026-04-11T07:46:58.944Z</time></trkpt><trkpt lat="44.659042" lon="10.0305563"><ele>308.8333333333333</ele><time>2026-04-11T07:46:59.944Z</time></trkpt><trkpt lat="44.6589842" lon="10.0306128"><ele>306.0</ele><time>2026-04-11T07:47:00.944Z</time></trkpt><trkpt lat="44.6589323" lon="10.0306832"><ele>306.0</ele><time>2026-04-11T07:47:01.944Z</time></trkpt><trkpt lat="44.6588953" lon="10.0307697"><ele>306.0</ele><time>2026-04-11T07:47:02.944Z</time></trkpt><trkpt lat="44.6588705" lon="10.0308682"><ele>306.0</ele><time>2026-04-11T07:47:03.943Z</time></trkpt><trkpt lat="44.6588645" lon="10.0309682"><ele>306.0</ele><time>2026-04-11T07:47:04.944Z</time></trkpt><trkpt lat="44.6588233" lon="10.0311182"><ele>306.0</ele><time>2026-04-11T07:47:06.945Z</time></trkpt><trkpt lat="44.6587633" lon="10.0312579"><ele>306.0</ele><time>2026-04-11T07:47:08.944Z</time></trkpt><trkpt lat="44.6587451" lon="10.0313515"><ele>305.1666666666667</ele><time>2026-04-11T07:47:09.944Z</time></trkpt><trkpt lat="44.6587443" lon="10.0314481"><ele>304.3333333333333</ele><time>2026-04-11T07:47:10.943Z</time></trkpt><trkpt lat="44.6587375" lon="10.0315554"><ele>303.5</ele><time>2026-04-11T07:47:11.944Z</time></trkpt><trkpt lat="44.6587349" lon="10.0316678"><ele>302.66666666666663</ele><time>2026-04-11T07:47:12.944Z</time></trkpt><trkpt lat="44.6587344" lon="10.0317773"><ele>301.8333333333333</ele><time>2026-04-11T07:47:13.944Z</time></trkpt><trkpt lat="44.6587258" lon="10.0318808"><ele>301.0</ele><time>2026-04-11T07:47:14.943Z</time></trkpt><trkpt lat="44.6587065" lon="10.0319961"><ele>300.2</ele><time>2026-04-11T07:47:15.943Z</time></trkpt><trkpt lat="44.6586556" lon="10.0320766"><ele>299.40000000000003</ele><time>2026-04-11T07:47:17.944Z</time></trkpt><trkpt lat="44.6586981" lon="10.0322569"><ele>298.6</ele><time>2026-04-11T07:47:19.944Z</time></trkpt><trkpt lat="44.6587541" lon="10.0323505"><ele>297.8</ele><time>2026-04-11T07:47:20.943Z</time></trkpt><trkpt lat="44.6588261" lon="10.0324434"><ele>297.0</ele><time>2026-04-11T07:47:21.943Z</time></trkpt><trkpt lat="44.6588928" lon="10.0325343"><ele>295.6</ele><time>2026-04-11T07:47:22.944Z</time></trkpt><trkpt lat="44.658945" lon="10.0326687"><ele>294.2</ele><time>2026-04-11T07:47:24.943Z</time></trkpt><trkpt lat="44.6588911" lon="10.0328266"><ele>292.8</ele><time>2026-04-11T07:47:26.944Z</time></trkpt><trkpt lat="44.6588309" lon="10.0329105"><ele>291.4</ele><time>2026-04-11T07:47:27.943Z</time></trkpt><trkpt lat="44.6587755" lon="10.0329853"><ele>290.0</ele><time>2026-04-11T07:47:28.943Z</time></trkpt><trkpt lat="44.6587338" lon="10.0331458"><ele>290.0</ele><time>2026-04-11T07:47:29.944Z</time></trkpt><trkpt lat="44.6586821" lon="10.0332734"><ele>290.0</ele><time>2026-04-11T07:47:30.944Z</time></trkpt><trkpt lat="44.6586445" lon="10.0334012"><ele>290.0</ele><time>2026-04-11T07:47:31.944Z</time></trkpt><trkpt lat="44.6586222" lon="10.0335356"><ele>290.0</ele><time>2026-04-11T07:47:32.944Z</time></trkpt><trkpt lat="44.6585958" lon="10.0336472"><ele>290.0</ele><time>2026-04-11T07:47:33.944Z</time></trkpt><trkpt lat="44.6585576" lon="10.0337292"><ele>286.83333333333337</ele><time>2026-04-11T07:47:34.944Z</time></trkpt><trkpt lat="44.6585276" lon="10.0338209"><ele>283.6666666666667</ele><time>2026-04-11T07:47:35.944Z</time></trkpt><trkpt lat="44.6584585" lon="10.0337897"><ele>280.5</ele><time>2026-04-11T07:47:38.945Z</time></trkpt><trkpt lat="44.6583735" lon="10.0336834"><ele>277.3333333333333</ele><time>2026-04-11T07:47:41.945Z</time></trkpt><trkpt lat="44.6583047" lon="10.0336041"><ele>274.16666666666663</ele><time>2026-04-11T07:47:43.943Z</time></trkpt><trkpt lat="44.658246" lon="10.0335331"><ele>271.0</ele><time>2026-04-11T07:47:46.944Z</time></trkpt><trkpt lat="44.6581941" lon="10.0334778"><ele>271.0</ele><time>2026-04-11T07:47:48.944Z</time></trkpt><trkpt lat="44.6581149" lon="10.0334053"><ele>271.0</ele><time>2026-04-11T07:47:51.944Z</time></trkpt><trkpt lat="44.6580356" lon="10.0333318"><ele>271.0</ele><time>2026-04-11T07:47:53.944Z</time></trkpt><trkpt lat="44.6579812" lon="10.033283"><ele>271.0</ele><time>2026-04-11T07:47:54.944Z</time></trkpt><trkpt lat="44.6579271" lon="10.0332236"><ele>271.0</ele><time>2026-04-11T07:47:55.944Z</time></trkpt><trkpt lat="44.6578693" lon="10.0331568"><ele>271.0</ele><time>2026-04-11T07:47:56.944Z</time></trkpt><trkpt lat="44.657811" lon="10.0330808"><ele>268.5</ele><time>2026-04-11T07:47:57.944Z</time></trkpt><trkpt lat="44.6577503" lon="10.0330142"><ele>266.0</ele><time>2026-04-11T07:47:58.944Z</time></trkpt><trkpt lat="44.6576825" lon="10.0329516"><ele>263.5</ele><time>2026-04-11T07:47:59.944Z</time></trkpt><trkpt lat="44.6576258" lon="10.0328809"><ele>261.0</ele><time>2026-04-11T07:48:00.944Z</time></trkpt><trkpt lat="44.6575555" lon="10.0328264"><ele>258.5</ele><time>2026-04-11T07:48:01.944Z</time></trkpt><trkpt lat="44.6574915" lon="10.0327775"><ele>256.0</ele><time>2026-04-11T07:48:02.944Z</time></trkpt><trkpt lat="44.6574191" lon="10.0327352"><ele>256.0</ele><time>2026-04-11T07:48:03.944Z</time></trkpt><trkpt lat="44.6573388" lon="10.0326824"><ele>256.0</ele><time>2026-04-11T07:48:04.944Z</time></trkpt><trkpt lat="44.6572518" lon="10.0326282"><ele>256.0</ele><time>2026-04-11T07:48:05.944Z</time></trkpt><trkpt lat="44.6571695" lon="10.0325738"><ele>256.0</ele><time>2026-04-11T07:48:06.944Z</time></trkpt><trkpt lat="44.6570851" lon="10.0325163"><ele>256.0</ele><time>2026-04-11T07:48:07.943Z</time></trkpt><trkpt lat="44.6569986" lon="10.0324814"><ele>253.0</ele><time>2026-04-11T07:48:08.944Z</time></trkpt><trkpt lat="44.6568753" lon="10.0324075"><ele>250.00000000000003</ele><time>2026-04-11T07:48:10.944Z</time></trkpt><trkpt lat="44.6568069" lon="10.032463"><ele>247.00000000000003</ele><time>2026-04-11T07:48:12.944Z</time></trkpt><trkpt lat="44.6567365" lon="10.0325469"><ele>244.0</ele><time>2026-04-11T07:48:14.944Z</time></trkpt><trkpt lat="44.6566255" lon="10.0326044"><ele>241.0</ele><time>2026-04-11T07:48:16.944Z</time></trkpt><trkpt lat="44.6565318" lon="10.0326503"><ele>240.99999999999997</ele><time>2026-04-11T07:48:18.944Z</time></trkpt><trkpt lat="44.6564815" lon="10.0327185"><ele>241.0</ele><time>2026-04-11T07:48:19.944Z</time></trkpt><trkpt lat="44.6564178" lon="10.0327802"><ele>241.0</ele><time>2026-04-11T07:48:20.944Z</time></trkpt><trkpt lat="44.6563469" lon="10.0328314"><ele>241.0</ele><time>2026-04-11T07:48:21.944Z</time></trkpt><trkpt lat="44.6562394" lon="10.0327982"><ele>240.99999999999997</ele><time>2026-04-11T07:48:23.943Z</time></trkpt><trkpt lat="44.656176" lon="10.0326864"><ele>241.0</ele><time>2026-04-11T07:48:25.944Z</time></trkpt><trkpt lat="44.6561085" lon="10.0326428"><ele>238.66666666666666</ele><time>2026-04-11T07:48:27.943Z</time></trkpt><trkpt lat="44.6560206" lon="10.0327052"><ele>236.33333333333331</ele><time>2026-04-11T07:48:29.944Z</time></trkpt><trkpt lat="44.655988" lon="10.0327898"><ele>234.0</ele><time>2026-04-11T07:48:31.944Z</time></trkpt><trkpt lat="44.6559768" lon="10.0328982"><ele>231.66666666666669</ele><time>2026-04-11T07:48:34.944Z</time></trkpt><trkpt lat="44.655928" lon="10.0329822"><ele>229.33333333333334</ele><time>2026-04-11T07:48:38.943Z</time></trkpt><trkpt lat="44.6558831" lon="10.0330538"><ele>227.0</ele><time>2026-04-11T07:48:40.944Z</time></trkpt><trkpt lat="44.6557934" lon="10.0332225"><ele>226.39999999999998</ele><time>2026-04-11T07:48:42.944Z</time></trkpt><trkpt lat="44.6557643" lon="10.0333316"><ele>225.79999999999998</ele><time>2026-04-11T07:48:43.943Z</time></trkpt><trkpt lat="44.6557367" lon="10.033444"><ele>225.2</ele><time>2026-04-11T07:48:44.943Z</time></trkpt><trkpt lat="44.6557201" lon="10.0335727"><ele>224.6</ele><time>2026-04-11T07:48:45.943Z</time></trkpt><trkpt lat="44.655712" lon="10.0337124"><ele>224.0</ele><time>2026-04-11T07:48:46.943Z</time></trkpt><trkpt lat="44.6557138" lon="10.033839"><ele>224.00000000000003</ele><time>2026-04-11T07:48:47.944Z</time></trkpt><trkpt lat="44.6557168" lon="10.0339793"><ele>224.0</ele><time>2026-04-11T07:48:48.944Z</time></trkpt><trkpt lat="44.6556927" lon="10.0341001"><ele>224.0</ele><time>2026-04-11T07:48:49.944Z</time></trkpt><trkpt lat="44.6556863" lon="10.0342188"><ele>224.0</ele><time>2026-04-11T07:48:50.944Z</time></trkpt><trkpt lat="44.6556791" lon="10.0343347"><ele>224.00000000000003</ele><time>2026-04-11T07:48:51.944Z</time></trkpt><trkpt lat="44.6557082" lon="10.0344532"><ele>224.0</ele><time>2026-04-11T07:48:52.944Z</time></trkpt><trkpt lat="44.6557267" lon="10.0345854"><ele>223.16666666666669</ele><time>2026-04-11T07:48:53.943Z</time></trkpt><trkpt lat="44.6557164" lon="10.0347005"><ele>222.33333333333334</ele><time>2026-04-11T07:48:54.943Z</time></trkpt><trkpt lat="44.6556958" lon="10.0348027"><ele>221.5</ele><time>2026-04-11T07:48:55.943Z</time></trkpt><trkpt lat="44.6556348" lon="10.0348661"><ele>220.66666666666669</ele><time>2026-04-11T07:48:56.944Z</time></trkpt><trkpt lat="44.6555626" lon="10.0349585"><ele>219.83333333333334</ele><time>2026-04-11T07:48:58.945Z</time></trkpt><trkpt lat="44.655525" lon="10.0350403"><ele>219.0</ele><time>2026-04-11T07:49:19.944Z</time></trkpt><trkpt lat="44.6554555" lon="10.0351314"><ele>218.83333333333334</ele><time>2026-04-11T07:49:21.944Z</time></trkpt><trkpt lat="44.6553894" lon="10.0352112"><ele>218.66666666666669</ele><time>2026-04-11T07:49:22.944Z</time></trkpt><trkpt lat="44.6553244" lon="10.0352831"><ele>218.5</ele><time>2026-04-11T07:49:23.944Z</time></trkpt><trkpt lat="44.6552657" lon="10.0353485"><ele>218.33333333333334</ele><time>2026-04-11T07:49:24.944Z</time></trkpt><trkpt lat="44.6552002" lon="10.0354025"><ele>218.16666666666669</ele><time>2026-04-11T07:49:25.944Z</time></trkpt><trkpt lat="44.6551356" lon="10.035448"><ele>218.0</ele><time>2026-04-11T07:49:26.944Z</time></trkpt><trkpt lat="44.6550769" lon="10.0354944"><ele>216.66666666666669</ele><time>2026-04-11T07:49:27.943Z</time></trkpt><trkpt lat="44.6550192" lon="10.0355448"><ele>215.33333333333334</ele><time>2026-04-11T07:49:28.943Z</time></trkpt><trkpt lat="44.6549539" lon="10.0356092"><ele>214.0</ele><time>2026-04-11T07:49:29.943Z</time></trkpt><trkpt lat="44.654899" lon="10.0356589"><ele>212.66666666666669</ele><time>2026-04-11T07:49:30.943Z</time></trkpt><trkpt lat="44.6548077" lon="10.035737"><ele>211.33333333333334</ele><time>2026-04-11T07:49:32.943Z</time></trkpt><trkpt lat="44.654721" lon="10.035727"><ele>210.0</ele><time>2026-04-11T07:49:34.943Z</time></trkpt><trkpt lat="44.6546355" lon="10.0356912"><ele>210.0</ele><time>2026-04-11T07:49:36.944Z</time></trkpt><trkpt lat="44.6545395" lon="10.0356693"><ele>210.0</ele><time>2026-04-11T07:49:38.944Z</time></trkpt><trkpt lat="44.6544725" lon="10.035658"><ele>210.0</ele><time>2026-04-11T07:49:39.944Z</time></trkpt><trkpt lat="44.6543918" lon="10.0356708"><ele>210.0</ele><time>2026-04-11T07:49:40.944Z</time></trkpt><trkpt lat="44.6542891" lon="10.0357704"><ele>210.0</ele><time>2026-04-11T07:49:42.943Z</time></trkpt><trkpt lat="44.6542181" lon="10.0358493"><ele>210.33333333333334</ele><time>2026-04-11T07:49:44.944Z</time></trkpt><trkpt lat="44.6541529" lon="10.0359223"><ele>210.66666666666669</ele><time>2026-04-11T07:49:47.944Z</time></trkpt><trkpt lat="44.6541053" lon="10.035994"><ele>211.0</ele><time>2026-04-11T07:49:49.944Z</time></trkpt><trkpt lat="44.6541212" lon="10.0360804"><ele>211.33333333333334</ele><time>2026-04-11T07:50:31.944Z</time></trkpt><trkpt lat="44.6540623" lon="10.0361131"><ele>211.66666666666669</ele><time>2026-04-11T07:50:37.944Z</time></trkpt><trkpt lat="44.6539924" lon="10.0361247"><ele>212.0</ele><time>2026-04-11T07:51:00.945Z</time></trkpt><trkpt lat="44.6539085" lon="10.0362225"><ele>212.00000000000003</ele><time>2026-04-11T07:51:02.944Z</time></trkpt><trkpt lat="44.6538237" lon="10.0363576"><ele>212.0</ele><time>2026-04-11T07:51:04.944Z</time></trkpt><trkpt lat="44.6537836" lon="10.0364434"><ele>212.0</ele><time>2026-04-11T07:51:05.944Z</time></trkpt><trkpt lat="44.6537417" lon="10.0365355"><ele>212.0</ele><time>2026-04-11T07:51:06.944Z</time></trkpt><trkpt lat="44.6537007" lon="10.0366286"><ele>212.00000000000003</ele><time>2026-04-11T07:51:07.944Z</time></trkpt><trkpt lat="44.6536596" lon="10.0367317"><ele>212.0</ele><time>2026-04-11T07:51:08.944Z</time></trkpt><trkpt lat="44.6536212" lon="10.0368328"><ele>210.50000000000003</ele><time>2026-04-11T07:51:09.944Z</time></trkpt><trkpt lat="44.653575" lon="10.0369376"><ele>209.0</ele><time>2026-04-11T07:51:10.945Z</time></trkpt><trkpt lat="44.6535279" lon="10.037044"><ele>207.5</ele><time>2026-04-11T07:51:11.944Z</time></trkpt><trkpt lat="44.6534809" lon="10.03714"><ele>206.0</ele><time>2026-04-11T07:51:12.943Z</time></trkpt><trkpt lat="44.653418" lon="10.0372156"><ele>204.50000000000003</ele><time>2026-04-11T07:51:13.943Z</time></trkpt><trkpt lat="44.6533418" lon="10.0372643"><ele>203.0</ele><time>2026-04-11T07:51:14.943Z</time></trkpt><trkpt lat="44.6532616" lon="10.0372765"><ele>203.00000000000003</ele><time>2026-04-11T07:51:15.943Z</time></trkpt><trkpt lat="44.6531844" lon="10.0372502"><ele>203.0</ele><time>2026-04-11T07:51:16.943Z</time></trkpt><trkpt lat="44.6531207" lon="10.0372007"><ele>203.0</ele><time>2026-04-11T07:51:17.944Z</time></trkpt><trkpt lat="44.6530639" lon="10.0371454"><ele>203.0</ele><time>2026-04-11T07:51:18.944Z</time></trkpt><trkpt lat="44.6530083" lon="10.0370981"><ele>203.00000000000003</ele><time>2026-04-11T07:51:19.944Z</time></trkpt><trkpt lat="44.6528926" lon="10.0370127"><ele>203.0</ele><time>2026-04-11T07:51:21.944Z</time></trkpt><trkpt lat="44.6528274" lon="10.0369626"><ele>202.83333333333334</ele><time>2026-04-11T07:51:22.944Z</time></trkpt><trkpt lat="44.6527575" lon="10.0369155"><ele>202.66666666666669</ele><time>2026-04-11T07:51:23.944Z</time></trkpt><trkpt lat="44.6526857" lon="10.0368611"><ele>202.5</ele><time>2026-04-11T07:51:24.944Z</time></trkpt><trkpt lat="44.6526186" lon="10.0368042"><ele>202.33333333333331</ele><time>2026-04-11T07:51:25.944Z</time></trkpt><trkpt lat="44.6525474" lon="10.036753"><ele>202.16666666666666</ele><time>2026-04-11T07:51:26.944Z</time></trkpt><trkpt lat="44.6524723" lon="10.036717"><ele>202.0</ele><time>2026-04-11T07:51:27.944Z</time></trkpt><trkpt lat="44.652401" lon="10.0367197"><ele>201.99999999999997</ele><time>2026-04-11T07:51:28.944Z</time></trkpt><trkpt lat="44.6523424" lon="10.0367569"><ele>202.0</ele><time>2026-04-11T07:51:29.944Z</time></trkpt><trkpt lat="44.6522841" lon="10.0368121"><ele>202.0</ele><time>2026-04-11T07:51:30.944Z</time></trkpt><trkpt lat="44.6522261" lon="10.0368792"><ele>202.0</ele><time>2026-04-11T07:51:31.944Z</time></trkpt><trkpt lat="44.6521649" lon="10.0369564"><ele>201.99999999999997</ele><time>2026-04-11T07:51:32.944Z</time></trkpt><trkpt lat="44.6520971" lon="10.0370389"><ele>202.0</ele><time>2026-04-11T07:51:33.944Z</time></trkpt><trkpt lat="44.6520224" lon="10.0371207"><ele>204.8</ele><time>2026-04-11T07:51:34.943Z</time></trkpt><trkpt lat="44.6519461" lon="10.037202"><ele>207.6</ele><time>2026-04-11T07:51:35.944Z</time></trkpt><trkpt lat="44.6518613" lon="10.037268"><ele>210.40000000000003</ele><time>2026-04-11T07:51:36.944Z</time></trkpt><trkpt lat="44.6517593" lon="10.0373165"><ele>213.20000000000002</ele><time>2026-04-11T07:51:37.944Z</time></trkpt><trkpt lat="44.6516578" lon="10.0373389"><ele>216.0</ele><time>2026-04-11T07:51:38.943Z</time></trkpt><trkpt lat="44.6515475" lon="10.0373512"><ele>216.0</ele><time>2026-04-11T07:51:39.945Z</time></trkpt><trkpt lat="44.6514373" lon="10.0373605"><ele>216.00000000000003</ele><time>2026-04-11T07:51:40.944Z</time></trkpt><trkpt lat="44.651329" lon="10.0373562"><ele>216.00000000000003</ele><time>2026-04-11T07:51:41.944Z</time></trkpt><trkpt lat="44.6512274" lon="10.0373429"><ele>216.0</ele><time>2026-04-11T07:51:42.943Z</time></trkpt><trkpt lat="44.6511361" lon="10.0373107"><ele>216.0</ele><time>2026-04-11T07:51:43.943Z</time></trkpt><trkpt lat="44.6510614" lon="10.0372505"><ele>216.0</ele><time>2026-04-11T07:51:44.943Z</time></trkpt><trkpt lat="44.6510114" lon="10.0371603"><ele>216.0</ele><time>2026-04-11T07:51:45.943Z</time></trkpt><trkpt lat="44.6509921" lon="10.0370476"><ele>216.0</ele><time>2026-04-11T07:51:46.944Z</time></trkpt><trkpt lat="44.6510121" lon="10.0369381"><ele>216.0</ele><time>2026-04-11T07:51:47.943Z</time></trkpt><trkpt lat="44.651061" lon="10.0368474"><ele>216.0</ele><time>2026-04-11T07:51:48.945Z</time></trkpt><trkpt lat="44.6511301" lon="10.0367758"><ele>216.0</ele><time>2026-04-11T07:51:49.943Z</time></trkpt><trkpt lat="44.6511905" lon="10.0367017"><ele>219.16666666666666</ele><time>2026-04-11T07:51:50.943Z</time></trkpt><trkpt lat="44.6512211" lon="10.0366116"><ele>222.33333333333331</ele><time>2026-04-11T07:51:51.943Z</time></trkpt><trkpt lat="44.6512155" lon="10.0365138"><ele>225.5</ele><time>2026-04-11T07:51:52.944Z</time></trkpt><trkpt lat="44.6511859" lon="10.0364252"><ele>228.66666666666666</ele><time>2026-04-11T07:51:53.944Z</time></trkpt><trkpt lat="44.6511203" lon="10.0363658"><ele>231.83333333333331</ele><time>2026-04-11T07:51:54.944Z</time></trkpt><trkpt lat="44.6510377" lon="10.0363443"><ele>235.0</ele><time>2026-04-11T07:51:55.944Z</time></trkpt><trkpt lat="44.6509435" lon="10.0363505"><ele>237.4</ele><time>2026-04-11T07:51:56.944Z</time></trkpt><trkpt lat="44.650845" lon="10.0363674"><ele>239.8</ele><time>2026-04-11T07:51:57.944Z</time></trkpt><trkpt lat="44.6507442" lon="10.0363734"><ele>242.2</ele><time>2026-04-11T07:51:58.944Z</time></trkpt><trkpt lat="44.6506427" lon="10.0363871"><ele>244.6</ele><time>2026-04-11T07:51:59.944Z</time></trkpt><trkpt lat="44.6505385" lon="10.0363912"><ele>247.0</ele><time>2026-04-11T07:52:00.943Z</time></trkpt><trkpt lat="44.650429" lon="10.0363974"><ele>247.0</ele><time>2026-04-11T07:52:01.943Z</time></trkpt><trkpt lat="44.6503163" lon="10.036405"><ele>247.0</ele><time>2026-04-11T07:52:02.944Z</time></trkpt><trkpt lat="44.6502045" lon="10.0364111"><ele>247.0</ele><time>2026-04-11T07:52:03.944Z</time></trkpt><trkpt lat="44.6500912" lon="10.0364175"><ele>247.0</ele><time>2026-04-11T07:52:04.945Z</time></trkpt><trkpt lat="44.6499764" lon="10.0364302"><ele>246.25</ele><time>2026-04-11T07:52:05.943Z</time></trkpt><trkpt lat="44.6498635" lon="10.0364366"><ele>245.5</ele><time>2026-04-11T07:52:06.943Z</time></trkpt><trkpt lat="44.6497438" lon="10.0364477"><ele>244.75</ele><time>2026-04-11T07:52:07.944Z</time></trkpt><trkpt lat="44.6496258" lon="10.0364583"><ele>244.0</ele><time>2026-04-11T07:52:08.944Z</time></trkpt><trkpt lat="44.649495" lon="10.0364711"><ele>243.25</ele><time>2026-04-11T07:52:09.945Z</time></trkpt><trkpt lat="44.6493661" lon="10.0364882"><ele>242.5</ele><time>2026-04-11T07:52:10.944Z</time></trkpt><trkpt lat="44.6492423" lon="10.0364966"><ele>241.75</ele><time>2026-04-11T07:52:11.944Z</time></trkpt><trkpt lat="44.6491218" lon="10.0364914"><ele>241.0</ele><time>2026-04-11T07:52:12.944Z</time></trkpt><trkpt lat="44.6490116" lon="10.0364457"><ele>241.0</ele><time>2026-04-11T07:52:13.944Z</time></trkpt><trkpt lat="44.6489156" lon="10.0363629"><ele>241.00000000000003</ele><time>2026-04-11T07:52:14.944Z</time></trkpt><trkpt lat="44.6488337" lon="10.0362552"><ele>241.00000000000003</ele><time>2026-04-11T07:52:15.944Z</time></trkpt><trkpt lat="44.64875" lon="10.0361576"><ele>241.0</ele><time>2026-04-11T07:52:16.945Z</time></trkpt><trkpt lat="44.6486572" lon="10.0360862"><ele>241.0</ele><time>2026-04-11T07:52:17.943Z</time></trkpt><trkpt lat="44.6485554" lon="10.0360472"><ele>240.4</ele><time>2026-04-11T07:52:18.944Z</time></trkpt><trkpt lat="44.6484544" lon="10.036057"><ele>239.8</ele><time>2026-04-11T07:52:19.944Z</time></trkpt><trkpt lat="44.6483574" lon="10.0361026"><ele>239.20000000000002</ele><time>2026-04-11T07:52:20.944Z</time></trkpt><trkpt lat="44.6482595" lon="10.0361605"><ele>238.60000000000002</ele><time>2026-04-11T07:52:21.943Z</time></trkpt><trkpt lat="44.6481561" lon="10.0362174"><ele>238.0</ele><time>2026-04-11T07:52:22.944Z</time></trkpt><trkpt lat="44.6480523" lon="10.036271"><ele>238.0</ele><time>2026-04-11T07:52:23.944Z</time></trkpt><trkpt lat="44.6479444" lon="10.0362944"><ele>238.0</ele><time>2026-04-11T07:52:24.944Z</time></trkpt><trkpt lat="44.6478399" lon="10.0362753"><ele>238.0</ele><time>2026-04-11T07:52:25.943Z</time></trkpt><trkpt lat="44.6477449" lon="10.036219"><ele>238.0</ele><time>2026-04-11T07:52:26.944Z</time></trkpt><trkpt lat="44.6476528" lon="10.0361266"><ele>238.0</ele><time>2026-04-11T07:52:27.944Z</time></trkpt><trkpt lat="44.6475659" lon="10.0360188"><ele>237.60000000000002</ele><time>2026-04-11T07:52:28.944Z</time></trkpt><trkpt lat="44.6474829" lon="10.0359132"><ele>237.20000000000002</ele><time>2026-04-11T07:52:29.943Z</time></trkpt><trkpt lat="44.6474082" lon="10.0357985"><ele>236.8</ele><time>2026-04-11T07:52:30.944Z</time></trkpt><trkpt lat="44.6473365" lon="10.0356807"><ele>236.4</ele><time>2026-04-11T07:52:31.944Z</time></trkpt><trkpt lat="44.6472646" lon="10.0355631"><ele>236.0</ele><time>2026-04-11T07:52:32.944Z</time></trkpt><trkpt lat="44.6471895" lon="10.0354582"><ele>240.0</ele><time>2026-04-11T07:52:33.944Z</time></trkpt><trkpt lat="44.6471112" lon="10.0353692"><ele>244.00000000000003</ele><time>2026-04-11T07:52:34.944Z</time></trkpt><trkpt lat="44.6470259" lon="10.035308"><ele>248.00000000000003</ele><time>2026-04-11T07:52:35.944Z</time></trkpt><trkpt lat="44.646938" lon="10.0352777"><ele>252.0</ele><time>2026-04-11T07:52:36.944Z</time></trkpt><trkpt lat="44.6468411" lon="10.0352832"><ele>256.0</ele><time>2026-04-11T07:52:37.944Z</time></trkpt><trkpt lat="44.646744" lon="10.0353348"><ele>256.8</ele><time>2026-04-11T07:52:38.944Z</time></trkpt><trkpt lat="44.646647" lon="10.0354111"><ele>257.6</ele><time>2026-04-11T07:52:39.943Z</time></trkpt><trkpt lat="44.6465536" lon="10.035505"><ele>258.4</ele><time>2026-04-11T07:52:40.944Z</time></trkpt><trkpt lat="44.6464616" lon="10.0355837"><ele>259.2</ele><time>2026-04-11T07:52:41.944Z</time></trkpt><trkpt lat="44.646367" lon="10.0356536"><ele>260.0</ele><time>2026-04-11T07:52:42.944Z</time></trkpt><trkpt lat="44.6462659" lon="10.0356965"><ele>260.0</ele><time>2026-04-11T07:52:43.944Z</time></trkpt><trkpt lat="44.6461616" lon="10.035701"><ele>260.0</ele><time>2026-04-11T07:52:44.944Z</time></trkpt><trkpt lat="44.6460513" lon="10.0356767"><ele>260.0</ele><time>2026-04-11T07:52:45.943Z</time></trkpt><trkpt lat="44.6459367" lon="10.0356387"><ele>260.0</ele><time>2026-04-11T07:52:46.944Z</time></trkpt><trkpt lat="44.6458255" lon="10.0356046"><ele>260.0</ele><time>2026-04-11T07:52:47.943Z</time></trkpt><trkpt lat="44.6457185" lon="10.0355637"><ele>259.8</ele><time>2026-04-11T07:52:48.944Z</time></trkpt><trkpt lat="44.6456195" lon="10.0355109"><ele>259.6</ele><time>2026-04-11T07:52:49.944Z</time></trkpt><trkpt lat="44.6455498" lon="10.0354226"><ele>259.4</ele><time>2026-04-11T07:52:50.944Z</time></trkpt><trkpt lat="44.6455111" lon="10.0353094"><ele>259.2</ele><time>2026-04-11T07:52:51.944Z</time></trkpt><trkpt lat="44.645502" lon="10.0351733"><ele>259.0</ele><time>2026-04-11T07:52:52.944Z</time></trkpt><trkpt lat="44.6455098" lon="10.0350205"><ele>260.0</ele><time>2026-04-11T07:52:53.944Z</time></trkpt><trkpt lat="44.6455228" lon="10.0348545"><ele>261.0</ele><time>2026-04-11T07:52:54.943Z</time></trkpt><trkpt lat="44.6455348" lon="10.0346832"><ele>262.0</ele><time>2026-04-11T07:52:55.944Z</time></trkpt><trkpt lat="44.6455455" lon="10.034507"><ele>263.0</ele><time>2026-04-11T07:52:56.944Z</time></trkpt><trkpt lat="44.645553" lon="10.0343343"><ele>263.0</ele><time>2026-04-11T07:52:57.944Z</time></trkpt><trkpt lat="44.6455613" lon="10.0341656"><ele>263.0</ele><time>2026-04-11T07:52:58.943Z</time></trkpt><trkpt lat="44.6455743" lon="10.0339994"><ele>263.0</ele><time>2026-04-11T07:52:59.944Z</time></trkpt><trkpt lat="44.6455911" lon="10.0338377"><ele>263.0</ele><time>2026-04-11T07:53:00.944Z</time></trkpt><trkpt lat="44.6456078" lon="10.0336769"><ele>263.5</ele><time>2026-04-11T07:53:01.944Z</time></trkpt><trkpt lat="44.645618" lon="10.0335139"><ele>264.0</ele><time>2026-04-11T07:53:02.944Z</time></trkpt><trkpt lat="44.6456284" lon="10.0333493"><ele>264.5</ele><time>2026-04-11T07:53:03.944Z</time></trkpt><trkpt lat="44.6456303" lon="10.0331868"><ele>265.0</ele><time>2026-04-11T07:53:04.943Z</time></trkpt><trkpt lat="44.6456129" lon="10.0330265"><ele>266.75</ele><time>2026-04-11T07:53:05.944Z</time></trkpt><trkpt lat="44.6455672" lon="10.0328844"><ele>268.5</ele><time>2026-04-11T07:53:06.945Z</time></trkpt><trkpt lat="44.6454963" lon="10.0327605"><ele>270.25</ele><time>2026-04-11T07:53:07.944Z</time></trkpt><trkpt lat="44.6454216" lon="10.0326365"><ele>272.0</ele><time>2026-04-11T07:53:08.944Z</time></trkpt><trkpt lat="44.6453542" lon="10.0325067"><ele>271.8</ele><time>2026-04-11T07:53:09.942Z</time></trkpt><trkpt lat="44.6452853" lon="10.0323708"><ele>271.6</ele><time>2026-04-11T07:53:10.942Z</time></trkpt><trkpt lat="44.6452211" lon="10.0322405"><ele>271.40000000000003</ele><time>2026-04-11T07:53:11.943Z</time></trkpt><trkpt lat="44.6451713" lon="10.0321049"><ele>271.2</ele><time>2026-04-11T07:53:12.943Z</time></trkpt><trkpt lat="44.6451471" lon="10.0319763"><ele>271.0</ele><time>2026-04-11T07:53:13.943Z</time></trkpt><trkpt lat="44.6451434" lon="10.0318626"><ele>271.0</ele><time>2026-04-11T07:53:14.943Z</time></trkpt><trkpt lat="44.645153" lon="10.0317714"><ele>271.0</ele><time>2026-04-11T07:53:15.942Z</time></trkpt><trkpt lat="44.6452055" lon="10.0316495"><ele>271.0</ele><time>2026-04-11T07:53:17.943Z</time></trkpt><trkpt lat="44.6452636" lon="10.0315838"><ele>271.0</ele><time>2026-04-11T07:53:19.943Z</time></trkpt><trkpt lat="44.645336" lon="10.0315137"><ele>271.0</ele><time>2026-04-11T07:53:21.943Z</time></trkpt><trkpt lat="44.6453843" lon="10.0314375"><ele>271.0</ele><time>2026-04-11T07:53:24.943Z</time></trkpt><trkpt lat="44.6453504" lon="10.0315413"><ele>271.0</ele><time>2026-04-11T07:53:28.943Z</time></trkpt><trkpt lat="44.6452907" lon="10.0315799"><ele>271.0</ele><time>2026-04-11T07:53:29.943Z</time></trkpt><trkpt lat="44.6452371" lon="10.0316297"><ele>271.0</ele><time>2026-04-11T07:53:30.943Z</time></trkpt><trkpt lat="44.6451414" lon="10.0317181"><ele>271.0</ele><time>2026-04-11T07:53:32.944Z</time></trkpt><trkpt lat="44.6450607" lon="10.0316602"><ele>271.0</ele><time>2026-04-11T07:53:35.942Z</time></trkpt><trkpt lat="44.6450419" lon="10.0315126"><ele>271.0</ele><time>2026-04-11T07:53:37.943Z</time></trkpt><trkpt lat="44.6450311" lon="10.0314229"><ele>271.40000000000003</ele><time>2026-04-11T07:53:47.943Z</time></trkpt><trkpt lat="44.6450226" lon="10.031335"><ele>271.8</ele><time>2026-04-11T07:53:49.943Z</time></trkpt><trkpt lat="44.6449801" lon="10.0311442"><ele>272.20000000000005</ele><time>2026-04-11T07:53:51.943Z</time></trkpt><trkpt lat="44.6449447" lon="10.0310372"><ele>272.6</ele><time>2026-04-11T07:53:52.943Z</time></trkpt><trkpt lat="44.6449121" lon="10.0309205"><ele>273.0</ele><time>2026-04-11T07:53:53.943Z</time></trkpt><trkpt lat="44.6448902" lon="10.0308028"><ele>273.0</ele><time>2026-04-11T07:53:54.943Z</time></trkpt><trkpt lat="44.6448872" lon="10.0306837"><ele>273.0</ele><time>2026-04-11T07:53:55.943Z</time></trkpt><trkpt lat="44.6448841" lon="10.0305637"><ele>273.0</ele><time>2026-04-11T07:53:56.942Z</time></trkpt><trkpt lat="44.6448801" lon="10.0304481"><ele>273.0</ele><time>2026-04-11T07:53:57.943Z</time></trkpt><trkpt lat="44.6448724" lon="10.0303418"><ele>273.0</ele><time>2026-04-11T07:53:58.943Z</time></trkpt><trkpt lat="44.644858" lon="10.0302513"><ele>273.0</ele><time>2026-04-11T07:53:59.943Z</time></trkpt><trkpt lat="44.6448022" lon="10.0301061"><ele>273.0</ele><time>2026-04-11T07:54:01.942Z</time></trkpt><trkpt lat="44.6447032" lon="10.0300303"><ele>273.0</ele><time>2026-04-11T07:54:03.942Z</time></trkpt><trkpt lat="44.6446098" lon="10.0300744"><ele>273.0</ele><time>2026-04-11T07:54:05.943Z</time></trkpt><trkpt lat="44.644537" lon="10.0301759"><ele>273.0</ele><time>2026-04-11T07:54:07.943Z</time></trkpt><trkpt lat="44.6444715" lon="10.0302811"><ele>273.0</ele><time>2026-04-11T07:54:09.943Z</time></trkpt><trkpt lat="44.6444007" lon="10.0303674"><ele>272.0</ele><time>2026-04-11T07:54:11.943Z</time></trkpt><trkpt lat="44.6443227" lon="10.0304143"><ele>271.0</ele><time>2026-04-11T07:54:13.944Z</time></trkpt><trkpt lat="44.6442504" lon="10.0304481"><ele>270.0</ele><time>2026-04-11T07:54:15.943Z</time></trkpt><trkpt lat="44.6441724" lon="10.0305049"><ele>269.0</ele><time>2026-04-11T07:54:18.943Z</time></trkpt><trkpt lat="44.6440967" lon="10.0305343"><ele>268.0</ele><time>2026-04-11T07:54:21.943Z</time></trkpt><trkpt lat="44.6440249" lon="10.0305365"><ele>267.0</ele><time>2026-04-11T07:54:23.943Z</time></trkpt><trkpt lat="44.6439561" lon="10.0305567"><ele>267.0</ele><time>2026-04-11T07:54:25.943Z</time></trkpt><trkpt lat="44.643864" lon="10.0306137"><ele>267.0</ele><time>2026-04-11T07:54:28.943Z</time></trkpt><trkpt lat="44.6437964" lon="10.0306849"><ele>267.0</ele><time>2026-04-11T07:54:30.943Z</time></trkpt><trkpt lat="44.6437601" lon="10.0308104"><ele>267.0</ele><time>2026-04-11T07:54:32.942Z</time></trkpt><trkpt lat="44.6437315" lon="10.0309657"><ele>267.0</ele><time>2026-04-11T07:54:34.943Z</time></trkpt><trkpt lat="44.6437045" lon="10.0310613"><ele>265.42857142857144</ele><time>2026-04-11T07:54:36.942Z</time></trkpt><trkpt lat="44.6436357" lon="10.0311583"><ele>263.8571428571429</ele><time>2026-04-11T07:54:38.943Z</time></trkpt><trkpt lat="44.6435749" lon="10.0311976"><ele>262.2857142857143</ele><time>2026-04-11T07:54:39.942Z</time></trkpt><trkpt lat="44.6435162" lon="10.0312368"><ele>260.7142857142857</ele><time>2026-04-11T07:54:40.942Z</time></trkpt><trkpt lat="44.6434519" lon="10.0312882"><ele>259.1428571428571</ele><time>2026-04-11T07:54:41.942Z</time></trkpt><trkpt lat="44.6433892" lon="10.0313184"><ele>257.57142857142856</ele><time>2026-04-11T07:54:42.942Z</time></trkpt><trkpt lat="44.6433286" lon="10.0313558"><ele>256.0</ele><time>2026-04-11T07:54:43.942Z</time></trkpt><trkpt lat="44.6432233" lon="10.0314314"><ele>254.60000000000002</ele><time>2026-04-11T07:54:45.943Z</time></trkpt><trkpt lat="44.6431216" lon="10.0315171"><ele>253.20000000000002</ele><time>2026-04-11T07:54:47.943Z</time></trkpt><trkpt lat="44.6430157" lon="10.0315958"><ele>251.79999999999998</ele><time>2026-04-11T07:54:49.943Z</time></trkpt><trkpt lat="44.6429571" lon="10.0316362"><ele>250.39999999999998</ele><time>2026-04-11T07:54:50.943Z</time></trkpt><trkpt lat="44.6428464" lon="10.0316717"><ele>249.0</ele><time>2026-04-11T07:54:52.943Z</time></trkpt><trkpt lat="44.6427211" lon="10.0316612"><ele>248.39999999999998</ele><time>2026-04-11T07:54:54.943Z</time></trkpt><trkpt lat="44.6426047" lon="10.0316187"><ele>247.79999999999998</ele><time>2026-04-11T07:54:56.943Z</time></trkpt><trkpt lat="44.6425472" lon="10.0315764"><ele>247.20000000000002</ele><time>2026-04-11T07:54:57.943Z</time></trkpt><trkpt lat="44.6424368" lon="10.031518"><ele>246.60000000000002</ele><time>2026-04-11T07:54:59.942Z</time></trkpt><trkpt lat="44.6423135" lon="10.0314866"><ele>246.0</ele><time>2026-04-11T07:55:01.943Z</time></trkpt><trkpt lat="44.6421957" lon="10.0314903"><ele>246.0</ele><time>2026-04-11T07:55:03.943Z</time></trkpt><trkpt lat="44.6420984" lon="10.0314859"><ele>246.0</ele><time>2026-04-11T07:55:05.943Z</time></trkpt><trkpt lat="44.6420354" lon="10.0315048"><ele>246.0</ele><time>2026-04-11T07:55:07.943Z</time></trkpt><trkpt lat="44.6419644" lon="10.0315644"><ele>246.0</ele><time>2026-04-11T07:55:09.943Z</time></trkpt><trkpt lat="44.6419036" lon="10.0315952"><ele>246.0</ele><time>2026-04-11T07:55:10.943Z</time></trkpt><trkpt lat="44.6418407" lon="10.0316332"><ele>246.0</ele><time>2026-04-11T07:55:11.942Z</time></trkpt><trkpt lat="44.6417777" lon="10.0316963"><ele>243.83333333333334</ele><time>2026-04-11T07:55:12.943Z</time></trkpt><trkpt lat="44.6417156" lon="10.0317729"><ele>241.66666666666669</ele><time>2026-04-11T07:55:13.943Z</time></trkpt><trkpt lat="44.6416496" lon="10.0318555"><ele>239.5</ele><time>2026-04-11T07:55:14.942Z</time></trkpt><trkpt lat="44.641583" lon="10.0319398"><ele>237.33333333333334</ele><time>2026-04-11T07:55:15.943Z</time></trkpt><trkpt lat="44.6415167" lon="10.0320292"><ele>235.16666666666669</ele><time>2026-04-11T07:55:16.943Z</time></trkpt><trkpt lat="44.6414479" lon="10.0321171"><ele>233.0</ele><time>2026-04-11T07:55:17.943Z</time></trkpt><trkpt lat="44.6413786" lon="10.0322102"><ele>233.0</ele><time>2026-04-11T07:55:18.942Z</time></trkpt><trkpt lat="44.6413116" lon="10.0323077"><ele>233.0</ele><time>2026-04-11T07:55:19.942Z</time></trkpt><trkpt lat="44.6412476" lon="10.0324112"><ele>233.0</ele><time>2026-04-11T07:55:20.942Z</time></trkpt><trkpt lat="44.6411835" lon="10.0325098"><ele>233.0</ele><time>2026-04-11T07:55:21.943Z</time></trkpt><trkpt lat="44.6411145" lon="10.0326063"><ele>233.0</ele><time>2026-04-11T07:55:22.943Z</time></trkpt><trkpt lat="44.6410473" lon="10.032705"><ele>231.4</ele><time>2026-04-11T07:55:23.942Z</time></trkpt><trkpt lat="44.6409754" lon="10.032791"><ele>229.8</ele><time>2026-04-11T07:55:24.942Z</time></trkpt><trkpt lat="44.6408906" lon="10.0328548"><ele>228.2</ele><time>2026-04-11T07:55:25.943Z</time></trkpt><trkpt lat="44.6407924" lon="10.0328841"><ele>226.6</ele><time>2026-04-11T07:55:26.943Z</time></trkpt><trkpt lat="44.6406938" lon="10.0328927"><ele>225.0</ele><time>2026-04-11T07:55:27.943Z</time></trkpt><trkpt lat="44.6405946" lon="10.0328977"><ele>225.0</ele><time>2026-04-11T07:55:28.943Z</time></trkpt><trkpt lat="44.6404991" lon="10.0329119"><ele>225.0</ele><time>2026-04-11T07:55:29.943Z</time></trkpt><trkpt lat="44.640414" lon="10.0329482"><ele>225.0</ele><time>2026-04-11T07:55:30.942Z</time></trkpt><trkpt lat="44.6403347" lon="10.033015"><ele>225.0</ele><time>2026-04-11T07:55:31.942Z</time></trkpt><trkpt lat="44.640267" lon="10.0331142"><ele>225.0</ele><time>2026-04-11T07:55:32.943Z</time></trkpt><trkpt lat="44.6402076" lon="10.0332461"><ele>223.5</ele><time>2026-04-11T07:55:33.943Z</time></trkpt><trkpt lat="44.6401595" lon="10.0333884"><ele>222.0</ele><time>2026-04-11T07:55:34.942Z</time></trkpt><trkpt lat="44.6401199" lon="10.0335393"><ele>220.5</ele><time>2026-04-11T07:55:35.943Z</time></trkpt><trkpt lat="44.6400866" lon="10.0336945"><ele>219.0</ele><time>2026-04-11T07:55:36.943Z</time></trkpt><trkpt lat="44.6400645" lon="10.0338444"><ele>219.0</ele><time>2026-04-11T07:55:37.943Z</time></trkpt><trkpt lat="44.640037" lon="10.0339894"><ele>218.99999999999997</ele><time>2026-04-11T07:55:38.943Z</time></trkpt><trkpt lat="44.6399979" lon="10.0341163"><ele>218.99999999999997</ele><time>2026-04-11T07:55:39.943Z</time></trkpt><trkpt lat="44.639937" lon="10.0341993"><ele>219.0</ele><time>2026-04-11T07:55:40.942Z</time></trkpt><trkpt lat="44.6398584" lon="10.0342544"><ele>219.0</ele><time>2026-04-11T07:55:41.943Z</time></trkpt><trkpt lat="44.6397759" lon="10.0342889"><ele>218.0</ele><time>2026-04-11T07:55:42.943Z</time></trkpt><trkpt lat="44.6396966" lon="10.0343119"><ele>217.0</ele><time>2026-04-11T07:55:43.943Z</time></trkpt><trkpt lat="44.6396258" lon="10.0343325"><ele>216.0</ele><time>2026-04-11T07:55:44.943Z</time></trkpt><trkpt lat="44.6395228" lon="10.0343606"><ele>215.0</ele><time>2026-04-11T07:55:46.943Z</time></trkpt><trkpt lat="44.6394583" lon="10.0344064"><ele>214.0</ele><time>2026-04-11T07:55:55.943Z</time></trkpt><trkpt lat="44.6393728" lon="10.0344684"><ele>213.0</ele><time>2026-04-11T07:55:59.942Z</time></trkpt><trkpt lat="44.639265" lon="10.0345269"><ele>212.4</ele><time>2026-04-11T07:56:01.943Z</time></trkpt><trkpt lat="44.639193" lon="10.0345639"><ele>211.8</ele><time>2026-04-11T07:56:02.942Z</time></trkpt><trkpt lat="44.6391122" lon="10.0345854"><ele>211.2</ele><time>2026-04-11T07:56:03.943Z</time></trkpt><trkpt lat="44.6390251" lon="10.0345788"><ele>210.6</ele><time>2026-04-11T07:56:04.943Z</time></trkpt><trkpt lat="44.6389274" lon="10.0345361"><ele>210.0</ele><time>2026-04-11T07:56:05.943Z</time></trkpt><trkpt lat="44.6388344" lon="10.0344611"><ele>210.0</ele><time>2026-04-11T07:56:06.943Z</time></trkpt><trkpt lat="44.6387472" lon="10.0343681"><ele>210.0</ele><time>2026-04-11T07:56:07.944Z</time></trkpt><trkpt lat="44.6386568" lon="10.0342678"><ele>210.0</ele><time>2026-04-11T07:56:08.942Z</time></trkpt><trkpt lat="44.6385644" lon="10.0341792"><ele>210.0</ele><time>2026-04-11T07:56:09.942Z</time></trkpt><trkpt lat="44.6384628" lon="10.0341015"><ele>208.2</ele><time>2026-04-11T07:56:10.942Z</time></trkpt><trkpt lat="44.6383579" lon="10.0340345"><ele>206.4</ele><time>2026-04-11T07:56:11.943Z</time></trkpt><trkpt lat="44.6382582" lon="10.0339686"><ele>204.60000000000002</ele><time>2026-04-11T07:56:12.943Z</time></trkpt><trkpt lat="44.6381741" lon="10.0338754"><ele>202.8</ele><time>2026-04-11T07:56:13.943Z</time></trkpt><trkpt lat="44.6381009" lon="10.0337722"><ele>201.0</ele><time>2026-04-11T07:56:14.943Z</time></trkpt><trkpt lat="44.6380309" lon="10.0336729"><ele>201.0</ele><time>2026-04-11T07:56:15.943Z</time></trkpt><trkpt lat="44.6379808" lon="10.033557"><ele>201.0</ele><time>2026-04-11T07:56:16.943Z</time></trkpt><trkpt lat="44.6379204" lon="10.0334597"><ele>201.0</ele><time>2026-04-11T07:56:17.943Z</time></trkpt><trkpt lat="44.6378672" lon="10.0333764"><ele>201.0</ele><time>2026-04-11T07:56:18.942Z</time></trkpt><trkpt lat="44.6377782" lon="10.03337"><ele>201.0</ele><time>2026-04-11T07:56:19.942Z</time></trkpt><trkpt lat="44.6376476" lon="10.033436"><ele>199.16666666666666</ele><time>2026-04-11T07:56:21.944Z</time></trkpt><trkpt lat="44.6375854" lon="10.0335002"><ele>197.33333333333334</ele><time>2026-04-11T07:56:22.943Z</time></trkpt><trkpt lat="44.6375178" lon="10.0335774"><ele>195.5</ele><time>2026-04-11T07:56:23.942Z</time></trkpt><trkpt lat="44.637447" lon="10.0336542"><ele>193.66666666666669</ele><time>2026-04-11T07:56:24.942Z</time></trkpt><trkpt lat="44.6373733" lon="10.0337399"><ele>191.83333333333334</ele><time>2026-04-11T07:56:25.942Z</time></trkpt><trkpt lat="44.6372993" lon="10.0338228"><ele>190.0</ele><time>2026-04-11T07:56:26.943Z</time></trkpt><trkpt lat="44.6372248" lon="10.0339047"><ele>190.0</ele><time>2026-04-11T07:56:27.943Z</time></trkpt><trkpt lat="44.637151" lon="10.0339855"><ele>190.0</ele><time>2026-04-11T07:56:28.943Z</time></trkpt><trkpt lat="44.6370754" lon="10.0340725"><ele>190.0</ele><time>2026-04-11T07:56:29.943Z</time></trkpt><trkpt lat="44.6369978" lon="10.0341608"><ele>190.0</ele><time>2026-04-11T07:56:30.943Z</time></trkpt><trkpt lat="44.6369182" lon="10.034246"><ele>190.0</ele><time>2026-04-11T07:56:31.942Z</time></trkpt><trkpt lat="44.6368385" lon="10.034332"><ele>190.4</ele><time>2026-04-11T07:56:32.943Z</time></trkpt><trkpt lat="44.6367633" lon="10.03442"><ele>190.8</ele><time>2026-04-11T07:56:33.942Z</time></trkpt><trkpt lat="44.6366849" lon="10.0344999"><ele>191.2</ele><time>2026-04-11T07:56:34.942Z</time></trkpt><trkpt lat="44.6366045" lon="10.0345584"><ele>191.6</ele><time>2026-04-11T07:56:35.942Z</time></trkpt><trkpt lat="44.636522" lon="10.0346067"><ele>192.0</ele><time>2026-04-11T07:56:36.943Z</time></trkpt><trkpt lat="44.6364397" lon="10.0346452"><ele>192.0</ele><time>2026-04-11T07:56:37.943Z</time></trkpt><trkpt lat="44.6363505" lon="10.0346827"><ele>192.0</ele><time>2026-04-11T07:56:38.943Z</time></trkpt><trkpt lat="44.6362535" lon="10.0347074"><ele>192.0</ele><time>2026-04-11T07:56:39.943Z</time></trkpt><trkpt lat="44.6361554" lon="10.0347317"><ele>192.0</ele><time>2026-04-11T07:56:40.943Z</time></trkpt><trkpt lat="44.6360628" lon="10.034747"><ele>192.0</ele><time>2026-04-11T07:56:41.943Z</time></trkpt><trkpt lat="44.6359686" lon="10.0347466"><ele>193.0</ele><time>2026-04-11T07:56:42.943Z</time></trkpt><trkpt lat="44.6358764" lon="10.0347264"><ele>194.0</ele><time>2026-04-11T07:56:43.943Z</time></trkpt><trkpt lat="44.6357826" lon="10.0346958"><ele>195.0</ele><time>2026-04-11T07:56:44.943Z</time></trkpt><trkpt lat="44.6356895" lon="10.0346492"><ele>196.0</ele><time>2026-04-11T07:56:45.943Z</time></trkpt><trkpt lat="44.6356023" lon="10.0345849"><ele>197.0</ele><time>2026-04-11T07:56:46.943Z</time></trkpt><trkpt lat="44.635514" lon="10.0345074"><ele>197.0</ele><time>2026-04-11T07:56:47.943Z</time></trkpt><trkpt lat="44.6354381" lon="10.0344226"><ele>197.0</ele><time>2026-04-11T07:56:48.943Z</time></trkpt><trkpt lat="44.6353684" lon="10.0343336"><ele>197.0</ele><time>2026-04-11T07:56:49.943Z</time></trkpt><trkpt lat="44.6353032" lon="10.0342336"><ele>197.0</ele><time>2026-04-11T07:56:50.942Z</time></trkpt><trkpt lat="44.6352432" lon="10.0341389"><ele>197.0</ele><time>2026-04-11T07:56:51.942Z</time></trkpt><trkpt lat="44.6351934" lon="10.0340473"><ele>197.66666666666669</ele><time>2026-04-11T07:56:52.943Z</time></trkpt><trkpt lat="44.6351469" lon="10.0339543"><ele>198.33333333333334</ele><time>2026-04-11T07:56:53.943Z</time></trkpt><trkpt lat="44.6350763" lon="10.0340105"><ele>199.0</ele><time>2026-04-11T07:56:56.943Z</time></trkpt><trkpt lat="44.6350156" lon="10.0340372"><ele>199.66666666666669</ele><time>2026-04-11T07:56:58.944Z</time></trkpt><trkpt lat="44.6349103" lon="10.034063"><ele>200.33333333333334</ele><time>2026-04-11T07:57:00.942Z</time></trkpt><trkpt lat="44.6348363" lon="10.034075"><ele>201.0</ele><time>2026-04-11T07:57:01.943Z</time></trkpt><trkpt lat="44.6347565" lon="10.0340819"><ele>201.0</ele><time>2026-04-11T07:57:02.943Z</time></trkpt><trkpt lat="44.6346809" lon="10.0340477"><ele>201.0</ele><time>2026-04-11T07:57:03.944Z</time></trkpt><trkpt lat="44.6346026" lon="10.0340334"><ele>201.0</ele><time>2026-04-11T07:57:04.943Z</time></trkpt><trkpt lat="44.6343898" lon="10.0340364"><ele>201.0</ele><time>2026-04-11T07:57:07.943Z</time></trkpt><trkpt lat="44.6342876" lon="10.0341621"><ele>204.66666666666666</ele><time>2026-04-11T07:57:09.942Z</time></trkpt><trkpt lat="44.6342504" lon="10.0342472"><ele>208.33333333333331</ele><time>2026-04-11T07:57:10.943Z</time></trkpt><trkpt lat="44.6342653" lon="10.0343585"><ele>212.0</ele><time>2026-04-11T07:57:11.944Z</time></trkpt><trkpt lat="44.6343255" lon="10.034447"><ele>215.66666666666666</ele><time>2026-04-11T07:57:12.943Z</time></trkpt><trkpt lat="44.6343323" lon="10.0345441"><ele>219.33333333333331</ele><time>2026-04-11T07:57:13.943Z</time></trkpt><trkpt lat="44.6343456" lon="10.0346371"><ele>223.0</ele><time>2026-04-11T07:57:14.943Z</time></trkpt><trkpt lat="44.6342898" lon="10.0347071"><ele>223.0</ele><time>2026-04-11T07:57:16.943Z</time></trkpt><trkpt lat="44.6341905" lon="10.0346636"><ele>223.0</ele><time>2026-04-11T07:57:18.943Z</time></trkpt><trkpt lat="44.6340865" lon="10.0345963"><ele>223.0</ele><time>2026-04-11T07:57:20.943Z</time></trkpt><trkpt lat="44.6339957" lon="10.0345616"><ele>223.0</ele><time>2026-04-11T07:57:22.942Z</time></trkpt><trkpt lat="44.6339933" lon="10.0346501"><ele>223.0</ele><time>2026-04-11T07:57:55.943Z</time></trkpt><trkpt lat="44.6339793" lon="10.0347616"><ele>223.0</ele><time>2026-04-11T07:57:57.943Z</time></trkpt><trkpt lat="44.6339635" lon="10.0349119"><ele>223.0</ele><time>2026-04-11T07:57:58.943Z</time></trkpt><trkpt lat="44.6339509" lon="10.0350861"><ele>223.0</ele><time>2026-04-11T07:58:00.942Z</time></trkpt><trkpt lat="44.6339345" lon="10.0351724"><ele>223.0</ele><time>2026-04-11T07:58:01.943Z</time></trkpt><trkpt lat="44.6338758" lon="10.0353314"><ele>223.0</ele><time>2026-04-11T07:58:03.943Z</time></trkpt><trkpt lat="44.633812" lon="10.0353772"><ele>223.0</ele><time>2026-04-11T07:58:04.942Z</time></trkpt><trkpt lat="44.6337371" lon="10.0354064"><ele>223.0</ele><time>2026-04-11T07:58:06.942Z</time></trkpt><trkpt lat="44.6336681" lon="10.0354153"><ele>223.0</ele><time>2026-04-11T07:58:08.942Z</time></trkpt><trkpt lat="44.6335901" lon="10.0355167"><ele>223.0</ele><time>2026-04-11T07:58:10.944Z</time></trkpt><trkpt lat="44.6334891" lon="10.0356366"><ele>223.0</ele><time>2026-04-11T07:58:12.942Z</time></trkpt><trkpt lat="44.6334329" lon="10.0356946"><ele>227.49999999999997</ele><time>2026-04-11T07:58:13.942Z</time></trkpt><trkpt lat="44.6333808" lon="10.0357602"><ele>232.0</ele><time>2026-04-11T07:58:14.942Z</time></trkpt><trkpt lat="44.6333335" lon="10.0358435"><ele>236.5</ele><time>2026-04-11T07:58:15.942Z</time></trkpt><trkpt lat="44.6333494" lon="10.03593"><ele>241.0</ele><time>2026-04-11T07:58:18.942Z</time></trkpt><trkpt lat="44.6334201" lon="10.0359678"><ele>245.49999999999997</ele><time>2026-04-11T07:58:20.943Z</time></trkpt><trkpt lat="44.6335124" lon="10.0360104"><ele>250.0</ele><time>2026-04-11T07:58:22.943Z</time></trkpt><trkpt lat="44.6335828" lon="10.0360283"><ele>246.49999999999997</ele><time>2026-04-11T07:58:23.942Z</time></trkpt><trkpt lat="44.6336449" lon="10.0360622"><ele>243.0</ele><time>2026-04-11T07:58:24.943Z</time></trkpt><trkpt lat="44.6337182" lon="10.0360845"><ele>239.5</ele><time>2026-04-11T07:58:25.943Z</time></trkpt><trkpt lat="44.6337934" lon="10.0361068"><ele>236.0</ele><time>2026-04-11T07:58:26.942Z</time></trkpt><trkpt lat="44.633873" lon="10.0361386"><ele>232.49999999999997</ele><time>2026-04-11T07:58:27.943Z</time></trkpt><trkpt lat="44.6339558" lon="10.0361632"><ele>229.0</ele><time>2026-04-11T07:58:28.943Z</time></trkpt><trkpt lat="44.6340354" lon="10.0361967"><ele>229.0</ele><time>2026-04-11T07:58:29.943Z</time></trkpt><trkpt lat="44.634117" lon="10.0362322"><ele>228.99999999999997</ele><time>2026-04-11T07:58:30.943Z</time></trkpt><trkpt lat="44.6342068" lon="10.0362911"><ele>228.99999999999997</ele><time>2026-04-11T07:58:31.942Z</time></trkpt><trkpt lat="44.6342938" lon="10.0363649"><ele>229.0</ele><time>2026-04-11T07:58:32.942Z</time></trkpt><trkpt lat="44.6343798" lon="10.036449"><ele>229.0</ele><time>2026-04-11T07:58:33.944Z</time></trkpt><trkpt lat="44.6344686" lon="10.0365386"><ele>227.0</ele><time>2026-04-11T07:58:34.943Z</time></trkpt><trkpt lat="44.6345466" lon="10.0366331"><ele>224.99999999999997</ele><time>2026-04-11T07:58:35.943Z</time></trkpt><trkpt lat="44.634616" lon="10.0367271"><ele>222.99999999999997</ele><time>2026-04-11T07:58:36.943Z</time></trkpt><trkpt lat="44.6346817" lon="10.0368137"><ele>221.0</ele><time>2026-04-11T07:58:37.943Z</time></trkpt><trkpt lat="44.6347382" lon="10.0369224"><ele>219.0</ele><time>2026-04-11T07:58:38.943Z</time></trkpt><trkpt lat="44.6348081" lon="10.0370156"><ele>219.0</ele><time>2026-04-11T07:58:39.943Z</time></trkpt><trkpt lat="44.6348717" lon="10.037114"><ele>218.99999999999997</ele><time>2026-04-11T07:58:40.943Z</time></trkpt><trkpt lat="44.6349166" lon="10.0372328"><ele>218.99999999999997</ele><time>2026-04-11T07:58:41.943Z</time></trkpt><trkpt lat="44.6349563" lon="10.0373518"><ele>219.0</ele><time>2026-04-11T07:58:42.943Z</time></trkpt><trkpt lat="44.6350006" lon="10.0374668"><ele>219.0</ele><time>2026-04-11T07:58:43.943Z</time></trkpt><trkpt lat="44.6350578" lon="10.0375697"><ele>220.66666666666666</ele><time>2026-04-11T07:58:44.942Z</time></trkpt><trkpt lat="44.6351281" lon="10.037661"><ele>222.33333333333331</ele><time>2026-04-11T07:58:45.942Z</time></trkpt><trkpt lat="44.635184" lon="10.0377361"><ele>224.0</ele><time>2026-04-11T07:58:46.942Z</time></trkpt><trkpt lat="44.6352319" lon="10.0378202"><ele>225.66666666666666</ele><time>2026-04-11T07:58:47.943Z</time></trkpt><trkpt lat="44.6352535" lon="10.0379228"><ele>227.33333333333331</ele><time>2026-04-11T07:58:48.943Z</time></trkpt><trkpt lat="44.6352667" lon="10.0380252"><ele>229.0</ele><time>2026-04-11T07:58:49.942Z</time></trkpt><trkpt lat="44.6352842" lon="10.0381298"><ele>228.83333333333331</ele><time>2026-04-11T07:58:50.942Z</time></trkpt><trkpt lat="44.6353201" lon="10.0382166"><ele>228.66666666666666</ele><time>2026-04-11T07:58:51.942Z</time></trkpt><trkpt lat="44.6353728" lon="10.0382919"><ele>228.5</ele><time>2026-04-11T07:58:52.942Z</time></trkpt><trkpt lat="44.6354257" lon="10.0383615"><ele>228.33333333333331</ele><time>2026-04-11T07:58:53.943Z</time></trkpt><trkpt lat="44.635457" lon="10.0384838"><ele>228.16666666666666</ele><time>2026-04-11T07:58:55.942Z</time></trkpt><trkpt lat="44.6354187" lon="10.0385987"><ele>228.0</ele><time>2026-04-11T07:58:57.943Z</time></trkpt><trkpt lat="44.6353617" lon="10.0386589"><ele>229.25</ele><time>2026-04-11T07:58:58.943Z</time></trkpt><trkpt lat="44.6352836" lon="10.0387351"><ele>230.5</ele><time>2026-04-11T07:58:59.943Z</time></trkpt><trkpt lat="44.6352116" lon="10.0388286"><ele>231.75</ele><time>2026-04-11T07:59:00.943Z</time></trkpt><trkpt lat="44.6351245" lon="10.0389589"><ele>233.0</ele><time>2026-04-11T07:59:01.942Z</time></trkpt><trkpt lat="44.6350296" lon="10.0390905"><ele>234.25</ele><time>2026-04-11T07:59:02.943Z</time></trkpt><trkpt lat="44.6349276" lon="10.0392056"><ele>235.5</ele><time>2026-04-11T07:59:03.943Z</time></trkpt><trkpt lat="44.6348327" lon="10.0393284"><ele>236.75</ele><time>2026-04-11T07:59:04.943Z</time></trkpt><trkpt lat="44.6347362" lon="10.0394087"><ele>238.0</ele><time>2026-04-11T07:59:05.943Z</time></trkpt><trkpt lat="44.6346292" lon="10.0394992"><ele>238.0</ele><time>2026-04-11T07:59:06.943Z</time></trkpt><trkpt lat="44.6345237" lon="10.0395915"><ele>238.0</ele><time>2026-04-11T07:59:07.943Z</time></trkpt><trkpt lat="44.6344166" lon="10.0396661"><ele>238.0</ele><time>2026-04-11T07:59:08.942Z</time></trkpt><trkpt lat="44.634311" lon="10.0397209"><ele>238.0</ele><time>2026-04-11T07:59:09.942Z</time></trkpt><trkpt lat="44.6341977" lon="10.0397663"><ele>239.8</ele><time>2026-04-11T07:59:10.943Z</time></trkpt><trkpt lat="44.6340829" lon="10.039807"><ele>241.60000000000002</ele><time>2026-04-11T07:59:11.943Z</time></trkpt><trkpt lat="44.6339688" lon="10.0398513"><ele>243.39999999999998</ele><time>2026-04-11T07:59:12.943Z</time></trkpt><trkpt lat="44.6338605" lon="10.0398989"><ele>245.2</ele><time>2026-04-11T07:59:13.942Z</time></trkpt><trkpt lat="44.6337694" lon="10.0399406"><ele>247.0</ele><time>2026-04-11T07:59:14.943Z</time></trkpt><trkpt lat="44.6336749" lon="10.0399785"><ele>250.0</ele><time>2026-04-11T07:59:15.943Z</time></trkpt><trkpt lat="44.6336191" lon="10.0400852"><ele>253.0</ele><time>2026-04-11T07:59:16.943Z</time></trkpt><trkpt lat="44.6335532" lon="10.0401525"><ele>256.0</ele><time>2026-04-11T07:59:17.943Z</time></trkpt><trkpt lat="44.6334665" lon="10.0402975"><ele>259.0</ele><time>2026-04-11T07:59:19.942Z</time></trkpt><trkpt lat="44.6333804" lon="10.0403832"><ele>262.0</ele><time>2026-04-11T07:59:22.942Z</time></trkpt><trkpt lat="44.6332803" lon="10.0404526"><ele>262.0</ele><time>2026-04-11T07:59:24.943Z</time></trkpt><trkpt lat="44.6332222" lon="10.0404887"><ele>262.0</ele><time>2026-04-11T07:59:25.942Z</time></trkpt><trkpt lat="44.6331483" lon="10.0405101"><ele>262.0</ele><time>2026-04-11T07:59:26.943Z</time></trkpt><trkpt lat="44.6330608" lon="10.0405173"><ele>262.0</ele><time>2026-04-11T07:59:27.943Z</time></trkpt><trkpt lat="44.6329578" lon="10.0405163"><ele>262.0</ele><time>2026-04-11T07:59:28.944Z</time></trkpt><trkpt lat="44.6328604" lon="10.0404956"><ele>262.0</ele><time>2026-04-11T07:59:29.943Z</time></trkpt><trkpt lat="44.6327635" lon="10.040489"><ele>264.2857142857143</ele><time>2026-04-11T07:59:30.943Z</time></trkpt><trkpt lat="44.6327076" lon="10.040445"><ele>266.5714285714286</ele><time>2026-04-11T07:59:32.943Z</time></trkpt><trkpt lat="44.6326411" lon="10.0404331"><ele>268.8571428571429</ele><time>2026-04-11T07:59:49.944Z</time></trkpt><trkpt lat="44.6325838" lon="10.0405051"><ele>271.14285714285717</ele><time>2026-04-11T07:59:52.942Z</time></trkpt><trkpt lat="44.6325253" lon="10.0405853"><ele>273.42857142857144</ele><time>2026-04-11T07:59:56.943Z</time></trkpt><trkpt lat="44.6324502" lon="10.0406241"><ele>275.7142857142857</ele><time>2026-04-11T07:59:58.943Z</time></trkpt><trkpt lat="44.6323806" lon="10.0406112"><ele>278.0</ele><time>2026-04-11T08:00:00.942Z</time></trkpt><trkpt lat="44.6322808" lon="10.0406193"><ele>278.0</ele><time>2026-04-11T08:00:03.942Z</time></trkpt><trkpt lat="44.6322092" lon="10.0405904"><ele>278.0</ele><time>2026-04-11T08:00:05.942Z</time></trkpt><trkpt lat="44.6321504" lon="10.0405013"><ele>278.0</ele><time>2026-04-11T08:00:07.943Z</time></trkpt><trkpt lat="44.6320858" lon="10.0403863"><ele>278.0</ele><time>2026-04-11T08:00:09.943Z</time></trkpt><trkpt lat="44.632023" lon="10.0402617"><ele>278.0</ele><time>2026-04-11T08:00:11.943Z</time></trkpt><trkpt lat="44.6319547" lon="10.0401612"><ele>280.83333333333337</ele><time>2026-04-11T08:00:13.943Z</time></trkpt><trkpt lat="44.6319056" lon="10.0400833"><ele>283.6666666666667</ele><time>2026-04-11T08:00:15.942Z</time></trkpt><trkpt lat="44.6318474" lon="10.0400167"><ele>286.5</ele><time>2026-04-11T08:00:17.943Z</time></trkpt><trkpt lat="44.6317797" lon="10.0399137"><ele>289.3333333333333</ele><time>2026-04-11T08:00:19.943Z</time></trkpt><trkpt lat="44.6317251" lon="10.0398187"><ele>292.16666666666663</ele><time>2026-04-11T08:00:21.943Z</time></trkpt><trkpt lat="44.6316578" lon="10.039715"><ele>295.0</ele><time>2026-04-11T08:00:23.943Z</time></trkpt><trkpt lat="44.6315976" lon="10.0396091"><ele>296.28571428571433</ele><time>2026-04-11T08:00:25.943Z</time></trkpt><trkpt lat="44.6315548" lon="10.0395183"><ele>297.57142857142856</ele><time>2026-04-11T08:00:27.943Z</time></trkpt><trkpt lat="44.631508" lon="10.0394586"><ele>298.8571428571429</ele><time>2026-04-11T08:00:29.943Z</time></trkpt><trkpt lat="44.6314435" lon="10.0394519"><ele>300.14285714285717</ele><time>2026-04-11T08:00:31.943Z</time></trkpt><trkpt lat="44.6313706" lon="10.0394867"><ele>301.42857142857144</ele><time>2026-04-11T08:00:33.943Z</time></trkpt><trkpt lat="44.6312921" lon="10.0395097"><ele>302.7142857142857</ele><time>2026-04-11T08:00:35.942Z</time></trkpt><trkpt lat="44.631217" lon="10.0395274"><ele>304.0</ele><time>2026-04-11T08:00:37.943Z</time></trkpt><trkpt lat="44.6311526" lon="10.0395459"><ele>304.0</ele><time>2026-04-11T08:00:56.943Z</time></trkpt><trkpt lat="44.6310724" lon="10.0395672"><ele>304.0</ele><time>2026-04-11T08:00:59.943Z</time></trkpt><trkpt lat="44.6311407" lon="10.0395345"><ele>304.0</ele><time>2026-04-11T08:07:19.942Z</time></trkpt><trkpt lat="44.6312181" lon="10.0395163"><ele>304.0</ele><time>2026-04-11T08:07:23.942Z</time></trkpt><trkpt lat="44.6312846" lon="10.0395134"><ele>304.0</ele><time>2026-04-11T08:07:30.942Z</time></trkpt><trkpt lat="44.6313528" lon="10.0394924"><ele>304.0</ele><time>2026-04-11T08:07:42.941Z</time></trkpt><trkpt lat="44.6314187" lon="10.0394691"><ele>304.0</ele><time>2026-04-11T08:07:45.941Z</time></trkpt><trkpt lat="44.63149" lon="10.0394867"><ele>304.0</ele><time>2026-04-11T08:07:50.942Z</time></trkpt><trkpt lat="44.631536" lon="10.0395685"><ele>304.0</ele><time>2026-04-11T08:07:54.942Z</time></trkpt><trkpt lat="44.6315716" lon="10.0396459"><ele>304.0</ele><time>2026-04-11T08:08:21.941Z</time></trkpt><trkpt lat="44.6314987" lon="10.0396915"><ele>304.0</ele><time>2026-04-11T08:08:26.943Z</time></trkpt><trkpt lat="44.6314178" lon="10.0397985"><ele>304.0</ele><time>2026-04-11T08:08:30.942Z</time></trkpt><trkpt lat="44.6313506" lon="10.0398504"><ele>304.0</ele><time>2026-04-11T08:08:33.942Z</time></trkpt><trkpt lat="44.6311157" lon="10.0401067"><ele>305.8333333333333</ele><time>2026-04-11T08:08:35.941Z</time></trkpt><trkpt lat="44.6310579" lon="10.0401447"><ele>307.66666666666663</ele><time>2026-04-11T08:08:37.942Z</time></trkpt><trkpt lat="44.630968" lon="10.0401929"><ele>309.5</ele><time>2026-04-11T08:08:40.942Z</time></trkpt><trkpt lat="44.6308883" lon="10.0402102"><ele>311.3333333333333</ele><time>2026-04-11T08:08:42.941Z</time></trkpt><trkpt lat="44.6307975" lon="10.0402276"><ele>313.1666666666667</ele><time>2026-04-11T08:08:44.942Z</time></trkpt><trkpt lat="44.6307183" lon="10.0402372"><ele>315.0</ele><time>2026-04-11T08:08:46.942Z</time></trkpt><trkpt lat="44.6306447" lon="10.0402384"><ele>315.0</ele><time>2026-04-11T08:08:48.941Z</time></trkpt><trkpt lat="44.6305525" lon="10.0402387"><ele>315.0</ele><time>2026-04-11T08:08:50.942Z</time></trkpt><trkpt lat="44.6304489" lon="10.0402436"><ele>315.0</ele><time>2026-04-11T08:08:52.942Z</time></trkpt><trkpt lat="44.6303653" lon="10.0402661"><ele>315.0</ele><time>2026-04-11T08:08:54.942Z</time></trkpt><trkpt lat="44.6302908" lon="10.0403058"><ele>315.0</ele><time>2026-04-11T08:09:06.942Z</time></trkpt><trkpt lat="44.6301896" lon="10.0402906"><ele>319.6</ele><time>2026-04-11T08:09:09.942Z</time></trkpt><trkpt lat="44.6300889" lon="10.0402274"><ele>324.2</ele><time>2026-04-11T08:09:11.943Z</time></trkpt><trkpt lat="44.6299966" lon="10.0401544"><ele>328.79999999999995</ele><time>2026-04-11T08:09:13.942Z</time></trkpt><trkpt lat="44.6299234" lon="10.0401349"><ele>333.4</ele><time>2026-04-11T08:09:15.942Z</time></trkpt><trkpt lat="44.6298279" lon="10.0401424"><ele>338.0</ele><time>2026-04-11T08:09:17.942Z</time></trkpt><trkpt lat="44.6297497" lon="10.0401714"><ele>338.0</ele><time>2026-04-11T08:09:19.942Z</time></trkpt><trkpt lat="44.6296711" lon="10.0401976"><ele>338.0</ele><time>2026-04-11T08:09:21.942Z</time></trkpt><trkpt lat="44.6295696" lon="10.040212"><ele>338.0</ele><time>2026-04-11T08:09:23.942Z</time></trkpt><trkpt lat="44.6294779" lon="10.0401794"><ele>338.0</ele><time>2026-04-11T08:09:25.942Z</time></trkpt><trkpt lat="44.6293917" lon="10.0401569"><ele>338.0</ele><time>2026-04-11T08:09:27.942Z</time></trkpt><trkpt lat="44.6292989" lon="10.0401857"><ele>341.1666666666667</ele><time>2026-04-11T08:09:29.942Z</time></trkpt><trkpt lat="44.6292091" lon="10.0402004"><ele>344.33333333333337</ele><time>2026-04-11T08:09:31.942Z</time></trkpt><trkpt lat="44.6291424" lon="10.0401958"><ele>347.5</ele><time>2026-04-11T08:09:32.942Z</time></trkpt><trkpt lat="44.6290694" lon="10.0401799"><ele>350.6666666666667</ele><time>2026-04-11T08:09:33.943Z</time></trkpt><trkpt lat="44.6290038" lon="10.0401603"><ele>353.8333333333333</ele><time>2026-04-11T08:09:34.942Z</time></trkpt><trkpt lat="44.6289208" lon="10.0400962"><ele>357.0</ele><time>2026-04-11T08:09:36.942Z</time></trkpt><trkpt lat="44.6289284" lon="10.0399732"><ele>359.5</ele><time>2026-04-11T08:09:38.942Z</time></trkpt><trkpt lat="44.6289262" lon="10.0398743"><ele>362.0</ele><time>2026-04-11T08:09:44.942Z</time></trkpt><trkpt lat="44.6289956" lon="10.0398523"><ele>364.5</ele><time>2026-04-11T08:12:01.942Z</time></trkpt><trkpt lat="44.6290564" lon="10.0397793"><ele>367.0</ele><time>2026-04-11T08:12:03.941Z</time></trkpt><trkpt lat="44.629075" lon="10.0396666"><ele>369.5</ele><time>2026-04-11T08:12:06.941Z</time></trkpt><trkpt lat="44.6290008" lon="10.0395915"><ele>372.0</ele><time>2026-04-11T08:12:09.94Z</time></trkpt><trkpt lat="44.6289555" lon="10.0394963"><ele>372.0</ele><time>2026-04-11T08:12:21.94Z</time></trkpt><trkpt lat="44.6288898" lon="10.0394474"><ele>372.0</ele><time>2026-04-11T08:12:23.941Z</time></trkpt><trkpt lat="44.628815" lon="10.0394456"><ele>372.0</ele><time>2026-04-11T08:12:25.94Z</time></trkpt><trkpt lat="44.6287296" lon="10.0394548"><ele>372.0</ele><time>2026-04-11T08:12:27.94Z</time></trkpt><trkpt lat="44.6286521" lon="10.0394826"><ele>372.0</ele><time>2026-04-11T08:12:34.94Z</time></trkpt><trkpt lat="44.6285797" lon="10.0394752"><ele>372.0</ele><time>2026-04-11T08:12:36.94Z</time></trkpt><trkpt lat="44.6284919" lon="10.039447"><ele>374.8333333333333</ele><time>2026-04-11T08:12:38.941Z</time></trkpt><trkpt lat="44.6284088" lon="10.0394048"><ele>377.66666666666663</ele><time>2026-04-11T08:12:40.94Z</time></trkpt><trkpt lat="44.6283291" lon="10.0393517"><ele>380.5</ele><time>2026-04-11T08:12:42.941Z</time></trkpt><trkpt lat="44.6282535" lon="10.0392991"><ele>383.3333333333333</ele><time>2026-04-11T08:12:44.941Z</time></trkpt><trkpt lat="44.6281944" lon="10.0392277"><ele>386.16666666666663</ele><time>2026-04-11T08:12:46.941Z</time></trkpt><trkpt lat="44.6281417" lon="10.0391392"><ele>389.0</ele><time>2026-04-11T08:12:48.941Z</time></trkpt><trkpt lat="44.6280948" lon="10.0390723"><ele>392.6</ele><time>2026-04-11T08:26:22.939Z</time></trkpt><trkpt lat="44.628039" lon="10.0389927"><ele>396.2</ele><time>2026-04-11T08:26:24.939Z</time></trkpt><trkpt lat="44.6279716" lon="10.0388969"><ele>399.8</ele><time>2026-04-11T08:26:26.939Z</time></trkpt><trkpt lat="44.6278849" lon="10.0388012"><ele>403.40000000000003</ele><time>2026-04-11T08:26:28.939Z</time></trkpt><trkpt lat="44.6277967" lon="10.0387221"><ele>407.0</ele><time>2026-04-11T08:26:30.939Z</time></trkpt><trkpt lat="44.6277055" lon="10.0386429"><ele>409.0</ele><time>2026-04-11T08:26:32.94Z</time></trkpt><trkpt lat="44.6276125" lon="10.0385393"><ele>411.0</ele><time>2026-04-11T08:26:34.938Z</time></trkpt><trkpt lat="44.6275358" lon="10.0384382"><ele>413.0</ele><time>2026-04-11T08:26:36.939Z</time></trkpt><trkpt lat="44.6274702" lon="10.0383479"><ele>415.0</ele><time>2026-04-11T08:26:38.939Z</time></trkpt><trkpt lat="44.6273972" lon="10.0383025"><ele>417.0</ele><time>2026-04-11T08:26:40.938Z</time></trkpt><trkpt lat="44.6273021" lon="10.0382739"><ele>417.0</ele><time>2026-04-11T08:26:42.939Z</time></trkpt><trkpt lat="44.6272306" lon="10.0383196"><ele>417.0</ele><time>2026-04-11T08:26:44.939Z</time></trkpt><trkpt lat="44.627159" lon="10.0384064"><ele>417.0</ele><time>2026-04-11T08:26:46.939Z</time></trkpt><trkpt lat="44.6271226" lon="10.0385234"><ele>417.0</ele><time>2026-04-11T08:26:48.938Z</time></trkpt><trkpt lat="44.6270666" lon="10.0386511"><ele>417.0</ele><time>2026-04-11T08:26:50.939Z</time></trkpt><trkpt lat="44.627005" lon="10.038777"><ele>417.40000000000003</ele><time>2026-04-11T08:26:52.939Z</time></trkpt><trkpt lat="44.6269713" lon="10.0389097"><ele>417.8</ele><time>2026-04-11T08:26:54.939Z</time></trkpt><trkpt lat="44.6269664" lon="10.039064"><ele>418.2</ele><time>2026-04-11T08:26:56.94Z</time></trkpt><trkpt lat="44.6269151" lon="10.039215"><ele>418.6</ele><time>2026-04-11T08:26:58.939Z</time></trkpt><trkpt lat="44.6268469" lon="10.0393319"><ele>419.0</ele><time>2026-04-11T08:27:00.938Z</time></trkpt><trkpt lat="44.6267981" lon="10.039437"><ele>418.99999999999994</ele><time>2026-04-11T08:27:02.939Z</time></trkpt><trkpt lat="44.626778" lon="10.0395247"><ele>419.0</ele><time>2026-04-11T08:27:05.939Z</time></trkpt><trkpt lat="44.6267511" lon="10.0396247"><ele>419.0</ele><time>2026-04-11T08:27:10.938Z</time></trkpt><trkpt lat="44.6267061" lon="10.0396876"><ele>419.0</ele><time>2026-04-11T08:27:12.939Z</time></trkpt><trkpt lat="44.6266605" lon="10.0397644"><ele>418.99999999999994</ele><time>2026-04-11T08:27:14.939Z</time></trkpt><trkpt lat="44.6266056" lon="10.0398641"><ele>419.0</ele><time>2026-04-11T08:27:16.938Z</time></trkpt><trkpt lat="44.626542" lon="10.0399475"><ele>418.99999999999994</ele><time>2026-04-11T08:27:18.939Z</time></trkpt><trkpt lat="44.6264528" lon="10.039932"><ele>419.0</ele><time>2026-04-11T08:27:20.939Z</time></trkpt><trkpt lat="44.6263883" lon="10.0398565"><ele>419.0</ele><time>2026-04-11T08:27:22.939Z</time></trkpt><trkpt lat="44.6263594" lon="10.0397598"><ele>419.0</ele><time>2026-04-11T08:27:24.94Z</time></trkpt><trkpt lat="44.6262873" lon="10.0397204"><ele>418.99999999999994</ele><time>2026-04-11T08:27:26.939Z</time></trkpt><trkpt lat="44.6262141" lon="10.0396542"><ele>419.0</ele><time>2026-04-11T08:27:28.94Z</time></trkpt><trkpt lat="44.6261437" lon="10.039583"><ele>422.99999999999994</ele><time>2026-04-11T08:27:30.939Z</time></trkpt><trkpt lat="44.6260877" lon="10.0396529"><ele>427.0</ele><time>2026-04-11T08:27:32.938Z</time></trkpt><trkpt lat="44.6260245" lon="10.0397067"><ele>431.0</ele><time>2026-04-11T08:27:34.938Z</time></trkpt><trkpt lat="44.6259152" lon="10.0397263"><ele>435.0</ele><time>2026-04-11T08:27:37.944Z</time></trkpt><trkpt lat="44.6258368" lon="10.03973"><ele>438.99999999999994</ele><time>2026-04-11T08:27:39.956Z</time></trkpt><trkpt lat="44.6257579" lon="10.0397404"><ele>443.0</ele><time>2026-04-11T08:27:41.931Z</time></trkpt><trkpt lat="44.62567" lon="10.0397251"><ele>442.99999999999994</ele><time>2026-04-11T08:27:43.939Z</time></trkpt><trkpt lat="44.6255934" lon="10.0396856"><ele>443.0</ele><time>2026-04-11T08:27:45.939Z</time></trkpt><trkpt lat="44.6255213" lon="10.0396706"><ele>443.0</ele><time>2026-04-11T08:27:47.939Z</time></trkpt><trkpt lat="44.6254468" lon="10.039692"><ele>443.0</ele><time>2026-04-11T08:27:49.939Z</time></trkpt><trkpt lat="44.6253715" lon="10.0396947"><ele>442.99999999999994</ele><time>2026-04-11T08:27:51.938Z</time></trkpt><trkpt lat="44.6252923" lon="10.0396824"><ele>443.0</ele><time>2026-04-11T08:27:53.939Z</time></trkpt><trkpt lat="44.6252168" lon="10.039655"><ele>447.49999999999994</ele><time>2026-04-11T08:27:56.893Z</time></trkpt><trkpt lat="44.6251332" lon="10.0396215"><ele>452.0</ele><time>2026-04-11T08:27:59.868Z</time></trkpt><trkpt lat="44.625052" lon="10.0395446"><ele>456.5</ele><time>2026-04-11T08:28:01.939Z</time></trkpt><trkpt lat="44.6249806" lon="10.0394799"><ele>461.0</ele><time>2026-04-11T08:28:03.939Z</time></trkpt><trkpt lat="44.6249241" lon="10.0394303"><ele>465.49999999999994</ele><time>2026-04-11T08:28:17.939Z</time></trkpt><trkpt lat="44.6248682" lon="10.0393797"><ele>470.0</ele><time>2026-04-11T08:28:19.939Z</time></trkpt><trkpt lat="44.6247793" lon="10.0393299"><ele>469.99999999999994</ele><time>2026-04-11T08:28:22.939Z</time></trkpt><trkpt lat="44.6247057" lon="10.0392766"><ele>470.0</ele><time>2026-04-11T08:28:24.939Z</time></trkpt><trkpt lat="44.6246542" lon="10.0391814"><ele>470.0</ele><time>2026-04-11T08:28:26.939Z</time></trkpt><trkpt lat="44.6245715" lon="10.03918"><ele>470.0</ele><time>2026-04-11T08:35:52.939Z</time></trkpt><trkpt lat="44.6246391" lon="10.0391942"><ele>469.99999999999994</ele><time>2026-04-11T08:36:10.938Z</time></trkpt><trkpt lat="44.6247037" lon="10.0392238"><ele>470.0</ele><time>2026-04-11T08:36:14.937Z</time></trkpt><trkpt lat="44.6247699" lon="10.0392995"><ele>469.99999999999994</ele><time>2026-04-11T08:36:23.938Z</time></trkpt><trkpt lat="44.6248161" lon="10.0393601"><ele>470.0</ele><time>2026-04-11T08:36:25.938Z</time></trkpt><trkpt lat="44.6248985" lon="10.0394237"><ele>470.0</ele><time>2026-04-11T08:36:27.938Z</time></trkpt><trkpt lat="44.6249687" lon="10.0395181"><ele>470.0</ele><time>2026-04-11T08:36:29.938Z</time></trkpt><trkpt lat="44.6250311" lon="10.03956"><ele>469.99999999999994</ele><time>2026-04-11T08:36:31.938Z</time></trkpt><trkpt lat="44.6250996" lon="10.0396091"><ele>470.0</ele><time>2026-04-11T08:36:34.938Z</time></trkpt><trkpt lat="44.6251616" lon="10.0396394"><ele>470.0</ele><time>2026-04-11T08:36:37.938Z</time></trkpt><trkpt lat="44.6252325" lon="10.0396608"><ele>469.99999999999994</ele><time>2026-04-11T08:36:41.938Z</time></trkpt><trkpt lat="44.6253097" lon="10.0396672"><ele>470.0</ele><time>2026-04-11T08:36:46.939Z</time></trkpt><trkpt lat="44.6253903" lon="10.0396968"><ele>470.0</ele><time>2026-04-11T08:36:50.938Z</time></trkpt><trkpt lat="44.6254534" lon="10.0396938"><ele>469.99999999999994</ele><time>2026-04-11T08:36:54.938Z</time></trkpt><trkpt lat="44.6255127" lon="10.0396599"><ele>470.0</ele><time>2026-04-11T08:39:55.938Z</time></trkpt><trkpt lat="44.6254536" lon="10.0396912"><ele>470.0</ele><time>2026-04-11T08:40:33.938Z</time></trkpt><trkpt lat="44.6253814" lon="10.0397083"><ele>470.0</ele><time>2026-04-11T08:40:36.937Z</time></trkpt><trkpt lat="44.625319" lon="10.0396921"><ele>469.99999999999994</ele><time>2026-04-11T08:40:38.938Z</time></trkpt><trkpt lat="44.6252369" lon="10.039686"><ele>470.0</ele><time>2026-04-11T08:40:41.937Z</time></trkpt><trkpt lat="44.6251553" lon="10.0396768"><ele>470.0</ele><time>2026-04-11T08:40:44.938Z</time></trkpt><trkpt lat="44.6250915" lon="10.0396296"><ele>469.99999999999994</ele><time>2026-04-11T08:40:46.937Z</time></trkpt><trkpt lat="44.625025" lon="10.0395874"><ele>470.0</ele><time>2026-04-11T08:40:48.938Z</time></trkpt><trkpt lat="44.6249602" lon="10.0395371"><ele>470.0</ele><time>2026-04-11T08:40:51.938Z</time></trkpt><trkpt lat="44.6249122" lon="10.0394413"><ele>469.99999999999994</ele><time>2026-04-11T08:40:57.938Z</time></trkpt><trkpt lat="44.6248472" lon="10.0393743"><ele>470.0</ele><time>2026-04-11T08:40:59.938Z</time></trkpt><trkpt lat="44.6247658" lon="10.0392998"><ele>470.0</ele><time>2026-04-11T08:41:01.937Z</time></trkpt><trkpt lat="44.6247069" lon="10.0392315"><ele>470.0</ele><time>2026-04-11T08:41:03.938Z</time></trkpt><trkpt lat="44.6246478" lon="10.0391679"><ele>469.99999999999994</ele><time>2026-04-11T08:41:05.938Z</time></trkpt><trkpt lat="44.6245724" lon="10.0391768"><ele>470.0</ele><time>2026-04-11T08:41:07.938Z</time></trkpt><trkpt lat="44.6244967" lon="10.0392163"><ele>471.66666666666663</ele><time>2026-04-11T08:41:09.938Z</time></trkpt><trkpt lat="44.6244119" lon="10.0392273"><ele>473.3333333333333</ele><time>2026-04-11T08:41:11.987Z</time></trkpt><trkpt lat="44.6243498" lon="10.039282"><ele>475.0</ele><time>2026-04-11T08:41:13.95Z</time></trkpt><trkpt lat="44.624304" lon="10.0393541"><ele>476.66666666666663</ele><time>2026-04-11T08:41:15.938Z</time></trkpt><trkpt lat="44.6242481" lon="10.0394307"><ele>478.3333333333333</ele><time>2026-04-11T08:41:17.938Z</time></trkpt><trkpt lat="44.6241581" lon="10.0394936"><ele>480.0</ele><time>2026-04-11T08:41:19.937Z</time></trkpt><trkpt lat="44.6240879" lon="10.0395499"><ele>480.0</ele><time>2026-04-11T08:41:21.938Z</time></trkpt><trkpt lat="44.6240135" lon="10.0395993"><ele>480.0</ele><time>2026-04-11T08:41:23.937Z</time></trkpt><trkpt lat="44.6239418" lon="10.0396668"><ele>480.0</ele><time>2026-04-11T08:41:25.938Z</time></trkpt><trkpt lat="44.6238841" lon="10.0397597"><ele>480.0</ele><time>2026-04-11T08:41:27.938Z</time></trkpt><trkpt lat="44.6238269" lon="10.0398789"><ele>480.0</ele><time>2026-04-11T08:41:38.938Z</time></trkpt><trkpt lat="44.6237623" lon="10.0399983"><ele>479.8</ele><time>2026-04-11T08:41:40.938Z</time></trkpt><trkpt lat="44.6236794" lon="10.0401254"><ele>479.6</ele><time>2026-04-11T08:41:42.937Z</time></trkpt><trkpt lat="44.6235806" lon="10.0401958"><ele>479.4</ele><time>2026-04-11T08:41:44.938Z</time></trkpt><trkpt lat="44.6234853" lon="10.040261"><ele>479.2</ele><time>2026-04-11T08:41:46.938Z</time></trkpt><trkpt lat="44.6234253" lon="10.0403776"><ele>479.0</ele><time>2026-04-11T08:41:48.937Z</time></trkpt><trkpt lat="44.6234151" lon="10.0404806"><ele>479.0</ele><time>2026-04-11T08:41:49.938Z</time></trkpt><trkpt lat="44.6233869" lon="10.0406587"><ele>479.0</ele><time>2026-04-11T08:41:51.938Z</time></trkpt><trkpt lat="44.623365" lon="10.0407418"><ele>479.0</ele><time>2026-04-11T08:41:52.937Z</time></trkpt><trkpt lat="44.623335" lon="10.0408215"><ele>479.0</ele><time>2026-04-11T08:41:53.938Z</time></trkpt><trkpt lat="44.6232786" lon="10.0409598"><ele>479.0</ele><time>2026-04-11T08:41:55.938Z</time></trkpt><trkpt lat="44.6232112" lon="10.0410795"><ele>480.66666666666663</ele><time>2026-04-11T08:41:57.938Z</time></trkpt><trkpt lat="44.6231319" lon="10.0411883"><ele>482.3333333333333</ele><time>2026-04-11T08:41:59.938Z</time></trkpt><trkpt lat="44.623106" lon="10.0412737"><ele>484.0</ele><time>2026-04-11T08:42:00.938Z</time></trkpt><trkpt lat="44.6230898" lon="10.0413698"><ele>485.66666666666663</ele><time>2026-04-11T08:42:01.938Z</time></trkpt><trkpt lat="44.6230819" lon="10.0414684"><ele>487.3333333333333</ele><time>2026-04-11T08:42:02.937Z</time></trkpt><trkpt lat="44.6230523" lon="10.0416257"><ele>489.0</ele><time>2026-04-11T08:42:04.938Z</time></trkpt><trkpt lat="44.6230069" lon="10.0417857"><ele>490.3333333333333</ele><time>2026-04-11T08:42:06.937Z</time></trkpt><trkpt lat="44.6229353" lon="10.0419567"><ele>491.66666666666663</ele><time>2026-04-11T08:42:08.938Z</time></trkpt><trkpt lat="44.6228851" lon="10.0420327"><ele>493.0</ele><time>2026-04-11T08:42:09.938Z</time></trkpt><trkpt lat="44.6228418" lon="10.0421237"><ele>494.3333333333333</ele><time>2026-04-11T08:42:10.938Z</time></trkpt><trkpt lat="44.6228038" lon="10.0422143"><ele>495.66666666666663</ele><time>2026-04-11T08:42:11.938Z</time></trkpt><trkpt lat="44.6227745" lon="10.0423104"><ele>497.0</ele><time>2026-04-11T08:42:12.937Z</time></trkpt><trkpt lat="44.6227329" lon="10.0424066"><ele>499.7142857142857</ele><time>2026-04-11T08:42:13.937Z</time></trkpt><trkpt lat="44.6226851" lon="10.0424971"><ele>502.42857142857144</ele><time>2026-04-11T08:42:14.938Z</time></trkpt><trkpt lat="44.6226341" lon="10.0425786"><ele>505.1428571428571</ele><time>2026-04-11T08:42:15.938Z</time></trkpt><trkpt lat="44.6225819" lon="10.0426537"><ele>507.85714285714283</ele><time>2026-04-11T08:42:16.938Z</time></trkpt><trkpt lat="44.6225291" lon="10.0427292"><ele>510.57142857142856</ele><time>2026-04-11T08:42:17.938Z</time></trkpt><trkpt lat="44.6224851" lon="10.0427994"><ele>513.2857142857142</ele><time>2026-04-11T08:42:18.937Z</time></trkpt><trkpt lat="44.6224395" lon="10.0428734"><ele>516.0</ele><time>2026-04-11T08:42:19.938Z</time></trkpt><trkpt lat="44.6223939" lon="10.0429373"><ele>515.9999999999999</ele><time>2026-04-11T08:42:20.938Z</time></trkpt><trkpt lat="44.6223601" lon="10.0430158"><ele>516.0</ele><time>2026-04-11T08:42:21.938Z</time></trkpt><trkpt lat="44.6223293" lon="10.0430976"><ele>516.0</ele><time>2026-04-11T08:42:22.938Z</time></trkpt><trkpt lat="44.6223046" lon="10.0431928"><ele>516.0</ele><time>2026-04-11T08:42:23.937Z</time></trkpt><trkpt lat="44.6222781" lon="10.0432812"><ele>516.0</ele><time>2026-04-11T08:42:24.937Z</time></trkpt><trkpt lat="44.6222349" lon="10.0433629"><ele>515.9999999999999</ele><time>2026-04-11T08:42:25.938Z</time></trkpt><trkpt lat="44.622202" lon="10.0434512"><ele>516.0</ele><time>2026-04-11T08:42:26.938Z</time></trkpt><trkpt lat="44.6221647" lon="10.0436091"><ele>517.6</ele><time>2026-04-11T08:42:28.937Z</time></trkpt><trkpt lat="44.6221289" lon="10.0437597"><ele>519.2</ele><time>2026-04-11T08:42:30.937Z</time></trkpt><trkpt lat="44.6220867" lon="10.0439315"><ele>520.8</ele><time>2026-04-11T08:42:32.938Z</time></trkpt><trkpt lat="44.6220594" lon="10.044025"><ele>522.4</ele><time>2026-04-11T08:42:33.938Z</time></trkpt><trkpt lat="44.6220377" lon="10.0441292"><ele>524.0</ele><time>2026-04-11T08:42:34.937Z</time></trkpt><trkpt lat="44.6220169" lon="10.0442416"><ele>524.0</ele><time>2026-04-11T08:42:35.938Z</time></trkpt><trkpt lat="44.6219958" lon="10.0443544"><ele>524.0</ele><time>2026-04-11T08:42:36.938Z</time></trkpt><trkpt lat="44.6219657" lon="10.0444653"><ele>524.0</ele><time>2026-04-11T08:42:37.938Z</time></trkpt><trkpt lat="44.6219359" lon="10.0445757"><ele>524.0</ele><time>2026-04-11T08:42:38.938Z</time></trkpt><trkpt lat="44.6218995" lon="10.0446801"><ele>524.0</ele><time>2026-04-11T08:42:39.938Z</time></trkpt><trkpt lat="44.6218555" lon="10.0447703"><ele>524.0</ele><time>2026-04-11T08:42:40.938Z</time></trkpt><trkpt lat="44.6218087" lon="10.044846"><ele>523.5</ele><time>2026-04-11T08:42:41.938Z</time></trkpt><trkpt lat="44.6217688" lon="10.0449374"><ele>523.0</ele><time>2026-04-11T08:42:42.938Z</time></trkpt><trkpt lat="44.6217377" lon="10.0450223"><ele>522.5</ele><time>2026-04-11T08:42:43.938Z</time></trkpt><trkpt lat="44.6217032" lon="10.0450965"><ele>522.0</ele><time>2026-04-11T08:42:44.938Z</time></trkpt><trkpt lat="44.6216589" lon="10.045163"><ele>521.5</ele><time>2026-04-11T08:42:45.939Z</time></trkpt><trkpt lat="44.6215645" lon="10.0452827"><ele>521.0</ele><time>2026-04-11T08:42:47.938Z</time></trkpt><trkpt lat="44.6215065" lon="10.0453421"><ele>522.0</ele><time>2026-04-11T08:42:48.938Z</time></trkpt><trkpt lat="44.621447" lon="10.0453896"><ele>523.0</ele><time>2026-04-11T08:42:49.938Z</time></trkpt><trkpt lat="44.6213849" lon="10.0454328"><ele>524.0</ele><time>2026-04-11T08:42:50.938Z</time></trkpt><trkpt lat="44.6213133" lon="10.0454677"><ele>525.0</ele><time>2026-04-11T08:42:51.938Z</time></trkpt><trkpt lat="44.6212376" lon="10.0455057"><ele>526.0</ele><time>2026-04-11T08:42:52.938Z</time></trkpt><trkpt lat="44.6211614" lon="10.0455547"><ele>527.0</ele><time>2026-04-11T08:42:53.938Z</time></trkpt><trkpt lat="44.6210895" lon="10.0456136"><ele>527.0000000000001</ele><time>2026-04-11T08:42:54.938Z</time></trkpt><trkpt lat="44.6210206" lon="10.0456634"><ele>527.0</ele><time>2026-04-11T08:42:55.938Z</time></trkpt><trkpt lat="44.620955" lon="10.0457089"><ele>527.0</ele><time>2026-04-11T08:42:56.938Z</time></trkpt><trkpt lat="44.6208937" lon="10.0457569"><ele>527.0</ele><time>2026-04-11T08:42:57.937Z</time></trkpt><trkpt lat="44.6208329" lon="10.045808"><ele>527.0</ele><time>2026-04-11T08:42:58.938Z</time></trkpt><trkpt lat="44.6207716" lon="10.045862"><ele>527.0000000000001</ele><time>2026-04-11T08:42:59.938Z</time></trkpt><trkpt lat="44.6207114" lon="10.0459264"><ele>527.0</ele><time>2026-04-11T08:43:00.938Z</time></trkpt><trkpt lat="44.6206572" lon="10.0460081"><ele>528.2</ele><time>2026-04-11T08:43:01.938Z</time></trkpt><trkpt lat="44.6206012" lon="10.0460812"><ele>529.4000000000001</ele><time>2026-04-11T08:43:02.939Z</time></trkpt><trkpt lat="44.6205464" lon="10.0461388"><ele>530.5999999999999</ele><time>2026-04-11T08:43:03.938Z</time></trkpt><trkpt lat="44.6204912" lon="10.0461851"><ele>531.8</ele><time>2026-04-11T08:43:04.937Z</time></trkpt><trkpt lat="44.6203977" lon="10.0462901"><ele>533.0</ele><time>2026-04-11T08:43:06.937Z</time></trkpt><trkpt lat="44.6203084" lon="10.0464282"><ele>533.0</ele><time>2026-04-11T08:43:08.937Z</time></trkpt><trkpt lat="44.6202501" lon="10.0465095"><ele>533.0</ele><time>2026-04-11T08:43:09.938Z</time></trkpt><trkpt lat="44.6201976" lon="10.0465865"><ele>533.0</ele><time>2026-04-11T08:43:10.938Z</time></trkpt><trkpt lat="44.6201501" lon="10.0466663"><ele>533.0</ele><time>2026-04-11T08:43:11.937Z</time></trkpt><trkpt lat="44.6201063" lon="10.0467418"><ele>533.0</ele><time>2026-04-11T08:43:12.938Z</time></trkpt><trkpt lat="44.6200828" lon="10.0468367"><ele>533.0</ele><time>2026-04-11T08:43:13.938Z</time></trkpt><trkpt lat="44.6200641" lon="10.0469318"><ele>533.0</ele><time>2026-04-11T08:43:14.938Z</time></trkpt><trkpt lat="44.6200466" lon="10.0470285"><ele>535.0</ele><time>2026-04-11T08:43:15.938Z</time></trkpt><trkpt lat="44.6200303" lon="10.0471166"><ele>537.0</ele><time>2026-04-11T08:43:16.937Z</time></trkpt><trkpt lat="44.6200252" lon="10.047209"><ele>539.0</ele><time>2026-04-11T08:43:17.938Z</time></trkpt><trkpt lat="44.620027" lon="10.0473062"><ele>541.0</ele><time>2026-04-11T08:43:18.938Z</time></trkpt><trkpt lat="44.6200403" lon="10.0474051"><ele>543.0</ele><time>2026-04-11T08:43:19.938Z</time></trkpt><trkpt lat="44.6200536" lon="10.0475026"><ele>545.0</ele><time>2026-04-11T08:43:20.938Z</time></trkpt><trkpt lat="44.6200576" lon="10.0475991"><ele>547.0</ele><time>2026-04-11T08:43:21.938Z</time></trkpt><trkpt lat="44.6200571" lon="10.0476968"><ele>548.2857142857142</ele><time>2026-04-11T08:43:22.938Z</time></trkpt><trkpt lat="44.6200508" lon="10.0477913"><ele>549.5714285714286</ele><time>2026-04-11T08:43:23.938Z</time></trkpt><trkpt lat="44.6200294" lon="10.0478751"><ele>550.8571428571429</ele><time>2026-04-11T08:43:24.938Z</time></trkpt><trkpt lat="44.6199963" lon="10.0479557"><ele>552.1428571428571</ele><time>2026-04-11T08:43:25.938Z</time></trkpt><trkpt lat="44.6199734" lon="10.0480429"><ele>553.4285714285714</ele><time>2026-04-11T08:43:26.938Z</time></trkpt><trkpt lat="44.6199497" lon="10.0481265"><ele>554.7142857142857</ele><time>2026-04-11T08:43:27.938Z</time></trkpt><trkpt lat="44.6199226" lon="10.0482205"><ele>556.0</ele><time>2026-04-11T08:43:28.937Z</time></trkpt><trkpt lat="44.6198913" lon="10.0483138"><ele>557.5</ele><time>2026-04-11T08:43:29.937Z</time></trkpt><trkpt lat="44.6198404" lon="10.0484014"><ele>559.0</ele><time>2026-04-11T08:43:30.937Z</time></trkpt><trkpt lat="44.619777" lon="10.0484793"><ele>560.5</ele><time>2026-04-11T08:43:32.938Z</time></trkpt><trkpt lat="44.6197171" lon="10.0485696"><ele>562.0</ele><time>2026-04-11T08:43:42.937Z</time></trkpt><trkpt lat="44.6196897" lon="10.0486964"><ele>563.5</ele><time>2026-04-11T08:43:44.939Z</time></trkpt><trkpt lat="44.6196741" lon="10.0487836"><ele>565.0</ele><time>2026-04-11T08:43:45.938Z</time></trkpt><trkpt lat="44.6196387" lon="10.0489238"><ele>565.0</ele><time>2026-04-11T08:43:47.938Z</time></trkpt><trkpt lat="44.6195922" lon="10.0490424"><ele>565.0</ele><time>2026-04-11T08:43:49.938Z</time></trkpt><trkpt lat="44.6195099" lon="10.0490942"><ele>565.0</ele><time>2026-04-11T08:43:51.938Z</time></trkpt><trkpt lat="44.6193918" lon="10.0491583"><ele>565.0</ele><time>2026-04-11T08:43:53.937Z</time></trkpt><trkpt lat="44.6193158" lon="10.0491995"><ele>565.0</ele><time>2026-04-11T08:43:54.937Z</time></trkpt><trkpt lat="44.61924" lon="10.04923"><ele>566.1666666666667</ele><time>2026-04-11T08:43:55.938Z</time></trkpt><trkpt lat="44.6191598" lon="10.0492676"><ele>567.3333333333334</ele><time>2026-04-11T08:43:56.937Z</time></trkpt><trkpt lat="44.6190814" lon="10.0493097"><ele>568.5</ele><time>2026-04-11T08:43:57.938Z</time></trkpt><trkpt lat="44.6190065" lon="10.0493565"><ele>569.6666666666666</ele><time>2026-04-11T08:43:58.938Z</time></trkpt><trkpt lat="44.6189735" lon="10.0494465"><ele>570.8333333333333</ele><time>2026-04-11T08:43:59.938Z</time></trkpt><trkpt lat="44.61893" lon="10.049556"><ele>572.0</ele><time>2026-04-11T08:44:00.938Z</time></trkpt><trkpt lat="44.6188955" lon="10.049671"><ele>572.0</ele><time>2026-04-11T08:44:01.938Z</time></trkpt><trkpt lat="44.6188589" lon="10.0497803"><ele>572.0</ele><time>2026-04-11T08:44:02.938Z</time></trkpt><trkpt lat="44.6188165" lon="10.0498684"><ele>572.0</ele><time>2026-04-11T08:44:03.937Z</time></trkpt><trkpt lat="44.6187503" lon="10.0499374"><ele>572.0</ele><time>2026-04-11T08:44:04.937Z</time></trkpt><trkpt lat="44.6186751" lon="10.0499889"><ele>572.0</ele><time>2026-04-11T08:44:05.938Z</time></trkpt><trkpt lat="44.6186076" lon="10.0500188"><ele>572.0</ele><time>2026-04-11T08:44:06.938Z</time></trkpt><trkpt lat="44.6185327" lon="10.0499971"><ele>572.1666666666666</ele><time>2026-04-11T08:44:07.938Z</time></trkpt><trkpt lat="44.6184171" lon="10.0499883"><ele>572.3333333333333</ele><time>2026-04-11T08:44:09.937Z</time></trkpt><trkpt lat="44.6183283" lon="10.0500742"><ele>572.5</ele><time>2026-04-11T08:44:11.938Z</time></trkpt><trkpt lat="44.6182963" lon="10.0501541"><ele>572.6666666666666</ele><time>2026-04-11T08:44:12.938Z</time></trkpt><trkpt lat="44.6182751" lon="10.0502453"><ele>572.8333333333334</ele><time>2026-04-11T08:44:13.938Z</time></trkpt><trkpt lat="44.6182549" lon="10.0503424"><ele>573.0</ele><time>2026-04-11T08:44:14.938Z</time></trkpt><trkpt lat="44.618302" lon="10.0504632"><ele>573.0</ele><time>2026-04-11T08:44:15.938Z</time></trkpt><trkpt lat="44.6183084" lon="10.0505677"><ele>573.0</ele><time>2026-04-11T08:44:16.938Z</time></trkpt><trkpt lat="44.6182746" lon="10.0507045"><ele>573.0</ele><time>2026-04-11T08:44:18.938Z</time></trkpt><trkpt lat="44.618234" lon="10.0507858"><ele>573.0</ele><time>2026-04-11T08:44:20.939Z</time></trkpt><trkpt lat="44.6181584" lon="10.0508154"><ele>573.0</ele><time>2026-04-11T08:44:24.937Z</time></trkpt><trkpt lat="44.6180791" lon="10.0507898"><ele>573.0</ele><time>2026-04-11T08:44:26.938Z</time></trkpt><trkpt lat="44.6179721" lon="10.050776"><ele>573.8333333333334</ele><time>2026-04-11T08:44:28.938Z</time></trkpt><trkpt lat="44.6178496" lon="10.0508255"><ele>574.6666666666666</ele><time>2026-04-11T08:44:30.938Z</time></trkpt><trkpt lat="44.6177857" lon="10.0508796"><ele>575.5</ele><time>2026-04-11T08:44:31.937Z</time></trkpt><trkpt lat="44.6177178" lon="10.0509206"><ele>576.3333333333333</ele><time>2026-04-11T08:44:32.938Z</time></trkpt><trkpt lat="44.6176506" lon="10.0509703"><ele>577.1666666666666</ele><time>2026-04-11T08:44:33.938Z</time></trkpt><trkpt lat="44.6175912" lon="10.0510134"><ele>578.0</ele><time>2026-04-11T08:44:34.937Z</time></trkpt><trkpt lat="44.6175249" lon="10.0510416"><ele>576.1666666666666</ele><time>2026-04-11T08:44:35.937Z</time></trkpt><trkpt lat="44.6174574" lon="10.0510388"><ele>574.3333333333333</ele><time>2026-04-11T08:44:36.938Z</time></trkpt><trkpt lat="44.6173887" lon="10.0510453"><ele>572.5</ele><time>2026-04-11T08:44:37.938Z</time></trkpt><trkpt lat="44.617322" lon="10.0510715"><ele>570.6666666666666</ele><time>2026-04-11T08:44:38.938Z</time></trkpt><trkpt lat="44.617257" lon="10.0511372"><ele>568.8333333333334</ele><time>2026-04-11T08:44:39.939Z</time></trkpt><trkpt lat="44.6171865" lon="10.0512023"><ele>567.0</ele><time>2026-04-11T08:44:40.938Z</time></trkpt><trkpt lat="44.6171096" lon="10.0512545"><ele>567.0</ele><time>2026-04-11T08:44:41.938Z</time></trkpt><trkpt lat="44.6170461" lon="10.0512989"><ele>567.0</ele><time>2026-04-11T08:44:42.937Z</time></trkpt><trkpt lat="44.6169803" lon="10.0513197"><ele>567.0</ele><time>2026-04-11T08:44:43.938Z</time></trkpt><trkpt lat="44.6168593" lon="10.0512542"><ele>567.0</ele><time>2026-04-11T08:44:45.938Z</time></trkpt><trkpt lat="44.616807" lon="10.0511728"><ele>567.0</ele><time>2026-04-11T08:44:46.938Z</time></trkpt><trkpt lat="44.6167541" lon="10.0510859"><ele>567.0</ele><time>2026-04-11T08:44:47.937Z</time></trkpt><trkpt lat="44.6166907" lon="10.0510092"><ele>565.8333333333334</ele><time>2026-04-11T08:44:48.938Z</time></trkpt><trkpt lat="44.6166188" lon="10.0509342"><ele>564.6666666666666</ele><time>2026-04-11T08:44:49.938Z</time></trkpt><trkpt lat="44.6165484" lon="10.0508718"><ele>563.5</ele><time>2026-04-11T08:44:50.938Z</time></trkpt><trkpt lat="44.6164733" lon="10.0508359"><ele>562.3333333333333</ele><time>2026-04-11T08:44:51.938Z</time></trkpt><trkpt lat="44.6164021" lon="10.0508097"><ele>561.1666666666666</ele><time>2026-04-11T08:44:52.938Z</time></trkpt><trkpt lat="44.6163382" lon="10.0507895"><ele>560.0</ele><time>2026-04-11T08:44:53.938Z</time></trkpt><trkpt lat="44.6162157" lon="10.0507885"><ele>560.2857142857143</ele><time>2026-04-11T08:44:55.938Z</time></trkpt><trkpt lat="44.6161456" lon="10.0508228"><ele>560.5714285714286</ele><time>2026-04-11T08:44:56.938Z</time></trkpt><trkpt lat="44.6160736" lon="10.0508724"><ele>560.8571428571429</ele><time>2026-04-11T08:44:57.937Z</time></trkpt><trkpt lat="44.6160082" lon="10.0509186"><ele>561.1428571428571</ele><time>2026-04-11T08:44:58.937Z</time></trkpt><trkpt lat="44.615952" lon="10.0509761"><ele>561.4285714285714</ele><time>2026-04-11T08:44:59.938Z</time></trkpt><trkpt lat="44.6158997" lon="10.0510501"><ele>561.7142857142858</ele><time>2026-04-11T08:45:00.938Z</time></trkpt><trkpt lat="44.6158528" lon="10.051128"><ele>562.0</ele><time>2026-04-11T08:45:01.937Z</time></trkpt><trkpt lat="44.6158068" lon="10.0512086"><ele>562.0</ele><time>2026-04-11T08:45:02.938Z</time></trkpt><trkpt lat="44.6157566" lon="10.0512907"><ele>562.0</ele><time>2026-04-11T08:45:03.938Z</time></trkpt><trkpt lat="44.6157017" lon="10.0513647"><ele>562.0</ele><time>2026-04-11T08:45:04.938Z</time></trkpt><trkpt lat="44.6156457" lon="10.0514243"><ele>562.0</ele><time>2026-04-11T08:45:05.937Z</time></trkpt><trkpt lat="44.6155849" lon="10.0514584"><ele>562.0</ele><time>2026-04-11T08:45:06.937Z</time></trkpt><trkpt lat="44.6154662" lon="10.0514383"><ele>562.0</ele><time>2026-04-11T08:45:08.937Z</time></trkpt><trkpt lat="44.6153805" lon="10.0513307"><ele>562.0</ele><time>2026-04-11T08:45:10.938Z</time></trkpt><trkpt lat="44.61533" lon="10.0512045"><ele>562.0</ele><time>2026-04-11T08:45:12.938Z</time></trkpt><trkpt lat="44.6152472" lon="10.0511333"><ele>562.0</ele><time>2026-04-11T08:45:14.938Z</time></trkpt><trkpt lat="44.615162" lon="10.051131"><ele>562.0</ele><time>2026-04-11T08:45:16.938Z</time></trkpt><trkpt lat="44.6150949" lon="10.0511051"><ele>562.0</ele><time>2026-04-11T08:45:18.938Z</time></trkpt><trkpt lat="44.6150971" lon="10.0509663"><ele>562.5</ele><time>2026-04-11T08:45:21.938Z</time></trkpt><trkpt lat="44.6151706" lon="10.0508563"><ele>563.0</ele><time>2026-04-11T08:45:23.939Z</time></trkpt><trkpt lat="44.6152181" lon="10.0507836"><ele>563.5</ele><time>2026-04-11T08:45:24.938Z</time></trkpt><trkpt lat="44.6152508" lon="10.050703"><ele>564.0</ele><time>2026-04-11T08:45:25.938Z</time></trkpt><trkpt lat="44.6152855" lon="10.0506149"><ele>564.5</ele><time>2026-04-11T08:45:26.939Z</time></trkpt><trkpt lat="44.6153123" lon="10.0505188"><ele>565.0</ele><time>2026-04-11T08:45:27.938Z</time></trkpt><trkpt lat="44.6153172" lon="10.0504151"><ele>562.3333333333334</ele><time>2026-04-11T08:45:28.938Z</time></trkpt><trkpt lat="44.6153349" lon="10.0503036"><ele>559.6666666666667</ele><time>2026-04-11T08:45:29.938Z</time></trkpt><trkpt lat="44.6153517" lon="10.050196"><ele>557.0</ele><time>2026-04-11T08:45:30.939Z</time></trkpt><trkpt lat="44.6153433" lon="10.0500917"><ele>554.3333333333334</ele><time>2026-04-11T08:45:31.938Z</time></trkpt><trkpt lat="44.6153312" lon="10.0499847"><ele>551.6666666666666</ele><time>2026-04-11T08:45:32.938Z</time></trkpt><trkpt lat="44.6152917" lon="10.0498895"><ele>549.0</ele><time>2026-04-11T08:45:33.938Z</time></trkpt><trkpt lat="44.6152348" lon="10.0498054"><ele>548.5</ele><time>2026-04-11T08:45:34.938Z</time></trkpt><trkpt lat="44.6151615" lon="10.0497508"><ele>548.0</ele><time>2026-04-11T08:45:35.938Z</time></trkpt><trkpt lat="44.6150816" lon="10.0497116"><ele>547.5</ele><time>2026-04-11T08:45:36.938Z</time></trkpt><trkpt lat="44.6149942" lon="10.0496651"><ele>547.0</ele><time>2026-04-11T08:45:37.938Z</time></trkpt><trkpt lat="44.6149096" lon="10.049608"><ele>546.5</ele><time>2026-04-11T08:45:38.938Z</time></trkpt><trkpt lat="44.6148328" lon="10.0495374"><ele>546.0</ele><time>2026-04-11T08:45:39.938Z</time></trkpt><trkpt lat="44.6147681" lon="10.0494489"><ele>546.0</ele><time>2026-04-11T08:45:40.938Z</time></trkpt><trkpt lat="44.6147146" lon="10.0493385"><ele>546.0</ele><time>2026-04-11T08:45:41.939Z</time></trkpt><trkpt lat="44.61467" lon="10.0492182"><ele>546.0</ele><time>2026-04-11T08:45:42.939Z</time></trkpt><trkpt lat="44.6146295" lon="10.0490939"><ele>546.0</ele><time>2026-04-11T08:45:43.938Z</time></trkpt><trkpt lat="44.6145929" lon="10.048977"><ele>546.0</ele><time>2026-04-11T08:45:44.938Z</time></trkpt><trkpt lat="44.6145574" lon="10.0488742"><ele>544.3333333333334</ele><time>2026-04-11T08:45:45.937Z</time></trkpt><trkpt lat="44.6144589" lon="10.048766"><ele>542.6666666666666</ele><time>2026-04-11T08:45:47.938Z</time></trkpt><trkpt lat="44.6143891" lon="10.0487708"><ele>541.0</ele><time>2026-04-11T08:45:48.938Z</time></trkpt><trkpt lat="44.6143158" lon="10.0488019"><ele>539.3333333333333</ele><time>2026-04-11T08:45:49.938Z</time></trkpt><trkpt lat="44.6142329" lon="10.0488269"><ele>537.6666666666666</ele><time>2026-04-11T08:45:50.938Z</time></trkpt><trkpt lat="44.6141444" lon="10.0488528"><ele>536.0</ele><time>2026-04-11T08:45:51.937Z</time></trkpt><trkpt lat="44.6140522" lon="10.0488843"><ele>536.0</ele><time>2026-04-11T08:45:52.938Z</time></trkpt><trkpt lat="44.613961" lon="10.0489283"><ele>536.0</ele><time>2026-04-11T08:45:53.938Z</time></trkpt><trkpt lat="44.6138768" lon="10.0489842"><ele>536.0</ele><time>2026-04-11T08:45:54.937Z</time></trkpt><trkpt lat="44.6137957" lon="10.0490617"><ele>536.0</ele><time>2026-04-11T08:45:55.938Z</time></trkpt><trkpt lat="44.6137337" lon="10.049162"><ele>536.0</ele><time>2026-04-11T08:45:56.938Z</time></trkpt><trkpt lat="44.6136915" lon="10.0492732"><ele>538.2</ele><time>2026-04-11T08:45:57.938Z</time></trkpt><trkpt lat="44.6136558" lon="10.0494068"><ele>540.4000000000001</ele><time>2026-04-11T08:45:58.938Z</time></trkpt><trkpt lat="44.6136283" lon="10.049544"><ele>542.6</ele><time>2026-04-11T08:45:59.938Z</time></trkpt><trkpt lat="44.6135939" lon="10.0496803"><ele>544.8000000000001</ele><time>2026-04-11T08:46:00.938Z</time></trkpt><trkpt lat="44.6135536" lon="10.0498144"><ele>547.0</ele><time>2026-04-11T08:46:01.937Z</time></trkpt><trkpt lat="44.6135034" lon="10.0499513"><ele>543.25</ele><time>2026-04-11T08:46:02.938Z</time></trkpt><trkpt lat="44.6134437" lon="10.0500831"><ele>539.5</ele><time>2026-04-11T08:46:03.939Z</time></trkpt><trkpt lat="44.6133715" lon="10.0501971"><ele>535.75</ele><time>2026-04-11T08:46:04.937Z</time></trkpt><trkpt lat="44.6132879" lon="10.0503024"><ele>532.0</ele><time>2026-04-11T08:46:05.938Z</time></trkpt><trkpt lat="44.6131971" lon="10.050411"><ele>532.0</ele><time>2026-04-11T08:46:06.938Z</time></trkpt><trkpt lat="44.6131073" lon="10.050518"><ele>532.0</ele><time>2026-04-11T08:46:07.938Z</time></trkpt><trkpt lat="44.6130105" lon="10.0506259"><ele>532.0</ele><time>2026-04-11T08:46:08.937Z</time></trkpt><trkpt lat="44.6129105" lon="10.050728"><ele>532.0</ele><time>2026-04-11T08:46:09.938Z</time></trkpt><trkpt lat="44.6128191" lon="10.0508191"><ele>530.6</ele><time>2026-04-11T08:46:10.938Z</time></trkpt><trkpt lat="44.6127233" lon="10.0508784"><ele>529.2</ele><time>2026-04-11T08:46:11.938Z</time></trkpt><trkpt lat="44.6126214" lon="10.0508995"><ele>527.8</ele><time>2026-04-11T08:46:12.938Z</time></trkpt><trkpt lat="44.6125184" lon="10.0508961"><ele>526.4</ele><time>2026-04-11T08:46:13.938Z</time></trkpt><trkpt lat="44.61241" lon="10.0508464"><ele>525.0</ele><time>2026-04-11T08:46:14.937Z</time></trkpt><trkpt lat="44.6123009" lon="10.0507776"><ele>521.75</ele><time>2026-04-11T08:46:15.938Z</time></trkpt><trkpt lat="44.6121894" lon="10.0506918"><ele>518.5</ele><time>2026-04-11T08:46:16.938Z</time></trkpt><trkpt lat="44.6120768" lon="10.0506048"><ele>515.25</ele><time>2026-04-11T08:46:17.938Z</time></trkpt><trkpt lat="44.6119618" lon="10.0505264"><ele>512.0</ele><time>2026-04-11T08:46:18.938Z</time></trkpt><trkpt lat="44.6118441" lon="10.0504526"><ele>511.0</ele><time>2026-04-11T08:46:19.937Z</time></trkpt><trkpt lat="44.6117274" lon="10.0503834"><ele>510.0</ele><time>2026-04-11T08:46:20.938Z</time></trkpt><trkpt lat="44.6116113" lon="10.0503406"><ele>509.0</ele><time>2026-04-11T08:46:21.938Z</time></trkpt><trkpt lat="44.6114964" lon="10.0503076"><ele>508.0</ele><time>2026-04-11T08:46:22.938Z</time></trkpt><trkpt lat="44.6113891" lon="10.050273"><ele>508.0</ele><time>2026-04-11T08:46:23.937Z</time></trkpt><trkpt lat="44.6112892" lon="10.050224"><ele>507.99999999999994</ele><time>2026-04-11T08:46:24.937Z</time></trkpt><trkpt lat="44.6112009" lon="10.0501458"><ele>507.99999999999994</ele><time>2026-04-11T08:46:25.938Z</time></trkpt><trkpt lat="44.6111265" lon="10.0500469"><ele>508.0</ele><time>2026-04-11T08:46:26.938Z</time></trkpt><trkpt lat="44.6110681" lon="10.0499323"><ele>508.0</ele><time>2026-04-11T08:46:27.938Z</time></trkpt><trkpt lat="44.6110118" lon="10.0498168"><ele>507.0</ele><time>2026-04-11T08:46:28.938Z</time></trkpt><trkpt lat="44.6109607" lon="10.0496877"><ele>505.99999999999994</ele><time>2026-04-11T08:46:29.937Z</time></trkpt><trkpt lat="44.6109081" lon="10.0495636"><ele>504.99999999999994</ele><time>2026-04-11T08:46:30.938Z</time></trkpt><trkpt lat="44.6108591" lon="10.0494402"><ele>504.0</ele><time>2026-04-11T08:46:31.938Z</time></trkpt><trkpt lat="44.6108148" lon="10.0493284"><ele>503.0</ele><time>2026-04-11T08:46:32.938Z</time></trkpt><trkpt lat="44.6107721" lon="10.0492282"><ele>502.99999999999994</ele><time>2026-04-11T08:46:33.938Z</time></trkpt><trkpt lat="44.6107215" lon="10.0491494"><ele>503.0</ele><time>2026-04-11T08:46:34.938Z</time></trkpt><trkpt lat="44.6106469" lon="10.0491039"><ele>503.0</ele><time>2026-04-11T08:46:35.939Z</time></trkpt><trkpt lat="44.610558" lon="10.0490927"><ele>503.0</ele><time>2026-04-11T08:46:36.938Z</time></trkpt><trkpt lat="44.6104747" lon="10.0491274"><ele>502.99999999999994</ele><time>2026-04-11T08:46:37.937Z</time></trkpt><trkpt lat="44.6104064" lon="10.0491992"><ele>503.0</ele><time>2026-04-11T08:46:38.938Z</time></trkpt><trkpt lat="44.610363" lon="10.0493035"><ele>503.0</ele><time>2026-04-11T08:46:39.938Z</time></trkpt><trkpt lat="44.610321" lon="10.0494173"><ele>502.99999999999994</ele><time>2026-04-11T08:46:40.937Z</time></trkpt><trkpt lat="44.6103155" lon="10.0495307"><ele>502.99999999999994</ele><time>2026-04-11T08:46:41.938Z</time></trkpt><trkpt lat="44.6104086" lon="10.0496334"><ele>503.0</ele><time>2026-04-11T08:46:42.938Z</time></trkpt><trkpt lat="44.6104392" lon="10.0497572"><ele>503.0</ele><time>2026-04-11T08:46:43.938Z</time></trkpt><trkpt lat="44.6104429" lon="10.0498788"><ele>502.49999999999994</ele><time>2026-04-11T08:46:44.938Z</time></trkpt><trkpt lat="44.6104175" lon="10.0499843"><ele>502.0</ele><time>2026-04-11T08:46:45.938Z</time></trkpt><trkpt lat="44.6103619" lon="10.0500711"><ele>501.5</ele><time>2026-04-11T08:46:46.938Z</time></trkpt><trkpt lat="44.610285" lon="10.0501182"><ele>501.0</ele><time>2026-04-11T08:46:47.938Z</time></trkpt><trkpt lat="44.6101995" lon="10.0501209"><ele>500.49999999999994</ele><time>2026-04-11T08:46:48.938Z</time></trkpt><trkpt lat="44.6101121" lon="10.0500826"><ele>500.0</ele><time>2026-04-11T08:46:49.938Z</time></trkpt><trkpt lat="44.6100339" lon="10.0500088"><ele>497.4</ele><time>2026-04-11T08:46:50.938Z</time></trkpt><trkpt lat="44.6099533" lon="10.0499215"><ele>494.8</ele><time>2026-04-11T08:46:51.937Z</time></trkpt><trkpt lat="44.6098712" lon="10.0498311"><ele>492.20000000000005</ele><time>2026-04-11T08:46:52.939Z</time></trkpt><trkpt lat="44.6097845" lon="10.0497359"><ele>489.6</ele><time>2026-04-11T08:46:53.937Z</time></trkpt><trkpt lat="44.6097006" lon="10.0496307"><ele>487.0</ele><time>2026-04-11T08:46:54.938Z</time></trkpt><trkpt lat="44.6096221" lon="10.0495196"><ele>487.00000000000006</ele><time>2026-04-11T08:46:55.938Z</time></trkpt><trkpt lat="44.6095612" lon="10.0494074"><ele>487.0</ele><time>2026-04-11T08:46:56.938Z</time></trkpt><trkpt lat="44.6095145" lon="10.0493046"><ele>487.0</ele><time>2026-04-11T08:46:57.938Z</time></trkpt><trkpt lat="44.6094659" lon="10.0492163"><ele>487.0</ele><time>2026-04-11T08:46:58.938Z</time></trkpt><trkpt lat="44.6094032" lon="10.049159"><ele>487.00000000000006</ele><time>2026-04-11T08:46:59.939Z</time></trkpt><trkpt lat="44.609332" lon="10.0491254"><ele>487.0</ele><time>2026-04-11T08:47:00.938Z</time></trkpt><trkpt lat="44.609259" lon="10.0490901"><ele>486.33333333333337</ele><time>2026-04-11T08:47:01.938Z</time></trkpt><trkpt lat="44.6091856" lon="10.0490579"><ele>485.6666666666667</ele><time>2026-04-11T08:47:02.938Z</time></trkpt><trkpt lat="44.6091158" lon="10.0490221"><ele>485.0</ele><time>2026-04-11T08:47:03.938Z</time></trkpt><trkpt lat="44.60905" lon="10.0489992"><ele>484.33333333333337</ele><time>2026-04-11T08:47:04.938Z</time></trkpt><trkpt lat="44.6089433" lon="10.0490009"><ele>483.6666666666667</ele><time>2026-04-11T08:47:06.937Z</time></trkpt><trkpt lat="44.608871" lon="10.0490284"><ele>483.0</ele><time>2026-04-11T08:47:08.938Z</time></trkpt><trkpt lat="44.6087866" lon="10.0490749"><ele>483.0</ele><time>2026-04-11T08:47:11.938Z</time></trkpt><trkpt lat="44.6087172" lon="10.049101"><ele>483.0</ele><time>2026-04-11T08:47:13.938Z</time></trkpt><trkpt lat="44.6086251" lon="10.049143"><ele>483.0</ele><time>2026-04-11T08:47:15.938Z</time></trkpt><trkpt lat="44.6085556" lon="10.0492146"><ele>483.0</ele><time>2026-04-11T08:47:17.937Z</time></trkpt><trkpt lat="44.6084908" lon="10.0492892"><ele>483.0</ele><time>2026-04-11T08:47:19.938Z</time></trkpt><trkpt lat="44.6084282" lon="10.0493881"><ele>483.0</ele><time>2026-04-11T08:47:21.938Z</time></trkpt><trkpt lat="44.6083904" lon="10.0495521"><ele>485.7142857142857</ele><time>2026-04-11T08:47:23.938Z</time></trkpt><trkpt lat="44.6083835" lon="10.0496486"><ele>488.42857142857144</ele><time>2026-04-11T08:47:24.938Z</time></trkpt><trkpt lat="44.6083833" lon="10.0497443"><ele>491.1428571428571</ele><time>2026-04-11T08:47:25.938Z</time></trkpt><trkpt lat="44.6083841" lon="10.0498533"><ele>493.85714285714283</ele><time>2026-04-11T08:47:26.938Z</time></trkpt><trkpt lat="44.6083936" lon="10.0499579"><ele>496.57142857142856</ele><time>2026-04-11T08:47:27.938Z</time></trkpt><trkpt lat="44.6084109" lon="10.0500592"><ele>499.2857142857142</ele><time>2026-04-11T08:47:28.938Z</time></trkpt><trkpt lat="44.6084236" lon="10.0501684"><ele>501.99999999999994</ele><time>2026-04-11T08:47:29.937Z</time></trkpt><trkpt lat="44.6084144" lon="10.0502789"><ele>502.00000000000006</ele><time>2026-04-11T08:47:30.938Z</time></trkpt><trkpt lat="44.6083971" lon="10.0503936"><ele>502.0</ele><time>2026-04-11T08:47:31.937Z</time></trkpt><trkpt lat="44.6083827" lon="10.0505136"><ele>502.0</ele><time>2026-04-11T08:47:32.938Z</time></trkpt><trkpt lat="44.6083752" lon="10.0506331"><ele>502.0</ele><time>2026-04-11T08:47:33.938Z</time></trkpt><trkpt lat="44.6083718" lon="10.0507567"><ele>502.00000000000006</ele><time>2026-04-11T08:47:34.938Z</time></trkpt><trkpt lat="44.6083627" lon="10.0508716"><ele>502.0</ele><time>2026-04-11T08:47:35.938Z</time></trkpt><trkpt lat="44.6083587" lon="10.0509851"><ele>501.71428571428567</ele><time>2026-04-11T08:47:36.938Z</time></trkpt><trkpt lat="44.6083687" lon="10.0510862"><ele>501.42857142857144</ele><time>2026-04-11T08:47:37.938Z</time></trkpt><trkpt lat="44.6083753" lon="10.051183"><ele>501.1428571428571</ele><time>2026-04-11T08:47:38.938Z</time></trkpt><trkpt lat="44.6083782" lon="10.0512811"><ele>500.85714285714283</ele><time>2026-04-11T08:47:39.938Z</time></trkpt><trkpt lat="44.6083656" lon="10.0513831"><ele>500.57142857142856</ele><time>2026-04-11T08:47:40.938Z</time></trkpt><trkpt lat="44.6083466" lon="10.0514856"><ele>500.2857142857143</ele><time>2026-04-11T08:47:41.939Z</time></trkpt><trkpt lat="44.6083281" lon="10.0516025"><ele>500.0</ele><time>2026-04-11T08:47:42.938Z</time></trkpt><trkpt lat="44.6083166" lon="10.0517254"><ele>500.8</ele><time>2026-04-11T08:47:43.938Z</time></trkpt><trkpt lat="44.6083023" lon="10.0518499"><ele>501.6</ele><time>2026-04-11T08:47:44.939Z</time></trkpt><trkpt lat="44.608291" lon="10.0519795"><ele>502.4</ele><time>2026-04-11T08:47:45.938Z</time></trkpt><trkpt lat="44.608284" lon="10.0521136"><ele>503.2</ele><time>2026-04-11T08:47:46.938Z</time></trkpt><trkpt lat="44.6082843" lon="10.0522433"><ele>504.0</ele><time>2026-04-11T08:47:47.937Z</time></trkpt><trkpt lat="44.6082834" lon="10.0523669"><ele>504.5</ele><time>2026-04-11T08:47:48.938Z</time></trkpt><trkpt lat="44.6082732" lon="10.0524862"><ele>505.0</ele><time>2026-04-11T08:47:49.937Z</time></trkpt><trkpt lat="44.6082558" lon="10.0525971"><ele>505.5</ele><time>2026-04-11T08:47:50.937Z</time></trkpt><trkpt lat="44.6082083" lon="10.0527122"><ele>506.0</ele><time>2026-04-11T08:47:51.938Z</time></trkpt><trkpt lat="44.6081687" lon="10.0528262"><ele>506.5</ele><time>2026-04-11T08:47:52.938Z</time></trkpt><trkpt lat="44.6081264" lon="10.0529402"><ele>507.0</ele><time>2026-04-11T08:47:53.938Z</time></trkpt><trkpt lat="44.6080922" lon="10.0530755"><ele>507.0</ele><time>2026-04-11T08:47:54.938Z</time></trkpt><trkpt lat="44.6080507" lon="10.0531988"><ele>507.0</ele><time>2026-04-11T08:47:55.938Z</time></trkpt><trkpt lat="44.608009" lon="10.0533123"><ele>507.0</ele><time>2026-04-11T08:47:56.938Z</time></trkpt><trkpt lat="44.6079654" lon="10.0534226"><ele>507.0</ele><time>2026-04-11T08:47:57.938Z</time></trkpt><trkpt lat="44.607914" lon="10.0535096"><ele>507.0</ele><time>2026-04-11T08:47:58.938Z</time></trkpt><trkpt lat="44.6078713" lon="10.0535909"><ele>507.0</ele><time>2026-04-11T08:47:59.938Z</time></trkpt><trkpt lat="44.6078415" lon="10.0537369"><ele>508.0</ele><time>2026-04-11T08:48:01.938Z</time></trkpt><trkpt lat="44.6078728" lon="10.0538833"><ele>509.0</ele><time>2026-04-11T08:48:03.938Z</time></trkpt><trkpt lat="44.6079667" lon="10.0539838"><ele>510.0</ele><time>2026-04-11T08:48:05.937Z</time></trkpt><trkpt lat="44.6080296" lon="10.054025"><ele>511.0</ele><time>2026-04-11T08:48:06.937Z</time></trkpt><trkpt lat="44.6080958" lon="10.0540611"><ele>512.0</ele><time>2026-04-11T08:48:07.937Z</time></trkpt><trkpt lat="44.6081723" lon="10.0540952"><ele>513.0</ele><time>2026-04-11T08:48:08.937Z</time></trkpt><trkpt lat="44.608254" lon="10.0541257"><ele>514.3333333333334</ele><time>2026-04-11T08:48:09.938Z</time></trkpt><trkpt lat="44.6083469" lon="10.0541431"><ele>515.6666666666666</ele><time>2026-04-11T08:48:10.937Z</time></trkpt><trkpt lat="44.6084353" lon="10.0541646"><ele>517.0</ele><time>2026-04-11T08:48:11.937Z</time></trkpt><trkpt lat="44.6085157" lon="10.0541997"><ele>518.3333333333333</ele><time>2026-04-11T08:48:12.939Z</time></trkpt><trkpt lat="44.6085914" lon="10.0542434"><ele>519.6666666666666</ele><time>2026-04-11T08:48:13.938Z</time></trkpt><trkpt lat="44.6086383" lon="10.0543437"><ele>521.0</ele><time>2026-04-11T08:48:14.938Z</time></trkpt><trkpt lat="44.608687" lon="10.0544357"><ele>521.5</ele><time>2026-04-11T08:48:15.938Z</time></trkpt><trkpt lat="44.608727" lon="10.0545349"><ele>522.0</ele><time>2026-04-11T08:48:16.938Z</time></trkpt><trkpt lat="44.6087644" lon="10.0546433"><ele>522.5</ele><time>2026-04-11T08:48:17.938Z</time></trkpt><trkpt lat="44.6087954" lon="10.054758"><ele>523.0</ele><time>2026-04-11T08:48:18.938Z</time></trkpt><trkpt lat="44.6088164" lon="10.0548781"><ele>523.5</ele><time>2026-04-11T08:48:19.938Z</time></trkpt><trkpt lat="44.6088292" lon="10.0550138"><ele>524.0</ele><time>2026-04-11T08:48:20.938Z</time></trkpt><trkpt lat="44.6088422" lon="10.0551483"><ele>525.8</ele><time>2026-04-11T08:48:21.939Z</time></trkpt><trkpt lat="44.608867" lon="10.0552817"><ele>527.5999999999999</ele><time>2026-04-11T08:48:22.937Z</time></trkpt><trkpt lat="44.608896" lon="10.0554174"><ele>529.4</ele><time>2026-04-11T08:48:23.938Z</time></trkpt><trkpt lat="44.6089079" lon="10.0555547"><ele>531.1999999999999</ele><time>2026-04-11T08:48:24.937Z</time></trkpt><trkpt lat="44.6089113" lon="10.0556895"><ele>533.0</ele><time>2026-04-11T08:48:25.938Z</time></trkpt><trkpt lat="44.6089043" lon="10.0558256"><ele>535.4</ele><time>2026-04-11T08:48:26.938Z</time></trkpt><trkpt lat="44.6088812" lon="10.0559556"><ele>537.8</ele><time>2026-04-11T08:48:27.938Z</time></trkpt><trkpt lat="44.6088421" lon="10.056078"><ele>540.2</ele><time>2026-04-11T08:48:28.937Z</time></trkpt><trkpt lat="44.6088045" lon="10.0562013"><ele>542.6</ele><time>2026-04-11T08:48:29.938Z</time></trkpt><trkpt lat="44.6087737" lon="10.0563338"><ele>545.0</ele><time>2026-04-11T08:48:30.938Z</time></trkpt><trkpt lat="44.6087524" lon="10.0564778"><ele>545.0</ele><time>2026-04-11T08:48:31.938Z</time></trkpt><trkpt lat="44.6087507" lon="10.0566143"><ele>545.0</ele><time>2026-04-11T08:48:32.938Z</time></trkpt><trkpt lat="44.6087491" lon="10.0567433"><ele>545.0</ele><time>2026-04-11T08:48:33.938Z</time></trkpt><trkpt lat="44.6087692" lon="10.0568695"><ele>545.0</ele><time>2026-04-11T08:48:34.937Z</time></trkpt><trkpt lat="44.6087871" lon="10.0569847"><ele>545.0</ele><time>2026-04-11T08:48:35.937Z</time></trkpt><trkpt lat="44.6088225" lon="10.0570757"><ele>545.0</ele><time>2026-04-11T08:48:36.937Z</time></trkpt><trkpt lat="44.6088741" lon="10.0571565"><ele>546.4</ele><time>2026-04-11T08:48:37.937Z</time></trkpt><trkpt lat="44.6089406" lon="10.0572255"><ele>547.8</ele><time>2026-04-11T08:48:38.938Z</time></trkpt><trkpt lat="44.6090157" lon="10.0572923"><ele>549.2</ele><time>2026-04-11T08:48:39.938Z</time></trkpt><trkpt lat="44.6090971" lon="10.0573547"><ele>550.6</ele><time>2026-04-11T08:48:40.938Z</time></trkpt><trkpt lat="44.6091787" lon="10.0574196"><ele>552.0</ele><time>2026-04-11T08:48:41.938Z</time></trkpt><trkpt lat="44.6092578" lon="10.0574852"><ele>553.3333333333334</ele><time>2026-04-11T08:48:42.938Z</time></trkpt><trkpt lat="44.6093329" lon="10.0575437"><ele>554.6666666666666</ele><time>2026-04-11T08:48:43.938Z</time></trkpt><trkpt lat="44.6093974" lon="10.0575925"><ele>556.0</ele><time>2026-04-11T08:48:44.939Z</time></trkpt><trkpt lat="44.6094981" lon="10.057655"><ele>557.3333333333333</ele><time>2026-04-11T08:48:46.938Z</time></trkpt><trkpt lat="44.6095554" lon="10.0576996"><ele>558.6666666666666</ele><time>2026-04-11T08:48:48.937Z</time></trkpt><trkpt lat="44.6094916" lon="10.0576761"><ele>560.0</ele><time>2026-04-11T08:51:57.937Z</time></trkpt><trkpt lat="44.6094274" lon="10.0576397"><ele>560.0</ele><time>2026-04-11T08:52:01.937Z</time></trkpt><trkpt lat="44.6093669" lon="10.0575937"><ele>560.0</ele><time>2026-04-11T08:52:04.938Z</time></trkpt><trkpt lat="44.6092937" lon="10.057532"><ele>560.0</ele><time>2026-04-11T08:52:07.937Z</time></trkpt><trkpt lat="44.6092328" lon="10.0574789"><ele>560.0</ele><time>2026-04-11T08:52:09.936Z</time></trkpt><trkpt lat="44.6091525" lon="10.0574129"><ele>560.0</ele><time>2026-04-11T08:52:11.937Z</time></trkpt><trkpt lat="44.609054" lon="10.0573376"><ele>560.0</ele><time>2026-04-11T08:52:13.937Z</time></trkpt><trkpt lat="44.6089424" lon="10.0572427"><ele>558.8571428571429</ele><time>2026-04-11T08:52:15.937Z</time></trkpt><trkpt lat="44.6088853" lon="10.0571858"><ele>557.7142857142858</ele><time>2026-04-11T08:52:16.937Z</time></trkpt><trkpt lat="44.6088337" lon="10.0571197"><ele>556.5714285714286</ele><time>2026-04-11T08:52:17.937Z</time></trkpt><trkpt lat="44.6087948" lon="10.0570409"><ele>555.4285714285714</ele><time>2026-04-11T08:52:18.936Z</time></trkpt><trkpt lat="44.6087684" lon="10.0569485"><ele>554.2857142857143</ele><time>2026-04-11T08:52:19.937Z</time></trkpt><trkpt lat="44.6087538" lon="10.0568407"><ele>553.1428571428571</ele><time>2026-04-11T08:52:20.936Z</time></trkpt><trkpt lat="44.6087444" lon="10.0567259"><ele>552.0</ele><time>2026-04-11T08:52:21.937Z</time></trkpt><trkpt lat="44.6087337" lon="10.0566045"><ele>550.8333333333334</ele><time>2026-04-11T08:52:22.937Z</time></trkpt><trkpt lat="44.6087477" lon="10.0564869"><ele>549.6666666666666</ele><time>2026-04-11T08:52:23.937Z</time></trkpt><trkpt lat="44.6087581" lon="10.0563773"><ele>548.5</ele><time>2026-04-11T08:52:24.937Z</time></trkpt><trkpt lat="44.6087774" lon="10.0562704"><ele>547.3333333333333</ele><time>2026-04-11T08:52:25.937Z</time></trkpt><trkpt lat="44.6088066" lon="10.0561761"><ele>546.1666666666666</ele><time>2026-04-11T08:52:26.937Z</time></trkpt><trkpt lat="44.60884" lon="10.0560899"><ele>545.0</ele><time>2026-04-11T08:52:27.937Z</time></trkpt><trkpt lat="44.6088674" lon="10.0560067"><ele>545.0</ele><time>2026-04-11T08:52:28.937Z</time></trkpt><trkpt lat="44.6088896" lon="10.0559192"><ele>545.0</ele><time>2026-04-11T08:52:29.937Z</time></trkpt><trkpt lat="44.6089046" lon="10.0558302"><ele>545.0</ele><time>2026-04-11T08:52:30.937Z</time></trkpt><trkpt lat="44.6089109" lon="10.0557372"><ele>545.0</ele><time>2026-04-11T08:52:31.937Z</time></trkpt><trkpt lat="44.608911" lon="10.0556461"><ele>545.0</ele><time>2026-04-11T08:52:32.937Z</time></trkpt><trkpt lat="44.6088948" lon="10.055474"><ele>545.0</ele><time>2026-04-11T08:52:34.937Z</time></trkpt><trkpt lat="44.6088692" lon="10.0553279"><ele>543.0</ele><time>2026-04-11T08:52:36.937Z</time></trkpt><trkpt lat="44.6088399" lon="10.0551976"><ele>541.0</ele><time>2026-04-11T08:52:38.937Z</time></trkpt><trkpt lat="44.608827" lon="10.0550724"><ele>539.0</ele><time>2026-04-11T08:52:40.937Z</time></trkpt><trkpt lat="44.6088274" lon="10.0549586"><ele>537.0</ele><time>2026-04-11T08:52:42.937Z</time></trkpt><trkpt lat="44.608818" lon="10.0548549"><ele>535.0</ele><time>2026-04-11T08:52:44.937Z</time></trkpt><trkpt lat="44.6088009" lon="10.0547537"><ele>533.0</ele><time>2026-04-11T08:52:46.937Z</time></trkpt><trkpt lat="44.6087688" lon="10.0546412"><ele>531.5</ele><time>2026-04-11T08:52:48.938Z</time></trkpt><trkpt lat="44.6087283" lon="10.0545051"><ele>530.0</ele><time>2026-04-11T08:52:50.937Z</time></trkpt><trkpt lat="44.6086717" lon="10.0543503"><ele>528.5</ele><time>2026-04-11T08:52:52.936Z</time></trkpt><trkpt lat="44.6086254" lon="10.0542745"><ele>527.0</ele><time>2026-04-11T08:52:53.937Z</time></trkpt><trkpt lat="44.6085716" lon="10.0542109"><ele>525.5</ele><time>2026-04-11T08:52:54.936Z</time></trkpt><trkpt lat="44.6085053" lon="10.0541606"><ele>524.0</ele><time>2026-04-11T08:52:55.936Z</time></trkpt><trkpt lat="44.6084312" lon="10.054134"><ele>521.8</ele><time>2026-04-11T08:52:56.937Z</time></trkpt><trkpt lat="44.608354" lon="10.0541166"><ele>519.5999999999999</ele><time>2026-04-11T08:52:57.937Z</time></trkpt><trkpt lat="44.608277" lon="10.0541014"><ele>517.4</ele><time>2026-04-11T08:52:58.937Z</time></trkpt><trkpt lat="44.6081235" lon="10.0540479"><ele>515.1999999999999</ele><time>2026-04-11T08:53:00.937Z</time></trkpt><trkpt lat="44.6080428" lon="10.0540151"><ele>513.0</ele><time>2026-04-11T08:53:01.937Z</time></trkpt><trkpt lat="44.607969" lon="10.0539652"><ele>513.0</ele><time>2026-04-11T08:53:02.937Z</time></trkpt><trkpt lat="44.6079124" lon="10.0539171"><ele>513.0</ele><time>2026-04-11T08:53:03.937Z</time></trkpt><trkpt lat="44.6078651" lon="10.0538508"><ele>513.0</ele><time>2026-04-11T08:53:04.937Z</time></trkpt><trkpt lat="44.6078311" lon="10.0537079"><ele>513.0</ele><time>2026-04-11T08:53:06.936Z</time></trkpt><trkpt lat="44.6078708" lon="10.0535607"><ele>513.0</ele><time>2026-04-11T08:53:08.937Z</time></trkpt><trkpt lat="44.6079188" lon="10.0534942"><ele>513.0</ele><time>2026-04-11T08:53:09.937Z</time></trkpt><trkpt lat="44.6079686" lon="10.0534039"><ele>513.0</ele><time>2026-04-11T08:53:10.936Z</time></trkpt><trkpt lat="44.6080085" lon="10.0532958"><ele>513.0</ele><time>2026-04-11T08:53:11.938Z</time></trkpt><trkpt lat="44.6080443" lon="10.0531793"><ele>513.0</ele><time>2026-04-11T08:53:12.937Z</time></trkpt><trkpt lat="44.6080816" lon="10.0530635"><ele>513.0</ele><time>2026-04-11T08:53:13.937Z</time></trkpt><trkpt lat="44.6081226" lon="10.0529455"><ele>513.0</ele><time>2026-04-11T08:53:14.937Z</time></trkpt><trkpt lat="44.6081669" lon="10.0528248"><ele>512.0</ele><time>2026-04-11T08:53:15.937Z</time></trkpt><trkpt lat="44.6082165" lon="10.0527201"><ele>511.0</ele><time>2026-04-11T08:53:16.937Z</time></trkpt><trkpt lat="44.6082576" lon="10.0526118"><ele>510.0</ele><time>2026-04-11T08:53:17.937Z</time></trkpt><trkpt lat="44.6082824" lon="10.0525007"><ele>509.0</ele><time>2026-04-11T08:53:18.937Z</time></trkpt><trkpt lat="44.6082962" lon="10.0523871"><ele>508.0</ele><time>2026-04-11T08:53:19.937Z</time></trkpt><trkpt lat="44.6082992" lon="10.0522733"><ele>507.0</ele><time>2026-04-11T08:53:20.936Z</time></trkpt><trkpt lat="44.6083012" lon="10.0521591"><ele>506.5</ele><time>2026-04-11T08:53:21.937Z</time></trkpt><trkpt lat="44.6083045" lon="10.0520445"><ele>506.0</ele><time>2026-04-11T08:53:22.937Z</time></trkpt><trkpt lat="44.6083116" lon="10.0519274"><ele>505.5</ele><time>2026-04-11T08:53:23.936Z</time></trkpt><trkpt lat="44.6083265" lon="10.0518102"><ele>505.0</ele><time>2026-04-11T08:53:24.937Z</time></trkpt><trkpt lat="44.6083367" lon="10.0516909"><ele>504.5</ele><time>2026-04-11T08:53:25.937Z</time></trkpt><trkpt lat="44.60835" lon="10.0515747"><ele>504.0</ele><time>2026-04-11T08:53:26.936Z</time></trkpt><trkpt lat="44.6083727" lon="10.0514637"><ele>503.6666666666667</ele><time>2026-04-11T08:53:27.937Z</time></trkpt><trkpt lat="44.6083932" lon="10.0513516"><ele>503.33333333333337</ele><time>2026-04-11T08:53:28.937Z</time></trkpt><trkpt lat="44.6083941" lon="10.0512322"><ele>503.0</ele><time>2026-04-11T08:53:29.936Z</time></trkpt><trkpt lat="44.6083806" lon="10.051118"><ele>502.6666666666667</ele><time>2026-04-11T08:53:30.937Z</time></trkpt><trkpt lat="44.6083763" lon="10.0510011"><ele>502.33333333333337</ele><time>2026-04-11T08:53:31.937Z</time></trkpt><trkpt lat="44.6083851" lon="10.0508804"><ele>502.0</ele><time>2026-04-11T08:53:32.936Z</time></trkpt><trkpt lat="44.6083927" lon="10.0507578"><ele>502.0</ele><time>2026-04-11T08:53:33.937Z</time></trkpt><trkpt lat="44.6083933" lon="10.0506255"><ele>502.0</ele><time>2026-04-11T08:53:34.937Z</time></trkpt><trkpt lat="44.6084215" lon="10.0503686"><ele>502.0</ele><time>2026-04-11T08:53:36.936Z</time></trkpt><trkpt lat="44.6084378" lon="10.050145"><ele>502.0</ele><time>2026-04-11T08:53:38.937Z</time></trkpt><trkpt lat="44.6084161" lon="10.0500444"><ele>503.00000000000006</ele><time>2026-04-11T08:53:39.937Z</time></trkpt><trkpt lat="44.6083991" lon="10.0499448"><ele>504.0</ele><time>2026-04-11T08:53:40.936Z</time></trkpt><trkpt lat="44.6083956" lon="10.0498385"><ele>505.0</ele><time>2026-04-11T08:53:41.938Z</time></trkpt><trkpt lat="44.608395" lon="10.049727"><ele>506.0</ele><time>2026-04-11T08:53:42.937Z</time></trkpt><trkpt lat="44.6083941" lon="10.0496123"><ele>507.00000000000006</ele><time>2026-04-11T08:53:43.937Z</time></trkpt><trkpt lat="44.6084026" lon="10.0494985"><ele>508.0</ele><time>2026-04-11T08:53:44.936Z</time></trkpt><trkpt lat="44.6084287" lon="10.0494065"><ele>508.00000000000006</ele><time>2026-04-11T08:53:45.937Z</time></trkpt><trkpt lat="44.6084725" lon="10.0493234"><ele>508.0</ele><time>2026-04-11T08:53:46.937Z</time></trkpt><trkpt lat="44.608529" lon="10.0492469"><ele>508.0</ele><time>2026-04-11T08:53:47.937Z</time></trkpt><trkpt lat="44.6085968" lon="10.0491796"><ele>508.0</ele><time>2026-04-11T08:53:48.937Z</time></trkpt><trkpt lat="44.6086665" lon="10.0491312"><ele>508.00000000000006</ele><time>2026-04-11T08:53:49.937Z</time></trkpt><trkpt lat="44.6087357" lon="10.0490953"><ele>508.0</ele><time>2026-04-11T08:53:50.937Z</time></trkpt><trkpt lat="44.6088004" lon="10.0490629"><ele>503.83333333333337</ele><time>2026-04-11T08:53:51.937Z</time></trkpt><trkpt lat="44.6089098" lon="10.0490104"><ele>499.6666666666667</ele><time>2026-04-11T08:53:54.936Z</time></trkpt><trkpt lat="44.608966" lon="10.0489645"><ele>495.5</ele><time>2026-04-11T08:54:15.937Z</time></trkpt><trkpt lat="44.6089844" lon="10.0488695"><ele>491.33333333333337</ele><time>2026-04-11T08:54:18.938Z</time></trkpt><trkpt lat="44.6089284" lon="10.0487983"><ele>487.1666666666667</ele><time>2026-04-11T08:54:20.936Z</time></trkpt><trkpt lat="44.6088392" lon="10.0487295"><ele>483.0</ele><time>2026-04-11T08:54:22.936Z</time></trkpt><trkpt lat="44.6087506" lon="10.0485959"><ele>483.0</ele><time>2026-04-11T08:54:24.938Z</time></trkpt><trkpt lat="44.6087187" lon="10.048509"><ele>483.0</ele><time>2026-04-11T08:54:25.937Z</time></trkpt><trkpt lat="44.608714" lon="10.0484158"><ele>483.0</ele><time>2026-04-11T08:54:26.936Z</time></trkpt><trkpt lat="44.6087362" lon="10.0483255"><ele>483.0</ele><time>2026-04-11T08:54:27.937Z</time></trkpt><trkpt lat="44.6087589" lon="10.0482225"><ele>483.0</ele><time>2026-04-11T08:54:28.937Z</time></trkpt><trkpt lat="44.6087749" lon="10.0481133"><ele>483.0</ele><time>2026-04-11T08:54:29.937Z</time></trkpt><trkpt lat="44.608783" lon="10.048002"><ele>483.0</ele><time>2026-04-11T08:54:30.937Z</time></trkpt><trkpt lat="44.6087917" lon="10.0478966"><ele>484.0</ele><time>2026-04-11T08:54:31.938Z</time></trkpt><trkpt lat="44.6088079" lon="10.0477881"><ele>485.0</ele><time>2026-04-11T08:54:32.937Z</time></trkpt><trkpt lat="44.6088353" lon="10.0476807"><ele>486.0</ele><time>2026-04-11T08:54:33.937Z</time></trkpt><trkpt lat="44.608877" lon="10.0475841"><ele>487.0</ele><time>2026-04-11T08:54:34.937Z</time></trkpt><trkpt lat="44.6089225" lon="10.0474863"><ele>488.0</ele><time>2026-04-11T08:54:35.937Z</time></trkpt><trkpt lat="44.6089617" lon="10.0473824"><ele>489.0</ele><time>2026-04-11T08:54:36.937Z</time></trkpt><trkpt lat="44.6089954" lon="10.0472741"><ele>491.3333333333333</ele><time>2026-04-11T08:54:37.937Z</time></trkpt><trkpt lat="44.609019" lon="10.0471619"><ele>493.66666666666663</ele><time>2026-04-11T08:54:38.937Z</time></trkpt><trkpt lat="44.6090347" lon="10.0470471"><ele>496.0</ele><time>2026-04-11T08:54:39.937Z</time></trkpt><trkpt lat="44.6090463" lon="10.0469361"><ele>498.3333333333333</ele><time>2026-04-11T08:54:40.936Z</time></trkpt><trkpt lat="44.609055" lon="10.0468115"><ele>500.66666666666663</ele><time>2026-04-11T08:54:41.936Z</time></trkpt><trkpt lat="44.6090702" lon="10.0466929"><ele>503.0</ele><time>2026-04-11T08:54:42.937Z</time></trkpt><trkpt lat="44.6090976" lon="10.0465889"><ele>503.8333333333333</ele><time>2026-04-11T08:54:43.937Z</time></trkpt><trkpt lat="44.609137" lon="10.0464972"><ele>504.66666666666663</ele><time>2026-04-11T08:54:44.937Z</time></trkpt><trkpt lat="44.6091834" lon="10.0464086"><ele>505.5</ele><time>2026-04-11T08:54:45.937Z</time></trkpt><trkpt lat="44.6092136" lon="10.0463225"><ele>506.33333333333337</ele><time>2026-04-11T08:54:46.937Z</time></trkpt><trkpt lat="44.6092008" lon="10.0461733"><ele>507.1666666666667</ele><time>2026-04-11T08:54:48.937Z</time></trkpt><trkpt lat="44.6091399" lon="10.0461335"><ele>508.0</ele><time>2026-04-11T08:54:49.936Z</time></trkpt><trkpt lat="44.6090766" lon="10.0461436"><ele>508.00000000000006</ele><time>2026-04-11T08:54:50.937Z</time></trkpt><trkpt lat="44.6090148" lon="10.0462033"><ele>508.0</ele><time>2026-04-11T08:54:51.937Z</time></trkpt><trkpt lat="44.6089577" lon="10.046273"><ele>508.0</ele><time>2026-04-11T08:54:52.937Z</time></trkpt><trkpt lat="44.6088892" lon="10.046331"><ele>508.0</ele><time>2026-04-11T08:54:53.936Z</time></trkpt><trkpt lat="44.6088139" lon="10.0463663"><ele>508.00000000000006</ele><time>2026-04-11T08:54:54.937Z</time></trkpt><trkpt lat="44.6087368" lon="10.0463912"><ele>508.0</ele><time>2026-04-11T08:54:55.936Z</time></trkpt><trkpt lat="44.6086559" lon="10.0464112"><ele>511.00000000000006</ele><time>2026-04-11T08:54:56.936Z</time></trkpt><trkpt lat="44.6085799" lon="10.0464318"><ele>514.0</ele><time>2026-04-11T08:54:57.937Z</time></trkpt><trkpt lat="44.6085043" lon="10.0464491"><ele>517.0</ele><time>2026-04-11T08:54:58.937Z</time></trkpt><trkpt lat="44.6084283" lon="10.0464455"><ele>520.0</ele><time>2026-04-11T08:54:59.936Z</time></trkpt><trkpt lat="44.6083582" lon="10.0464146"><ele>523.0</ele><time>2026-04-11T08:55:00.937Z</time></trkpt><trkpt lat="44.6083025" lon="10.0463475"><ele>526.0</ele><time>2026-04-11T08:55:01.937Z</time></trkpt><trkpt lat="44.6082527" lon="10.0462541"><ele>526.0</ele><time>2026-04-11T08:55:02.937Z</time></trkpt><trkpt lat="44.6082103" lon="10.0461488"><ele>526.0</ele><time>2026-04-11T08:55:03.937Z</time></trkpt><trkpt lat="44.6081668" lon="10.0460434"><ele>526.0</ele><time>2026-04-11T08:55:04.937Z</time></trkpt><trkpt lat="44.6081199" lon="10.045942"><ele>526.0</ele><time>2026-04-11T08:55:05.937Z</time></trkpt><trkpt lat="44.6080632" lon="10.0458519"><ele>526.0</ele><time>2026-04-11T08:55:06.936Z</time></trkpt><trkpt lat="44.6079985" lon="10.0457736"><ele>526.0</ele><time>2026-04-11T08:55:07.937Z</time></trkpt><trkpt lat="44.6079379" lon="10.0456913"><ele>525.5</ele><time>2026-04-11T08:55:08.937Z</time></trkpt><trkpt lat="44.607891" lon="10.045596"><ele>525.0</ele><time>2026-04-11T08:55:09.937Z</time></trkpt><trkpt lat="44.6078581" lon="10.045483"><ele>524.5</ele><time>2026-04-11T08:55:10.936Z</time></trkpt><trkpt lat="44.6078333" lon="10.0453614"><ele>524.0</ele><time>2026-04-11T08:55:11.937Z</time></trkpt><trkpt lat="44.6078044" lon="10.0452463"><ele>523.5</ele><time>2026-04-11T08:55:12.937Z</time></trkpt><trkpt lat="44.6077621" lon="10.0451408"><ele>523.0</ele><time>2026-04-11T08:55:13.937Z</time></trkpt><trkpt lat="44.607707" lon="10.0450511"><ele>527.0</ele><time>2026-04-11T08:55:14.937Z</time></trkpt><trkpt lat="44.607642" lon="10.0449791"><ele>531.0</ele><time>2026-04-11T08:55:15.937Z</time></trkpt><trkpt lat="44.6075738" lon="10.0449125"><ele>535.0</ele><time>2026-04-11T08:55:16.937Z</time></trkpt><trkpt lat="44.6075041" lon="10.0448374"><ele>539.0</ele><time>2026-04-11T08:55:17.937Z</time></trkpt><trkpt lat="44.6074437" lon="10.0447555"><ele>543.0</ele><time>2026-04-11T08:55:18.937Z</time></trkpt><trkpt lat="44.6074073" lon="10.0446531"><ele>547.0</ele><time>2026-04-11T08:55:19.937Z</time></trkpt><trkpt lat="44.6074027" lon="10.0445437"><ele>548.6</ele><time>2026-04-11T08:55:20.936Z</time></trkpt><trkpt lat="44.6074327" lon="10.0444342"><ele>550.2</ele><time>2026-04-11T08:55:21.936Z</time></trkpt><trkpt lat="44.6074887" lon="10.0443363"><ele>551.8</ele><time>2026-04-11T08:55:22.936Z</time></trkpt><trkpt lat="44.6075502" lon="10.0442436"><ele>553.4</ele><time>2026-04-11T08:55:23.936Z</time></trkpt><trkpt lat="44.607617" lon="10.0441484"><ele>555.0</ele><time>2026-04-11T08:55:24.937Z</time></trkpt><trkpt lat="44.6076672" lon="10.0440385"><ele>554.0</ele><time>2026-04-11T08:55:25.936Z</time></trkpt><trkpt lat="44.6077113" lon="10.0439138"><ele>553.0</ele><time>2026-04-11T08:55:26.937Z</time></trkpt><trkpt lat="44.6077552" lon="10.0437892"><ele>552.0</ele><time>2026-04-11T08:55:27.937Z</time></trkpt><trkpt lat="44.6078001" lon="10.0436671"><ele>551.0</ele><time>2026-04-11T08:55:28.936Z</time></trkpt><trkpt lat="44.6078452" lon="10.0435429"><ele>550.0</ele><time>2026-04-11T08:55:29.936Z</time></trkpt><trkpt lat="44.6078783" lon="10.0434125"><ele>552.6</ele><time>2026-04-11T08:55:30.936Z</time></trkpt><trkpt lat="44.6078975" lon="10.0432737"><ele>555.2</ele><time>2026-04-11T08:55:31.936Z</time></trkpt><trkpt lat="44.6079067" lon="10.0431362"><ele>557.8</ele><time>2026-04-11T08:55:32.937Z</time></trkpt><trkpt lat="44.6079071" lon="10.042995"><ele>560.4</ele><time>2026-04-11T08:55:33.936Z</time></trkpt><trkpt lat="44.6079031" lon="10.0428469"><ele>563.0</ele><time>2026-04-11T08:55:34.937Z</time></trkpt><trkpt lat="44.6078972" lon="10.0426925"><ele>563.0</ele><time>2026-04-11T08:55:35.937Z</time></trkpt><trkpt lat="44.6078877" lon="10.0425388"><ele>563.0</ele><time>2026-04-11T08:55:36.937Z</time></trkpt><trkpt lat="44.6078781" lon="10.0423764"><ele>563.0</ele><time>2026-04-11T08:55:37.937Z</time></trkpt><trkpt lat="44.6078661" lon="10.0422193"><ele>563.0</ele><time>2026-04-11T08:55:38.937Z</time></trkpt><trkpt lat="44.6078588" lon="10.0420615"><ele>565.1666666666666</ele><time>2026-04-11T08:55:39.937Z</time></trkpt><trkpt lat="44.6078512" lon="10.041931"><ele>567.3333333333333</ele><time>2026-04-11T08:55:40.936Z</time></trkpt><trkpt lat="44.6078443" lon="10.0418182"><ele>569.5</ele><time>2026-04-11T08:55:41.937Z</time></trkpt><trkpt lat="44.6078348" lon="10.0416903"><ele>571.6666666666666</ele><time>2026-04-11T08:55:43.937Z</time></trkpt><trkpt lat="44.6077641" lon="10.0416495"><ele>573.8333333333334</ele><time>2026-04-11T08:56:00.937Z</time></trkpt><trkpt lat="44.6076976" lon="10.0417226"><ele>576.0</ele><time>2026-04-11T08:57:12.936Z</time></trkpt><trkpt lat="44.6076209" lon="10.0418375"><ele>577.8333333333334</ele><time>2026-04-11T08:57:14.937Z</time></trkpt><trkpt lat="44.6075633" lon="10.0419117"><ele>579.6666666666666</ele><time>2026-04-11T08:57:15.936Z</time></trkpt><trkpt lat="44.607502" lon="10.0419919"><ele>581.5</ele><time>2026-04-11T08:57:16.936Z</time></trkpt><trkpt lat="44.6074412" lon="10.0420834"><ele>583.3333333333333</ele><time>2026-04-11T08:57:17.936Z</time></trkpt><trkpt lat="44.6073745" lon="10.0421815"><ele>585.1666666666666</ele><time>2026-04-11T08:57:18.936Z</time></trkpt><trkpt lat="44.6073041" lon="10.0422762"><ele>587.0</ele><time>2026-04-11T08:57:19.937Z</time></trkpt><trkpt lat="44.6072325" lon="10.0423745"><ele>585.25</ele><time>2026-04-11T08:57:20.936Z</time></trkpt><trkpt lat="44.6071586" lon="10.0424791"><ele>583.5</ele><time>2026-04-11T08:57:21.936Z</time></trkpt><trkpt lat="44.6070774" lon="10.0425928"><ele>581.75</ele><time>2026-04-11T08:57:22.936Z</time></trkpt><trkpt lat="44.6069986" lon="10.0427109"><ele>580.0</ele><time>2026-04-11T08:57:23.936Z</time></trkpt><trkpt lat="44.6069176" lon="10.0428375"><ele>586.25</ele><time>2026-04-11T08:57:24.937Z</time></trkpt><trkpt lat="44.6068346" lon="10.0429715"><ele>592.5</ele><time>2026-04-11T08:57:25.936Z</time></trkpt><trkpt lat="44.6067586" lon="10.0431084"><ele>598.75</ele><time>2026-04-11T08:57:26.937Z</time></trkpt><trkpt lat="44.6066863" lon="10.0432463"><ele>605.0</ele><time>2026-04-11T08:57:27.937Z</time></trkpt><trkpt lat="44.6066164" lon="10.043388"><ele>605.0</ele><time>2026-04-11T08:57:28.937Z</time></trkpt><trkpt lat="44.6065503" lon="10.043529"><ele>605.0</ele><time>2026-04-11T08:57:29.937Z</time></trkpt><trkpt lat="44.6065028" lon="10.0436709"><ele>605.0</ele><time>2026-04-11T08:57:30.936Z</time></trkpt><trkpt lat="44.6064753" lon="10.0438035"><ele>605.0</ele><time>2026-04-11T08:57:31.937Z</time></trkpt><trkpt lat="44.606459" lon="10.0439225"><ele>605.0</ele><time>2026-04-11T08:57:32.938Z</time></trkpt><trkpt lat="44.6064436" lon="10.0440362"><ele>603.5</ele><time>2026-04-11T08:57:33.937Z</time></trkpt><trkpt lat="44.6064114" lon="10.0441468"><ele>602.0</ele><time>2026-04-11T08:57:34.937Z</time></trkpt><trkpt lat="44.6063658" lon="10.0442539"><ele>600.5</ele><time>2026-04-11T08:57:35.937Z</time></trkpt><trkpt lat="44.6063107" lon="10.0443539"><ele>599.0</ele><time>2026-04-11T08:57:36.937Z</time></trkpt><trkpt lat="44.6062469" lon="10.044432"><ele>597.5</ele><time>2026-04-11T08:57:37.936Z</time></trkpt><trkpt lat="44.6061717" lon="10.0444891"><ele>596.0</ele><time>2026-04-11T08:57:38.937Z</time></trkpt><trkpt lat="44.6060878" lon="10.0445247"><ele>601.0</ele><time>2026-04-11T08:57:39.937Z</time></trkpt><trkpt lat="44.6059996" lon="10.0445363"><ele>606.0</ele><time>2026-04-11T08:57:40.937Z</time></trkpt><trkpt lat="44.6059097" lon="10.0445248"><ele>611.0</ele><time>2026-04-11T08:57:41.936Z</time></trkpt><trkpt lat="44.6058263" lon="10.0445034"><ele>616.0</ele><time>2026-04-11T08:57:42.937Z</time></trkpt><trkpt lat="44.6057422" lon="10.044472"><ele>621.0</ele><time>2026-04-11T08:57:43.936Z</time></trkpt><trkpt lat="44.6056592" lon="10.0444527"><ele>626.0</ele><time>2026-04-11T08:57:44.937Z</time></trkpt><trkpt lat="44.6055716" lon="10.0444571"><ele>626.0</ele><time>2026-04-11T08:57:45.937Z</time></trkpt><trkpt lat="44.6054912" lon="10.0444948"><ele>626.0</ele><time>2026-04-11T08:57:46.937Z</time></trkpt><trkpt lat="44.6054307" lon="10.0445758"><ele>626.0</ele><time>2026-04-11T08:57:47.937Z</time></trkpt><trkpt lat="44.6053869" lon="10.0446814"><ele>626.0</ele><time>2026-04-11T08:57:48.936Z</time></trkpt><trkpt lat="44.6053624" lon="10.0448062"><ele>626.0</ele><time>2026-04-11T08:57:49.936Z</time></trkpt><trkpt lat="44.6053424" lon="10.0449335"><ele>626.0</ele><time>2026-04-11T08:57:50.937Z</time></trkpt><trkpt lat="44.6053232" lon="10.0450623"><ele>627.8333333333333</ele><time>2026-04-11T08:57:51.938Z</time></trkpt><trkpt lat="44.6052906" lon="10.0451608"><ele>629.6666666666666</ele><time>2026-04-11T08:57:52.937Z</time></trkpt><trkpt lat="44.6052298" lon="10.045217"><ele>631.5</ele><time>2026-04-11T08:57:53.937Z</time></trkpt><trkpt lat="44.6051584" lon="10.0452322"><ele>633.3333333333334</ele><time>2026-04-11T08:57:54.937Z</time></trkpt><trkpt lat="44.6050804" lon="10.0452295"><ele>635.1666666666667</ele><time>2026-04-11T08:57:55.937Z</time></trkpt><trkpt lat="44.6049918" lon="10.0452299"><ele>637.0</ele><time>2026-04-11T08:57:56.937Z</time></trkpt><trkpt lat="44.6048997" lon="10.0452429"><ele>637.0</ele><time>2026-04-11T08:57:57.937Z</time></trkpt><trkpt lat="44.6048019" lon="10.0452602"><ele>637.0</ele><time>2026-04-11T08:57:58.938Z</time></trkpt><trkpt lat="44.6047022" lon="10.0452882"><ele>637.0</ele><time>2026-04-11T08:57:59.936Z</time></trkpt><trkpt lat="44.6046051" lon="10.0453212"><ele>637.0</ele><time>2026-04-11T08:58:00.937Z</time></trkpt><trkpt lat="44.6045091" lon="10.0453553"><ele>637.0</ele><time>2026-04-11T08:58:01.937Z</time></trkpt><trkpt lat="44.6044118" lon="10.0453725"><ele>639.8</ele><time>2026-04-11T08:58:02.937Z</time></trkpt><trkpt lat="44.604314" lon="10.0453669"><ele>642.6</ele><time>2026-04-11T08:58:03.936Z</time></trkpt><trkpt lat="44.6042162" lon="10.0453404"><ele>645.4</ele><time>2026-04-11T08:58:04.936Z</time></trkpt><trkpt lat="44.6041177" lon="10.0452998"><ele>648.1999999999999</ele><time>2026-04-11T08:58:05.937Z</time></trkpt><trkpt lat="44.6040203" lon="10.0452546"><ele>651.0</ele><time>2026-04-11T08:58:06.937Z</time></trkpt><trkpt lat="44.6039205" lon="10.0452131"><ele>651.0</ele><time>2026-04-11T08:58:07.936Z</time></trkpt><trkpt lat="44.6038204" lon="10.045172"><ele>651.0</ele><time>2026-04-11T08:58:08.937Z</time></trkpt><trkpt lat="44.6037309" lon="10.0451386"><ele>651.0</ele><time>2026-04-11T08:58:09.937Z</time></trkpt><trkpt lat="44.6036533" lon="10.0451348"><ele>651.0</ele><time>2026-04-11T08:58:10.936Z</time></trkpt><trkpt lat="44.6035617" lon="10.0452075"><ele>651.0</ele><time>2026-04-11T08:58:12.937Z</time></trkpt><trkpt lat="44.6035499" lon="10.0453413"><ele>651.0</ele><time>2026-04-11T08:58:14.937Z</time></trkpt><trkpt lat="44.6035982" lon="10.0455188"><ele>651.0</ele><time>2026-04-11T08:58:16.937Z</time></trkpt><trkpt lat="44.6036536" lon="10.0456157"><ele>651.0</ele><time>2026-04-11T08:58:17.936Z</time></trkpt><trkpt lat="44.6036903" lon="10.0457321"><ele>651.0</ele><time>2026-04-11T08:58:18.937Z</time></trkpt><trkpt lat="44.6037135" lon="10.0458656"><ele>651.0</ele><time>2026-04-11T08:58:19.937Z</time></trkpt><trkpt lat="44.6037073" lon="10.0460109"><ele>648.1999999999999</ele><time>2026-04-11T08:58:20.936Z</time></trkpt><trkpt lat="44.6036906" lon="10.04615"><ele>645.4</ele><time>2026-04-11T08:58:21.936Z</time></trkpt><trkpt lat="44.6036705" lon="10.0462819"><ele>642.6</ele><time>2026-04-11T08:58:22.936Z</time></trkpt><trkpt lat="44.6036566" lon="10.0464219"><ele>639.8</ele><time>2026-04-11T08:58:23.936Z</time></trkpt><trkpt lat="44.6036451" lon="10.0465641"><ele>637.0</ele><time>2026-04-11T08:58:24.937Z</time></trkpt><trkpt lat="44.6036486" lon="10.0467152"><ele>637.4</ele><time>2026-04-11T08:58:25.937Z</time></trkpt><trkpt lat="44.6036544" lon="10.0468672"><ele>637.8000000000001</ele><time>2026-04-11T08:58:26.937Z</time></trkpt><trkpt lat="44.6036612" lon="10.0470156"><ele>638.2</ele><time>2026-04-11T08:58:27.937Z</time></trkpt><trkpt lat="44.6036689" lon="10.0471594"><ele>638.6</ele><time>2026-04-11T08:58:28.936Z</time></trkpt><trkpt lat="44.6036698" lon="10.0472852"><ele>639.0</ele><time>2026-04-11T08:58:29.936Z</time></trkpt><trkpt lat="44.6036553" lon="10.0473876"><ele>645.2</ele><time>2026-04-11T08:58:30.936Z</time></trkpt><trkpt lat="44.6035849" lon="10.0474934"><ele>651.4</ele><time>2026-04-11T08:58:32.937Z</time></trkpt><trkpt lat="44.6035043" lon="10.0474581"><ele>657.6</ele><time>2026-04-11T08:58:34.937Z</time></trkpt><trkpt lat="44.6034583" lon="10.0473443"><ele>663.8</ele><time>2026-04-11T08:58:36.937Z</time></trkpt><trkpt lat="44.6034581" lon="10.0472253"><ele>670.0</ele><time>2026-04-11T08:58:37.936Z</time></trkpt><trkpt lat="44.6034515" lon="10.0471059"><ele>670.0</ele><time>2026-04-11T08:58:38.937Z</time></trkpt><trkpt lat="44.6034368" lon="10.0469991"><ele>670.0</ele><time>2026-04-11T08:58:39.937Z</time></trkpt><trkpt lat="44.6034184" lon="10.046898"><ele>670.0</ele><time>2026-04-11T08:58:40.936Z</time></trkpt><trkpt lat="44.6033335" lon="10.0467844"><ele>670.0</ele><time>2026-04-11T08:58:42.937Z</time></trkpt><trkpt lat="44.603265" lon="10.046784"><ele>670.0</ele><time>2026-04-11T08:58:43.937Z</time></trkpt><trkpt lat="44.6032004" lon="10.0468115"><ele>670.0</ele><time>2026-04-11T08:58:44.937Z</time></trkpt><trkpt lat="44.6031254" lon="10.0469545"><ele>670.0</ele><time>2026-04-11T08:58:46.937Z</time></trkpt><trkpt lat="44.6030854" lon="10.047078"><ele>670.0</ele><time>2026-04-11T08:58:47.937Z</time></trkpt><trkpt lat="44.6030876" lon="10.0472059"><ele>670.0</ele><time>2026-04-11T08:58:48.937Z</time></trkpt><trkpt lat="44.603185" lon="10.0473512"><ele>670.0</ele><time>2026-04-11T08:58:49.937Z</time></trkpt><trkpt lat="44.6032483" lon="10.0475084"><ele>673.25</ele><time>2026-04-11T08:58:50.936Z</time></trkpt><trkpt lat="44.6033015" lon="10.0476778"><ele>676.5</ele><time>2026-04-11T08:58:51.937Z</time></trkpt><trkpt lat="44.603357" lon="10.0478673"><ele>679.75</ele><time>2026-04-11T08:58:52.937Z</time></trkpt><trkpt lat="44.6034215" lon="10.048054"><ele>683.0</ele><time>2026-04-11T08:58:53.936Z</time></trkpt><trkpt lat="44.6034886" lon="10.0482265"><ele>678.75</ele><time>2026-04-11T08:58:54.937Z</time></trkpt><trkpt lat="44.6035535" lon="10.0484"><ele>674.5</ele><time>2026-04-11T08:58:55.937Z</time></trkpt><trkpt lat="44.6036268" lon="10.0485627"><ele>670.25</ele><time>2026-04-11T08:58:56.937Z</time></trkpt><trkpt lat="44.6037016" lon="10.0486972"><ele>666.0</ele><time>2026-04-11T08:58:57.936Z</time></trkpt><trkpt lat="44.6037629" lon="10.0488371"><ele>666.0</ele><time>2026-04-11T08:58:58.937Z</time></trkpt><trkpt lat="44.6038044" lon="10.0489657"><ele>666.0</ele><time>2026-04-11T08:58:59.937Z</time></trkpt><trkpt lat="44.6038168" lon="10.0490937"><ele>666.0</ele><time>2026-04-11T08:59:00.937Z</time></trkpt><trkpt lat="44.603814" lon="10.0492276"><ele>666.0</ele><time>2026-04-11T08:59:01.937Z</time></trkpt><trkpt lat="44.6038155" lon="10.0493528"><ele>666.0</ele><time>2026-04-11T08:59:02.937Z</time></trkpt><trkpt lat="44.6038415" lon="10.049469"><ele>670.0</ele><time>2026-04-11T08:59:03.936Z</time></trkpt><trkpt lat="44.6038873" lon="10.0495671"><ele>674.0</ele><time>2026-04-11T08:59:04.937Z</time></trkpt><trkpt lat="44.6039579" lon="10.049664"><ele>678.0</ele><time>2026-04-11T08:59:05.937Z</time></trkpt><trkpt lat="44.6040316" lon="10.0497472"><ele>682.0</ele><time>2026-04-11T08:59:06.936Z</time></trkpt><trkpt lat="44.6041202" lon="10.0498467"><ele>686.0</ele><time>2026-04-11T08:59:07.937Z</time></trkpt><trkpt lat="44.6042055" lon="10.0499424"><ele>685.5</ele><time>2026-04-11T08:59:08.937Z</time></trkpt><trkpt lat="44.6042983" lon="10.0500445"><ele>685.0</ele><time>2026-04-11T08:59:09.937Z</time></trkpt><trkpt lat="44.6043987" lon="10.0501578"><ele>684.5</ele><time>2026-04-11T08:59:10.936Z</time></trkpt><trkpt lat="44.604501" lon="10.0502677"><ele>684.0</ele><time>2026-04-11T08:59:11.937Z</time></trkpt><trkpt lat="44.6046017" lon="10.050377"><ele>684.0</ele><time>2026-04-11T08:59:12.937Z</time></trkpt><trkpt lat="44.6046858" lon="10.0504822"><ele>684.0</ele><time>2026-04-11T08:59:13.936Z</time></trkpt><trkpt lat="44.6047556" lon="10.0505769"><ele>684.0</ele><time>2026-04-11T08:59:14.938Z</time></trkpt><trkpt lat="44.6048075" lon="10.0506419"><ele>684.0</ele><time>2026-04-11T08:59:15.937Z</time></trkpt><trkpt lat="44.604851" lon="10.0507139"><ele>684.0</ele><time>2026-04-11T08:59:30.937Z</time></trkpt><trkpt lat="44.60489" lon="10.0508501"><ele>684.6666666666666</ele><time>2026-04-11T08:59:32.936Z</time></trkpt><trkpt lat="44.6048728" lon="10.0510168"><ele>685.3333333333334</ele><time>2026-04-11T08:59:34.936Z</time></trkpt><trkpt lat="44.6048447" lon="10.051107"><ele>686.0</ele><time>2026-04-11T08:59:35.937Z</time></trkpt><trkpt lat="44.6048012" lon="10.0511955"><ele>686.6666666666667</ele><time>2026-04-11T08:59:36.937Z</time></trkpt><trkpt lat="44.6047423" lon="10.0512755"><ele>687.3333333333334</ele><time>2026-04-11T08:59:37.937Z</time></trkpt><trkpt lat="44.6046702" lon="10.0513544"><ele>688.0</ele><time>2026-04-11T08:59:38.936Z</time></trkpt><trkpt lat="44.6046016" lon="10.0514451"><ele>688.0</ele><time>2026-04-11T08:59:39.937Z</time></trkpt><trkpt lat="44.6045373" lon="10.0515566"><ele>688.0</ele><time>2026-04-11T08:59:40.936Z</time></trkpt><trkpt lat="44.6044742" lon="10.0516823"><ele>688.0</ele><time>2026-04-11T08:59:41.937Z</time></trkpt><trkpt lat="44.6044117" lon="10.0518122"><ele>688.0</ele><time>2026-04-11T08:59:42.937Z</time></trkpt><trkpt lat="44.6043523" lon="10.0519609"><ele>688.0</ele><time>2026-04-11T08:59:43.937Z</time></trkpt><trkpt lat="44.604297" lon="10.0521203"><ele>696.75</ele><time>2026-04-11T08:59:44.937Z</time></trkpt><trkpt lat="44.604251" lon="10.052282"><ele>705.5</ele><time>2026-04-11T08:59:45.936Z</time></trkpt><trkpt lat="44.6042064" lon="10.0524374"><ele>714.25</ele><time>2026-04-11T08:59:46.937Z</time></trkpt><trkpt lat="44.6041648" lon="10.0525906"><ele>723.0</ele><time>2026-04-11T08:59:47.937Z</time></trkpt><trkpt lat="44.6041408" lon="10.0527448"><ele>723.0</ele><time>2026-04-11T08:59:48.936Z</time></trkpt><trkpt lat="44.6041343" lon="10.052903"><ele>723.0</ele><time>2026-04-11T08:59:49.937Z</time></trkpt><trkpt lat="44.6041233" lon="10.0530688"><ele>723.0</ele><time>2026-04-11T08:59:50.938Z</time></trkpt><trkpt lat="44.6040965" lon="10.0532223"><ele>723.0</ele><time>2026-04-11T08:59:51.936Z</time></trkpt><trkpt lat="44.6040496" lon="10.0533826"><ele>719.2</ele><time>2026-04-11T08:59:52.937Z</time></trkpt><trkpt lat="44.6039968" lon="10.0535078"><ele>715.4</ele><time>2026-04-11T08:59:53.937Z</time></trkpt><trkpt lat="44.6039384" lon="10.0536121"><ele>711.6</ele><time>2026-04-11T08:59:54.937Z</time></trkpt><trkpt lat="44.6038731" lon="10.0536869"><ele>707.8000000000001</ele><time>2026-04-11T08:59:55.937Z</time></trkpt><trkpt lat="44.6037814" lon="10.0537426"><ele>704.0</ele><time>2026-04-11T08:59:56.937Z</time></trkpt><trkpt lat="44.6036895" lon="10.0538089"><ele>705.4000000000001</ele><time>2026-04-11T08:59:57.938Z</time></trkpt><trkpt lat="44.6036043" lon="10.0539075"><ele>706.8</ele><time>2026-04-11T08:59:58.937Z</time></trkpt><trkpt lat="44.6035286" lon="10.054014"><ele>708.2</ele><time>2026-04-11T08:59:59.937Z</time></trkpt><trkpt lat="44.6034613" lon="10.0541156"><ele>709.5999999999999</ele><time>2026-04-11T09:00:00.937Z</time></trkpt><trkpt lat="44.6033887" lon="10.0542086"><ele>711.0</ele><time>2026-04-11T09:00:01.936Z</time></trkpt><trkpt lat="44.6033035" lon="10.0542742"><ele>711.0</ele><time>2026-04-11T09:00:02.937Z</time></trkpt><trkpt lat="44.603206" lon="10.0543295"><ele>711.0</ele><time>2026-04-11T09:00:03.936Z</time></trkpt><trkpt lat="44.6030895" lon="10.054365"><ele>711.0</ele><time>2026-04-11T09:00:04.937Z</time></trkpt><trkpt lat="44.6029777" lon="10.0544114"><ele>711.0</ele><time>2026-04-11T09:00:05.937Z</time></trkpt><trkpt lat="44.602869" lon="10.0544582"><ele>714.1999999999999</ele><time>2026-04-11T09:00:06.937Z</time></trkpt><trkpt lat="44.6027656" lon="10.0545101"><ele>717.4</ele><time>2026-04-11T09:00:07.937Z</time></trkpt><trkpt lat="44.6026631" lon="10.0545518"><ele>720.6</ele><time>2026-04-11T09:00:08.937Z</time></trkpt><trkpt lat="44.6025589" lon="10.0545862"><ele>723.8</ele><time>2026-04-11T09:00:09.937Z</time></trkpt><trkpt lat="44.6024545" lon="10.0546192"><ele>727.0</ele><time>2026-04-11T09:00:10.937Z</time></trkpt><trkpt lat="44.6023428" lon="10.0546473"><ele>727.0</ele><time>2026-04-11T09:00:11.936Z</time></trkpt><trkpt lat="44.6022298" lon="10.0546792"><ele>727.0</ele><time>2026-04-11T09:00:12.936Z</time></trkpt><trkpt lat="44.6021205" lon="10.0547072"><ele>727.0</ele><time>2026-04-11T09:00:13.936Z</time></trkpt><trkpt lat="44.602024" lon="10.0547253"><ele>727.0</ele><time>2026-04-11T09:00:14.937Z</time></trkpt><trkpt lat="44.6019296" lon="10.0547424"><ele>727.0</ele><time>2026-04-11T09:00:15.937Z</time></trkpt><trkpt lat="44.6018435" lon="10.0547554"><ele>728.6666666666667</ele><time>2026-04-11T09:00:16.937Z</time></trkpt><trkpt lat="44.6017647" lon="10.0547566"><ele>730.3333333333334</ele><time>2026-04-11T09:00:17.937Z</time></trkpt><trkpt lat="44.6016829" lon="10.0547668"><ele>732.0</ele><time>2026-04-11T09:00:18.937Z</time></trkpt><trkpt lat="44.6016029" lon="10.0547485"><ele>733.6666666666666</ele><time>2026-04-11T09:00:19.936Z</time></trkpt><trkpt lat="44.6015229" lon="10.0547417"><ele>735.3333333333333</ele><time>2026-04-11T09:00:20.937Z</time></trkpt><trkpt lat="44.6014423" lon="10.0547518"><ele>737.0</ele><time>2026-04-11T09:00:21.937Z</time></trkpt><trkpt lat="44.6013616" lon="10.0547782"><ele>737.0</ele><time>2026-04-11T09:00:22.937Z</time></trkpt><trkpt lat="44.6012879" lon="10.0548177"><ele>737.0</ele><time>2026-04-11T09:00:23.936Z</time></trkpt><trkpt lat="44.6012169" lon="10.0548657"><ele>737.0</ele><time>2026-04-11T09:00:24.937Z</time></trkpt><trkpt lat="44.6011402" lon="10.0549296"><ele>737.0</ele><time>2026-04-11T09:00:25.937Z</time></trkpt><trkpt lat="44.6010608" lon="10.0549898"><ele>737.0</ele><time>2026-04-11T09:00:26.937Z</time></trkpt><trkpt lat="44.6009862" lon="10.0550497"><ele>737.0</ele><time>2026-04-11T09:00:27.936Z</time></trkpt><trkpt lat="44.6009097" lon="10.0551083"><ele>732.1666666666666</ele><time>2026-04-11T09:00:28.937Z</time></trkpt><trkpt lat="44.6008329" lon="10.0551387"><ele>727.3333333333333</ele><time>2026-04-11T09:00:29.937Z</time></trkpt><trkpt lat="44.6007489" lon="10.0551513"><ele>722.5</ele><time>2026-04-11T09:00:30.937Z</time></trkpt><trkpt lat="44.6006681" lon="10.0551772"><ele>717.6666666666666</ele><time>2026-04-11T09:00:31.937Z</time></trkpt><trkpt lat="44.6005994" lon="10.0552275"><ele>712.8333333333334</ele><time>2026-04-11T09:00:32.937Z</time></trkpt><trkpt lat="44.6005495" lon="10.0553111"><ele>708.0</ele><time>2026-04-11T09:00:33.937Z</time></trkpt><trkpt lat="44.6005282" lon="10.055461"><ele>708.0</ele><time>2026-04-11T09:00:35.937Z</time></trkpt><trkpt lat="44.6005883" lon="10.0556188"><ele>708.0</ele><time>2026-04-11T09:00:37.937Z</time></trkpt><trkpt lat="44.6006392" lon="10.0556879"><ele>708.0</ele><time>2026-04-11T09:00:38.937Z</time></trkpt><trkpt lat="44.6007052" lon="10.0557665"><ele>708.0</ele><time>2026-04-11T09:00:39.937Z</time></trkpt><trkpt lat="44.6007704" lon="10.0558503"><ele>708.0</ele><time>2026-04-11T09:00:40.936Z</time></trkpt><trkpt lat="44.6008422" lon="10.0559482"><ele>705.2</ele><time>2026-04-11T09:00:41.936Z</time></trkpt><trkpt lat="44.6008959" lon="10.0560682"><ele>702.4</ele><time>2026-04-11T09:00:42.937Z</time></trkpt><trkpt lat="44.6009565" lon="10.0561699"><ele>699.6</ele><time>2026-04-11T09:00:43.936Z</time></trkpt><trkpt lat="44.601022" lon="10.0562821"><ele>696.8000000000001</ele><time>2026-04-11T09:00:44.936Z</time></trkpt><trkpt lat="44.6010968" lon="10.0563736"><ele>694.0</ele><time>2026-04-11T09:00:45.936Z</time></trkpt><trkpt lat="44.6011769" lon="10.0564429"><ele>691.6</ele><time>2026-04-11T09:00:46.937Z</time></trkpt><trkpt lat="44.6012662" lon="10.056494"><ele>689.2</ele><time>2026-04-11T09:00:47.938Z</time></trkpt><trkpt lat="44.6013551" lon="10.0565362"><ele>686.8000000000001</ele><time>2026-04-11T09:00:48.937Z</time></trkpt><trkpt lat="44.6014396" lon="10.0565981"><ele>684.4000000000001</ele><time>2026-04-11T09:00:49.937Z</time></trkpt><trkpt lat="44.6015089" lon="10.0566719"><ele>682.0</ele><time>2026-04-11T09:00:50.937Z</time></trkpt><trkpt lat="44.6015603" lon="10.0567763"><ele>682.0</ele><time>2026-04-11T09:00:51.937Z</time></trkpt><trkpt lat="44.6015924" lon="10.0569132"><ele>682.0</ele><time>2026-04-11T09:00:52.936Z</time></trkpt><trkpt lat="44.6016237" lon="10.0570633"><ele>682.0</ele><time>2026-04-11T09:00:53.936Z</time></trkpt><trkpt lat="44.6016538" lon="10.0572206"><ele>682.0</ele><time>2026-04-11T09:00:54.937Z</time></trkpt><trkpt lat="44.6016793" lon="10.0573802"><ele>682.0</ele><time>2026-04-11T09:00:55.937Z</time></trkpt><trkpt lat="44.6016962" lon="10.0575404"><ele>686.75</ele><time>2026-04-11T09:00:56.938Z</time></trkpt><trkpt lat="44.6017102" lon="10.0577016"><ele>691.5</ele><time>2026-04-11T09:00:57.937Z</time></trkpt><trkpt lat="44.6017271" lon="10.0578635"><ele>696.25</ele><time>2026-04-11T09:00:58.937Z</time></trkpt><trkpt lat="44.6017409" lon="10.0580242"><ele>701.0</ele><time>2026-04-11T09:00:59.937Z</time></trkpt><trkpt lat="44.6017519" lon="10.0581854"><ele>703.4</ele><time>2026-04-11T09:01:00.937Z</time></trkpt><trkpt lat="44.6017599" lon="10.0583358"><ele>705.8</ele><time>2026-04-11T09:01:01.937Z</time></trkpt><trkpt lat="44.6017465" lon="10.0584913"><ele>708.1999999999999</ele><time>2026-04-11T09:01:02.936Z</time></trkpt><trkpt lat="44.6017262" lon="10.0586208"><ele>710.5999999999999</ele><time>2026-04-11T09:01:03.938Z</time></trkpt><trkpt lat="44.6016928" lon="10.0587329"><ele>713.0</ele><time>2026-04-11T09:01:04.937Z</time></trkpt><trkpt lat="44.6016492" lon="10.0588565"><ele>713.0</ele><time>2026-04-11T09:01:05.937Z</time></trkpt><trkpt lat="44.6015888" lon="10.0589653"><ele>713.0</ele><time>2026-04-11T09:01:06.937Z</time></trkpt><trkpt lat="44.6015383" lon="10.0591037"><ele>713.0</ele><time>2026-04-11T09:01:07.937Z</time></trkpt><trkpt lat="44.6014898" lon="10.0592439"><ele>713.0</ele><time>2026-04-11T09:01:08.937Z</time></trkpt><trkpt lat="44.6014659" lon="10.0594001"><ele>713.0</ele><time>2026-04-11T09:01:09.937Z</time></trkpt><trkpt lat="44.601434" lon="10.0595601"><ele>713.2</ele><time>2026-04-11T09:01:10.936Z</time></trkpt><trkpt lat="44.6014055" lon="10.0597229"><ele>713.4</ele><time>2026-04-11T09:01:11.936Z</time></trkpt><trkpt lat="44.6013813" lon="10.0598832"><ele>713.6</ele><time>2026-04-11T09:01:12.937Z</time></trkpt><trkpt lat="44.6014169" lon="10.059984"><ele>713.8000000000001</ele><time>2026-04-11T09:01:13.937Z</time></trkpt><trkpt lat="44.6014325" lon="10.060092"><ele>714.0</ele><time>2026-04-11T09:01:15.936Z</time></trkpt><trkpt lat="44.6014647" lon="10.0601784"><ele>714.0</ele><time>2026-04-11T09:02:07.936Z</time></trkpt><trkpt lat="44.6014698" lon="10.0603265"><ele>714.0</ele><time>2026-04-11T09:02:09.935Z</time></trkpt><trkpt lat="44.6014505" lon="10.0604273"><ele>714.0</ele><time>2026-04-11T09:02:10.936Z</time></trkpt><trkpt lat="44.6014155" lon="10.0605399"><ele>714.0</ele><time>2026-04-11T09:02:11.936Z</time></trkpt><trkpt lat="44.6013748" lon="10.0606498"><ele>714.0</ele><time>2026-04-11T09:02:12.936Z</time></trkpt><trkpt lat="44.6013157" lon="10.0607572"><ele>712.2</ele><time>2026-04-11T09:02:13.936Z</time></trkpt><trkpt lat="44.6012488" lon="10.0608742"><ele>710.4000000000001</ele><time>2026-04-11T09:02:14.936Z</time></trkpt><trkpt lat="44.6011728" lon="10.0609885"><ele>708.6</ele><time>2026-04-11T09:02:15.936Z</time></trkpt><trkpt lat="44.601097" lon="10.0610999"><ele>706.8</ele><time>2026-04-11T09:02:16.935Z</time></trkpt><trkpt lat="44.6010196" lon="10.0612092"><ele>705.0</ele><time>2026-04-11T09:02:17.936Z</time></trkpt><trkpt lat="44.6009411" lon="10.0613131"><ele>710.4</ele><time>2026-04-11T09:02:18.936Z</time></trkpt><trkpt lat="44.6008592" lon="10.0614111"><ele>715.8</ele><time>2026-04-11T09:02:19.937Z</time></trkpt><trkpt lat="44.6007848" lon="10.0615139"><ele>721.2</ele><time>2026-04-11T09:02:20.936Z</time></trkpt><trkpt lat="44.6007227" lon="10.0616301"><ele>726.6</ele><time>2026-04-11T09:02:21.935Z</time></trkpt><trkpt lat="44.6006535" lon="10.0617328"><ele>732.0</ele><time>2026-04-11T09:02:22.936Z</time></trkpt><trkpt lat="44.6005764" lon="10.061831"><ele>732.0</ele><time>2026-04-11T09:02:23.936Z</time></trkpt><trkpt lat="44.600493" lon="10.0619217"><ele>732.0</ele><time>2026-04-11T09:02:24.937Z</time></trkpt><trkpt lat="44.6004049" lon="10.0620224"><ele>732.0</ele><time>2026-04-11T09:02:25.935Z</time></trkpt><trkpt lat="44.6003181" lon="10.0621146"><ele>732.0</ele><time>2026-04-11T09:02:26.936Z</time></trkpt><trkpt lat="44.600228" lon="10.0622054"><ele>732.0</ele><time>2026-04-11T09:02:27.935Z</time></trkpt><trkpt lat="44.6001591" lon="10.0623008"><ele>738.0</ele><time>2026-04-11T09:02:28.936Z</time></trkpt><trkpt lat="44.6000908" lon="10.0623945"><ele>744.0</ele><time>2026-04-11T09:02:29.936Z</time></trkpt><trkpt lat="44.6000998" lon="10.0625175"><ele>750.0</ele><time>2026-04-11T09:02:30.935Z</time></trkpt><trkpt lat="44.6000945" lon="10.0626163"><ele>756.0</ele><time>2026-04-11T09:02:31.936Z</time></trkpt><trkpt lat="44.6000948" lon="10.0627234"><ele>762.0</ele><time>2026-04-11T09:02:32.936Z</time></trkpt><trkpt lat="44.6002137" lon="10.0628432"><ele>762.0</ele><time>2026-04-11T09:02:33.936Z</time></trkpt><trkpt lat="44.6002799" lon="10.0629765"><ele>762.0</ele><time>2026-04-11T09:02:34.936Z</time></trkpt><trkpt lat="44.600332" lon="10.0630961"><ele>762.0</ele><time>2026-04-11T09:02:35.936Z</time></trkpt><trkpt lat="44.6003741" lon="10.0632005"><ele>762.0</ele><time>2026-04-11T09:02:36.936Z</time></trkpt><trkpt lat="44.6003794" lon="10.063312"><ele>762.0</ele><time>2026-04-11T09:02:37.936Z</time></trkpt><trkpt lat="44.6003502" lon="10.0634368"><ele>761.6</ele><time>2026-04-11T09:02:38.936Z</time></trkpt><trkpt lat="44.6003195" lon="10.0635426"><ele>761.2</ele><time>2026-04-11T09:02:39.936Z</time></trkpt><trkpt lat="44.6002631" lon="10.0636466"><ele>760.8</ele><time>2026-04-11T09:02:40.935Z</time></trkpt><trkpt lat="44.6001941" lon="10.0637308"><ele>760.4</ele><time>2026-04-11T09:02:41.936Z</time></trkpt><trkpt lat="44.6001222" lon="10.0638085"><ele>760.0</ele><time>2026-04-11T09:02:42.935Z</time></trkpt><trkpt lat="44.600033" lon="10.0638949"><ele>760.0</ele><time>2026-04-11T09:02:43.936Z</time></trkpt><trkpt lat="44.5999528" lon="10.0639967"><ele>760.0</ele><time>2026-04-11T09:02:44.936Z</time></trkpt><trkpt lat="44.5998659" lon="10.0641013"><ele>760.0</ele><time>2026-04-11T09:02:45.935Z</time></trkpt><trkpt lat="44.5997917" lon="10.0642152"><ele>760.0</ele><time>2026-04-11T09:02:46.936Z</time></trkpt><trkpt lat="44.5997352" lon="10.0643392"><ele>760.0</ele><time>2026-04-11T09:02:47.936Z</time></trkpt><trkpt lat="44.5996945" lon="10.0644703"><ele>759.6</ele><time>2026-04-11T09:02:48.936Z</time></trkpt><trkpt lat="44.5996636" lon="10.0646031"><ele>759.2</ele><time>2026-04-11T09:02:49.935Z</time></trkpt><trkpt lat="44.5996264" lon="10.0647377"><ele>758.8</ele><time>2026-04-11T09:02:50.935Z</time></trkpt><trkpt lat="44.5995823" lon="10.0648701"><ele>758.4</ele><time>2026-04-11T09:02:51.936Z</time></trkpt><trkpt lat="44.5995268" lon="10.0649889"><ele>758.0</ele><time>2026-04-11T09:02:52.936Z</time></trkpt><trkpt lat="44.5994822" lon="10.0651233"><ele>766.5999999999999</ele><time>2026-04-11T09:02:53.937Z</time></trkpt><trkpt lat="44.5994466" lon="10.0652562"><ele>775.1999999999999</ele><time>2026-04-11T09:02:54.935Z</time></trkpt><trkpt lat="44.5994094" lon="10.0653924"><ele>783.8</ele><time>2026-04-11T09:02:55.936Z</time></trkpt><trkpt lat="44.5993915" lon="10.0655284"><ele>792.4</ele><time>2026-04-11T09:02:56.936Z</time></trkpt><trkpt lat="44.5993805" lon="10.065672"><ele>801.0</ele><time>2026-04-11T09:02:57.935Z</time></trkpt><trkpt lat="44.5993988" lon="10.0658132"><ele>801.0</ele><time>2026-04-11T09:02:58.935Z</time></trkpt><trkpt lat="44.5994197" lon="10.0659489"><ele>801.0</ele><time>2026-04-11T09:02:59.937Z</time></trkpt><trkpt lat="44.5994673" lon="10.0660734"><ele>801.0</ele><time>2026-04-11T09:03:00.936Z</time></trkpt><trkpt lat="44.5995094" lon="10.0661943"><ele>801.0</ele><time>2026-04-11T09:03:01.936Z</time></trkpt><trkpt lat="44.5995508" lon="10.0663055"><ele>801.0</ele><time>2026-04-11T09:03:02.935Z</time></trkpt><trkpt lat="44.5995627" lon="10.066414"><ele>800.5999999999999</ele><time>2026-04-11T09:03:03.936Z</time></trkpt><trkpt lat="44.5995506" lon="10.0665222"><ele>800.2</ele><time>2026-04-11T09:03:04.936Z</time></trkpt><trkpt lat="44.5995292" lon="10.0666284"><ele>799.8</ele><time>2026-04-11T09:03:05.935Z</time></trkpt><trkpt lat="44.5994935" lon="10.0667451"><ele>799.4000000000001</ele><time>2026-04-11T09:03:06.936Z</time></trkpt><trkpt lat="44.5994506" lon="10.0668724"><ele>799.0</ele><time>2026-04-11T09:03:07.935Z</time></trkpt><trkpt lat="44.5994097" lon="10.0670143"><ele>799.0</ele><time>2026-04-11T09:03:08.936Z</time></trkpt><trkpt lat="44.59936" lon="10.0671505"><ele>799.0</ele><time>2026-04-11T09:03:09.936Z</time></trkpt><trkpt lat="44.5993192" lon="10.0672833"><ele>799.0</ele><time>2026-04-11T09:03:10.935Z</time></trkpt><trkpt lat="44.5992941" lon="10.0674141"><ele>799.0</ele><time>2026-04-11T09:03:11.936Z</time></trkpt><trkpt lat="44.599283" lon="10.0675464"><ele>799.0</ele><time>2026-04-11T09:03:12.936Z</time></trkpt><trkpt lat="44.5992899" lon="10.0676847"><ele>798.8000000000001</ele><time>2026-04-11T09:03:13.937Z</time></trkpt><trkpt lat="44.5993112" lon="10.0678336"><ele>798.6</ele><time>2026-04-11T09:03:14.936Z</time></trkpt><trkpt lat="44.599332" lon="10.0679836"><ele>798.4</ele><time>2026-04-11T09:03:15.936Z</time></trkpt><trkpt lat="44.5993512" lon="10.0681296"><ele>798.2</ele><time>2026-04-11T09:03:16.936Z</time></trkpt><trkpt lat="44.5993723" lon="10.0682558"><ele>798.0</ele><time>2026-04-11T09:03:17.936Z</time></trkpt><trkpt lat="44.5994052" lon="10.0683639"><ele>798.0</ele><time>2026-04-11T09:03:18.935Z</time></trkpt><trkpt lat="44.599441" lon="10.0684432"><ele>798.0</ele><time>2026-04-11T09:03:19.936Z</time></trkpt><trkpt lat="44.5994901" lon="10.0685015"><ele>798.0</ele><time>2026-04-11T09:03:20.936Z</time></trkpt><trkpt lat="44.5996083" lon="10.0685475"><ele>798.0</ele><time>2026-04-11T09:03:22.936Z</time></trkpt><trkpt lat="44.5996812" lon="10.0685612"><ele>798.0</ele><time>2026-04-11T09:03:23.936Z</time></trkpt><trkpt lat="44.5997575" lon="10.0685725"><ele>798.0</ele><time>2026-04-11T09:03:24.936Z</time></trkpt><trkpt lat="44.599841" lon="10.0685876"><ele>797.5714285714286</ele><time>2026-04-11T09:03:25.936Z</time></trkpt><trkpt lat="44.599924" lon="10.0686202"><ele>797.1428571428571</ele><time>2026-04-11T09:03:26.935Z</time></trkpt><trkpt lat="44.5999859" lon="10.0686681"><ele>796.7142857142858</ele><time>2026-04-11T09:03:27.936Z</time></trkpt><trkpt lat="44.6000276" lon="10.0687407"><ele>796.2857142857142</ele><time>2026-04-11T09:03:28.936Z</time></trkpt><trkpt lat="44.6000574" lon="10.0688327"><ele>795.8571428571429</ele><time>2026-04-11T09:03:29.936Z</time></trkpt><trkpt lat="44.6000747" lon="10.0689363"><ele>795.4285714285714</ele><time>2026-04-11T09:03:30.935Z</time></trkpt><trkpt lat="44.6000877" lon="10.0690413"><ele>795.0</ele><time>2026-04-11T09:03:31.936Z</time></trkpt><trkpt lat="44.6000913" lon="10.0691515"><ele>795.0</ele><time>2026-04-11T09:03:32.935Z</time></trkpt><trkpt lat="44.6000779" lon="10.0692694"><ele>795.0</ele><time>2026-04-11T09:03:33.936Z</time></trkpt><trkpt lat="44.60006" lon="10.0693888"><ele>795.0</ele><time>2026-04-11T09:03:34.936Z</time></trkpt><trkpt lat="44.6000419" lon="10.0695185"><ele>795.0</ele><time>2026-04-11T09:03:35.936Z</time></trkpt><trkpt lat="44.6000152" lon="10.0696575"><ele>795.0</ele><time>2026-04-11T09:03:36.937Z</time></trkpt><trkpt lat="44.5999858" lon="10.0698038"><ele>795.0</ele><time>2026-04-11T09:03:37.935Z</time></trkpt><trkpt lat="44.5999612" lon="10.0699346"><ele>795.0</ele><time>2026-04-11T09:03:38.936Z</time></trkpt><trkpt lat="44.5999455" lon="10.0700526"><ele>795.0</ele><time>2026-04-11T09:03:39.936Z</time></trkpt><trkpt lat="44.5999425" lon="10.0701745"><ele>795.0</ele><time>2026-04-11T09:03:40.936Z</time></trkpt><trkpt lat="44.5999614" lon="10.0702881"><ele>795.0</ele><time>2026-04-11T09:03:41.935Z</time></trkpt><trkpt lat="44.6000025" lon="10.0703857"><ele>795.0</ele><time>2026-04-11T09:03:42.936Z</time></trkpt><trkpt lat="44.6000519" lon="10.0704826"><ele>794.8333333333334</ele><time>2026-04-11T09:03:43.936Z</time></trkpt><trkpt lat="44.6001375" lon="10.0705397"><ele>794.6666666666667</ele><time>2026-04-11T09:03:44.935Z</time></trkpt><trkpt lat="44.6002028" lon="10.0705942"><ele>794.5</ele><time>2026-04-11T09:03:45.936Z</time></trkpt><trkpt lat="44.6002647" lon="10.0706368"><ele>794.3333333333334</ele><time>2026-04-11T09:03:46.936Z</time></trkpt><trkpt lat="44.600331" lon="10.0706855"><ele>794.1666666666667</ele><time>2026-04-11T09:03:47.936Z</time></trkpt><trkpt lat="44.6004195" lon="10.0707834"><ele>794.0</ele><time>2026-04-11T09:03:49.936Z</time></trkpt><trkpt lat="44.6004653" lon="10.0708786"><ele>794.0000000000001</ele><time>2026-04-11T09:03:51.936Z</time></trkpt><trkpt lat="44.6004774" lon="10.0709789"><ele>794.0</ele><time>2026-04-11T09:03:54.937Z</time></trkpt><trkpt lat="44.600476" lon="10.071069"><ele>794.0</ele><time>2026-04-11T09:03:56.935Z</time></trkpt><trkpt lat="44.6005042" lon="10.0712473"><ele>794.0</ele><time>2026-04-11T09:03:58.936Z</time></trkpt><trkpt lat="44.6005218" lon="10.0713555"><ele>794.0000000000001</ele><time>2026-04-11T09:03:59.936Z</time></trkpt><trkpt lat="44.6005451" lon="10.07147"><ele>794.0</ele><time>2026-04-11T09:04:00.935Z</time></trkpt><trkpt lat="44.6005749" lon="10.0715855"><ele>794.8333333333334</ele><time>2026-04-11T09:04:01.936Z</time></trkpt><trkpt lat="44.6006072" lon="10.0716932"><ele>795.6666666666667</ele><time>2026-04-11T09:04:02.936Z</time></trkpt><trkpt lat="44.6006492" lon="10.0717898"><ele>796.5</ele><time>2026-04-11T09:04:03.936Z</time></trkpt><trkpt lat="44.6007008" lon="10.0718721"><ele>797.3333333333333</ele><time>2026-04-11T09:04:04.935Z</time></trkpt><trkpt lat="44.6007568" lon="10.0719382"><ele>798.1666666666666</ele><time>2026-04-11T09:04:05.936Z</time></trkpt><trkpt lat="44.6008189" lon="10.072049"><ele>799.0</ele><time>2026-04-11T09:04:07.936Z</time></trkpt><trkpt lat="44.600807" lon="10.0721421"><ele>798.9999999999999</ele><time>2026-04-11T09:04:10.936Z</time></trkpt><trkpt lat="44.6007694" lon="10.0722177"><ele>799.0</ele><time>2026-04-11T09:04:23.935Z</time></trkpt><trkpt lat="44.6007055" lon="10.0722502"><ele>799.0</ele><time>2026-04-11T09:04:26.935Z</time></trkpt><trkpt lat="44.6006486" lon="10.0723101"><ele>799.0</ele><time>2026-04-11T09:04:28.937Z</time></trkpt><trkpt lat="44.6006762" lon="10.0723919"><ele>798.9999999999999</ele><time>2026-04-11T09:27:38.96Z</time></trkpt><trkpt lat="44.6006334" lon="10.0723192"><ele>799.0</ele><time>2026-04-11T09:37:18.927Z</time></trkpt><trkpt lat="44.600742" lon="10.0721884"><ele>799.0</ele><time>2026-04-11T09:39:54.926Z</time></trkpt><trkpt lat="44.6008169" lon="10.072099"><ele>799.0</ele><time>2026-04-11T09:39:56.926Z</time></trkpt><trkpt lat="44.6008451" lon="10.072002"><ele>799.0</ele><time>2026-04-11T09:39:59.926Z</time></trkpt><trkpt lat="44.600773" lon="10.0719024"><ele>799.0</ele><time>2026-04-11T09:40:03.926Z</time></trkpt><trkpt lat="44.6007121" lon="10.0718269"><ele>799.0</ele><time>2026-04-11T09:40:04.926Z</time></trkpt><trkpt lat="44.6006461" lon="10.0717068"><ele>797.75</ele><time>2026-04-11T09:40:05.926Z</time></trkpt><trkpt lat="44.6006036" lon="10.0715503"><ele>796.5</ele><time>2026-04-11T09:40:06.926Z</time></trkpt><trkpt lat="44.6005672" lon="10.07138"><ele>795.25</ele><time>2026-04-11T09:40:07.926Z</time></trkpt><trkpt lat="44.6005344" lon="10.0712352"><ele>794.0</ele><time>2026-04-11T09:40:08.926Z</time></trkpt><trkpt lat="44.6004844" lon="10.0711017"><ele>794.0</ele><time>2026-04-11T09:40:09.926Z</time></trkpt><trkpt lat="44.6004282" lon="10.0709888"><ele>794.0</ele><time>2026-04-11T09:40:10.926Z</time></trkpt><trkpt lat="44.6003731" lon="10.0709021"><ele>794.0</ele><time>2026-04-11T09:40:11.926Z</time></trkpt><trkpt lat="44.600295" lon="10.0708024"><ele>794.0</ele><time>2026-04-11T09:40:12.927Z</time></trkpt><trkpt lat="44.600193" lon="10.0707046"><ele>794.0</ele><time>2026-04-11T09:40:13.926Z</time></trkpt><trkpt lat="44.6000904" lon="10.0706181"><ele>795.75</ele><time>2026-04-11T09:40:14.926Z</time></trkpt><trkpt lat="44.5999746" lon="10.0705253"><ele>797.5</ele><time>2026-04-11T09:40:15.926Z</time></trkpt><trkpt lat="44.5998637" lon="10.0704316"><ele>799.25</ele><time>2026-04-11T09:40:16.926Z</time></trkpt><trkpt lat="44.5997642" lon="10.0703481"><ele>801.0</ele><time>2026-04-11T09:40:17.926Z</time></trkpt><trkpt lat="44.5996688" lon="10.0702731"><ele>801.0</ele><time>2026-04-11T09:40:18.926Z</time></trkpt><trkpt lat="44.5995716" lon="10.0702211"><ele>801.0</ele><time>2026-04-11T09:40:19.926Z</time></trkpt><trkpt lat="44.5994626" lon="10.070199"><ele>801.0</ele><time>2026-04-11T09:40:20.926Z</time></trkpt><trkpt lat="44.5993549" lon="10.0702186"><ele>801.0</ele><time>2026-04-11T09:40:21.925Z</time></trkpt><trkpt lat="44.5992493" lon="10.070263"><ele>801.0</ele><time>2026-04-11T09:40:22.925Z</time></trkpt><trkpt lat="44.5991485" lon="10.070304"><ele>803.4</ele><time>2026-04-11T09:40:23.925Z</time></trkpt><trkpt lat="44.599044" lon="10.0703372"><ele>805.8</ele><time>2026-04-11T09:40:24.926Z</time></trkpt><trkpt lat="44.5989406" lon="10.070354"><ele>808.1999999999999</ele><time>2026-04-11T09:40:25.926Z</time></trkpt><trkpt lat="44.5988382" lon="10.0703372"><ele>810.5999999999999</ele><time>2026-04-11T09:40:26.926Z</time></trkpt><trkpt lat="44.5987487" lon="10.0702999"><ele>813.0</ele><time>2026-04-11T09:40:27.926Z</time></trkpt><trkpt lat="44.5986639" lon="10.0702419"><ele>815.3333333333334</ele><time>2026-04-11T09:40:28.926Z</time></trkpt><trkpt lat="44.5985808" lon="10.0701766"><ele>817.6666666666667</ele><time>2026-04-11T09:40:29.926Z</time></trkpt><trkpt lat="44.5984921" lon="10.070116"><ele>820.0</ele><time>2026-04-11T09:40:30.926Z</time></trkpt><trkpt lat="44.5984314" lon="10.0700825"><ele>822.3333333333334</ele><time>2026-04-11T09:40:31.926Z</time></trkpt><trkpt lat="44.5984249" lon="10.0699783"><ele>824.6666666666667</ele><time>2026-04-11T09:40:35.926Z</time></trkpt><trkpt lat="44.5984367" lon="10.0698782"><ele>827.0</ele><time>2026-04-11T09:40:37.925Z</time></trkpt><trkpt lat="44.5984446" lon="10.0697472"><ele>829.0</ele><time>2026-04-11T09:40:39.926Z</time></trkpt><trkpt lat="44.5984382" lon="10.0695696"><ele>831.0</ele><time>2026-04-11T09:40:41.926Z</time></trkpt><trkpt lat="44.5984403" lon="10.0694789"><ele>833.0</ele><time>2026-04-11T09:40:42.925Z</time></trkpt><trkpt lat="44.5984457" lon="10.0693276"><ele>835.0</ele><time>2026-04-11T09:40:44.926Z</time></trkpt><trkpt lat="44.5984205" lon="10.0691617"><ele>837.0</ele><time>2026-04-11T09:40:46.927Z</time></trkpt><trkpt lat="44.5984138" lon="10.069011"><ele>837.4000000000001</ele><time>2026-04-11T09:40:47.926Z</time></trkpt><trkpt lat="44.5983998" lon="10.0688836"><ele>837.8000000000001</ele><time>2026-04-11T09:40:48.925Z</time></trkpt><trkpt lat="44.5983887" lon="10.0686841"><ele>838.2</ele><time>2026-04-11T09:40:50.926Z</time></trkpt><trkpt lat="44.5983713" lon="10.0685864"><ele>838.6</ele><time>2026-04-11T09:40:51.925Z</time></trkpt><trkpt lat="44.598352" lon="10.0684801"><ele>839.0</ele><time>2026-04-11T09:40:52.925Z</time></trkpt><trkpt lat="44.5983338" lon="10.0683702"><ele>838.1666666666667</ele><time>2026-04-11T09:40:53.926Z</time></trkpt><trkpt lat="44.598308" lon="10.0682653"><ele>837.3333333333334</ele><time>2026-04-11T09:40:54.926Z</time></trkpt><trkpt lat="44.5982847" lon="10.0681541"><ele>836.5</ele><time>2026-04-11T09:40:55.926Z</time></trkpt><trkpt lat="44.5982654" lon="10.0680627"><ele>835.6666666666667</ele><time>2026-04-11T09:40:56.926Z</time></trkpt><trkpt lat="44.5982213" lon="10.0679602"><ele>834.8333333333334</ele><time>2026-04-11T09:40:57.925Z</time></trkpt><trkpt lat="44.5981923" lon="10.0678457"><ele>834.0</ele><time>2026-04-11T09:40:58.926Z</time></trkpt><trkpt lat="44.5981574" lon="10.06775"><ele>834.0</ele><time>2026-04-11T09:40:59.926Z</time></trkpt><trkpt lat="44.5980765" lon="10.0677365"><ele>834.0</ele><time>2026-04-11T09:41:00.925Z</time></trkpt><trkpt lat="44.598061" lon="10.0675575"><ele>834.0</ele><time>2026-04-11T09:41:02.926Z</time></trkpt><trkpt lat="44.5980662" lon="10.067391"><ele>834.0</ele><time>2026-04-11T09:41:04.926Z</time></trkpt><trkpt lat="44.5980716" lon="10.067286"><ele>834.0</ele><time>2026-04-11T09:41:05.926Z</time></trkpt><trkpt lat="44.5980166" lon="10.0671988"><ele>835.2</ele><time>2026-04-11T09:41:06.926Z</time></trkpt><trkpt lat="44.5979831" lon="10.0671122"><ele>836.4000000000001</ele><time>2026-04-11T09:41:07.926Z</time></trkpt><trkpt lat="44.5979599" lon="10.0670132"><ele>837.6</ele><time>2026-04-11T09:41:08.926Z</time></trkpt><trkpt lat="44.5979466" lon="10.0668623"><ele>838.8</ele><time>2026-04-11T09:41:10.926Z</time></trkpt><trkpt lat="44.5979967" lon="10.0667582"><ele>840.0</ele><time>2026-04-11T09:41:12.925Z</time></trkpt><trkpt lat="44.5980694" lon="10.0666342"><ele>841.5714285714286</ele><time>2026-04-11T09:41:14.926Z</time></trkpt><trkpt lat="44.5981151" lon="10.0665533"><ele>843.1428571428571</ele><time>2026-04-11T09:41:15.925Z</time></trkpt><trkpt lat="44.5981474" lon="10.066463"><ele>844.7142857142858</ele><time>2026-04-11T09:41:16.926Z</time></trkpt><trkpt lat="44.5981737" lon="10.066359"><ele>846.2857142857142</ele><time>2026-04-11T09:41:17.926Z</time></trkpt><trkpt lat="44.5982004" lon="10.0662607"><ele>847.8571428571429</ele><time>2026-04-11T09:41:18.926Z</time></trkpt><trkpt lat="44.5982172" lon="10.0661676"><ele>849.4285714285714</ele><time>2026-04-11T09:41:19.926Z</time></trkpt><trkpt lat="44.5982209" lon="10.066069"><ele>851.0</ele><time>2026-04-11T09:41:20.926Z</time></trkpt><trkpt lat="44.5982329" lon="10.0659717"><ele>851.0</ele><time>2026-04-11T09:41:21.925Z</time></trkpt><trkpt lat="44.5982198" lon="10.0658287"><ele>851.0</ele><time>2026-04-11T09:41:23.926Z</time></trkpt><trkpt lat="44.5981922" lon="10.0657435"><ele>851.0</ele><time>2026-04-11T09:41:24.926Z</time></trkpt><trkpt lat="44.5981599" lon="10.0655933"><ele>851.0</ele><time>2026-04-11T09:41:26.926Z</time></trkpt><trkpt lat="44.5981727" lon="10.0654686"><ele>851.0</ele><time>2026-04-11T09:41:27.926Z</time></trkpt><trkpt lat="44.5981108" lon="10.0653115"><ele>850.8</ele><time>2026-04-11T09:41:29.926Z</time></trkpt><trkpt lat="44.598049" lon="10.0651642"><ele>850.5999999999999</ele><time>2026-04-11T09:41:31.926Z</time></trkpt><trkpt lat="44.5980341" lon="10.0649675"><ele>850.4</ele><time>2026-04-11T09:41:33.926Z</time></trkpt><trkpt lat="44.5980261" lon="10.0648731"><ele>850.2</ele><time>2026-04-11T09:41:34.925Z</time></trkpt><trkpt lat="44.5980147" lon="10.0647717"><ele>850.0</ele><time>2026-04-11T09:41:35.925Z</time></trkpt><trkpt lat="44.5980098" lon="10.0646736"><ele>848.4</ele><time>2026-04-11T09:41:36.926Z</time></trkpt><trkpt lat="44.5979834" lon="10.0645802"><ele>846.8</ele><time>2026-04-11T09:41:37.927Z</time></trkpt><trkpt lat="44.5979576" lon="10.064473"><ele>845.2</ele><time>2026-04-11T09:41:38.926Z</time></trkpt><trkpt lat="44.5978973" lon="10.0644069"><ele>843.6</ele><time>2026-04-11T09:41:39.925Z</time></trkpt><trkpt lat="44.597818" lon="10.0642671"><ele>842.0</ele><time>2026-04-11T09:41:41.926Z</time></trkpt><trkpt lat="44.5977376" lon="10.0641385"><ele>849.4000000000001</ele><time>2026-04-11T09:41:43.926Z</time></trkpt><trkpt lat="44.5976843" lon="10.0640577"><ele>856.8000000000001</ele><time>2026-04-11T09:41:44.925Z</time></trkpt><trkpt lat="44.5976359" lon="10.0639734"><ele>864.2</ele><time>2026-04-11T09:41:45.925Z</time></trkpt><trkpt lat="44.5975653" lon="10.0638724"><ele>871.6</ele><time>2026-04-11T09:41:46.926Z</time></trkpt><trkpt lat="44.5975221" lon="10.0637987"><ele>879.0</ele><time>2026-04-11T09:41:47.926Z</time></trkpt><trkpt lat="44.5975792" lon="10.0636395"><ele>879.0</ele><time>2026-04-11T09:41:49.925Z</time></trkpt><trkpt lat="44.5976241" lon="10.0635285"><ele>879.0</ele><time>2026-04-11T09:41:51.925Z</time></trkpt><trkpt lat="44.5976849" lon="10.0634281"><ele>879.0</ele><time>2026-04-11T09:41:52.926Z</time></trkpt><trkpt lat="44.5977338" lon="10.0633623"><ele>879.0</ele><time>2026-04-11T09:41:53.926Z</time></trkpt><trkpt lat="44.5977749" lon="10.0632707"><ele>879.0</ele><time>2026-04-11T09:41:54.925Z</time></trkpt><trkpt lat="44.5978031" lon="10.0631733"><ele>879.0</ele><time>2026-04-11T09:41:55.925Z</time></trkpt><trkpt lat="44.5978475" lon="10.0630583"><ele>874.75</ele><time>2026-04-11T09:41:56.926Z</time></trkpt><trkpt lat="44.5978855" lon="10.0629471"><ele>870.5</ele><time>2026-04-11T09:41:57.925Z</time></trkpt><trkpt lat="44.5979314" lon="10.0628227"><ele>866.25</ele><time>2026-04-11T09:41:58.925Z</time></trkpt><trkpt lat="44.5979629" lon="10.0626332"><ele>862.0</ele><time>2026-04-11T09:41:59.926Z</time></trkpt><trkpt lat="44.598083" lon="10.0625749"><ele>861.9999999999999</ele><time>2026-04-11T09:42:00.926Z</time></trkpt><trkpt lat="44.598144" lon="10.0624907"><ele>862.0</ele><time>2026-04-11T09:42:01.925Z</time></trkpt><trkpt lat="44.5982228" lon="10.0624317"><ele>862.0</ele><time>2026-04-11T09:42:02.925Z</time></trkpt><trkpt lat="44.5982802" lon="10.0623556"><ele>862.0</ele><time>2026-04-11T09:42:03.925Z</time></trkpt><trkpt lat="44.5983418" lon="10.0622779"><ele>861.9999999999999</ele><time>2026-04-11T09:42:04.925Z</time></trkpt><trkpt lat="44.5983784" lon="10.0621652"><ele>862.0</ele><time>2026-04-11T09:42:05.925Z</time></trkpt><trkpt lat="44.5984284" lon="10.0620949"><ele>862.6666666666666</ele><time>2026-04-11T09:42:06.926Z</time></trkpt><trkpt lat="44.5984696" lon="10.0620105"><ele>863.3333333333333</ele><time>2026-04-11T09:42:07.925Z</time></trkpt><trkpt lat="44.5985015" lon="10.061903"><ele>864.0</ele><time>2026-04-11T09:42:08.926Z</time></trkpt><trkpt lat="44.5985316" lon="10.061811"><ele>864.6666666666667</ele><time>2026-04-11T09:42:09.925Z</time></trkpt><trkpt lat="44.5985647" lon="10.0617283"><ele>865.3333333333334</ele><time>2026-04-11T09:42:10.925Z</time></trkpt><trkpt lat="44.5985255" lon="10.0616455"><ele>866.0</ele><time>2026-04-11T09:42:11.925Z</time></trkpt><trkpt lat="44.5984599" lon="10.0615469"><ele>863.0</ele><time>2026-04-11T09:42:13.925Z</time></trkpt><trkpt lat="44.5983927" lon="10.0614383"><ele>859.9999999999999</ele><time>2026-04-11T09:42:15.924Z</time></trkpt><trkpt lat="44.5983241" lon="10.0613703"><ele>857.0</ele><time>2026-04-11T09:42:16.924Z</time></trkpt><trkpt lat="44.5982707" lon="10.0613107"><ele>854.0</ele><time>2026-04-11T09:42:17.924Z</time></trkpt><trkpt lat="44.5981748" lon="10.0611942"><ele>851.0</ele><time>2026-04-11T09:42:19.924Z</time></trkpt><trkpt lat="44.5981042" lon="10.06116"><ele>851.0000000000001</ele><time>2026-04-11T09:42:20.924Z</time></trkpt><trkpt lat="44.5980404" lon="10.061137"><ele>851.0</ele><time>2026-04-11T09:42:21.925Z</time></trkpt><trkpt lat="44.5979684" lon="10.0611159"><ele>851.0</ele><time>2026-04-11T09:42:23.925Z</time></trkpt><trkpt lat="44.5978966" lon="10.0611549"><ele>851.0</ele><time>2026-04-11T09:42:25.925Z</time></trkpt><trkpt lat="44.5978142" lon="10.0612538"><ele>851.0000000000001</ele><time>2026-04-11T09:42:27.925Z</time></trkpt><trkpt lat="44.5977571" lon="10.0613416"><ele>851.0</ele><time>2026-04-11T09:42:29.925Z</time></trkpt><trkpt lat="44.597671" lon="10.061397"><ele>852.0</ele><time>2026-04-11T09:42:31.924Z</time></trkpt><trkpt lat="44.5975744" lon="10.0613882"><ele>853.0</ele><time>2026-04-11T09:42:33.924Z</time></trkpt><trkpt lat="44.5974484" lon="10.0614182"><ele>853.9999999999999</ele><time>2026-04-11T09:42:35.925Z</time></trkpt><trkpt lat="44.5973789" lon="10.0614546"><ele>855.0</ele><time>2026-04-11T09:42:36.925Z</time></trkpt><trkpt lat="44.597254" lon="10.0614492"><ele>856.0</ele><time>2026-04-11T09:42:38.925Z</time></trkpt><trkpt lat="44.5971744" lon="10.0613562"><ele>856.0</ele><time>2026-04-11T09:42:40.925Z</time></trkpt><trkpt lat="44.5971499" lon="10.0612679"><ele>855.9999999999999</ele><time>2026-04-11T09:42:41.925Z</time></trkpt><trkpt lat="44.5970954" lon="10.0611148"><ele>855.9999999999999</ele><time>2026-04-11T09:42:43.925Z</time></trkpt><trkpt lat="44.5970809" lon="10.0610081"><ele>856.0</ele><time>2026-04-11T09:42:44.925Z</time></trkpt><trkpt lat="44.5970751" lon="10.0609036"><ele>856.0</ele><time>2026-04-11T09:42:45.925Z</time></trkpt><trkpt lat="44.5970801" lon="10.0607432"><ele>857.1999999999999</ele><time>2026-04-11T09:42:47.925Z</time></trkpt><trkpt lat="44.5970746" lon="10.0605898"><ele>858.3999999999999</ele><time>2026-04-11T09:42:49.925Z</time></trkpt><trkpt lat="44.5969946" lon="10.0605063"><ele>859.6</ele><time>2026-04-11T09:42:51.925Z</time></trkpt><trkpt lat="44.5969384" lon="10.0603914"><ele>860.8</ele><time>2026-04-11T09:42:53.925Z</time></trkpt><trkpt lat="44.5968788" lon="10.0603421"><ele>862.0</ele><time>2026-04-11T09:42:54.926Z</time></trkpt><trkpt lat="44.5968192" lon="10.0602695"><ele>861.9999999999999</ele><time>2026-04-11T09:42:55.925Z</time></trkpt><trkpt lat="44.5967683" lon="10.0601972"><ele>862.0</ele><time>2026-04-11T09:42:56.925Z</time></trkpt><trkpt lat="44.5967041" lon="10.0600903"><ele>862.0</ele><time>2026-04-11T09:42:58.925Z</time></trkpt><trkpt lat="44.5966442" lon="10.0600295"><ele>862.0</ele><time>2026-04-11T09:43:00.925Z</time></trkpt><trkpt lat="44.5965793" lon="10.0600408"><ele>861.9999999999999</ele><time>2026-04-11T09:43:02.925Z</time></trkpt><trkpt lat="44.5965176" lon="10.05999"><ele>862.0</ele><time>2026-04-11T09:43:03.925Z</time></trkpt><trkpt lat="44.5964004" lon="10.0599092"><ele>861.8333333333333</ele><time>2026-04-11T09:43:05.925Z</time></trkpt><trkpt lat="44.596334" lon="10.0598772"><ele>861.6666666666666</ele><time>2026-04-11T09:43:06.925Z</time></trkpt><trkpt lat="44.5962552" lon="10.0598787"><ele>861.5</ele><time>2026-04-11T09:43:07.925Z</time></trkpt><trkpt lat="44.5961753" lon="10.0598634"><ele>861.3333333333333</ele><time>2026-04-11T09:43:08.925Z</time></trkpt><trkpt lat="44.5960879" lon="10.0598537"><ele>861.1666666666666</ele><time>2026-04-11T09:43:09.926Z</time></trkpt><trkpt lat="44.5960063" lon="10.0598479"><ele>861.0</ele><time>2026-04-11T09:43:10.925Z</time></trkpt><trkpt lat="44.5959295" lon="10.0598345"><ele>861.0</ele><time>2026-04-11T09:43:11.925Z</time></trkpt><trkpt lat="44.595866" lon="10.0598492"><ele>861.0</ele><time>2026-04-11T09:43:12.925Z</time></trkpt><trkpt lat="44.5958006" lon="10.0598482"><ele>861.0</ele><time>2026-04-11T09:43:13.926Z</time></trkpt><trkpt lat="44.5957292" lon="10.0598223"><ele>861.0</ele><time>2026-04-11T09:43:14.925Z</time></trkpt><trkpt lat="44.5956577" lon="10.0597468"><ele>861.0</ele><time>2026-04-11T09:43:15.925Z</time></trkpt><trkpt lat="44.5955926" lon="10.059668"><ele>861.0</ele><time>2026-04-11T09:43:16.925Z</time></trkpt><trkpt lat="44.5955262" lon="10.0596535"><ele>861.0</ele><time>2026-04-11T09:43:17.925Z</time></trkpt><trkpt lat="44.5954541" lon="10.0596091"><ele>861.0</ele><time>2026-04-11T09:43:18.925Z</time></trkpt><trkpt lat="44.5953793" lon="10.0595579"><ele>861.0</ele><time>2026-04-11T09:43:19.924Z</time></trkpt><trkpt lat="44.5953021" lon="10.059552"><ele>861.0</ele><time>2026-04-11T09:43:20.924Z</time></trkpt><trkpt lat="44.5952394" lon="10.0594953"><ele>861.0</ele><time>2026-04-11T09:43:21.925Z</time></trkpt><trkpt lat="44.5951647" lon="10.0594653"><ele>861.0</ele><time>2026-04-11T09:43:22.925Z</time></trkpt><trkpt lat="44.5950976" lon="10.0594594"><ele>861.0</ele><time>2026-04-11T09:43:23.926Z</time></trkpt><trkpt lat="44.5950129" lon="10.0594334"><ele>862.1666666666666</ele><time>2026-04-11T09:43:24.926Z</time></trkpt><trkpt lat="44.5949355" lon="10.0594071"><ele>863.3333333333333</ele><time>2026-04-11T09:43:25.925Z</time></trkpt><trkpt lat="44.5948677" lon="10.0593885"><ele>864.5</ele><time>2026-04-11T09:43:26.925Z</time></trkpt><trkpt lat="44.594754" lon="10.0593947"><ele>865.6666666666666</ele><time>2026-04-11T09:43:28.925Z</time></trkpt><trkpt lat="44.5946943" lon="10.0592736"><ele>866.8333333333333</ele><time>2026-04-11T09:43:30.925Z</time></trkpt><trkpt lat="44.5946331" lon="10.0591995"><ele>868.0</ele><time>2026-04-11T09:43:31.925Z</time></trkpt><trkpt lat="44.5945732" lon="10.0590954"><ele>869.6666666666666</ele><time>2026-04-11T09:43:32.924Z</time></trkpt><trkpt lat="44.5945012" lon="10.0590052"><ele>871.3333333333333</ele><time>2026-04-11T09:43:33.924Z</time></trkpt><trkpt lat="44.5944321" lon="10.0589129"><ele>873.0</ele><time>2026-04-11T09:43:34.925Z</time></trkpt><trkpt lat="44.5943709" lon="10.0588343"><ele>874.6666666666667</ele><time>2026-04-11T09:43:35.925Z</time></trkpt><trkpt lat="44.5943117" lon="10.0587698"><ele>876.3333333333334</ele><time>2026-04-11T09:43:36.924Z</time></trkpt><trkpt lat="44.594258" lon="10.0587114"><ele>878.0</ele><time>2026-04-11T09:43:38.925Z</time></trkpt><trkpt lat="44.5942071" lon="10.0586585"><ele>878.0000000000001</ele><time>2026-04-11T09:43:43.924Z</time></trkpt><trkpt lat="44.5941235" lon="10.0585503"><ele>878.0</ele><time>2026-04-11T09:43:45.925Z</time></trkpt><trkpt lat="44.5940654" lon="10.058493"><ele>878.0</ele><time>2026-04-11T09:43:46.924Z</time></trkpt><trkpt lat="44.5940015" lon="10.0584393"><ele>878.0</ele><time>2026-04-11T09:43:47.925Z</time></trkpt><trkpt lat="44.5939405" lon="10.0583877"><ele>878.0000000000001</ele><time>2026-04-11T09:43:48.925Z</time></trkpt><trkpt lat="44.5938619" lon="10.0583159"><ele>878.0</ele><time>2026-04-11T09:43:50.925Z</time></trkpt><trkpt lat="44.5939232" lon="10.0582415"><ele>878.0000000000001</ele><time>2026-04-11T09:43:53.925Z</time></trkpt><trkpt lat="44.5940044" lon="10.0583181"><ele>878.0</ele><time>2026-04-11T09:43:55.925Z</time></trkpt><trkpt lat="44.5940518" lon="10.0583816"><ele>878.0</ele><time>2026-04-11T09:43:56.925Z</time></trkpt><trkpt lat="44.5940956" lon="10.0584612"><ele>878.0</ele><time>2026-04-11T09:43:57.925Z</time></trkpt><trkpt lat="44.5941405" lon="10.0585442"><ele>878.0000000000001</ele><time>2026-04-11T09:43:58.925Z</time></trkpt><trkpt lat="44.5941898" lon="10.0586183"><ele>878.0</ele><time>2026-04-11T09:43:59.925Z</time></trkpt><trkpt lat="44.5942622" lon="10.0587153"><ele>878.0</ele><time>2026-04-11T09:44:01.925Z</time></trkpt><trkpt lat="44.5943359" lon="10.0587649"><ele>878.0</ele><time>2026-04-11T09:44:03.924Z</time></trkpt><trkpt lat="44.5943997" lon="10.0586747"><ele>878.0</ele><time>2026-04-11T09:44:05.925Z</time></trkpt><trkpt lat="44.5944279" lon="10.058516"><ele>878.0</ele><time>2026-04-11T09:44:07.925Z</time></trkpt><trkpt lat="44.5944344" lon="10.0584063"><ele>878.0</ele><time>2026-04-11T09:44:08.925Z</time></trkpt><trkpt lat="44.5944373" lon="10.0582821"><ele>877.4</ele><time>2026-04-11T09:44:09.925Z</time></trkpt><trkpt lat="44.5944401" lon="10.0581396"><ele>876.8</ele><time>2026-04-11T09:44:10.925Z</time></trkpt><trkpt lat="44.5944423" lon="10.058019"><ele>876.2</ele><time>2026-04-11T09:44:11.925Z</time></trkpt><trkpt lat="44.5944482" lon="10.0578992"><ele>875.6</ele><time>2026-04-11T09:44:12.925Z</time></trkpt><trkpt lat="44.5944923" lon="10.0577784"><ele>875.0</ele><time>2026-04-11T09:44:13.925Z</time></trkpt><trkpt lat="44.5945267" lon="10.0576637"><ele>874.0</ele><time>2026-04-11T09:44:14.925Z</time></trkpt><trkpt lat="44.5945607" lon="10.0575693"><ele>873.0</ele><time>2026-04-11T09:44:15.924Z</time></trkpt><trkpt lat="44.5945911" lon="10.0574908"><ele>872.0</ele><time>2026-04-11T09:44:16.924Z</time></trkpt><trkpt lat="44.5946276" lon="10.0574069"><ele>871.0</ele><time>2026-04-11T09:44:17.924Z</time></trkpt><trkpt lat="44.594668" lon="10.0573189"><ele>870.0</ele><time>2026-04-11T09:44:18.925Z</time></trkpt><trkpt lat="44.5946984" lon="10.0572305"><ele>869.0</ele><time>2026-04-11T09:44:19.925Z</time></trkpt><trkpt lat="44.5947318" lon="10.0571415"><ele>868.0</ele><time>2026-04-11T09:44:20.925Z</time></trkpt><trkpt lat="44.5947702" lon="10.0570469"><ele>868.0</ele><time>2026-04-11T09:44:21.924Z</time></trkpt><trkpt lat="44.5948267" lon="10.0569734"><ele>868.0</ele><time>2026-04-11T09:44:22.925Z</time></trkpt><trkpt lat="44.5948589" lon="10.0568812"><ele>868.0</ele><time>2026-04-11T09:44:23.924Z</time></trkpt><trkpt lat="44.59489" lon="10.0567326"><ele>868.0</ele><time>2026-04-11T09:44:24.924Z</time></trkpt><trkpt lat="44.5949391" lon="10.056588"><ele>868.0</ele><time>2026-04-11T09:44:25.924Z</time></trkpt><trkpt lat="44.5949905" lon="10.0564305"><ele>868.2</ele><time>2026-04-11T09:44:26.924Z</time></trkpt><trkpt lat="44.5950411" lon="10.0562734"><ele>868.4</ele><time>2026-04-11T09:44:27.924Z</time></trkpt><trkpt lat="44.5950865" lon="10.0561488"><ele>868.6000000000001</ele><time>2026-04-11T09:44:28.925Z</time></trkpt><trkpt lat="44.5951786" lon="10.0561365"><ele>868.8000000000001</ele><time>2026-04-11T09:44:29.925Z</time></trkpt><trkpt lat="44.5952599" lon="10.0561021"><ele>869.0</ele><time>2026-04-11T09:44:30.924Z</time></trkpt><trkpt lat="44.595318" lon="10.0560511"><ele>865.4000000000001</ele><time>2026-04-11T09:44:31.924Z</time></trkpt><trkpt lat="44.5954081" lon="10.0559338"><ele>861.8000000000001</ele><time>2026-04-11T09:44:33.925Z</time></trkpt><trkpt lat="44.5954887" lon="10.0558186"><ele>858.2</ele><time>2026-04-11T09:44:35.924Z</time></trkpt><trkpt lat="44.595506" lon="10.0556898"><ele>854.5999999999999</ele><time>2026-04-11T09:44:37.925Z</time></trkpt><trkpt lat="44.5954315" lon="10.0556056"><ele>851.0</ele><time>2026-04-11T09:44:39.925Z</time></trkpt><trkpt lat="44.5953666" lon="10.0554969"><ele>850.3333333333334</ele><time>2026-04-11T09:44:41.925Z</time></trkpt><trkpt lat="44.5953504" lon="10.0553559"><ele>849.6666666666667</ele><time>2026-04-11T09:44:43.925Z</time></trkpt><trkpt lat="44.5953456" lon="10.0552634"><ele>849.0</ele><time>2026-04-11T09:44:44.924Z</time></trkpt><trkpt lat="44.595282" lon="10.0551212"><ele>848.3333333333333</ele><time>2026-04-11T09:44:46.925Z</time></trkpt><trkpt lat="44.5952321" lon="10.0550563"><ele>847.6666666666666</ele><time>2026-04-11T09:44:47.924Z</time></trkpt><trkpt lat="44.5951561" lon="10.0550014"><ele>847.0</ele><time>2026-04-11T09:44:48.924Z</time></trkpt><trkpt lat="44.5950869" lon="10.0549579"><ele>848.8333333333333</ele><time>2026-04-11T09:44:49.924Z</time></trkpt><trkpt lat="44.5950256" lon="10.0549128"><ele>850.6666666666666</ele><time>2026-04-11T09:44:50.925Z</time></trkpt><trkpt lat="44.5949472" lon="10.0548166"><ele>852.5</ele><time>2026-04-11T09:44:52.925Z</time></trkpt><trkpt lat="44.5948896" lon="10.0547081"><ele>854.3333333333333</ele><time>2026-04-11T09:44:54.924Z</time></trkpt><trkpt lat="44.5948864" lon="10.0546146"><ele>856.1666666666666</ele><time>2026-04-11T09:44:56.925Z</time></trkpt><trkpt lat="44.5949335" lon="10.0545367"><ele>858.0</ele><time>2026-04-11T09:44:58.924Z</time></trkpt><trkpt lat="44.5949969" lon="10.0544945"><ele>858.0</ele><time>2026-04-11T09:44:59.924Z</time></trkpt><trkpt lat="44.5950702" lon="10.0544418"><ele>858.0</ele><time>2026-04-11T09:45:01.924Z</time></trkpt><trkpt lat="44.5951231" lon="10.0543767"><ele>858.0</ele><time>2026-04-11T09:45:08.925Z</time></trkpt><trkpt lat="44.5951575" lon="10.0542521"><ele>858.0</ele><time>2026-04-11T09:45:11.925Z</time></trkpt><trkpt lat="44.595129" lon="10.0541038"><ele>858.0</ele><time>2026-04-11T09:45:14.924Z</time></trkpt><trkpt lat="44.5950759" lon="10.0539595"><ele>860.4</ele><time>2026-04-11T09:45:16.925Z</time></trkpt><trkpt lat="44.5950708" lon="10.0537996"><ele>862.8</ele><time>2026-04-11T09:45:18.925Z</time></trkpt><trkpt lat="44.595049" lon="10.0536568"><ele>865.2</ele><time>2026-04-11T09:45:20.925Z</time></trkpt><trkpt lat="44.5950541" lon="10.0535372"><ele>867.6</ele><time>2026-04-11T09:45:22.925Z</time></trkpt><trkpt lat="44.5950881" lon="10.0534209"><ele>870.0</ele><time>2026-04-11T09:45:24.924Z</time></trkpt><trkpt lat="44.5951298" lon="10.0533187"><ele>869.0</ele><time>2026-04-11T09:45:26.925Z</time></trkpt><trkpt lat="44.5952087" lon="10.0532376"><ele>868.0</ele><time>2026-04-11T09:45:28.925Z</time></trkpt><trkpt lat="44.5952509" lon="10.0531601"><ele>867.0</ele><time>2026-04-11T09:45:29.925Z</time></trkpt><trkpt lat="44.5953524" lon="10.0530374"><ele>866.0</ele><time>2026-04-11T09:45:31.925Z</time></trkpt><trkpt lat="44.5953985" lon="10.0529692"><ele>865.0</ele><time>2026-04-11T09:45:32.925Z</time></trkpt><trkpt lat="44.5954481" lon="10.0528978"><ele>864.0</ele><time>2026-04-11T09:45:33.926Z</time></trkpt><trkpt lat="44.595515" lon="10.052838"><ele>864.0</ele><time>2026-04-11T09:45:34.925Z</time></trkpt><trkpt lat="44.5955757" lon="10.0527709"><ele>864.0000000000001</ele><time>2026-04-11T09:45:35.925Z</time></trkpt><trkpt lat="44.5956669" lon="10.0526699"><ele>864.0000000000001</ele><time>2026-04-11T09:45:37.924Z</time></trkpt><trkpt lat="44.5957398" lon="10.0525319"><ele>864.0</ele><time>2026-04-11T09:45:39.925Z</time></trkpt><trkpt lat="44.5957984" lon="10.0524063"><ele>864.0</ele><time>2026-04-11T09:45:41.924Z</time></trkpt><trkpt lat="44.5958754" lon="10.0523776"><ele>864.5</ele><time>2026-04-11T09:45:42.925Z</time></trkpt><trkpt lat="44.5959869" lon="10.0522901"><ele>865.0</ele><time>2026-04-11T09:45:44.925Z</time></trkpt><trkpt lat="44.5960493" lon="10.0522469"><ele>865.5</ele><time>2026-04-11T09:45:45.925Z</time></trkpt><trkpt lat="44.596102" lon="10.0521881"><ele>866.0</ele><time>2026-04-11T09:45:46.924Z</time></trkpt><trkpt lat="44.5961555" lon="10.0521303"><ele>866.5</ele><time>2026-04-11T09:45:47.925Z</time></trkpt><trkpt lat="44.5962343" lon="10.0520492"><ele>867.0</ele><time>2026-04-11T09:45:49.924Z</time></trkpt><trkpt lat="44.596284" lon="10.0519802"><ele>867.0</ele><time>2026-04-11T09:45:50.925Z</time></trkpt><trkpt lat="44.5963266" lon="10.0519093"><ele>867.0</ele><time>2026-04-11T09:45:51.925Z</time></trkpt><trkpt lat="44.5963807" lon="10.0518159"><ele>867.0</ele><time>2026-04-11T09:45:53.925Z</time></trkpt><trkpt lat="44.596425" lon="10.0516974"><ele>867.0</ele><time>2026-04-11T09:46:34.925Z</time></trkpt><trkpt lat="44.5964646" lon="10.0515984"><ele>867.0</ele><time>2026-04-11T09:46:36.925Z</time></trkpt><trkpt lat="44.5965934" lon="10.0515325"><ele>871.2</ele><time>2026-04-11T09:46:38.925Z</time></trkpt><trkpt lat="44.5966778" lon="10.0514606"><ele>875.4000000000001</ele><time>2026-04-11T09:46:40.925Z</time></trkpt><trkpt lat="44.596752" lon="10.0513172"><ele>879.5999999999999</ele><time>2026-04-11T09:46:42.925Z</time></trkpt><trkpt lat="44.5968072" lon="10.0512026"><ele>883.8</ele><time>2026-04-11T09:46:44.925Z</time></trkpt><trkpt lat="44.5968485" lon="10.0511325"><ele>888.0</ele><time>2026-04-11T09:46:45.926Z</time></trkpt><trkpt lat="44.5969244" lon="10.0510191"><ele>888.0</ele><time>2026-04-11T09:46:47.925Z</time></trkpt><trkpt lat="44.5969816" lon="10.0509094"><ele>888.0</ele><time>2026-04-11T09:46:49.924Z</time></trkpt><trkpt lat="44.5970295" lon="10.0507896"><ele>888.0</ele><time>2026-04-11T09:46:51.924Z</time></trkpt><trkpt lat="44.5970578" lon="10.05066"><ele>888.0</ele><time>2026-04-11T09:46:53.924Z</time></trkpt><trkpt lat="44.5970619" lon="10.0505188"><ele>888.0</ele><time>2026-04-11T09:46:55.925Z</time></trkpt><trkpt lat="44.5970612" lon="10.0503962"><ele>887.0</ele><time>2026-04-11T09:46:57.925Z</time></trkpt><trkpt lat="44.5970555" lon="10.0502595"><ele>886.0</ele><time>2026-04-11T09:46:59.925Z</time></trkpt><trkpt lat="44.59708" lon="10.0501642"><ele>885.0</ele><time>2026-04-11T09:47:00.924Z</time></trkpt><trkpt lat="44.5970978" lon="10.0500609"><ele>884.0</ele><time>2026-04-11T09:47:01.925Z</time></trkpt><trkpt lat="44.5971067" lon="10.0499587"><ele>883.0</ele><time>2026-04-11T09:47:02.926Z</time></trkpt><trkpt lat="44.5971179" lon="10.049869"><ele>882.0</ele><time>2026-04-11T09:47:03.925Z</time></trkpt><trkpt lat="44.5970937" lon="10.0497793"><ele>884.1666666666666</ele><time>2026-04-11T09:47:05.924Z</time></trkpt><trkpt lat="44.5970539" lon="10.0496852"><ele>886.3333333333333</ele><time>2026-04-11T09:47:07.925Z</time></trkpt><trkpt lat="44.597001" lon="10.0495798"><ele>888.5</ele><time>2026-04-11T09:47:10.925Z</time></trkpt><trkpt lat="44.5969446" lon="10.0494914"><ele>890.6666666666666</ele><time>2026-04-11T09:47:13.925Z</time></trkpt><trkpt lat="44.5968759" lon="10.0494644"><ele>892.8333333333333</ele><time>2026-04-11T09:47:15.924Z</time></trkpt><trkpt lat="44.5968687" lon="10.049372"><ele>895.0</ele><time>2026-04-11T09:47:18.924Z</time></trkpt><trkpt lat="44.5969302" lon="10.0494069"><ele>895.0</ele><time>2026-04-11T09:47:20.924Z</time></trkpt><trkpt lat="44.5970075" lon="10.0494359"><ele>895.0</ele><time>2026-04-11T09:47:27.924Z</time></trkpt><trkpt lat="44.5971133" lon="10.0493811"><ele>895.0</ele><time>2026-04-11T09:47:30.923Z</time></trkpt><trkpt lat="44.597194" lon="10.0493113"><ele>895.0</ele><time>2026-04-11T09:47:32.923Z</time></trkpt><trkpt lat="44.5972376" lon="10.0492419"><ele>895.0</ele><time>2026-04-11T09:47:34.923Z</time></trkpt><trkpt lat="44.5973099" lon="10.0491518"><ele>897.9999999999999</ele><time>2026-04-11T09:47:36.924Z</time></trkpt><trkpt lat="44.5973887" lon="10.049083"><ele>901.0</ele><time>2026-04-11T09:47:38.924Z</time></trkpt><trkpt lat="44.597445" lon="10.0489838"><ele>904.0</ele><time>2026-04-11T09:47:40.924Z</time></trkpt><trkpt lat="44.5974723" lon="10.0488847"><ele>907.0</ele><time>2026-04-11T09:47:42.924Z</time></trkpt><trkpt lat="44.5975293" lon="10.0488402"><ele>909.9999999999999</ele><time>2026-04-11T09:48:01.923Z</time></trkpt><trkpt lat="44.59748" lon="10.0489258"><ele>913.0</ele><time>2026-04-11T09:48:13.924Z</time></trkpt><trkpt lat="44.5974517" lon="10.0490722"><ele>909.9999999999999</ele><time>2026-04-11T09:48:15.923Z</time></trkpt><trkpt lat="44.5973942" lon="10.0491371"><ele>907.0</ele><time>2026-04-11T09:48:18.923Z</time></trkpt><trkpt lat="44.5973267" lon="10.0491988"><ele>904.0</ele><time>2026-04-11T09:48:34.924Z</time></trkpt><trkpt lat="44.5972446" lon="10.0493045"><ele>901.0</ele><time>2026-04-11T09:48:36.924Z</time></trkpt><trkpt lat="44.5971622" lon="10.0493412"><ele>897.9999999999999</ele><time>2026-04-11T09:48:38.924Z</time></trkpt><trkpt lat="44.5970894" lon="10.0493848"><ele>895.0</ele><time>2026-04-11T09:48:40.923Z</time></trkpt><trkpt lat="44.5970143" lon="10.0493934"><ele>894.9999999999999</ele><time>2026-04-11T09:48:42.924Z</time></trkpt><trkpt lat="44.5970607" lon="10.0493165"><ele>895.0</ele><time>2026-04-11T09:48:53.924Z</time></trkpt><trkpt lat="44.5970871" lon="10.0492356"><ele>895.0</ele><time>2026-04-11T09:48:55.924Z</time></trkpt><trkpt lat="44.5971141" lon="10.0491328"><ele>895.0</ele><time>2026-04-11T09:48:57.925Z</time></trkpt><trkpt lat="44.597165" lon="10.0489986"><ele>894.9999999999999</ele><time>2026-04-11T09:48:59.924Z</time></trkpt><trkpt lat="44.5972039" lon="10.0488581"><ele>895.0</ele><time>2026-04-11T09:49:01.923Z</time></trkpt><trkpt lat="44.5972327" lon="10.0487034"><ele>897.9999999999999</ele><time>2026-04-11T09:49:03.924Z</time></trkpt><trkpt lat="44.5972347" lon="10.048614"><ele>901.0</ele><time>2026-04-11T09:49:05.923Z</time></trkpt><trkpt lat="44.5972571" lon="10.0484781"><ele>904.0</ele><time>2026-04-11T09:49:07.923Z</time></trkpt><trkpt lat="44.5972589" lon="10.0483619"><ele>907.0</ele><time>2026-04-11T09:49:09.924Z</time></trkpt><trkpt lat="44.5972533" lon="10.04818"><ele>909.9999999999999</ele><time>2026-04-11T09:49:11.924Z</time></trkpt><trkpt lat="44.5972357" lon="10.0480841"><ele>913.0</ele><time>2026-04-11T09:49:12.923Z</time></trkpt><trkpt lat="44.5971958" lon="10.0479167"><ele>915.6666666666666</ele><time>2026-04-11T09:49:14.924Z</time></trkpt><trkpt lat="44.5971286" lon="10.0479689"><ele>918.3333333333333</ele><time>2026-04-11T09:49:16.924Z</time></trkpt><trkpt lat="44.5970614" lon="10.0480768"><ele>921.0</ele><time>2026-04-11T09:49:18.924Z</time></trkpt><trkpt lat="44.5970168" lon="10.0481433"><ele>923.6666666666667</ele><time>2026-04-11T09:49:19.924Z</time></trkpt><trkpt lat="44.5969559" lon="10.0482761"><ele>926.3333333333334</ele><time>2026-04-11T09:49:21.924Z</time></trkpt><trkpt lat="44.5969202" lon="10.0483493"><ele>929.0</ele><time>2026-04-11T09:49:56.924Z</time></trkpt><trkpt lat="44.5968286" lon="10.0483858"><ele>929.0000000000001</ele><time>2026-04-11T09:49:59.924Z</time></trkpt><trkpt lat="44.5967357" lon="10.0483872"><ele>929.0</ele><time>2026-04-11T09:50:01.924Z</time></trkpt><trkpt lat="44.5966728" lon="10.0483573"><ele>929.0</ele><time>2026-04-11T09:50:05.858Z</time></trkpt><trkpt lat="44.5966074" lon="10.0482714"><ele>929.0</ele><time>2026-04-11T09:50:07.924Z</time></trkpt><trkpt lat="44.5965581" lon="10.0481771"><ele>929.0000000000001</ele><time>2026-04-11T09:50:09.923Z</time></trkpt><trkpt lat="44.5965044" lon="10.0480958"><ele>929.0</ele><time>2026-04-11T09:50:11.931Z</time></trkpt><trkpt lat="44.5964375" lon="10.0479635"><ele>931.5000000000001</ele><time>2026-04-11T09:50:14.924Z</time></trkpt><trkpt lat="44.5963618" lon="10.0479274"><ele>934.0</ele><time>2026-04-11T09:50:16.894Z</time></trkpt><trkpt lat="44.5962959" lon="10.0479062"><ele>936.5</ele><time>2026-04-11T09:50:19.924Z</time></trkpt><trkpt lat="44.5962468" lon="10.0478127"><ele>939.0</ele><time>2026-04-11T09:50:26.924Z</time></trkpt><trkpt lat="44.5961835" lon="10.047717"><ele>941.5000000000001</ele><time>2026-04-11T09:50:28.924Z</time></trkpt><trkpt lat="44.5961522" lon="10.0476217"><ele>944.0</ele><time>2026-04-11T09:50:30.924Z</time></trkpt><trkpt lat="44.5960949" lon="10.0475509"><ele>947.6666666666667</ele><time>2026-04-11T09:52:29.924Z</time></trkpt><trkpt lat="44.5960414" lon="10.0475021"><ele>951.3333333333334</ele><time>2026-04-11T09:52:31.924Z</time></trkpt><trkpt lat="44.5959854" lon="10.0474392"><ele>955.0</ele><time>2026-04-11T09:52:33.924Z</time></trkpt><trkpt lat="44.5959373" lon="10.0473278"><ele>958.6666666666667</ele><time>2026-04-11T09:52:35.924Z</time></trkpt><trkpt lat="44.5959926" lon="10.0472356"><ele>962.3333333333334</ele><time>2026-04-11T09:52:37.923Z</time></trkpt><trkpt lat="44.5960051" lon="10.0471247"><ele>966.0</ele><time>2026-04-11T09:52:39.925Z</time></trkpt><trkpt lat="44.5959346" lon="10.0470625"><ele>968.4285714285714</ele><time>2026-04-11T09:52:41.64Z</time></trkpt><trkpt lat="44.5958759" lon="10.0470163"><ele>970.8571428571429</ele><time>2026-04-11T09:52:43.924Z</time></trkpt><trkpt lat="44.5958207" lon="10.0469538"><ele>973.2857142857142</ele><time>2026-04-11T09:52:47.947Z</time></trkpt><trkpt lat="44.5958456" lon="10.046829"><ele>975.7142857142857</ele><time>2026-04-11T09:52:50.924Z</time></trkpt><trkpt lat="44.5958375" lon="10.0467328"><ele>978.1428571428571</ele><time>2026-04-11T09:52:52.923Z</time></trkpt><trkpt lat="44.5958067" lon="10.0466532"><ele>980.5714285714284</ele><time>2026-04-11T09:52:54.923Z</time></trkpt><trkpt lat="44.5957534" lon="10.0466059"><ele>982.9999999999999</ele><time>2026-04-11T09:52:56.929Z</time></trkpt><trkpt lat="44.5956876" lon="10.0465631"><ele>985.2</ele><time>2026-04-11T09:53:00.923Z</time></trkpt><trkpt lat="44.595612" lon="10.0465427"><ele>987.4</ele><time>2026-04-11T09:53:13.915Z</time></trkpt><trkpt lat="44.5955003" lon="10.0463877"><ele>989.6000000000001</ele><time>2026-04-11T09:53:16.923Z</time></trkpt><trkpt lat="44.5954333" lon="10.0462789"><ele>991.8000000000001</ele><time>2026-04-11T09:53:17.923Z</time></trkpt><trkpt lat="44.5953763" lon="10.0461962"><ele>994.0</ele><time>2026-04-11T09:53:18.923Z</time></trkpt><trkpt lat="44.5953111" lon="10.0461126"><ele>997.4999999999999</ele><time>2026-04-11T09:53:20.923Z</time></trkpt><trkpt lat="44.5952671" lon="10.0460239"><ele>1001.0</ele><time>2026-04-11T09:53:23.922Z</time></trkpt><trkpt lat="44.595199" lon="10.0460201"><ele>1004.5</ele><time>2026-04-11T09:53:26.923Z</time></trkpt><trkpt lat="44.5951375" lon="10.0459694"><ele>1008.0</ele><time>2026-04-11T09:53:29.923Z</time></trkpt><trkpt lat="44.5950699" lon="10.0458949"><ele>1011.4999999999999</ele><time>2026-04-11T09:53:31.923Z</time></trkpt><trkpt lat="44.5949832" lon="10.0458437"><ele>1015.0</ele><time>2026-04-11T09:53:33.923Z</time></trkpt><trkpt lat="44.5949006" lon="10.0458131"><ele>1016.2</ele><time>2026-04-11T09:53:35.923Z</time></trkpt><trkpt lat="44.5948139" lon="10.0457071"><ele>1017.4</ele><time>2026-04-11T09:53:37.923Z</time></trkpt><trkpt lat="44.5947057" lon="10.0456842"><ele>1018.5999999999999</ele><time>2026-04-11T09:53:40.923Z</time></trkpt><trkpt lat="44.5946126" lon="10.0456858"><ele>1019.8</ele><time>2026-04-11T09:53:42.923Z</time></trkpt><trkpt lat="44.5945396" lon="10.0456357"><ele>1021.0</ele><time>2026-04-11T09:53:44.923Z</time></trkpt><trkpt lat="44.5945496" lon="10.0455454"><ele>1020.9999999999999</ele><time>2026-04-11T09:53:46.922Z</time></trkpt><trkpt lat="44.5945733" lon="10.0454633"><ele>1021.0</ele><time>2026-04-11T09:53:48.924Z</time></trkpt><trkpt lat="44.5945916" lon="10.0453431"><ele>1021.0</ele><time>2026-04-11T09:53:51.923Z</time></trkpt><trkpt lat="44.5945654" lon="10.045255"><ele>1021.0</ele><time>2026-04-11T09:54:03.923Z</time></trkpt><trkpt lat="44.5945601" lon="10.0451491"><ele>1020.9999999999999</ele><time>2026-04-11T09:54:05.923Z</time></trkpt><trkpt lat="44.5945784" lon="10.0449973"><ele>1021.0</ele><time>2026-04-11T09:54:07.922Z</time></trkpt><trkpt lat="44.5945856" lon="10.0448397"><ele>1020.8</ele><time>2026-04-11T09:54:09.923Z</time></trkpt><trkpt lat="44.5945891" lon="10.0446866"><ele>1020.5999999999999</ele><time>2026-04-11T09:54:11.923Z</time></trkpt><trkpt lat="44.594606" lon="10.0445468"><ele>1020.4</ele><time>2026-04-11T09:54:13.923Z</time></trkpt><trkpt lat="44.5945764" lon="10.0444257"><ele>1020.2</ele><time>2026-04-11T09:54:15.922Z</time></trkpt><trkpt lat="44.5944953" lon="10.0443694"><ele>1020.0</ele><time>2026-04-11T09:54:17.923Z</time></trkpt><trkpt lat="44.5944056" lon="10.0443423"><ele>1020.6</ele><time>2026-04-11T09:54:19.923Z</time></trkpt><trkpt lat="44.5943345" lon="10.0443287"><ele>1021.2</ele><time>2026-04-11T09:54:21.923Z</time></trkpt><trkpt lat="44.5942576" lon="10.0442929"><ele>1021.8</ele><time>2026-04-11T09:54:23.923Z</time></trkpt><trkpt lat="44.5941799" lon="10.0441989"><ele>1022.4</ele><time>2026-04-11T09:54:25.923Z</time></trkpt><trkpt lat="44.5940887" lon="10.0441566"><ele>1023.0</ele><time>2026-04-11T09:54:27.923Z</time></trkpt><trkpt lat="44.5939746" lon="10.0441624"><ele>1023.0</ele><time>2026-04-11T09:54:29.923Z</time></trkpt><trkpt lat="44.5939107" lon="10.0441575"><ele>1023.0</ele><time>2026-04-11T09:54:30.923Z</time></trkpt><trkpt lat="44.5938011" lon="10.0441716"><ele>1023.0</ele><time>2026-04-11T09:54:32.922Z</time></trkpt><trkpt lat="44.593704" lon="10.0442036"><ele>1023.0</ele><time>2026-04-11T09:54:34.922Z</time></trkpt><trkpt lat="44.5936147" lon="10.0442371"><ele>1023.0</ele><time>2026-04-11T09:54:36.922Z</time></trkpt><trkpt lat="44.5935444" lon="10.0443016"><ele>1023.0</ele><time>2026-04-11T09:54:38.923Z</time></trkpt><trkpt lat="44.5934819" lon="10.0443479"><ele>1023.0</ele><time>2026-04-11T09:54:42.924Z</time></trkpt><trkpt lat="44.5933846" lon="10.0443228"><ele>1023.0</ele><time>2026-04-11T09:54:45.922Z</time></trkpt><trkpt lat="44.5933406" lon="10.0442356"><ele>1023.0</ele><time>2026-04-11T09:54:47.923Z</time></trkpt><trkpt lat="44.5933698" lon="10.0441331"><ele>1023.0</ele><time>2026-04-11T09:54:50.922Z</time></trkpt><trkpt lat="44.5934485" lon="10.0441576"><ele>1023.0</ele><time>2026-04-11T09:54:51.922Z</time></trkpt><trkpt lat="44.5935008" lon="10.0442349"><ele>1023.0</ele><time>2026-04-11T09:54:53.923Z</time></trkpt><trkpt lat="44.5935812" lon="10.0442768"><ele>1023.0</ele><time>2026-04-11T09:54:56.923Z</time></trkpt><trkpt lat="44.5936381" lon="10.0442261"><ele>1023.0</ele><time>2026-04-11T09:54:59.923Z</time></trkpt><trkpt lat="44.593704" lon="10.0442275"><ele>1023.0</ele><time>2026-04-11T09:55:03.923Z</time></trkpt><trkpt lat="44.593762" lon="10.0441852"><ele>1023.0</ele><time>2026-04-11T09:55:05.923Z</time></trkpt><trkpt lat="44.5938022" lon="10.0440815"><ele>1023.0</ele><time>2026-04-11T09:55:08.923Z</time></trkpt><trkpt lat="44.5937441" lon="10.0439895"><ele>1022.7142857142858</ele><time>2026-04-11T09:55:11.923Z</time></trkpt><trkpt lat="44.593686" lon="10.0439435"><ele>1022.4285714285713</ele><time>2026-04-11T09:55:14.924Z</time></trkpt><trkpt lat="44.5936186" lon="10.0439123"><ele>1022.1428571428571</ele><time>2026-04-11T09:55:18.923Z</time></trkpt><trkpt lat="44.5935583" lon="10.0438511"><ele>1021.8571428571429</ele><time>2026-04-11T09:55:44.923Z</time></trkpt><trkpt lat="44.5934874" lon="10.0438063"><ele>1021.5714285714287</ele><time>2026-04-11T09:55:46.922Z</time></trkpt><trkpt lat="44.5934316" lon="10.0437347"><ele>1021.2857142857142</ele><time>2026-04-11T09:55:48.923Z</time></trkpt><trkpt lat="44.5933613" lon="10.043688"><ele>1021.0</ele><time>2026-04-11T09:55:51.922Z</time></trkpt><trkpt lat="44.5932874" lon="10.043683"><ele>1020.9999999999999</ele><time>2026-04-11T09:56:13.923Z</time></trkpt><trkpt lat="44.5932464" lon="10.0436134"><ele>1021.0</ele><time>2026-04-11T09:56:17.922Z</time></trkpt><trkpt lat="44.5933088" lon="10.0436327"><ele>1021.0</ele><time>2026-04-11T09:56:22.923Z</time></trkpt><trkpt lat="44.5933748" lon="10.0437341"><ele>1021.0</ele><time>2026-04-11T09:56:25.923Z</time></trkpt><trkpt lat="44.593442" lon="10.0437984"><ele>1020.9999999999999</ele><time>2026-04-11T09:56:27.923Z</time></trkpt><trkpt lat="44.5934554" lon="10.0439157"><ele>1021.0</ele><time>2026-04-11T09:56:30.923Z</time></trkpt><trkpt lat="44.5934318" lon="10.044003"><ele>1020.9999999999999</ele><time>2026-04-11T09:56:32.923Z</time></trkpt><trkpt lat="44.5934581" lon="10.0441043"><ele>1021.0</ele><time>2026-04-11T09:56:34.923Z</time></trkpt><trkpt lat="44.5935029" lon="10.0442265"><ele>1021.0</ele><time>2026-04-11T09:56:36.923Z</time></trkpt><trkpt lat="44.5935621" lon="10.0443061"><ele>1021.0</ele><time>2026-04-11T09:56:38.923Z</time></trkpt><trkpt lat="44.5936276" lon="10.0442909"><ele>1020.9999999999999</ele><time>2026-04-11T09:56:40.923Z</time></trkpt><trkpt lat="44.5936891" lon="10.0442195"><ele>1021.0</ele><time>2026-04-11T09:56:42.923Z</time></trkpt><trkpt lat="44.5937649" lon="10.0441802"><ele>1021.3333333333333</ele><time>2026-04-11T09:56:44.923Z</time></trkpt><trkpt lat="44.5938549" lon="10.044157"><ele>1021.6666666666666</ele><time>2026-04-11T09:56:46.923Z</time></trkpt><trkpt lat="44.5939443" lon="10.0441642"><ele>1022.0</ele><time>2026-04-11T09:56:48.922Z</time></trkpt><trkpt lat="44.5940178" lon="10.0441827"><ele>1022.3333333333333</ele><time>2026-04-11T09:56:50.923Z</time></trkpt><trkpt lat="44.5941087" lon="10.0441789"><ele>1022.6666666666666</ele><time>2026-04-11T09:56:52.923Z</time></trkpt><trkpt lat="44.5941895" lon="10.0442443"><ele>1023.0</ele><time>2026-04-11T09:56:54.924Z</time></trkpt><trkpt lat="44.5942588" lon="10.0443207"><ele>1023.0</ele><time>2026-04-11T09:56:56.922Z</time></trkpt><trkpt lat="44.5943209" lon="10.0443464"><ele>1023.0</ele><time>2026-04-11T09:56:58.923Z</time></trkpt><trkpt lat="44.5943955" lon="10.0443575"><ele>1023.0</ele><time>2026-04-11T09:57:01.922Z</time></trkpt><trkpt lat="44.5944778" lon="10.0443592"><ele>1023.0</ele><time>2026-04-11T09:57:04.923Z</time></trkpt><trkpt lat="44.594424" lon="10.0444148"><ele>1023.0</ele><time>2026-04-11T09:57:09.923Z</time></trkpt><trkpt lat="44.5943757" lon="10.0443528"><ele>1023.0</ele><time>2026-04-11T09:57:43.923Z</time></trkpt><trkpt lat="44.5944508" lon="10.0443471"><ele>1023.0</ele><time>2026-04-11T09:57:54.923Z</time></trkpt><trkpt lat="44.5945394" lon="10.044396"><ele>1022.5999999999999</ele><time>2026-04-11T09:57:56.922Z</time></trkpt><trkpt lat="44.5946036" lon="10.0444663"><ele>1022.1999999999999</ele><time>2026-04-11T09:57:58.922Z</time></trkpt><trkpt lat="44.5946151" lon="10.0445846"><ele>1021.8</ele><time>2026-04-11T09:58:00.924Z</time></trkpt><trkpt lat="44.5946026" lon="10.044735"><ele>1021.4</ele><time>2026-04-11T09:58:02.923Z</time></trkpt><trkpt lat="44.5945902" lon="10.0449061"><ele>1021.0</ele><time>2026-04-11T09:58:04.923Z</time></trkpt><trkpt lat="44.5945851" lon="10.0449979"><ele>1021.0</ele><time>2026-04-11T09:58:05.923Z</time></trkpt><trkpt lat="44.594581" lon="10.0451065"><ele>1021.0</ele><time>2026-04-11T09:58:06.923Z</time></trkpt><trkpt lat="44.5945781" lon="10.0452194"><ele>1021.0</ele><time>2026-04-11T09:58:07.923Z</time></trkpt><trkpt lat="44.5945851" lon="10.0453217"><ele>1021.0</ele><time>2026-04-11T09:58:08.923Z</time></trkpt><trkpt lat="44.5945867" lon="10.0454172"><ele>1021.0</ele><time>2026-04-11T09:58:09.923Z</time></trkpt><trkpt lat="44.5945591" lon="10.0455114"><ele>1021.0</ele><time>2026-04-11T09:58:10.923Z</time></trkpt><trkpt lat="44.594525" lon="10.0456052"><ele>1021.0</ele><time>2026-04-11T09:58:11.923Z</time></trkpt><trkpt lat="44.5944864" lon="10.0457025"><ele>1021.1666666666666</ele><time>2026-04-11T09:58:12.923Z</time></trkpt><trkpt lat="44.5944481" lon="10.0457944"><ele>1021.3333333333333</ele><time>2026-04-11T09:58:13.923Z</time></trkpt><trkpt lat="44.5944007" lon="10.0458798"><ele>1021.5</ele><time>2026-04-11T09:58:14.923Z</time></trkpt><trkpt lat="44.5943616" lon="10.0459611"><ele>1021.6666666666667</ele><time>2026-04-11T09:58:15.922Z</time></trkpt><trkpt lat="44.5943266" lon="10.0460348"><ele>1021.8333333333334</ele><time>2026-04-11T09:58:16.922Z</time></trkpt><trkpt lat="44.5942704" lon="10.0461717"><ele>1022.0</ele><time>2026-04-11T09:58:18.923Z</time></trkpt><trkpt lat="44.5942051" lon="10.0463293"><ele>1022.0000000000001</ele><time>2026-04-11T09:58:20.923Z</time></trkpt><trkpt lat="44.5941704" lon="10.0464308"><ele>1022.0</ele><time>2026-04-11T09:58:21.922Z</time></trkpt><trkpt lat="44.5941371" lon="10.0465293"><ele>1022.0</ele><time>2026-04-11T09:58:22.922Z</time></trkpt><trkpt lat="44.5941047" lon="10.0466116"><ele>1022.0</ele><time>2026-04-11T09:58:23.922Z</time></trkpt><trkpt lat="44.5940533" lon="10.0467442"><ele>1022.0000000000001</ele><time>2026-04-11T09:58:25.923Z</time></trkpt><trkpt lat="44.5940396" lon="10.0468947"><ele>1022.0</ele><time>2026-04-11T09:58:27.923Z</time></trkpt><trkpt lat="44.5940238" lon="10.0470462"><ele>1021.0000000000001</ele><time>2026-04-11T09:58:29.922Z</time></trkpt><trkpt lat="44.5940226" lon="10.0471359"><ele>1020.0</ele><time>2026-04-11T09:58:30.923Z</time></trkpt><trkpt lat="44.5940143" lon="10.0472255"><ele>1019.0</ele><time>2026-04-11T09:58:31.922Z</time></trkpt><trkpt lat="44.5939907" lon="10.047395"><ele>1018.0</ele><time>2026-04-11T09:58:33.924Z</time></trkpt><trkpt lat="44.593956" lon="10.0475339"><ele>1017.0000000000001</ele><time>2026-04-11T09:58:35.923Z</time></trkpt><trkpt lat="44.5939368" lon="10.0476445"><ele>1016.0</ele><time>2026-04-11T10:01:01.922Z</time></trkpt><trkpt lat="44.5939548" lon="10.0475122"><ele>1016.0000000000001</ele><time>2026-04-11T10:01:14.922Z</time></trkpt><trkpt lat="44.5939827" lon="10.0473551"><ele>1016.0</ele><time>2026-04-11T10:01:16.922Z</time></trkpt><trkpt lat="44.5939934" lon="10.0471892"><ele>1016.0</ele><time>2026-04-11T10:01:18.922Z</time></trkpt><trkpt lat="44.5940013" lon="10.0470851"><ele>1016.0</ele><time>2026-04-11T10:01:19.922Z</time></trkpt><trkpt lat="44.5940049" lon="10.0469907"><ele>1016.0000000000001</ele><time>2026-04-11T10:01:20.922Z</time></trkpt><trkpt lat="44.5940202" lon="10.046903"><ele>1016.0</ele><time>2026-04-11T10:01:21.921Z</time></trkpt><trkpt lat="44.5940479" lon="10.0468177"><ele>1016.0000000000001</ele><time>2026-04-11T10:01:22.921Z</time></trkpt><trkpt lat="44.5940708" lon="10.0467266"><ele>1016.0</ele><time>2026-04-11T10:01:23.921Z</time></trkpt><trkpt lat="44.5941037" lon="10.0466483"><ele>1016.0</ele><time>2026-04-11T10:01:24.921Z</time></trkpt><trkpt lat="44.5941326" lon="10.0465635"><ele>1016.0</ele><time>2026-04-11T10:01:25.922Z</time></trkpt><trkpt lat="44.5941836" lon="10.0463965"><ele>1016.0000000000001</ele><time>2026-04-11T10:01:27.923Z</time></trkpt><trkpt lat="44.594219" lon="10.0463155"><ele>1016.0</ele><time>2026-04-11T10:01:28.921Z</time></trkpt><trkpt lat="44.5942536" lon="10.0462391"><ele>1016.8333333333334</ele><time>2026-04-11T10:01:29.922Z</time></trkpt><trkpt lat="44.5942833" lon="10.046156"><ele>1017.6666666666667</ele><time>2026-04-11T10:01:30.922Z</time></trkpt><trkpt lat="44.5943084" lon="10.0460676"><ele>1018.5</ele><time>2026-04-11T10:01:31.923Z</time></trkpt><trkpt lat="44.5943488" lon="10.0459921"><ele>1019.3333333333333</ele><time>2026-04-11T10:01:32.922Z</time></trkpt><trkpt lat="44.5944103" lon="10.0458471"><ele>1020.1666666666666</ele><time>2026-04-11T10:01:34.922Z</time></trkpt><trkpt lat="44.5944751" lon="10.0457149"><ele>1021.0</ele><time>2026-04-11T10:01:36.922Z</time></trkpt><trkpt lat="44.5945123" lon="10.0456398"><ele>1020.9999999999999</ele><time>2026-04-11T10:01:37.921Z</time></trkpt><trkpt lat="44.5945478" lon="10.0455582"><ele>1021.0</ele><time>2026-04-11T10:01:38.921Z</time></trkpt><trkpt lat="44.5945768" lon="10.0454744"><ele>1021.0</ele><time>2026-04-11T10:01:39.922Z</time></trkpt><trkpt lat="44.5945897" lon="10.0452946"><ele>1021.0</ele><time>2026-04-11T10:01:41.921Z</time></trkpt><trkpt lat="44.5945826" lon="10.0451952"><ele>1020.9999999999999</ele><time>2026-04-11T10:01:42.922Z</time></trkpt><trkpt lat="44.5945806" lon="10.0451028"><ele>1021.0</ele><time>2026-04-11T10:01:43.923Z</time></trkpt><trkpt lat="44.5945758" lon="10.0450038"><ele>1020.8333333333333</ele><time>2026-04-11T10:01:44.922Z</time></trkpt><trkpt lat="44.5945849" lon="10.0448986"><ele>1020.6666666666666</ele><time>2026-04-11T10:01:45.922Z</time></trkpt><trkpt lat="44.5945997" lon="10.0447945"><ele>1020.5</ele><time>2026-04-11T10:01:46.922Z</time></trkpt><trkpt lat="44.5946004" lon="10.0446975"><ele>1020.3333333333333</ele><time>2026-04-11T10:01:47.922Z</time></trkpt><trkpt lat="44.5945931" lon="10.0445971"><ele>1020.1666666666666</ele><time>2026-04-11T10:01:48.923Z</time></trkpt><trkpt lat="44.5945884" lon="10.0444492"><ele>1020.0</ele><time>2026-04-11T10:01:50.921Z</time></trkpt><trkpt lat="44.5945301" lon="10.044371"><ele>1020.5</ele><time>2026-04-11T10:01:52.921Z</time></trkpt><trkpt lat="44.5944416" lon="10.0443249"><ele>1021.0</ele><time>2026-04-11T10:01:54.922Z</time></trkpt><trkpt lat="44.5943627" lon="10.0443267"><ele>1021.5</ele><time>2026-04-11T10:01:56.922Z</time></trkpt><trkpt lat="44.5942762" lon="10.0442833"><ele>1022.0</ele><time>2026-04-11T10:01:59.922Z</time></trkpt><trkpt lat="44.5942192" lon="10.0442234"><ele>1022.5</ele><time>2026-04-11T10:02:01.922Z</time></trkpt><trkpt lat="44.5941709" lon="10.0441554"><ele>1023.0</ele><time>2026-04-11T10:02:03.922Z</time></trkpt><trkpt lat="44.5941082" lon="10.0441383"><ele>1023.0</ele><time>2026-04-11T10:02:05.921Z</time></trkpt><trkpt lat="44.5940487" lon="10.0441799"><ele>1023.0</ele><time>2026-04-11T10:02:13.921Z</time></trkpt><trkpt lat="44.5939597" lon="10.0441717"><ele>1023.0</ele><time>2026-04-11T10:02:16.922Z</time></trkpt><trkpt lat="44.5938855" lon="10.0441639"><ele>1023.0</ele><time>2026-04-11T10:02:17.922Z</time></trkpt><trkpt lat="44.5937925" lon="10.0441807"><ele>1023.0</ele><time>2026-04-11T10:02:19.922Z</time></trkpt><trkpt lat="44.5937263" lon="10.0442107"><ele>1023.0</ele><time>2026-04-11T10:02:26.921Z</time></trkpt><trkpt lat="44.5936558" lon="10.0442339"><ele>1023.0</ele><time>2026-04-11T10:02:28.922Z</time></trkpt><trkpt lat="44.5935653" lon="10.0443093"><ele>1023.0</ele><time>2026-04-11T10:02:30.922Z</time></trkpt><trkpt lat="44.5934484" lon="10.044351"><ele>1023.0</ele><time>2026-04-11T10:02:32.922Z</time></trkpt><trkpt lat="44.593316" lon="10.0443438"><ele>1023.0</ele><time>2026-04-11T10:02:34.922Z</time></trkpt><trkpt lat="44.5932428" lon="10.044334"><ele>1023.0</ele><time>2026-04-11T10:02:35.921Z</time></trkpt><trkpt lat="44.5931683" lon="10.0443218"><ele>1023.0</ele><time>2026-04-11T10:02:36.921Z</time></trkpt><trkpt lat="44.5931008" lon="10.0442887"><ele>1023.0</ele><time>2026-04-11T10:02:37.921Z</time></trkpt><trkpt lat="44.5930277" lon="10.0442493"><ele>1023.0</ele><time>2026-04-11T10:02:38.922Z</time></trkpt><trkpt lat="44.5929695" lon="10.0442008"><ele>1023.0</ele><time>2026-04-11T10:02:39.922Z</time></trkpt><trkpt lat="44.5928964" lon="10.0440866"><ele>1023.0</ele><time>2026-04-11T10:02:41.922Z</time></trkpt><trkpt lat="44.5928009" lon="10.0440218"><ele>1023.0</ele><time>2026-04-11T10:02:43.922Z</time></trkpt><trkpt lat="44.5927068" lon="10.0440014"><ele>1022.7142857142858</ele><time>2026-04-11T10:02:45.922Z</time></trkpt><trkpt lat="44.5926394" lon="10.0439234"><ele>1022.4285714285713</ele><time>2026-04-11T10:02:47.922Z</time></trkpt><trkpt lat="44.5926058" lon="10.0438373"><ele>1022.1428571428571</ele><time>2026-04-11T10:02:49.922Z</time></trkpt><trkpt lat="44.5925733" lon="10.0437604"><ele>1021.8571428571429</ele><time>2026-04-11T10:02:51.922Z</time></trkpt><trkpt lat="44.5925292" lon="10.0436777"><ele>1021.5714285714287</ele><time>2026-04-11T10:02:53.922Z</time></trkpt><trkpt lat="44.5924789" lon="10.043622"><ele>1021.2857142857142</ele><time>2026-04-11T10:02:55.922Z</time></trkpt><trkpt lat="44.5924043" lon="10.0435807"><ele>1021.0</ele><time>2026-04-11T10:02:57.922Z</time></trkpt><trkpt lat="44.5923237" lon="10.043554"><ele>1020.9999999999999</ele><time>2026-04-11T10:02:59.922Z</time></trkpt><trkpt lat="44.5922573" lon="10.0435215"><ele>1021.0</ele><time>2026-04-11T10:03:01.922Z</time></trkpt><trkpt lat="44.5921926" lon="10.0434737"><ele>1021.0</ele><time>2026-04-11T10:03:04.922Z</time></trkpt><trkpt lat="44.592146" lon="10.0433705"><ele>1021.0</ele><time>2026-04-11T10:03:06.922Z</time></trkpt><trkpt lat="44.5920918" lon="10.0432662"><ele>1020.9999999999999</ele><time>2026-04-11T10:03:08.922Z</time></trkpt><trkpt lat="44.5920413" lon="10.0431617"><ele>1021.0</ele><time>2026-04-11T10:03:11.922Z</time></trkpt><trkpt lat="44.5920504" lon="10.0430722"><ele>1020.8333333333333</ele><time>2026-04-11T10:03:13.922Z</time></trkpt><trkpt lat="44.5920651" lon="10.0429768"><ele>1020.6666666666666</ele><time>2026-04-11T10:03:14.922Z</time></trkpt><trkpt lat="44.5920793" lon="10.0428873"><ele>1020.5</ele><time>2026-04-11T10:03:15.922Z</time></trkpt><trkpt lat="44.5920928" lon="10.0427974"><ele>1020.3333333333333</ele><time>2026-04-11T10:03:16.922Z</time></trkpt><trkpt lat="44.5921085" lon="10.0426443"><ele>1020.1666666666666</ele><time>2026-04-11T10:03:18.922Z</time></trkpt><trkpt lat="44.5920457" lon="10.0425043"><ele>1020.0</ele><time>2026-04-11T10:03:20.922Z</time></trkpt><trkpt lat="44.5919964" lon="10.0424082"><ele>1019.2857142857143</ele><time>2026-04-11T10:03:22.922Z</time></trkpt><trkpt lat="44.5920292" lon="10.0423326"><ele>1018.5714285714287</ele><time>2026-04-11T10:03:24.922Z</time></trkpt><trkpt lat="44.5920702" lon="10.0422467"><ele>1017.8571428571429</ele><time>2026-04-11T10:03:26.922Z</time></trkpt><trkpt lat="44.592107" lon="10.0421487"><ele>1017.1428571428571</ele><time>2026-04-11T10:03:29.922Z</time></trkpt><trkpt lat="44.5921071" lon="10.0420544"><ele>1016.4285714285714</ele><time>2026-04-11T10:03:36.922Z</time></trkpt><trkpt lat="44.5921705" lon="10.0419914"><ele>1015.7142857142858</ele><time>2026-04-11T10:03:39.923Z</time></trkpt><trkpt lat="44.5922257" lon="10.0419458"><ele>1015.0</ele><time>2026-04-11T10:03:41.922Z</time></trkpt><trkpt lat="44.5923083" lon="10.0419591"><ele>1014.9999999999999</ele><time>2026-04-11T10:03:48.922Z</time></trkpt><trkpt lat="44.5923861" lon="10.0419773"><ele>1015.0</ele><time>2026-04-11T10:03:50.922Z</time></trkpt><trkpt lat="44.5924633" lon="10.0419826"><ele>1015.0</ele><time>2026-04-11T10:03:53.922Z</time></trkpt><trkpt lat="44.5925463" lon="10.0419666"><ele>1015.0</ele><time>2026-04-11T10:03:56.922Z</time></trkpt><trkpt lat="44.5926312" lon="10.041922"><ele>1014.9999999999999</ele><time>2026-04-11T10:03:59.922Z</time></trkpt><trkpt lat="44.5926998" lon="10.0418887"><ele>1015.0</ele><time>2026-04-11T10:04:01.921Z</time></trkpt><trkpt lat="44.5927643" lon="10.0418488"><ele>1013.8333333333333</ele><time>2026-04-11T10:04:03.922Z</time></trkpt><trkpt lat="44.5928568" lon="10.0417928"><ele>1012.6666666666666</ele><time>2026-04-11T10:04:05.922Z</time></trkpt><trkpt lat="44.5929533" lon="10.0417201"><ele>1011.5</ele><time>2026-04-11T10:04:07.922Z</time></trkpt><trkpt lat="44.5930067" lon="10.0416595"><ele>1010.3333333333333</ele><time>2026-04-11T10:04:09.922Z</time></trkpt><trkpt lat="44.5930534" lon="10.0415987"><ele>1009.1666666666666</ele><time>2026-04-11T10:04:11.923Z</time></trkpt><trkpt lat="44.5931183" lon="10.0415249"><ele>1008.0</ele><time>2026-04-11T10:04:13.922Z</time></trkpt><trkpt lat="44.5931792" lon="10.0414757"><ele>1008.0</ele><time>2026-04-11T10:04:16.922Z</time></trkpt><trkpt lat="44.5931276" lon="10.0415607"><ele>1008.0</ele><time>2026-04-11T10:04:25.922Z</time></trkpt><trkpt lat="44.59301" lon="10.0416788"><ele>1008.0</ele><time>2026-04-11T10:04:27.922Z</time></trkpt><trkpt lat="44.5929506" lon="10.0417362"><ele>1008.0</ele><time>2026-04-11T10:04:28.922Z</time></trkpt><trkpt lat="44.5928481" lon="10.0418306"><ele>1008.0</ele><time>2026-04-11T10:04:30.922Z</time></trkpt><trkpt lat="44.5927362" lon="10.0418873"><ele>1009.4</ele><time>2026-04-11T10:04:32.921Z</time></trkpt><trkpt lat="44.5926487" lon="10.0419479"><ele>1010.8</ele><time>2026-04-11T10:04:34.921Z</time></trkpt><trkpt lat="44.5925366" lon="10.0419964"><ele>1012.2</ele><time>2026-04-11T10:04:36.921Z</time></trkpt><trkpt lat="44.5924349" lon="10.0420188"><ele>1013.6</ele><time>2026-04-11T10:04:38.922Z</time></trkpt><trkpt lat="44.5923383" lon="10.0419831"><ele>1015.0</ele><time>2026-04-11T10:04:40.922Z</time></trkpt><trkpt lat="44.5922677" lon="10.0419301"><ele>1015.0</ele><time>2026-04-11T10:04:48.922Z</time></trkpt><trkpt lat="44.5922017" lon="10.0419038"><ele>1015.0</ele><time>2026-04-11T10:04:51.922Z</time></trkpt><trkpt lat="44.5921318" lon="10.041876"><ele>1015.0</ele><time>2026-04-11T10:04:53.922Z</time></trkpt><trkpt lat="44.5920713" lon="10.0418336"><ele>1015.0</ele><time>2026-04-11T10:04:56.922Z</time></trkpt><trkpt lat="44.5920116" lon="10.0417532"><ele>1015.0</ele><time>2026-04-11T10:05:00.922Z</time></trkpt><trkpt lat="44.5919477" lon="10.0417299"><ele>1015.0</ele><time>2026-04-11T10:05:04.922Z</time></trkpt><trkpt lat="44.591893" lon="10.0416673"><ele>1015.0</ele><time>2026-04-11T10:05:16.922Z</time></trkpt><trkpt lat="44.5918599" lon="10.0415722"><ele>1013.8571428571429</ele><time>2026-04-11T10:05:19.922Z</time></trkpt><trkpt lat="44.5918452" lon="10.0414809"><ele>1012.7142857142858</ele><time>2026-04-11T10:05:22.922Z</time></trkpt><trkpt lat="44.5917928" lon="10.0413878"><ele>1011.5714285714286</ele><time>2026-04-11T10:05:26.922Z</time></trkpt><trkpt lat="44.5917327" lon="10.0413286"><ele>1010.4285714285714</ele><time>2026-04-11T10:05:29.922Z</time></trkpt><trkpt lat="44.5917004" lon="10.0412313"><ele>1009.2857142857143</ele><time>2026-04-11T10:05:32.922Z</time></trkpt><trkpt lat="44.5916536" lon="10.0411662"><ele>1008.1428571428571</ele><time>2026-04-11T10:05:35.921Z</time></trkpt><trkpt lat="44.5916088" lon="10.0410785"><ele>1007.0</ele><time>2026-04-11T10:05:38.922Z</time></trkpt><trkpt lat="44.59155" lon="10.0410454"><ele>1007.0000000000001</ele><time>2026-04-11T10:05:40.921Z</time></trkpt><trkpt lat="44.5914779" lon="10.0410189"><ele>1007.0</ele><time>2026-04-11T10:05:42.921Z</time></trkpt><trkpt lat="44.591421" lon="10.0409503"><ele>1007.0</ele><time>2026-04-11T10:05:44.92Z</time></trkpt><trkpt lat="44.5913833" lon="10.0408433"><ele>1007.0</ele><time>2026-04-11T10:05:47.921Z</time></trkpt><trkpt lat="44.5913684" lon="10.0407171"><ele>1007.0000000000001</ele><time>2026-04-11T10:05:50.92Z</time></trkpt><trkpt lat="44.5913411" lon="10.0406116"><ele>1007.0</ele><time>2026-04-11T10:05:52.92Z</time></trkpt><trkpt lat="44.5913021" lon="10.0405021"><ele>999.75</ele><time>2026-04-11T10:05:54.92Z</time></trkpt><trkpt lat="44.5912719" lon="10.040398"><ele>992.5</ele><time>2026-04-11T10:05:56.921Z</time></trkpt><trkpt lat="44.5910799" lon="10.0403309"><ele>985.25</ele><time>2026-04-11T10:06:06.92Z</time></trkpt><trkpt lat="44.590993" lon="10.0403545"><ele>978.0</ele><time>2026-04-11T10:06:09.921Z</time></trkpt><trkpt lat="44.5908965" lon="10.0403453"><ele>976.3333333333334</ele><time>2026-04-11T10:06:12.921Z</time></trkpt><trkpt lat="44.5908278" lon="10.0403042"><ele>974.6666666666667</ele><time>2026-04-11T10:06:14.92Z</time></trkpt><trkpt lat="44.5908139" lon="10.0402094"><ele>973.0</ele><time>2026-04-11T10:06:23.921Z</time></trkpt><trkpt lat="44.5908322" lon="10.0403048"><ele>971.3333333333334</ele><time>2026-04-11T10:09:39.921Z</time></trkpt><trkpt lat="44.5908957" lon="10.0403622"><ele>969.6666666666667</ele><time>2026-04-11T10:09:42.921Z</time></trkpt><trkpt lat="44.590983" lon="10.0403834"><ele>968.0</ele><time>2026-04-11T10:09:45.921Z</time></trkpt><trkpt lat="44.5910595" lon="10.0403457"><ele>968.0</ele><time>2026-04-11T10:09:47.921Z</time></trkpt><trkpt lat="44.5911543" lon="10.0403233"><ele>967.9999999999999</ele><time>2026-04-11T10:09:50.92Z</time></trkpt><trkpt lat="44.5912198" lon="10.0403508"><ele>968.0</ele><time>2026-04-11T10:09:52.921Z</time></trkpt><trkpt lat="44.5912594" lon="10.0404349"><ele>968.0</ele><time>2026-04-11T10:09:56.92Z</time></trkpt><trkpt lat="44.5913001" lon="10.0405106"><ele>967.9999999999999</ele><time>2026-04-11T10:09:58.92Z</time></trkpt><trkpt lat="44.5913334" lon="10.0405927"><ele>968.0</ele><time>2026-04-11T10:10:00.921Z</time></trkpt><trkpt lat="44.5913305" lon="10.0406846"><ele>968.0</ele><time>2026-04-11T10:10:02.921Z</time></trkpt><trkpt lat="44.5913554" lon="10.0407848"><ele>974.5000000000001</ele><time>2026-04-11T10:10:06.921Z</time></trkpt><trkpt lat="44.5914094" lon="10.0408627"><ele>981.0</ele><time>2026-04-11T10:10:09.921Z</time></trkpt><trkpt lat="44.5914757" lon="10.0409052"><ele>987.5</ele><time>2026-04-11T10:10:11.921Z</time></trkpt><trkpt lat="44.591528" lon="10.0410094"><ele>994.0</ele><time>2026-04-11T10:10:14.921Z</time></trkpt><trkpt lat="44.5915864" lon="10.0410763"><ele>1000.5000000000001</ele><time>2026-04-11T10:10:17.921Z</time></trkpt><trkpt lat="44.5916428" lon="10.0412214"><ele>1007.0</ele><time>2026-04-11T10:10:19.92Z</time></trkpt><trkpt lat="44.5916868" lon="10.0412906"><ele>1007.0000000000001</ele><time>2026-04-11T10:10:20.92Z</time></trkpt><trkpt lat="44.5917593" lon="10.0413489"><ele>1007.0</ele><time>2026-04-11T10:10:22.92Z</time></trkpt><trkpt lat="44.5917676" lon="10.0414471"><ele>1007.0</ele><time>2026-04-11T10:10:24.921Z</time></trkpt><trkpt lat="44.5918249" lon="10.0415548"><ele>1007.0</ele><time>2026-04-11T10:10:26.921Z</time></trkpt><trkpt lat="44.5918726" lon="10.0416192"><ele>1007.0000000000001</ele><time>2026-04-11T10:10:28.921Z</time></trkpt><trkpt lat="44.5919228" lon="10.0417045"><ele>1007.0</ele><time>2026-04-11T10:10:29.92Z</time></trkpt><trkpt lat="44.5919962" lon="10.0417938"><ele>1008.3333333333334</ele><time>2026-04-11T10:10:31.921Z</time></trkpt><trkpt lat="44.5920664" lon="10.0418715"><ele>1009.6666666666667</ele><time>2026-04-11T10:10:33.92Z</time></trkpt><trkpt lat="44.592137" lon="10.0418675"><ele>1011.0</ele><time>2026-04-11T10:10:35.922Z</time></trkpt><trkpt lat="44.5922056" lon="10.0419404"><ele>1012.3333333333333</ele><time>2026-04-11T10:10:38.921Z</time></trkpt><trkpt lat="44.5921474" lon="10.0420415"><ele>1013.6666666666666</ele><time>2026-04-11T10:10:41.92Z</time></trkpt><trkpt lat="44.5921187" lon="10.0421574"><ele>1015.0</ele><time>2026-04-11T10:10:43.92Z</time></trkpt><trkpt lat="44.5920875" lon="10.0422653"><ele>1014.9999999999999</ele><time>2026-04-11T10:10:45.921Z</time></trkpt><trkpt lat="44.59204" lon="10.042361"><ele>1015.0</ele><time>2026-04-11T10:10:47.921Z</time></trkpt><trkpt lat="44.5919998" lon="10.0424332"><ele>1015.0</ele><time>2026-04-11T10:10:49.92Z</time></trkpt><trkpt lat="44.5920598" lon="10.0424688"><ele>1015.0</ele><time>2026-04-11T10:10:56.92Z</time></trkpt><trkpt lat="44.5921064" lon="10.0426206"><ele>1014.9999999999999</ele><time>2026-04-11T10:10:58.921Z</time></trkpt><trkpt lat="44.5921318" lon="10.04277"><ele>1015.0</ele><time>2026-04-11T10:11:00.921Z</time></trkpt><trkpt lat="44.5920868" lon="10.0429563"><ele>1015.8333333333333</ele><time>2026-04-11T10:11:02.921Z</time></trkpt><trkpt lat="44.5920704" lon="10.0430548"><ele>1016.6666666666666</ele><time>2026-04-11T10:11:03.921Z</time></trkpt><trkpt lat="44.5920478" lon="10.0431718"><ele>1017.5</ele><time>2026-04-11T10:11:05.921Z</time></trkpt><trkpt lat="44.5920734" lon="10.0432596"><ele>1018.3333333333333</ele><time>2026-04-11T10:11:07.92Z</time></trkpt><trkpt lat="44.5921275" lon="10.0433279"><ele>1019.1666666666666</ele><time>2026-04-11T10:11:08.921Z</time></trkpt><trkpt lat="44.5921879" lon="10.0434623"><ele>1020.0</ele><time>2026-04-11T10:11:10.921Z</time></trkpt><trkpt lat="44.5922617" lon="10.0435418"><ele>1020.1428571428572</ele><time>2026-04-11T10:11:12.92Z</time></trkpt><trkpt lat="44.5923274" lon="10.0435519"><ele>1020.2857142857144</ele><time>2026-04-11T10:11:13.921Z</time></trkpt><trkpt lat="44.592387" lon="10.0435855"><ele>1020.4285714285714</ele><time>2026-04-11T10:11:14.921Z</time></trkpt><trkpt lat="44.5924562" lon="10.0436328"><ele>1020.5714285714287</ele><time>2026-04-11T10:11:15.921Z</time></trkpt><trkpt lat="44.5925164" lon="10.0436813"><ele>1020.7142857142858</ele><time>2026-04-11T10:11:16.921Z</time></trkpt><trkpt lat="44.5925611" lon="10.0437512"><ele>1020.8571428571429</ele><time>2026-04-11T10:11:17.921Z</time></trkpt><trkpt lat="44.5926069" lon="10.0438296"><ele>1021.0</ele><time>2026-04-11T10:11:18.921Z</time></trkpt><trkpt lat="44.5926443" lon="10.0439047"><ele>1021.0</ele><time>2026-04-11T10:11:19.921Z</time></trkpt><trkpt lat="44.592747" lon="10.0439921"><ele>1021.0</ele><time>2026-04-11T10:11:21.921Z</time></trkpt><trkpt lat="44.5928501" lon="10.0440472"><ele>1021.0</ele><time>2026-04-11T10:11:23.921Z</time></trkpt><trkpt lat="44.5929339" lon="10.0441603"><ele>1021.0</ele><time>2026-04-11T10:11:25.92Z</time></trkpt><trkpt lat="44.5930208" lon="10.0442478"><ele>1021.4</ele><time>2026-04-11T10:11:27.92Z</time></trkpt><trkpt lat="44.5931392" lon="10.0442972"><ele>1021.8</ele><time>2026-04-11T10:11:29.921Z</time></trkpt><trkpt lat="44.5932445" lon="10.0443204"><ele>1022.1999999999999</ele><time>2026-04-11T10:11:31.921Z</time></trkpt><trkpt lat="44.5933524" lon="10.0443378"><ele>1022.5999999999999</ele><time>2026-04-11T10:11:33.92Z</time></trkpt><trkpt lat="44.5934429" lon="10.0443521"><ele>1023.0</ele><time>2026-04-11T10:11:35.921Z</time></trkpt><trkpt lat="44.59353" lon="10.0443294"><ele>1023.0</ele><time>2026-04-11T10:11:37.921Z</time></trkpt><trkpt lat="44.5936241" lon="10.0442441"><ele>1023.0</ele><time>2026-04-11T10:11:39.921Z</time></trkpt><trkpt lat="44.5937094" lon="10.0442025"><ele>1023.0</ele><time>2026-04-11T10:11:41.921Z</time></trkpt><trkpt lat="44.5937898" lon="10.0441543"><ele>1023.0</ele><time>2026-04-11T10:11:43.92Z</time></trkpt><trkpt lat="44.593914" lon="10.0441626"><ele>1023.0</ele><time>2026-04-11T10:11:45.921Z</time></trkpt><trkpt lat="44.594031" lon="10.0441874"><ele>1023.0</ele><time>2026-04-11T10:11:47.921Z</time></trkpt><trkpt lat="44.5941349" lon="10.0441767"><ele>1023.0</ele><time>2026-04-11T10:11:49.921Z</time></trkpt><trkpt lat="44.5942252" lon="10.0442404"><ele>1023.0</ele><time>2026-04-11T10:11:51.921Z</time></trkpt><trkpt lat="44.5943067" lon="10.0443318"><ele>1023.0</ele><time>2026-04-11T10:11:53.921Z</time></trkpt><trkpt lat="44.5944043" lon="10.044368"><ele>1023.0</ele><time>2026-04-11T10:11:55.921Z</time></trkpt><trkpt lat="44.594515" lon="10.0443907"><ele>1022.4</ele><time>2026-04-11T10:11:57.921Z</time></trkpt><trkpt lat="44.5945966" lon="10.0444513"><ele>1021.8</ele><time>2026-04-11T10:11:59.921Z</time></trkpt><trkpt lat="44.5946357" lon="10.0445756"><ele>1021.2</ele><time>2026-04-11T10:12:01.921Z</time></trkpt><trkpt lat="44.5946195" lon="10.0446615"><ele>1020.6</ele><time>2026-04-11T10:12:02.92Z</time></trkpt><trkpt lat="44.5946109" lon="10.0448537"><ele>1020.0</ele><time>2026-04-11T10:12:04.921Z</time></trkpt><trkpt lat="44.5946012" lon="10.0449503"><ele>1020.2</ele><time>2026-04-11T10:12:05.92Z</time></trkpt><trkpt lat="44.5945966" lon="10.0450483"><ele>1020.4</ele><time>2026-04-11T10:12:06.921Z</time></trkpt><trkpt lat="44.5945918" lon="10.0451466"><ele>1020.5999999999999</ele><time>2026-04-11T10:12:07.922Z</time></trkpt><trkpt lat="44.5945875" lon="10.045252"><ele>1020.8</ele><time>2026-04-11T10:12:08.921Z</time></trkpt><trkpt lat="44.5946146" lon="10.0454073"><ele>1021.0</ele><time>2026-04-11T10:12:10.921Z</time></trkpt><trkpt lat="44.5945691" lon="10.0455764"><ele>1021.0</ele><time>2026-04-11T10:12:12.921Z</time></trkpt><trkpt lat="44.594542" lon="10.0456593"><ele>1021.0</ele><time>2026-04-11T10:12:13.921Z</time></trkpt><trkpt lat="44.5944786" lon="10.0457515"><ele>1021.0</ele><time>2026-04-11T10:12:14.921Z</time></trkpt><trkpt lat="44.5944399" lon="10.0458316"><ele>1021.0</ele><time>2026-04-11T10:12:15.921Z</time></trkpt><trkpt lat="44.5943973" lon="10.0459182"><ele>1021.0</ele><time>2026-04-11T10:12:16.921Z</time></trkpt><trkpt lat="44.594361" lon="10.0459949"><ele>1021.0</ele><time>2026-04-11T10:12:17.92Z</time></trkpt><trkpt lat="44.594317" lon="10.0460886"><ele>1021.0</ele><time>2026-04-11T10:12:18.92Z</time></trkpt><trkpt lat="44.5942846" lon="10.0461946"><ele>1021.1666666666666</ele><time>2026-04-11T10:12:19.92Z</time></trkpt><trkpt lat="44.5942488" lon="10.0462875"><ele>1021.3333333333333</ele><time>2026-04-11T10:12:20.92Z</time></trkpt><trkpt lat="44.5942238" lon="10.0463732"><ele>1021.5</ele><time>2026-04-11T10:12:21.92Z</time></trkpt><trkpt lat="44.5941674" lon="10.046536"><ele>1021.6666666666667</ele><time>2026-04-11T10:12:23.92Z</time></trkpt><trkpt lat="44.5941421" lon="10.0466174"><ele>1021.8333333333334</ele><time>2026-04-11T10:12:24.92Z</time></trkpt><trkpt lat="44.5941039" lon="10.0466967"><ele>1022.0</ele><time>2026-04-11T10:12:25.921Z</time></trkpt><trkpt lat="44.5940515" lon="10.0468022"><ele>1020.8</ele><time>2026-04-11T10:12:26.921Z</time></trkpt><trkpt lat="44.594022" lon="10.0469691"><ele>1019.6</ele><time>2026-04-11T10:12:28.921Z</time></trkpt><trkpt lat="44.5940029" lon="10.0471625"><ele>1018.3999999999999</ele><time>2026-04-11T10:12:30.921Z</time></trkpt><trkpt lat="44.5940087" lon="10.0472548"><ele>1017.1999999999999</ele><time>2026-04-11T10:12:31.922Z</time></trkpt><trkpt lat="44.5940054" lon="10.0473457"><ele>1016.0</ele><time>2026-04-11T10:12:32.921Z</time></trkpt><trkpt lat="44.5939783" lon="10.0474319"><ele>1014.8333333333334</ele><time>2026-04-11T10:12:33.921Z</time></trkpt><trkpt lat="44.5939498" lon="10.0475198"><ele>1013.6666666666667</ele><time>2026-04-11T10:12:34.921Z</time></trkpt><trkpt lat="44.5939277" lon="10.0476097"><ele>1012.5</ele><time>2026-04-11T10:12:35.921Z</time></trkpt><trkpt lat="44.5938923" lon="10.0477045"><ele>1011.3333333333333</ele><time>2026-04-11T10:12:36.921Z</time></trkpt><trkpt lat="44.5938469" lon="10.0478691"><ele>1010.1666666666666</ele><time>2026-04-11T10:12:38.921Z</time></trkpt><trkpt lat="44.5938158" lon="10.0479501"><ele>1009.0</ele><time>2026-04-11T10:12:39.921Z</time></trkpt><trkpt lat="44.5937868" lon="10.0480318"><ele>1009.0</ele><time>2026-04-11T10:12:40.921Z</time></trkpt><trkpt lat="44.5937524" lon="10.0481157"><ele>1009.0</ele><time>2026-04-11T10:12:41.921Z</time></trkpt><trkpt lat="44.5937238" lon="10.0482048"><ele>1009.0</ele><time>2026-04-11T10:12:42.921Z</time></trkpt><trkpt lat="44.5937083" lon="10.0482939"><ele>1009.0</ele><time>2026-04-11T10:12:43.921Z</time></trkpt><trkpt lat="44.5936683" lon="10.0483908"><ele>1009.0</ele><time>2026-04-11T10:12:44.921Z</time></trkpt><trkpt lat="44.5936236" lon="10.0484736"><ele>1009.0</ele><time>2026-04-11T10:12:45.921Z</time></trkpt><trkpt lat="44.5935839" lon="10.0485708"><ele>1009.0</ele><time>2026-04-11T10:12:46.92Z</time></trkpt><trkpt lat="44.5935206" lon="10.0486294"><ele>1008.4285714285714</ele><time>2026-04-11T10:12:47.921Z</time></trkpt><trkpt lat="44.5934605" lon="10.0486771"><ele>1007.8571428571429</ele><time>2026-04-11T10:12:48.921Z</time></trkpt><trkpt lat="44.5934009" lon="10.0487274"><ele>1007.2857142857143</ele><time>2026-04-11T10:12:49.921Z</time></trkpt><trkpt lat="44.593349" lon="10.0487857"><ele>1006.7142857142858</ele><time>2026-04-11T10:12:50.92Z</time></trkpt><trkpt lat="44.5932941" lon="10.0488466"><ele>1006.1428571428571</ele><time>2026-04-11T10:12:51.922Z</time></trkpt><trkpt lat="44.5932387" lon="10.048909"><ele>1005.5714285714287</ele><time>2026-04-11T10:12:52.921Z</time></trkpt><trkpt lat="44.5931834" lon="10.0489617"><ele>1005.0000000000001</ele><time>2026-04-11T10:12:53.921Z</time></trkpt><trkpt lat="44.5931209" lon="10.0490144"><ele>1005.0</ele><time>2026-04-11T10:12:54.92Z</time></trkpt><trkpt lat="44.5930585" lon="10.0490471"><ele>1005.0</ele><time>2026-04-11T10:12:55.921Z</time></trkpt><trkpt lat="44.5929374" lon="10.0490571"><ele>1005.0</ele><time>2026-04-11T10:12:57.921Z</time></trkpt><trkpt lat="44.592854" lon="10.0489512"><ele>1005.0</ele><time>2026-04-11T10:12:59.921Z</time></trkpt><trkpt lat="44.5928164" lon="10.0487883"><ele>1005.0</ele><time>2026-04-11T10:13:01.92Z</time></trkpt><trkpt lat="44.5927941" lon="10.0486091"><ele>1003.3333333333334</ele><time>2026-04-11T10:13:03.921Z</time></trkpt><trkpt lat="44.5927293" lon="10.0484649"><ele>1001.6666666666667</ele><time>2026-04-11T10:13:05.92Z</time></trkpt><trkpt lat="44.5926247" lon="10.048391"><ele>1000.0</ele><time>2026-04-11T10:13:07.921Z</time></trkpt><trkpt lat="44.5925583" lon="10.0483782"><ele>998.3333333333334</ele><time>2026-04-11T10:13:08.921Z</time></trkpt><trkpt lat="44.5924938" lon="10.0483891"><ele>996.6666666666667</ele><time>2026-04-11T10:13:09.921Z</time></trkpt><trkpt lat="44.5924238" lon="10.0484094"><ele>995.0</ele><time>2026-04-11T10:13:10.921Z</time></trkpt><trkpt lat="44.5923559" lon="10.0484408"><ele>995.0000000000001</ele><time>2026-04-11T10:13:11.921Z</time></trkpt><trkpt lat="44.5922949" lon="10.0484692"><ele>995.0</ele><time>2026-04-11T10:13:12.921Z</time></trkpt><trkpt lat="44.5921941" lon="10.0485158"><ele>995.0</ele><time>2026-04-11T10:13:14.92Z</time></trkpt><trkpt lat="44.5921159" lon="10.0485679"><ele>995.0</ele><time>2026-04-11T10:13:30.921Z</time></trkpt><trkpt lat="44.592051" lon="10.0486187"><ele>995.0000000000001</ele><time>2026-04-11T10:13:32.92Z</time></trkpt><trkpt lat="44.5919738" lon="10.0486123"><ele>995.0</ele><time>2026-04-11T10:13:34.921Z</time></trkpt><trkpt lat="44.5919134" lon="10.0484898"><ele>994.5714285714287</ele><time>2026-04-11T10:13:36.921Z</time></trkpt><trkpt lat="44.591867" lon="10.0484234"><ele>994.1428571428571</ele><time>2026-04-11T10:13:37.921Z</time></trkpt><trkpt lat="44.5918201" lon="10.0483571"><ele>993.7142857142858</ele><time>2026-04-11T10:13:38.921Z</time></trkpt><trkpt lat="44.5917471" lon="10.0482989"><ele>993.2857142857143</ele><time>2026-04-11T10:13:39.92Z</time></trkpt><trkpt lat="44.5916798" lon="10.0482646"><ele>992.8571428571429</ele><time>2026-04-11T10:13:40.92Z</time></trkpt><trkpt lat="44.5916227" lon="10.0482151"><ele>992.4285714285714</ele><time>2026-04-11T10:13:41.92Z</time></trkpt><trkpt lat="44.5915656" lon="10.0481696"><ele>992.0</ele><time>2026-04-11T10:13:42.919Z</time></trkpt><trkpt lat="44.5915103" lon="10.0481203"><ele>993.1428571428572</ele><time>2026-04-11T10:13:43.919Z</time></trkpt><trkpt lat="44.5914595" lon="10.0480561"><ele>994.2857142857144</ele><time>2026-04-11T10:13:44.92Z</time></trkpt><trkpt lat="44.5914207" lon="10.0479674"><ele>995.4285714285714</ele><time>2026-04-11T10:13:45.92Z</time></trkpt><trkpt lat="44.5913802" lon="10.0478861"><ele>996.5714285714287</ele><time>2026-04-11T10:13:46.92Z</time></trkpt><trkpt lat="44.5913334" lon="10.0478075"><ele>997.7142857142858</ele><time>2026-04-11T10:13:47.919Z</time></trkpt><trkpt lat="44.5912891" lon="10.0477273"><ele>998.8571428571429</ele><time>2026-04-11T10:13:48.919Z</time></trkpt><trkpt lat="44.591242" lon="10.0476548"><ele>1000.0</ele><time>2026-04-11T10:13:49.92Z</time></trkpt><trkpt lat="44.5912036" lon="10.0475745"><ele>997.4999999999999</ele><time>2026-04-11T10:13:50.92Z</time></trkpt><trkpt lat="44.5911678" lon="10.047488"><ele>995.0</ele><time>2026-04-11T10:13:51.92Z</time></trkpt><trkpt lat="44.5911326" lon="10.0473987"><ele>992.5</ele><time>2026-04-11T10:13:52.92Z</time></trkpt><trkpt lat="44.5911008" lon="10.0473101"><ele>990.0</ele><time>2026-04-11T10:13:53.92Z</time></trkpt><trkpt lat="44.5910655" lon="10.0472289"><ele>987.4999999999999</ele><time>2026-04-11T10:13:54.92Z</time></trkpt><trkpt lat="44.5910771" lon="10.0470558"><ele>985.0</ele><time>2026-04-11T10:13:56.92Z</time></trkpt><trkpt lat="44.5910622" lon="10.0468792"><ele>984.9999999999999</ele><time>2026-04-11T10:13:58.919Z</time></trkpt><trkpt lat="44.5910621" lon="10.046785"><ele>985.0</ele><time>2026-04-11T10:13:59.92Z</time></trkpt><trkpt lat="44.5910323" lon="10.0466988"><ele>985.0</ele><time>2026-04-11T10:14:00.92Z</time></trkpt><trkpt lat="44.5910072" lon="10.046605"><ele>985.0</ele><time>2026-04-11T10:14:01.92Z</time></trkpt><trkpt lat="44.5909666" lon="10.0465216"><ele>984.9999999999999</ele><time>2026-04-11T10:14:02.92Z</time></trkpt><trkpt lat="44.5908865" lon="10.0464068"><ele>985.0</ele><time>2026-04-11T10:14:04.919Z</time></trkpt><trkpt lat="44.5908316" lon="10.0463149"><ele>984.8333333333333</ele><time>2026-04-11T10:14:05.92Z</time></trkpt><trkpt lat="44.5907987" lon="10.046232"><ele>984.6666666666666</ele><time>2026-04-11T10:14:06.92Z</time></trkpt><trkpt lat="44.590776" lon="10.0461437"><ele>984.5</ele><time>2026-04-11T10:14:07.92Z</time></trkpt><trkpt lat="44.5908021" lon="10.0460284"><ele>984.3333333333333</ele><time>2026-04-11T10:14:08.92Z</time></trkpt><trkpt lat="44.5907922" lon="10.0459407"><ele>984.1666666666666</ele><time>2026-04-11T10:14:09.92Z</time></trkpt><trkpt lat="44.5907749" lon="10.0457824"><ele>984.0</ele><time>2026-04-11T10:14:11.919Z</time></trkpt><trkpt lat="44.5907534" lon="10.0456395"><ele>985.6666666666666</ele><time>2026-04-11T10:14:13.92Z</time></trkpt><trkpt lat="44.5907004" lon="10.0455481"><ele>987.3333333333333</ele><time>2026-04-11T10:14:15.92Z</time></trkpt><trkpt lat="44.5906194" lon="10.0454829"><ele>989.0</ele><time>2026-04-11T10:14:16.92Z</time></trkpt><trkpt lat="44.5905556" lon="10.0454275"><ele>990.6666666666666</ele><time>2026-04-11T10:14:17.92Z</time></trkpt><trkpt lat="44.5905026" lon="10.0453797"><ele>992.3333333333333</ele><time>2026-04-11T10:14:18.92Z</time></trkpt><trkpt lat="44.5904446" lon="10.0453298"><ele>994.0</ele><time>2026-04-11T10:14:19.92Z</time></trkpt><trkpt lat="44.5903844" lon="10.0452841"><ele>993.6666666666666</ele><time>2026-04-11T10:14:20.919Z</time></trkpt><trkpt lat="44.5903288" lon="10.0452133"><ele>993.3333333333333</ele><time>2026-04-11T10:14:21.92Z</time></trkpt><trkpt lat="44.5902696" lon="10.0451508"><ele>993.0</ele><time>2026-04-11T10:14:22.92Z</time></trkpt><trkpt lat="44.590204" lon="10.0450845"><ele>992.6666666666667</ele><time>2026-04-11T10:14:23.92Z</time></trkpt><trkpt lat="44.5900999" lon="10.0449717"><ele>992.3333333333334</ele><time>2026-04-11T10:14:25.92Z</time></trkpt><trkpt lat="44.5900415" lon="10.0449208"><ele>992.0</ele><time>2026-04-11T10:14:26.921Z</time></trkpt><trkpt lat="44.5899845" lon="10.0448701"><ele>992.0000000000001</ele><time>2026-04-11T10:14:27.92Z</time></trkpt><trkpt lat="44.5899148" lon="10.0448039"><ele>992.0</ele><time>2026-04-11T10:14:28.92Z</time></trkpt><trkpt lat="44.5898591" lon="10.0447447"><ele>992.0</ele><time>2026-04-11T10:14:29.92Z</time></trkpt><trkpt lat="44.5897907" lon="10.0446986"><ele>992.0</ele><time>2026-04-11T10:14:30.92Z</time></trkpt><trkpt lat="44.5897308" lon="10.0446209"><ele>992.0000000000001</ele><time>2026-04-11T10:14:31.92Z</time></trkpt><trkpt lat="44.5896682" lon="10.0445561"><ele>992.0</ele><time>2026-04-11T10:14:32.92Z</time></trkpt><trkpt lat="44.5896028" lon="10.0444952"><ele>992.0000000000001</ele><time>2026-04-11T10:14:33.92Z</time></trkpt><trkpt lat="44.5895495" lon="10.0444273"><ele>992.0</ele><time>2026-04-11T10:14:34.92Z</time></trkpt><trkpt lat="44.5894877" lon="10.044386"><ele>992.0</ele><time>2026-04-11T10:14:35.919Z</time></trkpt><trkpt lat="44.5894311" lon="10.0443253"><ele>992.0</ele><time>2026-04-11T10:14:36.919Z</time></trkpt><trkpt lat="44.5893691" lon="10.044265"><ele>992.0000000000001</ele><time>2026-04-11T10:14:37.92Z</time></trkpt><trkpt lat="44.5893098" lon="10.0441497"><ele>992.0</ele><time>2026-04-11T10:14:39.92Z</time></trkpt><trkpt lat="44.5892643" lon="10.0440787"><ele>990.0000000000001</ele><time>2026-04-11T10:14:41.919Z</time></trkpt><trkpt lat="44.5891963" lon="10.0441023"><ele>988.0</ele><time>2026-04-11T10:14:44.92Z</time></trkpt><trkpt lat="44.5892196" lon="10.0442317"><ele>986.0</ele><time>2026-04-11T10:14:48.92Z</time></trkpt><trkpt lat="44.5892545" lon="10.0443339"><ele>984.0</ele><time>2026-04-11T10:14:49.92Z</time></trkpt><trkpt lat="44.5892981" lon="10.0444768"><ele>982.0000000000001</ele><time>2026-04-11T10:14:51.919Z</time></trkpt><trkpt lat="44.5893245" lon="10.0445758"><ele>980.0</ele><time>2026-04-11T10:14:52.92Z</time></trkpt><trkpt lat="44.5893636" lon="10.0447035"><ele>978.4</ele><time>2026-04-11T10:14:53.92Z</time></trkpt><trkpt lat="44.5893995" lon="10.0448558"><ele>976.8</ele><time>2026-04-11T10:14:55.919Z</time></trkpt><trkpt lat="44.5894443" lon="10.0450576"><ele>975.2</ele><time>2026-04-11T10:14:57.92Z</time></trkpt><trkpt lat="44.5894494" lon="10.0451609"><ele>973.6</ele><time>2026-04-11T10:14:58.92Z</time></trkpt><trkpt lat="44.5894394" lon="10.0452667"><ele>972.0</ele><time>2026-04-11T10:14:59.92Z</time></trkpt><trkpt lat="44.5894263" lon="10.0454006"><ele>969.0</ele><time>2026-04-11T10:15:01.92Z</time></trkpt><trkpt lat="44.5893397" lon="10.0454452"><ele>966.0</ele><time>2026-04-11T10:15:02.92Z</time></trkpt><trkpt lat="44.5892836" lon="10.0452613"><ele>963.0</ele><time>2026-04-11T10:15:03.92Z</time></trkpt><trkpt lat="44.5892625" lon="10.0451513"><ele>960.0</ele><time>2026-04-11T10:15:06.92Z</time></trkpt><trkpt lat="44.5892372" lon="10.0450395"><ele>957.0</ele><time>2026-04-11T10:15:08.921Z</time></trkpt><trkpt lat="44.5891342" lon="10.0449872"><ele>959.5</ele><time>2026-04-11T10:15:09.92Z</time></trkpt><trkpt lat="44.5890758" lon="10.0449316"><ele>962.0</ele><time>2026-04-11T10:15:10.919Z</time></trkpt><trkpt lat="44.589013" lon="10.0448881"><ele>964.5</ele><time>2026-04-11T10:15:11.919Z</time></trkpt><trkpt lat="44.5889523" lon="10.0448306"><ele>967.0</ele><time>2026-04-11T10:15:12.92Z</time></trkpt><trkpt lat="44.588893" lon="10.0447806"><ele>969.5</ele><time>2026-04-11T10:15:13.92Z</time></trkpt><trkpt lat="44.5887585" lon="10.0447087"><ele>972.0</ele><time>2026-04-11T10:15:15.92Z</time></trkpt><trkpt lat="44.5887026" lon="10.0447756"><ele>967.6</ele><time>2026-04-11T10:15:16.919Z</time></trkpt><trkpt lat="44.588602" lon="10.0447736"><ele>963.2</ele><time>2026-04-11T10:15:18.92Z</time></trkpt><trkpt lat="44.5884715" lon="10.0447482"><ele>958.8</ele><time>2026-04-11T10:15:20.92Z</time></trkpt><trkpt lat="44.5883676" lon="10.0447013"><ele>954.4</ele><time>2026-04-11T10:15:21.919Z</time></trkpt><trkpt lat="44.5882827" lon="10.0447239"><ele>950.0</ele><time>2026-04-11T10:15:23.92Z</time></trkpt><trkpt lat="44.5882214" lon="10.0447528"><ele>950.0</ele><time>2026-04-11T10:15:24.92Z</time></trkpt><trkpt lat="44.5881577" lon="10.0447736"><ele>950.0</ele><time>2026-04-11T10:15:25.92Z</time></trkpt><trkpt lat="44.5880802" lon="10.0449514"><ele>950.0</ele><time>2026-04-11T10:15:27.919Z</time></trkpt><trkpt lat="44.5880327" lon="10.0450321"><ele>950.0</ele><time>2026-04-11T10:15:28.92Z</time></trkpt><trkpt lat="44.5879598" lon="10.0451384"><ele>950.0</ele><time>2026-04-11T10:15:30.92Z</time></trkpt><trkpt lat="44.587885" lon="10.0452114"><ele>943.8</ele><time>2026-04-11T10:15:32.92Z</time></trkpt><trkpt lat="44.5878177" lon="10.0452657"><ele>937.6</ele><time>2026-04-11T10:15:34.92Z</time></trkpt><trkpt lat="44.5877954" lon="10.0453931"><ele>931.4000000000001</ele><time>2026-04-11T10:15:36.92Z</time></trkpt><trkpt lat="44.5877472" lon="10.0454872"><ele>925.2</ele><time>2026-04-11T10:15:38.92Z</time></trkpt><trkpt lat="44.5876188" lon="10.0455125"><ele>919.0</ele><time>2026-04-11T10:15:40.919Z</time></trkpt><trkpt lat="44.5875234" lon="10.0455372"><ele>919.0</ele><time>2026-04-11T10:15:42.921Z</time></trkpt><trkpt lat="44.5874043" lon="10.0455364"><ele>919.0000000000001</ele><time>2026-04-11T10:15:44.92Z</time></trkpt><trkpt lat="44.5872995" lon="10.0455532"><ele>919.0000000000001</ele><time>2026-04-11T10:15:46.92Z</time></trkpt><trkpt lat="44.5871983" lon="10.0455639"><ele>919.0</ele><time>2026-04-11T10:15:49.919Z</time></trkpt><trkpt lat="44.5871125" lon="10.045567"><ele>919.0</ele><time>2026-04-11T10:16:43.92Z</time></trkpt><trkpt lat="44.5870973" lon="10.0456855"><ele>919.1666666666666</ele><time>2026-04-11T10:16:46.919Z</time></trkpt><trkpt lat="44.5870983" lon="10.0458023"><ele>919.3333333333333</ele><time>2026-04-11T10:16:48.92Z</time></trkpt><trkpt lat="44.5871085" lon="10.0459038"><ele>919.5</ele><time>2026-04-11T10:16:49.92Z</time></trkpt><trkpt lat="44.5871344" lon="10.0459902"><ele>919.6666666666667</ele><time>2026-04-11T10:16:50.92Z</time></trkpt><trkpt lat="44.5872248" lon="10.0460212"><ele>919.8333333333334</ele><time>2026-04-11T10:16:52.919Z</time></trkpt><trkpt lat="44.5873167" lon="10.0461081"><ele>920.0</ele><time>2026-04-11T10:16:54.919Z</time></trkpt><trkpt lat="44.5873248" lon="10.0462103"><ele>920.0000000000001</ele><time>2026-04-11T10:16:55.92Z</time></trkpt><trkpt lat="44.5873551" lon="10.0463315"><ele>920.0</ele><time>2026-04-11T10:16:57.919Z</time></trkpt><trkpt lat="44.5873675" lon="10.046459"><ele>920.0</ele><time>2026-04-11T10:16:58.92Z</time></trkpt><trkpt lat="44.587378" lon="10.046558"><ele>920.0</ele><time>2026-04-11T10:16:59.92Z</time></trkpt><trkpt lat="44.5873874" lon="10.0466529"><ele>920.0000000000001</ele><time>2026-04-11T10:17:00.92Z</time></trkpt><trkpt lat="44.587396" lon="10.0467429"><ele>920.0</ele><time>2026-04-11T10:17:01.919Z</time></trkpt><trkpt lat="44.5874137" lon="10.0468887"><ele>918.7142857142856</ele><time>2026-04-11T10:17:03.92Z</time></trkpt><trkpt lat="44.5874543" lon="10.0469682"><ele>917.4285714285713</ele><time>2026-04-11T10:17:04.92Z</time></trkpt><trkpt lat="44.5874888" lon="10.0470448"><ele>916.1428571428571</ele><time>2026-04-11T10:17:05.919Z</time></trkpt><trkpt lat="44.5875443" lon="10.0471157"><ele>914.8571428571428</ele><time>2026-04-11T10:17:06.92Z</time></trkpt><trkpt lat="44.587599" lon="10.0471831"><ele>913.5714285714284</ele><time>2026-04-11T10:17:07.92Z</time></trkpt><trkpt lat="44.5876538" lon="10.0472397"><ele>912.2857142857143</ele><time>2026-04-11T10:17:08.92Z</time></trkpt><trkpt lat="44.5876927" lon="10.0473101"><ele>911.0</ele><time>2026-04-11T10:17:09.92Z</time></trkpt><trkpt lat="44.5877464" lon="10.0473962"><ele>911.0000000000001</ele><time>2026-04-11T10:17:11.92Z</time></trkpt><trkpt lat="44.5876975" lon="10.047464"><ele>911.0</ele><time>2026-04-11T10:17:14.92Z</time></trkpt><trkpt lat="44.5876301" lon="10.0474463"><ele>911.0</ele><time>2026-04-11T10:17:16.92Z</time></trkpt><trkpt lat="44.5875527" lon="10.0474106"><ele>911.0</ele><time>2026-04-11T10:17:18.92Z</time></trkpt><trkpt lat="44.5874543" lon="10.0473942"><ele>911.0000000000001</ele><time>2026-04-11T10:17:20.92Z</time></trkpt><trkpt lat="44.5873309" lon="10.0473907"><ele>911.0</ele><time>2026-04-11T10:17:22.92Z</time></trkpt><trkpt lat="44.5872556" lon="10.0473828"><ele>911.0000000000001</ele><time>2026-04-11T10:17:23.919Z</time></trkpt><trkpt lat="44.5871767" lon="10.0473696"><ele>911.0</ele><time>2026-04-11T10:17:24.92Z</time></trkpt><trkpt lat="44.5870948" lon="10.0473621"><ele>911.0</ele><time>2026-04-11T10:17:25.92Z</time></trkpt><trkpt lat="44.5870106" lon="10.0473482"><ele>911.0</ele><time>2026-04-11T10:17:26.92Z</time></trkpt><trkpt lat="44.5869216" lon="10.0473372"><ele>911.0000000000001</ele><time>2026-04-11T10:17:27.919Z</time></trkpt><trkpt lat="44.5868288" lon="10.0473245"><ele>911.0</ele><time>2026-04-11T10:17:28.919Z</time></trkpt><trkpt lat="44.5867279" lon="10.0473143"><ele>907.1999999999999</ele><time>2026-04-11T10:17:29.92Z</time></trkpt><trkpt lat="44.5866205" lon="10.047308"><ele>903.3999999999999</ele><time>2026-04-11T10:17:30.92Z</time></trkpt><trkpt lat="44.5865251" lon="10.0472916"><ele>899.6</ele><time>2026-04-11T10:17:31.92Z</time></trkpt><trkpt lat="44.5864279" lon="10.0472744"><ele>895.8</ele><time>2026-04-11T10:17:32.92Z</time></trkpt><trkpt lat="44.5863291" lon="10.0472651"><ele>892.0</ele><time>2026-04-11T10:17:33.92Z</time></trkpt><trkpt lat="44.586271" lon="10.0471696"><ele>891.9999999999999</ele><time>2026-04-11T10:17:34.92Z</time></trkpt><trkpt lat="44.5862256" lon="10.0470804"><ele>892.0</ele><time>2026-04-11T10:17:35.92Z</time></trkpt><trkpt lat="44.5862067" lon="10.0469648"><ele>892.0</ele><time>2026-04-11T10:17:36.92Z</time></trkpt><trkpt lat="44.5862091" lon="10.0468413"><ele>892.0</ele><time>2026-04-11T10:17:37.92Z</time></trkpt><trkpt lat="44.5862266" lon="10.0467115"><ele>891.9999999999999</ele><time>2026-04-11T10:17:38.92Z</time></trkpt><trkpt lat="44.5862513" lon="10.0465782"><ele>892.0</ele><time>2026-04-11T10:17:39.92Z</time></trkpt><trkpt lat="44.5862777" lon="10.0464386"><ele>890.8</ele><time>2026-04-11T10:17:40.92Z</time></trkpt><trkpt lat="44.5863078" lon="10.0462971"><ele>889.6</ele><time>2026-04-11T10:17:41.92Z</time></trkpt><trkpt lat="44.5863494" lon="10.0461564"><ele>888.3999999999999</ele><time>2026-04-11T10:17:42.92Z</time></trkpt><trkpt lat="44.5863905" lon="10.0460147"><ele>887.1999999999999</ele><time>2026-04-11T10:17:43.919Z</time></trkpt><trkpt lat="44.5864335" lon="10.0458743"><ele>886.0</ele><time>2026-04-11T10:17:44.92Z</time></trkpt><trkpt lat="44.5864903" lon="10.0457382"><ele>882.0</ele><time>2026-04-11T10:17:45.92Z</time></trkpt><trkpt lat="44.5865529" lon="10.0456067"><ele>878.0</ele><time>2026-04-11T10:17:46.919Z</time></trkpt><trkpt lat="44.5866233" lon="10.0454787"><ele>874.0</ele><time>2026-04-11T10:17:47.92Z</time></trkpt><trkpt lat="44.5866921" lon="10.0453443"><ele>870.0</ele><time>2026-04-11T10:17:48.92Z</time></trkpt><trkpt lat="44.5867505" lon="10.0451958"><ele>870.0</ele><time>2026-04-11T10:17:49.919Z</time></trkpt><trkpt lat="44.5867933" lon="10.0450344"><ele>870.0</ele><time>2026-04-11T10:17:50.92Z</time></trkpt><trkpt lat="44.5868296" lon="10.0448668"><ele>870.0</ele><time>2026-04-11T10:17:51.919Z</time></trkpt><trkpt lat="44.5868601" lon="10.0446941"><ele>870.0</ele><time>2026-04-11T10:17:52.919Z</time></trkpt><trkpt lat="44.5868877" lon="10.0445227"><ele>866.5</ele><time>2026-04-11T10:17:53.92Z</time></trkpt><trkpt lat="44.5869143" lon="10.0443526"><ele>863.0</ele><time>2026-04-11T10:17:54.92Z</time></trkpt><trkpt lat="44.5869372" lon="10.0441795"><ele>859.5</ele><time>2026-04-11T10:17:55.92Z</time></trkpt><trkpt lat="44.5869512" lon="10.0440055"><ele>856.0</ele><time>2026-04-11T10:17:56.92Z</time></trkpt><trkpt lat="44.5869551" lon="10.0438358"><ele>855.3333333333333</ele><time>2026-04-11T10:17:57.919Z</time></trkpt><trkpt lat="44.5869518" lon="10.0434927"><ele>854.6666666666667</ele><time>2026-04-11T10:17:59.919Z</time></trkpt><trkpt lat="44.586971" lon="10.0433255"><ele>854.0</ele><time>2026-04-11T10:18:00.92Z</time></trkpt><trkpt lat="44.5870025" lon="10.0431625"><ele>854.0</ele><time>2026-04-11T10:18:01.92Z</time></trkpt><trkpt lat="44.5870236" lon="10.0430032"><ele>854.0</ele><time>2026-04-11T10:18:02.92Z</time></trkpt><trkpt lat="44.5870273" lon="10.0428408"><ele>854.0</ele><time>2026-04-11T10:18:03.919Z</time></trkpt><trkpt lat="44.5870071" lon="10.0426868"><ele>854.0</ele><time>2026-04-11T10:18:04.92Z</time></trkpt><trkpt lat="44.5869703" lon="10.0425425"><ele>855.6</ele><time>2026-04-11T10:18:05.92Z</time></trkpt><trkpt lat="44.5869162" lon="10.0424023"><ele>857.2</ele><time>2026-04-11T10:18:06.92Z</time></trkpt><trkpt lat="44.5868602" lon="10.0422668"><ele>858.8000000000001</ele><time>2026-04-11T10:18:07.92Z</time></trkpt><trkpt lat="44.5868103" lon="10.0421304"><ele>860.4000000000001</ele><time>2026-04-11T10:18:08.92Z</time></trkpt><trkpt lat="44.5867661" lon="10.0419894"><ele>862.0</ele><time>2026-04-11T10:18:09.92Z</time></trkpt><trkpt lat="44.5867251" lon="10.0418468"><ele>862.0</ele><time>2026-04-11T10:18:10.92Z</time></trkpt><trkpt lat="44.5866925" lon="10.041704"><ele>862.0</ele><time>2026-04-11T10:18:11.92Z</time></trkpt><trkpt lat="44.5866653" lon="10.0415577"><ele>862.0</ele><time>2026-04-11T10:18:12.919Z</time></trkpt><trkpt lat="44.5866519" lon="10.0414062"><ele>862.0</ele><time>2026-04-11T10:18:13.92Z</time></trkpt><trkpt lat="44.5866611" lon="10.0412506"><ele>862.0</ele><time>2026-04-11T10:18:14.919Z</time></trkpt><trkpt lat="44.586679" lon="10.0410911"><ele>861.0</ele><time>2026-04-11T10:18:15.92Z</time></trkpt><trkpt lat="44.5866985" lon="10.0409294"><ele>860.0</ele><time>2026-04-11T10:18:16.919Z</time></trkpt><trkpt lat="44.5867193" lon="10.0407696"><ele>859.0</ele><time>2026-04-11T10:18:17.92Z</time></trkpt><trkpt lat="44.5867366" lon="10.0406082"><ele>858.0</ele><time>2026-04-11T10:18:18.919Z</time></trkpt><trkpt lat="44.586755" lon="10.0404468"><ele>854.25</ele><time>2026-04-11T10:18:19.92Z</time></trkpt><trkpt lat="44.5867846" lon="10.0402877"><ele>850.5</ele><time>2026-04-11T10:18:20.92Z</time></trkpt><trkpt lat="44.58683" lon="10.0401368"><ele>846.75</ele><time>2026-04-11T10:18:21.92Z</time></trkpt><trkpt lat="44.5869001" lon="10.0400055"><ele>843.0</ele><time>2026-04-11T10:18:22.92Z</time></trkpt><trkpt lat="44.5869793" lon="10.0398869"><ele>846.6666666666667</ele><time>2026-04-11T10:18:23.919Z</time></trkpt><trkpt lat="44.5870589" lon="10.0397699"><ele>850.3333333333334</ele><time>2026-04-11T10:18:24.92Z</time></trkpt><trkpt lat="44.5871394" lon="10.0396536"><ele>854.0</ele><time>2026-04-11T10:18:25.919Z</time></trkpt><trkpt lat="44.5872976" lon="10.0394236"><ele>854.0</ele><time>2026-04-11T10:18:27.92Z</time></trkpt><trkpt lat="44.587366" lon="10.0393083"><ele>854.0000000000001</ele><time>2026-04-11T10:18:28.92Z</time></trkpt><trkpt lat="44.5874226" lon="10.039184"><ele>854.0000000000001</ele><time>2026-04-11T10:18:29.92Z</time></trkpt><trkpt lat="44.587471" lon="10.0390518"><ele>854.0</ele><time>2026-04-11T10:18:30.919Z</time></trkpt><trkpt lat="44.5875049" lon="10.0389134"><ele>854.0</ele><time>2026-04-11T10:18:31.92Z</time></trkpt><trkpt lat="44.5875302" lon="10.0387685"><ele>850.0</ele><time>2026-04-11T10:18:32.92Z</time></trkpt><trkpt lat="44.587556" lon="10.0386238"><ele>846.0</ele><time>2026-04-11T10:18:33.919Z</time></trkpt><trkpt lat="44.5876" lon="10.0383277"><ele>842.0</ele><time>2026-04-11T10:18:35.921Z</time></trkpt><trkpt lat="44.5876256" lon="10.0381791"><ele>838.0</ele><time>2026-04-11T10:18:36.92Z</time></trkpt><trkpt lat="44.5876488" lon="10.0380268"><ele>836.2</ele><time>2026-04-11T10:18:37.921Z</time></trkpt><trkpt lat="44.5876716" lon="10.0378724"><ele>834.4</ele><time>2026-04-11T10:18:38.92Z</time></trkpt><trkpt lat="44.5876936" lon="10.0377194"><ele>832.6</ele><time>2026-04-11T10:18:39.919Z</time></trkpt><trkpt lat="44.587716" lon="10.0375708"><ele>830.8000000000001</ele><time>2026-04-11T10:18:40.92Z</time></trkpt><trkpt lat="44.5877428" lon="10.0374243"><ele>829.0</ele><time>2026-04-11T10:18:41.92Z</time></trkpt><trkpt lat="44.5877785" lon="10.0372631"><ele>828.4000000000001</ele><time>2026-04-11T10:18:42.919Z</time></trkpt><trkpt lat="44.5877877" lon="10.0371272"><ele>827.8</ele><time>2026-04-11T10:18:43.919Z</time></trkpt><trkpt lat="44.5878046" lon="10.0369782"><ele>827.2</ele><time>2026-04-11T10:18:44.919Z</time></trkpt><trkpt lat="44.5878138" lon="10.0368341"><ele>826.5999999999999</ele><time>2026-04-11T10:18:45.919Z</time></trkpt><trkpt lat="44.5878022" lon="10.0366879"><ele>826.0</ele><time>2026-04-11T10:18:46.92Z</time></trkpt><trkpt lat="44.5877742" lon="10.0365496"><ele>825.4</ele><time>2026-04-11T10:18:47.92Z</time></trkpt><trkpt lat="44.5877285" lon="10.0364228"><ele>824.8</ele><time>2026-04-11T10:18:48.919Z</time></trkpt><trkpt lat="44.5876769" lon="10.0362951"><ele>824.1999999999999</ele><time>2026-04-11T10:18:49.919Z</time></trkpt><trkpt lat="44.5876301" lon="10.0361664"><ele>823.5999999999999</ele><time>2026-04-11T10:18:50.919Z</time></trkpt><trkpt lat="44.5875907" lon="10.0360288"><ele>823.0</ele><time>2026-04-11T10:18:51.92Z</time></trkpt><trkpt lat="44.587576" lon="10.035884"><ele>822.0</ele><time>2026-04-11T10:18:52.92Z</time></trkpt><trkpt lat="44.5875743" lon="10.0357377"><ele>821.0</ele><time>2026-04-11T10:18:53.92Z</time></trkpt><trkpt lat="44.5875874" lon="10.0355921"><ele>820.0</ele><time>2026-04-11T10:18:54.919Z</time></trkpt><trkpt lat="44.5876107" lon="10.0354476"><ele>819.0</ele><time>2026-04-11T10:18:55.919Z</time></trkpt><trkpt lat="44.5876315" lon="10.0353206"><ele>818.0</ele><time>2026-04-11T10:18:56.919Z</time></trkpt><trkpt lat="44.5876337" lon="10.0352055"><ele>818.0000000000001</ele><time>2026-04-11T10:18:57.92Z</time></trkpt><trkpt lat="44.5876205" lon="10.0351059"><ele>818.0</ele><time>2026-04-11T10:18:58.92Z</time></trkpt><trkpt lat="44.5875801" lon="10.0349759"><ele>818.0</ele><time>2026-04-11T10:19:00.92Z</time></trkpt><trkpt lat="44.5875715" lon="10.0348848"><ele>818.0</ele><time>2026-04-11T10:19:11.92Z</time></trkpt><trkpt lat="44.5876093" lon="10.0347988"><ele>818.0000000000001</ele><time>2026-04-11T10:19:13.92Z</time></trkpt><trkpt lat="44.5876811" lon="10.0347624"><ele>818.0</ele><time>2026-04-11T10:19:14.92Z</time></trkpt><trkpt lat="44.5877892" lon="10.0346647"><ele>818.3333333333334</ele><time>2026-04-11T10:19:16.92Z</time></trkpt><trkpt lat="44.5878528" lon="10.0346116"><ele>818.6666666666667</ele><time>2026-04-11T10:19:17.92Z</time></trkpt><trkpt lat="44.5879194" lon="10.0345461"><ele>819.0</ele><time>2026-04-11T10:19:18.92Z</time></trkpt><trkpt lat="44.587988" lon="10.0344763"><ele>819.3333333333333</ele><time>2026-04-11T10:19:19.919Z</time></trkpt><trkpt lat="44.5880689" lon="10.034408"><ele>819.6666666666666</ele><time>2026-04-11T10:19:20.919Z</time></trkpt><trkpt lat="44.5881486" lon="10.0343287"><ele>820.0</ele><time>2026-04-11T10:19:21.919Z</time></trkpt><trkpt lat="44.5882284" lon="10.0342434"><ele>820.0</ele><time>2026-04-11T10:19:22.919Z</time></trkpt><trkpt lat="44.5883099" lon="10.0341601"><ele>820.0</ele><time>2026-04-11T10:19:23.919Z</time></trkpt><trkpt lat="44.5883945" lon="10.0340819"><ele>820.0</ele><time>2026-04-11T10:19:24.919Z</time></trkpt><trkpt lat="44.5884816" lon="10.0340024"><ele>820.0</ele><time>2026-04-11T10:19:25.92Z</time></trkpt><trkpt lat="44.5885643" lon="10.0339177"><ele>820.0</ele><time>2026-04-11T10:19:26.92Z</time></trkpt><trkpt lat="44.5886485" lon="10.033833"><ele>819.4</ele><time>2026-04-11T10:19:27.92Z</time></trkpt><trkpt lat="44.5887323" lon="10.0337473"><ele>818.8</ele><time>2026-04-11T10:19:28.92Z</time></trkpt><trkpt lat="44.5888217" lon="10.033657"><ele>818.2</ele><time>2026-04-11T10:19:29.919Z</time></trkpt><trkpt lat="44.5889108" lon="10.0335652"><ele>817.6</ele><time>2026-04-11T10:19:30.92Z</time></trkpt><trkpt lat="44.5890042" lon="10.0334703"><ele>817.0</ele><time>2026-04-11T10:19:31.92Z</time></trkpt><trkpt lat="44.5890941" lon="10.0333808"><ele>817.0</ele><time>2026-04-11T10:19:32.92Z</time></trkpt><trkpt lat="44.5891837" lon="10.033307"><ele>817.0</ele><time>2026-04-11T10:19:33.92Z</time></trkpt><trkpt lat="44.5892852" lon="10.0332755"><ele>817.0</ele><time>2026-04-11T10:19:34.92Z</time></trkpt><trkpt lat="44.5893902" lon="10.0332915"><ele>817.0</ele><time>2026-04-11T10:19:35.92Z</time></trkpt><trkpt lat="44.5894928" lon="10.0333261"><ele>817.0</ele><time>2026-04-11T10:19:36.92Z</time></trkpt><trkpt lat="44.5895979" lon="10.0333673"><ele>815.6</ele><time>2026-04-11T10:19:37.919Z</time></trkpt><trkpt lat="44.5897029" lon="10.0334116"><ele>814.2</ele><time>2026-04-11T10:19:38.92Z</time></trkpt><trkpt lat="44.589803" lon="10.0334431"><ele>812.8</ele><time>2026-04-11T10:19:39.919Z</time></trkpt><trkpt lat="44.5899021" lon="10.0334651"><ele>811.4</ele><time>2026-04-11T10:19:40.919Z</time></trkpt><trkpt lat="44.590002" lon="10.0334759"><ele>810.0</ele><time>2026-04-11T10:19:41.92Z</time></trkpt><trkpt lat="44.5900957" lon="10.0334602"><ele>810.0</ele><time>2026-04-11T10:19:42.92Z</time></trkpt><trkpt lat="44.5901875" lon="10.0334197"><ele>810.0</ele><time>2026-04-11T10:19:43.92Z</time></trkpt><trkpt lat="44.5902729" lon="10.0333589"><ele>810.0</ele><time>2026-04-11T10:19:44.92Z</time></trkpt><trkpt lat="44.5903577" lon="10.0332939"><ele>810.0</ele><time>2026-04-11T10:19:45.92Z</time></trkpt><trkpt lat="44.5904449" lon="10.0332377"><ele>810.0</ele><time>2026-04-11T10:19:46.92Z</time></trkpt><trkpt lat="44.5905315" lon="10.0331867"><ele>808.0</ele><time>2026-04-11T10:19:47.92Z</time></trkpt><trkpt lat="44.5906201" lon="10.033142"><ele>806.0</ele><time>2026-04-11T10:19:48.92Z</time></trkpt><trkpt lat="44.5907142" lon="10.0330918"><ele>804.0</ele><time>2026-04-11T10:19:49.919Z</time></trkpt><trkpt lat="44.5908068" lon="10.0330364"><ele>802.0</ele><time>2026-04-11T10:19:50.92Z</time></trkpt><trkpt lat="44.5908942" lon="10.0329807"><ele>800.0</ele><time>2026-04-11T10:19:51.92Z</time></trkpt><trkpt lat="44.5909693" lon="10.0329056"><ele>800.0</ele><time>2026-04-11T10:19:52.919Z</time></trkpt><trkpt lat="44.5910287" lon="10.0328043"><ele>800.0</ele><time>2026-04-11T10:19:53.92Z</time></trkpt><trkpt lat="44.5910814" lon="10.032693"><ele>800.0</ele><time>2026-04-11T10:19:54.919Z</time></trkpt><trkpt lat="44.5911267" lon="10.032569"><ele>800.0</ele><time>2026-04-11T10:19:55.921Z</time></trkpt><trkpt lat="44.5911737" lon="10.0324348"><ele>800.0</ele><time>2026-04-11T10:19:56.92Z</time></trkpt><trkpt lat="44.5912285" lon="10.0322999"><ele>798.0</ele><time>2026-04-11T10:19:57.92Z</time></trkpt><trkpt lat="44.5912831" lon="10.0321629"><ele>796.0</ele><time>2026-04-11T10:19:58.92Z</time></trkpt><trkpt lat="44.5913418" lon="10.0320271"><ele>794.0</ele><time>2026-04-11T10:19:59.92Z</time></trkpt><trkpt lat="44.5914097" lon="10.0319001"><ele>792.0</ele><time>2026-04-11T10:20:00.92Z</time></trkpt><trkpt lat="44.5914865" lon="10.0317889"><ele>790.0</ele><time>2026-04-11T10:20:01.92Z</time></trkpt><trkpt lat="44.5915659" lon="10.0316856"><ele>789.6</ele><time>2026-04-11T10:20:02.92Z</time></trkpt><trkpt lat="44.591648" lon="10.0315887"><ele>789.2</ele><time>2026-04-11T10:20:03.92Z</time></trkpt><trkpt lat="44.5917358" lon="10.0315077"><ele>788.8</ele><time>2026-04-11T10:20:04.92Z</time></trkpt><trkpt lat="44.5918305" lon="10.031437"><ele>788.4</ele><time>2026-04-11T10:20:05.92Z</time></trkpt><trkpt lat="44.5919238" lon="10.0313729"><ele>788.0</ele><time>2026-04-11T10:20:06.919Z</time></trkpt><trkpt lat="44.59201" lon="10.0313032"><ele>786.1666666666667</ele><time>2026-04-11T10:20:07.919Z</time></trkpt><trkpt lat="44.5920762" lon="10.0312141"><ele>784.3333333333334</ele><time>2026-04-11T10:20:08.92Z</time></trkpt><trkpt lat="44.5921119" lon="10.031105"><ele>782.5</ele><time>2026-04-11T10:20:09.92Z</time></trkpt><trkpt lat="44.5921155" lon="10.0309894"><ele>780.6666666666667</ele><time>2026-04-11T10:20:10.919Z</time></trkpt><trkpt lat="44.592104" lon="10.0308734"><ele>778.8333333333334</ele><time>2026-04-11T10:20:11.921Z</time></trkpt><trkpt lat="44.5920812" lon="10.0307535"><ele>777.0</ele><time>2026-04-11T10:20:12.92Z</time></trkpt><trkpt lat="44.5920433" lon="10.0306325"><ele>777.8</ele><time>2026-04-11T10:20:13.919Z</time></trkpt><trkpt lat="44.5920013" lon="10.0305238"><ele>778.6</ele><time>2026-04-11T10:20:14.919Z</time></trkpt><trkpt lat="44.5919496" lon="10.0304151"><ele>779.4</ele><time>2026-04-11T10:20:15.919Z</time></trkpt><trkpt lat="44.591895" lon="10.030309"><ele>780.1999999999999</ele><time>2026-04-11T10:20:16.919Z</time></trkpt><trkpt lat="44.5918434" lon="10.0301963"><ele>781.0</ele><time>2026-04-11T10:20:17.92Z</time></trkpt><trkpt lat="44.5917996" lon="10.0300758"><ele>779.8</ele><time>2026-04-11T10:20:18.92Z</time></trkpt><trkpt lat="44.5917652" lon="10.0299462"><ele>778.5999999999999</ele><time>2026-04-11T10:20:19.919Z</time></trkpt><trkpt lat="44.5917524" lon="10.0298104"><ele>777.4</ele><time>2026-04-11T10:20:20.919Z</time></trkpt><trkpt lat="44.5917697" lon="10.0296799"><ele>776.2</ele><time>2026-04-11T10:20:21.919Z</time></trkpt><trkpt lat="44.5918121" lon="10.0295564"><ele>775.0</ele><time>2026-04-11T10:20:22.92Z</time></trkpt><trkpt lat="44.5918577" lon="10.0294393"><ele>775.0</ele><time>2026-04-11T10:20:23.92Z</time></trkpt><trkpt lat="44.5919048" lon="10.0293145"><ele>775.0</ele><time>2026-04-11T10:20:24.919Z</time></trkpt><trkpt lat="44.5919491" lon="10.0291886"><ele>775.0</ele><time>2026-04-11T10:20:25.92Z</time></trkpt><trkpt lat="44.5919921" lon="10.0290612"><ele>775.0</ele><time>2026-04-11T10:20:26.92Z</time></trkpt><trkpt lat="44.5920408" lon="10.0289346"><ele>775.0</ele><time>2026-04-11T10:20:27.92Z</time></trkpt><trkpt lat="44.5920888" lon="10.0288055"><ele>774.0</ele><time>2026-04-11T10:20:28.92Z</time></trkpt><trkpt lat="44.5921369" lon="10.0286725"><ele>773.0</ele><time>2026-04-11T10:20:29.92Z</time></trkpt><trkpt lat="44.5921886" lon="10.0285374"><ele>772.0</ele><time>2026-04-11T10:20:30.919Z</time></trkpt><trkpt lat="44.5922348" lon="10.0283993"><ele>771.0</ele><time>2026-04-11T10:20:31.92Z</time></trkpt><trkpt lat="44.5922775" lon="10.0282656"><ele>770.0</ele><time>2026-04-11T10:20:32.92Z</time></trkpt><trkpt lat="44.5923234" lon="10.0281377"><ele>770.0</ele><time>2026-04-11T10:20:33.919Z</time></trkpt><trkpt lat="44.5923679" lon="10.0280158"><ele>770.0</ele><time>2026-04-11T10:20:34.92Z</time></trkpt><trkpt lat="44.5924119" lon="10.0278987"><ele>770.0</ele><time>2026-04-11T10:20:35.92Z</time></trkpt><trkpt lat="44.5924541" lon="10.0277847"><ele>770.0</ele><time>2026-04-11T10:20:36.92Z</time></trkpt><trkpt lat="44.5924941" lon="10.0276796"><ele>770.0</ele><time>2026-04-11T10:20:37.92Z</time></trkpt><trkpt lat="44.5925305" lon="10.0275747"><ele>770.0</ele><time>2026-04-11T10:20:38.919Z</time></trkpt><trkpt lat="44.5925686" lon="10.027478"><ele>770.0</ele><time>2026-04-11T10:20:39.92Z</time></trkpt><trkpt lat="44.5926062" lon="10.0273836"><ele>770.0</ele><time>2026-04-11T10:20:40.92Z</time></trkpt><trkpt lat="44.5926388" lon="10.0272881"><ele>770.0</ele><time>2026-04-11T10:20:41.92Z</time></trkpt><trkpt lat="44.5926637" lon="10.027191"><ele>770.0</ele><time>2026-04-11T10:20:42.919Z</time></trkpt><trkpt lat="44.5926878" lon="10.0270951"><ele>770.0</ele><time>2026-04-11T10:20:43.92Z</time></trkpt><trkpt lat="44.592708" lon="10.0270008"><ele>770.0</ele><time>2026-04-11T10:20:44.92Z</time></trkpt><trkpt lat="44.5927223" lon="10.0269047"><ele>769.1428571428571</ele><time>2026-04-11T10:20:45.92Z</time></trkpt><trkpt lat="44.592732" lon="10.0268113"><ele>768.2857142857142</ele><time>2026-04-11T10:20:46.92Z</time></trkpt><trkpt lat="44.5927381" lon="10.0267172"><ele>767.4285714285714</ele><time>2026-04-11T10:20:47.919Z</time></trkpt><trkpt lat="44.5927409" lon="10.0266246"><ele>766.5714285714286</ele><time>2026-04-11T10:20:48.92Z</time></trkpt><trkpt lat="44.592744" lon="10.0265344"><ele>765.7142857142857</ele><time>2026-04-11T10:20:49.921Z</time></trkpt><trkpt lat="44.5927188" lon="10.0264071"><ele>764.8571428571429</ele><time>2026-04-11T10:20:51.919Z</time></trkpt><trkpt lat="44.5926761" lon="10.0263214"><ele>764.0</ele><time>2026-04-11T10:20:55.919Z</time></trkpt><trkpt lat="44.5926431" lon="10.026203"><ele>763.0</ele><time>2026-04-11T10:20:58.92Z</time></trkpt><trkpt lat="44.5926021" lon="10.0260852"><ele>762.0</ele><time>2026-04-11T10:21:00.919Z</time></trkpt><trkpt lat="44.592548" lon="10.0259397"><ele>761.0</ele><time>2026-04-11T10:21:02.92Z</time></trkpt><trkpt lat="44.5924853" lon="10.0257922"><ele>760.0</ele><time>2026-04-11T10:21:04.92Z</time></trkpt><trkpt lat="44.5924159" lon="10.0256708"><ele>759.0</ele><time>2026-04-11T10:21:06.92Z</time></trkpt><trkpt lat="44.5923621" lon="10.0255317"><ele>757.6</ele><time>2026-04-11T10:21:08.92Z</time></trkpt><trkpt lat="44.5923457" lon="10.0253634"><ele>756.2</ele><time>2026-04-11T10:21:10.919Z</time></trkpt><trkpt lat="44.5923488" lon="10.0252731"><ele>754.8000000000001</ele><time>2026-04-11T10:21:11.92Z</time></trkpt><trkpt lat="44.5923509" lon="10.0250978"><ele>753.4000000000001</ele><time>2026-04-11T10:21:13.92Z</time></trkpt><trkpt lat="44.5923101" lon="10.024941"><ele>752.0</ele><time>2026-04-11T10:21:15.919Z</time></trkpt><trkpt lat="44.5923129" lon="10.0247731"><ele>750.5</ele><time>2026-04-11T10:21:17.92Z</time></trkpt><trkpt lat="44.5923104" lon="10.0246041"><ele>749.0</ele><time>2026-04-11T10:21:19.92Z</time></trkpt><trkpt lat="44.5923055" lon="10.0245128"><ele>747.5</ele><time>2026-04-11T10:21:20.92Z</time></trkpt><trkpt lat="44.5922948" lon="10.0244236"><ele>746.0</ele><time>2026-04-11T10:21:21.92Z</time></trkpt><trkpt lat="44.5922735" lon="10.0243251"><ele>744.5</ele><time>2026-04-11T10:21:22.92Z</time></trkpt><trkpt lat="44.5922544" lon="10.0242365"><ele>743.0</ele><time>2026-04-11T10:21:23.92Z</time></trkpt><trkpt lat="44.5922079" lon="10.0240676"><ele>740.8</ele><time>2026-04-11T10:21:25.92Z</time></trkpt><trkpt lat="44.5921627" lon="10.023939"><ele>738.5999999999999</ele><time>2026-04-11T10:21:27.92Z</time></trkpt><trkpt lat="44.5921207" lon="10.0238138"><ele>736.4000000000001</ele><time>2026-04-11T10:21:29.919Z</time></trkpt><trkpt lat="44.5920792" lon="10.0236559"><ele>734.2</ele><time>2026-04-11T10:21:31.92Z</time></trkpt><trkpt lat="44.5920501" lon="10.0234899"><ele>732.0</ele><time>2026-04-11T10:21:33.92Z</time></trkpt><trkpt lat="44.5920405" lon="10.0233985"><ele>730.0</ele><time>2026-04-11T10:21:34.92Z</time></trkpt><trkpt lat="44.5920277" lon="10.0233117"><ele>728.0</ele><time>2026-04-11T10:21:35.921Z</time></trkpt><trkpt lat="44.592018" lon="10.0232211"><ele>726.0</ele><time>2026-04-11T10:21:36.92Z</time></trkpt><trkpt lat="44.5920054" lon="10.0231209"><ele>724.0</ele><time>2026-04-11T10:21:37.919Z</time></trkpt><trkpt lat="44.5919877" lon="10.0230194"><ele>722.0</ele><time>2026-04-11T10:21:38.919Z</time></trkpt><trkpt lat="44.5919651" lon="10.0229123"><ele>720.0</ele><time>2026-04-11T10:21:39.919Z</time></trkpt><trkpt lat="44.5919406" lon="10.0228007"><ele>718.0</ele><time>2026-04-11T10:21:40.919Z</time></trkpt><trkpt lat="44.5919172" lon="10.0226834"><ele>718.0</ele><time>2026-04-11T10:21:41.92Z</time></trkpt><trkpt lat="44.5918959" lon="10.0225661"><ele>718.0</ele><time>2026-04-11T10:21:42.92Z</time></trkpt><trkpt lat="44.5918831" lon="10.0224615"><ele>718.0</ele><time>2026-04-11T10:21:43.92Z</time></trkpt><trkpt lat="44.5918708" lon="10.0223457"><ele>718.0</ele><time>2026-04-11T10:21:44.92Z</time></trkpt><trkpt lat="44.5918474" lon="10.0222235"><ele>718.0</ele><time>2026-04-11T10:21:45.92Z</time></trkpt><trkpt lat="44.5918279" lon="10.0221152"><ele>718.0</ele><time>2026-04-11T10:21:46.92Z</time></trkpt><trkpt lat="44.5918116" lon="10.0220075"><ele>717.6666666666667</ele><time>2026-04-11T10:21:47.92Z</time></trkpt><trkpt lat="44.5917928" lon="10.021911"><ele>717.3333333333334</ele><time>2026-04-11T10:21:48.92Z</time></trkpt><trkpt lat="44.5917738" lon="10.0218211"><ele>717.0</ele><time>2026-04-11T10:21:49.92Z</time></trkpt><trkpt lat="44.5917367" lon="10.0216532"><ele>716.6666666666666</ele><time>2026-04-11T10:21:51.92Z</time></trkpt><trkpt lat="44.5917135" lon="10.0215634"><ele>716.3333333333333</ele><time>2026-04-11T10:21:52.92Z</time></trkpt><trkpt lat="44.5916883" lon="10.0214758"><ele>716.0</ele><time>2026-04-11T10:21:53.92Z</time></trkpt><trkpt lat="44.5916554" lon="10.0213851"><ele>716.0</ele><time>2026-04-11T10:21:54.92Z</time></trkpt><trkpt lat="44.5916064" lon="10.0212386"><ele>716.0</ele><time>2026-04-11T10:21:56.92Z</time></trkpt><trkpt lat="44.5915705" lon="10.0211312"><ele>716.0</ele><time>2026-04-11T10:21:58.92Z</time></trkpt><trkpt lat="44.5915509" lon="10.0210296"><ele>716.0</ele><time>2026-04-11T10:22:00.92Z</time></trkpt><trkpt lat="44.5915581" lon="10.020912"><ele>716.0</ele><time>2026-04-11T10:22:02.92Z</time></trkpt><trkpt lat="44.5915899" lon="10.0207787"><ele>714.6666666666666</ele><time>2026-04-11T10:22:04.919Z</time></trkpt><trkpt lat="44.5916306" lon="10.0206245"><ele>713.3333333333333</ele><time>2026-04-11T10:22:06.92Z</time></trkpt><trkpt lat="44.5916428" lon="10.0205361"><ele>712.0</ele><time>2026-04-11T10:22:07.919Z</time></trkpt><trkpt lat="44.5916087" lon="10.0203847"><ele>710.6666666666666</ele><time>2026-04-11T10:22:09.92Z</time></trkpt><trkpt lat="44.5915849" lon="10.0202956"><ele>709.3333333333334</ele><time>2026-04-11T10:22:10.92Z</time></trkpt><trkpt lat="44.591547" lon="10.0202043"><ele>708.0</ele><time>2026-04-11T10:22:11.921Z</time></trkpt><trkpt lat="44.5915083" lon="10.0201099"><ele>708.0</ele><time>2026-04-11T10:22:12.92Z</time></trkpt><trkpt lat="44.5914656" lon="10.0200129"><ele>708.0</ele><time>2026-04-11T10:22:13.919Z</time></trkpt><trkpt lat="44.5914245" lon="10.0199101"><ele>708.0</ele><time>2026-04-11T10:22:14.92Z</time></trkpt><trkpt lat="44.5913772" lon="10.0198024"><ele>708.0</ele><time>2026-04-11T10:22:15.92Z</time></trkpt><trkpt lat="44.591337" lon="10.0197072"><ele>708.0</ele><time>2026-04-11T10:22:16.92Z</time></trkpt><trkpt lat="44.5912831" lon="10.0195556"><ele>706.5999999999999</ele><time>2026-04-11T10:22:18.92Z</time></trkpt><trkpt lat="44.5912231" lon="10.0194042"><ele>705.1999999999999</ele><time>2026-04-11T10:22:20.92Z</time></trkpt><trkpt lat="44.5912051" lon="10.0193112"><ele>703.8</ele><time>2026-04-11T10:22:21.92Z</time></trkpt><trkpt lat="44.5911509" lon="10.0191589"><ele>702.4</ele><time>2026-04-11T10:22:23.92Z</time></trkpt><trkpt lat="44.5911131" lon="10.0190804"><ele>701.0</ele><time>2026-04-11T10:22:24.92Z</time></trkpt><trkpt lat="44.59107" lon="10.0190023"><ele>701.0</ele><time>2026-04-11T10:22:25.92Z</time></trkpt><trkpt lat="44.591048" lon="10.0189176"><ele>701.0</ele><time>2026-04-11T10:22:26.92Z</time></trkpt><trkpt lat="44.5910413" lon="10.0187588"><ele>701.0</ele><time>2026-04-11T10:22:28.92Z</time></trkpt><trkpt lat="44.591037" lon="10.0186422"><ele>701.0</ele><time>2026-04-11T10:22:30.92Z</time></trkpt><trkpt lat="44.5910222" lon="10.0185253"><ele>701.0</ele><time>2026-04-11T10:22:32.92Z</time></trkpt><trkpt lat="44.5909979" lon="10.0184361"><ele>701.0</ele><time>2026-04-11T10:22:35.92Z</time></trkpt><trkpt lat="44.5910499" lon="10.0183669"><ele>701.0</ele><time>2026-04-11T10:24:53.919Z</time></trkpt><trkpt lat="44.590999" lon="10.0184249"><ele>701.0</ele><time>2026-04-11T10:25:22.919Z</time></trkpt><trkpt lat="44.5909954" lon="10.0183356"><ele>701.0</ele><time>2026-04-11T10:25:52.919Z</time></trkpt><trkpt lat="44.5909692" lon="10.0182357"><ele>701.0</ele><time>2026-04-11T10:25:54.919Z</time></trkpt><trkpt lat="44.590926" lon="10.0181625"><ele>701.0</ele><time>2026-04-11T10:25:55.919Z</time></trkpt><trkpt lat="44.5908762" lon="10.018105"><ele>701.0</ele><time>2026-04-11T10:25:56.919Z</time></trkpt><trkpt lat="44.5908262" lon="10.0180277"><ele>701.0</ele><time>2026-04-11T10:25:57.919Z</time></trkpt><trkpt lat="44.59078" lon="10.0179404"><ele>700.4285714285714</ele><time>2026-04-11T10:25:58.919Z</time></trkpt><trkpt lat="44.5907363" lon="10.0178526"><ele>699.8571428571428</ele><time>2026-04-11T10:25:59.918Z</time></trkpt><trkpt lat="44.5906928" lon="10.0177608"><ele>699.2857142857142</ele><time>2026-04-11T10:26:00.918Z</time></trkpt><trkpt lat="44.5906543" lon="10.0176785"><ele>698.7142857142858</ele><time>2026-04-11T10:26:01.918Z</time></trkpt><trkpt lat="44.5906216" lon="10.0175952"><ele>698.1428571428571</ele><time>2026-04-11T10:26:02.919Z</time></trkpt><trkpt lat="44.5905864" lon="10.0175153"><ele>697.5714285714286</ele><time>2026-04-11T10:26:03.919Z</time></trkpt><trkpt lat="44.5905588" lon="10.0174277"><ele>697.0</ele><time>2026-04-11T10:26:04.919Z</time></trkpt><trkpt lat="44.5905362" lon="10.0173349"><ele>696.0</ele><time>2026-04-11T10:26:05.919Z</time></trkpt><trkpt lat="44.5905134" lon="10.0172489"><ele>695.0</ele><time>2026-04-11T10:26:06.918Z</time></trkpt><trkpt lat="44.5904986" lon="10.0171516"><ele>694.0</ele><time>2026-04-11T10:26:08.919Z</time></trkpt><trkpt lat="44.590471" lon="10.0170379"><ele>693.0</ele><time>2026-04-11T10:26:13.919Z</time></trkpt><trkpt lat="44.5904479" lon="10.0169473"><ele>692.0</ele><time>2026-04-11T10:26:16.919Z</time></trkpt><trkpt lat="44.5904273" lon="10.0168437"><ele>691.0</ele><time>2026-04-11T10:26:18.919Z</time></trkpt><trkpt lat="44.5904153" lon="10.016733"><ele>690.0</ele><time>2026-04-11T10:26:19.919Z</time></trkpt><trkpt lat="44.5903825" lon="10.0165892"><ele>688.8333333333334</ele><time>2026-04-11T10:26:21.919Z</time></trkpt><trkpt lat="44.5903996" lon="10.0164668"><ele>687.6666666666666</ele><time>2026-04-11T10:26:23.919Z</time></trkpt><trkpt lat="44.5904177" lon="10.0163228"><ele>686.5</ele><time>2026-04-11T10:26:25.919Z</time></trkpt><trkpt lat="44.5904293" lon="10.0162352"><ele>685.3333333333333</ele><time>2026-04-11T10:26:26.918Z</time></trkpt><trkpt lat="44.5904541" lon="10.0160882"><ele>684.1666666666666</ele><time>2026-04-11T10:26:28.919Z</time></trkpt><trkpt lat="44.5904769" lon="10.0159976"><ele>683.0</ele><time>2026-04-11T10:26:29.919Z</time></trkpt><trkpt lat="44.5904914" lon="10.0158418"><ele>681.5</ele><time>2026-04-11T10:26:31.919Z</time></trkpt><trkpt lat="44.590463" lon="10.015737"><ele>680.0</ele><time>2026-04-11T10:26:33.919Z</time></trkpt><trkpt lat="44.5904489" lon="10.0156426"><ele>678.5</ele><time>2026-04-11T10:26:35.919Z</time></trkpt><trkpt lat="44.5904129" lon="10.0154619"><ele>677.0</ele><time>2026-04-11T10:26:37.919Z</time></trkpt><trkpt lat="44.5903527" lon="10.0153769"><ele>675.5</ele><time>2026-04-11T10:26:38.918Z</time></trkpt><trkpt lat="44.590291" lon="10.0153066"><ele>674.0</ele><time>2026-04-11T10:26:39.918Z</time></trkpt><trkpt lat="44.5902361" lon="10.0152545"><ele>674.0</ele><time>2026-04-11T10:26:40.919Z</time></trkpt><trkpt lat="44.5901806" lon="10.0151757"><ele>674.0</ele><time>2026-04-11T10:26:42.919Z</time></trkpt><trkpt lat="44.5901055" lon="10.0150814"><ele>674.0</ele><time>2026-04-11T10:26:44.919Z</time></trkpt><trkpt lat="44.5900256" lon="10.015046"><ele>674.0</ele><time>2026-04-11T10:26:46.919Z</time></trkpt><trkpt lat="44.5900051" lon="10.0149576"><ele>674.0</ele><time>2026-04-11T10:26:48.919Z</time></trkpt><trkpt lat="44.5899673" lon="10.0148507"><ele>674.0</ele><time>2026-04-11T10:26:50.919Z</time></trkpt><trkpt lat="44.5899198" lon="10.0146852"><ele>671.8333333333333</ele><time>2026-04-11T10:26:52.919Z</time></trkpt><trkpt lat="44.5898943" lon="10.0145463"><ele>669.6666666666666</ele><time>2026-04-11T10:26:54.92Z</time></trkpt><trkpt lat="44.5898664" lon="10.0144216"><ele>667.5</ele><time>2026-04-11T10:26:56.919Z</time></trkpt><trkpt lat="44.5898534" lon="10.0143139"><ele>665.3333333333334</ele><time>2026-04-11T10:27:03.918Z</time></trkpt><trkpt lat="44.5898304" lon="10.0142136"><ele>663.1666666666667</ele><time>2026-04-11T10:27:06.918Z</time></trkpt><trkpt lat="44.5897976" lon="10.0141026"><ele>661.0</ele><time>2026-04-11T10:27:09.918Z</time></trkpt><trkpt lat="44.5897837" lon="10.013995"><ele>658.0</ele><time>2026-04-11T10:27:11.918Z</time></trkpt><trkpt lat="44.5897587" lon="10.0138679"><ele>655.0</ele><time>2026-04-11T10:27:13.917Z</time></trkpt><trkpt lat="44.5897298" lon="10.0137178"><ele>652.0</ele><time>2026-04-11T10:27:15.918Z</time></trkpt><trkpt lat="44.5897152" lon="10.0135813"><ele>649.0</ele><time>2026-04-11T10:27:17.918Z</time></trkpt><trkpt lat="44.5897062" lon="10.0134466"><ele>646.0</ele><time>2026-04-11T10:27:19.919Z</time></trkpt><trkpt lat="44.5896745" lon="10.0133145"><ele>643.1666666666667</ele><time>2026-04-11T10:27:21.917Z</time></trkpt><trkpt lat="44.5896122" lon="10.0132002"><ele>640.3333333333334</ele><time>2026-04-11T10:27:23.917Z</time></trkpt><trkpt lat="44.5895594" lon="10.0130974"><ele>637.5</ele><time>2026-04-11T10:27:25.917Z</time></trkpt><trkpt lat="44.5895315" lon="10.0130032"><ele>634.6666666666666</ele><time>2026-04-11T10:27:27.917Z</time></trkpt><trkpt lat="44.5895573" lon="10.0128767"><ele>631.8333333333333</ele><time>2026-04-11T10:27:37.918Z</time></trkpt><trkpt lat="44.5895334" lon="10.0127762"><ele>629.0</ele><time>2026-04-11T10:27:39.918Z</time></trkpt><trkpt lat="44.5894896" lon="10.0126962"><ele>629.0</ele><time>2026-04-11T10:27:41.918Z</time></trkpt><trkpt lat="44.5894647" lon="10.0126097"><ele>629.0</ele><time>2026-04-11T10:27:43.918Z</time></trkpt><trkpt lat="44.5894526" lon="10.0124614"><ele>629.0</ele><time>2026-04-11T10:27:45.918Z</time></trkpt><trkpt lat="44.5894788" lon="10.0123731"><ele>629.0</ele><time>2026-04-11T10:27:47.918Z</time></trkpt><trkpt lat="44.5895081" lon="10.0122499"><ele>629.0</ele><time>2026-04-11T10:27:49.919Z</time></trkpt><trkpt lat="44.5895121" lon="10.0121256"><ele>629.0</ele><time>2026-04-11T10:27:51.918Z</time></trkpt><trkpt lat="44.5895085" lon="10.0119828"><ele>625.6</ele><time>2026-04-11T10:27:53.917Z</time></trkpt><trkpt lat="44.5895379" lon="10.0118169"><ele>622.2</ele><time>2026-04-11T10:27:55.918Z</time></trkpt><trkpt lat="44.5895538" lon="10.0117219"><ele>618.8000000000001</ele><time>2026-04-11T10:27:56.918Z</time></trkpt><trkpt lat="44.5895568" lon="10.0116268"><ele>615.4</ele><time>2026-04-11T10:27:57.918Z</time></trkpt><trkpt lat="44.5895354" lon="10.0114802"><ele>612.0</ele><time>2026-04-11T10:27:59.917Z</time></trkpt><trkpt lat="44.5894819" lon="10.0113548"><ele>611.0</ele><time>2026-04-11T10:28:01.918Z</time></trkpt><trkpt lat="44.589415" lon="10.0112303"><ele>610.0</ele><time>2026-04-11T10:28:03.918Z</time></trkpt><trkpt lat="44.5893455" lon="10.011094"><ele>609.0</ele><time>2026-04-11T10:28:05.918Z</time></trkpt><trkpt lat="44.5892691" lon="10.0109615"><ele>608.0</ele><time>2026-04-11T10:28:07.918Z</time></trkpt><trkpt lat="44.5892019" lon="10.0108506"><ele>605.0</ele><time>2026-04-11T10:28:09.917Z</time></trkpt><trkpt lat="44.5891493" lon="10.0107676"><ele>602.0</ele><time>2026-04-11T10:28:11.918Z</time></trkpt><trkpt lat="44.5890797" lon="10.0106829"><ele>599.0</ele><time>2026-04-11T10:28:13.917Z</time></trkpt><trkpt lat="44.5890098" lon="10.0105762"><ele>596.0</ele><time>2026-04-11T10:28:15.918Z</time></trkpt><trkpt lat="44.5889436" lon="10.0104421"><ele>593.0</ele><time>2026-04-11T10:28:17.918Z</time></trkpt><trkpt lat="44.5889098" lon="10.010362"><ele>593.0</ele><time>2026-04-11T10:28:18.918Z</time></trkpt><trkpt lat="44.5888793" lon="10.0102828"><ele>593.0</ele><time>2026-04-11T10:28:19.918Z</time></trkpt><trkpt lat="44.5888537" lon="10.010202"><ele>593.0</ele><time>2026-04-11T10:28:20.918Z</time></trkpt><trkpt lat="44.5888341" lon="10.0101157"><ele>593.0</ele><time>2026-04-11T10:28:21.918Z</time></trkpt><trkpt lat="44.5888177" lon="10.0099708"><ele>593.0</ele><time>2026-04-11T10:28:23.918Z</time></trkpt><trkpt lat="44.5888211" lon="10.0098311"><ele>593.0</ele><time>2026-04-11T10:28:25.918Z</time></trkpt><trkpt lat="44.5888463" lon="10.0096946"><ele>589.0</ele><time>2026-04-11T10:28:27.918Z</time></trkpt><trkpt lat="44.5888733" lon="10.0095695"><ele>585.0</ele><time>2026-04-11T10:28:29.917Z</time></trkpt><trkpt lat="44.5888475" lon="10.0094684"><ele>581.0</ele><time>2026-04-11T10:28:31.918Z</time></trkpt><trkpt lat="44.5887993" lon="10.009362"><ele>577.0</ele><time>2026-04-11T10:28:33.918Z</time></trkpt><trkpt lat="44.5887508" lon="10.0092156"><ele>573.0</ele><time>2026-04-11T10:28:35.918Z</time></trkpt><trkpt lat="44.5887119" lon="10.0090638"><ele>569.4</ele><time>2026-04-11T10:28:37.917Z</time></trkpt><trkpt lat="44.5886751" lon="10.0089281"><ele>565.8</ele><time>2026-04-11T10:28:39.918Z</time></trkpt><trkpt lat="44.5886449" lon="10.0087865"><ele>562.2</ele><time>2026-04-11T10:28:41.918Z</time></trkpt><trkpt lat="44.588627" lon="10.0086341"><ele>558.6</ele><time>2026-04-11T10:28:43.917Z</time></trkpt><trkpt lat="44.5885809" lon="10.0084977"><ele>555.0</ele><time>2026-04-11T10:28:45.918Z</time></trkpt><trkpt lat="44.5884968" lon="10.00839"><ele>552.8</ele><time>2026-04-11T10:28:47.917Z</time></trkpt><trkpt lat="44.5884176" lon="10.0082744"><ele>550.6</ele><time>2026-04-11T10:28:49.918Z</time></trkpt><trkpt lat="44.5883605" lon="10.0081599"><ele>548.4</ele><time>2026-04-11T10:28:51.918Z</time></trkpt><trkpt lat="44.5883616" lon="10.0080413"><ele>546.2</ele><time>2026-04-11T10:28:53.917Z</time></trkpt><trkpt lat="44.5883262" lon="10.0079284"><ele>544.0</ele><time>2026-04-11T10:28:55.917Z</time></trkpt><trkpt lat="44.5882853" lon="10.0078341"><ele>544.0</ele><time>2026-04-11T10:28:57.917Z</time></trkpt><trkpt lat="44.5882499" lon="10.0077399"><ele>544.0</ele><time>2026-04-11T10:28:59.918Z</time></trkpt><trkpt lat="44.5882199" lon="10.0076438"><ele>544.0</ele><time>2026-04-11T10:29:01.917Z</time></trkpt><trkpt lat="44.5881845" lon="10.0075497"><ele>544.0</ele><time>2026-04-11T10:29:03.918Z</time></trkpt><trkpt lat="44.5881561" lon="10.0074401"><ele>544.0</ele><time>2026-04-11T10:29:05.918Z</time></trkpt><trkpt lat="44.5881231" lon="10.0073208"><ele>544.0</ele><time>2026-04-11T10:29:07.918Z</time></trkpt><trkpt lat="44.5881367" lon="10.0072027"><ele>542.8</ele><time>2026-04-11T10:29:10.919Z</time></trkpt><trkpt lat="44.5881315" lon="10.0070865"><ele>541.5999999999999</ele><time>2026-04-11T10:29:35.918Z</time></trkpt><trkpt lat="44.588115" lon="10.0069668"><ele>540.4</ele><time>2026-04-11T10:29:38.918Z</time></trkpt><trkpt lat="44.5880793" lon="10.0068426"><ele>539.1999999999999</ele><time>2026-04-11T10:29:40.918Z</time></trkpt><trkpt lat="44.5880604" lon="10.006685"><ele>538.0</ele><time>2026-04-11T10:29:42.917Z</time></trkpt><trkpt lat="44.5880161" lon="10.0065189"><ele>536.1999999999999</ele><time>2026-04-11T10:29:44.918Z</time></trkpt><trkpt lat="44.5879653" lon="10.0063609"><ele>534.4</ele><time>2026-04-11T10:29:46.918Z</time></trkpt><trkpt lat="44.5879363" lon="10.0062351"><ele>532.5999999999999</ele><time>2026-04-11T10:29:48.918Z</time></trkpt><trkpt lat="44.5879219" lon="10.0060918"><ele>530.8</ele><time>2026-04-11T10:29:50.917Z</time></trkpt><trkpt lat="44.5879085" lon="10.0059427"><ele>529.0</ele><time>2026-04-11T10:29:52.917Z</time></trkpt><trkpt lat="44.5879049" lon="10.0058066"><ele>526.8</ele><time>2026-04-11T10:29:54.917Z</time></trkpt><trkpt lat="44.5878944" lon="10.0057098"><ele>524.5999999999999</ele><time>2026-04-11T10:29:56.918Z</time></trkpt><trkpt lat="44.5879017" lon="10.0055984"><ele>522.4</ele><time>2026-04-11T10:29:58.919Z</time></trkpt><trkpt lat="44.5879416" lon="10.0054794"><ele>520.1999999999999</ele><time>2026-04-11T10:30:00.917Z</time></trkpt><trkpt lat="44.5879729" lon="10.0053278"><ele>518.0</ele><time>2026-04-11T10:30:02.918Z</time></trkpt><trkpt lat="44.5879969" lon="10.005168"><ele>518.0</ele><time>2026-04-11T10:30:04.918Z</time></trkpt><trkpt lat="44.5880114" lon="10.0050803"><ele>518.0</ele><time>2026-04-11T10:30:05.917Z</time></trkpt><trkpt lat="44.5880469" lon="10.004912"><ele>518.0</ele><time>2026-04-11T10:30:07.917Z</time></trkpt><trkpt lat="44.5880628" lon="10.0048091"><ele>518.0</ele><time>2026-04-11T10:30:08.917Z</time></trkpt><trkpt lat="44.5880825" lon="10.0046968"><ele>518.0</ele><time>2026-04-11T10:30:09.917Z</time></trkpt><trkpt lat="44.58811" lon="10.0045821"><ele>518.0</ele><time>2026-04-11T10:30:10.917Z</time></trkpt><trkpt lat="44.5881416" lon="10.0044657"><ele>516.3333333333333</ele><time>2026-04-11T10:30:11.917Z</time></trkpt><trkpt lat="44.5881854" lon="10.0043517"><ele>514.6666666666666</ele><time>2026-04-11T10:30:12.918Z</time></trkpt><trkpt lat="44.5882355" lon="10.004248"><ele>513.0</ele><time>2026-04-11T10:30:13.918Z</time></trkpt><trkpt lat="44.5882861" lon="10.0041653"><ele>511.33333333333337</ele><time>2026-04-11T10:30:14.917Z</time></trkpt><trkpt lat="44.5883326" lon="10.0041047"><ele>509.6666666666667</ele><time>2026-04-11T10:30:15.917Z</time></trkpt><trkpt lat="44.5883814" lon="10.0040055"><ele>508.0</ele><time>2026-04-11T10:30:17.918Z</time></trkpt><trkpt lat="44.5883448" lon="10.0038851"><ele>506.59999999999997</ele><time>2026-04-11T10:30:19.917Z</time></trkpt><trkpt lat="44.5882965" lon="10.0038094"><ele>505.19999999999993</ele><time>2026-04-11T10:30:20.918Z</time></trkpt><trkpt lat="44.5882347" lon="10.003711"><ele>503.8</ele><time>2026-04-11T10:30:21.918Z</time></trkpt><trkpt lat="44.5881868" lon="10.0035945"><ele>502.4</ele><time>2026-04-11T10:30:22.918Z</time></trkpt><trkpt lat="44.5881389" lon="10.0034621"><ele>501.0</ele><time>2026-04-11T10:30:23.918Z</time></trkpt><trkpt lat="44.5880833" lon="10.0033366"><ele>498.0</ele><time>2026-04-11T10:30:24.918Z</time></trkpt><trkpt lat="44.5880141" lon="10.0032222"><ele>495.0</ele><time>2026-04-11T10:30:25.917Z</time></trkpt><trkpt lat="44.587932" lon="10.0031365"><ele>492.0</ele><time>2026-04-11T10:30:26.918Z</time></trkpt><trkpt lat="44.5878656" lon="10.0030497"><ele>489.0</ele><time>2026-04-11T10:30:27.918Z</time></trkpt><trkpt lat="44.5878177" lon="10.0029546"><ele>486.0</ele><time>2026-04-11T10:30:28.918Z</time></trkpt><trkpt lat="44.5877934" lon="10.0028544"><ele>485.3333333333333</ele><time>2026-04-11T10:30:29.919Z</time></trkpt><trkpt lat="44.5877585" lon="10.0027515"><ele>484.66666666666663</ele><time>2026-04-11T10:30:31.918Z</time></trkpt><trkpt lat="44.5876873" lon="10.0027631"><ele>484.0</ele><time>2026-04-11T10:30:51.918Z</time></trkpt><trkpt lat="44.5875913" lon="10.0028792"><ele>483.3333333333333</ele><time>2026-04-11T10:30:55.918Z</time></trkpt><trkpt lat="44.5875362" lon="10.0029353"><ele>482.66666666666663</ele><time>2026-04-11T10:30:56.917Z</time></trkpt><trkpt lat="44.5874807" lon="10.0029968"><ele>482.0</ele><time>2026-04-11T10:30:57.918Z</time></trkpt><trkpt lat="44.58742" lon="10.0030555"><ele>481.99999999999994</ele><time>2026-04-11T10:30:58.919Z</time></trkpt><trkpt lat="44.5873598" lon="10.003114"><ele>482.0</ele><time>2026-04-11T10:30:59.918Z</time></trkpt><trkpt lat="44.5872947" lon="10.0031672"><ele>482.0</ele><time>2026-04-11T10:31:00.918Z</time></trkpt><trkpt lat="44.5872308" lon="10.0032269"><ele>482.0</ele><time>2026-04-11T10:31:01.917Z</time></trkpt><trkpt lat="44.5871663" lon="10.0032948"><ele>481.99999999999994</ele><time>2026-04-11T10:31:02.919Z</time></trkpt><trkpt lat="44.587097" lon="10.0033757"><ele>482.0</ele><time>2026-04-11T10:31:03.918Z</time></trkpt><trkpt lat="44.5870311" lon="10.003467"><ele>480.8</ele><time>2026-04-11T10:31:04.917Z</time></trkpt><trkpt lat="44.5869649" lon="10.0035672"><ele>479.6</ele><time>2026-04-11T10:31:05.918Z</time></trkpt><trkpt lat="44.5869001" lon="10.0036696"><ele>478.40000000000003</ele><time>2026-04-11T10:31:06.918Z</time></trkpt><trkpt lat="44.5868277" lon="10.0037655"><ele>477.20000000000005</ele><time>2026-04-11T10:31:07.917Z</time></trkpt><trkpt lat="44.5867551" lon="10.0038434"><ele>476.0</ele><time>2026-04-11T10:31:08.917Z</time></trkpt><trkpt lat="44.5866762" lon="10.0039032"><ele>475.99999999999994</ele><time>2026-04-11T10:31:09.917Z</time></trkpt><trkpt lat="44.5865919" lon="10.0039119"><ele>476.0</ele><time>2026-04-11T10:31:10.917Z</time></trkpt><trkpt lat="44.5865133" lon="10.0039018"><ele>476.0</ele><time>2026-04-11T10:31:11.917Z</time></trkpt><trkpt lat="44.5864378" lon="10.0038615"><ele>476.0</ele><time>2026-04-11T10:31:12.916Z</time></trkpt><trkpt lat="44.5863594" lon="10.0037924"><ele>475.99999999999994</ele><time>2026-04-11T10:31:13.917Z</time></trkpt><trkpt lat="44.5862811" lon="10.0037152"><ele>476.0</ele><time>2026-04-11T10:31:14.917Z</time></trkpt><trkpt lat="44.5861981" lon="10.0036454"><ele>476.4</ele><time>2026-04-11T10:31:15.917Z</time></trkpt><trkpt lat="44.5861101" lon="10.0035865"><ele>476.8</ele><time>2026-04-11T10:31:16.916Z</time></trkpt><trkpt lat="44.5860131" lon="10.003541"><ele>477.19999999999993</ele><time>2026-04-11T10:31:17.917Z</time></trkpt><trkpt lat="44.5859129" lon="10.0035079"><ele>477.59999999999997</ele><time>2026-04-11T10:31:18.917Z</time></trkpt><trkpt lat="44.5858139" lon="10.0034968"><ele>478.0</ele><time>2026-04-11T10:31:19.917Z</time></trkpt><trkpt lat="44.5857199" lon="10.0034998"><ele>478.00000000000006</ele><time>2026-04-11T10:31:20.917Z</time></trkpt><trkpt lat="44.5856273" lon="10.0034975"><ele>478.0</ele><time>2026-04-11T10:31:21.917Z</time></trkpt><trkpt lat="44.5855459" lon="10.0034765"><ele>478.0</ele><time>2026-04-11T10:31:22.917Z</time></trkpt><trkpt lat="44.5854719" lon="10.0034372"><ele>478.0</ele><time>2026-04-11T10:31:23.916Z</time></trkpt><trkpt lat="44.5854037" lon="10.0033949"><ele>478.00000000000006</ele><time>2026-04-11T10:31:24.916Z</time></trkpt><trkpt lat="44.5853396" lon="10.0033519"><ele>478.0</ele><time>2026-04-11T10:31:25.917Z</time></trkpt><trkpt lat="44.5852813" lon="10.0032998"><ele>475.83333333333337</ele><time>2026-04-11T10:31:26.917Z</time></trkpt><trkpt lat="44.5852211" lon="10.0032427"><ele>473.6666666666667</ele><time>2026-04-11T10:31:27.917Z</time></trkpt><trkpt lat="44.5851635" lon="10.0031817"><ele>471.5</ele><time>2026-04-11T10:31:28.916Z</time></trkpt><trkpt lat="44.5851071" lon="10.003123"><ele>469.33333333333337</ele><time>2026-04-11T10:31:29.916Z</time></trkpt><trkpt lat="44.5850567" lon="10.0030646"><ele>467.1666666666667</ele><time>2026-04-11T10:31:30.917Z</time></trkpt><trkpt lat="44.5849502" lon="10.0029804"><ele>465.0</ele><time>2026-04-11T10:31:32.916Z</time></trkpt><trkpt lat="44.5848402" lon="10.0029074"><ele>465.0</ele><time>2026-04-11T10:31:34.916Z</time></trkpt><trkpt lat="44.5847367" lon="10.0028279"><ele>465.0</ele><time>2026-04-11T10:31:36.917Z</time></trkpt><trkpt lat="44.5846552" lon="10.0027642"><ele>465.0</ele><time>2026-04-11T10:31:38.916Z</time></trkpt><trkpt lat="44.5846323" lon="10.0026551"><ele>465.0</ele><time>2026-04-11T10:31:41.917Z</time></trkpt><trkpt lat="44.5846184" lon="10.0025243"><ele>465.0</ele><time>2026-04-11T10:31:43.917Z</time></trkpt><trkpt lat="44.58458" lon="10.0023713"><ele>462.25</ele><time>2026-04-11T10:31:45.917Z</time></trkpt><trkpt lat="44.5845114" lon="10.0022412"><ele>459.5</ele><time>2026-04-11T10:31:47.916Z</time></trkpt><trkpt lat="44.5844349" lon="10.0021246"><ele>456.75</ele><time>2026-04-11T10:31:49.917Z</time></trkpt><trkpt lat="44.5844096" lon="10.0019727"><ele>454.0</ele><time>2026-04-11T10:31:51.917Z</time></trkpt><trkpt lat="44.5844079" lon="10.0018029"><ele>454.00000000000006</ele><time>2026-04-11T10:31:53.917Z</time></trkpt><trkpt lat="44.5843946" lon="10.0016833"><ele>454.0</ele><time>2026-04-11T10:31:55.916Z</time></trkpt><trkpt lat="44.5843616" lon="10.0016059"><ele>454.0</ele><time>2026-04-11T10:32:01.917Z</time></trkpt><trkpt lat="44.5843435" lon="10.001508"><ele>454.0</ele><time>2026-04-11T10:32:03.917Z</time></trkpt><trkpt lat="44.5843364" lon="10.0013654"><ele>454.00000000000006</ele><time>2026-04-11T10:32:05.917Z</time></trkpt><trkpt lat="44.5843453" lon="10.0012253"><ele>454.0</ele><time>2026-04-11T10:32:07.916Z</time></trkpt><trkpt lat="44.5843795" lon="10.0010746"><ele>450.79999999999995</ele><time>2026-04-11T10:32:09.917Z</time></trkpt><trkpt lat="44.5844159" lon="10.0009187"><ele>447.59999999999997</ele><time>2026-04-11T10:32:11.917Z</time></trkpt><trkpt lat="44.5843685" lon="10.0007795"><ele>444.4</ele><time>2026-04-11T10:32:13.917Z</time></trkpt><trkpt lat="44.584317" lon="10.0006509"><ele>441.2</ele><time>2026-04-11T10:32:15.917Z</time></trkpt><trkpt lat="44.5843085" lon="10.0005139"><ele>438.0</ele><time>2026-04-11T10:32:17.916Z</time></trkpt><trkpt lat="44.5842833" lon="10.0003386"><ele>435.8333333333333</ele><time>2026-04-11T10:32:19.917Z</time></trkpt><trkpt lat="44.5842737" lon="10.0002406"><ele>433.66666666666663</ele><time>2026-04-11T10:32:20.916Z</time></trkpt><trkpt lat="44.5842656" lon="10.0001459"><ele>431.5</ele><time>2026-04-11T10:32:21.917Z</time></trkpt><trkpt lat="44.5842513" lon="9.9999815"><ele>429.3333333333333</ele><time>2026-04-11T10:32:23.917Z</time></trkpt><trkpt lat="44.5842181" lon="9.9998814"><ele>427.16666666666663</ele><time>2026-04-11T10:32:25.917Z</time></trkpt><trkpt lat="44.5841515" lon="9.999788"><ele>425.0</ele><time>2026-04-11T10:32:27.918Z</time></trkpt><trkpt lat="44.5840571" lon="9.9997023"><ele>425.0</ele><time>2026-04-11T10:32:29.916Z</time></trkpt><trkpt lat="44.5839757" lon="9.9995831"><ele>425.0</ele><time>2026-04-11T10:32:31.917Z</time></trkpt><trkpt lat="44.5839265" lon="9.9994303"><ele>425.0</ele><time>2026-04-11T10:32:33.917Z</time></trkpt><trkpt lat="44.583896" lon="9.9992849"><ele>425.0</ele><time>2026-04-11T10:32:35.917Z</time></trkpt><trkpt lat="44.5838348" lon="9.9992004"><ele>425.0</ele><time>2026-04-11T10:32:38.917Z</time></trkpt><trkpt lat="44.5837667" lon="9.999172"><ele>424.99999999999994</ele><time>2026-04-11T10:32:40.917Z</time></trkpt><trkpt lat="44.5836999" lon="9.9991786"><ele>425.0</ele><time>2026-04-11T10:32:41.917Z</time></trkpt><trkpt lat="44.5835798" lon="9.9991427"><ele>425.0</ele><time>2026-04-11T10:32:43.917Z</time></trkpt><trkpt lat="44.5834684" lon="9.9991047"><ele>425.0</ele><time>2026-04-11T10:32:45.916Z</time></trkpt><trkpt lat="44.5833989" lon="9.9990887"><ele>424.99999999999994</ele><time>2026-04-11T10:32:46.916Z</time></trkpt><trkpt lat="44.5833271" lon="9.9990711"><ele>425.0</ele><time>2026-04-11T10:32:47.916Z</time></trkpt><trkpt lat="44.5832557" lon="9.9990528"><ele>422.16666666666663</ele><time>2026-04-11T10:32:48.917Z</time></trkpt><trkpt lat="44.5831802" lon="9.9990446"><ele>419.3333333333333</ele><time>2026-04-11T10:32:49.917Z</time></trkpt><trkpt lat="44.5830693" lon="9.9989988"><ele>416.5</ele><time>2026-04-11T10:32:51.916Z</time></trkpt><trkpt lat="44.5830165" lon="9.998948"><ele>413.66666666666663</ele><time>2026-04-11T10:32:52.917Z</time></trkpt><trkpt lat="44.5829642" lon="9.9988968"><ele>410.8333333333333</ele><time>2026-04-11T10:32:53.917Z</time></trkpt><trkpt lat="44.5829191" lon="9.998833"><ele>408.0</ele><time>2026-04-11T10:32:54.917Z</time></trkpt><trkpt lat="44.5828542" lon="9.9987185"><ele>406.2</ele><time>2026-04-11T10:32:56.917Z</time></trkpt><trkpt lat="44.5828349" lon="9.9985738"><ele>404.4</ele><time>2026-04-11T10:32:58.916Z</time></trkpt><trkpt lat="44.5827806" lon="9.9985082"><ele>402.59999999999997</ele><time>2026-04-11T10:33:00.917Z</time></trkpt><trkpt lat="44.582703" lon="9.9985297"><ele>400.79999999999995</ele><time>2026-04-11T10:33:02.917Z</time></trkpt><trkpt lat="44.5826402" lon="9.9986193"><ele>399.0</ele><time>2026-04-11T10:33:04.917Z</time></trkpt><trkpt lat="44.582589" lon="9.9987639"><ele>399.0</ele><time>2026-04-11T10:33:06.917Z</time></trkpt><trkpt lat="44.5825269" lon="9.9988616"><ele>399.0</ele><time>2026-04-11T10:33:08.916Z</time></trkpt><trkpt lat="44.5824435" lon="9.9988668"><ele>399.0</ele><time>2026-04-11T10:33:10.917Z</time></trkpt><trkpt lat="44.58236" lon="9.9988163"><ele>399.0</ele><time>2026-04-11T10:33:12.917Z</time></trkpt><trkpt lat="44.5822848" lon="9.9987401"><ele>399.0</ele><time>2026-04-11T10:33:14.917Z</time></trkpt><trkpt lat="44.5822158" lon="9.9986387"><ele>399.0</ele><time>2026-04-11T10:33:16.917Z</time></trkpt><trkpt lat="44.5821211" lon="9.9985374"><ele>399.0</ele><time>2026-04-11T10:33:18.917Z</time></trkpt><trkpt lat="44.5820647" lon="9.9984846"><ele>399.0</ele><time>2026-04-11T10:33:19.917Z</time></trkpt><trkpt lat="44.5820013" lon="9.9984332"><ele>399.0</ele><time>2026-04-11T10:33:20.917Z</time></trkpt><trkpt lat="44.5819031" lon="9.998353"><ele>399.0</ele><time>2026-04-11T10:33:22.916Z</time></trkpt><trkpt lat="44.5818397" lon="9.9982256"><ele>395.3333333333333</ele><time>2026-04-11T10:33:24.917Z</time></trkpt><trkpt lat="44.5818167" lon="9.9980668"><ele>391.6666666666667</ele><time>2026-04-11T10:33:26.917Z</time></trkpt><trkpt lat="44.5818124" lon="9.9978942"><ele>388.0</ele><time>2026-04-11T10:33:28.916Z</time></trkpt><trkpt lat="44.5818004" lon="9.9977962"><ele>384.33333333333337</ele><time>2026-04-11T10:33:29.917Z</time></trkpt><trkpt lat="44.5817972" lon="9.9977041"><ele>380.6666666666667</ele><time>2026-04-11T10:33:30.917Z</time></trkpt><trkpt lat="44.5817982" lon="9.9976119"><ele>377.0</ele><time>2026-04-11T10:33:31.916Z</time></trkpt><trkpt lat="44.5818106" lon="9.9975208"><ele>376.83333333333337</ele><time>2026-04-11T10:33:32.916Z</time></trkpt><trkpt lat="44.5818303" lon="9.9974357"><ele>376.6666666666667</ele><time>2026-04-11T10:33:33.917Z</time></trkpt><trkpt lat="44.581892" lon="9.9973293"><ele>376.5</ele><time>2026-04-11T10:33:35.916Z</time></trkpt><trkpt lat="44.5819688" lon="9.9972371"><ele>376.3333333333333</ele><time>2026-04-11T10:33:37.917Z</time></trkpt><trkpt lat="44.5820259" lon="9.9971844"><ele>376.16666666666663</ele><time>2026-04-11T10:33:38.917Z</time></trkpt><trkpt lat="44.5821073" lon="9.9970753"><ele>376.0</ele><time>2026-04-11T10:33:40.916Z</time></trkpt><trkpt lat="44.5821303" lon="9.9969415"><ele>376.0</ele><time>2026-04-11T10:33:42.917Z</time></trkpt><trkpt lat="44.5821294" lon="9.9968368"><ele>376.0</ele><time>2026-04-11T10:33:44.917Z</time></trkpt><trkpt lat="44.5820454" lon="9.9968005"><ele>376.0</ele><time>2026-04-11T10:33:45.917Z</time></trkpt><trkpt lat="44.5819611" lon="9.9966951"><ele>376.0</ele><time>2026-04-11T10:33:47.917Z</time></trkpt><trkpt lat="44.5819123" lon="9.9966312"><ele>376.0</ele><time>2026-04-11T10:33:48.917Z</time></trkpt><trkpt lat="44.5818583" lon="9.9965737"><ele>376.0</ele><time>2026-04-11T10:33:49.917Z</time></trkpt><trkpt lat="44.5817386" lon="9.9964981"><ele>373.0</ele><time>2026-04-11T10:33:51.916Z</time></trkpt><trkpt lat="44.5816705" lon="9.9964681"><ele>370.0</ele><time>2026-04-11T10:33:52.917Z</time></trkpt><trkpt lat="44.5816032" lon="9.9964509"><ele>367.0</ele><time>2026-04-11T10:33:53.917Z</time></trkpt><trkpt lat="44.5814773" lon="9.9964525"><ele>364.0</ele><time>2026-04-11T10:33:55.916Z</time></trkpt><trkpt lat="44.5814094" lon="9.9964509"><ele>361.0</ele><time>2026-04-11T10:33:56.917Z</time></trkpt><trkpt lat="44.5813454" lon="9.9964602"><ele>358.0</ele><time>2026-04-11T10:33:57.917Z</time></trkpt><trkpt lat="44.5812792" lon="9.9964554"><ele>358.0</ele><time>2026-04-11T10:33:58.917Z</time></trkpt><trkpt lat="44.581215" lon="9.9964492"><ele>358.0</ele><time>2026-04-11T10:33:59.917Z</time></trkpt><trkpt lat="44.5811024" lon="9.9964101"><ele>358.0</ele><time>2026-04-11T10:34:01.917Z</time></trkpt><trkpt lat="44.5810354" lon="9.9963471"><ele>358.0</ele><time>2026-04-11T10:34:03.916Z</time></trkpt><trkpt lat="44.581013" lon="9.9962096"><ele>358.0</ele><time>2026-04-11T10:34:05.917Z</time></trkpt><trkpt lat="44.5810321" lon="9.9960335"><ele>356.5</ele><time>2026-04-11T10:34:07.917Z</time></trkpt><trkpt lat="44.581035" lon="9.9959421"><ele>355.0</ele><time>2026-04-11T10:34:08.917Z</time></trkpt><trkpt lat="44.5810405" lon="9.9958434"><ele>353.5</ele><time>2026-04-11T10:34:09.917Z</time></trkpt><trkpt lat="44.5810405" lon="9.9957456"><ele>352.0</ele><time>2026-04-11T10:34:10.917Z</time></trkpt><trkpt lat="44.581028" lon="9.9956487"><ele>350.5</ele><time>2026-04-11T10:34:11.917Z</time></trkpt><trkpt lat="44.5810115" lon="9.9955467"><ele>349.0</ele><time>2026-04-11T10:34:12.917Z</time></trkpt><trkpt lat="44.5809915" lon="9.9953945"><ele>348.0</ele><time>2026-04-11T10:34:14.917Z</time></trkpt><trkpt lat="44.5809997" lon="9.995281"><ele>347.0</ele><time>2026-04-11T10:34:16.917Z</time></trkpt><trkpt lat="44.58103" lon="9.9951997"><ele>346.0</ele><time>2026-04-11T10:34:26.916Z</time></trkpt><trkpt lat="44.5810774" lon="9.995084"><ele>345.0</ele><time>2026-04-11T10:34:29.916Z</time></trkpt><trkpt lat="44.5811149" lon="9.9949872"><ele>344.0</ele><time>2026-04-11T10:34:31.916Z</time></trkpt><trkpt lat="44.581164" lon="9.9949299"><ele>343.0</ele><time>2026-04-11T10:34:34.916Z</time></trkpt><trkpt lat="44.5812196" lon="9.9948626"><ele>341.8333333333333</ele><time>2026-04-11T10:34:37.917Z</time></trkpt><trkpt lat="44.5812454" lon="9.9947622"><ele>340.66666666666663</ele><time>2026-04-11T10:34:40.916Z</time></trkpt><trkpt lat="44.5812422" lon="9.9946635"><ele>339.5</ele><time>2026-04-11T10:34:43.917Z</time></trkpt><trkpt lat="44.5812006" lon="9.9945255"><ele>338.3333333333333</ele><time>2026-04-11T10:34:46.917Z</time></trkpt><trkpt lat="44.5811437" lon="9.9944723"><ele>337.1666666666667</ele><time>2026-04-11T10:34:48.917Z</time></trkpt><trkpt lat="44.5810683" lon="9.9944701"><ele>336.0</ele><time>2026-04-11T10:35:07.916Z</time></trkpt><trkpt lat="44.5810175" lon="9.9943969"><ele>336.0</ele><time>2026-04-11T10:35:10.917Z</time></trkpt><trkpt lat="44.5810587" lon="9.9942994"><ele>336.0</ele><time>2026-04-11T10:35:12.917Z</time></trkpt><trkpt lat="44.5811533" lon="9.9942332"><ele>336.0</ele><time>2026-04-11T10:35:14.917Z</time></trkpt><trkpt lat="44.5812382" lon="9.9941779"><ele>336.0</ele><time>2026-04-11T10:35:16.917Z</time></trkpt><trkpt lat="44.5812792" lon="9.9940705"><ele>336.0</ele><time>2026-04-11T10:35:18.917Z</time></trkpt><trkpt lat="44.581228" lon="9.9939132"><ele>336.20000000000005</ele><time>2026-04-11T10:35:20.917Z</time></trkpt><trkpt lat="44.5811828" lon="9.9937552"><ele>336.40000000000003</ele><time>2026-04-11T10:35:22.917Z</time></trkpt><trkpt lat="44.5811522" lon="9.9936419"><ele>336.6</ele><time>2026-04-11T10:35:24.916Z</time></trkpt><trkpt lat="44.5810975" lon="9.9935722"><ele>336.8</ele><time>2026-04-11T10:35:29.916Z</time></trkpt><trkpt lat="44.5810274" lon="9.9935287"><ele>337.0</ele><time>2026-04-11T10:35:31.916Z</time></trkpt><trkpt lat="44.5809136" lon="9.9934691"><ele>338.6</ele><time>2026-04-11T10:35:33.915Z</time></trkpt><trkpt lat="44.5808268" lon="9.993352"><ele>340.20000000000005</ele><time>2026-04-11T10:35:35.916Z</time></trkpt><trkpt lat="44.5807524" lon="9.9932222"><ele>341.8</ele><time>2026-04-11T10:35:37.916Z</time></trkpt><trkpt lat="44.5807129" lon="9.9931483"><ele>343.4</ele><time>2026-04-11T10:35:38.916Z</time></trkpt><trkpt lat="44.5806115" lon="9.9930657"><ele>345.0</ele><time>2026-04-11T10:35:40.916Z</time></trkpt><trkpt lat="44.5805251" lon="9.9929667"><ele>348.8</ele><time>2026-04-11T10:35:42.915Z</time></trkpt><trkpt lat="44.5804423" lon="9.9928681"><ele>352.6</ele><time>2026-04-11T10:35:44.916Z</time></trkpt><trkpt lat="44.580316" lon="9.992829"><ele>356.4</ele><time>2026-04-11T10:35:46.916Z</time></trkpt><trkpt lat="44.5802016" lon="9.992772"><ele>360.2</ele><time>2026-04-11T10:35:48.916Z</time></trkpt><trkpt lat="44.5801402" lon="9.9927283"><ele>364.0</ele><time>2026-04-11T10:35:49.916Z</time></trkpt><trkpt lat="44.5800487" lon="9.9926501"><ele>365.8333333333333</ele><time>2026-04-11T10:35:51.916Z</time></trkpt><trkpt lat="44.5800029" lon="9.992572"><ele>367.66666666666663</ele><time>2026-04-11T10:35:53.916Z</time></trkpt><trkpt lat="44.5799949" lon="9.9924807"><ele>369.5</ele><time>2026-04-11T10:35:55.916Z</time></trkpt><trkpt lat="44.5800198" lon="9.9923489"><ele>371.3333333333333</ele><time>2026-04-11T10:35:57.916Z</time></trkpt><trkpt lat="44.5800171" lon="9.9922137"><ele>373.1666666666667</ele><time>2026-04-11T10:35:59.916Z</time></trkpt><trkpt lat="44.5799653" lon="9.9921471"><ele>375.0</ele><time>2026-04-11T10:36:02.915Z</time></trkpt><trkpt lat="44.5798825" lon="9.9921968"><ele>377.8333333333333</ele><time>2026-04-11T10:36:04.916Z</time></trkpt><trkpt lat="44.579814" lon="9.9922883"><ele>380.66666666666663</ele><time>2026-04-11T10:36:05.916Z</time></trkpt><trkpt lat="44.5797202" lon="9.9923157"><ele>383.5</ele><time>2026-04-11T10:36:07.916Z</time></trkpt><trkpt lat="44.5796633" lon="9.9923563"><ele>386.3333333333333</ele><time>2026-04-11T10:36:08.916Z</time></trkpt><trkpt lat="44.579568" lon="9.9923547"><ele>389.16666666666663</ele><time>2026-04-11T10:36:10.917Z</time></trkpt><trkpt lat="44.5794733" lon="9.9923222"><ele>392.0</ele><time>2026-04-11T10:36:12.916Z</time></trkpt><trkpt lat="44.5794335" lon="9.9922375"><ele>394.3333333333333</ele><time>2026-04-11T10:36:13.916Z</time></trkpt><trkpt lat="44.5793696" lon="9.9921549"><ele>396.66666666666663</ele><time>2026-04-11T10:36:15.917Z</time></trkpt><trkpt lat="44.5793709" lon="9.9920293"><ele>399.0</ele><time>2026-04-11T10:36:17.915Z</time></trkpt><trkpt lat="44.5793655" lon="9.9918772"><ele>401.33333333333337</ele><time>2026-04-11T10:36:19.916Z</time></trkpt><trkpt lat="44.5793586" lon="9.9917867"><ele>403.6666666666667</ele><time>2026-04-11T10:36:20.916Z</time></trkpt><trkpt lat="44.5793444" lon="9.9916983"><ele>406.0</ele><time>2026-04-11T10:36:21.916Z</time></trkpt><trkpt lat="44.5793185" lon="9.9915425"><ele>408.1666666666667</ele><time>2026-04-11T10:36:23.915Z</time></trkpt><trkpt lat="44.5792779" lon="9.991377"><ele>410.33333333333337</ele><time>2026-04-11T10:36:25.915Z</time></trkpt><trkpt lat="44.579259" lon="9.9912878"><ele>412.5</ele><time>2026-04-11T10:36:26.916Z</time></trkpt><trkpt lat="44.5792383" lon="9.9911719"><ele>414.66666666666663</ele><time>2026-04-11T10:36:27.916Z</time></trkpt><trkpt lat="44.5792167" lon="9.9910631"><ele>416.8333333333333</ele><time>2026-04-11T10:36:28.916Z</time></trkpt><trkpt lat="44.5791916" lon="9.990961"><ele>419.0</ele><time>2026-04-11T10:36:29.915Z</time></trkpt><trkpt lat="44.5791853" lon="9.9908607"><ele>420.99999999999994</ele><time>2026-04-11T10:36:30.916Z</time></trkpt><trkpt lat="44.5792309" lon="9.9907017"><ele>423.0</ele><time>2026-04-11T10:36:32.916Z</time></trkpt><trkpt lat="44.579266" lon="9.9906202"><ele>425.0</ele><time>2026-04-11T10:36:33.916Z</time></trkpt><trkpt lat="44.5793011" lon="9.9905371"><ele>427.0</ele><time>2026-04-11T10:36:34.916Z</time></trkpt><trkpt lat="44.579339" lon="9.9904469"><ele>428.99999999999994</ele><time>2026-04-11T10:36:35.916Z</time></trkpt><trkpt lat="44.5793782" lon="9.9903669"><ele>431.0</ele><time>2026-04-11T10:36:36.915Z</time></trkpt><trkpt lat="44.5794246" lon="9.9902879"><ele>431.0</ele><time>2026-04-11T10:36:37.916Z</time></trkpt><trkpt lat="44.5794756" lon="9.9902177"><ele>431.0</ele><time>2026-04-11T10:36:38.916Z</time></trkpt><trkpt lat="44.5795359" lon="9.99015"><ele>431.0</ele><time>2026-04-11T10:36:39.916Z</time></trkpt><trkpt lat="44.5795933" lon="9.990103"><ele>431.0</ele><time>2026-04-11T10:36:40.916Z</time></trkpt><trkpt lat="44.5796447" lon="9.9900467"><ele>431.0</ele><time>2026-04-11T10:36:41.916Z</time></trkpt><trkpt lat="44.5796868" lon="9.9899799"><ele>431.0</ele><time>2026-04-11T10:36:42.916Z</time></trkpt><trkpt lat="44.5797292" lon="9.9898986"><ele>431.0</ele><time>2026-04-11T10:36:43.916Z</time></trkpt><trkpt lat="44.5797615" lon="9.9898105"><ele>431.8</ele><time>2026-04-11T10:36:44.916Z</time></trkpt><trkpt lat="44.579779" lon="9.9897228"><ele>432.6</ele><time>2026-04-11T10:36:45.916Z</time></trkpt><trkpt lat="44.5797972" lon="9.9895716"><ele>433.4</ele><time>2026-04-11T10:36:47.916Z</time></trkpt><trkpt lat="44.5797356" lon="9.9894277"><ele>434.2</ele><time>2026-04-11T10:36:49.916Z</time></trkpt><trkpt lat="44.5797013" lon="9.9893504"><ele>435.0</ele><time>2026-04-11T10:36:50.915Z</time></trkpt><trkpt lat="44.5796438" lon="9.9892145"><ele>434.6666666666667</ele><time>2026-04-11T10:36:52.915Z</time></trkpt><trkpt lat="44.5795504" lon="9.989108"><ele>434.33333333333337</ele><time>2026-04-11T10:36:54.916Z</time></trkpt><trkpt lat="44.5794893" lon="9.9890736"><ele>434.0</ele><time>2026-04-11T10:36:55.916Z</time></trkpt><trkpt lat="44.5793984" lon="9.9890762"><ele>433.6666666666667</ele><time>2026-04-11T10:36:56.916Z</time></trkpt><trkpt lat="44.5793272" lon="9.9890649"><ele>433.33333333333337</ele><time>2026-04-11T10:36:57.915Z</time></trkpt><trkpt lat="44.579249" lon="9.9890993"><ele>433.0</ele><time>2026-04-11T10:36:58.915Z</time></trkpt><trkpt lat="44.5791348" lon="9.9891184"><ele>435.59999999999997</ele><time>2026-04-11T10:37:00.915Z</time></trkpt><trkpt lat="44.5790301" lon="9.9891133"><ele>438.19999999999993</ele><time>2026-04-11T10:37:02.916Z</time></trkpt><trkpt lat="44.5789435" lon="9.989163"><ele>440.8</ele><time>2026-04-11T10:37:04.916Z</time></trkpt><trkpt lat="44.578946" lon="9.9892898"><ele>443.4</ele><time>2026-04-11T10:37:06.915Z</time></trkpt><trkpt lat="44.5789337" lon="9.9894309"><ele>446.0</ele><time>2026-04-11T10:37:08.916Z</time></trkpt><trkpt lat="44.5789232" lon="9.9895209"><ele>446.0</ele><time>2026-04-11T10:37:09.916Z</time></trkpt><trkpt lat="44.5789099" lon="9.9896073"><ele>446.0</ele><time>2026-04-11T10:37:10.917Z</time></trkpt><trkpt lat="44.5788536" lon="9.9897338"><ele>446.0</ele><time>2026-04-11T10:37:12.916Z</time></trkpt><trkpt lat="44.5787438" lon="9.9897835"><ele>446.0</ele><time>2026-04-11T10:37:14.916Z</time></trkpt><trkpt lat="44.5786485" lon="9.9898538"><ele>446.0</ele><time>2026-04-11T10:37:16.916Z</time></trkpt><trkpt lat="44.5785707" lon="9.9899222"><ele>445.20000000000005</ele><time>2026-04-11T10:37:18.915Z</time></trkpt><trkpt lat="44.5784814" lon="9.9899628"><ele>444.40000000000003</ele><time>2026-04-11T10:37:20.915Z</time></trkpt><trkpt lat="44.5783869" lon="9.9899612"><ele>443.6</ele><time>2026-04-11T10:37:22.916Z</time></trkpt><trkpt lat="44.5782706" lon="9.9899835"><ele>442.8</ele><time>2026-04-11T10:37:24.916Z</time></trkpt><trkpt lat="44.5782118" lon="9.9900173"><ele>442.0</ele><time>2026-04-11T10:37:25.916Z</time></trkpt><trkpt lat="44.5781022" lon="9.9900845"><ele>442.00000000000006</ele><time>2026-04-11T10:37:27.915Z</time></trkpt><trkpt lat="44.5779935" lon="9.9900691"><ele>442.0</ele><time>2026-04-11T10:37:29.915Z</time></trkpt><trkpt lat="44.5779295" lon="9.9900659"><ele>442.0</ele><time>2026-04-11T10:37:30.915Z</time></trkpt><trkpt lat="44.577849" lon="9.9900831"><ele>442.0</ele><time>2026-04-11T10:37:31.916Z</time></trkpt><trkpt lat="44.5777507" lon="9.9900925"><ele>442.00000000000006</ele><time>2026-04-11T10:37:32.916Z</time></trkpt><trkpt lat="44.577674" lon="9.990097"><ele>442.0</ele><time>2026-04-11T10:37:33.915Z</time></trkpt><trkpt lat="44.5775617" lon="9.990065"><ele>446.6</ele><time>2026-04-11T10:37:35.916Z</time></trkpt><trkpt lat="44.5774776" lon="9.9899529"><ele>451.20000000000005</ele><time>2026-04-11T10:37:37.916Z</time></trkpt><trkpt lat="44.5773956" lon="9.9898432"><ele>455.8</ele><time>2026-04-11T10:37:39.915Z</time></trkpt><trkpt lat="44.57738" lon="9.9896899"><ele>460.4</ele><time>2026-04-11T10:37:41.916Z</time></trkpt><trkpt lat="44.5773358" lon="9.9895507"><ele>465.0</ele><time>2026-04-11T10:37:43.916Z</time></trkpt><trkpt lat="44.5772579" lon="9.9894515"><ele>465.0</ele><time>2026-04-11T10:37:45.916Z</time></trkpt><trkpt lat="44.577165" lon="9.989312"><ele>465.0</ele><time>2026-04-11T10:37:47.916Z</time></trkpt><trkpt lat="44.5771058" lon="9.9892124"><ele>465.0</ele><time>2026-04-11T10:37:49.915Z</time></trkpt><trkpt lat="44.5770634" lon="9.9891339"><ele>465.0</ele><time>2026-04-11T10:37:51.915Z</time></trkpt><trkpt lat="44.5769987" lon="9.9891196"><ele>465.0</ele><time>2026-04-11T10:37:53.915Z</time></trkpt><trkpt lat="44.5769638" lon="9.989223"><ele>465.0</ele><time>2026-04-11T10:37:55.916Z</time></trkpt><trkpt lat="44.5769431" lon="9.9893434"><ele>466.2</ele><time>2026-04-11T10:37:57.915Z</time></trkpt><trkpt lat="44.576898" lon="9.9894751"><ele>467.4</ele><time>2026-04-11T10:37:59.916Z</time></trkpt><trkpt lat="44.5768214" lon="9.9895883"><ele>468.6</ele><time>2026-04-11T10:38:01.916Z</time></trkpt><trkpt lat="44.5767379" lon="9.9896668"><ele>469.8</ele><time>2026-04-11T10:38:03.916Z</time></trkpt><trkpt lat="44.5766586" lon="9.989665"><ele>471.0</ele><time>2026-04-11T10:38:05.916Z</time></trkpt><trkpt lat="44.5765849" lon="9.9895817"><ele>471.0</ele><time>2026-04-11T10:38:07.916Z</time></trkpt><trkpt lat="44.5765323" lon="9.989488"><ele>471.0</ele><time>2026-04-11T10:38:09.916Z</time></trkpt><trkpt lat="44.5764578" lon="9.9894335"><ele>471.0</ele><time>2026-04-11T10:38:11.915Z</time></trkpt><trkpt lat="44.5763897" lon="9.9893689"><ele>471.0</ele><time>2026-04-11T10:38:13.916Z</time></trkpt><trkpt lat="44.5762878" lon="9.989344"><ele>471.0</ele><time>2026-04-11T10:38:15.916Z</time></trkpt><trkpt lat="44.5762119" lon="9.9893234"><ele>471.0</ele><time>2026-04-11T10:38:18.916Z</time></trkpt><trkpt lat="44.5761467" lon="9.9893712"><ele>473.3333333333333</ele><time>2026-04-11T10:38:28.916Z</time></trkpt><trkpt lat="44.5760394" lon="9.989412"><ele>475.66666666666663</ele><time>2026-04-11T10:38:30.916Z</time></trkpt><trkpt lat="44.5759615" lon="9.9894593"><ele>478.0</ele><time>2026-04-11T10:38:31.916Z</time></trkpt><trkpt lat="44.575887" lon="9.9894968"><ele>480.3333333333333</ele><time>2026-04-11T10:38:32.915Z</time></trkpt><trkpt lat="44.5758108" lon="9.9895466"><ele>482.66666666666663</ele><time>2026-04-11T10:38:33.915Z</time></trkpt><trkpt lat="44.5757349" lon="9.9895962"><ele>485.0</ele><time>2026-04-11T10:38:34.915Z</time></trkpt><trkpt lat="44.5756548" lon="9.9896362"><ele>485.0</ele><time>2026-04-11T10:38:35.916Z</time></trkpt><trkpt lat="44.5755864" lon="9.9896816"><ele>485.0</ele><time>2026-04-11T10:38:36.916Z</time></trkpt><trkpt lat="44.5755583" lon="9.9897668"><ele>485.0</ele><time>2026-04-11T10:38:37.916Z</time></trkpt><trkpt lat="44.5754578" lon="9.9898855"><ele>485.0</ele><time>2026-04-11T10:38:39.917Z</time></trkpt><trkpt lat="44.5753436" lon="9.9899344"><ele>485.0</ele><time>2026-04-11T10:38:41.916Z</time></trkpt><trkpt lat="44.5752206" lon="9.9899408"><ele>488.4</ele><time>2026-04-11T10:38:43.917Z</time></trkpt><trkpt lat="44.5751386" lon="9.9900289"><ele>491.8</ele><time>2026-04-11T10:38:46.916Z</time></trkpt><trkpt lat="44.5750348" lon="9.9900703"><ele>495.20000000000005</ele><time>2026-04-11T10:38:48.917Z</time></trkpt><trkpt lat="44.5749473" lon="9.9901349"><ele>498.6</ele><time>2026-04-11T10:38:50.916Z</time></trkpt><trkpt lat="44.5748906" lon="9.9902202"><ele>502.0</ele><time>2026-04-11T10:38:53.916Z</time></trkpt><trkpt lat="44.5748505" lon="9.9903071"><ele>502.0</ele><time>2026-04-11T10:38:55.916Z</time></trkpt><trkpt lat="44.5747685" lon="9.9903502"><ele>502.00000000000006</ele><time>2026-04-11T10:38:57.916Z</time></trkpt><trkpt lat="44.5746501" lon="9.9903952"><ele>502.00000000000006</ele><time>2026-04-11T10:38:59.916Z</time></trkpt><trkpt lat="44.5745889" lon="9.9904186"><ele>502.0</ele><time>2026-04-11T10:39:00.916Z</time></trkpt><trkpt lat="44.5744936" lon="9.9904169"><ele>502.0</ele><time>2026-04-11T10:39:02.916Z</time></trkpt><trkpt lat="44.5744333" lon="9.9903316"><ele>502.83333333333337</ele><time>2026-04-11T10:39:04.916Z</time></trkpt><trkpt lat="44.5743626" lon="9.9902452"><ele>503.6666666666667</ele><time>2026-04-11T10:39:06.916Z</time></trkpt><trkpt lat="44.5743176" lon="9.9901825"><ele>504.5</ele><time>2026-04-11T10:39:24.916Z</time></trkpt><trkpt lat="44.5742794" lon="9.9901096"><ele>505.33333333333337</ele><time>2026-04-11T10:39:27.916Z</time></trkpt><trkpt lat="44.5742675" lon="9.9900148"><ele>506.1666666666667</ele><time>2026-04-11T10:39:29.916Z</time></trkpt><trkpt lat="44.5743043" lon="9.9898723"><ele>507.0</ele><time>2026-04-11T10:39:31.916Z</time></trkpt><trkpt lat="44.5743292" lon="9.9897163"><ele>510.0</ele><time>2026-04-11T10:39:33.914Z</time></trkpt><trkpt lat="44.5743429" lon="9.9895424"><ele>513.0</ele><time>2026-04-11T10:39:35.915Z</time></trkpt><trkpt lat="44.5743494" lon="9.9893735"><ele>516.0</ele><time>2026-04-11T10:39:37.914Z</time></trkpt><trkpt lat="44.5743442" lon="9.9892051"><ele>519.0</ele><time>2026-04-11T10:39:39.915Z</time></trkpt><trkpt lat="44.5743518" lon="9.9891067"><ele>522.0</ele><time>2026-04-11T10:39:40.915Z</time></trkpt><trkpt lat="44.5743923" lon="9.9889588"><ele>524.8000000000001</ele><time>2026-04-11T10:39:42.915Z</time></trkpt><trkpt lat="44.5744402" lon="9.9888192"><ele>527.6</ele><time>2026-04-11T10:39:44.915Z</time></trkpt><trkpt lat="44.5744278" lon="9.9886687"><ele>530.4000000000001</ele><time>2026-04-11T10:39:46.915Z</time></trkpt><trkpt lat="44.5744489" lon="9.9885372"><ele>533.2</ele><time>2026-04-11T10:39:48.916Z</time></trkpt><trkpt lat="44.5745022" lon="9.9884189"><ele>536.0</ele><time>2026-04-11T10:39:50.915Z</time></trkpt><trkpt lat="44.5745813" lon="9.9883319"><ele>538.8</ele><time>2026-04-11T10:39:52.914Z</time></trkpt><trkpt lat="44.5746421" lon="9.9882094"><ele>541.6</ele><time>2026-04-11T10:39:54.916Z</time></trkpt><trkpt lat="44.5746504" lon="9.9880817"><ele>544.4</ele><time>2026-04-11T10:39:56.915Z</time></trkpt><trkpt lat="44.5746377" lon="9.9879256"><ele>547.2</ele><time>2026-04-11T10:39:58.914Z</time></trkpt><trkpt lat="44.5746332" lon="9.9878264"><ele>550.0</ele><time>2026-04-11T10:39:59.914Z</time></trkpt><trkpt lat="44.5746227" lon="9.9877141"><ele>550.0</ele><time>2026-04-11T10:40:00.914Z</time></trkpt><trkpt lat="44.5746292" lon="9.9876048"><ele>550.0</ele><time>2026-04-11T10:40:01.914Z</time></trkpt><trkpt lat="44.574645" lon="9.9874922"><ele>550.0</ele><time>2026-04-11T10:40:02.914Z</time></trkpt><trkpt lat="44.5746576" lon="9.9873699"><ele>550.0</ele><time>2026-04-11T10:40:03.915Z</time></trkpt><trkpt lat="44.5746651" lon="9.9872635"><ele>550.0</ele><time>2026-04-11T10:40:04.915Z</time></trkpt><trkpt lat="44.5747019" lon="9.9871077"><ele>550.0</ele><time>2026-04-11T10:40:06.914Z</time></trkpt><trkpt lat="44.5747263" lon="9.9870225"><ele>552.0</ele><time>2026-04-11T10:40:07.914Z</time></trkpt><trkpt lat="44.5747523" lon="9.9869341"><ele>554.0</ele><time>2026-04-11T10:40:08.915Z</time></trkpt><trkpt lat="44.5747954" lon="9.9867957"><ele>556.0</ele><time>2026-04-11T10:40:10.914Z</time></trkpt><trkpt lat="44.5748232" lon="9.9866713"><ele>558.0</ele><time>2026-04-11T10:40:12.914Z</time></trkpt><trkpt lat="44.5748357" lon="9.9865184"><ele>560.0</ele><time>2026-04-11T10:40:14.914Z</time></trkpt><trkpt lat="44.5748444" lon="9.9864226"><ele>562.0</ele><time>2026-04-11T10:40:15.914Z</time></trkpt><trkpt lat="44.5748606" lon="9.9863055"><ele>562.6</ele><time>2026-04-11T10:40:16.914Z</time></trkpt><trkpt lat="44.5748789" lon="9.9861659"><ele>563.2</ele><time>2026-04-11T10:40:17.914Z</time></trkpt><trkpt lat="44.5748963" lon="9.9860559"><ele>563.8</ele><time>2026-04-11T10:40:18.915Z</time></trkpt><trkpt lat="44.5749102" lon="9.9859549"><ele>564.4</ele><time>2026-04-11T10:40:19.915Z</time></trkpt><trkpt lat="44.5749389" lon="9.985788"><ele>565.0</ele><time>2026-04-11T10:40:21.915Z</time></trkpt><trkpt lat="44.5749684" lon="9.9856364"><ele>565.6</ele><time>2026-04-11T10:40:23.915Z</time></trkpt><trkpt lat="44.5749778" lon="9.9855423"><ele>566.2</ele><time>2026-04-11T10:40:24.915Z</time></trkpt><trkpt lat="44.5750021" lon="9.9853762"><ele>566.8</ele><time>2026-04-11T10:40:26.915Z</time></trkpt><trkpt lat="44.5750326" lon="9.985212"><ele>567.4</ele><time>2026-04-11T10:40:28.916Z</time></trkpt><trkpt lat="44.5750676" lon="9.985073"><ele>568.0</ele><time>2026-04-11T10:40:30.914Z</time></trkpt><trkpt lat="44.5751101" lon="9.984894"><ele>569.1666666666667</ele><time>2026-04-11T10:40:32.915Z</time></trkpt><trkpt lat="44.5751392" lon="9.9847987"><ele>570.3333333333334</ele><time>2026-04-11T10:40:33.916Z</time></trkpt><trkpt lat="44.5751645" lon="9.9846995"><ele>571.5</ele><time>2026-04-11T10:40:34.915Z</time></trkpt><trkpt lat="44.5751949" lon="9.9846092"><ele>572.6666666666666</ele><time>2026-04-11T10:40:35.915Z</time></trkpt><trkpt lat="44.5752518" lon="9.9844536"><ele>573.8333333333333</ele><time>2026-04-11T10:40:37.916Z</time></trkpt><trkpt lat="44.5752774" lon="9.9843587"><ele>575.0</ele><time>2026-04-11T10:40:38.915Z</time></trkpt><trkpt lat="44.5753116" lon="9.9842779"><ele>573.5</ele><time>2026-04-11T10:40:39.915Z</time></trkpt><trkpt lat="44.5753614" lon="9.9841961"><ele>572.0</ele><time>2026-04-11T10:40:40.915Z</time></trkpt><trkpt lat="44.5753937" lon="9.9841196"><ele>570.5</ele><time>2026-04-11T10:40:41.916Z</time></trkpt><trkpt lat="44.5754327" lon="9.984027"><ele>569.0</ele><time>2026-04-11T10:40:42.915Z</time></trkpt><trkpt lat="44.5754684" lon="9.9839229"><ele>567.5</ele><time>2026-04-11T10:40:43.915Z</time></trkpt><trkpt lat="44.5754995" lon="9.9838268"><ele>566.0</ele><time>2026-04-11T10:40:44.915Z</time></trkpt><trkpt lat="44.5755678" lon="9.9836804"><ele>569.6</ele><time>2026-04-11T10:40:46.915Z</time></trkpt><trkpt lat="44.5756608" lon="9.9835587"><ele>573.2</ele><time>2026-04-11T10:40:48.914Z</time></trkpt><trkpt lat="44.5757084" lon="9.9834874"><ele>576.8</ele><time>2026-04-11T10:40:49.914Z</time></trkpt><trkpt lat="44.5757511" lon="9.983421"><ele>580.4</ele><time>2026-04-11T10:40:50.914Z</time></trkpt><trkpt lat="44.5757708" lon="9.9833034"><ele>584.0</ele><time>2026-04-11T10:40:52.915Z</time></trkpt><trkpt lat="44.5757377" lon="9.983158"><ele>586.25</ele><time>2026-04-11T10:40:54.914Z</time></trkpt><trkpt lat="44.5757053" lon="9.9830289"><ele>588.5</ele><time>2026-04-11T10:40:56.915Z</time></trkpt><trkpt lat="44.5756796" lon="9.9829014"><ele>590.75</ele><time>2026-04-11T10:40:59.914Z</time></trkpt><trkpt lat="44.5755187" lon="9.9827765"><ele>593.0</ele><time>2026-04-11T10:41:09.915Z</time></trkpt><trkpt lat="44.5754905" lon="9.9826193"><ele>593.0</ele><time>2026-04-11T10:41:24.915Z</time></trkpt><trkpt lat="44.5754314" lon="9.982548"><ele>593.0</ele><time>2026-04-11T10:41:25.915Z</time></trkpt><trkpt lat="44.5753632" lon="9.9824221"><ele>593.0</ele><time>2026-04-11T10:41:27.914Z</time></trkpt><trkpt lat="44.5753371" lon="9.9823413"><ele>593.0</ele><time>2026-04-11T10:41:28.915Z</time></trkpt><trkpt lat="44.5753038" lon="9.9822535"><ele>593.0</ele><time>2026-04-11T10:41:29.915Z</time></trkpt><trkpt lat="44.5752703" lon="9.98217"><ele>593.0</ele><time>2026-04-11T10:41:30.915Z</time></trkpt><trkpt lat="44.5752295" lon="9.9820992"><ele>594.5714285714286</ele><time>2026-04-11T10:41:31.914Z</time></trkpt><trkpt lat="44.5751926" lon="9.9820228"><ele>596.1428571428571</ele><time>2026-04-11T10:41:32.915Z</time></trkpt><trkpt lat="44.5751577" lon="9.9819445"><ele>597.7142857142858</ele><time>2026-04-11T10:41:33.915Z</time></trkpt><trkpt lat="44.5751239" lon="9.9818526"><ele>599.2857142857142</ele><time>2026-04-11T10:41:34.914Z</time></trkpt><trkpt lat="44.5750918" lon="9.9817633"><ele>600.8571428571429</ele><time>2026-04-11T10:41:35.915Z</time></trkpt><trkpt lat="44.575066" lon="9.9816586"><ele>602.4285714285714</ele><time>2026-04-11T10:41:36.914Z</time></trkpt><trkpt lat="44.5750364" lon="9.9815797"><ele>604.0</ele><time>2026-04-11T10:41:37.915Z</time></trkpt><trkpt lat="44.5749834" lon="9.9814805"><ele>604.0</ele><time>2026-04-11T10:41:39.915Z</time></trkpt><trkpt lat="44.5748932" lon="9.9814533"><ele>604.0</ele><time>2026-04-11T10:41:43.915Z</time></trkpt><trkpt lat="44.5748079" lon="9.9815144"><ele>604.0</ele><time>2026-04-11T10:41:45.914Z</time></trkpt><trkpt lat="44.5747231" lon="9.9816059"><ele>604.0</ele><time>2026-04-11T10:41:47.915Z</time></trkpt><trkpt lat="44.574645" lon="9.9817035"><ele>604.0</ele><time>2026-04-11T10:41:49.914Z</time></trkpt><trkpt lat="44.5745967" lon="9.9817719"><ele>604.0000000000001</ele><time>2026-04-11T10:41:50.915Z</time></trkpt><trkpt lat="44.5745449" lon="9.9818305"><ele>604.0</ele><time>2026-04-11T10:41:51.915Z</time></trkpt><trkpt lat="44.5744923" lon="9.9819001"><ele>604.0</ele><time>2026-04-11T10:41:52.915Z</time></trkpt><trkpt lat="44.5744428" lon="9.981969"><ele>604.0</ele><time>2026-04-11T10:41:53.915Z</time></trkpt><trkpt lat="44.5743895" lon="9.9820225"><ele>604.0</ele><time>2026-04-11T10:41:54.915Z</time></trkpt><trkpt lat="44.5743254" lon="9.9820476"><ele>604.0000000000001</ele><time>2026-04-11T10:41:55.915Z</time></trkpt><trkpt lat="44.5742611" lon="9.9820417"><ele>604.0</ele><time>2026-04-11T10:41:56.914Z</time></trkpt><trkpt lat="44.574202" lon="9.9820036"><ele>604.7142857142858</ele><time>2026-04-11T10:41:57.915Z</time></trkpt><trkpt lat="44.5741576" lon="9.9819403"><ele>605.4285714285714</ele><time>2026-04-11T10:41:58.915Z</time></trkpt><trkpt lat="44.5741207" lon="9.9818657"><ele>606.1428571428571</ele><time>2026-04-11T10:41:59.915Z</time></trkpt><trkpt lat="44.5740987" lon="9.9817732"><ele>606.8571428571429</ele><time>2026-04-11T10:42:00.915Z</time></trkpt><trkpt lat="44.5740734" lon="9.9816698"><ele>607.5714285714286</ele><time>2026-04-11T10:42:01.915Z</time></trkpt><trkpt lat="44.5740565" lon="9.9815635"><ele>608.2857142857143</ele><time>2026-04-11T10:42:02.914Z</time></trkpt><trkpt lat="44.5740506" lon="9.9814562"><ele>609.0</ele><time>2026-04-11T10:42:03.915Z</time></trkpt><trkpt lat="44.5740477" lon="9.9813417"><ele>610.6666666666666</ele><time>2026-04-11T10:42:04.914Z</time></trkpt><trkpt lat="44.5740472" lon="9.9812264"><ele>612.3333333333334</ele><time>2026-04-11T10:42:05.915Z</time></trkpt><trkpt lat="44.5740409" lon="9.9811088"><ele>614.0</ele><time>2026-04-11T10:42:06.914Z</time></trkpt><trkpt lat="44.5740358" lon="9.9809879"><ele>615.6666666666667</ele><time>2026-04-11T10:42:07.914Z</time></trkpt><trkpt lat="44.5740379" lon="9.9808643"><ele>617.3333333333334</ele><time>2026-04-11T10:42:08.915Z</time></trkpt><trkpt lat="44.5740407" lon="9.980744"><ele>619.0</ele><time>2026-04-11T10:42:09.915Z</time></trkpt><trkpt lat="44.5740439" lon="9.9806194"><ele>619.8333333333334</ele><time>2026-04-11T10:42:10.915Z</time></trkpt><trkpt lat="44.5740427" lon="9.9804935"><ele>620.6666666666667</ele><time>2026-04-11T10:42:11.914Z</time></trkpt><trkpt lat="44.5740421" lon="9.9803699"><ele>621.5</ele><time>2026-04-11T10:42:12.916Z</time></trkpt><trkpt lat="44.5740363" lon="9.9802507"><ele>622.3333333333334</ele><time>2026-04-11T10:42:13.915Z</time></trkpt><trkpt lat="44.5740213" lon="9.9801357"><ele>623.1666666666666</ele><time>2026-04-11T10:42:14.915Z</time></trkpt><trkpt lat="44.5739984" lon="9.9800286"><ele>624.0</ele><time>2026-04-11T10:42:15.915Z</time></trkpt><trkpt lat="44.5739439" lon="9.9799386"><ele>624.6666666666666</ele><time>2026-04-11T10:42:16.915Z</time></trkpt><trkpt lat="44.5738803" lon="9.9798647"><ele>625.3333333333334</ele><time>2026-04-11T10:42:17.914Z</time></trkpt><trkpt lat="44.5738057" lon="9.9797999"><ele>626.0</ele><time>2026-04-11T10:42:18.915Z</time></trkpt><trkpt lat="44.573728" lon="9.9797411"><ele>626.6666666666667</ele><time>2026-04-11T10:42:19.915Z</time></trkpt><trkpt lat="44.5736466" lon="9.9796784"><ele>627.3333333333334</ele><time>2026-04-11T10:42:20.915Z</time></trkpt><trkpt lat="44.5735664" lon="9.9796105"><ele>628.0</ele><time>2026-04-11T10:42:21.914Z</time></trkpt><trkpt lat="44.5734863" lon="9.9795429"><ele>628.6</ele><time>2026-04-11T10:42:22.915Z</time></trkpt><trkpt lat="44.5734094" lon="9.9794748"><ele>629.1999999999999</ele><time>2026-04-11T10:42:23.914Z</time></trkpt><trkpt lat="44.5733404" lon="9.9793941"><ele>629.8</ele><time>2026-04-11T10:42:24.915Z</time></trkpt><trkpt lat="44.5732817" lon="9.9792967"><ele>630.4</ele><time>2026-04-11T10:42:25.915Z</time></trkpt><trkpt lat="44.5732295" lon="9.9791858"><ele>631.0</ele><time>2026-04-11T10:42:26.915Z</time></trkpt><trkpt lat="44.5731824" lon="9.979063"><ele>631.0</ele><time>2026-04-11T10:42:27.914Z</time></trkpt><trkpt lat="44.573136" lon="9.978948"><ele>631.0</ele><time>2026-04-11T10:42:28.916Z</time></trkpt><trkpt lat="44.5730804" lon="9.9788495"><ele>631.0</ele><time>2026-04-11T10:42:29.914Z</time></trkpt><trkpt lat="44.5730146" lon="9.9787681"><ele>631.0</ele><time>2026-04-11T10:42:30.915Z</time></trkpt><trkpt lat="44.5729357" lon="9.9787118"><ele>631.0</ele><time>2026-04-11T10:42:31.915Z</time></trkpt><trkpt lat="44.5728611" lon="9.9786851"><ele>631.0</ele><time>2026-04-11T10:42:32.914Z</time></trkpt><trkpt lat="44.572787" lon="9.9786847"><ele>631.6</ele><time>2026-04-11T10:42:33.915Z</time></trkpt><trkpt lat="44.5727168" lon="9.9787056"><ele>632.2</ele><time>2026-04-11T10:42:34.915Z</time></trkpt><trkpt lat="44.5726151" lon="9.9787885"><ele>632.8</ele><time>2026-04-11T10:42:35.915Z</time></trkpt><trkpt lat="44.5725236" lon="9.9788578"><ele>633.4</ele><time>2026-04-11T10:42:36.914Z</time></trkpt><trkpt lat="44.5724445" lon="9.9789089"><ele>634.0</ele><time>2026-04-11T10:42:37.915Z</time></trkpt><trkpt lat="44.5723582" lon="9.978963"><ele>634.0</ele><time>2026-04-11T10:42:38.914Z</time></trkpt><trkpt lat="44.5722672" lon="9.9789981"><ele>634.0</ele><time>2026-04-11T10:42:39.915Z</time></trkpt><trkpt lat="44.5721835" lon="9.9790254"><ele>634.0</ele><time>2026-04-11T10:42:40.915Z</time></trkpt><trkpt lat="44.5720952" lon="9.9790022"><ele>634.0</ele><time>2026-04-11T10:42:41.915Z</time></trkpt><trkpt lat="44.5720306" lon="9.9789519"><ele>634.0</ele><time>2026-04-11T10:42:42.915Z</time></trkpt><trkpt lat="44.5719817" lon="9.9788701"><ele>634.0</ele><time>2026-04-11T10:42:43.915Z</time></trkpt><trkpt lat="44.5719403" lon="9.9787749"><ele>634.8</ele><time>2026-04-11T10:42:44.915Z</time></trkpt><trkpt lat="44.5718958" lon="9.9786782"><ele>635.5999999999999</ele><time>2026-04-11T10:42:45.914Z</time></trkpt><trkpt lat="44.5718408" lon="9.9785699"><ele>636.4</ele><time>2026-04-11T10:42:46.915Z</time></trkpt><trkpt lat="44.571783" lon="9.9784585"><ele>637.1999999999999</ele><time>2026-04-11T10:42:47.914Z</time></trkpt><trkpt lat="44.5717274" lon="9.9783505"><ele>638.0</ele><time>2026-04-11T10:42:48.915Z</time></trkpt><trkpt lat="44.5716711" lon="9.9782467"><ele>642.0</ele><time>2026-04-11T10:42:49.915Z</time></trkpt><trkpt lat="44.5716107" lon="9.9781557"><ele>646.0</ele><time>2026-04-11T10:42:50.915Z</time></trkpt><trkpt lat="44.5715328" lon="9.9780913"><ele>650.0</ele><time>2026-04-11T10:42:51.915Z</time></trkpt><trkpt lat="44.571446" lon="9.9780663"><ele>654.0</ele><time>2026-04-11T10:42:52.915Z</time></trkpt><trkpt lat="44.5713491" lon="9.9780588"><ele>658.0</ele><time>2026-04-11T10:42:53.915Z</time></trkpt><trkpt lat="44.571248" lon="9.9780582"><ele>657.4</ele><time>2026-04-11T10:42:54.915Z</time></trkpt><trkpt lat="44.5711526" lon="9.9780545"><ele>656.8</ele><time>2026-04-11T10:42:55.915Z</time></trkpt><trkpt lat="44.5710494" lon="9.9780602"><ele>656.2</ele><time>2026-04-11T10:42:56.915Z</time></trkpt><trkpt lat="44.5709442" lon="9.9780724"><ele>655.6</ele><time>2026-04-11T10:42:57.914Z</time></trkpt><trkpt lat="44.5708319" lon="9.9780898"><ele>655.0</ele><time>2026-04-11T10:42:58.915Z</time></trkpt><trkpt lat="44.5707272" lon="9.9781119"><ele>655.0</ele><time>2026-04-11T10:42:59.915Z</time></trkpt><trkpt lat="44.5706259" lon="9.9781327"><ele>655.0</ele><time>2026-04-11T10:43:00.915Z</time></trkpt><trkpt lat="44.570521" lon="9.9781668"><ele>655.0</ele><time>2026-04-11T10:43:01.915Z</time></trkpt><trkpt lat="44.5704125" lon="9.9781872"><ele>655.0</ele><time>2026-04-11T10:43:02.914Z</time></trkpt><trkpt lat="44.5703012" lon="9.9782138"><ele>655.0</ele><time>2026-04-11T10:43:03.915Z</time></trkpt><trkpt lat="44.5701892" lon="9.9782554"><ele>654.0</ele><time>2026-04-11T10:43:04.914Z</time></trkpt><trkpt lat="44.5700786" lon="9.9782928"><ele>653.0</ele><time>2026-04-11T10:43:05.914Z</time></trkpt><trkpt lat="44.5699723" lon="9.9783451"><ele>652.0</ele><time>2026-04-11T10:43:06.915Z</time></trkpt><trkpt lat="44.5698673" lon="9.9783963"><ele>651.0</ele><time>2026-04-11T10:43:07.915Z</time></trkpt><trkpt lat="44.5697595" lon="9.9784325"><ele>650.0</ele><time>2026-04-11T10:43:08.915Z</time></trkpt><trkpt lat="44.5696498" lon="9.9784414"><ele>650.0</ele><time>2026-04-11T10:43:09.915Z</time></trkpt><trkpt lat="44.5695397" lon="9.9784245"><ele>650.0</ele><time>2026-04-11T10:43:10.915Z</time></trkpt><trkpt lat="44.5694308" lon="9.9784"><ele>650.0</ele><time>2026-04-11T10:43:11.915Z</time></trkpt><trkpt lat="44.5693195" lon="9.9783662"><ele>650.0</ele><time>2026-04-11T10:43:12.914Z</time></trkpt><trkpt lat="44.5692076" lon="9.9783337"><ele>650.0</ele><time>2026-04-11T10:43:13.914Z</time></trkpt><trkpt lat="44.569101" lon="9.9782996"><ele>652.8</ele><time>2026-04-11T10:43:14.915Z</time></trkpt><trkpt lat="44.5689973" lon="9.978256"><ele>655.6</ele><time>2026-04-11T10:43:15.914Z</time></trkpt><trkpt lat="44.5688958" lon="9.9781995"><ele>658.4000000000001</ele><time>2026-04-11T10:43:16.915Z</time></trkpt><trkpt lat="44.5687949" lon="9.9781297"><ele>661.2</ele><time>2026-04-11T10:43:17.915Z</time></trkpt><trkpt lat="44.5687042" lon="9.9780433"><ele>664.0</ele><time>2026-04-11T10:43:18.914Z</time></trkpt><trkpt lat="44.568611" lon="9.9779492"><ele>664.0</ele><time>2026-04-11T10:43:19.915Z</time></trkpt><trkpt lat="44.5685169" lon="9.977853"><ele>664.0</ele><time>2026-04-11T10:43:20.915Z</time></trkpt><trkpt lat="44.5684275" lon="9.9777553"><ele>664.0</ele><time>2026-04-11T10:43:21.914Z</time></trkpt><trkpt lat="44.5683403" lon="9.9776584"><ele>664.0</ele><time>2026-04-11T10:43:22.915Z</time></trkpt><trkpt lat="44.5682617" lon="9.9775525"><ele>667.2</ele><time>2026-04-11T10:43:23.915Z</time></trkpt><trkpt lat="44.5681924" lon="9.977435"><ele>670.4000000000001</ele><time>2026-04-11T10:43:24.914Z</time></trkpt><trkpt lat="44.56813" lon="9.9773153"><ele>673.6</ele><time>2026-04-11T10:43:25.915Z</time></trkpt><trkpt lat="44.5680745" lon="9.9771961"><ele>676.8</ele><time>2026-04-11T10:43:26.916Z</time></trkpt><trkpt lat="44.5680157" lon="9.9770869"><ele>680.0</ele><time>2026-04-11T10:43:27.915Z</time></trkpt><trkpt lat="44.5679417" lon="9.9770037"><ele>677.8</ele><time>2026-04-11T10:43:28.915Z</time></trkpt><trkpt lat="44.5678599" lon="9.9769484"><ele>675.6</ele><time>2026-04-11T10:43:29.915Z</time></trkpt><trkpt lat="44.5677668" lon="9.9769092"><ele>673.4000000000001</ele><time>2026-04-11T10:43:30.914Z</time></trkpt><trkpt lat="44.5676703" lon="9.9768789"><ele>671.2</ele><time>2026-04-11T10:43:31.916Z</time></trkpt><trkpt lat="44.5675772" lon="9.9768482"><ele>669.0</ele><time>2026-04-11T10:43:32.915Z</time></trkpt><trkpt lat="44.567488" lon="9.9768102"><ele>669.0</ele><time>2026-04-11T10:43:33.915Z</time></trkpt><trkpt lat="44.5674044" lon="9.9767585"><ele>669.0</ele><time>2026-04-11T10:43:34.915Z</time></trkpt><trkpt lat="44.5673287" lon="9.9766845"><ele>669.0</ele><time>2026-04-11T10:43:35.915Z</time></trkpt><trkpt lat="44.5672656" lon="9.9765903"><ele>669.0</ele><time>2026-04-11T10:43:36.915Z</time></trkpt><trkpt lat="44.5672051" lon="9.9764884"><ele>669.0</ele><time>2026-04-11T10:43:37.914Z</time></trkpt><trkpt lat="44.5671535" lon="9.976374"><ele>669.4000000000001</ele><time>2026-04-11T10:43:38.915Z</time></trkpt><trkpt lat="44.5671072" lon="9.976257"><ele>669.8</ele><time>2026-04-11T10:43:39.915Z</time></trkpt><trkpt lat="44.5670659" lon="9.9761391"><ele>670.2</ele><time>2026-04-11T10:43:40.915Z</time></trkpt><trkpt lat="44.5670278" lon="9.9760218"><ele>670.5999999999999</ele><time>2026-04-11T10:43:41.915Z</time></trkpt><trkpt lat="44.566982" lon="9.9759001"><ele>671.0</ele><time>2026-04-11T10:43:42.914Z</time></trkpt><trkpt lat="44.5669371" lon="9.9757821"><ele>672.5999999999999</ele><time>2026-04-11T10:43:43.914Z</time></trkpt><trkpt lat="44.5668958" lon="9.9756663"><ele>674.2</ele><time>2026-04-11T10:43:44.913Z</time></trkpt><trkpt lat="44.5668497" lon="9.9755534"><ele>675.8</ele><time>2026-04-11T10:43:45.914Z</time></trkpt><trkpt lat="44.5668131" lon="9.9754314"><ele>677.4000000000001</ele><time>2026-04-11T10:43:46.914Z</time></trkpt><trkpt lat="44.5667859" lon="9.9753054"><ele>679.0</ele><time>2026-04-11T10:43:47.913Z</time></trkpt><trkpt lat="44.5667805" lon="9.9751712"><ele>679.0</ele><time>2026-04-11T10:43:48.914Z</time></trkpt><trkpt lat="44.5667811" lon="9.9750371"><ele>679.0</ele><time>2026-04-11T10:43:49.913Z</time></trkpt><trkpt lat="44.5667873" lon="9.9749007"><ele>679.0</ele><time>2026-04-11T10:43:50.914Z</time></trkpt><trkpt lat="44.5667977" lon="9.9747622"><ele>679.0</ele><time>2026-04-11T10:43:51.914Z</time></trkpt><trkpt lat="44.5668078" lon="9.9746225"><ele>679.0</ele><time>2026-04-11T10:43:52.914Z</time></trkpt><trkpt lat="44.5668199" lon="9.9744816"><ele>680.2</ele><time>2026-04-11T10:43:53.913Z</time></trkpt><trkpt lat="44.5668314" lon="9.9743431"><ele>681.4000000000001</ele><time>2026-04-11T10:43:54.914Z</time></trkpt><trkpt lat="44.5668348" lon="9.9742059"><ele>682.6</ele><time>2026-04-11T10:43:55.914Z</time></trkpt><trkpt lat="44.5668229" lon="9.9740673"><ele>683.8</ele><time>2026-04-11T10:43:56.914Z</time></trkpt><trkpt lat="44.5667958" lon="9.9739355"><ele>685.0</ele><time>2026-04-11T10:43:57.914Z</time></trkpt><trkpt lat="44.5667548" lon="9.973811"><ele>685.8333333333334</ele><time>2026-04-11T10:43:58.913Z</time></trkpt><trkpt lat="44.5667069" lon="9.9736995"><ele>686.6666666666667</ele><time>2026-04-11T10:43:59.914Z</time></trkpt><trkpt lat="44.5666584" lon="9.9736016"><ele>687.5</ele><time>2026-04-11T10:44:00.915Z</time></trkpt><trkpt lat="44.566614" lon="9.9735199"><ele>688.3333333333334</ele><time>2026-04-11T10:44:01.913Z</time></trkpt><trkpt lat="44.5665352" lon="9.9734049"><ele>689.1666666666666</ele><time>2026-04-11T10:44:03.914Z</time></trkpt><trkpt lat="44.5664722" lon="9.9733336"><ele>690.0</ele><time>2026-04-11T10:44:05.914Z</time></trkpt><trkpt lat="44.5664213" lon="9.973279"><ele>690.2857142857143</ele><time>2026-04-11T10:50:15.913Z</time></trkpt><trkpt lat="44.5663686" lon="9.9732189"><ele>690.5714285714286</ele><time>2026-04-11T10:50:59.913Z</time></trkpt><trkpt lat="44.5663017" lon="9.9731951"><ele>690.8571428571429</ele><time>2026-04-11T10:51:04.913Z</time></trkpt><trkpt lat="44.5662443" lon="9.9731492"><ele>691.1428571428571</ele><time>2026-04-11T10:51:08.914Z</time></trkpt><trkpt lat="44.5661853" lon="9.9730801"><ele>691.4285714285714</ele><time>2026-04-11T10:51:12.912Z</time></trkpt><trkpt lat="44.5661337" lon="9.9730268"><ele>691.7142857142857</ele><time>2026-04-11T10:51:15.913Z</time></trkpt><trkpt lat="44.5660805" lon="9.9729531"><ele>692.0</ele><time>2026-04-11T10:51:34.912Z</time></trkpt><trkpt lat="44.5660311" lon="9.9728772"><ele>691.2</ele><time>2026-04-11T10:51:39.913Z</time></trkpt><trkpt lat="44.5659528" lon="9.9727668"><ele>690.4000000000001</ele><time>2026-04-11T10:51:42.913Z</time></trkpt><trkpt lat="44.5659069" lon="9.9726779"><ele>689.5999999999999</ele><time>2026-04-11T10:51:43.913Z</time></trkpt><trkpt lat="44.5658563" lon="9.9725799"><ele>688.8</ele><time>2026-04-11T10:51:44.912Z</time></trkpt><trkpt lat="44.5658022" lon="9.9724849"><ele>688.0</ele><time>2026-04-11T10:51:45.912Z</time></trkpt><trkpt lat="44.5657462" lon="9.9723895"><ele>688.0</ele><time>2026-04-11T10:51:46.913Z</time></trkpt><trkpt lat="44.5656856" lon="9.9723091"><ele>688.0</ele><time>2026-04-11T10:51:47.913Z</time></trkpt><trkpt lat="44.5656125" lon="9.9722572"><ele>688.0</ele><time>2026-04-11T10:51:48.913Z</time></trkpt><trkpt lat="44.5655334" lon="9.9722382"><ele>688.0</ele><time>2026-04-11T10:51:49.913Z</time></trkpt><trkpt lat="44.565456" lon="9.9722492"><ele>688.0</ele><time>2026-04-11T10:51:50.913Z</time></trkpt><trkpt lat="44.5653822" lon="9.9722838"><ele>688.0</ele><time>2026-04-11T10:51:51.913Z</time></trkpt><trkpt lat="44.5653172" lon="9.9723239"><ele>687.8571428571429</ele><time>2026-04-11T10:51:52.913Z</time></trkpt><trkpt lat="44.5652574" lon="9.9723668"><ele>687.7142857142858</ele><time>2026-04-11T10:51:53.914Z</time></trkpt><trkpt lat="44.5651957" lon="9.9724074"><ele>687.5714285714287</ele><time>2026-04-11T10:51:54.913Z</time></trkpt><trkpt lat="44.5651318" lon="9.972453"><ele>687.4285714285714</ele><time>2026-04-11T10:51:55.913Z</time></trkpt><trkpt lat="44.5650678" lon="9.9725024"><ele>687.2857142857142</ele><time>2026-04-11T10:51:56.912Z</time></trkpt><trkpt lat="44.5649997" lon="9.9725439"><ele>687.1428571428572</ele><time>2026-04-11T10:51:57.913Z</time></trkpt><trkpt lat="44.5649373" lon="9.9725855"><ele>687.0</ele><time>2026-04-11T10:51:58.913Z</time></trkpt><trkpt lat="44.5648814" lon="9.9726297"><ele>688.1666666666666</ele><time>2026-04-11T10:51:59.913Z</time></trkpt><trkpt lat="44.5647907" lon="9.9727054"><ele>689.3333333333334</ele><time>2026-04-11T10:52:01.913Z</time></trkpt><trkpt lat="44.5647233" lon="9.9727826"><ele>690.5</ele><time>2026-04-11T10:52:03.913Z</time></trkpt><trkpt lat="44.5646662" lon="9.9728313"><ele>691.6666666666667</ele><time>2026-04-11T10:52:05.912Z</time></trkpt><trkpt lat="44.5646547" lon="9.9727333"><ele>692.8333333333334</ele><time>2026-04-11T10:52:08.913Z</time></trkpt><trkpt lat="44.5647282" lon="9.9726055"><ele>694.0</ele><time>2026-04-11T10:52:10.913Z</time></trkpt><trkpt lat="44.5647724" lon="9.9725258"><ele>692.6</ele><time>2026-04-11T10:52:11.913Z</time></trkpt><trkpt lat="44.5648161" lon="9.972429"><ele>691.2</ele><time>2026-04-11T10:52:12.913Z</time></trkpt><trkpt lat="44.5648524" lon="9.9723154"><ele>689.8000000000001</ele><time>2026-04-11T10:52:13.913Z</time></trkpt><trkpt lat="44.5648837" lon="9.9721918"><ele>688.4000000000001</ele><time>2026-04-11T10:52:14.913Z</time></trkpt><trkpt lat="44.5649095" lon="9.9720616"><ele>687.0</ele><time>2026-04-11T10:52:15.913Z</time></trkpt><trkpt lat="44.5649286" lon="9.9719324"><ele>687.0</ele><time>2026-04-11T10:52:16.913Z</time></trkpt><trkpt lat="44.5649504" lon="9.9718078"><ele>687.0</ele><time>2026-04-11T10:52:17.912Z</time></trkpt><trkpt lat="44.5649771" lon="9.9716886"><ele>687.0</ele><time>2026-04-11T10:52:18.913Z</time></trkpt><trkpt lat="44.5650051" lon="9.9715723"><ele>687.0</ele><time>2026-04-11T10:52:19.913Z</time></trkpt><trkpt lat="44.5650308" lon="9.9714636"><ele>687.0</ele><time>2026-04-11T10:52:20.913Z</time></trkpt><trkpt lat="44.56504" lon="9.9713545"><ele>687.0</ele><time>2026-04-11T10:52:21.912Z</time></trkpt><trkpt lat="44.565033" lon="9.9712656"><ele>684.2</ele><time>2026-04-11T10:52:22.912Z</time></trkpt><trkpt lat="44.5649459" lon="9.9711657"><ele>681.4000000000001</ele><time>2026-04-11T10:52:24.913Z</time></trkpt><trkpt lat="44.5648772" lon="9.9711767"><ele>678.5999999999999</ele><time>2026-04-11T10:52:25.913Z</time></trkpt><trkpt lat="44.5648044" lon="9.9712242"><ele>675.8</ele><time>2026-04-11T10:52:26.913Z</time></trkpt><trkpt lat="44.5647068" lon="9.9712167"><ele>673.0</ele><time>2026-04-11T10:52:28.913Z</time></trkpt><trkpt lat="44.564683" lon="9.9710519"><ele>673.0</ele><time>2026-04-11T10:52:30.913Z</time></trkpt><trkpt lat="44.5646971" lon="9.9709281"><ele>673.0</ele><time>2026-04-11T10:52:31.913Z</time></trkpt><trkpt lat="44.5647175" lon="9.9707814"><ele>673.0</ele><time>2026-04-11T10:52:32.913Z</time></trkpt><trkpt lat="44.5647548" lon="9.9704873"><ele>673.0</ele><time>2026-04-11T10:52:34.913Z</time></trkpt><trkpt lat="44.5647738" lon="9.9703573"><ele>670.3333333333334</ele><time>2026-04-11T10:52:35.913Z</time></trkpt><trkpt lat="44.5647747" lon="9.9702321"><ele>667.6666666666667</ele><time>2026-04-11T10:52:36.912Z</time></trkpt><trkpt lat="44.5647608" lon="9.9701115"><ele>665.0</ele><time>2026-04-11T10:52:37.913Z</time></trkpt><trkpt lat="44.5647474" lon="9.9700032"><ele>662.3333333333334</ele><time>2026-04-11T10:52:38.913Z</time></trkpt><trkpt lat="44.5647226" lon="9.9699004"><ele>659.6666666666666</ele><time>2026-04-11T10:52:39.912Z</time></trkpt><trkpt lat="44.5647037" lon="9.969793"><ele>657.0</ele><time>2026-04-11T10:52:40.913Z</time></trkpt><trkpt lat="44.5647052" lon="9.9696876"><ele>654.6666666666666</ele><time>2026-04-11T10:52:41.913Z</time></trkpt><trkpt lat="44.5646948" lon="9.9695812"><ele>652.3333333333334</ele><time>2026-04-11T10:52:42.912Z</time></trkpt><trkpt lat="44.5646822" lon="9.9694764"><ele>650.0</ele><time>2026-04-11T10:52:43.913Z</time></trkpt><trkpt lat="44.5646723" lon="9.9693722"><ele>647.6666666666667</ele><time>2026-04-11T10:52:44.913Z</time></trkpt><trkpt lat="44.5646616" lon="9.9692782"><ele>645.3333333333334</ele><time>2026-04-11T10:52:45.913Z</time></trkpt><trkpt lat="44.5646281" lon="9.9691759"><ele>643.0</ele><time>2026-04-11T10:52:46.913Z</time></trkpt><trkpt lat="44.5645776" lon="9.9690849"><ele>641.5</ele><time>2026-04-11T10:52:47.914Z</time></trkpt><trkpt lat="44.5645243" lon="9.9690037"><ele>640.0</ele><time>2026-04-11T10:52:48.913Z</time></trkpt><trkpt lat="44.5644761" lon="9.9689094"><ele>638.5</ele><time>2026-04-11T10:52:49.913Z</time></trkpt><trkpt lat="44.5644395" lon="9.9688095"><ele>637.0</ele><time>2026-04-11T10:52:50.913Z</time></trkpt><trkpt lat="44.5644168" lon="9.9687137"><ele>635.5</ele><time>2026-04-11T10:52:51.913Z</time></trkpt><trkpt lat="44.5643973" lon="9.9686215"><ele>634.0</ele><time>2026-04-11T10:52:52.913Z</time></trkpt><trkpt lat="44.5644253" lon="9.9684768"><ele>634.0</ele><time>2026-04-11T10:52:54.913Z</time></trkpt><trkpt lat="44.5645246" lon="9.9684451"><ele>634.0</ele><time>2026-04-11T10:52:56.913Z</time></trkpt><trkpt lat="44.5646305" lon="9.9684653"><ele>634.0</ele><time>2026-04-11T10:52:58.913Z</time></trkpt><trkpt lat="44.5646879" lon="9.9683467"><ele>634.0</ele><time>2026-04-11T10:53:00.912Z</time></trkpt><trkpt lat="44.564662" lon="9.9682604"><ele>634.0</ele><time>2026-04-11T10:53:01.913Z</time></trkpt><trkpt lat="44.5646157" lon="9.9681885"><ele>634.0</ele><time>2026-04-11T10:53:02.913Z</time></trkpt><trkpt lat="44.5645716" lon="9.9681022"><ele>631.5</ele><time>2026-04-11T10:53:03.913Z</time></trkpt><trkpt lat="44.5645205" lon="9.9680088"><ele>629.0</ele><time>2026-04-11T10:53:04.913Z</time></trkpt><trkpt lat="44.564474" lon="9.9679083"><ele>626.5</ele><time>2026-04-11T10:53:05.913Z</time></trkpt><trkpt lat="44.5644397" lon="9.9678124"><ele>624.0</ele><time>2026-04-11T10:53:06.912Z</time></trkpt><trkpt lat="44.5644026" lon="9.9677293"><ele>621.5</ele><time>2026-04-11T10:53:07.913Z</time></trkpt><trkpt lat="44.5643606" lon="9.9676569"><ele>619.0</ele><time>2026-04-11T10:53:08.912Z</time></trkpt><trkpt lat="44.5643137" lon="9.9675832"><ele>616.3333333333334</ele><time>2026-04-11T10:53:09.913Z</time></trkpt><trkpt lat="44.5642509" lon="9.9675098"><ele>613.6666666666667</ele><time>2026-04-11T10:53:10.913Z</time></trkpt><trkpt lat="44.5641948" lon="9.9674423"><ele>611.0</ele><time>2026-04-11T10:53:11.912Z</time></trkpt><trkpt lat="44.564151" lon="9.9673753"><ele>608.3333333333334</ele><time>2026-04-11T10:53:12.913Z</time></trkpt><trkpt lat="44.5641189" lon="9.9672122"><ele>605.6666666666666</ele><time>2026-04-11T10:53:14.912Z</time></trkpt><trkpt lat="44.56419" lon="9.9671693"><ele>603.0</ele><time>2026-04-11T10:53:15.913Z</time></trkpt><trkpt lat="44.5643016" lon="9.9670843"><ele>603.0</ele><time>2026-04-11T10:53:17.912Z</time></trkpt><trkpt lat="44.564369" lon="9.9670552"><ele>603.0</ele><time>2026-04-11T10:53:18.912Z</time></trkpt><trkpt lat="44.5644313" lon="9.9670416"><ele>603.0</ele><time>2026-04-11T10:53:19.912Z</time></trkpt><trkpt lat="44.5645353" lon="9.9670527"><ele>603.0</ele><time>2026-04-11T10:53:21.912Z</time></trkpt><trkpt lat="44.564597" lon="9.9670166"><ele>603.0</ele><time>2026-04-11T10:53:23.912Z</time></trkpt><trkpt lat="44.5645971" lon="9.9668703"><ele>603.0</ele><time>2026-04-11T10:53:26.912Z</time></trkpt><trkpt lat="44.5645449" lon="9.9667258"><ele>600.1666666666666</ele><time>2026-04-11T10:53:28.911Z</time></trkpt><trkpt lat="44.5644926" lon="9.9666547"><ele>597.3333333333334</ele><time>2026-04-11T10:53:29.912Z</time></trkpt><trkpt lat="44.5644333" lon="9.9665856"><ele>594.5</ele><time>2026-04-11T10:53:30.912Z</time></trkpt><trkpt lat="44.5643783" lon="9.9665244"><ele>591.6666666666667</ele><time>2026-04-11T10:53:31.912Z</time></trkpt><trkpt lat="44.5642807" lon="9.9664328"><ele>588.8333333333334</ele><time>2026-04-11T10:53:33.911Z</time></trkpt><trkpt lat="44.5642465" lon="9.9663175"><ele>586.0</ele><time>2026-04-11T10:53:35.912Z</time></trkpt><trkpt lat="44.5643099" lon="9.9662504"><ele>586.0</ele><time>2026-04-11T10:53:37.913Z</time></trkpt><trkpt lat="44.5644087" lon="9.9662408"><ele>586.0</ele><time>2026-04-11T10:53:39.911Z</time></trkpt><trkpt lat="44.5644724" lon="9.9662232"><ele>586.0</ele><time>2026-04-11T10:53:40.912Z</time></trkpt><trkpt lat="44.5645444" lon="9.9661786"><ele>586.0</ele><time>2026-04-11T10:53:41.912Z</time></trkpt><trkpt lat="44.5646146" lon="9.9661371"><ele>586.0</ele><time>2026-04-11T10:53:42.911Z</time></trkpt><trkpt lat="44.5646825" lon="9.9661055"><ele>586.0</ele><time>2026-04-11T10:53:43.912Z</time></trkpt><trkpt lat="44.5647479" lon="9.9661047"><ele>583.5</ele><time>2026-04-11T10:53:44.912Z</time></trkpt><trkpt lat="44.5648226" lon="9.9661316"><ele>581.0</ele><time>2026-04-11T10:53:45.911Z</time></trkpt><trkpt lat="44.5648937" lon="9.9661837"><ele>578.5</ele><time>2026-04-11T10:53:46.912Z</time></trkpt><trkpt lat="44.5649578" lon="9.9662625"><ele>576.0</ele><time>2026-04-11T10:53:47.912Z</time></trkpt><trkpt lat="44.5650341" lon="9.9663366"><ele>573.5</ele><time>2026-04-11T10:53:48.912Z</time></trkpt><trkpt lat="44.5651101" lon="9.9663858"><ele>571.0</ele><time>2026-04-11T10:53:49.911Z</time></trkpt><trkpt lat="44.5651909" lon="9.9664275"><ele>571.0</ele><time>2026-04-11T10:53:50.913Z</time></trkpt><trkpt lat="44.5652725" lon="9.9664768"><ele>571.0</ele><time>2026-04-11T10:53:51.913Z</time></trkpt><trkpt lat="44.5653546" lon="9.9665068"><ele>571.0</ele><time>2026-04-11T10:53:52.911Z</time></trkpt><trkpt lat="44.5654238" lon="9.9665339"><ele>571.0</ele><time>2026-04-11T10:53:53.912Z</time></trkpt><trkpt lat="44.5654954" lon="9.9665387"><ele>571.0</ele><time>2026-04-11T10:53:54.911Z</time></trkpt><trkpt lat="44.5655555" lon="9.9665067"><ele>571.0</ele><time>2026-04-11T10:53:55.912Z</time></trkpt><trkpt lat="44.5656057" lon="9.9663545"><ele>569.0</ele><time>2026-04-11T10:53:57.912Z</time></trkpt><trkpt lat="44.5656053" lon="9.9662588"><ele>567.0</ele><time>2026-04-11T10:53:58.912Z</time></trkpt><trkpt lat="44.5656097" lon="9.9661552"><ele>565.0</ele><time>2026-04-11T10:53:59.911Z</time></trkpt><trkpt lat="44.5656325" lon="9.9660523"><ele>563.0</ele><time>2026-04-11T10:54:00.912Z</time></trkpt><trkpt lat="44.5656629" lon="9.9659528"><ele>561.0</ele><time>2026-04-11T10:54:01.912Z</time></trkpt><trkpt lat="44.5657096" lon="9.9658694"><ele>559.0</ele><time>2026-04-11T10:54:02.911Z</time></trkpt><trkpt lat="44.5657638" lon="9.9658083"><ele>557.0</ele><time>2026-04-11T10:54:03.912Z</time></trkpt><trkpt lat="44.5658253" lon="9.9657534"><ele>554.8571428571429</ele><time>2026-04-11T10:54:04.912Z</time></trkpt><trkpt lat="44.5658796" lon="9.9656888"><ele>552.7142857142857</ele><time>2026-04-11T10:54:05.911Z</time></trkpt><trkpt lat="44.5659242" lon="9.9656003"><ele>550.5714285714286</ele><time>2026-04-11T10:54:06.912Z</time></trkpt><trkpt lat="44.5659541" lon="9.9655048"><ele>548.4285714285714</ele><time>2026-04-11T10:54:07.912Z</time></trkpt><trkpt lat="44.5659652" lon="9.9654017"><ele>546.2857142857143</ele><time>2026-04-11T10:54:08.911Z</time></trkpt><trkpt lat="44.5659476" lon="9.9653013"><ele>544.1428571428571</ele><time>2026-04-11T10:54:09.912Z</time></trkpt><trkpt lat="44.565901" lon="9.9652196"><ele>542.0</ele><time>2026-04-11T10:54:10.912Z</time></trkpt><trkpt lat="44.5657651" lon="9.9651131"><ele>542.0</ele><time>2026-04-11T10:54:12.911Z</time></trkpt><trkpt lat="44.5656694" lon="9.9650672"><ele>542.0</ele><time>2026-04-11T10:54:13.912Z</time></trkpt><trkpt lat="44.565582" lon="9.9650176"><ele>542.0</ele><time>2026-04-11T10:54:14.912Z</time></trkpt><trkpt lat="44.5654989" lon="9.9649807"><ele>542.0</ele><time>2026-04-11T10:54:15.912Z</time></trkpt><trkpt lat="44.5654241" lon="9.9649601"><ele>542.0</ele><time>2026-04-11T10:54:16.912Z</time></trkpt><trkpt lat="44.5653636" lon="9.9649158"><ele>542.0</ele><time>2026-04-11T10:54:17.912Z</time></trkpt><trkpt lat="44.5653204" lon="9.9648446"><ele>540.5</ele><time>2026-04-11T10:54:18.912Z</time></trkpt><trkpt lat="44.5652843" lon="9.9647635"><ele>539.0</ele><time>2026-04-11T10:54:19.911Z</time></trkpt><trkpt lat="44.5652544" lon="9.964667"><ele>537.5</ele><time>2026-04-11T10:54:20.912Z</time></trkpt><trkpt lat="44.5652342" lon="9.9645593"><ele>536.0</ele><time>2026-04-11T10:54:21.912Z</time></trkpt><trkpt lat="44.5652245" lon="9.9644371"><ele>534.5</ele><time>2026-04-11T10:54:22.911Z</time></trkpt><trkpt lat="44.5652335" lon="9.9643169"><ele>533.0</ele><time>2026-04-11T10:54:23.912Z</time></trkpt><trkpt lat="44.5652329" lon="9.9642014"><ele>530.6666666666666</ele><time>2026-04-11T10:54:24.912Z</time></trkpt><trkpt lat="44.5652644" lon="9.9640234"><ele>528.3333333333333</ele><time>2026-04-11T10:54:26.913Z</time></trkpt><trkpt lat="44.565304" lon="9.9639411"><ele>526.0</ele><time>2026-04-11T10:54:27.913Z</time></trkpt><trkpt lat="44.5653502" lon="9.9638603"><ele>523.6666666666666</ele><time>2026-04-11T10:54:28.911Z</time></trkpt><trkpt lat="44.5653977" lon="9.9637733"><ele>521.3333333333334</ele><time>2026-04-11T10:54:29.912Z</time></trkpt><trkpt lat="44.5654416" lon="9.9636709"><ele>519.0</ele><time>2026-04-11T10:54:30.912Z</time></trkpt><trkpt lat="44.5654839" lon="9.9635478"><ele>519.0</ele><time>2026-04-11T10:54:31.912Z</time></trkpt><trkpt lat="44.5655175" lon="9.9634205"><ele>519.0</ele><time>2026-04-11T10:54:32.912Z</time></trkpt><trkpt lat="44.565561" lon="9.9632807"><ele>519.0</ele><time>2026-04-11T10:54:33.912Z</time></trkpt><trkpt lat="44.5655953" lon="9.9631489"><ele>519.0</ele><time>2026-04-11T10:54:34.912Z</time></trkpt><trkpt lat="44.5656382" lon="9.9630241"><ele>519.0</ele><time>2026-04-11T10:54:35.912Z</time></trkpt><trkpt lat="44.5656803" lon="9.9628921"><ele>516.6666666666666</ele><time>2026-04-11T10:54:36.912Z</time></trkpt><trkpt lat="44.5657177" lon="9.9628172"><ele>514.3333333333334</ele><time>2026-04-11T10:54:37.912Z</time></trkpt><trkpt lat="44.5657574" lon="9.962719"><ele>512.0</ele><time>2026-04-11T10:54:38.911Z</time></trkpt><trkpt lat="44.5657861" lon="9.96263"><ele>509.6666666666667</ele><time>2026-04-11T10:54:39.912Z</time></trkpt><trkpt lat="44.5657811" lon="9.9624674"><ele>507.33333333333337</ele><time>2026-04-11T10:54:41.911Z</time></trkpt><trkpt lat="44.5657325" lon="9.9624064"><ele>505.0</ele><time>2026-04-11T10:54:42.911Z</time></trkpt><trkpt lat="44.565667" lon="9.9623676"><ele>502.2</ele><time>2026-04-11T10:54:43.912Z</time></trkpt><trkpt lat="44.5655915" lon="9.9623431"><ele>499.4</ele><time>2026-04-11T10:54:44.911Z</time></trkpt><trkpt lat="44.5655032" lon="9.9623276"><ele>496.6</ele><time>2026-04-11T10:54:45.913Z</time></trkpt><trkpt lat="44.565408" lon="9.9623206"><ele>493.8</ele><time>2026-04-11T10:54:46.912Z</time></trkpt><trkpt lat="44.5653298" lon="9.9623061"><ele>491.0</ele><time>2026-04-11T10:54:47.912Z</time></trkpt><trkpt lat="44.5652456" lon="9.9622076"><ele>491.0</ele><time>2026-04-11T10:54:49.912Z</time></trkpt><trkpt lat="44.5652808" lon="9.9620346"><ele>491.0</ele><time>2026-04-11T10:54:51.912Z</time></trkpt><trkpt lat="44.565336" lon="9.9619578"><ele>491.0</ele><time>2026-04-11T10:54:52.912Z</time></trkpt><trkpt lat="44.5654077" lon="9.9618938"><ele>491.0</ele><time>2026-04-11T10:54:53.912Z</time></trkpt><trkpt lat="44.5654809" lon="9.9618327"><ele>491.0</ele><time>2026-04-11T10:54:54.912Z</time></trkpt><trkpt lat="44.5655484" lon="9.9617525"><ele>487.8333333333333</ele><time>2026-04-11T10:54:55.912Z</time></trkpt><trkpt lat="44.5656014" lon="9.961645"><ele>484.66666666666663</ele><time>2026-04-11T10:54:56.912Z</time></trkpt><trkpt lat="44.5656404" lon="9.9615264"><ele>481.5</ele><time>2026-04-11T10:54:57.911Z</time></trkpt><trkpt lat="44.5656766" lon="9.9614106"><ele>478.33333333333337</ele><time>2026-04-11T10:54:58.911Z</time></trkpt><trkpt lat="44.5657111" lon="9.9613056"><ele>475.1666666666667</ele><time>2026-04-11T10:54:59.912Z</time></trkpt><trkpt lat="44.5657411" lon="9.9611928"><ele>472.0</ele><time>2026-04-11T10:55:00.912Z</time></trkpt><trkpt lat="44.5657552" lon="9.9610773"><ele>472.0</ele><time>2026-04-11T10:55:01.912Z</time></trkpt><trkpt lat="44.5657555" lon="9.9609584"><ele>472.00000000000006</ele><time>2026-04-11T10:55:02.911Z</time></trkpt><trkpt lat="44.5657449" lon="9.9608314"><ele>472.00000000000006</ele><time>2026-04-11T10:55:03.912Z</time></trkpt><trkpt lat="44.5657246" lon="9.9607011"><ele>472.0</ele><time>2026-04-11T10:55:04.913Z</time></trkpt><trkpt lat="44.5656976" lon="9.9605656"><ele>472.0</ele><time>2026-04-11T10:55:05.911Z</time></trkpt><trkpt lat="44.5656679" lon="9.9604312"><ele>469.1666666666667</ele><time>2026-04-11T10:55:06.911Z</time></trkpt><trkpt lat="44.5656359" lon="9.9603113"><ele>466.33333333333337</ele><time>2026-04-11T10:55:07.911Z</time></trkpt><trkpt lat="44.5656057" lon="9.960196"><ele>463.5</ele><time>2026-04-11T10:55:08.912Z</time></trkpt><trkpt lat="44.5655808" lon="9.960071"><ele>460.66666666666663</ele><time>2026-04-11T10:55:09.912Z</time></trkpt><trkpt lat="44.5655593" lon="9.9599495"><ele>457.8333333333333</ele><time>2026-04-11T10:55:10.912Z</time></trkpt><trkpt lat="44.5655474" lon="9.9598361"><ele>455.0</ele><time>2026-04-11T10:55:11.912Z</time></trkpt><trkpt lat="44.5655566" lon="9.9597313"><ele>451.6</ele><time>2026-04-11T10:55:12.912Z</time></trkpt><trkpt lat="44.5655821" lon="9.9596395"><ele>448.2</ele><time>2026-04-11T10:55:13.912Z</time></trkpt><trkpt lat="44.5656333" lon="9.9595664"><ele>444.79999999999995</ele><time>2026-04-11T10:55:14.912Z</time></trkpt><trkpt lat="44.5657576" lon="9.959526"><ele>441.4</ele><time>2026-04-11T10:55:16.912Z</time></trkpt><trkpt lat="44.5658338" lon="9.9595391"><ele>438.0</ele><time>2026-04-11T10:55:17.912Z</time></trkpt><trkpt lat="44.5659313" lon="9.9596501"><ele>438.0</ele><time>2026-04-11T10:55:19.912Z</time></trkpt><trkpt lat="44.5659667" lon="9.9597409"><ele>438.0</ele><time>2026-04-11T10:55:20.912Z</time></trkpt><trkpt lat="44.5659998" lon="9.9598442"><ele>438.0</ele><time>2026-04-11T10:55:21.912Z</time></trkpt><trkpt lat="44.5660434" lon="9.9599393"><ele>438.0</ele><time>2026-04-11T10:55:22.912Z</time></trkpt><trkpt lat="44.5660988" lon="9.960014"><ele>438.0</ele><time>2026-04-11T10:55:23.912Z</time></trkpt><trkpt lat="44.5661639" lon="9.9600438"><ele>438.0</ele><time>2026-04-11T10:55:24.912Z</time></trkpt><trkpt lat="44.5662305" lon="9.960071"><ele>439.3333333333333</ele><time>2026-04-11T10:55:25.911Z</time></trkpt><trkpt lat="44.5663029" lon="9.9600692"><ele>440.66666666666663</ele><time>2026-04-11T10:55:26.912Z</time></trkpt><trkpt lat="44.5663778" lon="9.9600696"><ele>442.0</ele><time>2026-04-11T10:55:27.912Z</time></trkpt><trkpt lat="44.5664784" lon="9.960046"><ele>443.3333333333333</ele><time>2026-04-11T10:55:28.912Z</time></trkpt><trkpt lat="44.566565" lon="9.9600342"><ele>444.66666666666663</ele><time>2026-04-11T10:55:29.912Z</time></trkpt><trkpt lat="44.5666274" lon="9.959995"><ele>446.0</ele><time>2026-04-11T10:55:30.911Z</time></trkpt><trkpt lat="44.5666791" lon="9.9599375"><ele>443.2857142857143</ele><time>2026-04-11T10:55:31.912Z</time></trkpt><trkpt lat="44.5667059" lon="9.9598562"><ele>440.57142857142856</ele><time>2026-04-11T10:55:32.912Z</time></trkpt><trkpt lat="44.5667175" lon="9.9597681"><ele>437.8571428571429</ele><time>2026-04-11T10:55:33.912Z</time></trkpt><trkpt lat="44.5667341" lon="9.9596672"><ele>435.1428571428571</ele><time>2026-04-11T10:55:34.912Z</time></trkpt><trkpt lat="44.5667495" lon="9.9595578"><ele>432.42857142857144</ele><time>2026-04-11T10:55:35.911Z</time></trkpt><trkpt lat="44.5667672" lon="9.959462"><ele>429.7142857142857</ele><time>2026-04-11T10:55:36.912Z</time></trkpt><trkpt lat="44.5667694" lon="9.9593699"><ele>427.0</ele><time>2026-04-11T10:55:37.912Z</time></trkpt><trkpt lat="44.5667775" lon="9.9592692"><ele>425.1666666666667</ele><time>2026-04-11T10:55:38.912Z</time></trkpt><trkpt lat="44.5667952" lon="9.9591597"><ele>423.33333333333337</ele><time>2026-04-11T10:55:39.913Z</time></trkpt><trkpt lat="44.5668214" lon="9.9590561"><ele>421.5</ele><time>2026-04-11T10:55:40.911Z</time></trkpt><trkpt lat="44.566855" lon="9.9589548"><ele>419.66666666666663</ele><time>2026-04-11T10:55:41.912Z</time></trkpt><trkpt lat="44.5669011" lon="9.9588641"><ele>417.8333333333333</ele><time>2026-04-11T10:55:42.912Z</time></trkpt><trkpt lat="44.5669477" lon="9.9587754"><ele>416.0</ele><time>2026-04-11T10:55:43.911Z</time></trkpt><trkpt lat="44.5669872" lon="9.958676"><ele>415.99999999999994</ele><time>2026-04-11T10:55:44.913Z</time></trkpt><trkpt lat="44.5670176" lon="9.9585654"><ele>416.0</ele><time>2026-04-11T10:55:45.911Z</time></trkpt><trkpt lat="44.5670409" lon="9.9584565"><ele>416.0</ele><time>2026-04-11T10:55:46.911Z</time></trkpt><trkpt lat="44.5670565" lon="9.958358"><ele>416.0</ele><time>2026-04-11T10:55:47.911Z</time></trkpt><trkpt lat="44.5670696" lon="9.958263"><ele>415.99999999999994</ele><time>2026-04-11T10:55:48.912Z</time></trkpt><trkpt lat="44.5670624" lon="9.9581021"><ele>416.0</ele><time>2026-04-11T10:55:50.912Z</time></trkpt><trkpt lat="44.5669873" lon="9.9579778"><ele>413.49999999999994</ele><time>2026-04-11T10:55:52.912Z</time></trkpt><trkpt lat="44.5669231" lon="9.9579271"><ele>411.0</ele><time>2026-04-11T10:55:53.911Z</time></trkpt><trkpt lat="44.5668582" lon="9.957863"><ele>408.5</ele><time>2026-04-11T10:55:54.912Z</time></trkpt><trkpt lat="44.5667911" lon="9.9578102"><ele>406.0</ele><time>2026-04-11T10:55:55.912Z</time></trkpt><trkpt lat="44.5667162" lon="9.9577868"><ele>403.49999999999994</ele><time>2026-04-11T10:55:56.911Z</time></trkpt><trkpt lat="44.5666392" lon="9.9577834"><ele>401.0</ele><time>2026-04-11T10:55:57.912Z</time></trkpt><trkpt lat="44.5665724" lon="9.9577722"><ele>400.99999999999994</ele><time>2026-04-11T10:55:58.912Z</time></trkpt><trkpt lat="44.5664862" lon="9.9576483"><ele>401.0</ele><time>2026-04-11T10:56:00.911Z</time></trkpt><trkpt lat="44.5664702" lon="9.9575599"><ele>401.0</ele><time>2026-04-11T10:56:01.913Z</time></trkpt><trkpt lat="44.5664632" lon="9.9574631"><ele>401.0</ele><time>2026-04-11T10:56:02.912Z</time></trkpt><trkpt lat="44.5664614" lon="9.9573618"><ele>400.99999999999994</ele><time>2026-04-11T10:56:03.911Z</time></trkpt><trkpt lat="44.5664597" lon="9.9572622"><ele>401.0</ele><time>2026-04-11T10:56:04.912Z</time></trkpt><trkpt lat="44.5664626" lon="9.9571634"><ele>398.20000000000005</ele><time>2026-04-11T10:56:05.912Z</time></trkpt><trkpt lat="44.566464" lon="9.9570689"><ele>395.40000000000003</ele><time>2026-04-11T10:56:06.911Z</time></trkpt><trkpt lat="44.566473" lon="9.9568983"><ele>392.6</ele><time>2026-04-11T10:56:08.912Z</time></trkpt><trkpt lat="44.5664875" lon="9.9567313"><ele>389.8</ele><time>2026-04-11T10:56:10.911Z</time></trkpt><trkpt lat="44.5665204" lon="9.95656"><ele>387.0</ele><time>2026-04-11T10:56:12.912Z</time></trkpt><trkpt lat="44.5665507" lon="9.9564791"><ele>385.14285714285717</ele><time>2026-04-11T10:56:13.912Z</time></trkpt><trkpt lat="44.5665714" lon="9.956393"><ele>383.28571428571433</ele><time>2026-04-11T10:56:14.912Z</time></trkpt><trkpt lat="44.5665674" lon="9.9563033"><ele>381.42857142857144</ele><time>2026-04-11T10:56:15.912Z</time></trkpt><trkpt lat="44.5665426" lon="9.9562162"><ele>379.57142857142856</ele><time>2026-04-11T10:56:16.911Z</time></trkpt><trkpt lat="44.566511" lon="9.9561323"><ele>377.7142857142857</ele><time>2026-04-11T10:56:17.911Z</time></trkpt><trkpt lat="44.5664827" lon="9.9560429"><ele>375.85714285714283</ele><time>2026-04-11T10:56:18.912Z</time></trkpt><trkpt lat="44.5664671" lon="9.9559492"><ele>374.0</ele><time>2026-04-11T10:56:19.912Z</time></trkpt><trkpt lat="44.5664579" lon="9.9558427"><ele>372.0</ele><time>2026-04-11T10:56:20.912Z</time></trkpt><trkpt lat="44.5664503" lon="9.9557329"><ele>370.0</ele><time>2026-04-11T10:56:21.912Z</time></trkpt><trkpt lat="44.5664425" lon="9.955614"><ele>368.0</ele><time>2026-04-11T10:56:22.912Z</time></trkpt><trkpt lat="44.5664366" lon="9.9554858"><ele>366.0</ele><time>2026-04-11T10:56:23.911Z</time></trkpt><trkpt lat="44.5664301" lon="9.9553504"><ele>364.0</ele><time>2026-04-11T10:56:24.912Z</time></trkpt><trkpt lat="44.566417" lon="9.9552259"><ele>362.0</ele><time>2026-04-11T10:56:25.911Z</time></trkpt><trkpt lat="44.5663976" lon="9.955107"><ele>360.5</ele><time>2026-04-11T10:56:26.912Z</time></trkpt><trkpt lat="44.5663982" lon="9.9549913"><ele>359.0</ele><time>2026-04-11T10:56:27.911Z</time></trkpt><trkpt lat="44.5664189" lon="9.9548858"><ele>357.5</ele><time>2026-04-11T10:56:28.912Z</time></trkpt><trkpt lat="44.5664574" lon="9.9547819"><ele>356.0</ele><time>2026-04-11T10:56:29.912Z</time></trkpt><trkpt lat="44.5665055" lon="9.9546846"><ele>354.5</ele><time>2026-04-11T10:56:30.912Z</time></trkpt><trkpt lat="44.5665625" lon="9.9545966"><ele>353.0</ele><time>2026-04-11T10:56:31.912Z</time></trkpt><trkpt lat="44.56662" lon="9.9545128"><ele>353.0</ele><time>2026-04-11T10:56:32.911Z</time></trkpt><trkpt lat="44.5666704" lon="9.9544266"><ele>353.0</ele><time>2026-04-11T10:56:33.912Z</time></trkpt><trkpt lat="44.5667106" lon="9.9543373"><ele>353.0</ele><time>2026-04-11T10:56:34.912Z</time></trkpt><trkpt lat="44.5667447" lon="9.9542582"><ele>353.0</ele><time>2026-04-11T10:56:35.911Z</time></trkpt><trkpt lat="44.5667873" lon="9.9541923"><ele>353.0</ele><time>2026-04-11T10:56:36.912Z</time></trkpt><trkpt lat="44.566887" lon="9.954103"><ele>353.0</ele><time>2026-04-11T10:56:38.911Z</time></trkpt><trkpt lat="44.5669487" lon="9.954078"><ele>352.0</ele><time>2026-04-11T10:56:39.912Z</time></trkpt><trkpt lat="44.5670083" lon="9.954037"><ele>351.0</ele><time>2026-04-11T10:56:40.912Z</time></trkpt><trkpt lat="44.5670685" lon="9.953983"><ele>350.0</ele><time>2026-04-11T10:56:41.912Z</time></trkpt><trkpt lat="44.5671212" lon="9.9538479"><ele>349.0</ele><time>2026-04-11T10:56:43.912Z</time></trkpt><trkpt lat="44.5671153" lon="9.9537264"><ele>348.0</ele><time>2026-04-11T10:56:45.912Z</time></trkpt><trkpt lat="44.5670752" lon="9.953647"><ele>347.0</ele><time>2026-04-11T10:56:47.912Z</time></trkpt><trkpt lat="44.5670234" lon="9.9535514"><ele>346.6</ele><time>2026-04-11T10:56:49.913Z</time></trkpt><trkpt lat="44.566948" lon="9.9534172"><ele>346.20000000000005</ele><time>2026-04-11T10:56:51.912Z</time></trkpt><trkpt lat="44.5669079" lon="9.9532781"><ele>345.8</ele><time>2026-04-11T10:56:53.911Z</time></trkpt><trkpt lat="44.5669337" lon="9.9531818"><ele>345.4</ele><time>2026-04-11T10:56:55.912Z</time></trkpt><trkpt lat="44.5670267" lon="9.9531517"><ele>345.0</ele><time>2026-04-11T10:56:57.912Z</time></trkpt><trkpt lat="44.5670879" lon="9.9531799"><ele>342.8333333333333</ele><time>2026-04-11T10:56:58.912Z</time></trkpt><trkpt lat="44.5671547" lon="9.9532203"><ele>340.6666666666667</ele><time>2026-04-11T10:56:59.912Z</time></trkpt><trkpt lat="44.5672172" lon="9.953264"><ele>338.5</ele><time>2026-04-11T10:57:00.911Z</time></trkpt><trkpt lat="44.5672758" lon="9.9533039"><ele>336.33333333333337</ele><time>2026-04-11T10:57:01.912Z</time></trkpt><trkpt lat="44.5673936" lon="9.953341"><ele>334.1666666666667</ele><time>2026-04-11T10:57:03.912Z</time></trkpt><trkpt lat="44.5675034" lon="9.9532944"><ele>332.0</ele><time>2026-04-11T10:57:05.912Z</time></trkpt><trkpt lat="44.5675542" lon="9.9532408"><ele>332.0</ele><time>2026-04-11T10:57:06.912Z</time></trkpt><trkpt lat="44.567606" lon="9.9531836"><ele>332.0</ele><time>2026-04-11T10:57:07.912Z</time></trkpt><trkpt lat="44.567665" lon="9.9531435"><ele>332.0</ele><time>2026-04-11T10:57:08.911Z</time></trkpt><trkpt lat="44.5677243" lon="9.9531127"><ele>332.0</ele><time>2026-04-11T10:57:09.912Z</time></trkpt><trkpt lat="44.5677868" lon="9.9530804"><ele>332.0</ele><time>2026-04-11T10:57:10.912Z</time></trkpt><trkpt lat="44.5678507" lon="9.9530341"><ele>332.0</ele><time>2026-04-11T10:57:11.911Z</time></trkpt><trkpt lat="44.5679159" lon="9.9529846"><ele>332.0</ele><time>2026-04-11T10:57:12.912Z</time></trkpt><trkpt lat="44.5679777" lon="9.9529445"><ele>333.6</ele><time>2026-04-11T10:57:13.912Z</time></trkpt><trkpt lat="44.5680401" lon="9.9528903"><ele>335.20000000000005</ele><time>2026-04-11T10:57:14.912Z</time></trkpt><trkpt lat="44.5681863" lon="9.9528171"><ele>336.8</ele><time>2026-04-11T10:57:16.912Z</time></trkpt><trkpt lat="44.5682749" lon="9.9527793"><ele>338.4</ele><time>2026-04-11T10:57:17.911Z</time></trkpt><trkpt lat="44.5683594" lon="9.9527271"><ele>340.0</ele><time>2026-04-11T10:57:18.913Z</time></trkpt><trkpt lat="44.5684439" lon="9.9526841"><ele>340.0</ele><time>2026-04-11T10:57:19.912Z</time></trkpt><trkpt lat="44.5685389" lon="9.9526371"><ele>340.0</ele><time>2026-04-11T10:57:20.911Z</time></trkpt><trkpt lat="44.5686283" lon="9.9525842"><ele>340.0</ele><time>2026-04-11T10:57:21.912Z</time></trkpt><trkpt lat="44.5687204" lon="9.9525256"><ele>340.0</ele><time>2026-04-11T10:57:22.912Z</time></trkpt><trkpt lat="44.5688183" lon="9.9524611"><ele>340.0</ele><time>2026-04-11T10:57:23.912Z</time></trkpt><trkpt lat="44.5689134" lon="9.9523959"><ele>337.6</ele><time>2026-04-11T10:57:24.912Z</time></trkpt><trkpt lat="44.5690135" lon="9.9523418"><ele>335.2</ele><time>2026-04-11T10:57:25.911Z</time></trkpt><trkpt lat="44.569112" lon="9.9522861"><ele>332.79999999999995</ele><time>2026-04-11T10:57:26.912Z</time></trkpt><trkpt lat="44.5692067" lon="9.9522363"><ele>330.4</ele><time>2026-04-11T10:57:27.912Z</time></trkpt><trkpt lat="44.5692954" lon="9.9521867"><ele>328.0</ele><time>2026-04-11T10:57:28.912Z</time></trkpt><trkpt lat="44.5693785" lon="9.952149"><ele>328.0</ele><time>2026-04-11T10:57:29.911Z</time></trkpt><trkpt lat="44.5694459" lon="9.952112"><ele>328.0</ele><time>2026-04-11T10:57:30.912Z</time></trkpt><trkpt lat="44.5695247" lon="9.9519932"><ele>328.0</ele><time>2026-04-11T10:57:32.912Z</time></trkpt><trkpt lat="44.5695358" lon="9.9518101"><ele>328.0</ele><time>2026-04-11T10:57:34.911Z</time></trkpt><trkpt lat="44.5695115" lon="9.9516991"><ele>328.0</ele><time>2026-04-11T10:57:35.912Z</time></trkpt><trkpt lat="44.569506" lon="9.9516081"><ele>325.4</ele><time>2026-04-11T10:57:36.912Z</time></trkpt><trkpt lat="44.5694553" lon="9.9514695"><ele>322.79999999999995</ele><time>2026-04-11T10:57:38.911Z</time></trkpt><trkpt lat="44.569341" lon="9.9513922"><ele>320.2</ele><time>2026-04-11T10:57:40.912Z</time></trkpt><trkpt lat="44.56926" lon="9.9513902"><ele>317.6</ele><time>2026-04-11T10:57:41.911Z</time></trkpt><trkpt lat="44.5691664" lon="9.9514033"><ele>315.0</ele><time>2026-04-11T10:57:42.912Z</time></trkpt><trkpt lat="44.5690683" lon="9.951415"><ele>315.0</ele><time>2026-04-11T10:57:43.912Z</time></trkpt><trkpt lat="44.568967" lon="9.9514111"><ele>315.0</ele><time>2026-04-11T10:57:44.912Z</time></trkpt><trkpt lat="44.5688668" lon="9.9513977"><ele>315.0</ele><time>2026-04-11T10:57:45.912Z</time></trkpt><trkpt lat="44.5687725" lon="9.9513767"><ele>315.0</ele><time>2026-04-11T10:57:46.912Z</time></trkpt><trkpt lat="44.5686827" lon="9.9513436"><ele>315.0</ele><time>2026-04-11T10:57:47.912Z</time></trkpt><trkpt lat="44.5685957" lon="9.9512984"><ele>314.2</ele><time>2026-04-11T10:57:48.911Z</time></trkpt><trkpt lat="44.5685072" lon="9.9512486"><ele>313.4</ele><time>2026-04-11T10:57:49.912Z</time></trkpt><trkpt lat="44.5684219" lon="9.9511763"><ele>312.6</ele><time>2026-04-11T10:57:50.911Z</time></trkpt><trkpt lat="44.568342" lon="9.9510876"><ele>311.8</ele><time>2026-04-11T10:57:51.912Z</time></trkpt><trkpt lat="44.5682682" lon="9.9509883"><ele>311.0</ele><time>2026-04-11T10:57:52.911Z</time></trkpt><trkpt lat="44.5682007" lon="9.950878"><ele>309.6</ele><time>2026-04-11T10:57:53.912Z</time></trkpt><trkpt lat="44.5681592" lon="9.9507567"><ele>308.20000000000005</ele><time>2026-04-11T10:57:54.911Z</time></trkpt><trkpt lat="44.568141" lon="9.9506202"><ele>306.79999999999995</ele><time>2026-04-11T10:57:55.911Z</time></trkpt><trkpt lat="44.5681399" lon="9.9504752"><ele>305.4</ele><time>2026-04-11T10:57:56.912Z</time></trkpt><trkpt lat="44.5681364" lon="9.9503245"><ele>304.0</ele><time>2026-04-11T10:57:57.912Z</time></trkpt><trkpt lat="44.5681089" lon="9.9501743"><ele>303.2</ele><time>2026-04-11T10:57:58.912Z</time></trkpt><trkpt lat="44.5680774" lon="9.9500264"><ele>302.4</ele><time>2026-04-11T10:57:59.912Z</time></trkpt><trkpt lat="44.5680553" lon="9.9498857"><ele>301.6</ele><time>2026-04-11T10:58:00.912Z</time></trkpt><trkpt lat="44.56805" lon="9.9497392"><ele>300.8</ele><time>2026-04-11T10:58:01.912Z</time></trkpt><trkpt lat="44.5680608" lon="9.9495985"><ele>300.0</ele><time>2026-04-11T10:58:02.912Z</time></trkpt><trkpt lat="44.568086" lon="9.9494667"><ele>300.0</ele><time>2026-04-11T10:58:03.911Z</time></trkpt><trkpt lat="44.5681163" lon="9.9493404"><ele>300.0</ele><time>2026-04-11T10:58:04.912Z</time></trkpt><trkpt lat="44.568134" lon="9.9492235"><ele>300.0</ele><time>2026-04-11T10:58:05.912Z</time></trkpt><trkpt lat="44.5681454" lon="9.9491086"><ele>300.0</ele><time>2026-04-11T10:58:06.911Z</time></trkpt><trkpt lat="44.5680786" lon="9.9490155"><ele>300.0</ele><time>2026-04-11T10:58:07.912Z</time></trkpt><trkpt lat="44.5680178" lon="9.9489298"><ele>300.0</ele><time>2026-04-11T10:58:08.911Z</time></trkpt><trkpt lat="44.5679348" lon="9.9488677"><ele>301.2</ele><time>2026-04-11T10:58:09.913Z</time></trkpt><trkpt lat="44.5678404" lon="9.9488171"><ele>302.4</ele><time>2026-04-11T10:58:10.912Z</time></trkpt><trkpt lat="44.5677395" lon="9.9487632"><ele>303.6</ele><time>2026-04-11T10:58:11.912Z</time></trkpt><trkpt lat="44.5676418" lon="9.9487138"><ele>304.8</ele><time>2026-04-11T10:58:12.912Z</time></trkpt><trkpt lat="44.5675438" lon="9.9486459"><ele>306.0</ele><time>2026-04-11T10:58:13.912Z</time></trkpt><trkpt lat="44.5674495" lon="9.9485667"><ele>306.0</ele><time>2026-04-11T10:58:14.911Z</time></trkpt><trkpt lat="44.567361" lon="9.948476"><ele>306.0</ele><time>2026-04-11T10:58:15.912Z</time></trkpt><trkpt lat="44.5672795" lon="9.9483758"><ele>306.0</ele><time>2026-04-11T10:58:16.912Z</time></trkpt><trkpt lat="44.5672124" lon="9.9482499"><ele>306.0</ele><time>2026-04-11T10:58:17.913Z</time></trkpt><trkpt lat="44.5671733" lon="9.9481113"><ele>306.0</ele><time>2026-04-11T10:58:18.912Z</time></trkpt><trkpt lat="44.5671641" lon="9.9479612"><ele>304.2</ele><time>2026-04-11T10:58:19.911Z</time></trkpt><trkpt lat="44.5671683" lon="9.9478166"><ele>302.40000000000003</ele><time>2026-04-11T10:58:20.911Z</time></trkpt><trkpt lat="44.5671697" lon="9.9476697"><ele>300.6</ele><time>2026-04-11T10:58:21.911Z</time></trkpt><trkpt lat="44.5671651" lon="9.9475205"><ele>298.8</ele><time>2026-04-11T10:58:22.912Z</time></trkpt><trkpt lat="44.5671526" lon="9.9473728"><ele>297.0</ele><time>2026-04-11T10:58:23.912Z</time></trkpt><trkpt lat="44.5671302" lon="9.947225"><ele>297.5</ele><time>2026-04-11T10:58:24.912Z</time></trkpt><trkpt lat="44.5670946" lon="9.9470797"><ele>298.0</ele><time>2026-04-11T10:58:25.912Z</time></trkpt><trkpt lat="44.5670557" lon="9.9469352"><ele>298.5</ele><time>2026-04-11T10:58:26.912Z</time></trkpt><trkpt lat="44.5670015" lon="9.9467916"><ele>299.0</ele><time>2026-04-11T10:58:27.912Z</time></trkpt><trkpt lat="44.5669396" lon="9.9466564"><ele>296.0</ele><time>2026-04-11T10:58:28.911Z</time></trkpt><trkpt lat="44.5668795" lon="9.9465173"><ele>293.0</ele><time>2026-04-11T10:58:29.912Z</time></trkpt><trkpt lat="44.5668192" lon="9.9463775"><ele>290.0</ele><time>2026-04-11T10:58:30.912Z</time></trkpt><trkpt lat="44.566762" lon="9.946236"><ele>287.0</ele><time>2026-04-11T10:58:31.911Z</time></trkpt><trkpt lat="44.5667026" lon="9.9460905"><ele>287.0</ele><time>2026-04-11T10:58:32.912Z</time></trkpt><trkpt lat="44.566645" lon="9.9459436"><ele>287.0</ele><time>2026-04-11T10:58:33.912Z</time></trkpt><trkpt lat="44.5665794" lon="9.9457984"><ele>287.0</ele><time>2026-04-11T10:58:34.912Z</time></trkpt><trkpt lat="44.5664976" lon="9.9456658"><ele>287.0</ele><time>2026-04-11T10:58:35.912Z</time></trkpt><trkpt lat="44.5664076" lon="9.9455494"><ele>285.5</ele><time>2026-04-11T10:58:36.912Z</time></trkpt><trkpt lat="44.5662948" lon="9.9454764"><ele>284.0</ele><time>2026-04-11T10:58:37.911Z</time></trkpt><trkpt lat="44.5661914" lon="9.9454019"><ele>282.5</ele><time>2026-04-11T10:58:38.911Z</time></trkpt><trkpt lat="44.5660896" lon="9.9453397"><ele>281.0</ele><time>2026-04-11T10:58:39.913Z</time></trkpt><trkpt lat="44.5659908" lon="9.9452782"><ele>283.0</ele><time>2026-04-11T10:58:40.912Z</time></trkpt><trkpt lat="44.5659011" lon="9.9452134"><ele>285.0</ele><time>2026-04-11T10:58:41.912Z</time></trkpt><trkpt lat="44.5658262" lon="9.9451352"><ele>287.0</ele><time>2026-04-11T10:58:42.912Z</time></trkpt><trkpt lat="44.5657716" lon="9.9450384"><ele>289.0</ele><time>2026-04-11T10:58:43.912Z</time></trkpt><trkpt lat="44.5657363" lon="9.9449274"><ele>291.0</ele><time>2026-04-11T10:58:44.911Z</time></trkpt><trkpt lat="44.5657293" lon="9.9446734"><ele>291.0</ele><time>2026-04-11T10:58:46.912Z</time></trkpt><trkpt lat="44.5657528" lon="9.9445492"><ele>291.0</ele><time>2026-04-11T10:58:47.912Z</time></trkpt><trkpt lat="44.5657755" lon="9.9444152"><ele>291.0</ele><time>2026-04-11T10:58:48.912Z</time></trkpt><trkpt lat="44.5657969" lon="9.9442759"><ele>291.0</ele><time>2026-04-11T10:58:49.912Z</time></trkpt><trkpt lat="44.5658089" lon="9.9441351"><ele>291.0</ele><time>2026-04-11T10:58:50.912Z</time></trkpt><trkpt lat="44.5658136" lon="9.9439759"><ele>290.5</ele><time>2026-04-11T10:58:51.912Z</time></trkpt><trkpt lat="44.5658046" lon="9.9438155"><ele>290.0</ele><time>2026-04-11T10:58:52.911Z</time></trkpt><trkpt lat="44.5657853" lon="9.9436539"><ele>289.5</ele><time>2026-04-11T10:58:53.912Z</time></trkpt><trkpt lat="44.5657535" lon="9.9434993"><ele>289.0</ele><time>2026-04-11T10:58:54.911Z</time></trkpt><trkpt lat="44.5657212" lon="9.9433461"><ele>288.0</ele><time>2026-04-11T10:58:55.911Z</time></trkpt><trkpt lat="44.565692" lon="9.9431957"><ele>287.0</ele><time>2026-04-11T10:58:56.912Z</time></trkpt><trkpt lat="44.5656738" lon="9.943044"><ele>286.0</ele><time>2026-04-11T10:58:57.912Z</time></trkpt><trkpt lat="44.5656652" lon="9.9428923"><ele>285.0</ele><time>2026-04-11T10:58:58.912Z</time></trkpt><trkpt lat="44.5656665" lon="9.9427369"><ele>284.0</ele><time>2026-04-11T10:58:59.912Z</time></trkpt><trkpt lat="44.5656701" lon="9.9425731"><ele>283.2</ele><time>2026-04-11T10:59:00.911Z</time></trkpt><trkpt lat="44.5656775" lon="9.9424051"><ele>282.4</ele><time>2026-04-11T10:59:01.912Z</time></trkpt><trkpt lat="44.5656829" lon="9.9422461"><ele>281.6</ele><time>2026-04-11T10:59:02.911Z</time></trkpt><trkpt lat="44.56568" lon="9.942092"><ele>280.8</ele><time>2026-04-11T10:59:03.912Z</time></trkpt><trkpt lat="44.5656692" lon="9.9419441"><ele>280.0</ele><time>2026-04-11T10:59:04.912Z</time></trkpt><trkpt lat="44.5656512" lon="9.9417998"><ele>279.4</ele><time>2026-04-11T10:59:05.912Z</time></trkpt><trkpt lat="44.5656294" lon="9.9416634"><ele>278.8</ele><time>2026-04-11T10:59:06.911Z</time></trkpt><trkpt lat="44.5655988" lon="9.9415238"><ele>278.2</ele><time>2026-04-11T10:59:07.912Z</time></trkpt><trkpt lat="44.5655576" lon="9.9413974"><ele>277.6</ele><time>2026-04-11T10:59:08.911Z</time></trkpt><trkpt lat="44.5655165" lon="9.9412817"><ele>277.0</ele><time>2026-04-11T10:59:09.912Z</time></trkpt><trkpt lat="44.5654823" lon="9.9411731"><ele>277.0</ele><time>2026-04-11T10:59:10.912Z</time></trkpt><trkpt lat="44.5654687" lon="9.9410703"><ele>277.0</ele><time>2026-04-11T10:59:11.912Z</time></trkpt><trkpt lat="44.565509" lon="9.9409576"><ele>277.0</ele><time>2026-04-11T10:59:13.912Z</time></trkpt><trkpt lat="44.5655716" lon="9.94099"><ele>277.0</ele><time>2026-04-11T10:59:15.912Z</time></trkpt><trkpt lat="44.5656288" lon="9.9411632"><ele>277.0</ele><time>2026-04-11T10:59:17.912Z</time></trkpt><trkpt lat="44.5656706" lon="9.9412815"><ele>277.0</ele><time>2026-04-11T10:59:18.912Z</time></trkpt><trkpt lat="44.5657067" lon="9.9413961"><ele>277.0</ele><time>2026-04-11T10:59:19.911Z</time></trkpt><trkpt lat="44.5657446" lon="9.941517"><ele>277.0</ele><time>2026-04-11T10:59:20.912Z</time></trkpt><trkpt lat="44.5657865" lon="9.9416416"><ele>277.0</ele><time>2026-04-11T10:59:21.912Z</time></trkpt><trkpt lat="44.5658303" lon="9.9417688"><ele>277.0</ele><time>2026-04-11T10:59:22.913Z</time></trkpt><trkpt lat="44.5658738" lon="9.9418996"><ele>277.6</ele><time>2026-04-11T10:59:23.912Z</time></trkpt><trkpt lat="44.5659123" lon="9.9420351"><ele>278.2</ele><time>2026-04-11T10:59:24.912Z</time></trkpt><trkpt lat="44.5659402" lon="9.9421775"><ele>278.8</ele><time>2026-04-11T10:59:25.912Z</time></trkpt><trkpt lat="44.5659571" lon="9.9423271"><ele>279.4</ele><time>2026-04-11T10:59:26.912Z</time></trkpt><trkpt lat="44.5659652" lon="9.9424826"><ele>280.0</ele><time>2026-04-11T10:59:27.912Z</time></trkpt><trkpt lat="44.5659713" lon="9.9426405"><ele>280.8</ele><time>2026-04-11T10:59:28.911Z</time></trkpt><trkpt lat="44.5659745" lon="9.9427983"><ele>281.6</ele><time>2026-04-11T10:59:29.912Z</time></trkpt><trkpt lat="44.5659822" lon="9.9429542"><ele>282.4</ele><time>2026-04-11T10:59:30.912Z</time></trkpt><trkpt lat="44.5660023" lon="9.943107"><ele>283.2</ele><time>2026-04-11T10:59:31.912Z</time></trkpt><trkpt lat="44.5660483" lon="9.9432432"><ele>284.0</ele><time>2026-04-11T10:59:32.912Z</time></trkpt><trkpt lat="44.5661126" lon="9.9433516"><ele>285.0</ele><time>2026-04-11T10:59:33.912Z</time></trkpt><trkpt lat="44.566192" lon="9.9434227"><ele>286.0</ele><time>2026-04-11T10:59:34.911Z</time></trkpt><trkpt lat="44.5662892" lon="9.9434676"><ele>287.0</ele><time>2026-04-11T10:59:35.912Z</time></trkpt><trkpt lat="44.5663991" lon="9.9434861"><ele>288.0</ele><time>2026-04-11T10:59:36.912Z</time></trkpt><trkpt lat="44.5665146" lon="9.9435056"><ele>289.0</ele><time>2026-04-11T10:59:37.912Z</time></trkpt><trkpt lat="44.5666305" lon="9.9435207"><ele>284.75</ele><time>2026-04-11T10:59:38.912Z</time></trkpt><trkpt lat="44.5667483" lon="9.9435326"><ele>280.5</ele><time>2026-04-11T10:59:39.912Z</time></trkpt><trkpt lat="44.5668668" lon="9.9435483"><ele>276.25</ele><time>2026-04-11T10:59:40.911Z</time></trkpt><trkpt lat="44.5669904" lon="9.9435626"><ele>272.0</ele><time>2026-04-11T10:59:41.911Z</time></trkpt><trkpt lat="44.5671137" lon="9.9435752"><ele>269.75</ele><time>2026-04-11T10:59:42.912Z</time></trkpt><trkpt lat="44.5672349" lon="9.9435857"><ele>267.5</ele><time>2026-04-11T10:59:43.912Z</time></trkpt><trkpt lat="44.567359" lon="9.9435951"><ele>265.25</ele><time>2026-04-11T10:59:44.912Z</time></trkpt><trkpt lat="44.5674867" lon="9.9436072"><ele>263.0</ele><time>2026-04-11T10:59:45.911Z</time></trkpt><trkpt lat="44.5676148" lon="9.943623"><ele>263.0</ele><time>2026-04-11T10:59:46.912Z</time></trkpt><trkpt lat="44.5677439" lon="9.9436348"><ele>263.0</ele><time>2026-04-11T10:59:47.912Z</time></trkpt><trkpt lat="44.5678755" lon="9.9436473"><ele>263.0</ele><time>2026-04-11T10:59:48.912Z</time></trkpt><trkpt lat="44.567999" lon="9.9436585"><ele>263.0</ele><time>2026-04-11T10:59:49.912Z</time></trkpt><trkpt lat="44.5681065" lon="9.9436913"><ele>262.8</ele><time>2026-04-11T10:59:50.912Z</time></trkpt><trkpt lat="44.5681946" lon="9.9437572"><ele>262.6</ele><time>2026-04-11T10:59:51.912Z</time></trkpt><trkpt lat="44.5682633" lon="9.943872"><ele>262.4</ele><time>2026-04-11T10:59:52.912Z</time></trkpt><trkpt lat="44.5683214" lon="9.9440179"><ele>262.2</ele><time>2026-04-11T10:59:53.912Z</time></trkpt><trkpt lat="44.5683874" lon="9.944152"><ele>262.0</ele><time>2026-04-11T10:59:54.911Z</time></trkpt><trkpt lat="44.5684726" lon="9.9442567"><ele>262.0</ele><time>2026-04-11T10:59:55.912Z</time></trkpt><trkpt lat="44.5685636" lon="9.9443692"><ele>262.0</ele><time>2026-04-11T10:59:56.912Z</time></trkpt><trkpt lat="44.5686904" lon="9.9443979"><ele>262.0</ele><time>2026-04-11T10:59:57.913Z</time></trkpt><trkpt lat="44.5688101" lon="9.9444581"><ele>262.0</ele><time>2026-04-11T10:59:58.911Z</time></trkpt><trkpt lat="44.5689284" lon="9.9445088"><ele>263.0</ele><time>2026-04-11T10:59:59.912Z</time></trkpt><trkpt lat="44.569069" lon="9.9445285"><ele>264.0</ele><time>2026-04-11T11:00:00.913Z</time></trkpt><trkpt lat="44.5691959" lon="9.9445343"><ele>265.0</ele><time>2026-04-11T11:00:01.912Z</time></trkpt><trkpt lat="44.5693285" lon="9.9445016"><ele>266.0</ele><time>2026-04-11T11:00:02.911Z</time></trkpt><trkpt lat="44.5694528" lon="9.944436"><ele>266.75</ele><time>2026-04-11T11:00:03.912Z</time></trkpt><trkpt lat="44.5695715" lon="9.9443651"><ele>267.5</ele><time>2026-04-11T11:00:04.912Z</time></trkpt><trkpt lat="44.5696923" lon="9.9443081"><ele>268.25</ele><time>2026-04-11T11:00:05.912Z</time></trkpt><trkpt lat="44.5698178" lon="9.9442952"><ele>269.0</ele><time>2026-04-11T11:00:06.912Z</time></trkpt><trkpt lat="44.5699368" lon="9.9443386"><ele>269.0</ele><time>2026-04-11T11:00:07.912Z</time></trkpt><trkpt lat="44.5700529" lon="9.9444222"><ele>269.0</ele><time>2026-04-11T11:00:08.912Z</time></trkpt><trkpt lat="44.57016" lon="9.944525"><ele>269.0</ele><time>2026-04-11T11:00:09.912Z</time></trkpt><trkpt lat="44.5702767" lon="9.9446137"><ele>269.0</ele><time>2026-04-11T11:00:10.912Z</time></trkpt><trkpt lat="44.5703959" lon="9.9446841"><ele>270.0</ele><time>2026-04-11T11:00:11.912Z</time></trkpt><trkpt lat="44.5705193" lon="9.944735"><ele>271.0</ele><time>2026-04-11T11:00:12.911Z</time></trkpt><trkpt lat="44.5706509" lon="9.9447617"><ele>272.0</ele><time>2026-04-11T11:00:13.911Z</time></trkpt><trkpt lat="44.5707854" lon="9.9447684"><ele>273.0</ele><time>2026-04-11T11:00:14.911Z</time></trkpt><trkpt lat="44.5709247" lon="9.944766"><ele>273.0</ele><time>2026-04-11T11:00:15.912Z</time></trkpt><trkpt lat="44.5710679" lon="9.9447606"><ele>273.0</ele><time>2026-04-11T11:00:16.912Z</time></trkpt><trkpt lat="44.5712083" lon="9.9447611"><ele>273.0</ele><time>2026-04-11T11:00:17.911Z</time></trkpt><trkpt lat="44.5713504" lon="9.9447703"><ele>273.0</ele><time>2026-04-11T11:00:18.911Z</time></trkpt><trkpt lat="44.5714924" lon="9.9447995"><ele>273.25</ele><time>2026-04-11T11:00:19.912Z</time></trkpt><trkpt lat="44.5716352" lon="9.9448409"><ele>273.5</ele><time>2026-04-11T11:00:20.912Z</time></trkpt><trkpt lat="44.5717755" lon="9.944891"><ele>273.75</ele><time>2026-04-11T11:00:21.911Z</time></trkpt><trkpt lat="44.5719162" lon="9.9449461"><ele>274.0</ele><time>2026-04-11T11:00:22.912Z</time></trkpt><trkpt lat="44.5720562" lon="9.9449914"><ele>270.75</ele><time>2026-04-11T11:00:23.912Z</time></trkpt><trkpt lat="44.5721953" lon="9.9450459"><ele>267.5</ele><time>2026-04-11T11:00:24.911Z</time></trkpt><trkpt lat="44.572333" lon="9.9451025"><ele>264.25</ele><time>2026-04-11T11:00:25.912Z</time></trkpt><trkpt lat="44.5724716" lon="9.9451543"><ele>261.0</ele><time>2026-04-11T11:00:26.911Z</time></trkpt><trkpt lat="44.5726088" lon="9.9452042"><ele>261.0</ele><time>2026-04-11T11:00:27.912Z</time></trkpt><trkpt lat="44.5727454" lon="9.9452468"><ele>261.0</ele><time>2026-04-11T11:00:28.912Z</time></trkpt><trkpt lat="44.5728842" lon="9.9452729"><ele>261.0</ele><time>2026-04-11T11:00:29.913Z</time></trkpt><trkpt lat="44.5730254" lon="9.9452844"><ele>261.0</ele><time>2026-04-11T11:00:30.912Z</time></trkpt><trkpt lat="44.5731674" lon="9.9452818"><ele>261.25</ele><time>2026-04-11T11:00:31.911Z</time></trkpt><trkpt lat="44.5733095" lon="9.9452697"><ele>261.5</ele><time>2026-04-11T11:00:32.912Z</time></trkpt><trkpt lat="44.5734498" lon="9.9452549"><ele>261.75</ele><time>2026-04-11T11:00:33.911Z</time></trkpt><trkpt lat="44.5735924" lon="9.9452355"><ele>262.0</ele><time>2026-04-11T11:00:34.912Z</time></trkpt><trkpt lat="44.5737355" lon="9.945214"><ele>261.5</ele><time>2026-04-11T11:00:35.912Z</time></trkpt><trkpt lat="44.5738786" lon="9.9451902"><ele>261.0</ele><time>2026-04-11T11:00:36.911Z</time></trkpt><trkpt lat="44.5740206" lon="9.9451599"><ele>260.5</ele><time>2026-04-11T11:00:37.912Z</time></trkpt><trkpt lat="44.5741564" lon="9.9451063"><ele>260.0</ele><time>2026-04-11T11:00:38.912Z</time></trkpt><trkpt lat="44.574284" lon="9.9450171"><ele>260.75</ele><time>2026-04-11T11:00:39.911Z</time></trkpt><trkpt lat="44.5744053" lon="9.9449093"><ele>261.5</ele><time>2026-04-11T11:00:40.912Z</time></trkpt><trkpt lat="44.5745208" lon="9.9447789"><ele>262.25</ele><time>2026-04-11T11:00:41.912Z</time></trkpt><trkpt lat="44.5746343" lon="9.9446473"><ele>263.0</ele><time>2026-04-11T11:00:42.912Z</time></trkpt><trkpt lat="44.5747475" lon="9.9445126"><ele>263.0</ele><time>2026-04-11T11:00:43.911Z</time></trkpt><trkpt lat="44.5748657" lon="9.9443957"><ele>263.0</ele><time>2026-04-11T11:00:44.911Z</time></trkpt><trkpt lat="44.5749883" lon="9.9442998"><ele>263.0</ele><time>2026-04-11T11:00:45.911Z</time></trkpt><trkpt lat="44.5751165" lon="9.944226"><ele>263.0</ele><time>2026-04-11T11:00:46.911Z</time></trkpt><trkpt lat="44.5752475" lon="9.9441738"><ele>263.75</ele><time>2026-04-11T11:00:47.912Z</time></trkpt><trkpt lat="44.5753851" lon="9.9441376"><ele>264.5</ele><time>2026-04-11T11:00:48.912Z</time></trkpt><trkpt lat="44.5755206" lon="9.9441035"><ele>265.25</ele><time>2026-04-11T11:00:49.911Z</time></trkpt><trkpt lat="44.5756569" lon="9.944074"><ele>266.0</ele><time>2026-04-11T11:00:50.912Z</time></trkpt><trkpt lat="44.5757935" lon="9.9440485"><ele>266.0</ele><time>2026-04-11T11:00:51.911Z</time></trkpt><trkpt lat="44.5759309" lon="9.9440297"><ele>266.0</ele><time>2026-04-11T11:00:52.912Z</time></trkpt><trkpt lat="44.5760684" lon="9.9440171"><ele>266.0</ele><time>2026-04-11T11:00:53.912Z</time></trkpt><trkpt lat="44.5762078" lon="9.9440114"><ele>266.0</ele><time>2026-04-11T11:00:54.912Z</time></trkpt><trkpt lat="44.5763458" lon="9.9440151"><ele>264.75</ele><time>2026-04-11T11:00:55.912Z</time></trkpt><trkpt lat="44.576483" lon="9.9440147"><ele>263.5</ele><time>2026-04-11T11:00:56.912Z</time></trkpt><trkpt lat="44.5766201" lon="9.9440036"><ele>262.25</ele><time>2026-04-11T11:00:57.912Z</time></trkpt><trkpt lat="44.5767548" lon="9.9439739"><ele>261.0</ele><time>2026-04-11T11:00:58.912Z</time></trkpt><trkpt lat="44.576887" lon="9.9439281"><ele>261.0</ele><time>2026-04-11T11:00:59.911Z</time></trkpt><trkpt lat="44.5770171" lon="9.9438654"><ele>261.0</ele><time>2026-04-11T11:01:00.912Z</time></trkpt><trkpt lat="44.5771461" lon="9.9437974"><ele>261.0</ele><time>2026-04-11T11:01:01.911Z</time></trkpt><trkpt lat="44.5772711" lon="9.9437239"><ele>261.0</ele><time>2026-04-11T11:01:02.912Z</time></trkpt><trkpt lat="44.5773927" lon="9.9436384"><ele>261.25</ele><time>2026-04-11T11:01:03.912Z</time></trkpt><trkpt lat="44.5775112" lon="9.9435485"><ele>261.5</ele><time>2026-04-11T11:01:04.911Z</time></trkpt><trkpt lat="44.5776281" lon="9.9434571"><ele>261.75</ele><time>2026-04-11T11:01:05.912Z</time></trkpt><trkpt lat="44.577747" lon="9.94337"><ele>262.0</ele><time>2026-04-11T11:01:06.912Z</time></trkpt><trkpt lat="44.5778679" lon="9.9432918"><ele>262.0</ele><time>2026-04-11T11:01:07.911Z</time></trkpt><trkpt lat="44.5779934" lon="9.9432258"><ele>262.0</ele><time>2026-04-11T11:01:08.911Z</time></trkpt><trkpt lat="44.5781194" lon="9.9431693"><ele>262.0</ele><time>2026-04-11T11:01:09.912Z</time></trkpt><trkpt lat="44.5782457" lon="9.9431242"><ele>262.0</ele><time>2026-04-11T11:01:10.912Z</time></trkpt><trkpt lat="44.578374" lon="9.9430899"><ele>262.0</ele><time>2026-04-11T11:01:11.912Z</time></trkpt><trkpt lat="44.5785041" lon="9.9430677"><ele>262.0</ele><time>2026-04-11T11:01:12.912Z</time></trkpt><trkpt lat="44.5786298" lon="9.9430414"><ele>262.0</ele><time>2026-04-11T11:01:13.911Z</time></trkpt><trkpt lat="44.5787593" lon="9.9430196"><ele>262.0</ele><time>2026-04-11T11:01:14.912Z</time></trkpt><trkpt lat="44.5790061" lon="9.9429465"><ele>261.5</ele><time>2026-04-11T11:01:16.911Z</time></trkpt><trkpt lat="44.5791303" lon="9.9428987"><ele>261.0</ele><time>2026-04-11T11:01:17.912Z</time></trkpt><trkpt lat="44.57925" lon="9.9428359"><ele>260.5</ele><time>2026-04-11T11:01:18.912Z</time></trkpt><trkpt lat="44.5793666" lon="9.942757"><ele>260.0</ele><time>2026-04-11T11:01:19.912Z</time></trkpt><trkpt lat="44.5794753" lon="9.9426684"><ele>261.0</ele><time>2026-04-11T11:01:20.912Z</time></trkpt><trkpt lat="44.5795842" lon="9.9425666"><ele>262.0</ele><time>2026-04-11T11:01:21.912Z</time></trkpt><trkpt lat="44.5796899" lon="9.9424718"><ele>263.0</ele><time>2026-04-11T11:01:22.912Z</time></trkpt><trkpt lat="44.5797921" lon="9.9423807"><ele>264.0</ele><time>2026-04-11T11:01:23.912Z</time></trkpt><trkpt lat="44.5798986" lon="9.9423049"><ele>264.0</ele><time>2026-04-11T11:01:24.912Z</time></trkpt><trkpt lat="44.5800087" lon="9.9422379"><ele>264.0</ele><time>2026-04-11T11:01:25.912Z</time></trkpt><trkpt lat="44.5801226" lon="9.9421818"><ele>264.0</ele><time>2026-04-11T11:01:26.912Z</time></trkpt><trkpt lat="44.5802388" lon="9.942142"><ele>264.0</ele><time>2026-04-11T11:01:27.912Z</time></trkpt><trkpt lat="44.5803602" lon="9.9421127"><ele>262.5</ele><time>2026-04-11T11:01:28.912Z</time></trkpt><trkpt lat="44.5804847" lon="9.9420864"><ele>261.0</ele><time>2026-04-11T11:01:29.912Z</time></trkpt><trkpt lat="44.580605" lon="9.9420596"><ele>259.5</ele><time>2026-04-11T11:01:30.912Z</time></trkpt><trkpt lat="44.5807246" lon="9.9420248"><ele>258.0</ele><time>2026-04-11T11:01:31.912Z</time></trkpt><trkpt lat="44.5808402" lon="9.9419834"><ele>258.0</ele><time>2026-04-11T11:01:32.912Z</time></trkpt><trkpt lat="44.580951" lon="9.9419373"><ele>258.0</ele><time>2026-04-11T11:01:33.912Z</time></trkpt><trkpt lat="44.5810617" lon="9.941885"><ele>258.0</ele><time>2026-04-11T11:01:34.912Z</time></trkpt><trkpt lat="44.5811733" lon="9.9418257"><ele>258.0</ele><time>2026-04-11T11:01:35.911Z</time></trkpt><trkpt lat="44.5812819" lon="9.9417529"><ele>259.25</ele><time>2026-04-11T11:01:36.912Z</time></trkpt><trkpt lat="44.581384" lon="9.9416589"><ele>260.5</ele><time>2026-04-11T11:01:37.911Z</time></trkpt><trkpt lat="44.581487" lon="9.9415689"><ele>261.75</ele><time>2026-04-11T11:01:38.911Z</time></trkpt><trkpt lat="44.5815933" lon="9.9414891"><ele>263.0</ele><time>2026-04-11T11:01:39.912Z</time></trkpt><trkpt lat="44.5817011" lon="9.9414271"><ele>263.0</ele><time>2026-04-11T11:01:40.911Z</time></trkpt><trkpt lat="44.581805" lon="9.941393"><ele>263.0</ele><time>2026-04-11T11:01:41.912Z</time></trkpt><trkpt lat="44.5818954" lon="9.941376"><ele>263.0</ele><time>2026-04-11T11:01:42.912Z</time></trkpt><trkpt lat="44.5819701" lon="9.9413358"><ele>263.0</ele><time>2026-04-11T11:01:43.911Z</time></trkpt><trkpt lat="44.5820244" lon="9.9412653"><ele>263.0</ele><time>2026-04-11T11:01:44.912Z</time></trkpt><trkpt lat="44.5820516" lon="9.9411798"><ele>263.0</ele><time>2026-04-11T11:01:45.911Z</time></trkpt><trkpt lat="44.582062" lon="9.9410849"><ele>262.6666666666667</ele><time>2026-04-11T11:01:46.911Z</time></trkpt><trkpt lat="44.5820557" lon="9.9409798"><ele>262.33333333333337</ele><time>2026-04-11T11:01:47.911Z</time></trkpt><trkpt lat="44.5820377" lon="9.9408709"><ele>262.0</ele><time>2026-04-11T11:01:48.911Z</time></trkpt><trkpt lat="44.5820194" lon="9.9407551"><ele>261.6666666666667</ele><time>2026-04-11T11:01:49.911Z</time></trkpt><trkpt lat="44.5820001" lon="9.9406327"><ele>261.3333333333333</ele><time>2026-04-11T11:01:50.911Z</time></trkpt><trkpt lat="44.5819779" lon="9.9405029"><ele>261.0</ele><time>2026-04-11T11:01:51.91Z</time></trkpt><trkpt lat="44.581958" lon="9.94037"><ele>263.40000000000003</ele><time>2026-04-11T11:01:52.911Z</time></trkpt><trkpt lat="44.581933" lon="9.9402349"><ele>265.8</ele><time>2026-04-11T11:01:53.911Z</time></trkpt><trkpt lat="44.5819041" lon="9.9400981"><ele>268.20000000000005</ele><time>2026-04-11T11:01:54.911Z</time></trkpt><trkpt lat="44.5818759" lon="9.9399593"><ele>270.6</ele><time>2026-04-11T11:01:55.911Z</time></trkpt><trkpt lat="44.58185" lon="9.9398234"><ele>273.0</ele><time>2026-04-11T11:01:56.91Z</time></trkpt><trkpt lat="44.5818227" lon="9.9396884"><ele>273.4</ele><time>2026-04-11T11:01:57.911Z</time></trkpt><trkpt lat="44.5817934" lon="9.9395507"><ele>273.8</ele><time>2026-04-11T11:01:58.911Z</time></trkpt><trkpt lat="44.5817682" lon="9.9394125"><ele>274.2</ele><time>2026-04-11T11:01:59.911Z</time></trkpt><trkpt lat="44.581746" lon="9.9392748"><ele>274.6</ele><time>2026-04-11T11:02:00.911Z</time></trkpt><trkpt lat="44.5817238" lon="9.9391332"><ele>275.0</ele><time>2026-04-11T11:02:01.911Z</time></trkpt><trkpt lat="44.5817022" lon="9.9389911"><ele>275.2</ele><time>2026-04-11T11:02:02.911Z</time></trkpt><trkpt lat="44.5816811" lon="9.938845"><ele>275.4</ele><time>2026-04-11T11:02:03.91Z</time></trkpt><trkpt lat="44.5816591" lon="9.9386978"><ele>275.6</ele><time>2026-04-11T11:02:04.911Z</time></trkpt><trkpt lat="44.5816365" lon="9.9385522"><ele>275.8</ele><time>2026-04-11T11:02:05.911Z</time></trkpt><trkpt lat="44.5816275" lon="9.9384064"><ele>276.0</ele><time>2026-04-11T11:02:06.911Z</time></trkpt><trkpt lat="44.5816432" lon="9.9382643"><ele>276.40000000000003</ele><time>2026-04-11T11:02:07.911Z</time></trkpt><trkpt lat="44.5816815" lon="9.9381317"><ele>276.8</ele><time>2026-04-11T11:02:08.911Z</time></trkpt><trkpt lat="44.5817381" lon="9.938012"><ele>277.20000000000005</ele><time>2026-04-11T11:02:09.911Z</time></trkpt><trkpt lat="44.5818033" lon="9.9378929"><ele>277.6</ele><time>2026-04-11T11:02:10.911Z</time></trkpt><trkpt lat="44.581853" lon="9.9377609"><ele>278.0</ele><time>2026-04-11T11:02:11.911Z</time></trkpt><trkpt lat="44.581881" lon="9.937618"><ele>278.8</ele><time>2026-04-11T11:02:12.911Z</time></trkpt><trkpt lat="44.5818667" lon="9.9374702"><ele>279.6</ele><time>2026-04-11T11:02:13.911Z</time></trkpt><trkpt lat="44.5818267" lon="9.9373262"><ele>280.4</ele><time>2026-04-11T11:02:14.911Z</time></trkpt><trkpt lat="44.5817782" lon="9.937179"><ele>281.2</ele><time>2026-04-11T11:02:15.911Z</time></trkpt><trkpt lat="44.5817419" lon="9.9370272"><ele>282.0</ele><time>2026-04-11T11:02:16.91Z</time></trkpt><trkpt lat="44.5817338" lon="9.9368654"><ele>282.6</ele><time>2026-04-11T11:02:17.91Z</time></trkpt><trkpt lat="44.5817529" lon="9.9367132"><ele>283.2</ele><time>2026-04-11T11:02:18.911Z</time></trkpt><trkpt lat="44.5817975" lon="9.9365683"><ele>283.8</ele><time>2026-04-11T11:02:19.911Z</time></trkpt><trkpt lat="44.5818473" lon="9.9364304"><ele>284.4</ele><time>2026-04-11T11:02:20.91Z</time></trkpt><trkpt lat="44.5818828" lon="9.9362758"><ele>285.0</ele><time>2026-04-11T11:02:21.911Z</time></trkpt><trkpt lat="44.581897" lon="9.9361108"><ele>285.0</ele><time>2026-04-11T11:02:22.911Z</time></trkpt><trkpt lat="44.5818868" lon="9.9359417"><ele>285.0</ele><time>2026-04-11T11:02:23.91Z</time></trkpt><trkpt lat="44.5818598" lon="9.9357697"><ele>285.0</ele><time>2026-04-11T11:02:24.911Z</time></trkpt><trkpt lat="44.5818307" lon="9.9355897"><ele>285.0</ele><time>2026-04-11T11:02:25.911Z</time></trkpt><trkpt lat="44.5818015" lon="9.9354133"><ele>285.5</ele><time>2026-04-11T11:02:26.91Z</time></trkpt><trkpt lat="44.5817707" lon="9.9352265"><ele>286.0</ele><time>2026-04-11T11:02:27.911Z</time></trkpt><trkpt lat="44.5817435" lon="9.9350424"><ele>286.5</ele><time>2026-04-11T11:02:28.911Z</time></trkpt><trkpt lat="44.5817138" lon="9.9348593"><ele>287.0</ele><time>2026-04-11T11:02:29.911Z</time></trkpt><trkpt lat="44.5816786" lon="9.9346769"><ele>288.0</ele><time>2026-04-11T11:02:30.911Z</time></trkpt><trkpt lat="44.5816486" lon="9.9344944"><ele>289.0</ele><time>2026-04-11T11:02:31.911Z</time></trkpt><trkpt lat="44.5816184" lon="9.9343116"><ele>290.0</ele><time>2026-04-11T11:02:32.911Z</time></trkpt><trkpt lat="44.5815853" lon="9.934133"><ele>291.0</ele><time>2026-04-11T11:02:33.911Z</time></trkpt><trkpt lat="44.5815569" lon="9.9339565"><ele>291.75</ele><time>2026-04-11T11:02:34.911Z</time></trkpt><trkpt lat="44.5815474" lon="9.9337812"><ele>292.5</ele><time>2026-04-11T11:02:35.911Z</time></trkpt><trkpt lat="44.5815641" lon="9.9336081"><ele>293.25</ele><time>2026-04-11T11:02:36.911Z</time></trkpt><trkpt lat="44.5816021" lon="9.9334412"><ele>294.0</ele><time>2026-04-11T11:02:37.91Z</time></trkpt><trkpt lat="44.5816322" lon="9.9332682"><ele>294.0</ele><time>2026-04-11T11:02:38.911Z</time></trkpt><trkpt lat="44.5816172" lon="9.9330755"><ele>294.0</ele><time>2026-04-11T11:02:39.911Z</time></trkpt><trkpt lat="44.5815728" lon="9.9328906"><ele>294.0</ele><time>2026-04-11T11:02:40.911Z</time></trkpt><trkpt lat="44.5815195" lon="9.9327081"><ele>294.0</ele><time>2026-04-11T11:02:41.911Z</time></trkpt><trkpt lat="44.5814641" lon="9.932532"><ele>294.0</ele><time>2026-04-11T11:02:42.91Z</time></trkpt><trkpt lat="44.5814042" lon="9.9323558"><ele>294.0</ele><time>2026-04-11T11:02:43.911Z</time></trkpt><trkpt lat="44.5813426" lon="9.9321827"><ele>294.0</ele><time>2026-04-11T11:02:44.91Z</time></trkpt><trkpt lat="44.5812863" lon="9.9320121"><ele>294.0</ele><time>2026-04-11T11:02:45.911Z</time></trkpt><trkpt lat="44.5812482" lon="9.9318394"><ele>294.75</ele><time>2026-04-11T11:02:46.911Z</time></trkpt><trkpt lat="44.58124" lon="9.9316645"><ele>295.5</ele><time>2026-04-11T11:02:47.91Z</time></trkpt><trkpt lat="44.5812659" lon="9.9315009"><ele>296.25</ele><time>2026-04-11T11:02:48.911Z</time></trkpt><trkpt lat="44.5813238" lon="9.931358"><ele>297.0</ele><time>2026-04-11T11:02:49.91Z</time></trkpt><trkpt lat="44.5814142" lon="9.9312446"><ele>297.0</ele><time>2026-04-11T11:02:50.911Z</time></trkpt><trkpt lat="44.5815083" lon="9.9311571"><ele>297.0</ele><time>2026-04-11T11:02:51.911Z</time></trkpt><trkpt lat="44.5815856" lon="9.9310548"><ele>297.0</ele><time>2026-04-11T11:02:52.911Z</time></trkpt><trkpt lat="44.5816234" lon="9.9309388"><ele>297.0</ele><time>2026-04-11T11:02:53.911Z</time></trkpt><trkpt lat="44.5816604" lon="9.9308283"><ele>297.0</ele><time>2026-04-11T11:02:54.911Z</time></trkpt><trkpt lat="44.5816675" lon="9.9306822"><ele>298.5</ele><time>2026-04-11T11:02:55.911Z</time></trkpt><trkpt lat="44.5814949" lon="9.9306586"><ele>300.0</ele><time>2026-04-11T11:02:56.911Z</time></trkpt><trkpt lat="44.581407" lon="9.9306531"><ele>301.5</ele><time>2026-04-11T11:02:57.911Z</time></trkpt><trkpt lat="44.5813085" lon="9.930688"><ele>303.0</ele><time>2026-04-11T11:02:58.911Z</time></trkpt><trkpt lat="44.5812036" lon="9.9307299"><ele>305.8</ele><time>2026-04-11T11:02:59.91Z</time></trkpt><trkpt lat="44.5811006" lon="9.9307707"><ele>308.6</ele><time>2026-04-11T11:03:00.91Z</time></trkpt><trkpt lat="44.5809924" lon="9.9308046"><ele>311.4</ele><time>2026-04-11T11:03:01.911Z</time></trkpt><trkpt lat="44.5808828" lon="9.930808"><ele>314.2</ele><time>2026-04-11T11:03:02.911Z</time></trkpt><trkpt lat="44.5807806" lon="9.9307596"><ele>317.0</ele><time>2026-04-11T11:03:03.911Z</time></trkpt><trkpt lat="44.5806282" lon="9.9305353"><ele>317.0</ele><time>2026-04-11T11:03:05.911Z</time></trkpt><trkpt lat="44.5805693" lon="9.9303856"><ele>317.0</ele><time>2026-04-11T11:03:06.911Z</time></trkpt><trkpt lat="44.5805133" lon="9.9302307"><ele>317.0</ele><time>2026-04-11T11:03:07.911Z</time></trkpt><trkpt lat="44.5804733" lon="9.9300659"><ele>317.0</ele><time>2026-04-11T11:03:08.911Z</time></trkpt><trkpt lat="44.5804635" lon="9.9298973"><ele>316.75</ele><time>2026-04-11T11:03:09.911Z</time></trkpt><trkpt lat="44.5804746" lon="9.929733"><ele>316.5</ele><time>2026-04-11T11:03:10.911Z</time></trkpt><trkpt lat="44.5804965" lon="9.9295696"><ele>316.25</ele><time>2026-04-11T11:03:11.911Z</time></trkpt><trkpt lat="44.5805242" lon="9.9293983"><ele>316.0</ele><time>2026-04-11T11:03:12.91Z</time></trkpt><trkpt lat="44.5805536" lon="9.9292271"><ele>316.0</ele><time>2026-04-11T11:03:13.911Z</time></trkpt><trkpt lat="44.5805834" lon="9.9290535"><ele>316.0</ele><time>2026-04-11T11:03:14.911Z</time></trkpt><trkpt lat="44.5806112" lon="9.9288697"><ele>316.0</ele><time>2026-04-11T11:03:15.911Z</time></trkpt><trkpt lat="44.5806349" lon="9.9286827"><ele>316.0</ele><time>2026-04-11T11:03:16.91Z</time></trkpt><trkpt lat="44.580649" lon="9.9284937"><ele>316.5</ele><time>2026-04-11T11:03:17.911Z</time></trkpt><trkpt lat="44.5806578" lon="9.928301"><ele>317.0</ele><time>2026-04-11T11:03:18.911Z</time></trkpt><trkpt lat="44.5806649" lon="9.9281131"><ele>317.5</ele><time>2026-04-11T11:03:19.91Z</time></trkpt><trkpt lat="44.5806722" lon="9.9279354"><ele>318.0</ele><time>2026-04-11T11:03:20.911Z</time></trkpt><trkpt lat="44.5806825" lon="9.9277627"><ele>318.0</ele><time>2026-04-11T11:03:21.91Z</time></trkpt><trkpt lat="44.5807059" lon="9.9275988"><ele>318.0</ele><time>2026-04-11T11:03:22.911Z</time></trkpt><trkpt lat="44.5807462" lon="9.9274481"><ele>318.0</ele><time>2026-04-11T11:03:23.911Z</time></trkpt><trkpt lat="44.5807847" lon="9.9273029"><ele>318.0</ele><time>2026-04-11T11:03:24.91Z</time></trkpt><trkpt lat="44.5808009" lon="9.9271486"><ele>320.25</ele><time>2026-04-11T11:03:25.911Z</time></trkpt><trkpt lat="44.5808074" lon="9.9269902"><ele>322.5</ele><time>2026-04-11T11:03:26.912Z</time></trkpt><trkpt lat="44.5808094" lon="9.92683"><ele>324.75</ele><time>2026-04-11T11:03:27.911Z</time></trkpt><trkpt lat="44.5808138" lon="9.9266662"><ele>327.0</ele><time>2026-04-11T11:03:28.911Z</time></trkpt><trkpt lat="44.5808308" lon="9.9265039"><ele>328.25</ele><time>2026-04-11T11:03:29.911Z</time></trkpt><trkpt lat="44.5808631" lon="9.9263518"><ele>329.5</ele><time>2026-04-11T11:03:30.91Z</time></trkpt><trkpt lat="44.5808935" lon="9.9261969"><ele>330.75</ele><time>2026-04-11T11:03:31.911Z</time></trkpt><trkpt lat="44.5809113" lon="9.9260401"><ele>332.0</ele><time>2026-04-11T11:03:32.911Z</time></trkpt><trkpt lat="44.5809169" lon="9.9258834"><ele>333.20000000000005</ele><time>2026-04-11T11:03:33.911Z</time></trkpt><trkpt lat="44.5809133" lon="9.9257269"><ele>334.4</ele><time>2026-04-11T11:03:34.91Z</time></trkpt><trkpt lat="44.5809082" lon="9.9255713"><ele>335.6</ele><time>2026-04-11T11:03:35.91Z</time></trkpt><trkpt lat="44.5809187" lon="9.9254174"><ele>336.79999999999995</ele><time>2026-04-11T11:03:36.911Z</time></trkpt><trkpt lat="44.5809537" lon="9.9252703"><ele>338.0</ele><time>2026-04-11T11:03:37.911Z</time></trkpt><trkpt lat="44.5810056" lon="9.9251304"><ele>339.0</ele><time>2026-04-11T11:03:38.91Z</time></trkpt><trkpt lat="44.5810586" lon="9.924993"><ele>340.0</ele><time>2026-04-11T11:03:39.911Z</time></trkpt><trkpt lat="44.5810947" lon="9.9248479"><ele>341.0</ele><time>2026-04-11T11:03:40.911Z</time></trkpt><trkpt lat="44.5811061" lon="9.924693"><ele>342.0</ele><time>2026-04-11T11:03:41.91Z</time></trkpt><trkpt lat="44.5810981" lon="9.9245447"><ele>343.0</ele><time>2026-04-11T11:03:42.911Z</time></trkpt><trkpt lat="44.5810793" lon="9.9243945"><ele>343.0</ele><time>2026-04-11T11:03:43.911Z</time></trkpt><trkpt lat="44.5810596" lon="9.9242395"><ele>343.0</ele><time>2026-04-11T11:03:44.911Z</time></trkpt><trkpt lat="44.5810426" lon="9.9240854"><ele>343.0</ele><time>2026-04-11T11:03:45.91Z</time></trkpt><trkpt lat="44.5810323" lon="9.9239267"><ele>343.0</ele><time>2026-04-11T11:03:46.912Z</time></trkpt><trkpt lat="44.581038" lon="9.9237776"><ele>343.0</ele><time>2026-04-11T11:03:47.911Z</time></trkpt><trkpt lat="44.581056" lon="9.9236326"><ele>344.2</ele><time>2026-04-11T11:03:48.91Z</time></trkpt><trkpt lat="44.5810906" lon="9.9234946"><ele>345.4</ele><time>2026-04-11T11:03:49.91Z</time></trkpt><trkpt lat="44.5811362" lon="9.9233643"><ele>346.59999999999997</ele><time>2026-04-11T11:03:50.911Z</time></trkpt><trkpt lat="44.5811853" lon="9.9232345"><ele>347.79999999999995</ele><time>2026-04-11T11:03:51.91Z</time></trkpt><trkpt lat="44.5812356" lon="9.9231015"><ele>349.0</ele><time>2026-04-11T11:03:52.911Z</time></trkpt><trkpt lat="44.5812865" lon="9.9229657"><ele>348.0</ele><time>2026-04-11T11:03:53.911Z</time></trkpt><trkpt lat="44.5813393" lon="9.9228258"><ele>347.0</ele><time>2026-04-11T11:03:54.911Z</time></trkpt><trkpt lat="44.581397" lon="9.9226844"><ele>346.0</ele><time>2026-04-11T11:03:55.911Z</time></trkpt><trkpt lat="44.581457" lon="9.9225451"><ele>345.0</ele><time>2026-04-11T11:03:56.91Z</time></trkpt><trkpt lat="44.5815269" lon="9.9224139"><ele>345.0</ele><time>2026-04-11T11:03:57.911Z</time></trkpt><trkpt lat="44.5816013" lon="9.922289"><ele>345.0</ele><time>2026-04-11T11:03:58.911Z</time></trkpt><trkpt lat="44.5816796" lon="9.9221684"><ele>345.0</ele><time>2026-04-11T11:03:59.911Z</time></trkpt><trkpt lat="44.5817562" lon="9.9220491"><ele>345.0</ele><time>2026-04-11T11:04:00.911Z</time></trkpt><trkpt lat="44.5818284" lon="9.9219314"><ele>345.0</ele><time>2026-04-11T11:04:01.91Z</time></trkpt><trkpt lat="44.5818964" lon="9.9218042"><ele>345.0</ele><time>2026-04-11T11:04:02.911Z</time></trkpt><trkpt lat="44.5819527" lon="9.9216655"><ele>345.0</ele><time>2026-04-11T11:04:03.91Z</time></trkpt><trkpt lat="44.5819935" lon="9.921515"><ele>345.0</ele><time>2026-04-11T11:04:04.91Z</time></trkpt><trkpt lat="44.5820262" lon="9.9213687"><ele>344.0</ele><time>2026-04-11T11:04:05.911Z</time></trkpt><trkpt lat="44.5820541" lon="9.9212237"><ele>343.0</ele><time>2026-04-11T11:04:06.91Z</time></trkpt><trkpt lat="44.582075" lon="9.9210823"><ele>342.0</ele><time>2026-04-11T11:04:07.912Z</time></trkpt><trkpt lat="44.5820909" lon="9.9209323"><ele>341.0</ele><time>2026-04-11T11:04:08.91Z</time></trkpt><trkpt lat="44.582108" lon="9.9207774"><ele>340.0</ele><time>2026-04-11T11:04:09.912Z</time></trkpt><trkpt lat="44.5821224" lon="9.9206174"><ele>344.0</ele><time>2026-04-11T11:04:10.911Z</time></trkpt><trkpt lat="44.5821367" lon="9.9204572"><ele>348.0</ele><time>2026-04-11T11:04:11.91Z</time></trkpt><trkpt lat="44.582147" lon="9.9202958"><ele>352.0</ele><time>2026-04-11T11:04:12.911Z</time></trkpt><trkpt lat="44.5821743" lon="9.9199647"><ele>353.5</ele><time>2026-04-11T11:04:14.911Z</time></trkpt><trkpt lat="44.5821884" lon="9.9198"><ele>355.0</ele><time>2026-04-11T11:04:15.91Z</time></trkpt><trkpt lat="44.5821967" lon="9.9196336"><ele>356.5</ele><time>2026-04-11T11:04:16.911Z</time></trkpt><trkpt lat="44.5821978" lon="9.9194699"><ele>358.0</ele><time>2026-04-11T11:04:17.91Z</time></trkpt><trkpt lat="44.5821907" lon="9.9193052"><ele>358.0</ele><time>2026-04-11T11:04:18.911Z</time></trkpt><trkpt lat="44.582178" lon="9.9191411"><ele>358.0</ele><time>2026-04-11T11:04:19.91Z</time></trkpt><trkpt lat="44.5821618" lon="9.9189741"><ele>358.0</ele><time>2026-04-11T11:04:20.911Z</time></trkpt><trkpt lat="44.5821435" lon="9.9188113"><ele>358.0</ele><time>2026-04-11T11:04:21.91Z</time></trkpt><trkpt lat="44.5821232" lon="9.9186441"><ele>358.0</ele><time>2026-04-11T11:04:22.911Z</time></trkpt><trkpt lat="44.5821032" lon="9.9184762"><ele>358.0</ele><time>2026-04-11T11:04:23.911Z</time></trkpt><trkpt lat="44.5820856" lon="9.9183094"><ele>358.0</ele><time>2026-04-11T11:04:24.911Z</time></trkpt><trkpt lat="44.5820709" lon="9.9181438"><ele>358.0</ele><time>2026-04-11T11:04:25.911Z</time></trkpt><trkpt lat="44.5820916" lon="9.9178265"><ele>357.25</ele><time>2026-04-11T11:04:27.91Z</time></trkpt><trkpt lat="44.5821464" lon="9.9176812"><ele>356.5</ele><time>2026-04-11T11:04:28.911Z</time></trkpt><trkpt lat="44.5822271" lon="9.9175568"><ele>355.75</ele><time>2026-04-11T11:04:29.91Z</time></trkpt><trkpt lat="44.5823289" lon="9.9174561"><ele>355.0</ele><time>2026-04-11T11:04:30.911Z</time></trkpt><trkpt lat="44.5824341" lon="9.9173718"><ele>356.8</ele><time>2026-04-11T11:04:31.911Z</time></trkpt><trkpt lat="44.5825355" lon="9.9172936"><ele>358.6</ele><time>2026-04-11T11:04:32.911Z</time></trkpt><trkpt lat="44.5826182" lon="9.9172033"><ele>360.4</ele><time>2026-04-11T11:04:33.91Z</time></trkpt><trkpt lat="44.5826598" lon="9.9170818"><ele>362.2</ele><time>2026-04-11T11:04:34.91Z</time></trkpt><trkpt lat="44.5826557" lon="9.916955"><ele>364.0</ele><time>2026-04-11T11:04:35.911Z</time></trkpt><trkpt lat="44.5826134" lon="9.9168249"><ele>366.2</ele><time>2026-04-11T11:04:36.911Z</time></trkpt><trkpt lat="44.5825559" lon="9.9166978"><ele>368.4</ele><time>2026-04-11T11:04:37.91Z</time></trkpt><trkpt lat="44.5824956" lon="9.9165746"><ele>370.6</ele><time>2026-04-11T11:04:38.911Z</time></trkpt><trkpt lat="44.5824379" lon="9.9164482"><ele>372.8</ele><time>2026-04-11T11:04:39.911Z</time></trkpt><trkpt lat="44.5823952" lon="9.916306"><ele>375.0</ele><time>2026-04-11T11:04:40.911Z</time></trkpt><trkpt lat="44.582375" lon="9.9161553"><ele>375.0</ele><time>2026-04-11T11:04:41.91Z</time></trkpt><trkpt lat="44.582375" lon="9.9159997"><ele>375.0</ele><time>2026-04-11T11:04:42.912Z</time></trkpt><trkpt lat="44.5823939" lon="9.9158453"><ele>375.0</ele><time>2026-04-11T11:04:43.91Z</time></trkpt><trkpt lat="44.5824347" lon="9.9157025"><ele>375.0</ele><time>2026-04-11T11:04:44.91Z</time></trkpt><trkpt lat="44.5824879" lon="9.9155667"><ele>375.0</ele><time>2026-04-11T11:04:45.911Z</time></trkpt><trkpt lat="44.5825411" lon="9.91543"><ele>375.5</ele><time>2026-04-11T11:04:46.911Z</time></trkpt><trkpt lat="44.5825639" lon="9.9152792"><ele>376.0</ele><time>2026-04-11T11:04:47.911Z</time></trkpt><trkpt lat="44.582555" lon="9.9151219"><ele>376.5</ele><time>2026-04-11T11:04:48.911Z</time></trkpt><trkpt lat="44.5825485" lon="9.9149584"><ele>377.0</ele><time>2026-04-11T11:04:49.91Z</time></trkpt><trkpt lat="44.5825634" lon="9.9147959"><ele>379.0</ele><time>2026-04-11T11:04:50.91Z</time></trkpt><trkpt lat="44.582598" lon="9.914642"><ele>381.0</ele><time>2026-04-11T11:04:51.911Z</time></trkpt><trkpt lat="44.5826425" lon="9.914492"><ele>383.0</ele><time>2026-04-11T11:04:52.911Z</time></trkpt><trkpt lat="44.5826656" lon="9.9143415"><ele>385.0</ele><time>2026-04-11T11:04:53.91Z</time></trkpt><trkpt lat="44.5826515" lon="9.9141944"><ele>387.0</ele><time>2026-04-11T11:04:54.911Z</time></trkpt><trkpt lat="44.5826085" lon="9.9140585"><ele>387.5</ele><time>2026-04-11T11:04:55.911Z</time></trkpt><trkpt lat="44.5825504" lon="9.9139306"><ele>388.0</ele><time>2026-04-11T11:04:56.91Z</time></trkpt><trkpt lat="44.58248" lon="9.9138028"><ele>388.5</ele><time>2026-04-11T11:04:57.911Z</time></trkpt><trkpt lat="44.5824047" lon="9.9136764"><ele>389.0</ele><time>2026-04-11T11:04:58.911Z</time></trkpt><trkpt lat="44.5823323" lon="9.9135535"><ele>389.0</ele><time>2026-04-11T11:04:59.911Z</time></trkpt><trkpt lat="44.5822599" lon="9.9134276"><ele>389.0</ele><time>2026-04-11T11:05:00.91Z</time></trkpt><trkpt lat="44.5821986" lon="9.9132924"><ele>389.0</ele><time>2026-04-11T11:05:01.911Z</time></trkpt><trkpt lat="44.5821597" lon="9.9131419"><ele>389.0</ele><time>2026-04-11T11:05:02.911Z</time></trkpt><trkpt lat="44.5821421" lon="9.9129762"><ele>387.75</ele><time>2026-04-11T11:05:03.911Z</time></trkpt><trkpt lat="44.5821312" lon="9.9128013"><ele>386.5</ele><time>2026-04-11T11:05:04.91Z</time></trkpt><trkpt lat="44.5821263" lon="9.9126185"><ele>385.25</ele><time>2026-04-11T11:05:05.911Z</time></trkpt><trkpt lat="44.5821211" lon="9.912434"><ele>384.0</ele><time>2026-04-11T11:05:06.911Z</time></trkpt><trkpt lat="44.5821197" lon="9.9122493"><ele>384.0</ele><time>2026-04-11T11:05:07.911Z</time></trkpt><trkpt lat="44.5821175" lon="9.912066"><ele>384.0</ele><time>2026-04-11T11:05:08.91Z</time></trkpt><trkpt lat="44.582106" lon="9.9118842"><ele>384.0</ele><time>2026-04-11T11:05:09.911Z</time></trkpt><trkpt lat="44.5820782" lon="9.91171"><ele>384.0</ele><time>2026-04-11T11:05:10.911Z</time></trkpt><trkpt lat="44.5820274" lon="9.9115566"><ele>387.75</ele><time>2026-04-11T11:05:11.911Z</time></trkpt><trkpt lat="44.5819594" lon="9.9114254"><ele>391.5</ele><time>2026-04-11T11:05:12.911Z</time></trkpt><trkpt lat="44.5818802" lon="9.9113164"><ele>395.25</ele><time>2026-04-11T11:05:13.912Z</time></trkpt><trkpt lat="44.5817926" lon="9.911215"><ele>399.0</ele><time>2026-04-11T11:05:14.911Z</time></trkpt><trkpt lat="44.5816996" lon="9.9111106"><ele>399.0</ele><time>2026-04-11T11:05:15.91Z</time></trkpt><trkpt lat="44.581622" lon="9.9109821"><ele>399.0</ele><time>2026-04-11T11:05:16.911Z</time></trkpt><trkpt lat="44.5815582" lon="9.9108373"><ele>399.0</ele><time>2026-04-11T11:05:17.911Z</time></trkpt><trkpt lat="44.5815014" lon="9.9106846"><ele>399.0</ele><time>2026-04-11T11:05:18.911Z</time></trkpt><trkpt lat="44.5814505" lon="9.9105287"><ele>397.0</ele><time>2026-04-11T11:05:19.911Z</time></trkpt><trkpt lat="44.5814052" lon="9.9103672"><ele>395.0</ele><time>2026-04-11T11:05:20.911Z</time></trkpt><trkpt lat="44.581362" lon="9.9102035"><ele>393.0</ele><time>2026-04-11T11:05:21.91Z</time></trkpt><trkpt lat="44.5813156" lon="9.9100368"><ele>391.0</ele><time>2026-04-11T11:05:22.91Z</time></trkpt><trkpt lat="44.5812695" lon="9.9098674"><ele>389.75</ele><time>2026-04-11T11:05:23.91Z</time></trkpt><trkpt lat="44.5812215" lon="9.9096975"><ele>388.5</ele><time>2026-04-11T11:05:24.911Z</time></trkpt><trkpt lat="44.5811655" lon="9.9095316"><ele>387.25</ele><time>2026-04-11T11:05:25.912Z</time></trkpt><trkpt lat="44.5810891" lon="9.9093908"><ele>386.0</ele><time>2026-04-11T11:05:26.911Z</time></trkpt><trkpt lat="44.5809971" lon="9.9092748"><ele>388.5</ele><time>2026-04-11T11:05:27.911Z</time></trkpt><trkpt lat="44.5808952" lon="9.9091733"><ele>391.0</ele><time>2026-04-11T11:05:28.911Z</time></trkpt><trkpt lat="44.5807948" lon="9.9090722"><ele>393.5</ele><time>2026-04-11T11:05:29.911Z</time></trkpt><trkpt lat="44.5807107" lon="9.9089607"><ele>396.0</ele><time>2026-04-11T11:05:30.91Z</time></trkpt><trkpt lat="44.5806547" lon="9.9088281"><ele>396.0</ele><time>2026-04-11T11:05:31.91Z</time></trkpt><trkpt lat="44.580626" lon="9.9086846"><ele>396.0</ele><time>2026-04-11T11:05:32.905Z</time></trkpt><trkpt lat="44.580626" lon="9.9085346"><ele>396.0</ele><time>2026-04-11T11:05:33.911Z</time></trkpt><trkpt lat="44.5806465" lon="9.9083871"><ele>396.0</ele><time>2026-04-11T11:05:34.91Z</time></trkpt><trkpt lat="44.5806533" lon="9.9082327"><ele>396.0</ele><time>2026-04-11T11:05:35.911Z</time></trkpt><trkpt lat="44.5806327" lon="9.9080799"><ele>396.25</ele><time>2026-04-11T11:05:36.911Z</time></trkpt><trkpt lat="44.5805913" lon="9.9079344"><ele>396.5</ele><time>2026-04-11T11:05:37.91Z</time></trkpt><trkpt lat="44.5805328" lon="9.9078068"><ele>396.75</ele><time>2026-04-11T11:05:38.91Z</time></trkpt><trkpt lat="44.580432" lon="9.9077057"><ele>397.0</ele><time>2026-04-11T11:05:39.911Z</time></trkpt><trkpt lat="44.5803287" lon="9.9076393"><ele>399.75</ele><time>2026-04-11T11:05:40.911Z</time></trkpt><trkpt lat="44.5802169" lon="9.9075973"><ele>402.5</ele><time>2026-04-11T11:05:41.91Z</time></trkpt><trkpt lat="44.5801045" lon="9.9075578"><ele>405.25</ele><time>2026-04-11T11:05:42.91Z</time></trkpt><trkpt lat="44.5799917" lon="9.9075009"><ele>408.0</ele><time>2026-04-11T11:05:43.911Z</time></trkpt><trkpt lat="44.5798822" lon="9.9074211"><ele>408.0</ele><time>2026-04-11T11:05:44.911Z</time></trkpt><trkpt lat="44.5797867" lon="9.9073113"><ele>408.0</ele><time>2026-04-11T11:05:45.911Z</time></trkpt><trkpt lat="44.5796985" lon="9.9071836"><ele>408.0</ele><time>2026-04-11T11:05:46.91Z</time></trkpt><trkpt lat="44.5796183" lon="9.9070464"><ele>408.0</ele><time>2026-04-11T11:05:47.91Z</time></trkpt><trkpt lat="44.5795349" lon="9.9069082"><ele>410.75</ele><time>2026-04-11T11:05:48.911Z</time></trkpt><trkpt lat="44.5794535" lon="9.9067669"><ele>413.5</ele><time>2026-04-11T11:05:49.911Z</time></trkpt><trkpt lat="44.579377" lon="9.9066277"><ele>416.25</ele><time>2026-04-11T11:05:50.91Z</time></trkpt><trkpt lat="44.5792996" lon="9.9064939"><ele>419.0</ele><time>2026-04-11T11:05:51.91Z</time></trkpt><trkpt lat="44.5792344" lon="9.9063479"><ele>419.0</ele><time>2026-04-11T11:05:52.912Z</time></trkpt><trkpt lat="44.5791907" lon="9.9061855"><ele>419.0</ele><time>2026-04-11T11:05:53.91Z</time></trkpt><trkpt lat="44.5791581" lon="9.9060205"><ele>419.0</ele><time>2026-04-11T11:05:54.911Z</time></trkpt><trkpt lat="44.5791276" lon="9.9058505"><ele>419.0</ele><time>2026-04-11T11:05:55.91Z</time></trkpt><trkpt lat="44.5790925" lon="9.9056821"><ele>419.0</ele><time>2026-04-11T11:05:56.911Z</time></trkpt><trkpt lat="44.579053" lon="9.9055174"><ele>419.0</ele><time>2026-04-11T11:05:57.911Z</time></trkpt><trkpt lat="44.5790121" lon="9.9053525"><ele>419.0</ele><time>2026-04-11T11:05:58.91Z</time></trkpt><trkpt lat="44.5789778" lon="9.9051845"><ele>419.0</ele><time>2026-04-11T11:05:59.91Z</time></trkpt><trkpt lat="44.5789455" lon="9.9050136"><ele>419.0</ele><time>2026-04-11T11:06:00.911Z</time></trkpt><trkpt lat="44.578917" lon="9.9048429"><ele>419.0</ele><time>2026-04-11T11:06:01.911Z</time></trkpt><trkpt lat="44.5788293" lon="9.9045581"><ele>419.0</ele><time>2026-04-11T11:06:03.911Z</time></trkpt><trkpt lat="44.5787554" lon="9.9044763"><ele>419.0</ele><time>2026-04-11T11:06:04.91Z</time></trkpt><trkpt lat="44.5786723" lon="9.9044431"><ele>423.4</ele><time>2026-04-11T11:06:05.911Z</time></trkpt><trkpt lat="44.5785855" lon="9.9044554"><ele>427.79999999999995</ele><time>2026-04-11T11:06:06.911Z</time></trkpt><trkpt lat="44.5785075" lon="9.9045207"><ele>432.20000000000005</ele><time>2026-04-11T11:06:07.911Z</time></trkpt><trkpt lat="44.57846" lon="9.9046346"><ele>436.6</ele><time>2026-04-11T11:06:08.91Z</time></trkpt><trkpt lat="44.5784321" lon="9.9047687"><ele>441.0</ele><time>2026-04-11T11:06:09.911Z</time></trkpt><trkpt lat="44.5784652" lon="9.9049219"><ele>441.0</ele><time>2026-04-11T11:06:10.911Z</time></trkpt><trkpt lat="44.5784932" lon="9.9050735"><ele>441.0</ele><time>2026-04-11T11:06:11.911Z</time></trkpt><trkpt lat="44.5785029" lon="9.9052444"><ele>441.0</ele><time>2026-04-11T11:06:12.91Z</time></trkpt><trkpt lat="44.5784844" lon="9.9054122"><ele>441.0</ele><time>2026-04-11T11:06:13.911Z</time></trkpt><trkpt lat="44.5784494" lon="9.905579"><ele>441.0</ele><time>2026-04-11T11:06:14.91Z</time></trkpt><trkpt lat="44.5784055" lon="9.9057439"><ele>441.0</ele><time>2026-04-11T11:06:15.911Z</time></trkpt><trkpt lat="44.5783621" lon="9.9059155"><ele>441.0</ele><time>2026-04-11T11:06:16.911Z</time></trkpt><trkpt lat="44.5783339" lon="9.9061015"><ele>441.0</ele><time>2026-04-11T11:06:17.911Z</time></trkpt><trkpt lat="44.578317" lon="9.9062943"><ele>440.33333333333337</ele><time>2026-04-11T11:06:18.911Z</time></trkpt><trkpt lat="44.5783134" lon="9.9066601"><ele>439.6666666666667</ele><time>2026-04-11T11:06:20.91Z</time></trkpt><trkpt lat="44.5783149" lon="9.9068185"><ele>439.0</ele><time>2026-04-11T11:06:21.911Z</time></trkpt><trkpt lat="44.5782877" lon="9.9069639"><ele>439.0</ele><time>2026-04-11T11:06:22.911Z</time></trkpt><trkpt lat="44.5782293" lon="9.9070652"><ele>439.0</ele><time>2026-04-11T11:06:23.911Z</time></trkpt><trkpt lat="44.5781485" lon="9.9071105"><ele>439.0</ele><time>2026-04-11T11:06:24.911Z</time></trkpt><trkpt lat="44.578063" lon="9.9070887"><ele>439.0</ele><time>2026-04-11T11:06:25.911Z</time></trkpt><trkpt lat="44.5779918" lon="9.907013"><ele>439.0</ele><time>2026-04-11T11:06:26.911Z</time></trkpt><trkpt lat="44.5779477" lon="9.9068964"><ele>439.0</ele><time>2026-04-11T11:06:27.911Z</time></trkpt><trkpt lat="44.5779297" lon="9.9067564"><ele>439.0</ele><time>2026-04-11T11:06:28.911Z</time></trkpt><trkpt lat="44.5779261" lon="9.9066014"><ele>439.0</ele><time>2026-04-11T11:06:29.911Z</time></trkpt><trkpt lat="44.5779277" lon="9.9064381"><ele>439.0</ele><time>2026-04-11T11:06:30.911Z</time></trkpt><trkpt lat="44.5779216" lon="9.9062632"><ele>439.0</ele><time>2026-04-11T11:06:31.911Z</time></trkpt><trkpt lat="44.5779061" lon="9.9060892"><ele>439.0</ele><time>2026-04-11T11:06:32.911Z</time></trkpt><trkpt lat="44.5778716" lon="9.9059212"><ele>439.0</ele><time>2026-04-11T11:06:33.911Z</time></trkpt><trkpt lat="44.5778096" lon="9.9057621"><ele>439.0</ele><time>2026-04-11T11:06:34.91Z</time></trkpt><trkpt lat="44.5777139" lon="9.9056186"><ele>445.5</ele><time>2026-04-11T11:06:35.911Z</time></trkpt><trkpt lat="44.5776139" lon="9.9054875"><ele>452.0</ele><time>2026-04-11T11:06:36.911Z</time></trkpt><trkpt lat="44.5775116" lon="9.9053541"><ele>458.5</ele><time>2026-04-11T11:06:37.91Z</time></trkpt><trkpt lat="44.5774049" lon="9.9052163"><ele>465.0</ele><time>2026-04-11T11:06:38.91Z</time></trkpt><trkpt lat="44.5773002" lon="9.9050828"><ele>465.75</ele><time>2026-04-11T11:06:39.911Z</time></trkpt><trkpt lat="44.5771888" lon="9.9049699"><ele>466.5</ele><time>2026-04-11T11:06:40.911Z</time></trkpt><trkpt lat="44.5770624" lon="9.9048798"><ele>467.25</ele><time>2026-04-11T11:06:41.911Z</time></trkpt><trkpt lat="44.5769308" lon="9.9048327"><ele>468.0</ele><time>2026-04-11T11:06:42.911Z</time></trkpt><trkpt lat="44.5767992" lon="9.9047996"><ele>468.0</ele><time>2026-04-11T11:06:43.911Z</time></trkpt><trkpt lat="44.5766716" lon="9.9047721"><ele>468.0</ele><time>2026-04-11T11:06:44.91Z</time></trkpt><trkpt lat="44.5765513" lon="9.9047441"><ele>468.0</ele><time>2026-04-11T11:06:45.911Z</time></trkpt><trkpt lat="44.5764349" lon="9.9047176"><ele>468.0</ele><time>2026-04-11T11:06:46.911Z</time></trkpt><trkpt lat="44.5763267" lon="9.9046696"><ele>468.0</ele><time>2026-04-11T11:06:47.911Z</time></trkpt><trkpt lat="44.5762373" lon="9.9045769"><ele>468.0</ele><time>2026-04-11T11:06:48.91Z</time></trkpt><trkpt lat="44.576179" lon="9.9044458"><ele>468.0</ele><time>2026-04-11T11:06:49.911Z</time></trkpt><trkpt lat="44.5761613" lon="9.9042899"><ele>468.0</ele><time>2026-04-11T11:06:50.91Z</time></trkpt><trkpt lat="44.5761821" lon="9.9041266"><ele>466.0</ele><time>2026-04-11T11:06:51.91Z</time></trkpt><trkpt lat="44.5762187" lon="9.9039604"><ele>464.0</ele><time>2026-04-11T11:06:52.911Z</time></trkpt><trkpt lat="44.5762665" lon="9.9037852"><ele>462.0</ele><time>2026-04-11T11:06:53.911Z</time></trkpt><trkpt lat="44.5763112" lon="9.9036096"><ele>460.0</ele><time>2026-04-11T11:06:54.91Z</time></trkpt><trkpt lat="44.5763581" lon="9.9034357"><ele>461.5</ele><time>2026-04-11T11:06:55.911Z</time></trkpt><trkpt lat="44.5763956" lon="9.9032563"><ele>463.0</ele><time>2026-04-11T11:06:56.911Z</time></trkpt><trkpt lat="44.5764062" lon="9.9030812"><ele>464.5</ele><time>2026-04-11T11:06:57.911Z</time></trkpt><trkpt lat="44.5763765" lon="9.9029189"><ele>466.0</ele><time>2026-04-11T11:06:58.911Z</time></trkpt><trkpt lat="44.5763167" lon="9.902773"><ele>466.0</ele><time>2026-04-11T11:06:59.911Z</time></trkpt><trkpt lat="44.5762397" lon="9.9026442"><ele>466.0</ele><time>2026-04-11T11:07:00.911Z</time></trkpt><trkpt lat="44.5761442" lon="9.9025229"><ele>466.0</ele><time>2026-04-11T11:07:01.911Z</time></trkpt><trkpt lat="44.5760415" lon="9.9024092"><ele>466.0</ele><time>2026-04-11T11:07:02.911Z</time></trkpt><trkpt lat="44.5759316" lon="9.9023114"><ele>470.75</ele><time>2026-04-11T11:07:03.911Z</time></trkpt><trkpt lat="44.5758084" lon="9.9022324"><ele>475.5</ele><time>2026-04-11T11:07:04.911Z</time></trkpt><trkpt lat="44.5756847" lon="9.9021667"><ele>480.25</ele><time>2026-04-11T11:07:05.911Z</time></trkpt><trkpt lat="44.5755613" lon="9.902107"><ele>485.0</ele><time>2026-04-11T11:07:06.91Z</time></trkpt><trkpt lat="44.5754473" lon="9.9020248"><ele>486.5</ele><time>2026-04-11T11:07:07.911Z</time></trkpt><trkpt lat="44.5753532" lon="9.9019126"><ele>488.0</ele><time>2026-04-11T11:07:08.911Z</time></trkpt><trkpt lat="44.5752765" lon="9.9017766"><ele>489.5</ele><time>2026-04-11T11:07:09.911Z</time></trkpt><trkpt lat="44.5752248" lon="9.9016221"><ele>491.0</ele><time>2026-04-11T11:07:10.911Z</time></trkpt><trkpt lat="44.5751996" lon="9.901457"><ele>491.20000000000005</ele><time>2026-04-11T11:07:11.91Z</time></trkpt><trkpt lat="44.5752106" lon="9.901292"><ele>491.40000000000003</ele><time>2026-04-11T11:07:12.911Z</time></trkpt><trkpt lat="44.5752525" lon="9.9011494"><ele>491.6</ele><time>2026-04-11T11:07:13.91Z</time></trkpt><trkpt lat="44.5753029" lon="9.9010165"><ele>491.8</ele><time>2026-04-11T11:07:14.911Z</time></trkpt><trkpt lat="44.5753219" lon="9.900884"><ele>492.0</ele><time>2026-04-11T11:07:15.912Z</time></trkpt><trkpt lat="44.5753048" lon="9.9007614"><ele>492.0</ele><time>2026-04-11T11:07:16.911Z</time></trkpt><trkpt lat="44.575176" lon="9.9006356"><ele>492.00000000000006</ele><time>2026-04-11T11:07:18.911Z</time></trkpt><trkpt lat="44.5750953" lon="9.9006542"><ele>492.00000000000006</ele><time>2026-04-11T11:07:19.91Z</time></trkpt><trkpt lat="44.5750232" lon="9.9007166"><ele>492.0</ele><time>2026-04-11T11:07:20.911Z</time></trkpt><trkpt lat="44.5749635" lon="9.9008144"><ele>492.0</ele><time>2026-04-11T11:07:21.911Z</time></trkpt><trkpt lat="44.5749155" lon="9.9009276"><ele>492.0</ele><time>2026-04-11T11:07:22.911Z</time></trkpt><trkpt lat="44.5748667" lon="9.9010482"><ele>492.00000000000006</ele><time>2026-04-11T11:07:23.912Z</time></trkpt><trkpt lat="44.5748076" lon="9.9011743"><ele>492.00000000000006</ele><time>2026-04-11T11:07:24.911Z</time></trkpt><trkpt lat="44.5747443" lon="9.9012986"><ele>492.0</ele><time>2026-04-11T11:07:25.911Z</time></trkpt><trkpt lat="44.5746743" lon="9.901429"><ele>492.0</ele><time>2026-04-11T11:07:26.911Z</time></trkpt><trkpt lat="44.5746112" lon="9.9015715"><ele>492.0</ele><time>2026-04-11T11:07:27.91Z</time></trkpt><trkpt lat="44.5745434" lon="9.9017125"><ele>492.0</ele><time>2026-04-11T11:07:28.911Z</time></trkpt><trkpt lat="44.5744756" lon="9.9018548"><ele>492.0</ele><time>2026-04-11T11:07:29.911Z</time></trkpt><trkpt lat="44.5744088" lon="9.9019964"><ele>492.0</ele><time>2026-04-11T11:07:30.911Z</time></trkpt><trkpt lat="44.5743395" lon="9.9021359"><ele>494.5</ele><time>2026-04-11T11:07:31.911Z</time></trkpt><trkpt lat="44.5742713" lon="9.9022748"><ele>497.0</ele><time>2026-04-11T11:07:32.911Z</time></trkpt><trkpt lat="44.5742111" lon="9.9024139"><ele>499.5</ele><time>2026-04-11T11:07:33.911Z</time></trkpt><trkpt lat="44.5741639" lon="9.9025565"><ele>502.0</ele><time>2026-04-11T11:07:34.91Z</time></trkpt><trkpt lat="44.5741384" lon="9.9027091"><ele>502.00000000000006</ele><time>2026-04-11T11:07:35.91Z</time></trkpt><trkpt lat="44.5741171" lon="9.9028621"><ele>502.0</ele><time>2026-04-11T11:07:36.911Z</time></trkpt><trkpt lat="44.5740765" lon="9.9029845"><ele>502.0</ele><time>2026-04-11T11:07:37.911Z</time></trkpt><trkpt lat="44.5740137" lon="9.9030687"><ele>502.0</ele><time>2026-04-11T11:07:38.911Z</time></trkpt><trkpt lat="44.5739389" lon="9.9030865"><ele>502.00000000000006</ele><time>2026-04-11T11:07:39.912Z</time></trkpt><trkpt lat="44.5738748" lon="9.9030429"><ele>502.0</ele><time>2026-04-11T11:07:40.911Z</time></trkpt><trkpt lat="44.5738431" lon="9.9029542"><ele>502.0</ele><time>2026-04-11T11:07:41.911Z</time></trkpt><trkpt lat="44.5738451" lon="9.9028343"><ele>502.00000000000006</ele><time>2026-04-11T11:07:42.911Z</time></trkpt><trkpt lat="44.5738722" lon="9.9026993"><ele>502.00000000000006</ele><time>2026-04-11T11:07:43.911Z</time></trkpt><trkpt lat="44.5739156" lon="9.9025527"><ele>502.0</ele><time>2026-04-11T11:07:44.911Z</time></trkpt><trkpt lat="44.5739595" lon="9.9023956"><ele>502.0</ele><time>2026-04-11T11:07:45.911Z</time></trkpt><trkpt lat="44.5739842" lon="9.9022289"><ele>503.0</ele><time>2026-04-11T11:07:46.911Z</time></trkpt><trkpt lat="44.5739825" lon="9.9020612"><ele>504.0</ele><time>2026-04-11T11:07:47.91Z</time></trkpt><trkpt lat="44.5739499" lon="9.9018918"><ele>505.0</ele><time>2026-04-11T11:07:48.911Z</time></trkpt><trkpt lat="44.5738944" lon="9.9017264"><ele>506.0</ele><time>2026-04-11T11:07:49.911Z</time></trkpt><trkpt lat="44.5738197" lon="9.9015745"><ele>506.25</ele><time>2026-04-11T11:07:50.91Z</time></trkpt><trkpt lat="44.5737417" lon="9.9014286"><ele>506.5</ele><time>2026-04-11T11:07:51.911Z</time></trkpt><trkpt lat="44.5736669" lon="9.9012785"><ele>506.75</ele><time>2026-04-11T11:07:52.911Z</time></trkpt><trkpt lat="44.5736016" lon="9.9011211"><ele>507.0</ele><time>2026-04-11T11:07:53.91Z</time></trkpt><trkpt lat="44.573567" lon="9.9009473"><ele>512.0</ele><time>2026-04-11T11:07:54.911Z</time></trkpt><trkpt lat="44.573547" lon="9.9007766"><ele>517.0</ele><time>2026-04-11T11:07:55.91Z</time></trkpt><trkpt lat="44.5735115" lon="9.9006149"><ele>522.0</ele><time>2026-04-11T11:07:56.911Z</time></trkpt><trkpt lat="44.5734494" lon="9.9004681"><ele>527.0</ele><time>2026-04-11T11:07:57.91Z</time></trkpt><trkpt lat="44.5733659" lon="9.9003479"><ele>527.0</ele><time>2026-04-11T11:07:58.911Z</time></trkpt><trkpt lat="44.5732598" lon="9.9002744"><ele>527.0</ele><time>2026-04-11T11:07:59.912Z</time></trkpt><trkpt lat="44.573141" lon="9.900244"><ele>527.0</ele><time>2026-04-11T11:08:00.911Z</time></trkpt><trkpt lat="44.5730176" lon="9.9002286"><ele>527.0</ele><time>2026-04-11T11:08:01.911Z</time></trkpt><trkpt lat="44.5728927" lon="9.9002073"><ele>527.25</ele><time>2026-04-11T11:08:02.91Z</time></trkpt><trkpt lat="44.572768" lon="9.9001778"><ele>527.5</ele><time>2026-04-11T11:08:03.911Z</time></trkpt><trkpt lat="44.5726462" lon="9.9001446"><ele>527.75</ele><time>2026-04-11T11:08:04.911Z</time></trkpt><trkpt lat="44.5725226" lon="9.9001037"><ele>528.0</ele><time>2026-04-11T11:08:05.911Z</time></trkpt><trkpt lat="44.5723976" lon="9.9000594"><ele>528.0</ele><time>2026-04-11T11:08:06.91Z</time></trkpt><trkpt lat="44.5722728" lon="9.9000161"><ele>528.0</ele><time>2026-04-11T11:08:07.91Z</time></trkpt><trkpt lat="44.5721494" lon="9.8999708"><ele>528.0</ele><time>2026-04-11T11:08:08.911Z</time></trkpt><trkpt lat="44.5720289" lon="9.899911"><ele>528.0</ele><time>2026-04-11T11:08:09.911Z</time></trkpt><trkpt lat="44.5719205" lon="9.8998296"><ele>531.75</ele><time>2026-04-11T11:08:10.911Z</time></trkpt><trkpt lat="44.5718303" lon="9.8997212"><ele>535.5</ele><time>2026-04-11T11:08:11.91Z</time></trkpt><trkpt lat="44.5717548" lon="9.8995896"><ele>539.25</ele><time>2026-04-11T11:08:12.911Z</time></trkpt><trkpt lat="44.5716942" lon="9.8994418"><ele>543.0</ele><time>2026-04-11T11:08:13.911Z</time></trkpt><trkpt lat="44.5716389" lon="9.8992777"><ele>541.25</ele><time>2026-04-11T11:08:14.911Z</time></trkpt><trkpt lat="44.571577" lon="9.899122"><ele>539.5</ele><time>2026-04-11T11:08:15.911Z</time></trkpt><trkpt lat="44.5715109" lon="9.8989652"><ele>537.75</ele><time>2026-04-11T11:08:16.911Z</time></trkpt><trkpt lat="44.5714387" lon="9.89881"><ele>536.0</ele><time>2026-04-11T11:08:17.911Z</time></trkpt><trkpt lat="44.5713567" lon="9.8986631"><ele>536.0</ele><time>2026-04-11T11:08:18.911Z</time></trkpt><trkpt lat="44.5712763" lon="9.8985101"><ele>536.0</ele><time>2026-04-11T11:08:19.911Z</time></trkpt><trkpt lat="44.5711998" lon="9.8983552"><ele>536.0</ele><time>2026-04-11T11:08:20.91Z</time></trkpt><trkpt lat="44.5711259" lon="9.8982017"><ele>536.0</ele><time>2026-04-11T11:08:21.911Z</time></trkpt><trkpt lat="44.5710512" lon="9.8980526"><ele>537.0</ele><time>2026-04-11T11:08:22.91Z</time></trkpt><trkpt lat="44.5709756" lon="9.8979032"><ele>538.0</ele><time>2026-04-11T11:08:23.911Z</time></trkpt><trkpt lat="44.5708973" lon="9.8977561"><ele>539.0</ele><time>2026-04-11T11:08:24.911Z</time></trkpt><trkpt lat="44.57082" lon="9.8976055"><ele>540.0</ele><time>2026-04-11T11:08:25.911Z</time></trkpt><trkpt lat="44.5707427" lon="9.8974534"><ele>540.0</ele><time>2026-04-11T11:08:26.911Z</time></trkpt><trkpt lat="44.5706647" lon="9.897302"><ele>540.0</ele><time>2026-04-11T11:08:27.911Z</time></trkpt><trkpt lat="44.5705916" lon="9.8971455"><ele>540.0</ele><time>2026-04-11T11:08:28.911Z</time></trkpt><trkpt lat="44.570533" lon="9.8969797"><ele>540.0</ele><time>2026-04-11T11:08:29.91Z</time></trkpt><trkpt lat="44.5704988" lon="9.896803"><ele>539.5</ele><time>2026-04-11T11:08:30.911Z</time></trkpt><trkpt lat="44.5704803" lon="9.8966195"><ele>539.0</ele><time>2026-04-11T11:08:31.911Z</time></trkpt><trkpt lat="44.5704704" lon="9.8964359"><ele>538.5</ele><time>2026-04-11T11:08:32.91Z</time></trkpt><trkpt lat="44.5704605" lon="9.8962465"><ele>538.0</ele><time>2026-04-11T11:08:33.911Z</time></trkpt><trkpt lat="44.5704494" lon="9.8960564"><ele>538.5</ele><time>2026-04-11T11:08:34.911Z</time></trkpt><trkpt lat="44.5704343" lon="9.8958662"><ele>539.0</ele><time>2026-04-11T11:08:35.911Z</time></trkpt><trkpt lat="44.5704228" lon="9.8956739"><ele>539.5</ele><time>2026-04-11T11:08:36.91Z</time></trkpt><trkpt lat="44.5704165" lon="9.8954838"><ele>540.0</ele><time>2026-04-11T11:08:37.911Z</time></trkpt><trkpt lat="44.5704183" lon="9.8952941"><ele>540.0</ele><time>2026-04-11T11:08:38.911Z</time></trkpt><trkpt lat="44.5704323" lon="9.8951084"><ele>540.0</ele><time>2026-04-11T11:08:39.911Z</time></trkpt><trkpt lat="44.5704933" lon="9.8947454"><ele>540.0</ele><time>2026-04-11T11:08:41.911Z</time></trkpt><trkpt lat="44.5705252" lon="9.8945695"><ele>541.5</ele><time>2026-04-11T11:08:42.911Z</time></trkpt><trkpt lat="44.5705367" lon="9.8943971"><ele>543.0</ele><time>2026-04-11T11:08:43.91Z</time></trkpt><trkpt lat="44.5705182" lon="9.8942276"><ele>544.5</ele><time>2026-04-11T11:08:44.911Z</time></trkpt><trkpt lat="44.5704754" lon="9.8940699"><ele>546.0</ele><time>2026-04-11T11:08:45.912Z</time></trkpt><trkpt lat="44.5704187" lon="9.8939147"><ele>547.0</ele><time>2026-04-11T11:08:46.91Z</time></trkpt><trkpt lat="44.570361" lon="9.8937669"><ele>548.0</ele><time>2026-04-11T11:08:47.911Z</time></trkpt><trkpt lat="44.5702993" lon="9.8936186"><ele>549.0</ele><time>2026-04-11T11:08:48.911Z</time></trkpt><trkpt lat="44.5702337" lon="9.8934731"><ele>550.0</ele><time>2026-04-11T11:08:49.91Z</time></trkpt><trkpt lat="44.5701867" lon="9.8933196"><ele>553.25</ele><time>2026-04-11T11:08:50.911Z</time></trkpt><trkpt lat="44.5701661" lon="9.8931513"><ele>556.5</ele><time>2026-04-11T11:08:51.911Z</time></trkpt><trkpt lat="44.5701636" lon="9.8929771"><ele>559.75</ele><time>2026-04-11T11:08:52.911Z</time></trkpt><trkpt lat="44.5701729" lon="9.8928031"><ele>563.0</ele><time>2026-04-11T11:08:53.911Z</time></trkpt><trkpt lat="44.5701858" lon="9.8926314"><ele>564.0</ele><time>2026-04-11T11:08:54.91Z</time></trkpt><trkpt lat="44.5702076" lon="9.8924586"><ele>565.0</ele><time>2026-04-11T11:08:55.911Z</time></trkpt><trkpt lat="44.570242" lon="9.8922936"><ele>566.0</ele><time>2026-04-11T11:08:56.911Z</time></trkpt><trkpt lat="44.5702988" lon="9.8921441"><ele>567.0</ele><time>2026-04-11T11:08:57.911Z</time></trkpt><trkpt lat="44.5703766" lon="9.8920092"><ele>566.5</ele><time>2026-04-11T11:08:58.91Z</time></trkpt><trkpt lat="44.5704654" lon="9.8918903"><ele>566.0</ele><time>2026-04-11T11:08:59.911Z</time></trkpt><trkpt lat="44.5705487" lon="9.8917688"><ele>565.5</ele><time>2026-04-11T11:09:00.911Z</time></trkpt><trkpt lat="44.5706155" lon="9.8916353"><ele>565.0</ele><time>2026-04-11T11:09:01.911Z</time></trkpt><trkpt lat="44.5706636" lon="9.8914901"><ele>565.0</ele><time>2026-04-11T11:09:02.911Z</time></trkpt><trkpt lat="44.5706768" lon="9.8913378"><ele>565.0</ele><time>2026-04-11T11:09:03.912Z</time></trkpt><trkpt lat="44.5706579" lon="9.8911829"><ele>565.0</ele><time>2026-04-11T11:09:04.91Z</time></trkpt><trkpt lat="44.5705991" lon="9.8910361"><ele>565.0</ele><time>2026-04-11T11:09:05.911Z</time></trkpt><trkpt lat="44.5705194" lon="9.8909012"><ele>564.25</ele><time>2026-04-11T11:09:06.911Z</time></trkpt><trkpt lat="44.5704277" lon="9.8907748"><ele>563.5</ele><time>2026-04-11T11:09:07.911Z</time></trkpt><trkpt lat="44.5703328" lon="9.8906513"><ele>562.75</ele><time>2026-04-11T11:09:08.911Z</time></trkpt><trkpt lat="44.5702381" lon="9.8905261"><ele>562.0</ele><time>2026-04-11T11:09:09.911Z</time></trkpt><trkpt lat="44.5701431" lon="9.8903974"><ele>564.25</ele><time>2026-04-11T11:09:10.911Z</time></trkpt><trkpt lat="44.5700492" lon="9.890261"><ele>566.5</ele><time>2026-04-11T11:09:11.911Z</time></trkpt><trkpt lat="44.569966" lon="9.8901132"><ele>568.75</ele><time>2026-04-11T11:09:12.911Z</time></trkpt><trkpt lat="44.5699049" lon="9.8899474"><ele>571.0</ele><time>2026-04-11T11:09:13.91Z</time></trkpt><trkpt lat="44.56986" lon="9.8897703"><ele>571.0</ele><time>2026-04-11T11:09:14.912Z</time></trkpt><trkpt lat="44.5698232" lon="9.8895917"><ele>571.0</ele><time>2026-04-11T11:09:15.911Z</time></trkpt><trkpt lat="44.5697918" lon="9.8894115"><ele>571.0</ele><time>2026-04-11T11:09:16.911Z</time></trkpt><trkpt lat="44.5697608" lon="9.8892275"><ele>571.0</ele><time>2026-04-11T11:09:17.911Z</time></trkpt><trkpt lat="44.5697317" lon="9.8890467"><ele>568.5</ele><time>2026-04-11T11:09:18.911Z</time></trkpt><trkpt lat="44.5697031" lon="9.8888711"><ele>566.0</ele><time>2026-04-11T11:09:19.91Z</time></trkpt><trkpt lat="44.5696669" lon="9.8887062"><ele>563.5</ele><time>2026-04-11T11:09:20.911Z</time></trkpt><trkpt lat="44.5696001" lon="9.8885704"><ele>561.0</ele><time>2026-04-11T11:09:21.91Z</time></trkpt><trkpt lat="44.5695115" lon="9.8884706"><ele>563.3333333333334</ele><time>2026-04-11T11:09:22.911Z</time></trkpt><trkpt lat="44.5693985" lon="9.8884102"><ele>565.6666666666667</ele><time>2026-04-11T11:09:23.91Z</time></trkpt><trkpt lat="44.5691352" lon="9.8883405"><ele>568.0</ele><time>2026-04-11T11:09:25.911Z</time></trkpt><trkpt lat="44.568999" lon="9.8883132"><ele>568.0</ele><time>2026-04-11T11:09:26.912Z</time></trkpt><trkpt lat="44.568858" lon="9.8882847"><ele>568.0</ele><time>2026-04-11T11:09:27.91Z</time></trkpt><trkpt lat="44.5687191" lon="9.8882534"><ele>568.0</ele><time>2026-04-11T11:09:28.911Z</time></trkpt><trkpt lat="44.5685834" lon="9.8882156"><ele>568.0</ele><time>2026-04-11T11:09:29.911Z</time></trkpt><trkpt lat="44.5684518" lon="9.888151"><ele>568.25</ele><time>2026-04-11T11:09:30.911Z</time></trkpt><trkpt lat="44.5683401" lon="9.88805"><ele>568.5</ele><time>2026-04-11T11:09:31.911Z</time></trkpt><trkpt lat="44.5682367" lon="9.8879386"><ele>568.75</ele><time>2026-04-11T11:09:32.911Z</time></trkpt><trkpt lat="44.5681325" lon="9.8878266"><ele>569.0</ele><time>2026-04-11T11:09:33.911Z</time></trkpt><trkpt lat="44.5680504" lon="9.8876886"><ele>566.75</ele><time>2026-04-11T11:09:34.91Z</time></trkpt><trkpt lat="44.5680039" lon="9.8875355"><ele>564.5</ele><time>2026-04-11T11:09:35.91Z</time></trkpt><trkpt lat="44.5679914" lon="9.8873684"><ele>562.25</ele><time>2026-04-11T11:09:36.911Z</time></trkpt><trkpt lat="44.5680021" lon="9.8871941"><ele>560.0</ele><time>2026-04-11T11:09:37.911Z</time></trkpt><trkpt lat="44.5680012" lon="9.8870201"><ele>560.0</ele><time>2026-04-11T11:09:38.911Z</time></trkpt><trkpt lat="44.5679822" lon="9.8868428"><ele>560.0</ele><time>2026-04-11T11:09:39.911Z</time></trkpt><trkpt lat="44.5679432" lon="9.8866709"><ele>560.0</ele><time>2026-04-11T11:09:40.911Z</time></trkpt><trkpt lat="44.5678902" lon="9.8865069"><ele>560.0</ele><time>2026-04-11T11:09:41.91Z</time></trkpt><trkpt lat="44.5678388" lon="9.886354"><ele>560.25</ele><time>2026-04-11T11:09:42.912Z</time></trkpt><trkpt lat="44.5678076" lon="9.886192"><ele>560.5</ele><time>2026-04-11T11:09:43.911Z</time></trkpt><trkpt lat="44.5678136" lon="9.8860337"><ele>560.75</ele><time>2026-04-11T11:09:44.911Z</time></trkpt><trkpt lat="44.5678521" lon="9.8858862"><ele>561.0</ele><time>2026-04-11T11:09:45.911Z</time></trkpt><trkpt lat="44.5679127" lon="9.8857511"><ele>561.0</ele><time>2026-04-11T11:09:46.911Z</time></trkpt><trkpt lat="44.567993" lon="9.8856185"><ele>561.0</ele><time>2026-04-11T11:09:47.911Z</time></trkpt><trkpt lat="44.5680805" lon="9.885491"><ele>561.0</ele><time>2026-04-11T11:09:48.911Z</time></trkpt><trkpt lat="44.5681659" lon="9.8853605"><ele>561.0</ele><time>2026-04-11T11:09:49.911Z</time></trkpt><trkpt lat="44.56825" lon="9.8852323"><ele>561.0</ele><time>2026-04-11T11:09:50.911Z</time></trkpt><trkpt lat="44.5683384" lon="9.8851024"><ele>561.0</ele><time>2026-04-11T11:09:51.911Z</time></trkpt><trkpt lat="44.5684222" lon="9.8849665"><ele>561.0</ele><time>2026-04-11T11:09:52.911Z</time></trkpt><trkpt lat="44.5685057" lon="9.8848344"><ele>561.0</ele><time>2026-04-11T11:09:53.911Z</time></trkpt><trkpt lat="44.5685901" lon="9.884701"><ele>561.25</ele><time>2026-04-11T11:09:54.911Z</time></trkpt><trkpt lat="44.5686755" lon="9.8845645"><ele>561.5</ele><time>2026-04-11T11:09:55.911Z</time></trkpt><trkpt lat="44.568761" lon="9.8844289"><ele>561.75</ele><time>2026-04-11T11:09:56.91Z</time></trkpt><trkpt lat="44.5688377" lon="9.884286"><ele>562.0</ele><time>2026-04-11T11:09:57.911Z</time></trkpt><trkpt lat="44.5689009" lon="9.884136"><ele>562.0</ele><time>2026-04-11T11:09:58.911Z</time></trkpt><trkpt lat="44.5689448" lon="9.8839783"><ele>562.0</ele><time>2026-04-11T11:09:59.91Z</time></trkpt><trkpt lat="44.5689676" lon="9.8838144"><ele>562.0</ele><time>2026-04-11T11:10:00.911Z</time></trkpt><trkpt lat="44.5689692" lon="9.8836446"><ele>562.0</ele><time>2026-04-11T11:10:01.911Z</time></trkpt><trkpt lat="44.568956" lon="9.8834744"><ele>562.75</ele><time>2026-04-11T11:10:02.911Z</time></trkpt><trkpt lat="44.5689391" lon="9.8833006"><ele>563.5</ele><time>2026-04-11T11:10:03.911Z</time></trkpt><trkpt lat="44.5689225" lon="9.8831294"><ele>564.25</ele><time>2026-04-11T11:10:04.911Z</time></trkpt><trkpt lat="44.568908" lon="9.8829603"><ele>565.0</ele><time>2026-04-11T11:10:05.911Z</time></trkpt><trkpt lat="44.568891" lon="9.8827956"><ele>565.0</ele><time>2026-04-11T11:10:06.91Z</time></trkpt><trkpt lat="44.5688781" lon="9.8826302"><ele>565.0</ele><time>2026-04-11T11:10:07.91Z</time></trkpt><trkpt lat="44.5688684" lon="9.8824619"><ele>565.0</ele><time>2026-04-11T11:10:08.911Z</time></trkpt><trkpt lat="44.5688595" lon="9.8822936"><ele>565.0</ele><time>2026-04-11T11:10:09.91Z</time></trkpt><trkpt lat="44.5688423" lon="9.8821281"><ele>565.75</ele><time>2026-04-11T11:10:10.911Z</time></trkpt><trkpt lat="44.568805" lon="9.8819771"><ele>566.5</ele><time>2026-04-11T11:10:11.911Z</time></trkpt><trkpt lat="44.5687441" lon="9.8818399"><ele>567.25</ele><time>2026-04-11T11:10:12.911Z</time></trkpt><trkpt lat="44.5686636" lon="9.8817253"><ele>568.0</ele><time>2026-04-11T11:10:13.911Z</time></trkpt><trkpt lat="44.5685744" lon="9.8816246"><ele>570.75</ele><time>2026-04-11T11:10:14.911Z</time></trkpt><trkpt lat="44.5684817" lon="9.8815247"><ele>573.5</ele><time>2026-04-11T11:10:15.911Z</time></trkpt><trkpt lat="44.5683886" lon="9.8814307"><ele>576.25</ele><time>2026-04-11T11:10:16.91Z</time></trkpt><trkpt lat="44.5682961" lon="9.8813343"><ele>579.0</ele><time>2026-04-11T11:10:17.911Z</time></trkpt><trkpt lat="44.5682035" lon="9.8812351"><ele>579.0</ele><time>2026-04-11T11:10:18.91Z</time></trkpt><trkpt lat="44.5681096" lon="9.8811349"><ele>579.0</ele><time>2026-04-11T11:10:19.911Z</time></trkpt><trkpt lat="44.5680154" lon="9.8810381"><ele>579.0</ele><time>2026-04-11T11:10:20.91Z</time></trkpt><trkpt lat="44.567918" lon="9.8809403"><ele>579.0</ele><time>2026-04-11T11:10:21.911Z</time></trkpt><trkpt lat="44.5678258" lon="9.8808385"><ele>580.5</ele><time>2026-04-11T11:10:22.91Z</time></trkpt><trkpt lat="44.5677331" lon="9.8807318"><ele>582.0</ele><time>2026-04-11T11:10:23.911Z</time></trkpt><trkpt lat="44.5676386" lon="9.8806258"><ele>583.5</ele><time>2026-04-11T11:10:24.911Z</time></trkpt><trkpt lat="44.5675443" lon="9.8805213"><ele>585.0</ele><time>2026-04-11T11:10:25.911Z</time></trkpt><trkpt lat="44.5674476" lon="9.8804206"><ele>585.0</ele><time>2026-04-11T11:10:26.91Z</time></trkpt><trkpt lat="44.5673678" lon="9.8803087"><ele>585.0</ele><time>2026-04-11T11:10:27.911Z</time></trkpt><trkpt lat="44.5673177" lon="9.8801774"><ele>585.0</ele><time>2026-04-11T11:10:28.911Z</time></trkpt><trkpt lat="44.5673097" lon="9.8800352"><ele>585.0</ele><time>2026-04-11T11:10:29.911Z</time></trkpt><trkpt lat="44.5673321" lon="9.8798845"><ele>585.0</ele><time>2026-04-11T11:10:30.911Z</time></trkpt><trkpt lat="44.5673624" lon="9.8797282"><ele>585.25</ele><time>2026-04-11T11:10:31.911Z</time></trkpt><trkpt lat="44.5673948" lon="9.8795646"><ele>585.5</ele><time>2026-04-11T11:10:32.912Z</time></trkpt><trkpt lat="44.5674443" lon="9.8794043"><ele>585.75</ele><time>2026-04-11T11:10:33.911Z</time></trkpt><trkpt lat="44.5675106" lon="9.8792485"><ele>586.0</ele><time>2026-04-11T11:10:34.911Z</time></trkpt><trkpt lat="44.5675865" lon="9.8791015"><ele>586.0</ele><time>2026-04-11T11:10:35.911Z</time></trkpt><trkpt lat="44.5676674" lon="9.8789604"><ele>586.0</ele><time>2026-04-11T11:10:36.911Z</time></trkpt><trkpt lat="44.5677521" lon="9.8788259"><ele>586.0</ele><time>2026-04-11T11:10:37.911Z</time></trkpt><trkpt lat="44.5678403" lon="9.8786935"><ele>586.0</ele><time>2026-04-11T11:10:38.911Z</time></trkpt><trkpt lat="44.5679312" lon="9.8785667"><ele>586.75</ele><time>2026-04-11T11:10:39.911Z</time></trkpt><trkpt lat="44.5680246" lon="9.8784401"><ele>587.5</ele><time>2026-04-11T11:10:40.911Z</time></trkpt><trkpt lat="44.5681229" lon="9.878323"><ele>588.25</ele><time>2026-04-11T11:10:41.911Z</time></trkpt><trkpt lat="44.5682298" lon="9.8782329"><ele>589.0</ele><time>2026-04-11T11:10:42.911Z</time></trkpt><trkpt lat="44.5683451" lon="9.8781719"><ele>589.0</ele><time>2026-04-11T11:10:43.911Z</time></trkpt><trkpt lat="44.56846" lon="9.8781129"><ele>589.0</ele><time>2026-04-11T11:10:44.911Z</time></trkpt><trkpt lat="44.5685711" lon="9.8780403"><ele>589.0</ele><time>2026-04-11T11:10:45.911Z</time></trkpt><trkpt lat="44.568672" lon="9.8779481"><ele>589.0</ele><time>2026-04-11T11:10:46.911Z</time></trkpt><trkpt lat="44.5687562" lon="9.8778288"><ele>589.25</ele><time>2026-04-11T11:10:47.91Z</time></trkpt><trkpt lat="44.5688166" lon="9.8776892"><ele>589.5</ele><time>2026-04-11T11:10:48.911Z</time></trkpt><trkpt lat="44.568857" lon="9.8775325"><ele>589.75</ele><time>2026-04-11T11:10:49.911Z</time></trkpt><trkpt lat="44.5688756" lon="9.8773665"><ele>590.0</ele><time>2026-04-11T11:10:50.911Z</time></trkpt><trkpt lat="44.5688777" lon="9.8771974"><ele>590.0</ele><time>2026-04-11T11:10:51.91Z</time></trkpt><trkpt lat="44.5688546" lon="9.8770358"><ele>590.0</ele><time>2026-04-11T11:10:52.912Z</time></trkpt><trkpt lat="44.5688024" lon="9.8768887"><ele>590.0</ele><time>2026-04-11T11:10:53.912Z</time></trkpt><trkpt lat="44.56873" lon="9.8767751"><ele>590.0</ele><time>2026-04-11T11:10:54.911Z</time></trkpt><trkpt lat="44.5686436" lon="9.8766896"><ele>590.0</ele><time>2026-04-11T11:10:55.91Z</time></trkpt><trkpt lat="44.5685539" lon="9.8766165"><ele>592.2</ele><time>2026-04-11T11:10:56.911Z</time></trkpt><trkpt lat="44.5684717" lon="9.8765383"><ele>594.4</ele><time>2026-04-11T11:10:57.911Z</time></trkpt><trkpt lat="44.568399" lon="9.8764834"><ele>596.6</ele><time>2026-04-11T11:10:58.911Z</time></trkpt><trkpt lat="44.5682988" lon="9.876486"><ele>598.8</ele><time>2026-04-11T11:11:00.91Z</time></trkpt><trkpt lat="44.5682822" lon="9.8765756"><ele>601.0</ele><time>2026-04-11T11:11:02.911Z</time></trkpt><trkpt lat="44.5683678" lon="9.8766954"><ele>600.8571428571428</ele><time>2026-04-11T11:11:04.911Z</time></trkpt><trkpt lat="44.5684055" lon="9.8767865"><ele>600.7142857142858</ele><time>2026-04-11T11:11:05.911Z</time></trkpt><trkpt lat="44.5684188" lon="9.8768936"><ele>600.5714285714286</ele><time>2026-04-11T11:11:06.911Z</time></trkpt><trkpt lat="44.5684051" lon="9.8770005"><ele>600.4285714285713</ele><time>2026-04-11T11:11:07.911Z</time></trkpt><trkpt lat="44.5683648" lon="9.8770841"><ele>600.2857142857142</ele><time>2026-04-11T11:11:08.911Z</time></trkpt><trkpt lat="44.5683103" lon="9.8771317"><ele>600.1428571428571</ele><time>2026-04-11T11:11:09.911Z</time></trkpt><trkpt lat="44.5682455" lon="9.8771555"><ele>600.0</ele><time>2026-04-11T11:11:10.911Z</time></trkpt><trkpt lat="44.5681701" lon="9.8771522"><ele>600.0</ele><time>2026-04-11T11:11:11.911Z</time></trkpt><trkpt lat="44.5681009" lon="9.8771072"><ele>600.0</ele><time>2026-04-11T11:11:12.911Z</time></trkpt><trkpt lat="44.5680416" lon="9.8770282"><ele>600.0</ele><time>2026-04-11T11:11:13.911Z</time></trkpt><trkpt lat="44.5679894" lon="9.8769325"><ele>600.0</ele><time>2026-04-11T11:11:14.91Z</time></trkpt><trkpt lat="44.5679415" lon="9.8768217"><ele>600.0</ele><time>2026-04-11T11:11:15.911Z</time></trkpt><trkpt lat="44.5678919" lon="9.876704"><ele>600.0</ele><time>2026-04-11T11:11:16.911Z</time></trkpt><trkpt lat="44.5678385" lon="9.8765823"><ele>603.2</ele><time>2026-04-11T11:11:17.911Z</time></trkpt><trkpt lat="44.5677868" lon="9.876456"><ele>606.4</ele><time>2026-04-11T11:11:18.91Z</time></trkpt><trkpt lat="44.5677318" lon="9.8763321"><ele>609.6</ele><time>2026-04-11T11:11:19.911Z</time></trkpt><trkpt lat="44.5676721" lon="9.8762128"><ele>612.8</ele><time>2026-04-11T11:11:20.911Z</time></trkpt><trkpt lat="44.5676103" lon="9.876091"><ele>616.0</ele><time>2026-04-11T11:11:21.911Z</time></trkpt><trkpt lat="44.5675552" lon="9.8759677"><ele>615.8333333333334</ele><time>2026-04-11T11:11:22.911Z</time></trkpt><trkpt lat="44.5675161" lon="9.8758301"><ele>615.6666666666667</ele><time>2026-04-11T11:11:23.911Z</time></trkpt><trkpt lat="44.5674905" lon="9.875689"><ele>615.5</ele><time>2026-04-11T11:11:24.911Z</time></trkpt><trkpt lat="44.5674649" lon="9.8755687"><ele>615.3333333333334</ele><time>2026-04-11T11:11:25.912Z</time></trkpt><trkpt lat="44.5674281" lon="9.8754657"><ele>615.1666666666666</ele><time>2026-04-11T11:11:26.91Z</time></trkpt><trkpt lat="44.5673797" lon="9.8754065"><ele>615.0</ele><time>2026-04-11T11:11:27.911Z</time></trkpt><trkpt lat="44.56729" lon="9.8754349"><ele>615.0</ele><time>2026-04-11T11:11:29.911Z</time></trkpt><trkpt lat="44.5672711" lon="9.8755211"><ele>615.0</ele><time>2026-04-11T11:11:30.911Z</time></trkpt><trkpt lat="44.5672809" lon="9.8756124"><ele>615.0</ele><time>2026-04-11T11:11:31.911Z</time></trkpt><trkpt lat="44.5672946" lon="9.8757243"><ele>615.0</ele><time>2026-04-11T11:11:32.91Z</time></trkpt><trkpt lat="44.5672922" lon="9.8758453"><ele>615.0</ele><time>2026-04-11T11:11:33.911Z</time></trkpt><trkpt lat="44.5672805" lon="9.8759707"><ele>615.0</ele><time>2026-04-11T11:11:34.911Z</time></trkpt><trkpt lat="44.5672728" lon="9.8761035"><ele>615.2</ele><time>2026-04-11T11:11:35.911Z</time></trkpt><trkpt lat="44.5672695" lon="9.8762385"><ele>615.4</ele><time>2026-04-11T11:11:36.911Z</time></trkpt><trkpt lat="44.5672637" lon="9.8763588"><ele>615.6</ele><time>2026-04-11T11:11:37.911Z</time></trkpt><trkpt lat="44.5672387" lon="9.8764611"><ele>615.8</ele><time>2026-04-11T11:11:38.911Z</time></trkpt><trkpt lat="44.5671418" lon="9.876517"><ele>616.0</ele><time>2026-04-11T11:11:40.911Z</time></trkpt><trkpt lat="44.5670702" lon="9.8763859"><ele>616.0</ele><time>2026-04-11T11:11:42.911Z</time></trkpt><trkpt lat="44.5670466" lon="9.8762857"><ele>616.0</ele><time>2026-04-11T11:11:43.91Z</time></trkpt><trkpt lat="44.5670297" lon="9.8761668"><ele>616.0</ele><time>2026-04-11T11:11:44.911Z</time></trkpt><trkpt lat="44.5670006" lon="9.8760479"><ele>616.0</ele><time>2026-04-11T11:11:45.911Z</time></trkpt><trkpt lat="44.5669628" lon="9.8759271"><ele>616.0</ele><time>2026-04-11T11:11:46.911Z</time></trkpt><trkpt lat="44.5669183" lon="9.8758092"><ele>616.0</ele><time>2026-04-11T11:11:47.911Z</time></trkpt><trkpt lat="44.5668631" lon="9.8757042"><ele>619.1666666666667</ele><time>2026-04-11T11:11:48.911Z</time></trkpt><trkpt lat="44.566797" lon="9.8756111"><ele>622.3333333333334</ele><time>2026-04-11T11:11:49.91Z</time></trkpt><trkpt lat="44.5667267" lon="9.8755372"><ele>625.5</ele><time>2026-04-11T11:11:50.912Z</time></trkpt><trkpt lat="44.5666461" lon="9.8754774"><ele>628.6666666666666</ele><time>2026-04-11T11:11:51.911Z</time></trkpt><trkpt lat="44.566561" lon="9.8754399"><ele>631.8333333333333</ele><time>2026-04-11T11:11:52.91Z</time></trkpt><trkpt lat="44.5664771" lon="9.8754351"><ele>635.0</ele><time>2026-04-11T11:11:53.911Z</time></trkpt><trkpt lat="44.5663987" lon="9.8754689"><ele>635.0</ele><time>2026-04-11T11:11:54.91Z</time></trkpt><trkpt lat="44.5663306" lon="9.8755395"><ele>635.0</ele><time>2026-04-11T11:11:55.911Z</time></trkpt><trkpt lat="44.5662711" lon="9.8756319"><ele>635.0</ele><time>2026-04-11T11:11:56.91Z</time></trkpt><trkpt lat="44.5662317" lon="9.8757421"><ele>635.0</ele><time>2026-04-11T11:11:57.911Z</time></trkpt><trkpt lat="44.5662074" lon="9.8758615"><ele>635.0</ele><time>2026-04-11T11:11:58.91Z</time></trkpt><trkpt lat="44.5661954" lon="9.8759855"><ele>635.0</ele><time>2026-04-11T11:11:59.91Z</time></trkpt><trkpt lat="44.5661816" lon="9.8761086"><ele>636.8333333333333</ele><time>2026-04-11T11:12:00.911Z</time></trkpt><trkpt lat="44.5661489" lon="9.8762331"><ele>638.6666666666666</ele><time>2026-04-11T11:12:01.911Z</time></trkpt><trkpt lat="44.5661051" lon="9.8763486"><ele>640.5</ele><time>2026-04-11T11:12:02.912Z</time></trkpt><trkpt lat="44.5660507" lon="9.8764348"><ele>642.3333333333334</ele><time>2026-04-11T11:12:03.911Z</time></trkpt><trkpt lat="44.5659883" lon="9.87647"><ele>644.1666666666667</ele><time>2026-04-11T11:12:04.911Z</time></trkpt><trkpt lat="44.5659004" lon="9.8763969"><ele>646.0</ele><time>2026-04-11T11:12:06.91Z</time></trkpt><trkpt lat="44.5658864" lon="9.8763051"><ele>646.0</ele><time>2026-04-11T11:12:07.911Z</time></trkpt><trkpt lat="44.5658624" lon="9.8762113"><ele>646.0</ele><time>2026-04-11T11:12:08.911Z</time></trkpt><trkpt lat="44.5658127" lon="9.8761383"><ele>646.0</ele><time>2026-04-11T11:12:09.911Z</time></trkpt><trkpt lat="44.5657705" lon="9.8760614"><ele>646.0</ele><time>2026-04-11T11:12:10.911Z</time></trkpt><trkpt lat="44.5657502" lon="9.8759623"><ele>646.0</ele><time>2026-04-11T11:12:11.911Z</time></trkpt><trkpt lat="44.5657292" lon="9.8758575"><ele>646.0</ele><time>2026-04-11T11:12:12.911Z</time></trkpt><trkpt lat="44.5656865" lon="9.87575"><ele>646.5999999999999</ele><time>2026-04-11T11:12:13.91Z</time></trkpt><trkpt lat="44.5656465" lon="9.8756311"><ele>647.2</ele><time>2026-04-11T11:12:14.911Z</time></trkpt><trkpt lat="44.5656115" lon="9.875508"><ele>647.8</ele><time>2026-04-11T11:12:15.911Z</time></trkpt><trkpt lat="44.5655803" lon="9.8753831"><ele>648.4000000000001</ele><time>2026-04-11T11:12:16.911Z</time></trkpt><trkpt lat="44.565544" lon="9.8752537"><ele>649.0</ele><time>2026-04-11T11:12:17.912Z</time></trkpt><trkpt lat="44.5654947" lon="9.8751397"><ele>648.3333333333334</ele><time>2026-04-11T11:12:18.91Z</time></trkpt><trkpt lat="44.5654282" lon="9.8750528"><ele>647.6666666666667</ele><time>2026-04-11T11:12:19.911Z</time></trkpt><trkpt lat="44.5653548" lon="9.8749916"><ele>647.0</ele><time>2026-04-11T11:12:20.911Z</time></trkpt><trkpt lat="44.5652759" lon="9.8749687"><ele>646.3333333333334</ele><time>2026-04-11T11:12:21.91Z</time></trkpt><trkpt lat="44.5651891" lon="9.8749799"><ele>645.6666666666666</ele><time>2026-04-11T11:12:22.911Z</time></trkpt><trkpt lat="44.5650977" lon="9.8750144"><ele>645.0</ele><time>2026-04-11T11:12:23.91Z</time></trkpt><trkpt lat="44.5650068" lon="9.8750678"><ele>646.6666666666666</ele><time>2026-04-11T11:12:24.911Z</time></trkpt><trkpt lat="44.5649133" lon="9.8751292"><ele>648.3333333333334</ele><time>2026-04-11T11:12:25.911Z</time></trkpt><trkpt lat="44.5648272" lon="9.8751856"><ele>650.0</ele><time>2026-04-11T11:12:26.911Z</time></trkpt><trkpt lat="44.5647666" lon="9.8752294"><ele>651.6666666666667</ele><time>2026-04-11T11:12:27.911Z</time></trkpt><trkpt lat="44.5646976" lon="9.8752773"><ele>653.3333333333334</ele><time>2026-04-11T11:12:29.911Z</time></trkpt><trkpt lat="44.564669" lon="9.8751836"><ele>655.0</ele><time>2026-04-11T11:14:07.911Z</time></trkpt><trkpt lat="44.564624" lon="9.8750706"><ele>655.4</ele><time>2026-04-11T11:14:09.911Z</time></trkpt><trkpt lat="44.5646163" lon="9.8749714"><ele>655.8</ele><time>2026-04-11T11:14:10.91Z</time></trkpt><trkpt lat="44.5646067" lon="9.8748397"><ele>656.2</ele><time>2026-04-11T11:14:12.911Z</time></trkpt><trkpt lat="44.5645983" lon="9.8746932"><ele>656.6</ele><time>2026-04-11T11:14:14.91Z</time></trkpt><trkpt lat="44.5645844" lon="9.8745655"><ele>657.0</ele><time>2026-04-11T11:14:16.911Z</time></trkpt><trkpt lat="44.5645279" lon="9.8744338"><ele>659.8333333333334</ele><time>2026-04-11T11:14:18.911Z</time></trkpt><trkpt lat="44.5644354" lon="9.8743645"><ele>662.6666666666666</ele><time>2026-04-11T11:14:20.91Z</time></trkpt><trkpt lat="44.5643421" lon="9.8743285"><ele>665.5</ele><time>2026-04-11T11:14:22.91Z</time></trkpt><trkpt lat="44.564245" lon="9.8743292"><ele>668.3333333333333</ele><time>2026-04-11T11:14:24.911Z</time></trkpt><trkpt lat="44.5641758" lon="9.8742733"><ele>671.1666666666666</ele><time>2026-04-11T11:14:26.911Z</time></trkpt><trkpt lat="44.5641218" lon="9.8742206"><ele>674.0</ele><time>2026-04-11T11:14:28.91Z</time></trkpt><trkpt lat="44.5641282" lon="9.8740929"><ele>674.0</ele><time>2026-04-11T11:14:30.91Z</time></trkpt><trkpt lat="44.5641018" lon="9.8739611"><ele>674.0</ele><time>2026-04-11T11:14:32.911Z</time></trkpt><trkpt lat="44.564041" lon="9.8738428"><ele>674.0</ele><time>2026-04-11T11:14:34.91Z</time></trkpt><trkpt lat="44.5639637" lon="9.8737299"><ele>674.0</ele><time>2026-04-11T11:14:36.911Z</time></trkpt><trkpt lat="44.5639294" lon="9.8736253"><ele>674.0</ele><time>2026-04-11T11:14:38.911Z</time></trkpt><trkpt lat="44.5638539" lon="9.8735151"><ele>675.0</ele><time>2026-04-11T11:14:40.911Z</time></trkpt><trkpt lat="44.5637974" lon="9.8733739"><ele>676.0</ele><time>2026-04-11T11:14:42.91Z</time></trkpt><trkpt lat="44.5637723" lon="9.8731966"><ele>677.0</ele><time>2026-04-11T11:14:44.911Z</time></trkpt><trkpt lat="44.5637531" lon="9.8730982"><ele>678.0</ele><time>2026-04-11T11:14:45.91Z</time></trkpt><trkpt lat="44.5637471" lon="9.8730061"><ele>679.0</ele><time>2026-04-11T11:14:46.91Z</time></trkpt><trkpt lat="44.5637495" lon="9.8728715"><ele>679.0</ele><time>2026-04-11T11:14:48.91Z</time></trkpt><trkpt lat="44.5637511" lon="9.8727185"><ele>679.0</ele><time>2026-04-11T11:14:50.91Z</time></trkpt><trkpt lat="44.5637879" lon="9.872543"><ele>679.0</ele><time>2026-04-11T11:14:52.91Z</time></trkpt><trkpt lat="44.5638015" lon="9.872377"><ele>679.0</ele><time>2026-04-11T11:14:54.909Z</time></trkpt><trkpt lat="44.563759" lon="9.8722569"><ele>679.8000000000001</ele><time>2026-04-11T11:14:56.909Z</time></trkpt><trkpt lat="44.5637288" lon="9.8721782"><ele>680.6</ele><time>2026-04-11T11:14:57.91Z</time></trkpt><trkpt lat="44.5636496" lon="9.8720688"><ele>681.4</ele><time>2026-04-11T11:14:59.91Z</time></trkpt><trkpt lat="44.5635763" lon="9.8719632"><ele>682.2</ele><time>2026-04-11T11:15:01.91Z</time></trkpt><trkpt lat="44.5635033" lon="9.8718164"><ele>683.0</ele><time>2026-04-11T11:15:03.909Z</time></trkpt><trkpt lat="44.563462" lon="9.8717343"><ele>686.5</ele><time>2026-04-11T11:15:04.91Z</time></trkpt><trkpt lat="44.5634296" lon="9.8716465"><ele>690.0</ele><time>2026-04-11T11:15:05.91Z</time></trkpt><trkpt lat="44.5633845" lon="9.8715757"><ele>693.5</ele><time>2026-04-11T11:15:06.91Z</time></trkpt><trkpt lat="44.5633499" lon="9.8714979"><ele>697.0</ele><time>2026-04-11T11:15:07.909Z</time></trkpt><trkpt lat="44.5632807" lon="9.8713642"><ele>700.5</ele><time>2026-04-11T11:15:09.91Z</time></trkpt><trkpt lat="44.5632377" lon="9.8712788"><ele>704.0</ele><time>2026-04-11T11:15:10.91Z</time></trkpt><trkpt lat="44.5631959" lon="9.8711751"><ele>704.0</ele><time>2026-04-11T11:15:11.91Z</time></trkpt><trkpt lat="44.5631676" lon="9.871085"><ele>704.0</ele><time>2026-04-11T11:15:12.91Z</time></trkpt><trkpt lat="44.5631509" lon="9.8709142"><ele>704.0</ele><time>2026-04-11T11:15:14.91Z</time></trkpt><trkpt lat="44.5631564" lon="9.8708176"><ele>704.0</ele><time>2026-04-11T11:15:15.91Z</time></trkpt><trkpt lat="44.5631526" lon="9.8707293"><ele>704.0</ele><time>2026-04-11T11:15:16.91Z</time></trkpt><trkpt lat="44.5631247" lon="9.8705485"><ele>704.8333333333333</ele><time>2026-04-11T11:15:18.909Z</time></trkpt><trkpt lat="44.5631552" lon="9.8704434"><ele>705.6666666666666</ele><time>2026-04-11T11:15:19.91Z</time></trkpt><trkpt lat="44.5631702" lon="9.8703464"><ele>706.5</ele><time>2026-04-11T11:15:20.909Z</time></trkpt><trkpt lat="44.5632047" lon="9.8702428"><ele>707.3333333333334</ele><time>2026-04-11T11:15:21.91Z</time></trkpt><trkpt lat="44.5632527" lon="9.8701289"><ele>708.1666666666667</ele><time>2026-04-11T11:15:22.91Z</time></trkpt><trkpt lat="44.5633142" lon="9.8700206"><ele>709.0</ele><time>2026-04-11T11:15:23.91Z</time></trkpt><trkpt lat="44.5633225" lon="9.8698921"><ele>709.6</ele><time>2026-04-11T11:15:25.91Z</time></trkpt><trkpt lat="44.5632181" lon="9.8697679"><ele>710.2</ele><time>2026-04-11T11:15:27.909Z</time></trkpt><trkpt lat="44.5631348" lon="9.8697256"><ele>710.8000000000001</ele><time>2026-04-11T11:15:28.91Z</time></trkpt><trkpt lat="44.5630539" lon="9.8696943"><ele>711.4000000000001</ele><time>2026-04-11T11:15:29.909Z</time></trkpt><trkpt lat="44.5629622" lon="9.8696571"><ele>712.0</ele><time>2026-04-11T11:15:30.91Z</time></trkpt><trkpt lat="44.5628764" lon="9.8696215"><ele>716.6</ele><time>2026-04-11T11:15:31.909Z</time></trkpt><trkpt lat="44.5628079" lon="9.8695811"><ele>721.2</ele><time>2026-04-11T11:15:32.91Z</time></trkpt><trkpt lat="44.5627358" lon="9.8695521"><ele>725.8</ele><time>2026-04-11T11:15:33.909Z</time></trkpt><trkpt lat="44.5625986" lon="9.8696109"><ele>730.4</ele><time>2026-04-11T11:15:35.909Z</time></trkpt><trkpt lat="44.5625285" lon="9.8696495"><ele>735.0</ele><time>2026-04-11T11:15:36.909Z</time></trkpt><trkpt lat="44.5624012" lon="9.8696522"><ele>735.0</ele><time>2026-04-11T11:15:38.909Z</time></trkpt><trkpt lat="44.5623377" lon="9.8695805"><ele>735.0</ele><time>2026-04-11T11:15:39.909Z</time></trkpt><trkpt lat="44.5622349" lon="9.8695669"><ele>735.0</ele><time>2026-04-11T11:15:41.91Z</time></trkpt><trkpt lat="44.5621023" lon="9.8695503"><ele>735.0</ele><time>2026-04-11T11:15:43.91Z</time></trkpt><trkpt lat="44.5620385" lon="9.869516"><ele>735.0</ele><time>2026-04-11T11:15:44.91Z</time></trkpt><trkpt lat="44.5619862" lon="9.8694198"><ele>735.0</ele><time>2026-04-11T11:15:45.91Z</time></trkpt><trkpt lat="44.5619296" lon="9.8693372"><ele>735.0</ele><time>2026-04-11T11:15:46.91Z</time></trkpt><trkpt lat="44.5618772" lon="9.8692761"><ele>735.0</ele><time>2026-04-11T11:15:47.91Z</time></trkpt><trkpt lat="44.5618352" lon="9.8691637"><ele>735.0</ele><time>2026-04-11T11:15:49.909Z</time></trkpt><trkpt lat="44.5618999" lon="9.8690647"><ele>735.0</ele><time>2026-04-11T11:15:53.909Z</time></trkpt><trkpt lat="44.5619464" lon="9.8689495"><ele>735.0</ele><time>2026-04-11T11:16:25.91Z</time></trkpt><trkpt lat="44.5619569" lon="9.8688438"><ele>735.0</ele><time>2026-04-11T11:16:26.909Z</time></trkpt><trkpt lat="44.5620113" lon="9.8687303"><ele>735.0</ele><time>2026-04-11T11:16:27.91Z</time></trkpt><trkpt lat="44.5620528" lon="9.8686322"><ele>735.0</ele><time>2026-04-11T11:16:28.909Z</time></trkpt><trkpt lat="44.5620917" lon="9.8685208"><ele>735.0</ele><time>2026-04-11T11:16:29.911Z</time></trkpt><trkpt lat="44.56211" lon="9.8684347"><ele>735.0</ele><time>2026-04-11T11:16:30.91Z</time></trkpt><trkpt lat="44.5621478" lon="9.8683066"><ele>735.0</ele><time>2026-04-11T11:16:32.91Z</time></trkpt><trkpt lat="44.5622191" lon="9.8682534"><ele>732.6</ele><time>2026-04-11T11:16:34.91Z</time></trkpt><trkpt lat="44.5622857" lon="9.8682282"><ele>730.2</ele><time>2026-04-11T11:16:35.91Z</time></trkpt><trkpt lat="44.5623843" lon="9.8681559"><ele>727.8</ele><time>2026-04-11T11:16:37.91Z</time></trkpt><trkpt lat="44.5624633" lon="9.8679982"><ele>725.4</ele><time>2026-04-11T11:16:39.911Z</time></trkpt><trkpt lat="44.5625026" lon="9.8679107"><ele>723.0</ele><time>2026-04-11T11:16:40.91Z</time></trkpt><trkpt lat="44.5625437" lon="9.8677669"><ele>723.0</ele><time>2026-04-11T11:16:41.91Z</time></trkpt><trkpt lat="44.5625923" lon="9.8676319"><ele>723.0</ele><time>2026-04-11T11:16:42.909Z</time></trkpt><trkpt lat="44.5626164" lon="9.8674969"><ele>723.0</ele><time>2026-04-11T11:16:43.91Z</time></trkpt><trkpt lat="44.5626573" lon="9.8673776"><ele>723.0</ele><time>2026-04-11T11:16:44.91Z</time></trkpt><trkpt lat="44.5626861" lon="9.8672679"><ele>723.0</ele><time>2026-04-11T11:16:45.91Z</time></trkpt><trkpt lat="44.5627145" lon="9.8671761"><ele>727.5999999999999</ele><time>2026-04-11T11:16:46.91Z</time></trkpt><trkpt lat="44.5627231" lon="9.8670684"><ele>732.1999999999999</ele><time>2026-04-11T11:16:47.91Z</time></trkpt><trkpt lat="44.5627451" lon="9.8669633"><ele>736.8</ele><time>2026-04-11T11:16:48.91Z</time></trkpt><trkpt lat="44.5627492" lon="9.8668043"><ele>741.4</ele><time>2026-04-11T11:16:49.91Z</time></trkpt><trkpt lat="44.562752" lon="9.8665974"><ele>746.0</ele><time>2026-04-11T11:16:51.909Z</time></trkpt><trkpt lat="44.5627658" lon="9.8664269"><ele>747.4</ele><time>2026-04-11T11:16:53.909Z</time></trkpt><trkpt lat="44.5627763" lon="9.8663379"><ele>748.8</ele><time>2026-04-11T11:16:54.909Z</time></trkpt><trkpt lat="44.5627395" lon="9.8661665"><ele>750.1999999999999</ele><time>2026-04-11T11:16:56.909Z</time></trkpt><trkpt lat="44.5626731" lon="9.8660496"><ele>751.5999999999999</ele><time>2026-04-11T11:16:58.91Z</time></trkpt><trkpt lat="44.5625789" lon="9.8659927"><ele>753.0</ele><time>2026-04-11T11:17:00.91Z</time></trkpt><trkpt lat="44.5624935" lon="9.865951"><ele>753.0</ele><time>2026-04-11T11:17:02.909Z</time></trkpt><trkpt lat="44.5624125" lon="9.8659157"><ele>753.0</ele><time>2026-04-11T11:17:04.909Z</time></trkpt><trkpt lat="44.5623463" lon="9.8659074"><ele>753.0</ele><time>2026-04-11T11:17:06.909Z</time></trkpt><trkpt lat="44.5622885" lon="9.8659503"><ele>753.0</ele><time>2026-04-11T11:17:52.91Z</time></trkpt><trkpt lat="44.5622007" lon="9.8659477"><ele>753.0</ele><time>2026-04-11T11:17:56.91Z</time></trkpt><trkpt lat="44.5621171" lon="9.8658574"><ele>753.0</ele><time>2026-04-11T11:17:58.91Z</time></trkpt><trkpt lat="44.5620368" lon="9.8657798"><ele>750.5999999999999</ele><time>2026-04-11T11:18:00.91Z</time></trkpt><trkpt lat="44.5619349" lon="9.8656999"><ele>748.1999999999999</ele><time>2026-04-11T11:18:02.911Z</time></trkpt><trkpt lat="44.5618267" lon="9.8656961"><ele>745.8</ele><time>2026-04-11T11:18:04.91Z</time></trkpt><trkpt lat="44.5617197" lon="9.8657171"><ele>743.4</ele><time>2026-04-11T11:18:06.91Z</time></trkpt><trkpt lat="44.5616202" lon="9.8657303"><ele>741.0</ele><time>2026-04-11T11:18:08.91Z</time></trkpt><trkpt lat="44.5615554" lon="9.8657361"><ele>741.0</ele><time>2026-04-11T11:18:09.91Z</time></trkpt><trkpt lat="44.5614352" lon="9.8657576"><ele>741.0</ele><time>2026-04-11T11:18:11.91Z</time></trkpt><trkpt lat="44.5613629" lon="9.8657847"><ele>741.0</ele><time>2026-04-11T11:18:12.91Z</time></trkpt><trkpt lat="44.5612637" lon="9.8658175"><ele>741.0</ele><time>2026-04-11T11:18:14.91Z</time></trkpt><trkpt lat="44.5611881" lon="9.8657377"><ele>741.0</ele><time>2026-04-11T11:18:16.91Z</time></trkpt><trkpt lat="44.5611162" lon="9.8656434"><ele>742.1999999999999</ele><time>2026-04-11T11:18:18.91Z</time></trkpt><trkpt lat="44.5610355" lon="9.8655419"><ele>743.4</ele><time>2026-04-11T11:18:20.91Z</time></trkpt><trkpt lat="44.5610004" lon="9.8654299"><ele>744.6</ele><time>2026-04-11T11:18:23.91Z</time></trkpt><trkpt lat="44.5609605" lon="9.8653451"><ele>745.8</ele><time>2026-04-11T11:18:25.91Z</time></trkpt><trkpt lat="44.5609046" lon="9.8652315"><ele>747.0</ele><time>2026-04-11T11:18:27.91Z</time></trkpt><trkpt lat="44.5608478" lon="9.865131"><ele>745.0</ele><time>2026-04-11T11:18:29.909Z</time></trkpt><trkpt lat="44.5608191" lon="9.865016"><ele>743.0</ele><time>2026-04-11T11:18:32.91Z</time></trkpt><trkpt lat="44.5607698" lon="9.8649272"><ele>741.0</ele><time>2026-04-11T11:18:36.909Z</time></trkpt><trkpt lat="44.5607208" lon="9.8648496"><ele>739.0</ele><time>2026-04-11T11:18:38.91Z</time></trkpt><trkpt lat="44.560706" lon="9.864743"><ele>737.0</ele><time>2026-04-11T11:18:40.91Z</time></trkpt><trkpt lat="44.5607203" lon="9.864626"><ele>735.0</ele><time>2026-04-11T11:18:41.91Z</time></trkpt><trkpt lat="44.5606727" lon="9.8645355"><ele>735.0</ele><time>2026-04-11T11:18:43.909Z</time></trkpt><trkpt lat="44.5606359" lon="9.864456"><ele>735.0</ele><time>2026-04-11T11:18:44.909Z</time></trkpt><trkpt lat="44.5605716" lon="9.8642972"><ele>735.0</ele><time>2026-04-11T11:18:46.909Z</time></trkpt><trkpt lat="44.5605415" lon="9.8642163"><ele>735.0</ele><time>2026-04-11T11:18:47.909Z</time></trkpt><trkpt lat="44.5605045" lon="9.864131"><ele>735.0</ele><time>2026-04-11T11:18:48.909Z</time></trkpt><trkpt lat="44.5604663" lon="9.8640334"><ele>735.0</ele><time>2026-04-11T11:18:49.91Z</time></trkpt><trkpt lat="44.5604622" lon="9.8639181"><ele>733.8</ele><time>2026-04-11T11:18:50.91Z</time></trkpt><trkpt lat="44.5604668" lon="9.8637967"><ele>732.6</ele><time>2026-04-11T11:18:52.91Z</time></trkpt><trkpt lat="44.5604523" lon="9.8636815"><ele>731.4000000000001</ele><time>2026-04-11T11:18:54.91Z</time></trkpt><trkpt lat="44.5604079" lon="9.8635745"><ele>730.2</ele><time>2026-04-11T11:18:56.911Z</time></trkpt><trkpt lat="44.5603589" lon="9.8634768"><ele>729.0</ele><time>2026-04-11T11:18:58.91Z</time></trkpt><trkpt lat="44.5602673" lon="9.8633843"><ele>733.0</ele><time>2026-04-11T11:19:00.91Z</time></trkpt><trkpt lat="44.5602031" lon="9.8632774"><ele>737.0</ele><time>2026-04-11T11:19:02.911Z</time></trkpt><trkpt lat="44.5601551" lon="9.8632141"><ele>741.0</ele><time>2026-04-11T11:19:03.91Z</time></trkpt><trkpt lat="44.5601076" lon="9.8631549"><ele>745.0</ele><time>2026-04-11T11:19:04.911Z</time></trkpt><trkpt lat="44.5600273" lon="9.8630385"><ele>749.0</ele><time>2026-04-11T11:19:06.91Z</time></trkpt><trkpt lat="44.5599689" lon="9.8629414"><ele>753.0</ele><time>2026-04-11T11:19:08.91Z</time></trkpt><trkpt lat="44.5599055" lon="9.862826"><ele>753.0</ele><time>2026-04-11T11:19:10.909Z</time></trkpt><trkpt lat="44.5598886" lon="9.8626929"><ele>753.0</ele><time>2026-04-11T11:19:12.91Z</time></trkpt><trkpt lat="44.5598793" lon="9.8625762"><ele>753.0</ele><time>2026-04-11T11:19:14.909Z</time></trkpt><trkpt lat="44.5599289" lon="9.8624703"><ele>753.0</ele><time>2026-04-11T11:19:16.91Z</time></trkpt><trkpt lat="44.5599606" lon="9.8623802"><ele>753.0</ele><time>2026-04-11T11:19:18.91Z</time></trkpt><trkpt lat="44.5599804" lon="9.8622895"><ele>753.0</ele><time>2026-04-11T11:19:20.909Z</time></trkpt><trkpt lat="44.5600242" lon="9.862189"><ele>753.0</ele><time>2026-04-11T11:19:22.909Z</time></trkpt><trkpt lat="44.560091" lon="9.8621185"><ele>753.0</ele><time>2026-04-11T11:19:24.909Z</time></trkpt><trkpt lat="44.5601617" lon="9.8621025"><ele>753.0</ele><time>2026-04-11T11:19:25.91Z</time></trkpt><trkpt lat="44.5602416" lon="9.8620759"><ele>753.0</ele><time>2026-04-11T11:19:27.911Z</time></trkpt><trkpt lat="44.5602781" lon="9.8620018"><ele>753.0</ele><time>2026-04-11T11:19:29.91Z</time></trkpt><trkpt lat="44.560263" lon="9.8618963"><ele>753.0</ele><time>2026-04-11T11:19:32.91Z</time></trkpt><trkpt lat="44.5602101" lon="9.8617761"><ele>753.0</ele><time>2026-04-11T11:19:34.909Z</time></trkpt><trkpt lat="44.5601807" lon="9.8616962"><ele>753.0</ele><time>2026-04-11T11:19:35.909Z</time></trkpt><trkpt lat="44.560127" lon="9.861539"><ele>753.0</ele><time>2026-04-11T11:19:37.909Z</time></trkpt><trkpt lat="44.5601024" lon="9.8614527"><ele>753.0</ele><time>2026-04-11T11:19:38.91Z</time></trkpt><trkpt lat="44.5600854" lon="9.8613534"><ele>753.0</ele><time>2026-04-11T11:19:39.91Z</time></trkpt><trkpt lat="44.5600745" lon="9.861245"><ele>753.0</ele><time>2026-04-11T11:19:40.91Z</time></trkpt><trkpt lat="44.5600656" lon="9.8611373"><ele>753.0</ele><time>2026-04-11T11:19:41.91Z</time></trkpt><trkpt lat="44.5600525" lon="9.8610346"><ele>753.0</ele><time>2026-04-11T11:19:42.91Z</time></trkpt><trkpt lat="44.5599859" lon="9.8608835"><ele>753.0</ele><time>2026-04-11T11:19:44.91Z</time></trkpt><trkpt lat="44.5599396" lon="9.8608134"><ele>753.0</ele><time>2026-04-11T11:19:45.91Z</time></trkpt><trkpt lat="44.5598953" lon="9.8607427"><ele>753.0</ele><time>2026-04-11T11:19:46.91Z</time></trkpt><trkpt lat="44.5597872" lon="9.8607075"><ele>753.0</ele><time>2026-04-11T11:19:48.91Z</time></trkpt><trkpt lat="44.5597252" lon="9.8606854"><ele>752.2</ele><time>2026-04-11T11:19:49.91Z</time></trkpt><trkpt lat="44.5596123" lon="9.8605816"><ele>751.4</ele><time>2026-04-11T11:19:51.909Z</time></trkpt><trkpt lat="44.5595563" lon="9.8605212"><ele>750.6</ele><time>2026-04-11T11:19:52.909Z</time></trkpt><trkpt lat="44.5594819" lon="9.8604107"><ele>749.8000000000001</ele><time>2026-04-11T11:19:54.909Z</time></trkpt><trkpt lat="44.5594397" lon="9.8602738"><ele>749.0</ele><time>2026-04-11T11:19:56.909Z</time></trkpt><trkpt lat="44.5594201" lon="9.860121"><ele>753.6</ele><time>2026-04-11T11:19:58.909Z</time></trkpt><trkpt lat="44.5594177" lon="9.8599689"><ele>758.2</ele><time>2026-04-11T11:20:00.911Z</time></trkpt><trkpt lat="44.5593755" lon="9.8598321"><ele>762.8000000000001</ele><time>2026-04-11T11:20:02.909Z</time></trkpt><trkpt lat="44.559295" lon="9.859702"><ele>767.4000000000001</ele><time>2026-04-11T11:20:04.909Z</time></trkpt><trkpt lat="44.559278" lon="9.8596081"><ele>772.0</ele><time>2026-04-11T11:20:05.909Z</time></trkpt><trkpt lat="44.559232" lon="9.8594682"><ele>772.0</ele><time>2026-04-11T11:20:07.91Z</time></trkpt><trkpt lat="44.5591275" lon="9.8594575"><ele>772.0</ele><time>2026-04-11T11:20:09.91Z</time></trkpt><trkpt lat="44.5590347" lon="9.8593567"><ele>772.0</ele><time>2026-04-11T11:20:11.91Z</time></trkpt><trkpt lat="44.5590009" lon="9.8592448"><ele>772.0</ele><time>2026-04-11T11:20:12.91Z</time></trkpt><trkpt lat="44.5589552" lon="9.8591456"><ele>772.0</ele><time>2026-04-11T11:20:13.91Z</time></trkpt><trkpt lat="44.5589115" lon="9.8590701"><ele>771.8333333333333</ele><time>2026-04-11T11:20:14.91Z</time></trkpt><trkpt lat="44.5588766" lon="9.8589671"><ele>771.6666666666666</ele><time>2026-04-11T11:20:15.91Z</time></trkpt><trkpt lat="44.5588553" lon="9.8588619"><ele>771.5</ele><time>2026-04-11T11:20:16.909Z</time></trkpt><trkpt lat="44.5588331" lon="9.8587569"><ele>771.3333333333333</ele><time>2026-04-11T11:20:17.909Z</time></trkpt><trkpt lat="44.5588355" lon="9.858645"><ele>771.1666666666666</ele><time>2026-04-11T11:20:18.909Z</time></trkpt><trkpt lat="44.5588309" lon="9.8585499"><ele>771.0</ele><time>2026-04-11T11:20:19.911Z</time></trkpt><trkpt lat="44.5588446" lon="9.8584509"><ele>770.4</ele><time>2026-04-11T11:20:20.911Z</time></trkpt><trkpt lat="44.5588284" lon="9.8583584"><ele>769.8</ele><time>2026-04-11T11:20:21.909Z</time></trkpt><trkpt lat="44.5587663" lon="9.8581971"><ele>769.1999999999999</ele><time>2026-04-11T11:20:23.909Z</time></trkpt><trkpt lat="44.5587301" lon="9.8580786"><ele>768.5999999999999</ele><time>2026-04-11T11:20:24.909Z</time></trkpt><trkpt lat="44.5586947" lon="9.857973"><ele>768.0</ele><time>2026-04-11T11:20:25.909Z</time></trkpt><trkpt lat="44.5586343" lon="9.8578674"><ele>770.0</ele><time>2026-04-11T11:20:26.909Z</time></trkpt><trkpt lat="44.558548" lon="9.857767"><ele>772.0</ele><time>2026-04-11T11:20:27.909Z</time></trkpt><trkpt lat="44.5584611" lon="9.8576761"><ele>774.0</ele><time>2026-04-11T11:20:28.909Z</time></trkpt><trkpt lat="44.5583713" lon="9.8575913"><ele>776.0</ele><time>2026-04-11T11:20:29.909Z</time></trkpt><trkpt lat="44.5582597" lon="9.8575618"><ele>778.0</ele><time>2026-04-11T11:20:31.908Z</time></trkpt><trkpt lat="44.5581987" lon="9.8575317"><ele>777.9999999999999</ele><time>2026-04-11T11:20:33.909Z</time></trkpt><trkpt lat="44.5581414" lon="9.8574306"><ele>778.0</ele><time>2026-04-11T11:20:35.909Z</time></trkpt><trkpt lat="44.5581272" lon="9.8573238"><ele>778.0</ele><time>2026-04-11T11:20:36.909Z</time></trkpt><trkpt lat="44.5581145" lon="9.8572216"><ele>778.0</ele><time>2026-04-11T11:20:37.909Z</time></trkpt><trkpt lat="44.5581078" lon="9.8571109"><ele>777.9999999999999</ele><time>2026-04-11T11:20:38.908Z</time></trkpt><trkpt lat="44.558101" lon="9.8569996"><ele>778.0</ele><time>2026-04-11T11:20:39.908Z</time></trkpt><trkpt lat="44.558081" lon="9.856881"><ele>777.3333333333333</ele><time>2026-04-11T11:20:40.909Z</time></trkpt><trkpt lat="44.5580567" lon="9.8567702"><ele>776.6666666666666</ele><time>2026-04-11T11:20:41.908Z</time></trkpt><trkpt lat="44.5580439" lon="9.8566588"><ele>776.0</ele><time>2026-04-11T11:20:42.908Z</time></trkpt><trkpt lat="44.5580306" lon="9.8565571"><ele>775.3333333333333</ele><time>2026-04-11T11:20:43.909Z</time></trkpt><trkpt lat="44.5580022" lon="9.8564541"><ele>774.6666666666666</ele><time>2026-04-11T11:20:44.909Z</time></trkpt><trkpt lat="44.5579525" lon="9.85634"><ele>774.0</ele><time>2026-04-11T11:20:45.909Z</time></trkpt><trkpt lat="44.5578759" lon="9.8562005"><ele>778.75</ele><time>2026-04-11T11:20:46.909Z</time></trkpt><trkpt lat="44.5578083" lon="9.8560837"><ele>783.5</ele><time>2026-04-11T11:20:47.909Z</time></trkpt><trkpt lat="44.5577251" lon="9.8559473"><ele>788.25</ele><time>2026-04-11T11:20:48.909Z</time></trkpt><trkpt lat="44.557621" lon="9.8558118"><ele>793.0</ele><time>2026-04-11T11:20:49.909Z</time></trkpt><trkpt lat="44.557552" lon="9.8556994"><ele>792.9999999999999</ele><time>2026-04-11T11:20:50.909Z</time></trkpt><trkpt lat="44.5575046" lon="9.8556321"><ele>793.0</ele><time>2026-04-11T11:20:51.909Z</time></trkpt><trkpt lat="44.5574728" lon="9.8554842"><ele>793.0</ele><time>2026-04-11T11:20:53.909Z</time></trkpt><trkpt lat="44.5574724" lon="9.8553915"><ele>793.0</ele><time>2026-04-11T11:20:54.908Z</time></trkpt><trkpt lat="44.5574861" lon="9.8552765"><ele>792.9999999999999</ele><time>2026-04-11T11:20:55.908Z</time></trkpt><trkpt lat="44.5574997" lon="9.8551445"><ele>793.0</ele><time>2026-04-11T11:20:56.908Z</time></trkpt><trkpt lat="44.5575073" lon="9.8550075"><ele>793.3333333333333</ele><time>2026-04-11T11:20:57.909Z</time></trkpt><trkpt lat="44.5575331" lon="9.8548702"><ele>793.6666666666666</ele><time>2026-04-11T11:20:58.909Z</time></trkpt><trkpt lat="44.5575884" lon="9.8547472"><ele>794.0</ele><time>2026-04-11T11:20:59.909Z</time></trkpt><trkpt lat="44.5576457" lon="9.8546534"><ele>794.3333333333333</ele><time>2026-04-11T11:21:00.909Z</time></trkpt><trkpt lat="44.5576905" lon="9.8545783"><ele>794.6666666666666</ele><time>2026-04-11T11:21:01.91Z</time></trkpt><trkpt lat="44.5577322" lon="9.8545006"><ele>795.0</ele><time>2026-04-11T11:21:02.909Z</time></trkpt><trkpt lat="44.5577957" lon="9.8543576"><ele>793.8</ele><time>2026-04-11T11:21:04.908Z</time></trkpt><trkpt lat="44.557858" lon="9.8542226"><ele>792.6</ele><time>2026-04-11T11:21:06.909Z</time></trkpt><trkpt lat="44.5578882" lon="9.854099"><ele>791.4000000000001</ele><time>2026-04-11T11:21:33.909Z</time></trkpt><trkpt lat="44.5579671" lon="9.8539896"><ele>790.2</ele><time>2026-04-11T11:21:35.908Z</time></trkpt><trkpt lat="44.5580132" lon="9.853891"><ele>789.0</ele><time>2026-04-11T11:21:36.909Z</time></trkpt><trkpt lat="44.5580587" lon="9.8537873"><ele>789.0</ele><time>2026-04-11T11:21:37.909Z</time></trkpt><trkpt lat="44.5580905" lon="9.8536669"><ele>789.0</ele><time>2026-04-11T11:21:38.909Z</time></trkpt><trkpt lat="44.5581041" lon="9.8535499"><ele>789.0</ele><time>2026-04-11T11:21:39.909Z</time></trkpt><trkpt lat="44.5580929" lon="9.8534494"><ele>789.0</ele><time>2026-04-11T11:21:40.909Z</time></trkpt><trkpt lat="44.5580663" lon="9.8533645"><ele>789.0</ele><time>2026-04-11T11:21:41.909Z</time></trkpt><trkpt lat="44.5580319" lon="9.8532794"><ele>789.0</ele><time>2026-04-11T11:21:42.908Z</time></trkpt><trkpt lat="44.5579396" lon="9.8532365"><ele>791.8333333333334</ele><time>2026-04-11T11:21:43.908Z</time></trkpt><trkpt lat="44.5578549" lon="9.8531808"><ele>794.6666666666667</ele><time>2026-04-11T11:21:44.909Z</time></trkpt><trkpt lat="44.5577726" lon="9.8531108"><ele>797.5</ele><time>2026-04-11T11:21:45.908Z</time></trkpt><trkpt lat="44.5577317" lon="9.8529938"><ele>800.3333333333334</ele><time>2026-04-11T11:21:46.909Z</time></trkpt><trkpt lat="44.5577115" lon="9.852884"><ele>803.1666666666667</ele><time>2026-04-11T11:21:47.909Z</time></trkpt><trkpt lat="44.5577226" lon="9.8527786"><ele>806.0</ele><time>2026-04-11T11:21:48.909Z</time></trkpt><trkpt lat="44.5577494" lon="9.8526625"><ele>807.25</ele><time>2026-04-11T11:21:49.909Z</time></trkpt><trkpt lat="44.5578427" lon="9.8525694"><ele>808.5</ele><time>2026-04-11T11:21:50.909Z</time></trkpt><trkpt lat="44.557917" lon="9.8524615"><ele>809.75</ele><time>2026-04-11T11:21:51.909Z</time></trkpt><trkpt lat="44.5579942" lon="9.8523521"><ele>811.0</ele><time>2026-04-11T11:21:52.909Z</time></trkpt><trkpt lat="44.558081" lon="9.8522216"><ele>808.0</ele><time>2026-04-11T11:21:53.909Z</time></trkpt><trkpt lat="44.5581463" lon="9.8520698"><ele>805.0</ele><time>2026-04-11T11:21:54.909Z</time></trkpt><trkpt lat="44.5582112" lon="9.851939"><ele>802.0</ele><time>2026-04-11T11:21:55.909Z</time></trkpt><trkpt lat="44.5582891" lon="9.8518281"><ele>799.0</ele><time>2026-04-11T11:21:56.909Z</time></trkpt><trkpt lat="44.5583873" lon="9.8517372"><ele>799.0</ele><time>2026-04-11T11:21:57.909Z</time></trkpt><trkpt lat="44.5585014" lon="9.8516838"><ele>799.0</ele><time>2026-04-11T11:21:58.909Z</time></trkpt><trkpt lat="44.5586218" lon="9.8516495"><ele>799.0</ele><time>2026-04-11T11:21:59.909Z</time></trkpt><trkpt lat="44.5587399" lon="9.8516432"><ele>799.0</ele><time>2026-04-11T11:22:00.909Z</time></trkpt><trkpt lat="44.5588532" lon="9.8516231"><ele>796.4000000000001</ele><time>2026-04-11T11:22:01.909Z</time></trkpt><trkpt lat="44.5589692" lon="9.8515777"><ele>793.8</ele><time>2026-04-11T11:22:02.909Z</time></trkpt><trkpt lat="44.5590774" lon="9.8515318"><ele>791.2</ele><time>2026-04-11T11:22:03.909Z</time></trkpt><trkpt lat="44.5591635" lon="9.851476"><ele>788.5999999999999</ele><time>2026-04-11T11:22:04.909Z</time></trkpt><trkpt lat="44.5592603" lon="9.8514265"><ele>786.0</ele><time>2026-04-11T11:22:05.909Z</time></trkpt><trkpt lat="44.5593328" lon="9.8513638"><ele>786.0</ele><time>2026-04-11T11:22:06.909Z</time></trkpt><trkpt lat="44.5594122" lon="9.8512623"><ele>786.0</ele><time>2026-04-11T11:22:07.908Z</time></trkpt><trkpt lat="44.559425" lon="9.8510773"><ele>786.0</ele><time>2026-04-11T11:22:08.909Z</time></trkpt><trkpt lat="44.5594822" lon="9.8509702"><ele>786.0</ele><time>2026-04-11T11:22:09.91Z</time></trkpt><trkpt lat="44.5595259" lon="9.850855"><ele>786.0</ele><time>2026-04-11T11:22:10.909Z</time></trkpt><trkpt lat="44.5595625" lon="9.8507432"><ele>786.2857142857143</ele><time>2026-04-11T11:22:11.91Z</time></trkpt><trkpt lat="44.5595933" lon="9.8506287"><ele>786.5714285714286</ele><time>2026-04-11T11:22:12.909Z</time></trkpt><trkpt lat="44.5596183" lon="9.8505218"><ele>786.8571428571429</ele><time>2026-04-11T11:22:13.909Z</time></trkpt><trkpt lat="44.5596167" lon="9.8504217"><ele>787.1428571428571</ele><time>2026-04-11T11:22:14.908Z</time></trkpt><trkpt lat="44.5595982" lon="9.8503337"><ele>787.4285714285714</ele><time>2026-04-11T11:22:15.908Z</time></trkpt><trkpt lat="44.5595736" lon="9.8502501"><ele>787.7142857142858</ele><time>2026-04-11T11:22:16.909Z</time></trkpt><trkpt lat="44.559548" lon="9.8501602"><ele>788.0</ele><time>2026-04-11T11:22:17.909Z</time></trkpt><trkpt lat="44.5595386" lon="9.850056"><ele>788.0000000000001</ele><time>2026-04-11T11:22:18.91Z</time></trkpt><trkpt lat="44.5595623" lon="9.8499552"><ele>788.0</ele><time>2026-04-11T11:22:19.908Z</time></trkpt><trkpt lat="44.559603" lon="9.8498645"><ele>788.0</ele><time>2026-04-11T11:22:20.909Z</time></trkpt><trkpt lat="44.5596504" lon="9.8497755"><ele>788.0</ele><time>2026-04-11T11:22:21.909Z</time></trkpt><trkpt lat="44.5596974" lon="9.8496793"><ele>788.0000000000001</ele><time>2026-04-11T11:22:22.908Z</time></trkpt><trkpt lat="44.5597432" lon="9.8495725"><ele>788.0</ele><time>2026-04-11T11:22:23.909Z</time></trkpt><trkpt lat="44.5597796" lon="9.8494728"><ele>788.0000000000001</ele><time>2026-04-11T11:22:24.908Z</time></trkpt><trkpt lat="44.5598105" lon="9.8493771"><ele>788.0</ele><time>2026-04-11T11:22:25.908Z</time></trkpt><trkpt lat="44.5598265" lon="9.8492538"><ele>788.0</ele><time>2026-04-11T11:22:26.909Z</time></trkpt><trkpt lat="44.5598338" lon="9.8491237"><ele>788.0</ele><time>2026-04-11T11:22:27.909Z</time></trkpt><trkpt lat="44.5598364" lon="9.8490025"><ele>788.0000000000001</ele><time>2026-04-11T11:22:28.909Z</time></trkpt><trkpt lat="44.5598287" lon="9.8488798"><ele>788.0</ele><time>2026-04-11T11:22:29.909Z</time></trkpt><trkpt lat="44.5598203" lon="9.8487669"><ele>788.5000000000001</ele><time>2026-04-11T11:22:30.909Z</time></trkpt><trkpt lat="44.5598001" lon="9.8486453"><ele>789.0</ele><time>2026-04-11T11:22:31.909Z</time></trkpt><trkpt lat="44.5597611" lon="9.8485243"><ele>789.5</ele><time>2026-04-11T11:22:32.909Z</time></trkpt><trkpt lat="44.5597214" lon="9.8483965"><ele>790.0</ele><time>2026-04-11T11:22:33.909Z</time></trkpt><trkpt lat="44.5596865" lon="9.8482908"><ele>790.5000000000001</ele><time>2026-04-11T11:22:34.909Z</time></trkpt><trkpt lat="44.5596581" lon="9.8481876"><ele>791.0</ele><time>2026-04-11T11:22:35.909Z</time></trkpt><trkpt lat="44.5596268" lon="9.8480799"><ele>789.3333333333334</ele><time>2026-04-11T11:22:36.909Z</time></trkpt><trkpt lat="44.5596007" lon="9.847977"><ele>787.6666666666667</ele><time>2026-04-11T11:22:37.909Z</time></trkpt><trkpt lat="44.5595897" lon="9.8478656"><ele>786.0</ele><time>2026-04-11T11:22:38.909Z</time></trkpt><trkpt lat="44.5595995" lon="9.8477489"><ele>784.3333333333333</ele><time>2026-04-11T11:22:39.909Z</time></trkpt><trkpt lat="44.5596207" lon="9.8476318"><ele>782.6666666666666</ele><time>2026-04-11T11:22:40.908Z</time></trkpt><trkpt lat="44.5596747" lon="9.8475383"><ele>781.0</ele><time>2026-04-11T11:22:41.908Z</time></trkpt><trkpt lat="44.5597427" lon="9.8474534"><ele>780.8333333333333</ele><time>2026-04-11T11:22:42.908Z</time></trkpt><trkpt lat="44.5598163" lon="9.8473934"><ele>780.6666666666666</ele><time>2026-04-11T11:22:43.908Z</time></trkpt><trkpt lat="44.5598861" lon="9.8473422"><ele>780.5</ele><time>2026-04-11T11:22:44.908Z</time></trkpt><trkpt lat="44.5599502" lon="9.8472782"><ele>780.3333333333333</ele><time>2026-04-11T11:22:45.909Z</time></trkpt><trkpt lat="44.5600086" lon="9.8471923"><ele>780.1666666666666</ele><time>2026-04-11T11:22:46.908Z</time></trkpt><trkpt lat="44.56006" lon="9.8471072"><ele>780.0</ele><time>2026-04-11T11:22:47.908Z</time></trkpt><trkpt lat="44.5601121" lon="9.8470136"><ele>780.0</ele><time>2026-04-11T11:22:48.909Z</time></trkpt><trkpt lat="44.560173" lon="9.8469144"><ele>780.0</ele><time>2026-04-11T11:22:49.909Z</time></trkpt><trkpt lat="44.5602429" lon="9.846828"><ele>780.0</ele><time>2026-04-11T11:22:50.908Z</time></trkpt><trkpt lat="44.5603048" lon="9.8467541"><ele>780.0</ele><time>2026-04-11T11:22:51.908Z</time></trkpt><trkpt lat="44.5603775" lon="9.8466888"><ele>780.0</ele><time>2026-04-11T11:22:52.908Z</time></trkpt><trkpt lat="44.5604494" lon="9.8466216"><ele>780.0</ele><time>2026-04-11T11:22:53.908Z</time></trkpt><trkpt lat="44.5605207" lon="9.8465542"><ele>779.1666666666666</ele><time>2026-04-11T11:22:54.908Z</time></trkpt><trkpt lat="44.5605918" lon="9.8464812"><ele>778.3333333333333</ele><time>2026-04-11T11:22:55.908Z</time></trkpt><trkpt lat="44.5606635" lon="9.8464031"><ele>777.5</ele><time>2026-04-11T11:22:56.909Z</time></trkpt><trkpt lat="44.5607315" lon="9.8463236"><ele>776.6666666666666</ele><time>2026-04-11T11:22:57.909Z</time></trkpt><trkpt lat="44.5608009" lon="9.8462382"><ele>775.8333333333333</ele><time>2026-04-11T11:22:58.909Z</time></trkpt><trkpt lat="44.5608632" lon="9.8461652"><ele>775.0</ele><time>2026-04-11T11:22:59.909Z</time></trkpt><trkpt lat="44.5609286" lon="9.8460796"><ele>774.9999999999999</ele><time>2026-04-11T11:23:00.909Z</time></trkpt><trkpt lat="44.5609711" lon="9.8459984"><ele>775.0</ele><time>2026-04-11T11:23:01.909Z</time></trkpt><trkpt lat="44.5610247" lon="9.8459408"><ele>775.0</ele><time>2026-04-11T11:23:02.909Z</time></trkpt><trkpt lat="44.5610824" lon="9.8458989"><ele>775.0</ele><time>2026-04-11T11:23:03.909Z</time></trkpt><trkpt lat="44.5611598" lon="9.8458828"><ele>775.0</ele><time>2026-04-11T11:23:04.909Z</time></trkpt><trkpt lat="44.5612395" lon="9.8458573"><ele>774.9999999999999</ele><time>2026-04-11T11:23:05.909Z</time></trkpt><trkpt lat="44.5613102" lon="9.8458634"><ele>775.0</ele><time>2026-04-11T11:23:06.909Z</time></trkpt><trkpt lat="44.5613821" lon="9.8458586"><ele>774.8333333333333</ele><time>2026-04-11T11:23:07.909Z</time></trkpt><trkpt lat="44.5614531" lon="9.8458792"><ele>774.6666666666666</ele><time>2026-04-11T11:23:08.91Z</time></trkpt><trkpt lat="44.5615422" lon="9.845929"><ele>774.5</ele><time>2026-04-11T11:23:10.908Z</time></trkpt><trkpt lat="44.5616356" lon="9.8459162"><ele>774.3333333333333</ele><time>2026-04-11T11:23:28.909Z</time></trkpt><trkpt lat="44.5616796" lon="9.8460009"><ele>774.1666666666666</ele><time>2026-04-11T11:23:31.909Z</time></trkpt><trkpt lat="44.5616345" lon="9.8459284"><ele>774.0</ele><time>2026-04-11T11:23:35.909Z</time></trkpt><trkpt lat="44.5616133" lon="9.8458187"><ele>774.0</ele><time>2026-04-11T11:23:37.909Z</time></trkpt><trkpt lat="44.5615901" lon="9.845715"><ele>774.0</ele><time>2026-04-11T11:23:39.908Z</time></trkpt><trkpt lat="44.5615963" lon="9.8456068"><ele>774.0</ele><time>2026-04-11T11:23:41.909Z</time></trkpt><trkpt lat="44.5616348" lon="9.8455017"><ele>774.0</ele><time>2026-04-11T11:23:43.908Z</time></trkpt><trkpt lat="44.5616783" lon="9.8454181"><ele>774.0</ele><time>2026-04-11T11:23:45.908Z</time></trkpt><trkpt lat="44.5617452" lon="9.8453309"><ele>774.0</ele><time>2026-04-11T11:23:48.909Z</time></trkpt><trkpt lat="44.5617319" lon="9.8451929"><ele>776.5</ele><time>2026-04-11T11:23:50.909Z</time></trkpt><trkpt lat="44.5617272" lon="9.8450509"><ele>779.0</ele><time>2026-04-11T11:23:52.909Z</time></trkpt><trkpt lat="44.5617511" lon="9.8449105"><ele>781.5</ele><time>2026-04-11T11:23:54.909Z</time></trkpt><trkpt lat="44.5618011" lon="9.8448404"><ele>784.0</ele><time>2026-04-11T11:23:55.91Z</time></trkpt><trkpt lat="44.5618888" lon="9.8447801"><ele>786.5</ele><time>2026-04-11T11:23:57.909Z</time></trkpt><trkpt lat="44.5619479" lon="9.8447122"><ele>789.0</ele><time>2026-04-11T11:24:17.909Z</time></trkpt><trkpt lat="44.5619885" lon="9.8446218"><ele>789.0</ele><time>2026-04-11T11:24:20.909Z</time></trkpt><trkpt lat="44.5620196" lon="9.8444899"><ele>789.0</ele><time>2026-04-11T11:24:22.909Z</time></trkpt><trkpt lat="44.5620725" lon="9.8443857"><ele>789.0</ele><time>2026-04-11T11:24:24.909Z</time></trkpt><trkpt lat="44.5620844" lon="9.8442583"><ele>789.0</ele><time>2026-04-11T11:24:26.909Z</time></trkpt><trkpt lat="44.5620546" lon="9.8441328"><ele>789.0</ele><time>2026-04-11T11:24:28.908Z</time></trkpt><trkpt lat="44.5619856" lon="9.8440857"><ele>792.0</ele><time>2026-04-11T11:24:30.909Z</time></trkpt><trkpt lat="44.5618918" lon="9.8440419"><ele>795.0</ele><time>2026-04-11T11:24:32.909Z</time></trkpt><trkpt lat="44.5618474" lon="9.843974"><ele>798.0</ele><time>2026-04-11T11:24:34.909Z</time></trkpt><trkpt lat="44.5618569" lon="9.8438557"><ele>801.0</ele><time>2026-04-11T11:25:00.909Z</time></trkpt><trkpt lat="44.561885" lon="9.8437153"><ele>804.0</ele><time>2026-04-11T11:25:02.909Z</time></trkpt><trkpt lat="44.5619089" lon="9.8435644"><ele>806.0</ele><time>2026-04-11T11:25:04.909Z</time></trkpt><trkpt lat="44.5619402" lon="9.8434311"><ele>808.0</ele><time>2026-04-11T11:25:06.909Z</time></trkpt><trkpt lat="44.5620013" lon="9.8432925"><ele>810.0</ele><time>2026-04-11T11:25:08.909Z</time></trkpt><trkpt lat="44.562036" lon="9.8431465"><ele>812.0</ele><time>2026-04-11T11:25:10.909Z</time></trkpt><trkpt lat="44.5620462" lon="9.8430537"><ele>814.0</ele><time>2026-04-11T11:25:11.909Z</time></trkpt><trkpt lat="44.5620681" lon="9.8429565"><ele>814.0</ele><time>2026-04-11T11:25:12.909Z</time></trkpt><trkpt lat="44.5620735" lon="9.8427903"><ele>814.0</ele><time>2026-04-11T11:25:14.909Z</time></trkpt><trkpt lat="44.5620478" lon="9.8426246"><ele>814.0</ele><time>2026-04-11T11:25:16.909Z</time></trkpt><trkpt lat="44.5620226" lon="9.8424461"><ele>814.0</ele><time>2026-04-11T11:25:18.909Z</time></trkpt><trkpt lat="44.5620027" lon="9.8423491"><ele>814.0</ele><time>2026-04-11T11:25:19.909Z</time></trkpt><trkpt lat="44.5619786" lon="9.842193"><ele>816.8000000000001</ele><time>2026-04-11T11:25:21.907Z</time></trkpt><trkpt lat="44.561937" lon="9.8420752"><ele>819.6</ele><time>2026-04-11T11:25:23.908Z</time></trkpt><trkpt lat="44.5618809" lon="9.8419545"><ele>822.4</ele><time>2026-04-11T11:25:25.908Z</time></trkpt><trkpt lat="44.561799" lon="9.841909"><ele>825.2</ele><time>2026-04-11T11:25:27.907Z</time></trkpt><trkpt lat="44.5617153" lon="9.8418684"><ele>828.0</ele><time>2026-04-11T11:25:29.908Z</time></trkpt><trkpt lat="44.5616091" lon="9.8418522"><ele>828.0</ele><time>2026-04-11T11:25:30.908Z</time></trkpt><trkpt lat="44.5615211" lon="9.841826"><ele>828.0</ele><time>2026-04-11T11:25:31.907Z</time></trkpt><trkpt lat="44.5614096" lon="9.8418508"><ele>828.0</ele><time>2026-04-11T11:25:32.908Z</time></trkpt><trkpt lat="44.5613057" lon="9.8418548"><ele>828.0</ele><time>2026-04-11T11:25:33.907Z</time></trkpt><trkpt lat="44.5612301" lon="9.8418208"><ele>828.0</ele><time>2026-04-11T11:25:34.907Z</time></trkpt><trkpt lat="44.5611551" lon="9.8417792"><ele>831.4</ele><time>2026-04-11T11:25:35.908Z</time></trkpt><trkpt lat="44.5611015" lon="9.8416846"><ele>834.8</ele><time>2026-04-11T11:25:37.908Z</time></trkpt><trkpt lat="44.5611662" lon="9.8416081"><ele>838.2</ele><time>2026-04-11T11:25:40.909Z</time></trkpt><trkpt lat="44.5612619" lon="9.8416341"><ele>841.6</ele><time>2026-04-11T11:25:42.908Z</time></trkpt><trkpt lat="44.5613607" lon="9.841604"><ele>845.0</ele><time>2026-04-11T11:25:44.909Z</time></trkpt><trkpt lat="44.5614437" lon="9.841499"><ele>844.9999999999999</ele><time>2026-04-11T11:25:46.908Z</time></trkpt><trkpt lat="44.5614808" lon="9.8414065"><ele>845.0</ele><time>2026-04-11T11:25:47.908Z</time></trkpt><trkpt lat="44.5615234" lon="9.8413282"><ele>845.0</ele><time>2026-04-11T11:25:48.908Z</time></trkpt><trkpt lat="44.5615857" lon="9.8412569"><ele>845.0</ele><time>2026-04-11T11:25:49.908Z</time></trkpt><trkpt lat="44.5616471" lon="9.8411981"><ele>845.0</ele><time>2026-04-11T11:25:50.907Z</time></trkpt><trkpt lat="44.5617077" lon="9.8411592"><ele>844.9999999999999</ele><time>2026-04-11T11:25:51.908Z</time></trkpt><trkpt lat="44.5617713" lon="9.8411132"><ele>845.0</ele><time>2026-04-11T11:25:52.907Z</time></trkpt><trkpt lat="44.5618378" lon="9.8410732"><ele>845.0000000000001</ele><time>2026-04-11T11:25:53.908Z</time></trkpt><trkpt lat="44.5619059" lon="9.841032"><ele>845.0</ele><time>2026-04-11T11:25:54.908Z</time></trkpt><trkpt lat="44.5619671" lon="9.8409743"><ele>845.0</ele><time>2026-04-11T11:25:55.908Z</time></trkpt><trkpt lat="44.5620211" lon="9.840906"><ele>845.0</ele><time>2026-04-11T11:25:56.908Z</time></trkpt><trkpt lat="44.5620783" lon="9.8408338"><ele>845.0000000000001</ele><time>2026-04-11T11:25:57.908Z</time></trkpt><trkpt lat="44.5621296" lon="9.8407524"><ele>845.0</ele><time>2026-04-11T11:25:58.908Z</time></trkpt><trkpt lat="44.5621828" lon="9.8406677"><ele>845.0000000000001</ele><time>2026-04-11T11:25:59.908Z</time></trkpt><trkpt lat="44.5622319" lon="9.8405763"><ele>845.0</ele><time>2026-04-11T11:26:00.908Z</time></trkpt><trkpt lat="44.5622781" lon="9.8404752"><ele>845.0</ele><time>2026-04-11T11:26:01.908Z</time></trkpt><trkpt lat="44.5623208" lon="9.8403713"><ele>845.0</ele><time>2026-04-11T11:26:02.908Z</time></trkpt><trkpt lat="44.562361" lon="9.8402682"><ele>845.0000000000001</ele><time>2026-04-11T11:26:03.908Z</time></trkpt><trkpt lat="44.5623934" lon="9.8401583"><ele>845.0</ele><time>2026-04-11T11:26:04.908Z</time></trkpt><trkpt lat="44.562365" lon="9.8400361"><ele>846.1666666666667</ele><time>2026-04-11T11:26:05.907Z</time></trkpt><trkpt lat="44.5623749" lon="9.8399202"><ele>847.3333333333334</ele><time>2026-04-11T11:26:06.908Z</time></trkpt><trkpt lat="44.562372" lon="9.8397193"><ele>848.5</ele><time>2026-04-11T11:26:08.908Z</time></trkpt><trkpt lat="44.5623578" lon="9.8396223"><ele>849.6666666666667</ele><time>2026-04-11T11:26:09.907Z</time></trkpt><trkpt lat="44.5623358" lon="9.8395372"><ele>850.8333333333334</ele><time>2026-04-11T11:26:10.907Z</time></trkpt><trkpt lat="44.5623011" lon="9.8394416"><ele>852.0</ele><time>2026-04-11T11:26:11.908Z</time></trkpt><trkpt lat="44.5622685" lon="9.8393505"><ele>852.6</ele><time>2026-04-11T11:26:12.907Z</time></trkpt><trkpt lat="44.5622187" lon="9.8392445"><ele>853.2</ele><time>2026-04-11T11:26:13.907Z</time></trkpt><trkpt lat="44.5621528" lon="9.8391446"><ele>853.8</ele><time>2026-04-11T11:26:14.908Z</time></trkpt><trkpt lat="44.5621053" lon="9.8390242"><ele>854.4</ele><time>2026-04-11T11:26:15.908Z</time></trkpt><trkpt lat="44.5620469" lon="9.8389148"><ele>855.0</ele><time>2026-04-11T11:26:16.909Z</time></trkpt><trkpt lat="44.5619908" lon="9.8388176"><ele>859.8333333333334</ele><time>2026-04-11T11:26:17.908Z</time></trkpt><trkpt lat="44.5619324" lon="9.8387463"><ele>864.6666666666667</ele><time>2026-04-11T11:26:18.908Z</time></trkpt><trkpt lat="44.5618774" lon="9.8386757"><ele>869.5</ele><time>2026-04-11T11:26:19.908Z</time></trkpt><trkpt lat="44.5618263" lon="9.8386026"><ele>874.3333333333334</ele><time>2026-04-11T11:26:20.907Z</time></trkpt><trkpt lat="44.5617693" lon="9.8384852"><ele>879.1666666666667</ele><time>2026-04-11T11:26:21.908Z</time></trkpt><trkpt lat="44.5617137" lon="9.8383653"><ele>884.0</ele><time>2026-04-11T11:26:22.908Z</time></trkpt><trkpt lat="44.5616605" lon="9.838205"><ele>884.0000000000001</ele><time>2026-04-11T11:26:23.908Z</time></trkpt><trkpt lat="44.5616354" lon="9.8380941"><ele>884.0</ele><time>2026-04-11T11:26:24.908Z</time></trkpt><trkpt lat="44.5615972" lon="9.8379837"><ele>884.0</ele><time>2026-04-11T11:26:25.907Z</time></trkpt><trkpt lat="44.5615699" lon="9.837873"><ele>884.0</ele><time>2026-04-11T11:26:26.907Z</time></trkpt><trkpt lat="44.5615635" lon="9.837752"><ele>884.0000000000001</ele><time>2026-04-11T11:26:27.907Z</time></trkpt><trkpt lat="44.5615553" lon="9.8376276"><ele>884.0</ele><time>2026-04-11T11:26:28.907Z</time></trkpt><trkpt lat="44.5615052" lon="9.8374956"><ele>883.3333333333334</ele><time>2026-04-11T11:26:29.908Z</time></trkpt><trkpt lat="44.5614745" lon="9.8373723"><ele>882.6666666666667</ele><time>2026-04-11T11:26:30.908Z</time></trkpt><trkpt lat="44.5614531" lon="9.8372613"><ele>882.0</ele><time>2026-04-11T11:26:31.908Z</time></trkpt><trkpt lat="44.5614243" lon="9.8371616"><ele>881.3333333333333</ele><time>2026-04-11T11:26:32.908Z</time></trkpt><trkpt lat="44.561394" lon="9.8370724"><ele>880.6666666666666</ele><time>2026-04-11T11:26:33.908Z</time></trkpt><trkpt lat="44.5613313" lon="9.8369986"><ele>880.0</ele><time>2026-04-11T11:26:34.908Z</time></trkpt><trkpt lat="44.5612904" lon="9.8369216"><ele>879.3333333333333</ele><time>2026-04-11T11:26:35.908Z</time></trkpt><trkpt lat="44.5612416" lon="9.8368022"><ele>878.6666666666666</ele><time>2026-04-11T11:26:37.907Z</time></trkpt><trkpt lat="44.5612054" lon="9.8366553"><ele>878.0</ele><time>2026-04-11T11:26:39.908Z</time></trkpt><trkpt lat="44.561244" lon="9.8365816"><ele>877.3333333333333</ele><time>2026-04-11T11:26:41.908Z</time></trkpt><trkpt lat="44.5612213" lon="9.8364924"><ele>876.6666666666666</ele><time>2026-04-11T11:26:54.908Z</time></trkpt><trkpt lat="44.5611886" lon="9.8364145"><ele>876.0</ele><time>2026-04-11T11:26:58.908Z</time></trkpt><trkpt lat="44.5610771" lon="9.8363549"><ele>879.4</ele><time>2026-04-11T11:27:00.908Z</time></trkpt><trkpt lat="44.5609886" lon="9.836311"><ele>882.8</ele><time>2026-04-11T11:27:01.907Z</time></trkpt><trkpt lat="44.5609477" lon="9.8362255"><ele>886.1999999999999</ele><time>2026-04-11T11:27:02.908Z</time></trkpt><trkpt lat="44.5608781" lon="9.8361641"><ele>889.5999999999999</ele><time>2026-04-11T11:27:03.908Z</time></trkpt><trkpt lat="44.5608214" lon="9.8360762"><ele>893.0</ele><time>2026-04-11T11:27:04.908Z</time></trkpt><trkpt lat="44.5607462" lon="9.8359529"><ele>893.0</ele><time>2026-04-11T11:27:05.908Z</time></trkpt><trkpt lat="44.5607183" lon="9.8358227"><ele>893.0</ele><time>2026-04-11T11:27:06.909Z</time></trkpt><trkpt lat="44.5606822" lon="9.8356868"><ele>893.0</ele><time>2026-04-11T11:27:07.908Z</time></trkpt><trkpt lat="44.5606392" lon="9.8355506"><ele>893.0</ele><time>2026-04-11T11:27:08.908Z</time></trkpt><trkpt lat="44.5605898" lon="9.8353904"><ele>893.0</ele><time>2026-04-11T11:27:09.908Z</time></trkpt><trkpt lat="44.5605436" lon="9.8352224"><ele>893.75</ele><time>2026-04-11T11:27:10.908Z</time></trkpt><trkpt lat="44.5604738" lon="9.8350586"><ele>894.5</ele><time>2026-04-11T11:27:11.908Z</time></trkpt><trkpt lat="44.5604342" lon="9.8348971"><ele>895.25</ele><time>2026-04-11T11:27:12.907Z</time></trkpt><trkpt lat="44.5603967" lon="9.8347455"><ele>896.0</ele><time>2026-04-11T11:27:13.907Z</time></trkpt><trkpt lat="44.5603168" lon="9.8345994"><ele>899.4</ele><time>2026-04-11T11:27:15.908Z</time></trkpt><trkpt lat="44.5602923" lon="9.8347532"><ele>902.8</ele><time>2026-04-11T11:27:16.909Z</time></trkpt><trkpt lat="44.5602137" lon="9.8348743"><ele>906.1999999999999</ele><time>2026-04-11T11:27:18.908Z</time></trkpt><trkpt lat="44.5601792" lon="9.8350071"><ele>909.5999999999999</ele><time>2026-04-11T11:27:19.908Z</time></trkpt><trkpt lat="44.5601262" lon="9.8351339"><ele>913.0</ele><time>2026-04-11T11:27:20.908Z</time></trkpt><trkpt lat="44.5600801" lon="9.8352349"><ele>912.9999999999999</ele><time>2026-04-11T11:27:21.908Z</time></trkpt><trkpt lat="44.5600307" lon="9.835365"><ele>913.0</ele><time>2026-04-11T11:27:22.908Z</time></trkpt><trkpt lat="44.5599861" lon="9.8354648"><ele>913.0</ele><time>2026-04-11T11:27:23.907Z</time></trkpt><trkpt lat="44.5599308" lon="9.8355669"><ele>913.0</ele><time>2026-04-11T11:27:25.908Z</time></trkpt><trkpt lat="44.5598656" lon="9.8355753"><ele>912.9999999999999</ele><time>2026-04-11T11:27:26.909Z</time></trkpt><trkpt lat="44.5597925" lon="9.83551"><ele>913.0</ele><time>2026-04-11T11:27:28.908Z</time></trkpt><trkpt lat="44.5597102" lon="9.8353856"><ele>912.9999999999999</ele><time>2026-04-11T11:27:30.908Z</time></trkpt><trkpt lat="44.5596746" lon="9.8352985"><ele>913.0</ele><time>2026-04-11T11:27:31.908Z</time></trkpt><trkpt lat="44.5596906" lon="9.8351673"><ele>913.0</ele><time>2026-04-11T11:27:32.907Z</time></trkpt><trkpt lat="44.5597254" lon="9.8350501"><ele>913.0</ele><time>2026-04-11T11:27:33.908Z</time></trkpt><trkpt lat="44.5597334" lon="9.8349542"><ele>912.9999999999999</ele><time>2026-04-11T11:27:34.908Z</time></trkpt><trkpt lat="44.5597978" lon="9.8348725"><ele>913.0</ele><time>2026-04-11T11:27:35.908Z</time></trkpt><trkpt lat="44.5598263" lon="9.8347484"><ele>914.0</ele><time>2026-04-11T11:27:36.908Z</time></trkpt><trkpt lat="44.5598573" lon="9.8346395"><ele>915.0</ele><time>2026-04-11T11:27:37.908Z</time></trkpt><trkpt lat="44.5598409" lon="9.8345194"><ele>916.0</ele><time>2026-04-11T11:27:38.908Z</time></trkpt><trkpt lat="44.5597816" lon="9.834457"><ele>917.0</ele><time>2026-04-11T11:27:39.909Z</time></trkpt><trkpt lat="44.5596586" lon="9.8343563"><ele>918.0</ele><time>2026-04-11T11:27:41.908Z</time></trkpt><trkpt lat="44.5595827" lon="9.8342856"><ele>919.4</ele><time>2026-04-11T11:27:42.907Z</time></trkpt><trkpt lat="44.5595484" lon="9.8341746"><ele>920.8</ele><time>2026-04-11T11:27:43.908Z</time></trkpt><trkpt lat="44.5594774" lon="9.8340654"><ele>922.2</ele><time>2026-04-11T11:27:44.907Z</time></trkpt><trkpt lat="44.5594207" lon="9.8339557"><ele>923.6</ele><time>2026-04-11T11:27:45.907Z</time></trkpt><trkpt lat="44.5593554" lon="9.8338534"><ele>925.0</ele><time>2026-04-11T11:27:46.907Z</time></trkpt><trkpt lat="44.5593029" lon="9.8337502"><ele>927.6666666666666</ele><time>2026-04-11T11:27:47.907Z</time></trkpt><trkpt lat="44.5591973" lon="9.8337235"><ele>930.3333333333333</ele><time>2026-04-11T11:27:48.907Z</time></trkpt><trkpt lat="44.5591174" lon="9.8336588"><ele>933.0</ele><time>2026-04-11T11:27:49.907Z</time></trkpt><trkpt lat="44.5590412" lon="9.8335925"><ele>935.6666666666667</ele><time>2026-04-11T11:27:50.908Z</time></trkpt><trkpt lat="44.5589738" lon="9.8335253"><ele>938.3333333333334</ele><time>2026-04-11T11:27:51.907Z</time></trkpt><trkpt lat="44.5589153" lon="9.8334756"><ele>941.0</ele><time>2026-04-11T11:27:52.908Z</time></trkpt><trkpt lat="44.5588523" lon="9.8334432"><ele>941.0000000000001</ele><time>2026-04-11T11:27:53.908Z</time></trkpt><trkpt lat="44.5587312" lon="9.8333813"><ele>941.0</ele><time>2026-04-11T11:27:55.908Z</time></trkpt><trkpt lat="44.5586635" lon="9.833369"><ele>941.0</ele><time>2026-04-11T11:27:56.908Z</time></trkpt><trkpt lat="44.5585902" lon="9.8333761"><ele>941.0</ele><time>2026-04-11T11:27:57.908Z</time></trkpt><trkpt lat="44.5585228" lon="9.8333817"><ele>941.0000000000001</ele><time>2026-04-11T11:27:58.908Z</time></trkpt><trkpt lat="44.5584522" lon="9.8334129"><ele>941.0</ele><time>2026-04-11T11:27:59.908Z</time></trkpt><trkpt lat="44.5583933" lon="9.8334492"><ele>943.0</ele><time>2026-04-11T11:28:00.907Z</time></trkpt><trkpt lat="44.5582845" lon="9.8334975"><ele>944.9999999999999</ele><time>2026-04-11T11:28:02.909Z</time></trkpt><trkpt lat="44.5581881" lon="9.8335133"><ele>946.9999999999999</ele><time>2026-04-11T11:28:04.908Z</time></trkpt><trkpt lat="44.558095" lon="9.8335126"><ele>949.0</ele><time>2026-04-11T11:28:06.908Z</time></trkpt><trkpt lat="44.557986" lon="9.8335067"><ele>951.0</ele><time>2026-04-11T11:28:08.907Z</time></trkpt><trkpt lat="44.5579341" lon="9.8333929"><ele>951.0</ele><time>2026-04-11T11:28:10.907Z</time></trkpt><trkpt lat="44.557923" lon="9.8331988"><ele>950.9999999999999</ele><time>2026-04-11T11:28:12.907Z</time></trkpt><trkpt lat="44.5579142" lon="9.8330875"><ele>950.9999999999999</ele><time>2026-04-11T11:28:13.908Z</time></trkpt><trkpt lat="44.5579081" lon="9.8329635"><ele>951.0</ele><time>2026-04-11T11:28:14.908Z</time></trkpt><trkpt lat="44.557896" lon="9.8328312"><ele>951.0</ele><time>2026-04-11T11:28:15.908Z</time></trkpt><trkpt lat="44.5578784" lon="9.8326962"><ele>944.1999999999999</ele><time>2026-04-11T11:28:16.908Z</time></trkpt><trkpt lat="44.5578591" lon="9.8325629"><ele>937.3999999999999</ele><time>2026-04-11T11:28:17.907Z</time></trkpt><trkpt lat="44.557843" lon="9.8324319"><ele>930.6</ele><time>2026-04-11T11:28:18.908Z</time></trkpt><trkpt lat="44.5578288" lon="9.8323327"><ele>923.8</ele><time>2026-04-11T11:28:19.908Z</time></trkpt><trkpt lat="44.5578196" lon="9.8322266"><ele>917.0</ele><time>2026-04-11T11:28:20.907Z</time></trkpt><trkpt lat="44.5577742" lon="9.8320756"><ele>917.0</ele><time>2026-04-11T11:28:22.908Z</time></trkpt><trkpt lat="44.5577092" lon="9.832008"><ele>917.0</ele><time>2026-04-11T11:28:35.908Z</time></trkpt><trkpt lat="44.557641" lon="9.831996"><ele>917.0</ele><time>2026-04-11T11:28:37.908Z</time></trkpt><trkpt lat="44.5575756" lon="9.8320269"><ele>917.0</ele><time>2026-04-11T11:28:38.908Z</time></trkpt><trkpt lat="44.5575125" lon="9.8320219"><ele>917.0</ele><time>2026-04-11T11:28:39.907Z</time></trkpt><trkpt lat="44.5574391" lon="9.8320366"><ele>917.0</ele><time>2026-04-11T11:28:40.907Z</time></trkpt><trkpt lat="44.5573769" lon="9.832013"><ele>917.0</ele><time>2026-04-11T11:28:41.907Z</time></trkpt><trkpt lat="44.5572436" lon="9.831976"><ele>917.0000000000001</ele><time>2026-04-11T11:28:43.908Z</time></trkpt><trkpt lat="44.5572048" lon="9.8318854"><ele>917.0</ele><time>2026-04-11T11:28:44.908Z</time></trkpt><trkpt lat="44.5571349" lon="9.831807"><ele>917.0</ele><time>2026-04-11T11:28:45.908Z</time></trkpt><trkpt lat="44.5571005" lon="9.8317164"><ele>917.0</ele><time>2026-04-11T11:28:46.908Z</time></trkpt><trkpt lat="44.5570563" lon="9.8316265"><ele>917.0000000000001</ele><time>2026-04-11T11:28:47.907Z</time></trkpt><trkpt lat="44.556958" lon="9.8315327"><ele>917.0</ele><time>2026-04-11T11:28:49.908Z</time></trkpt><trkpt lat="44.5568797" lon="9.8314477"><ele>913.4000000000001</ele><time>2026-04-11T11:28:51.907Z</time></trkpt><trkpt lat="44.5568054" lon="9.8313382"><ele>909.8000000000001</ele><time>2026-04-11T11:28:53.908Z</time></trkpt><trkpt lat="44.5567312" lon="9.831299"><ele>906.2</ele><time>2026-04-11T11:28:54.908Z</time></trkpt><trkpt lat="44.5566244" lon="9.8311668"><ele>902.6</ele><time>2026-04-11T11:28:56.908Z</time></trkpt><trkpt lat="44.5565683" lon="9.8310735"><ele>899.0</ele><time>2026-04-11T11:28:57.908Z</time></trkpt><trkpt lat="44.5564976" lon="9.8309756"><ele>900.8333333333334</ele><time>2026-04-11T11:28:58.908Z</time></trkpt><trkpt lat="44.5564206" lon="9.8308782"><ele>902.6666666666667</ele><time>2026-04-11T11:28:59.908Z</time></trkpt><trkpt lat="44.556359" lon="9.830778"><ele>904.5</ele><time>2026-04-11T11:29:00.907Z</time></trkpt><trkpt lat="44.5563048" lon="9.8307112"><ele>906.3333333333333</ele><time>2026-04-11T11:29:01.908Z</time></trkpt><trkpt lat="44.5562614" lon="9.8306249"><ele>908.1666666666666</ele><time>2026-04-11T11:29:02.908Z</time></trkpt><trkpt lat="44.5562115" lon="9.83055"><ele>910.0</ele><time>2026-04-11T11:29:03.908Z</time></trkpt><trkpt lat="44.5561568" lon="9.8304846"><ele>906.0</ele><time>2026-04-11T11:29:04.908Z</time></trkpt><trkpt lat="44.5561003" lon="9.8304218"><ele>902.0</ele><time>2026-04-11T11:29:05.907Z</time></trkpt><trkpt lat="44.5560109" lon="9.8303759"><ele>898.0</ele><time>2026-04-11T11:29:06.908Z</time></trkpt><trkpt lat="44.555906" lon="9.8302836"><ele>894.0</ele><time>2026-04-11T11:29:08.907Z</time></trkpt><trkpt lat="44.5558517" lon="9.8302011"><ele>890.0</ele><time>2026-04-11T11:29:10.908Z</time></trkpt><trkpt lat="44.5558146" lon="9.8300417"><ele>890.0000000000001</ele><time>2026-04-11T11:29:12.908Z</time></trkpt><trkpt lat="44.555776" lon="9.8298889"><ele>890.0</ele><time>2026-04-11T11:29:14.909Z</time></trkpt><trkpt lat="44.555737" lon="9.8298137"><ele>890.0</ele><time>2026-04-11T11:29:15.908Z</time></trkpt><trkpt lat="44.5557119" lon="9.8297079"><ele>890.0</ele><time>2026-04-11T11:29:16.907Z</time></trkpt><trkpt lat="44.5556857" lon="9.8296129"><ele>890.0000000000001</ele><time>2026-04-11T11:29:17.908Z</time></trkpt><trkpt lat="44.5556535" lon="9.8294936"><ele>890.0</ele><time>2026-04-11T11:29:18.908Z</time></trkpt><trkpt lat="44.5555858" lon="9.8294066"><ele>891.6</ele><time>2026-04-11T11:29:19.908Z</time></trkpt><trkpt lat="44.5555428" lon="9.8292783"><ele>893.2</ele><time>2026-04-11T11:29:20.908Z</time></trkpt><trkpt lat="44.5555136" lon="9.8291552"><ele>894.8</ele><time>2026-04-11T11:29:21.907Z</time></trkpt><trkpt lat="44.5554602" lon="9.8290833"><ele>896.4</ele><time>2026-04-11T11:29:22.908Z</time></trkpt><trkpt lat="44.5554304" lon="9.8289717"><ele>898.0</ele><time>2026-04-11T11:29:23.908Z</time></trkpt><trkpt lat="44.5553198" lon="9.8289329"><ele>893.1428571428571</ele><time>2026-04-11T11:29:25.908Z</time></trkpt><trkpt lat="44.555264" lon="9.8289966"><ele>888.2857142857142</ele><time>2026-04-11T11:29:27.908Z</time></trkpt><trkpt lat="44.555215" lon="9.8290909"><ele>883.4285714285713</ele><time>2026-04-11T11:29:28.909Z</time></trkpt><trkpt lat="44.5551816" lon="9.8291696"><ele>878.5714285714286</ele><time>2026-04-11T11:29:29.907Z</time></trkpt><trkpt lat="44.5551181" lon="9.8292336"><ele>873.7142857142857</ele><time>2026-04-11T11:29:30.908Z</time></trkpt><trkpt lat="44.5550742" lon="9.8293004"><ele>868.8571428571429</ele><time>2026-04-11T11:29:31.908Z</time></trkpt><trkpt lat="44.5550146" lon="9.829349"><ele>864.0</ele><time>2026-04-11T11:29:32.908Z</time></trkpt><trkpt lat="44.5548905" lon="9.8293072"><ele>863.8571428571429</ele><time>2026-04-11T11:29:34.907Z</time></trkpt><trkpt lat="44.5548374" lon="9.829256"><ele>863.7142857142857</ele><time>2026-04-11T11:29:35.908Z</time></trkpt><trkpt lat="44.5547778" lon="9.8291926"><ele>863.5714285714287</ele><time>2026-04-11T11:29:36.907Z</time></trkpt><trkpt lat="44.5547344" lon="9.8291187"><ele>863.4285714285714</ele><time>2026-04-11T11:29:37.908Z</time></trkpt><trkpt lat="44.5547067" lon="9.8290038"><ele>863.2857142857143</ele><time>2026-04-11T11:29:38.908Z</time></trkpt><trkpt lat="44.5547431" lon="9.8289173"><ele>863.1428571428572</ele><time>2026-04-11T11:29:39.908Z</time></trkpt><trkpt lat="44.5547273" lon="9.8288112"><ele>863.0</ele><time>2026-04-11T11:29:40.908Z</time></trkpt><trkpt lat="44.5546379" lon="9.8286519"><ele>863.0</ele><time>2026-04-11T11:29:42.908Z</time></trkpt><trkpt lat="44.5545912" lon="9.8285599"><ele>863.0</ele><time>2026-04-11T11:29:43.908Z</time></trkpt><trkpt lat="44.5545501" lon="9.8284387"><ele>863.0</ele><time>2026-04-11T11:29:44.909Z</time></trkpt><trkpt lat="44.5545209" lon="9.8283033"><ele>863.0</ele><time>2026-04-11T11:29:46.908Z</time></trkpt><trkpt lat="44.5545171" lon="9.8282057"><ele>863.0</ele><time>2026-04-11T11:29:47.908Z</time></trkpt><trkpt lat="44.5545046" lon="9.8280081"><ele>859.3333333333334</ele><time>2026-04-11T11:29:49.908Z</time></trkpt><trkpt lat="44.5544729" lon="9.8278928"><ele>855.6666666666667</ele><time>2026-04-11T11:29:50.909Z</time></trkpt><trkpt lat="44.5544213" lon="9.8277918"><ele>852.0</ele><time>2026-04-11T11:29:51.908Z</time></trkpt><trkpt lat="44.55438" lon="9.8276921"><ele>848.3333333333333</ele><time>2026-04-11T11:29:52.907Z</time></trkpt><trkpt lat="44.5543472" lon="9.8276075"><ele>844.6666666666666</ele><time>2026-04-11T11:29:53.908Z</time></trkpt><trkpt lat="44.5543014" lon="9.8275204"><ele>841.0</ele><time>2026-04-11T11:29:54.908Z</time></trkpt><trkpt lat="44.5542553" lon="9.8274361"><ele>840.9999999999999</ele><time>2026-04-11T11:29:55.908Z</time></trkpt><trkpt lat="44.5542251" lon="9.8273445"><ele>841.0</ele><time>2026-04-11T11:29:56.908Z</time></trkpt><trkpt lat="44.5541927" lon="9.8272625"><ele>841.0</ele><time>2026-04-11T11:29:57.907Z</time></trkpt><trkpt lat="44.5541126" lon="9.8271964"><ele>841.0</ele><time>2026-04-11T11:29:58.908Z</time></trkpt><trkpt lat="44.5540581" lon="9.827124"><ele>840.9999999999999</ele><time>2026-04-11T11:29:59.908Z</time></trkpt><trkpt lat="44.5540178" lon="9.8270516"><ele>841.0</ele><time>2026-04-11T11:30:00.907Z</time></trkpt><trkpt lat="44.553956" lon="9.8268945"><ele>844.1666666666666</ele><time>2026-04-11T11:30:02.908Z</time></trkpt><trkpt lat="44.5539117" lon="9.8267883"><ele>847.3333333333333</ele><time>2026-04-11T11:30:03.908Z</time></trkpt><trkpt lat="44.5538633" lon="9.8266835"><ele>850.5</ele><time>2026-04-11T11:30:04.908Z</time></trkpt><trkpt lat="44.5537872" lon="9.8266116"><ele>853.6666666666667</ele><time>2026-04-11T11:30:05.907Z</time></trkpt><trkpt lat="44.5537066" lon="9.8265191"><ele>856.8333333333334</ele><time>2026-04-11T11:30:06.908Z</time></trkpt><trkpt lat="44.5536337" lon="9.8264879"><ele>860.0</ele><time>2026-04-11T11:30:07.908Z</time></trkpt><trkpt lat="44.5535652" lon="9.826425"><ele>856.1666666666667</ele><time>2026-04-11T11:30:08.907Z</time></trkpt><trkpt lat="44.553531" lon="9.8263339"><ele>852.3333333333334</ele><time>2026-04-11T11:30:09.908Z</time></trkpt><trkpt lat="44.5534935" lon="9.8262176"><ele>848.5</ele><time>2026-04-11T11:30:10.907Z</time></trkpt><trkpt lat="44.5534398" lon="9.8261114"><ele>844.6666666666667</ele><time>2026-04-11T11:30:11.908Z</time></trkpt><trkpt lat="44.5534036" lon="9.8260067"><ele>840.8333333333334</ele><time>2026-04-11T11:30:12.908Z</time></trkpt><trkpt lat="44.5533873" lon="9.8258947"><ele>837.0</ele><time>2026-04-11T11:30:13.908Z</time></trkpt><trkpt lat="44.553344" lon="9.8257354"><ele>837.0</ele><time>2026-04-11T11:30:15.907Z</time></trkpt><trkpt lat="44.5532529" lon="9.8256039"><ele>837.0</ele><time>2026-04-11T11:30:17.906Z</time></trkpt><trkpt lat="44.5531648" lon="9.8254814"><ele>837.0</ele><time>2026-04-11T11:30:19.906Z</time></trkpt><trkpt lat="44.5531247" lon="9.8253892"><ele>837.0</ele><time>2026-04-11T11:30:20.907Z</time></trkpt><trkpt lat="44.5530851" lon="9.8252671"><ele>837.0</ele><time>2026-04-11T11:30:21.906Z</time></trkpt><trkpt lat="44.5530579" lon="9.82516"><ele>838.6666666666666</ele><time>2026-04-11T11:30:22.907Z</time></trkpt><trkpt lat="44.5530244" lon="9.8250359"><ele>840.3333333333333</ele><time>2026-04-11T11:30:23.906Z</time></trkpt><trkpt lat="44.5529587" lon="9.8249242"><ele>842.0</ele><time>2026-04-11T11:30:25.907Z</time></trkpt><trkpt lat="44.5529305" lon="9.824825"><ele>843.6666666666666</ele><time>2026-04-11T11:30:26.907Z</time></trkpt><trkpt lat="44.5529042" lon="9.824728"><ele>845.3333333333333</ele><time>2026-04-11T11:30:27.906Z</time></trkpt><trkpt lat="44.552883" lon="9.8246116"><ele>847.0</ele><time>2026-04-11T11:30:29.906Z</time></trkpt><trkpt lat="44.5528077" lon="9.8245107"><ele>847.0</ele><time>2026-04-11T11:30:31.907Z</time></trkpt><trkpt lat="44.5527804" lon="9.8246081"><ele>847.0</ele><time>2026-04-11T11:30:34.907Z</time></trkpt><trkpt lat="44.5527595" lon="9.8247464"><ele>847.0</ele><time>2026-04-11T11:30:36.907Z</time></trkpt><trkpt lat="44.5527768" lon="9.8249104"><ele>847.0</ele><time>2026-04-11T11:30:38.906Z</time></trkpt><trkpt lat="44.5527698" lon="9.8250614"><ele>847.0</ele><time>2026-04-11T11:30:39.907Z</time></trkpt><trkpt lat="44.552738" lon="9.8251917"><ele>845.2</ele><time>2026-04-11T11:30:40.907Z</time></trkpt><trkpt lat="44.5527006" lon="9.8253179"><ele>843.4000000000001</ele><time>2026-04-11T11:30:41.906Z</time></trkpt><trkpt lat="44.5526772" lon="9.825432"><ele>841.5999999999999</ele><time>2026-04-11T11:30:42.908Z</time></trkpt><trkpt lat="44.5526654" lon="9.82554"><ele>839.8</ele><time>2026-04-11T11:30:43.906Z</time></trkpt><trkpt lat="44.5526441" lon="9.8256356"><ele>838.0</ele><time>2026-04-11T11:30:44.907Z</time></trkpt><trkpt lat="44.5525583" lon="9.8257636"><ele>837.9999999999999</ele><time>2026-04-11T11:30:46.907Z</time></trkpt><trkpt lat="44.5524735" lon="9.8258006"><ele>838.0</ele><time>2026-04-11T11:30:47.907Z</time></trkpt><trkpt lat="44.5524124" lon="9.8258491"><ele>838.0</ele><time>2026-04-11T11:30:48.907Z</time></trkpt><trkpt lat="44.5523465" lon="9.8258965"><ele>838.0</ele><time>2026-04-11T11:30:49.906Z</time></trkpt><trkpt lat="44.5522928" lon="9.82595"><ele>837.9999999999999</ele><time>2026-04-11T11:30:50.907Z</time></trkpt><trkpt lat="44.552234" lon="9.8259937"><ele>838.0</ele><time>2026-04-11T11:30:51.906Z</time></trkpt><trkpt lat="44.5521499" lon="9.8261273"><ele>838.7142857142857</ele><time>2026-04-11T11:30:53.907Z</time></trkpt><trkpt lat="44.5520876" lon="9.826161"><ele>839.4285714285714</ele><time>2026-04-11T11:30:54.907Z</time></trkpt><trkpt lat="44.552016" lon="9.8261632"><ele>840.1428571428571</ele><time>2026-04-11T11:30:55.906Z</time></trkpt><trkpt lat="44.5519309" lon="9.8261671"><ele>840.8571428571429</ele><time>2026-04-11T11:30:56.907Z</time></trkpt><trkpt lat="44.5518462" lon="9.8261761"><ele>841.5714285714286</ele><time>2026-04-11T11:30:57.907Z</time></trkpt><trkpt lat="44.5517817" lon="9.8261985"><ele>842.2857142857142</ele><time>2026-04-11T11:30:58.906Z</time></trkpt><trkpt lat="44.551713" lon="9.8262303"><ele>843.0</ele><time>2026-04-11T11:30:59.907Z</time></trkpt><trkpt lat="44.551638" lon="9.8262783"><ele>843.0</ele><time>2026-04-11T11:31:00.906Z</time></trkpt><trkpt lat="44.5515496" lon="9.8262886"><ele>843.0</ele><time>2026-04-11T11:31:01.907Z</time></trkpt><trkpt lat="44.5514612" lon="9.8262835"><ele>843.0</ele><time>2026-04-11T11:31:02.906Z</time></trkpt><trkpt lat="44.5513748" lon="9.8263285"><ele>843.0</ele><time>2026-04-11T11:31:03.907Z</time></trkpt><trkpt lat="44.5512956" lon="9.8263627"><ele>843.0</ele><time>2026-04-11T11:31:04.906Z</time></trkpt><trkpt lat="44.5512133" lon="9.8263723"><ele>843.0</ele><time>2026-04-11T11:31:05.907Z</time></trkpt><trkpt lat="44.5511229" lon="9.8263904"><ele>846.0</ele><time>2026-04-11T11:31:06.906Z</time></trkpt><trkpt lat="44.5510436" lon="9.8264088"><ele>849.0</ele><time>2026-04-11T11:31:07.906Z</time></trkpt><trkpt lat="44.5509693" lon="9.8264257"><ele>852.0</ele><time>2026-04-11T11:31:08.907Z</time></trkpt><trkpt lat="44.5508484" lon="9.8264284"><ele>855.0</ele><time>2026-04-11T11:31:10.907Z</time></trkpt><trkpt lat="44.5507703" lon="9.8264012"><ele>858.0</ele><time>2026-04-11T11:31:11.907Z</time></trkpt><trkpt lat="44.5506842" lon="9.8263932"><ele>861.0</ele><time>2026-04-11T11:31:12.907Z</time></trkpt><trkpt lat="44.5505966" lon="9.8264417"><ele>861.0</ele><time>2026-04-11T11:31:13.908Z</time></trkpt><trkpt lat="44.5505328" lon="9.8264126"><ele>861.0</ele><time>2026-04-11T11:31:14.907Z</time></trkpt><trkpt lat="44.5504558" lon="9.8264531"><ele>861.0</ele><time>2026-04-11T11:31:15.906Z</time></trkpt><trkpt lat="44.5503711" lon="9.8264597"><ele>861.0</ele><time>2026-04-11T11:31:16.907Z</time></trkpt><trkpt lat="44.5502628" lon="9.8264216"><ele>861.0</ele><time>2026-04-11T11:31:17.906Z</time></trkpt><trkpt lat="44.5502426" lon="9.8263072"><ele>861.0</ele><time>2026-04-11T11:31:18.907Z</time></trkpt><trkpt lat="44.5501565" lon="9.8262654"><ele>863.1999999999999</ele><time>2026-04-11T11:31:19.906Z</time></trkpt><trkpt lat="44.5500843" lon="9.8262202"><ele>865.3999999999999</ele><time>2026-04-11T11:31:20.907Z</time></trkpt><trkpt lat="44.5500122" lon="9.8260807"><ele>867.6</ele><time>2026-04-11T11:31:22.908Z</time></trkpt><trkpt lat="44.5499683" lon="9.826009"><ele>869.8</ele><time>2026-04-11T11:31:23.906Z</time></trkpt><trkpt lat="44.5499301" lon="9.825937"><ele>872.0</ele><time>2026-04-11T11:31:24.907Z</time></trkpt><trkpt lat="44.5499333" lon="9.8257661"><ele>873.1666666666667</ele><time>2026-04-11T11:31:26.907Z</time></trkpt><trkpt lat="44.5499077" lon="9.8256585"><ele>874.3333333333334</ele><time>2026-04-11T11:31:28.907Z</time></trkpt><trkpt lat="44.5498377" lon="9.8256175"><ele>875.5</ele><time>2026-04-11T11:31:31.908Z</time></trkpt><trkpt lat="44.5497153" lon="9.8256985"><ele>876.6666666666667</ele><time>2026-04-11T11:31:33.907Z</time></trkpt><trkpt lat="44.5496502" lon="9.8257358"><ele>877.8333333333334</ele><time>2026-04-11T11:31:34.907Z</time></trkpt><trkpt lat="44.5495853" lon="9.825778"><ele>879.0</ele><time>2026-04-11T11:31:35.906Z</time></trkpt><trkpt lat="44.5495037" lon="9.825792"><ele>879.6</ele><time>2026-04-11T11:31:36.907Z</time></trkpt><trkpt lat="44.5493912" lon="9.8258281"><ele>880.2</ele><time>2026-04-11T11:31:38.907Z</time></trkpt><trkpt lat="44.5493226" lon="9.8258472"><ele>880.8000000000001</ele><time>2026-04-11T11:31:39.906Z</time></trkpt><trkpt lat="44.5492371" lon="9.8258898"><ele>881.4000000000001</ele><time>2026-04-11T11:31:41.907Z</time></trkpt><trkpt lat="44.549115" lon="9.8259213"><ele>882.0</ele><time>2026-04-11T11:31:43.906Z</time></trkpt><trkpt lat="44.5490166" lon="9.8259432"><ele>882.0</ele><time>2026-04-11T11:31:45.906Z</time></trkpt><trkpt lat="44.5489541" lon="9.8259761"><ele>882.0</ele><time>2026-04-11T11:31:46.907Z</time></trkpt><trkpt lat="44.5488906" lon="9.8260065"><ele>882.0</ele><time>2026-04-11T11:31:47.906Z</time></trkpt><trkpt lat="44.5488149" lon="9.8260141"><ele>882.0</ele><time>2026-04-11T11:31:48.906Z</time></trkpt><trkpt lat="44.5487447" lon="9.8260323"><ele>882.0</ele><time>2026-04-11T11:31:49.907Z</time></trkpt><trkpt lat="44.5486568" lon="9.8260333"><ele>882.0</ele><time>2026-04-11T11:31:50.906Z</time></trkpt><trkpt lat="44.5485763" lon="9.8260376"><ele>881.6666666666666</ele><time>2026-04-11T11:31:51.907Z</time></trkpt><trkpt lat="44.5484945" lon="9.8260243"><ele>881.3333333333333</ele><time>2026-04-11T11:31:52.907Z</time></trkpt><trkpt lat="44.5484264" lon="9.826036"><ele>881.0</ele><time>2026-04-11T11:31:53.907Z</time></trkpt><trkpt lat="44.5483296" lon="9.8260486"><ele>880.6666666666666</ele><time>2026-04-11T11:31:55.907Z</time></trkpt><trkpt lat="44.548251" lon="9.8260354"><ele>880.3333333333333</ele><time>2026-04-11T11:31:57.906Z</time></trkpt><trkpt lat="44.5481572" lon="9.8260198"><ele>880.0</ele><time>2026-04-11T11:31:59.906Z</time></trkpt><trkpt lat="44.5480406" lon="9.8259588"><ele>879.9999999999999</ele><time>2026-04-11T11:32:01.907Z</time></trkpt><trkpt lat="44.5479799" lon="9.8259061"><ele>880.0</ele><time>2026-04-11T11:32:02.906Z</time></trkpt><trkpt lat="44.5479212" lon="9.8258468"><ele>880.0</ele><time>2026-04-11T11:32:03.907Z</time></trkpt><trkpt lat="44.5478447" lon="9.8257969"><ele>880.0</ele><time>2026-04-11T11:32:04.907Z</time></trkpt><trkpt lat="44.547769" lon="9.8257523"><ele>879.9999999999999</ele><time>2026-04-11T11:32:05.907Z</time></trkpt><trkpt lat="44.5476965" lon="9.8257024"><ele>880.0</ele><time>2026-04-11T11:32:06.907Z</time></trkpt><trkpt lat="44.5476156" lon="9.8256531"><ele>879.8333333333333</ele><time>2026-04-11T11:32:07.907Z</time></trkpt><trkpt lat="44.5475415" lon="9.8256188"><ele>879.6666666666666</ele><time>2026-04-11T11:32:08.907Z</time></trkpt><trkpt lat="44.5474572" lon="9.8255508"><ele>879.5</ele><time>2026-04-11T11:32:09.907Z</time></trkpt><trkpt lat="44.5473776" lon="9.8254925"><ele>879.3333333333333</ele><time>2026-04-11T11:32:10.906Z</time></trkpt><trkpt lat="44.5473129" lon="9.8254309"><ele>879.1666666666666</ele><time>2026-04-11T11:32:11.907Z</time></trkpt><trkpt lat="44.5472506" lon="9.8254049"><ele>879.0</ele><time>2026-04-11T11:32:12.906Z</time></trkpt><trkpt lat="44.5471455" lon="9.8254164"><ele>879.0</ele><time>2026-04-11T11:32:14.907Z</time></trkpt><trkpt lat="44.5471408" lon="9.8255318"><ele>879.0000000000001</ele><time>2026-04-11T11:32:15.907Z</time></trkpt><trkpt lat="44.5471356" lon="9.82565"><ele>879.0000000000001</ele><time>2026-04-11T11:32:16.907Z</time></trkpt><trkpt lat="44.5471236" lon="9.8257783"><ele>879.0</ele><time>2026-04-11T11:32:17.907Z</time></trkpt><trkpt lat="44.5470884" lon="9.8259035"><ele>879.0</ele><time>2026-04-11T11:32:18.907Z</time></trkpt><trkpt lat="44.5470382" lon="9.8260263"><ele>879.25</ele><time>2026-04-11T11:32:19.907Z</time></trkpt><trkpt lat="44.5469473" lon="9.8261416"><ele>879.5</ele><time>2026-04-11T11:32:20.906Z</time></trkpt><trkpt lat="44.5468436" lon="9.8262581"><ele>879.75</ele><time>2026-04-11T11:32:21.907Z</time></trkpt><trkpt lat="44.5467065" lon="9.8263971"><ele>880.0</ele><time>2026-04-11T11:32:22.906Z</time></trkpt><trkpt lat="44.5465829" lon="9.8265355"><ele>880.0</ele><time>2026-04-11T11:32:23.906Z</time></trkpt><trkpt lat="44.5464514" lon="9.8266497"><ele>880.0</ele><time>2026-04-11T11:32:24.907Z</time></trkpt><trkpt lat="44.5463301" lon="9.8267436"><ele>880.0</ele><time>2026-04-11T11:32:25.907Z</time></trkpt><trkpt lat="44.5462177" lon="9.8268311"><ele>880.0</ele><time>2026-04-11T11:32:26.907Z</time></trkpt><trkpt lat="44.5461289" lon="9.8269065"><ele>880.6</ele><time>2026-04-11T11:32:27.907Z</time></trkpt><trkpt lat="44.5460418" lon="9.826998"><ele>881.2</ele><time>2026-04-11T11:32:28.907Z</time></trkpt><trkpt lat="44.5460301" lon="9.8271554"><ele>881.8</ele><time>2026-04-11T11:32:29.907Z</time></trkpt><trkpt lat="44.5460158" lon="9.8273085"><ele>882.4</ele><time>2026-04-11T11:32:30.907Z</time></trkpt><trkpt lat="44.5459981" lon="9.8274667"><ele>883.0</ele><time>2026-04-11T11:32:31.907Z</time></trkpt><trkpt lat="44.5459483" lon="9.8276278"><ele>883.0</ele><time>2026-04-11T11:32:32.907Z</time></trkpt><trkpt lat="44.5458704" lon="9.827816"><ele>883.0</ele><time>2026-04-11T11:32:33.907Z</time></trkpt><trkpt lat="44.5457784" lon="9.8280249"><ele>883.0</ele><time>2026-04-11T11:32:34.907Z</time></trkpt><trkpt lat="44.5456842" lon="9.8282334"><ele>884.3333333333333</ele><time>2026-04-11T11:32:35.906Z</time></trkpt><trkpt lat="44.5455783" lon="9.8284888"><ele>885.6666666666667</ele><time>2026-04-11T11:32:36.906Z</time></trkpt><trkpt lat="44.5454803" lon="9.8287121"><ele>887.0</ele><time>2026-04-11T11:32:37.906Z</time></trkpt><trkpt lat="44.5453682" lon="9.8289365"><ele>887.0</ele><time>2026-04-11T11:32:38.906Z</time></trkpt><trkpt lat="44.5452579" lon="9.8291662"><ele>887.0</ele><time>2026-04-11T11:32:39.907Z</time></trkpt><trkpt lat="44.5451249" lon="9.8294167"><ele>887.0</ele><time>2026-04-11T11:32:40.907Z</time></trkpt><trkpt lat="44.5449853" lon="9.8296652"><ele>887.0</ele><time>2026-04-11T11:32:41.907Z</time></trkpt><trkpt lat="44.5448558" lon="9.8298877"><ele>887.0</ele><time>2026-04-11T11:32:42.907Z</time></trkpt><trkpt lat="44.544719" lon="9.8300966"><ele>887.0</ele><time>2026-04-11T11:32:43.907Z</time></trkpt><trkpt lat="44.5445718" lon="9.8302984"><ele>888.6666666666667</ele><time>2026-04-11T11:32:44.907Z</time></trkpt><trkpt lat="44.5444175" lon="9.8305015"><ele>890.3333333333333</ele><time>2026-04-11T11:32:45.906Z</time></trkpt><trkpt lat="44.5442818" lon="9.8306848"><ele>892.0</ele><time>2026-04-11T11:32:46.906Z</time></trkpt><trkpt lat="44.5441536" lon="9.8308622"><ele>889.6666666666666</ele><time>2026-04-11T11:32:47.907Z</time></trkpt><trkpt lat="44.5440327" lon="9.8310319"><ele>887.3333333333333</ele><time>2026-04-11T11:32:48.906Z</time></trkpt><trkpt lat="44.5439262" lon="9.8311854"><ele>885.0</ele><time>2026-04-11T11:32:49.907Z</time></trkpt><trkpt lat="44.5438234" lon="9.8313398"><ele>885.0</ele><time>2026-04-11T11:32:50.907Z</time></trkpt><trkpt lat="44.5437617" lon="9.8314293"><ele>885.0</ele><time>2026-04-11T11:32:51.907Z</time></trkpt><trkpt lat="44.5436997" lon="9.8315078"><ele>885.0</ele><time>2026-04-11T11:32:52.907Z</time></trkpt><trkpt lat="44.5436507" lon="9.8316306"><ele>885.0</ele><time>2026-04-11T11:32:54.907Z</time></trkpt><trkpt lat="44.5435926" lon="9.8315787"><ele>885.0</ele><time>2026-04-11T11:34:19.907Z</time></trkpt><trkpt lat="44.5435282" lon="9.8315423"><ele>885.0</ele><time>2026-04-11T11:34:27.907Z</time></trkpt><trkpt lat="44.5435944" lon="9.8315699"><ele>885.0</ele><time>2026-04-11T11:45:10.905Z</time></trkpt><trkpt lat="44.5436674" lon="9.8315679"><ele>885.0</ele><time>2026-04-11T11:45:14.905Z</time></trkpt><trkpt lat="44.5437328" lon="9.831593"><ele>885.0</ele><time>2026-04-11T11:45:20.905Z</time></trkpt><trkpt lat="44.5436696" lon="9.8315377"><ele>885.0</ele><time>2026-04-11T12:03:28.9Z</time></trkpt><trkpt lat="44.5436117" lon="9.8314739"><ele>885.0</ele><time>2026-04-11T12:03:32.984Z</time></trkpt><trkpt lat="44.5435812" lon="9.8313625"><ele>885.0</ele><time>2026-04-11T12:03:39.899Z</time></trkpt><trkpt lat="44.5435684" lon="9.8312679"><ele>885.0</ele><time>2026-04-11T12:03:42.9Z</time></trkpt><trkpt lat="44.5434608" lon="9.8307682"><ele>891.0</ele><time>2026-04-11T12:03:45.899Z</time></trkpt><trkpt lat="44.5434481" lon="9.8306151"><ele>897.0</ele><time>2026-04-11T12:03:46.899Z</time></trkpt><trkpt lat="44.5434417" lon="9.8304083"><ele>903.0</ele><time>2026-04-11T12:03:48.899Z</time></trkpt><trkpt lat="44.5434353" lon="9.8303197"><ele>909.0</ele><time>2026-04-11T12:03:49.899Z</time></trkpt><trkpt lat="44.543404" lon="9.8301583"><ele>915.0</ele><time>2026-04-11T12:03:51.899Z</time></trkpt><trkpt lat="44.5434022" lon="9.8299894"><ele>915.0</ele><time>2026-04-11T12:03:53.899Z</time></trkpt><trkpt lat="44.5434074" lon="9.829901"><ele>915.0</ele><time>2026-04-11T12:03:54.899Z</time></trkpt><trkpt lat="44.5434062" lon="9.8298054"><ele>915.0</ele><time>2026-04-11T12:03:55.899Z</time></trkpt><trkpt lat="44.5433918" lon="9.8297162"><ele>915.0</ele><time>2026-04-11T12:03:56.899Z</time></trkpt><trkpt lat="44.5433738" lon="9.8295393"><ele>915.0</ele><time>2026-04-11T12:03:58.899Z</time></trkpt><trkpt lat="44.5433367" lon="9.8293564"><ele>915.6666666666666</ele><time>2026-04-11T12:04:00.898Z</time></trkpt><trkpt lat="44.5433424" lon="9.8292476"><ele>916.3333333333333</ele><time>2026-04-11T12:04:01.899Z</time></trkpt><trkpt lat="44.5433634" lon="9.8291533"><ele>917.0</ele><time>2026-04-11T12:04:02.899Z</time></trkpt><trkpt lat="44.5433758" lon="9.8290666"><ele>917.6666666666666</ele><time>2026-04-11T12:04:03.899Z</time></trkpt><trkpt lat="44.5433645" lon="9.8288681"><ele>918.3333333333333</ele><time>2026-04-11T12:04:05.899Z</time></trkpt><trkpt lat="44.543355" lon="9.8287701"><ele>919.0</ele><time>2026-04-11T12:04:06.899Z</time></trkpt><trkpt lat="44.5433412" lon="9.8286552"><ele>919.0</ele><time>2026-04-11T12:04:07.899Z</time></trkpt><trkpt lat="44.5433317" lon="9.8285402"><ele>919.0000000000001</ele><time>2026-04-11T12:04:08.899Z</time></trkpt><trkpt lat="44.5433283" lon="9.8284443"><ele>919.0000000000001</ele><time>2026-04-11T12:04:09.898Z</time></trkpt><trkpt lat="44.5433565" lon="9.8282693"><ele>919.0</ele><time>2026-04-11T12:04:11.898Z</time></trkpt><trkpt lat="44.5433596" lon="9.828101"><ele>919.0</ele><time>2026-04-11T12:04:13.899Z</time></trkpt><trkpt lat="44.5433622" lon="9.827997"><ele>919.1666666666666</ele><time>2026-04-11T12:04:14.898Z</time></trkpt><trkpt lat="44.5433672" lon="9.8278871"><ele>919.3333333333333</ele><time>2026-04-11T12:04:15.899Z</time></trkpt><trkpt lat="44.543364" lon="9.8277815"><ele>919.5</ele><time>2026-04-11T12:04:16.899Z</time></trkpt><trkpt lat="44.5433581" lon="9.8276771"><ele>919.6666666666667</ele><time>2026-04-11T12:04:17.898Z</time></trkpt><trkpt lat="44.5433485" lon="9.827584"><ele>919.8333333333334</ele><time>2026-04-11T12:04:18.899Z</time></trkpt><trkpt lat="44.5433374" lon="9.8274764"><ele>920.0</ele><time>2026-04-11T12:04:19.899Z</time></trkpt><trkpt lat="44.5433311" lon="9.8273202"><ele>921.8</ele><time>2026-04-11T12:04:21.899Z</time></trkpt><trkpt lat="44.5433474" lon="9.8271243"><ele>923.6</ele><time>2026-04-11T12:04:23.9Z</time></trkpt><trkpt lat="44.5433745" lon="9.8270275"><ele>925.4000000000001</ele><time>2026-04-11T12:04:24.899Z</time></trkpt><trkpt lat="44.5433874" lon="9.8269309"><ele>927.2</ele><time>2026-04-11T12:04:25.899Z</time></trkpt><trkpt lat="44.5434035" lon="9.826837"><ele>929.0</ele><time>2026-04-11T12:04:26.899Z</time></trkpt><trkpt lat="44.5434101" lon="9.8266689"><ele>931.0</ele><time>2026-04-11T12:04:28.9Z</time></trkpt><trkpt lat="44.5433847" lon="9.8265456"><ele>933.0000000000001</ele><time>2026-04-11T12:04:29.899Z</time></trkpt><trkpt lat="44.5433878" lon="9.8264174"><ele>935.0000000000001</ele><time>2026-04-11T12:04:30.899Z</time></trkpt><trkpt lat="44.543411" lon="9.8263271"><ele>937.0</ele><time>2026-04-11T12:04:31.898Z</time></trkpt><trkpt lat="44.5434237" lon="9.8261716"><ele>939.0</ele><time>2026-04-11T12:04:33.899Z</time></trkpt><trkpt lat="44.5434523" lon="9.8260219"><ele>941.6</ele><time>2026-04-11T12:04:35.898Z</time></trkpt><trkpt lat="44.5434707" lon="9.8259329"><ele>944.2</ele><time>2026-04-11T12:04:36.899Z</time></trkpt><trkpt lat="44.5434858" lon="9.8258399"><ele>946.8000000000001</ele><time>2026-04-11T12:04:37.899Z</time></trkpt><trkpt lat="44.5435091" lon="9.8256964"><ele>949.4000000000001</ele><time>2026-04-11T12:04:39.899Z</time></trkpt><trkpt lat="44.5435688" lon="9.8255659"><ele>952.0</ele><time>2026-04-11T12:04:41.899Z</time></trkpt><trkpt lat="44.5436084" lon="9.8254266"><ele>952.0</ele><time>2026-04-11T12:04:43.899Z</time></trkpt><trkpt lat="44.5436506" lon="9.8252689"><ele>952.0</ele><time>2026-04-11T12:04:45.898Z</time></trkpt><trkpt lat="44.543643" lon="9.8251703"><ele>952.0</ele><time>2026-04-11T12:04:46.899Z</time></trkpt><trkpt lat="44.5435259" lon="9.8251736"><ele>952.0</ele><time>2026-04-11T12:04:48.9Z</time></trkpt><trkpt lat="44.5434587" lon="9.825197"><ele>952.0</ele><time>2026-04-11T12:04:49.899Z</time></trkpt><trkpt lat="44.5433854" lon="9.8252489"><ele>951.9999999999999</ele><time>2026-04-11T12:04:50.899Z</time></trkpt><trkpt lat="44.5433185" lon="9.8253077"><ele>952.0</ele><time>2026-04-11T12:04:51.899Z</time></trkpt><trkpt lat="44.5432484" lon="9.8253744"><ele>952.0</ele><time>2026-04-11T12:04:52.898Z</time></trkpt><trkpt lat="44.5431876" lon="9.8254186"><ele>952.0</ele><time>2026-04-11T12:04:53.899Z</time></trkpt><trkpt lat="44.5431114" lon="9.8253868"><ele>951.9999999999999</ele><time>2026-04-11T12:04:55.899Z</time></trkpt><trkpt lat="44.5431401" lon="9.8252291"><ele>952.0</ele><time>2026-04-11T12:04:58.899Z</time></trkpt><trkpt lat="44.5431692" lon="9.8251406"><ele>957.0</ele><time>2026-04-11T12:04:59.898Z</time></trkpt><trkpt lat="44.543203" lon="9.8250273"><ele>962.0</ele><time>2026-04-11T12:05:00.899Z</time></trkpt><trkpt lat="44.5432658" lon="9.8248185"><ele>967.0</ele><time>2026-04-11T12:05:02.899Z</time></trkpt><trkpt lat="44.543297" lon="9.8247243"><ele>972.0</ele><time>2026-04-11T12:05:03.899Z</time></trkpt><trkpt lat="44.5433778" lon="9.8245689"><ele>972.0</ele><time>2026-04-11T12:05:05.898Z</time></trkpt><trkpt lat="44.5434381" lon="9.8244694"><ele>972.0</ele><time>2026-04-11T12:05:06.898Z</time></trkpt><trkpt lat="44.5434909" lon="9.8243449"><ele>972.0</ele><time>2026-04-11T12:05:07.899Z</time></trkpt><trkpt lat="44.5435472" lon="9.8242058"><ele>972.0</ele><time>2026-04-11T12:05:08.899Z</time></trkpt><trkpt lat="44.5436038" lon="9.8240774"><ele>972.0</ele><time>2026-04-11T12:05:09.9Z</time></trkpt><trkpt lat="44.5436522" lon="9.8239607"><ele>972.25</ele><time>2026-04-11T12:05:10.899Z</time></trkpt><trkpt lat="44.5437066" lon="9.8238346"><ele>972.5</ele><time>2026-04-11T12:05:11.899Z</time></trkpt><trkpt lat="44.543777" lon="9.823599"><ele>972.75</ele><time>2026-04-11T12:05:14.899Z</time></trkpt><trkpt lat="44.543799" lon="9.823473"><ele>973.0</ele><time>2026-04-11T12:05:16.899Z</time></trkpt><trkpt lat="44.5438313" lon="9.8232973"><ele>974.9999999999999</ele><time>2026-04-11T12:05:18.898Z</time></trkpt><trkpt lat="44.5438467" lon="9.8231831"><ele>977.0</ele><time>2026-04-11T12:05:19.899Z</time></trkpt><trkpt lat="44.5438684" lon="9.8230707"><ele>979.0</ele><time>2026-04-11T12:05:20.899Z</time></trkpt><trkpt lat="44.5438961" lon="9.8229716"><ele>981.0</ele><time>2026-04-11T12:05:21.899Z</time></trkpt><trkpt lat="44.5439761" lon="9.8228532"><ele>982.9999999999999</ele><time>2026-04-11T12:05:23.899Z</time></trkpt><trkpt lat="44.5440168" lon="9.8227824"><ele>985.0</ele><time>2026-04-11T12:05:24.899Z</time></trkpt><trkpt lat="44.5440647" lon="9.8227058"><ele>987.8333333333333</ele><time>2026-04-11T12:05:25.899Z</time></trkpt><trkpt lat="44.5441092" lon="9.8226264"><ele>990.6666666666666</ele><time>2026-04-11T12:05:26.899Z</time></trkpt><trkpt lat="44.5441568" lon="9.8225252"><ele>993.5</ele><time>2026-04-11T12:05:27.898Z</time></trkpt><trkpt lat="44.5442068" lon="9.8224198"><ele>996.3333333333333</ele><time>2026-04-11T12:05:28.899Z</time></trkpt><trkpt lat="44.5442567" lon="9.8222963"><ele>999.1666666666666</ele><time>2026-04-11T12:05:29.899Z</time></trkpt><trkpt lat="44.5442938" lon="9.8221862"><ele>1002.0</ele><time>2026-04-11T12:05:30.899Z</time></trkpt><trkpt lat="44.544375" lon="9.8220255"><ele>1002.0</ele><time>2026-04-11T12:05:32.898Z</time></trkpt><trkpt lat="44.5444287" lon="9.8219654"><ele>1002.0</ele><time>2026-04-11T12:05:33.899Z</time></trkpt><trkpt lat="44.544495" lon="9.821913"><ele>1002.0</ele><time>2026-04-11T12:05:34.899Z</time></trkpt><trkpt lat="44.544553" lon="9.821824"><ele>1002.0</ele><time>2026-04-11T12:05:36.899Z</time></trkpt><trkpt lat="44.5445995" lon="9.8217342"><ele>1002.0</ele><time>2026-04-11T12:05:40.899Z</time></trkpt><trkpt lat="44.5446123" lon="9.8215815"><ele>1002.0</ele><time>2026-04-11T12:05:43.899Z</time></trkpt><trkpt lat="44.5446179" lon="9.8214657"><ele>1001.8333333333334</ele><time>2026-04-11T12:05:45.899Z</time></trkpt><trkpt lat="44.5446294" lon="9.8213628"><ele>1001.6666666666667</ele><time>2026-04-11T12:05:46.899Z</time></trkpt><trkpt lat="44.5446462" lon="9.8212595"><ele>1001.5</ele><time>2026-04-11T12:05:47.899Z</time></trkpt><trkpt lat="44.544658" lon="9.8211695"><ele>1001.3333333333334</ele><time>2026-04-11T12:05:48.899Z</time></trkpt><trkpt lat="44.5446911" lon="9.821091"><ele>1001.1666666666667</ele><time>2026-04-11T12:05:49.899Z</time></trkpt><trkpt lat="44.5447493" lon="9.8209395"><ele>1001.0</ele><time>2026-04-11T12:05:51.899Z</time></trkpt><trkpt lat="44.5447887" lon="9.8207694"><ele>1003.0</ele><time>2026-04-11T12:05:53.899Z</time></trkpt><trkpt lat="44.5448176" lon="9.8206799"><ele>1005.0</ele><time>2026-04-11T12:05:54.899Z</time></trkpt><trkpt lat="44.5448598" lon="9.8206036"><ele>1007.0</ele><time>2026-04-11T12:05:55.899Z</time></trkpt><trkpt lat="44.5449097" lon="9.8205344"><ele>1009.0</ele><time>2026-04-11T12:05:56.899Z</time></trkpt><trkpt lat="44.5449545" lon="9.8204433"><ele>1011.0</ele><time>2026-04-11T12:05:57.899Z</time></trkpt><trkpt lat="44.5449921" lon="9.820345"><ele>1013.0</ele><time>2026-04-11T12:05:58.899Z</time></trkpt><trkpt lat="44.5450316" lon="9.8202655"><ele>1015.0</ele><time>2026-04-11T12:05:59.899Z</time></trkpt><trkpt lat="44.5450906" lon="9.8201971"><ele>1016.8571428571429</ele><time>2026-04-11T12:06:00.9Z</time></trkpt><trkpt lat="44.545142" lon="9.8201398"><ele>1018.7142857142858</ele><time>2026-04-11T12:06:01.898Z</time></trkpt><trkpt lat="44.5451927" lon="9.8200696"><ele>1020.5714285714286</ele><time>2026-04-11T12:06:02.899Z</time></trkpt><trkpt lat="44.5452489" lon="9.8199909"><ele>1022.4285714285714</ele><time>2026-04-11T12:06:03.899Z</time></trkpt><trkpt lat="44.5453082" lon="9.8199277"><ele>1024.2857142857142</ele><time>2026-04-11T12:06:04.898Z</time></trkpt><trkpt lat="44.5453655" lon="9.8198621"><ele>1026.142857142857</ele><time>2026-04-11T12:06:05.899Z</time></trkpt><trkpt lat="44.5454158" lon="9.81979"><ele>1028.0</ele><time>2026-04-11T12:06:06.899Z</time></trkpt><trkpt lat="44.5454681" lon="9.8197049"><ele>1028.0</ele><time>2026-04-11T12:06:07.899Z</time></trkpt><trkpt lat="44.545524" lon="9.8196361"><ele>1028.0</ele><time>2026-04-11T12:06:08.899Z</time></trkpt><trkpt lat="44.5455769" lon="9.8195713"><ele>1028.0</ele><time>2026-04-11T12:06:09.899Z</time></trkpt><trkpt lat="44.5456371" lon="9.8194444"><ele>1028.0</ele><time>2026-04-11T12:06:11.9Z</time></trkpt><trkpt lat="44.5456804" lon="9.8193475"><ele>1028.0</ele><time>2026-04-11T12:06:39.899Z</time></trkpt><trkpt lat="44.5457358" lon="9.8192335"><ele>1028.0</ele><time>2026-04-11T12:06:41.899Z</time></trkpt><trkpt lat="44.5457941" lon="9.8191136"><ele>1031.5</ele><time>2026-04-11T12:06:43.898Z</time></trkpt><trkpt lat="44.5458613" lon="9.819045"><ele>1035.0</ele><time>2026-04-11T12:06:44.898Z</time></trkpt><trkpt lat="44.5459267" lon="9.8190044"><ele>1038.5</ele><time>2026-04-11T12:06:45.899Z</time></trkpt><trkpt lat="44.5460263" lon="9.8189572"><ele>1042.0</ele><time>2026-04-11T12:06:47.899Z</time></trkpt><trkpt lat="44.5461018" lon="9.8189452"><ele>1045.5</ele><time>2026-04-11T12:06:49.898Z</time></trkpt><trkpt lat="44.5461861" lon="9.8189233"><ele>1049.0</ele><time>2026-04-11T12:06:51.898Z</time></trkpt><trkpt lat="44.5462864" lon="9.8189663"><ele>1049.4</ele><time>2026-04-11T12:06:53.899Z</time></trkpt><trkpt lat="44.5464116" lon="9.8190167"><ele>1049.8000000000002</ele><time>2026-04-11T12:06:55.899Z</time></trkpt><trkpt lat="44.5464845" lon="9.8190354"><ele>1050.1999999999998</ele><time>2026-04-11T12:06:56.899Z</time></trkpt><trkpt lat="44.5464889" lon="9.8189112"><ele>1050.6</ele><time>2026-04-11T12:06:57.898Z</time></trkpt><trkpt lat="44.5465818" lon="9.818748"><ele>1051.0</ele><time>2026-04-11T12:06:59.898Z</time></trkpt><trkpt lat="44.5466225" lon="9.8186746"><ele>1051.0</ele><time>2026-04-11T12:07:00.898Z</time></trkpt><trkpt lat="44.5466854" lon="9.8186508"><ele>1051.0</ele><time>2026-04-11T12:07:01.898Z</time></trkpt><trkpt lat="44.5467495" lon="9.8186219"><ele>1051.0</ele><time>2026-04-11T12:07:02.898Z</time></trkpt><trkpt lat="44.5468147" lon="9.8186267"><ele>1051.0</ele><time>2026-04-11T12:07:03.899Z</time></trkpt><trkpt lat="44.54689" lon="9.8186155"><ele>1051.0</ele><time>2026-04-11T12:07:05.899Z</time></trkpt><trkpt lat="44.5469228" lon="9.8184662"><ele>1051.0</ele><time>2026-04-11T12:07:08.899Z</time></trkpt><trkpt lat="44.5469511" lon="9.8183515"><ele>1054.5</ele><time>2026-04-11T12:07:10.899Z</time></trkpt><trkpt lat="44.5469332" lon="9.8182472"><ele>1058.0</ele><time>2026-04-11T12:07:12.898Z</time></trkpt><trkpt lat="44.5469813" lon="9.8181579"><ele>1061.5</ele><time>2026-04-11T12:07:15.898Z</time></trkpt><trkpt lat="44.5470714" lon="9.8181413"><ele>1065.0</ele><time>2026-04-11T12:07:17.899Z</time></trkpt><trkpt lat="44.5471597" lon="9.8181569"><ele>1068.5</ele><time>2026-04-11T12:07:19.899Z</time></trkpt><trkpt lat="44.547229" lon="9.8182128"><ele>1072.0</ele><time>2026-04-11T12:07:21.899Z</time></trkpt><trkpt lat="44.5473532" lon="9.8181764"><ele>1072.6</ele><time>2026-04-11T12:07:24.898Z</time></trkpt><trkpt lat="44.5474133" lon="9.8180783"><ele>1073.2</ele><time>2026-04-11T12:07:26.899Z</time></trkpt><trkpt lat="44.5474649" lon="9.8179803"><ele>1073.8</ele><time>2026-04-11T12:07:28.899Z</time></trkpt><trkpt lat="44.5475119" lon="9.8179065"><ele>1074.4</ele><time>2026-04-11T12:07:30.899Z</time></trkpt><trkpt lat="44.5475599" lon="9.817779"><ele>1075.0</ele><time>2026-04-11T12:07:32.899Z</time></trkpt><trkpt lat="44.5476007" lon="9.8176322"><ele>1076.25</ele><time>2026-04-11T12:07:34.899Z</time></trkpt><trkpt lat="44.5475975" lon="9.8174577"><ele>1077.5</ele><time>2026-04-11T12:07:36.899Z</time></trkpt><trkpt lat="44.5476481" lon="9.8173162"><ele>1078.75</ele><time>2026-04-11T12:07:38.899Z</time></trkpt><trkpt lat="44.5477733" lon="9.817171"><ele>1080.0</ele><time>2026-04-11T12:07:41.898Z</time></trkpt><trkpt lat="44.5478886" lon="9.8171061"><ele>1080.0</ele><time>2026-04-11T12:07:43.899Z</time></trkpt><trkpt lat="44.5479749" lon="9.817027"><ele>1080.0</ele><time>2026-04-11T12:07:45.899Z</time></trkpt><trkpt lat="44.548058" lon="9.8169691"><ele>1080.0</ele><time>2026-04-11T12:07:47.898Z</time></trkpt><trkpt lat="44.5481881" lon="9.8168352"><ele>1080.0</ele><time>2026-04-11T12:07:50.899Z</time></trkpt><trkpt lat="44.5482602" lon="9.8167903"><ele>1080.0</ele><time>2026-04-11T12:07:52.898Z</time></trkpt><trkpt lat="44.5483346" lon="9.8167486"><ele>1083.6</ele><time>2026-04-11T12:07:55.898Z</time></trkpt><trkpt lat="44.548464" lon="9.8166899"><ele>1087.2</ele><time>2026-04-11T12:07:57.899Z</time></trkpt><trkpt lat="44.5485648" lon="9.8166723"><ele>1090.8</ele><time>2026-04-11T12:07:59.898Z</time></trkpt><trkpt lat="44.5486849" lon="9.8167151"><ele>1094.4</ele><time>2026-04-11T12:08:01.899Z</time></trkpt><trkpt lat="44.5487581" lon="9.8167281"><ele>1098.0</ele><time>2026-04-11T12:08:02.899Z</time></trkpt><trkpt lat="44.5488939" lon="9.8166907"><ele>1098.0</ele><time>2026-04-11T12:08:04.899Z</time></trkpt><trkpt lat="44.5490379" lon="9.8166715"><ele>1098.0</ele><time>2026-04-11T12:08:06.899Z</time></trkpt><trkpt lat="44.5491824" lon="9.8165883"><ele>1098.0</ele><time>2026-04-11T12:08:08.899Z</time></trkpt><trkpt lat="44.5492475" lon="9.8165613"><ele>1098.0</ele><time>2026-04-11T12:08:09.899Z</time></trkpt><trkpt lat="44.5492878" lon="9.8164719"><ele>1098.0</ele><time>2026-04-11T12:08:10.899Z</time></trkpt><trkpt lat="44.5493857" lon="9.8163928"><ele>1098.0</ele><time>2026-04-11T12:08:12.898Z</time></trkpt><trkpt lat="44.5494232" lon="9.8163188"><ele>1098.0</ele><time>2026-04-11T12:08:13.899Z</time></trkpt><trkpt lat="44.5494546" lon="9.8162185"><ele>1098.0</ele><time>2026-04-11T12:08:14.899Z</time></trkpt><trkpt lat="44.5495047" lon="9.8159728"><ele>1098.0</ele><time>2026-04-11T12:08:17.899Z</time></trkpt><trkpt lat="44.5495617" lon="9.8158126"><ele>1098.4</ele><time>2026-04-11T12:08:19.899Z</time></trkpt><trkpt lat="44.5495981" lon="9.815725"><ele>1098.8</ele><time>2026-04-11T12:08:21.899Z</time></trkpt><trkpt lat="44.5496566" lon="9.8156341"><ele>1099.2</ele><time>2026-04-11T12:08:23.899Z</time></trkpt><trkpt lat="44.549712" lon="9.8155359"><ele>1099.6</ele><time>2026-04-11T12:08:25.898Z</time></trkpt><trkpt lat="44.5497551" lon="9.8153922"><ele>1100.0</ele><time>2026-04-11T12:08:28.899Z</time></trkpt><trkpt lat="44.5498492" lon="9.8152955"><ele>1100.0</ele><time>2026-04-11T12:08:30.899Z</time></trkpt><trkpt lat="44.5499346" lon="9.8152089"><ele>1100.0</ele><time>2026-04-11T12:08:32.898Z</time></trkpt><trkpt lat="44.5499294" lon="9.8151123"><ele>1100.0</ele><time>2026-04-11T12:08:33.899Z</time></trkpt><trkpt lat="44.5499261" lon="9.8150034"><ele>1100.0</ele><time>2026-04-11T12:08:34.898Z</time></trkpt><trkpt lat="44.5499288" lon="9.814873"><ele>1100.0</ele><time>2026-04-11T12:08:36.899Z</time></trkpt><trkpt lat="44.5499427" lon="9.8147627"><ele>1100.0</ele><time>2026-04-11T12:08:38.899Z</time></trkpt><trkpt lat="44.549973" lon="9.8146782"><ele>1103.4</ele><time>2026-04-11T12:08:39.899Z</time></trkpt><trkpt lat="44.550034" lon="9.8145466"><ele>1106.8</ele><time>2026-04-11T12:08:41.899Z</time></trkpt><trkpt lat="44.5500562" lon="9.8144143"><ele>1110.2</ele><time>2026-04-11T12:08:43.898Z</time></trkpt><trkpt lat="44.5500529" lon="9.8142483"><ele>1113.6</ele><time>2026-04-11T12:08:45.899Z</time></trkpt><trkpt lat="44.5501191" lon="9.8141257"><ele>1117.0</ele><time>2026-04-11T12:08:47.899Z</time></trkpt><trkpt lat="44.5501795" lon="9.8140301"><ele>1115.8333333333333</ele><time>2026-04-11T12:08:48.898Z</time></trkpt><trkpt lat="44.5502349" lon="9.8139522"><ele>1114.6666666666665</ele><time>2026-04-11T12:08:49.899Z</time></trkpt><trkpt lat="44.5502671" lon="9.8138542"><ele>1113.5</ele><time>2026-04-11T12:08:51.899Z</time></trkpt><trkpt lat="44.5503063" lon="9.8137775"><ele>1112.3333333333333</ele><time>2026-04-11T12:08:52.899Z</time></trkpt><trkpt lat="44.5503851" lon="9.8136335"><ele>1111.1666666666667</ele><time>2026-04-11T12:08:54.898Z</time></trkpt><trkpt lat="44.5504365" lon="9.8135314"><ele>1110.0</ele><time>2026-04-11T12:08:55.9Z</time></trkpt><trkpt lat="44.5504776" lon="9.8134197"><ele>1112.8333333333333</ele><time>2026-04-11T12:08:56.899Z</time></trkpt><trkpt lat="44.5505348" lon="9.8133517"><ele>1115.6666666666667</ele><time>2026-04-11T12:08:57.898Z</time></trkpt><trkpt lat="44.5506074" lon="9.8132907"><ele>1118.5</ele><time>2026-04-11T12:08:58.899Z</time></trkpt><trkpt lat="44.5506777" lon="9.8132137"><ele>1121.3333333333335</ele><time>2026-04-11T12:08:59.899Z</time></trkpt><trkpt lat="44.5507424" lon="9.8131764"><ele>1124.1666666666667</ele><time>2026-04-11T12:09:00.898Z</time></trkpt><trkpt lat="44.5508425" lon="9.8130747"><ele>1127.0</ele><time>2026-04-11T12:09:02.9Z</time></trkpt><trkpt lat="44.5509672" lon="9.8130052"><ele>1127.0</ele><time>2026-04-11T12:09:04.898Z</time></trkpt><trkpt lat="44.5510503" lon="9.8129272"><ele>1127.0</ele><time>2026-04-11T12:09:06.899Z</time></trkpt><trkpt lat="44.5511131" lon="9.8128869"><ele>1127.0</ele><time>2026-04-11T12:09:07.899Z</time></trkpt><trkpt lat="44.5512301" lon="9.8127837"><ele>1127.0</ele><time>2026-04-11T12:09:09.899Z</time></trkpt><trkpt lat="44.5513001" lon="9.8127341"><ele>1127.0</ele><time>2026-04-11T12:09:10.898Z</time></trkpt><trkpt lat="44.5514286" lon="9.8126436"><ele>1130.25</ele><time>2026-04-11T12:09:12.898Z</time></trkpt><trkpt lat="44.5515203" lon="9.8126334"><ele>1133.5</ele><time>2026-04-11T12:09:14.899Z</time></trkpt><trkpt lat="44.551708" lon="9.812627"><ele>1136.75</ele><time>2026-04-11T12:09:17.899Z</time></trkpt><trkpt lat="44.5517708" lon="9.8125821"><ele>1140.0</ele><time>2026-04-11T12:09:18.898Z</time></trkpt><trkpt lat="44.5518719" lon="9.812475"><ele>1140.0</ele><time>2026-04-11T12:09:20.899Z</time></trkpt><trkpt lat="44.551916" lon="9.8124005"><ele>1140.0</ele><time>2026-04-11T12:09:22.898Z</time></trkpt><trkpt lat="44.5519997" lon="9.8123137"><ele>1140.0</ele><time>2026-04-11T12:09:24.898Z</time></trkpt><trkpt lat="44.5520862" lon="9.8122084"><ele>1140.0</ele><time>2026-04-11T12:09:26.899Z</time></trkpt><trkpt lat="44.5522382" lon="9.8121601"><ele>1140.0</ele><time>2026-04-11T12:09:29.899Z</time></trkpt><trkpt lat="44.5523237" lon="9.8120537"><ele>1139.0</ele><time>2026-04-11T12:09:31.899Z</time></trkpt><trkpt lat="44.5523617" lon="9.8119333"><ele>1138.0</ele><time>2026-04-11T12:09:33.899Z</time></trkpt><trkpt lat="44.5524307" lon="9.8118973"><ele>1137.0</ele><time>2026-04-11T12:09:36.899Z</time></trkpt><trkpt lat="44.5525085" lon="9.8119638"><ele>1136.0</ele><time>2026-04-11T12:09:39.899Z</time></trkpt><trkpt lat="44.5525817" lon="9.8120056"><ele>1135.0</ele><time>2026-04-11T12:09:41.899Z</time></trkpt><trkpt lat="44.5526488" lon="9.8120245"><ele>1134.0</ele><time>2026-04-11T12:09:43.899Z</time></trkpt><trkpt lat="44.5527289" lon="9.8120294"><ele>1134.0</ele><time>2026-04-11T12:09:45.899Z</time></trkpt><trkpt lat="44.5528074" lon="9.8120188"><ele>1134.0</ele><time>2026-04-11T12:09:47.899Z</time></trkpt><trkpt lat="44.5528802" lon="9.8119905"><ele>1134.0</ele><time>2026-04-11T12:09:49.899Z</time></trkpt><trkpt lat="44.5529568" lon="9.8119619"><ele>1134.0</ele><time>2026-04-11T12:09:51.899Z</time></trkpt><trkpt lat="44.553074" lon="9.811849"><ele>1134.0</ele><time>2026-04-11T12:09:54.899Z</time></trkpt><trkpt lat="44.5531249" lon="9.8117732"><ele>1133.6666666666667</ele><time>2026-04-11T12:09:56.899Z</time></trkpt><trkpt lat="44.5532123" lon="9.8116708"><ele>1133.3333333333333</ele><time>2026-04-11T12:15:52.898Z</time></trkpt><trkpt lat="44.5532609" lon="9.8115952"><ele>1133.0</ele><time>2026-04-11T12:15:55.897Z</time></trkpt><trkpt lat="44.553289" lon="9.8115123"><ele>1132.6666666666665</ele><time>2026-04-11T12:15:57.898Z</time></trkpt><trkpt lat="44.5533267" lon="9.8114364"><ele>1132.3333333333333</ele><time>2026-04-11T12:15:59.897Z</time></trkpt><trkpt lat="44.5533673" lon="9.8113537"><ele>1132.0</ele><time>2026-04-11T12:16:01.898Z</time></trkpt><trkpt lat="44.5534233" lon="9.8112799"><ele>1132.0</ele><time>2026-04-11T12:16:03.897Z</time></trkpt><trkpt lat="44.5534966" lon="9.8112132"><ele>1132.0</ele><time>2026-04-11T12:16:06.898Z</time></trkpt><trkpt lat="44.5535472" lon="9.811145"><ele>1132.0</ele><time>2026-04-11T12:16:08.898Z</time></trkpt><trkpt lat="44.5536071" lon="9.811047"><ele>1132.0</ele><time>2026-04-11T12:16:10.897Z</time></trkpt><trkpt lat="44.5537339" lon="9.8109946"><ele>1132.0</ele><time>2026-04-11T12:16:12.898Z</time></trkpt><trkpt lat="44.5538093" lon="9.8109526"><ele>1131.0</ele><time>2026-04-11T12:16:14.898Z</time></trkpt><trkpt lat="44.5538806" lon="9.810888"><ele>1130.0</ele><time>2026-04-11T12:16:16.898Z</time></trkpt><trkpt lat="44.5539479" lon="9.8108393"><ele>1129.0</ele><time>2026-04-11T12:16:17.899Z</time></trkpt><trkpt lat="44.5540396" lon="9.8107405"><ele>1128.0</ele><time>2026-04-11T12:16:19.898Z</time></trkpt><trkpt lat="44.55412" lon="9.8105534"><ele>1127.0</ele><time>2026-04-11T12:16:21.897Z</time></trkpt><trkpt lat="44.5541374" lon="9.8104381"><ele>1127.0</ele><time>2026-04-11T12:16:22.898Z</time></trkpt><trkpt lat="44.5541842" lon="9.8103699"><ele>1127.0</ele><time>2026-04-11T12:16:23.898Z</time></trkpt><trkpt lat="44.5542604" lon="9.8102402"><ele>1127.0</ele><time>2026-04-11T12:16:25.898Z</time></trkpt><trkpt lat="44.5543" lon="9.8101127"><ele>1127.0</ele><time>2026-04-11T12:16:27.897Z</time></trkpt><trkpt lat="44.5543206" lon="9.8099774"><ele>1127.0</ele><time>2026-04-11T12:16:29.897Z</time></trkpt><trkpt lat="44.5543546" lon="9.8098678"><ele>1126.3333333333335</ele><time>2026-04-11T12:16:31.897Z</time></trkpt><trkpt lat="44.5544256" lon="9.8098052"><ele>1125.6666666666667</ele><time>2026-04-11T12:16:33.898Z</time></trkpt><trkpt lat="44.5544685" lon="9.8097378"><ele>1125.0</ele><time>2026-04-11T12:16:34.898Z</time></trkpt><trkpt lat="44.5545487" lon="9.8096016"><ele>1124.3333333333333</ele><time>2026-04-11T12:16:36.898Z</time></trkpt><trkpt lat="44.5545685" lon="9.8094852"><ele>1123.6666666666665</ele><time>2026-04-11T12:16:37.898Z</time></trkpt><trkpt lat="44.5546078" lon="9.8093849"><ele>1123.0</ele><time>2026-04-11T12:16:38.898Z</time></trkpt><trkpt lat="44.5546439" lon="9.8092811"><ele>1125.0</ele><time>2026-04-11T12:16:39.898Z</time></trkpt><trkpt lat="44.5546667" lon="9.8091504"><ele>1127.0</ele><time>2026-04-11T12:16:40.897Z</time></trkpt><trkpt lat="44.5546765" lon="9.8090399"><ele>1129.0</ele><time>2026-04-11T12:16:41.898Z</time></trkpt><trkpt lat="44.5546988" lon="9.8089267"><ele>1131.0</ele><time>2026-04-11T12:16:42.897Z</time></trkpt><trkpt lat="44.5547056" lon="9.8088186"><ele>1133.0</ele><time>2026-04-11T12:16:43.897Z</time></trkpt><trkpt lat="44.5547273" lon="9.8087168"><ele>1135.0</ele><time>2026-04-11T12:16:44.897Z</time></trkpt><trkpt lat="44.5547487" lon="9.8086295"><ele>1135.0</ele><time>2026-04-11T12:16:45.897Z</time></trkpt><trkpt lat="44.554771" lon="9.8085364"><ele>1135.0</ele><time>2026-04-11T12:16:46.897Z</time></trkpt><trkpt lat="44.554834" lon="9.8084584"><ele>1135.0</ele><time>2026-04-11T12:16:47.897Z</time></trkpt><trkpt lat="44.5548946" lon="9.8084092"><ele>1135.0</ele><time>2026-04-11T12:16:48.898Z</time></trkpt><trkpt lat="44.5549459" lon="9.8083333"><ele>1135.0</ele><time>2026-04-11T12:16:49.898Z</time></trkpt><trkpt lat="44.5550073" lon="9.8082447"><ele>1135.0</ele><time>2026-04-11T12:16:50.898Z</time></trkpt><trkpt lat="44.5550946" lon="9.8081396"><ele>1135.3333333333333</ele><time>2026-04-11T12:16:52.898Z</time></trkpt><trkpt lat="44.5551321" lon="9.8080451"><ele>1135.6666666666665</ele><time>2026-04-11T12:16:53.898Z</time></trkpt><trkpt lat="44.5551657" lon="9.8079459"><ele>1136.0</ele><time>2026-04-11T12:16:54.899Z</time></trkpt><trkpt lat="44.5551973" lon="9.8078519"><ele>1136.3333333333333</ele><time>2026-04-11T12:16:55.898Z</time></trkpt><trkpt lat="44.5552497" lon="9.8076701"><ele>1136.6666666666667</ele><time>2026-04-11T12:16:57.898Z</time></trkpt><trkpt lat="44.5553137" lon="9.8076093"><ele>1137.0</ele><time>2026-04-11T12:16:58.898Z</time></trkpt><trkpt lat="44.555377" lon="9.8075375"><ele>1137.0</ele><time>2026-04-11T12:16:59.897Z</time></trkpt><trkpt lat="44.555446" lon="9.8074636"><ele>1137.0</ele><time>2026-04-11T12:17:00.897Z</time></trkpt><trkpt lat="44.5554772" lon="9.8073598"><ele>1137.0</ele><time>2026-04-11T12:17:01.898Z</time></trkpt><trkpt lat="44.5555245" lon="9.8072826"><ele>1137.0</ele><time>2026-04-11T12:17:02.898Z</time></trkpt><trkpt lat="44.5555761" lon="9.8072158"><ele>1137.0</ele><time>2026-04-11T12:17:03.897Z</time></trkpt><trkpt lat="44.5556286" lon="9.8071602"><ele>1137.0</ele><time>2026-04-11T12:17:04.898Z</time></trkpt><trkpt lat="44.5557132" lon="9.8070675"><ele>1137.0</ele><time>2026-04-11T12:17:06.898Z</time></trkpt><trkpt lat="44.5558098" lon="9.8069297"><ele>1137.0</ele><time>2026-04-11T12:17:08.897Z</time></trkpt><trkpt lat="44.5558615" lon="9.8068628"><ele>1137.0</ele><time>2026-04-11T12:17:09.898Z</time></trkpt><trkpt lat="44.5559068" lon="9.8067927"><ele>1137.0</ele><time>2026-04-11T12:17:10.898Z</time></trkpt><trkpt lat="44.5559325" lon="9.8066794"><ele>1137.0</ele><time>2026-04-11T12:17:12.898Z</time></trkpt><trkpt lat="44.5558952" lon="9.8065523"><ele>1139.0</ele><time>2026-04-11T12:17:14.898Z</time></trkpt><trkpt lat="44.5558696" lon="9.8064101"><ele>1141.0</ele><time>2026-04-11T12:17:16.898Z</time></trkpt><trkpt lat="44.5559179" lon="9.8062907"><ele>1143.0</ele><time>2026-04-11T12:17:18.898Z</time></trkpt><trkpt lat="44.5559707" lon="9.8062352"><ele>1145.0</ele><time>2026-04-11T12:17:20.897Z</time></trkpt><trkpt lat="44.5560388" lon="9.8061268"><ele>1147.0</ele><time>2026-04-11T12:17:22.898Z</time></trkpt><trkpt lat="44.5560831" lon="9.8060575"><ele>1149.0</ele><time>2026-04-11T12:17:23.898Z</time></trkpt><trkpt lat="44.5561641" lon="9.8059316"><ele>1152.0</ele><time>2026-04-11T12:17:25.898Z</time></trkpt><trkpt lat="44.556215" lon="9.8057938"><ele>1155.0</ele><time>2026-04-11T12:17:27.899Z</time></trkpt><trkpt lat="44.5562932" lon="9.80574"><ele>1158.0</ele><time>2026-04-11T12:17:30.898Z</time></trkpt><trkpt lat="44.5563744" lon="9.805718"><ele>1161.0</ele><time>2026-04-11T12:17:33.898Z</time></trkpt><trkpt lat="44.5564421" lon="9.8056838"><ele>1164.0</ele><time>2026-04-11T12:17:37.898Z</time></trkpt><trkpt lat="44.5565115" lon="9.8056147"><ele>1167.0</ele><time>2026-04-11T12:17:40.898Z</time></trkpt><trkpt lat="44.5565863" lon="9.8054875"><ele>1167.0</ele><time>2026-04-11T12:17:42.897Z</time></trkpt><trkpt lat="44.5566684" lon="9.8053937"><ele>1167.0</ele><time>2026-04-11T12:17:44.898Z</time></trkpt><trkpt lat="44.5567416" lon="9.8053303"><ele>1167.0</ele><time>2026-04-11T12:17:46.898Z</time></trkpt><trkpt lat="44.5568311" lon="9.8052259"><ele>1167.0</ele><time>2026-04-11T12:17:48.897Z</time></trkpt><trkpt lat="44.5568876" lon="9.8051705"><ele>1167.0</ele><time>2026-04-11T12:17:49.898Z</time></trkpt><trkpt lat="44.5569348" lon="9.8051039"><ele>1167.0</ele><time>2026-04-11T12:17:50.898Z</time></trkpt><trkpt lat="44.5569889" lon="9.8050388"><ele>1170.25</ele><time>2026-04-11T12:17:51.897Z</time></trkpt><trkpt lat="44.5570723" lon="9.8049049"><ele>1173.5</ele><time>2026-04-11T12:17:53.898Z</time></trkpt><trkpt lat="44.5571636" lon="9.8048559"><ele>1176.75</ele><time>2026-04-11T12:17:55.898Z</time></trkpt><trkpt lat="44.5572137" lon="9.8047586"><ele>1180.0</ele><time>2026-04-11T12:17:57.898Z</time></trkpt><trkpt lat="44.5573172" lon="9.8046236"><ele>1180.0</ele><time>2026-04-11T12:18:00.897Z</time></trkpt><trkpt lat="44.5574342" lon="9.8045956"><ele>1180.0</ele><time>2026-04-11T12:18:02.897Z</time></trkpt><trkpt lat="44.557555" lon="9.8045527"><ele>1180.0</ele><time>2026-04-11T12:18:04.898Z</time></trkpt><trkpt lat="44.5576258" lon="9.8045202"><ele>1180.0</ele><time>2026-04-11T12:18:05.898Z</time></trkpt><trkpt lat="44.5577059" lon="9.8044821"><ele>1180.0</ele><time>2026-04-11T12:18:06.898Z</time></trkpt><trkpt lat="44.5577897" lon="9.8044565"><ele>1180.0</ele><time>2026-04-11T12:18:07.897Z</time></trkpt><trkpt lat="44.5578617" lon="9.8044251"><ele>1180.0</ele><time>2026-04-11T12:18:08.898Z</time></trkpt><trkpt lat="44.5579322" lon="9.8043925"><ele>1180.0</ele><time>2026-04-11T12:18:09.898Z</time></trkpt><trkpt lat="44.558045" lon="9.8043504"><ele>1180.0</ele><time>2026-04-11T12:18:11.898Z</time></trkpt><trkpt lat="44.5581027" lon="9.8043015"><ele>1180.0</ele><time>2026-04-11T12:18:12.898Z</time></trkpt><trkpt lat="44.558171" lon="9.8042764"><ele>1180.0</ele><time>2026-04-11T12:18:13.897Z</time></trkpt><trkpt lat="44.5582585" lon="9.8042665"><ele>1183.0</ele><time>2026-04-11T12:18:14.898Z</time></trkpt><trkpt lat="44.5583345" lon="9.8042457"><ele>1186.0</ele><time>2026-04-11T12:18:15.898Z</time></trkpt><trkpt lat="44.5585266" lon="9.8041696"><ele>1189.0</ele><time>2026-04-11T12:18:18.898Z</time></trkpt><trkpt lat="44.5586107" lon="9.80412"><ele>1192.0</ele><time>2026-04-11T12:18:19.897Z</time></trkpt><trkpt lat="44.5586824" lon="9.8039765"><ele>1193.3333333333333</ele><time>2026-04-11T12:18:20.898Z</time></trkpt><trkpt lat="44.5587765" lon="9.8038718"><ele>1194.6666666666667</ele><time>2026-04-11T12:18:21.898Z</time></trkpt><trkpt lat="44.5589545" lon="9.8036647"><ele>1196.0</ele><time>2026-04-11T12:18:23.898Z</time></trkpt><trkpt lat="44.5590496" lon="9.8035729"><ele>1196.0</ele><time>2026-04-11T12:18:24.897Z</time></trkpt><trkpt lat="44.5591337" lon="9.8034991"><ele>1196.0</ele><time>2026-04-11T12:18:25.898Z</time></trkpt><trkpt lat="44.5592244" lon="9.8034525"><ele>1196.0</ele><time>2026-04-11T12:18:26.898Z</time></trkpt><trkpt lat="44.5593041" lon="9.8033754"><ele>1196.0</ele><time>2026-04-11T12:18:27.898Z</time></trkpt><trkpt lat="44.5594317" lon="9.8032012"><ele>1196.8</ele><time>2026-04-11T12:18:29.897Z</time></trkpt><trkpt lat="44.5594978" lon="9.8031143"><ele>1197.6</ele><time>2026-04-11T12:18:30.898Z</time></trkpt><trkpt lat="44.5595635" lon="9.8030575"><ele>1198.4</ele><time>2026-04-11T12:18:32.898Z</time></trkpt><trkpt lat="44.5596672" lon="9.8030025"><ele>1199.2</ele><time>2026-04-11T12:18:48.898Z</time></trkpt><trkpt lat="44.5597743" lon="9.8029126"><ele>1200.0</ele><time>2026-04-11T12:18:50.898Z</time></trkpt><trkpt lat="44.5598315" lon="9.8028722"><ele>1203.25</ele><time>2026-04-11T12:18:51.898Z</time></trkpt><trkpt lat="44.559913" lon="9.8028638"><ele>1206.5</ele><time>2026-04-11T12:18:52.898Z</time></trkpt><trkpt lat="44.5600456" lon="9.8028287"><ele>1209.75</ele><time>2026-04-11T12:18:54.898Z</time></trkpt><trkpt lat="44.5602459" lon="9.8028331"><ele>1213.0</ele><time>2026-04-11T12:18:57.897Z</time></trkpt><trkpt lat="44.5603189" lon="9.8027927"><ele>1213.1666666666665</ele><time>2026-04-11T12:18:58.898Z</time></trkpt><trkpt lat="44.5603729" lon="9.8027018"><ele>1213.3333333333333</ele><time>2026-04-11T12:18:59.898Z</time></trkpt><trkpt lat="44.5604901" lon="9.8026746"><ele>1213.5</ele><time>2026-04-11T12:19:01.898Z</time></trkpt><trkpt lat="44.5605643" lon="9.8026404"><ele>1213.6666666666667</ele><time>2026-04-11T12:19:02.898Z</time></trkpt><trkpt lat="44.5606343" lon="9.8026123"><ele>1213.8333333333335</ele><time>2026-04-11T12:19:03.897Z</time></trkpt><trkpt lat="44.5606985" lon="9.8025796"><ele>1214.0</ele><time>2026-04-11T12:19:04.899Z</time></trkpt><trkpt lat="44.5607717" lon="9.80257"><ele>1211.6666666666667</ele><time>2026-04-11T12:19:05.898Z</time></trkpt><trkpt lat="44.5608809" lon="9.8025833"><ele>1209.3333333333335</ele><time>2026-04-11T12:19:07.898Z</time></trkpt><trkpt lat="44.5609607" lon="9.8025945"><ele>1207.0</ele><time>2026-04-11T12:19:08.897Z</time></trkpt><trkpt lat="44.5610387" lon="9.802621"><ele>1204.6666666666667</ele><time>2026-04-11T12:19:09.898Z</time></trkpt><trkpt lat="44.5611128" lon="9.8026458"><ele>1202.3333333333333</ele><time>2026-04-11T12:19:10.898Z</time></trkpt><trkpt lat="44.5611906" lon="9.8026607"><ele>1200.0</ele><time>2026-04-11T12:19:11.897Z</time></trkpt><trkpt lat="44.5612744" lon="9.802669"><ele>1200.3333333333333</ele><time>2026-04-11T12:19:12.899Z</time></trkpt><trkpt lat="44.5613468" lon="9.8026455"><ele>1200.6666666666667</ele><time>2026-04-11T12:19:13.897Z</time></trkpt><trkpt lat="44.5614287" lon="9.8026188"><ele>1201.0</ele><time>2026-04-11T12:19:14.898Z</time></trkpt><trkpt lat="44.5615159" lon="9.8025949"><ele>1201.3333333333335</ele><time>2026-04-11T12:19:15.898Z</time></trkpt><trkpt lat="44.5616055" lon="9.8025672"><ele>1201.6666666666667</ele><time>2026-04-11T12:19:16.898Z</time></trkpt><trkpt lat="44.5616966" lon="9.8025448"><ele>1202.0</ele><time>2026-04-11T12:19:17.897Z</time></trkpt><trkpt lat="44.561782" lon="9.8025204"><ele>1202.0</ele><time>2026-04-11T12:19:18.898Z</time></trkpt><trkpt lat="44.5618689" lon="9.802503"><ele>1202.0</ele><time>2026-04-11T12:19:19.899Z</time></trkpt><trkpt lat="44.5619586" lon="9.8024861"><ele>1202.0</ele><time>2026-04-11T12:19:20.897Z</time></trkpt><trkpt lat="44.5620537" lon="9.8024759"><ele>1202.0</ele><time>2026-04-11T12:19:21.899Z</time></trkpt><trkpt lat="44.5621449" lon="9.8024786"><ele>1202.0</ele><time>2026-04-11T12:19:22.897Z</time></trkpt><trkpt lat="44.5622314" lon="9.802502"><ele>1202.8</ele><time>2026-04-11T12:19:23.898Z</time></trkpt><trkpt lat="44.5623149" lon="9.8025221"><ele>1203.6</ele><time>2026-04-11T12:19:24.898Z</time></trkpt><trkpt lat="44.5624211" lon="9.802605"><ele>1204.3999999999999</ele><time>2026-04-11T12:19:26.898Z</time></trkpt><trkpt lat="44.5625491" lon="9.8026763"><ele>1205.2</ele><time>2026-04-11T12:19:28.898Z</time></trkpt><trkpt lat="44.5626115" lon="9.802734"><ele>1206.0</ele><time>2026-04-11T12:19:29.898Z</time></trkpt><trkpt lat="44.5627287" lon="9.8027572"><ele>1204.0</ele><time>2026-04-11T12:19:31.898Z</time></trkpt><trkpt lat="44.5628225" lon="9.8028406"><ele>1202.0</ele><time>2026-04-11T12:19:33.898Z</time></trkpt><trkpt lat="44.5628864" lon="9.8029716"><ele>1200.0</ele><time>2026-04-11T12:19:35.898Z</time></trkpt><trkpt lat="44.5629178" lon="9.8030568"><ele>1198.0</ele><time>2026-04-11T12:19:36.897Z</time></trkpt><trkpt lat="44.562971" lon="9.8031363"><ele>1196.0</ele><time>2026-04-11T12:19:37.898Z</time></trkpt><trkpt lat="44.5630152" lon="9.8032081"><ele>1194.0</ele><time>2026-04-11T12:19:38.898Z</time></trkpt><trkpt lat="44.563113" lon="9.803271"><ele>1194.0</ele><time>2026-04-11T12:19:40.898Z</time></trkpt><trkpt lat="44.5632362" lon="9.8032915"><ele>1194.0</ele><time>2026-04-11T12:19:43.898Z</time></trkpt><trkpt lat="44.5633281" lon="9.8032712"><ele>1194.0</ele><time>2026-04-11T12:19:46.897Z</time></trkpt><trkpt lat="44.5633717" lon="9.8033669"><ele>1194.0</ele><time>2026-04-11T12:19:48.898Z</time></trkpt><trkpt lat="44.5634652" lon="9.8034694"><ele>1194.0</ele><time>2026-04-11T12:19:51.897Z</time></trkpt><trkpt lat="44.5635444" lon="9.8035266"><ele>1194.5</ele><time>2026-04-11T12:19:59.898Z</time></trkpt><trkpt lat="44.5636652" lon="9.8035095"><ele>1195.0</ele><time>2026-04-11T12:20:01.897Z</time></trkpt><trkpt lat="44.563756" lon="9.8034751"><ele>1195.5</ele><time>2026-04-11T12:20:02.898Z</time></trkpt><trkpt lat="44.5638239" lon="9.8034692"><ele>1196.0</ele><time>2026-04-11T12:20:03.898Z</time></trkpt><trkpt lat="44.5639073" lon="9.8034868"><ele>1196.5</ele><time>2026-04-11T12:20:04.898Z</time></trkpt><trkpt lat="44.5639833" lon="9.8035074"><ele>1197.0</ele><time>2026-04-11T12:20:05.898Z</time></trkpt><trkpt lat="44.5640715" lon="9.8035369"><ele>1197.0</ele><time>2026-04-11T12:20:06.897Z</time></trkpt><trkpt lat="44.5641597" lon="9.8035726"><ele>1197.0</ele><time>2026-04-11T12:20:07.897Z</time></trkpt><trkpt lat="44.5642579" lon="9.8036051"><ele>1197.0</ele><time>2026-04-11T12:20:08.898Z</time></trkpt><trkpt lat="44.5643425" lon="9.8035976"><ele>1197.0</ele><time>2026-04-11T12:20:09.898Z</time></trkpt><trkpt lat="44.5644407" lon="9.8035983"><ele>1197.0</ele><time>2026-04-11T12:20:10.897Z</time></trkpt><trkpt lat="44.5645146" lon="9.8036067"><ele>1197.8333333333333</ele><time>2026-04-11T12:20:11.897Z</time></trkpt><trkpt lat="44.5645809" lon="9.8036087"><ele>1198.6666666666667</ele><time>2026-04-11T12:20:12.898Z</time></trkpt><trkpt lat="44.5646552" lon="9.8035972"><ele>1199.5</ele><time>2026-04-11T12:20:13.898Z</time></trkpt><trkpt lat="44.5647105" lon="9.8035441"><ele>1200.3333333333335</ele><time>2026-04-11T12:20:14.898Z</time></trkpt><trkpt lat="44.5647541" lon="9.8033681"><ele>1201.1666666666667</ele><time>2026-04-11T12:20:16.897Z</time></trkpt><trkpt lat="44.5648294" lon="9.8032779"><ele>1202.0</ele><time>2026-04-11T12:20:18.898Z</time></trkpt><trkpt lat="44.5649452" lon="9.8032795"><ele>1198.0</ele><time>2026-04-11T12:20:20.897Z</time></trkpt><trkpt lat="44.5650616" lon="9.8032751"><ele>1194.0</ele><time>2026-04-11T12:20:22.898Z</time></trkpt><trkpt lat="44.5652013" lon="9.8032723"><ele>1190.0</ele><time>2026-04-11T12:20:24.897Z</time></trkpt><trkpt lat="44.5652616" lon="9.8032342"><ele>1186.0</ele><time>2026-04-11T12:20:25.897Z</time></trkpt><trkpt lat="44.5653927" lon="9.8031887"><ele>1184.8333333333333</ele><time>2026-04-11T12:20:27.898Z</time></trkpt><trkpt lat="44.5654551" lon="9.8031711"><ele>1183.6666666666665</ele><time>2026-04-11T12:20:28.898Z</time></trkpt><trkpt lat="44.5655228" lon="9.8031428"><ele>1182.5</ele><time>2026-04-11T12:20:29.898Z</time></trkpt><trkpt lat="44.5655951" lon="9.8031172"><ele>1181.3333333333333</ele><time>2026-04-11T12:20:30.897Z</time></trkpt><trkpt lat="44.5656843" lon="9.8031069"><ele>1180.1666666666667</ele><time>2026-04-11T12:20:31.898Z</time></trkpt><trkpt lat="44.5657598" lon="9.8031207"><ele>1179.0</ele><time>2026-04-11T12:20:32.898Z</time></trkpt><trkpt lat="44.5658431" lon="9.8032319"><ele>1179.0</ele><time>2026-04-11T12:20:33.897Z</time></trkpt><trkpt lat="44.5659344" lon="9.8032741"><ele>1179.0</ele><time>2026-04-11T12:20:34.898Z</time></trkpt><trkpt lat="44.5659443" lon="9.803403"><ele>1179.0</ele><time>2026-04-11T12:20:36.897Z</time></trkpt><trkpt lat="44.5659691" lon="9.8035248"><ele>1179.0</ele><time>2026-04-11T12:20:38.897Z</time></trkpt><trkpt lat="44.565992" lon="9.803639"><ele>1179.0</ele><time>2026-04-11T12:20:40.898Z</time></trkpt><trkpt lat="44.5660604" lon="9.8036738"><ele>1179.0</ele><time>2026-04-11T12:20:42.898Z</time></trkpt><trkpt lat="44.5661367" lon="9.8036355"><ele>1181.8</ele><time>2026-04-11T12:20:45.899Z</time></trkpt><trkpt lat="44.5662451" lon="9.8035673"><ele>1184.6000000000001</ele><time>2026-04-11T12:20:47.897Z</time></trkpt><trkpt lat="44.5663427" lon="9.8035418"><ele>1187.4</ele><time>2026-04-11T12:20:49.898Z</time></trkpt><trkpt lat="44.5664705" lon="9.8035506"><ele>1190.2</ele><time>2026-04-11T12:20:51.898Z</time></trkpt><trkpt lat="44.5665474" lon="9.8035947"><ele>1193.0</ele><time>2026-04-11T12:20:52.897Z</time></trkpt><trkpt lat="44.5666335" lon="9.8035956"><ele>1193.0</ele><time>2026-04-11T12:20:53.897Z</time></trkpt><trkpt lat="44.5667373" lon="9.8036816"><ele>1193.0</ele><time>2026-04-11T12:20:55.897Z</time></trkpt><trkpt lat="44.5668259" lon="9.8037451"><ele>1193.0</ele><time>2026-04-11T12:20:56.898Z</time></trkpt><trkpt lat="44.5669094" lon="9.8038065"><ele>1193.0</ele><time>2026-04-11T12:20:57.898Z</time></trkpt><trkpt lat="44.567033" lon="9.8038578"><ele>1193.0</ele><time>2026-04-11T12:20:58.898Z</time></trkpt><trkpt lat="44.5671291" lon="9.8039183"><ele>1191.8333333333335</ele><time>2026-04-11T12:20:59.898Z</time></trkpt><trkpt lat="44.5672275" lon="9.8039681"><ele>1190.6666666666667</ele><time>2026-04-11T12:21:00.898Z</time></trkpt><trkpt lat="44.5673036" lon="9.8040035"><ele>1189.5</ele><time>2026-04-11T12:21:01.897Z</time></trkpt><trkpt lat="44.5673916" lon="9.8040499"><ele>1188.3333333333333</ele><time>2026-04-11T12:21:02.898Z</time></trkpt><trkpt lat="44.5674768" lon="9.8040478"><ele>1187.1666666666665</ele><time>2026-04-11T12:21:03.898Z</time></trkpt><trkpt lat="44.5675433" lon="9.8040509"><ele>1186.0</ele><time>2026-04-11T12:21:04.897Z</time></trkpt><trkpt lat="44.5676095" lon="9.803988"><ele>1186.0</ele><time>2026-04-11T12:21:06.899Z</time></trkpt><trkpt lat="44.5676263" lon="9.8039027"><ele>1186.0</ele><time>2026-04-11T12:21:53.898Z</time></trkpt><trkpt lat="44.5677028" lon="9.8039103"><ele>1186.0</ele><time>2026-04-11T12:22:05.897Z</time></trkpt><trkpt lat="44.5677628" lon="9.8039824"><ele>1186.0</ele><time>2026-04-11T12:22:07.898Z</time></trkpt><trkpt lat="44.5678433" lon="9.8040183"><ele>1186.0</ele><time>2026-04-11T12:22:10.898Z</time></trkpt><trkpt lat="44.5679087" lon="9.804054"><ele>1186.0</ele><time>2026-04-11T12:22:12.898Z</time></trkpt><trkpt lat="44.5679928" lon="9.8041499"><ele>1184.0</ele><time>2026-04-11T12:22:14.898Z</time></trkpt><trkpt lat="44.5680963" lon="9.8042527"><ele>1182.0</ele><time>2026-04-11T12:22:16.898Z</time></trkpt><trkpt lat="44.5681551" lon="9.8042843"><ele>1180.0</ele><time>2026-04-11T12:22:17.898Z</time></trkpt><trkpt lat="44.5682301" lon="9.8042931"><ele>1178.0</ele><time>2026-04-11T12:22:18.898Z</time></trkpt><trkpt lat="44.5682901" lon="9.8043201"><ele>1176.0</ele><time>2026-04-11T12:22:19.897Z</time></trkpt><trkpt lat="44.568363" lon="9.804325"><ele>1174.0</ele><time>2026-04-11T12:22:20.898Z</time></trkpt><trkpt lat="44.5685055" lon="9.8042435"><ele>1174.0</ele><time>2026-04-11T12:22:22.897Z</time></trkpt><trkpt lat="44.5685842" lon="9.804156"><ele>1174.0</ele><time>2026-04-11T12:22:24.897Z</time></trkpt><trkpt lat="44.5686894" lon="9.8040757"><ele>1174.0</ele><time>2026-04-11T12:22:26.897Z</time></trkpt><trkpt lat="44.568751" lon="9.8040203"><ele>1174.0</ele><time>2026-04-11T12:22:27.898Z</time></trkpt><trkpt lat="44.5688134" lon="9.8039666"><ele>1174.0</ele><time>2026-04-11T12:22:28.898Z</time></trkpt><trkpt lat="44.5688543" lon="9.803876"><ele>1174.0</ele><time>2026-04-11T12:22:30.898Z</time></trkpt><trkpt lat="44.5689196" lon="9.8037547"><ele>1171.4</ele><time>2026-04-11T12:22:32.897Z</time></trkpt><trkpt lat="44.568993" lon="9.8036089"><ele>1168.8000000000002</ele><time>2026-04-11T12:22:34.898Z</time></trkpt><trkpt lat="44.5690728" lon="9.8034435"><ele>1166.1999999999998</ele><time>2026-04-11T12:22:36.897Z</time></trkpt><trkpt lat="44.5691399" lon="9.8033929"><ele>1163.6</ele><time>2026-04-11T12:22:37.898Z</time></trkpt><trkpt lat="44.5692273" lon="9.8033377"><ele>1161.0</ele><time>2026-04-11T12:22:39.898Z</time></trkpt><trkpt lat="44.5692911" lon="9.803322"><ele>1161.0</ele><time>2026-04-11T12:22:40.897Z</time></trkpt><trkpt lat="44.5693575" lon="9.8033035"><ele>1161.0</ele><time>2026-04-11T12:22:41.897Z</time></trkpt><trkpt lat="44.5694288" lon="9.8032663"><ele>1161.0</ele><time>2026-04-11T12:22:42.897Z</time></trkpt><trkpt lat="44.5695121" lon="9.8032275"><ele>1161.0</ele><time>2026-04-11T12:22:43.898Z</time></trkpt><trkpt lat="44.5695945" lon="9.8032079"><ele>1161.0</ele><time>2026-04-11T12:22:44.898Z</time></trkpt><trkpt lat="44.5696763" lon="9.8031922"><ele>1161.0</ele><time>2026-04-11T12:22:45.898Z</time></trkpt><trkpt lat="44.5697623" lon="9.8031513"><ele>1159.6666666666667</ele><time>2026-04-11T12:22:46.898Z</time></trkpt><trkpt lat="44.5698403" lon="9.8030984"><ele>1158.3333333333333</ele><time>2026-04-11T12:22:47.897Z</time></trkpt><trkpt lat="44.5699179" lon="9.8030609"><ele>1157.0</ele><time>2026-04-11T12:22:48.897Z</time></trkpt><trkpt lat="44.570001" lon="9.8030131"><ele>1155.6666666666665</ele><time>2026-04-11T12:22:49.898Z</time></trkpt><trkpt lat="44.5700786" lon="9.8029742"><ele>1154.3333333333333</ele><time>2026-04-11T12:22:50.898Z</time></trkpt><trkpt lat="44.570158" lon="9.8029391"><ele>1153.0</ele><time>2026-04-11T12:22:51.897Z</time></trkpt><trkpt lat="44.5702308" lon="9.8029042"><ele>1153.0</ele><time>2026-04-11T12:22:52.898Z</time></trkpt><trkpt lat="44.5702945" lon="9.8028721"><ele>1153.0</ele><time>2026-04-11T12:22:53.897Z</time></trkpt><trkpt lat="44.5704351" lon="9.8027829"><ele>1153.0</ele><time>2026-04-11T12:22:55.897Z</time></trkpt><trkpt lat="44.5705071" lon="9.8027339"><ele>1153.0</ele><time>2026-04-11T12:22:56.898Z</time></trkpt><trkpt lat="44.5705921" lon="9.8026651"><ele>1153.0</ele><time>2026-04-11T12:22:57.897Z</time></trkpt><trkpt lat="44.5706715" lon="9.8026012"><ele>1154.3333333333333</ele><time>2026-04-11T12:22:58.897Z</time></trkpt><trkpt lat="44.5707478" lon="9.802547"><ele>1155.6666666666665</ele><time>2026-04-11T12:22:59.898Z</time></trkpt><trkpt lat="44.5708103" lon="9.8025076"><ele>1157.0</ele><time>2026-04-11T12:23:00.898Z</time></trkpt><trkpt lat="44.570875" lon="9.8024624"><ele>1158.3333333333333</ele><time>2026-04-11T12:23:01.898Z</time></trkpt><trkpt lat="44.5709566" lon="9.8024301"><ele>1159.6666666666667</ele><time>2026-04-11T12:23:02.898Z</time></trkpt><trkpt lat="44.571029" lon="9.8024065"><ele>1161.0</ele><time>2026-04-11T12:23:03.898Z</time></trkpt><trkpt lat="44.5711054" lon="9.8023771"><ele>1161.0</ele><time>2026-04-11T12:23:04.898Z</time></trkpt><trkpt lat="44.5711506" lon="9.8023108"><ele>1161.0</ele><time>2026-04-11T12:23:05.898Z</time></trkpt><trkpt lat="44.5712177" lon="9.8022195"><ele>1161.0</ele><time>2026-04-11T12:23:07.897Z</time></trkpt><trkpt lat="44.5712853" lon="9.8021483"><ele>1161.0</ele><time>2026-04-11T12:23:09.897Z</time></trkpt><trkpt lat="44.5713857" lon="9.8020446"><ele>1161.0</ele><time>2026-04-11T12:23:11.897Z</time></trkpt><trkpt lat="44.5714484" lon="9.8019912"><ele>1161.0</ele><time>2026-04-11T12:23:12.898Z</time></trkpt><trkpt lat="44.5715085" lon="9.80194"><ele>1161.1666666666667</ele><time>2026-04-11T12:23:13.898Z</time></trkpt><trkpt lat="44.5715736" lon="9.8018875"><ele>1161.3333333333333</ele><time>2026-04-11T12:23:14.898Z</time></trkpt><trkpt lat="44.5716439" lon="9.8018237"><ele>1161.5</ele><time>2026-04-11T12:23:15.898Z</time></trkpt><trkpt lat="44.5717129" lon="9.8017619"><ele>1161.6666666666665</ele><time>2026-04-11T12:23:16.897Z</time></trkpt><trkpt lat="44.5717926" lon="9.8017114"><ele>1161.8333333333333</ele><time>2026-04-11T12:23:17.898Z</time></trkpt><trkpt lat="44.5718547" lon="9.8016564"><ele>1162.0</ele><time>2026-04-11T12:23:18.897Z</time></trkpt><trkpt lat="44.571969" lon="9.8015343"><ele>1162.3333333333333</ele><time>2026-04-11T12:23:20.898Z</time></trkpt><trkpt lat="44.5720134" lon="9.8014325"><ele>1162.6666666666665</ele><time>2026-04-11T12:23:21.897Z</time></trkpt><trkpt lat="44.5720736" lon="9.8013714"><ele>1163.0</ele><time>2026-04-11T12:23:22.897Z</time></trkpt><trkpt lat="44.5721294" lon="9.801296"><ele>1163.3333333333333</ele><time>2026-04-11T12:23:23.897Z</time></trkpt><trkpt lat="44.5721864" lon="9.8012315"><ele>1163.6666666666667</ele><time>2026-04-11T12:23:24.897Z</time></trkpt><trkpt lat="44.5722285" lon="9.8011529"><ele>1164.0</ele><time>2026-04-11T12:23:25.898Z</time></trkpt><trkpt lat="44.5722907" lon="9.8010883"><ele>1163.8333333333333</ele><time>2026-04-11T12:23:26.898Z</time></trkpt><trkpt lat="44.5723356" lon="9.8009968"><ele>1163.6666666666667</ele><time>2026-04-11T12:23:27.898Z</time></trkpt><trkpt lat="44.572378" lon="9.800897"><ele>1163.5</ele><time>2026-04-11T12:23:28.898Z</time></trkpt><trkpt lat="44.5724083" lon="9.800776"><ele>1163.3333333333335</ele><time>2026-04-11T12:23:29.898Z</time></trkpt><trkpt lat="44.5724412" lon="9.8006655"><ele>1163.1666666666667</ele><time>2026-04-11T12:23:30.898Z</time></trkpt><trkpt lat="44.5724807" lon="9.8005588"><ele>1163.0</ele><time>2026-04-11T12:23:31.897Z</time></trkpt><trkpt lat="44.5725267" lon="9.800474"><ele>1163.0</ele><time>2026-04-11T12:23:32.898Z</time></trkpt><trkpt lat="44.5725671" lon="9.8003769"><ele>1163.0</ele><time>2026-04-11T12:23:33.898Z</time></trkpt><trkpt lat="44.5726353" lon="9.8002436"><ele>1163.0</ele><time>2026-04-11T12:23:35.898Z</time></trkpt><trkpt lat="44.572692" lon="9.8001034"><ele>1163.0</ele><time>2026-04-11T12:23:37.898Z</time></trkpt><trkpt lat="44.5727509" lon="9.8000455"><ele>1163.0</ele><time>2026-04-11T12:23:38.898Z</time></trkpt><trkpt lat="44.5728422" lon="9.7999578"><ele>1164.0</ele><time>2026-04-11T12:23:40.899Z</time></trkpt><trkpt lat="44.5729476" lon="9.799898"><ele>1165.0</ele><time>2026-04-11T12:23:42.898Z</time></trkpt><trkpt lat="44.5730524" lon="9.7998576"><ele>1166.0</ele><time>2026-04-11T12:23:44.898Z</time></trkpt><trkpt lat="44.5731468" lon="9.799948"><ele>1167.0</ele><time>2026-04-11T12:23:46.897Z</time></trkpt><trkpt lat="44.5732331" lon="9.7999736"><ele>1168.0</ele><time>2026-04-11T12:23:48.898Z</time></trkpt><trkpt lat="44.5733266" lon="9.7999612"><ele>1168.0</ele><time>2026-04-11T12:23:50.898Z</time></trkpt><trkpt lat="44.5734359" lon="9.7999467"><ele>1168.0</ele><time>2026-04-11T12:23:52.898Z</time></trkpt><trkpt lat="44.5735539" lon="9.7999453"><ele>1168.0</ele><time>2026-04-11T12:23:54.897Z</time></trkpt><trkpt lat="44.5736138" lon="9.7998944"><ele>1168.0</ele><time>2026-04-11T12:23:55.899Z</time></trkpt><trkpt lat="44.5736794" lon="9.7998928"><ele>1168.0</ele><time>2026-04-11T12:23:57.899Z</time></trkpt><trkpt lat="44.5737842" lon="9.7999507"><ele>1167.0</ele><time>2026-04-11T12:23:59.899Z</time></trkpt><trkpt lat="44.573886" lon="9.799955"><ele>1166.0</ele><time>2026-04-11T12:24:01.898Z</time></trkpt><trkpt lat="44.574019" lon="9.7999623"><ele>1165.0</ele><time>2026-04-11T12:24:03.898Z</time></trkpt><trkpt lat="44.5740882" lon="9.7999749"><ele>1164.0</ele><time>2026-04-11T12:24:04.899Z</time></trkpt><trkpt lat="44.5741602" lon="9.7999899"><ele>1163.0</ele><time>2026-04-11T12:24:05.898Z</time></trkpt><trkpt lat="44.5742234" lon="9.8000171"><ele>1162.0</ele><time>2026-04-11T12:24:06.897Z</time></trkpt><trkpt lat="44.5743232" lon="9.8000725"><ele>1162.0</ele><time>2026-04-11T12:24:08.898Z</time></trkpt><trkpt lat="44.5744355" lon="9.8000419"><ele>1162.0</ele><time>2026-04-11T12:24:10.897Z</time></trkpt><trkpt lat="44.5745238" lon="9.7999735"><ele>1162.0</ele><time>2026-04-11T12:24:12.898Z</time></trkpt><trkpt lat="44.5745888" lon="9.7998881"><ele>1162.0</ele><time>2026-04-11T12:24:14.897Z</time></trkpt><trkpt lat="44.5746829" lon="9.7998002"><ele>1162.0</ele><time>2026-04-11T12:24:16.897Z</time></trkpt><trkpt lat="44.5747995" lon="9.7997672"><ele>1160.8333333333333</ele><time>2026-04-11T12:24:18.897Z</time></trkpt><trkpt lat="44.5748882" lon="9.7998001"><ele>1159.6666666666665</ele><time>2026-04-11T12:24:20.898Z</time></trkpt><trkpt lat="44.5749477" lon="9.79988"><ele>1158.5</ele><time>2026-04-11T12:24:22.897Z</time></trkpt><trkpt lat="44.5749646" lon="9.7999874"><ele>1157.3333333333333</ele><time>2026-04-11T12:24:24.898Z</time></trkpt><trkpt lat="44.5749618" lon="9.8001238"><ele>1156.1666666666667</ele><time>2026-04-11T12:24:26.897Z</time></trkpt><trkpt lat="44.5749561" lon="9.8002607"><ele>1155.0</ele><time>2026-04-11T12:24:28.898Z</time></trkpt><trkpt lat="44.574964" lon="9.8004003"><ele>1153.1666666666667</ele><time>2026-04-11T12:24:30.897Z</time></trkpt><trkpt lat="44.5749693" lon="9.8005377"><ele>1151.3333333333333</ele><time>2026-04-11T12:24:32.898Z</time></trkpt><trkpt lat="44.574975" lon="9.8006688"><ele>1149.5</ele><time>2026-04-11T12:24:34.898Z</time></trkpt><trkpt lat="44.5749862" lon="9.8007601"><ele>1147.6666666666665</ele><time>2026-04-11T12:24:36.898Z</time></trkpt><trkpt lat="44.5750283" lon="9.8008606"><ele>1145.8333333333333</ele><time>2026-04-11T12:24:39.898Z</time></trkpt><trkpt lat="44.5750358" lon="9.8009743"><ele>1144.0</ele><time>2026-04-11T12:24:43.898Z</time></trkpt><trkpt lat="44.5750559" lon="9.8011168"><ele>1139.3333333333333</ele><time>2026-04-11T12:24:48.898Z</time></trkpt><trkpt lat="44.5750469" lon="9.8012387"><ele>1134.6666666666665</ele><time>2026-04-11T12:24:51.898Z</time></trkpt><trkpt lat="44.5750752" lon="9.8013492"><ele>1130.0</ele><time>2026-04-11T12:24:54.898Z</time></trkpt><trkpt lat="44.5750818" lon="9.8014611"><ele>1125.3333333333333</ele><time>2026-04-11T12:24:57.898Z</time></trkpt><trkpt lat="44.5751143" lon="9.8015577"><ele>1120.6666666666667</ele><time>2026-04-11T12:25:00.898Z</time></trkpt><trkpt lat="44.5751904" lon="9.8016472"><ele>1116.0</ele><time>2026-04-11T12:25:02.898Z</time></trkpt><trkpt lat="44.5752423" lon="9.801742"><ele>1115.9999999999998</ele><time>2026-04-11T12:25:04.897Z</time></trkpt><trkpt lat="44.5752818" lon="9.8018263"><ele>1116.0</ele><time>2026-04-11T12:25:05.898Z</time></trkpt><trkpt lat="44.5753182" lon="9.8019044"><ele>1116.0</ele><time>2026-04-11T12:25:06.898Z</time></trkpt><trkpt lat="44.575355" lon="9.801988"><ele>1116.0</ele><time>2026-04-11T12:25:07.897Z</time></trkpt><trkpt lat="44.5753825" lon="9.8020728"><ele>1116.0</ele><time>2026-04-11T12:25:08.897Z</time></trkpt><trkpt lat="44.5753799" lon="9.8021697"><ele>1115.9999999999998</ele><time>2026-04-11T12:25:09.898Z</time></trkpt><trkpt lat="44.5753952" lon="9.8022711"><ele>1116.0</ele><time>2026-04-11T12:25:10.898Z</time></trkpt><trkpt lat="44.5754448" lon="9.8023596"><ele>1115.6666666666667</ele><time>2026-04-11T12:25:11.897Z</time></trkpt><trkpt lat="44.5754727" lon="9.8024607"><ele>1115.3333333333333</ele><time>2026-04-11T12:25:12.898Z</time></trkpt><trkpt lat="44.5755618" lon="9.8026104"><ele>1115.0</ele><time>2026-04-11T12:25:14.897Z</time></trkpt><trkpt lat="44.5756027" lon="9.802684"><ele>1114.6666666666665</ele><time>2026-04-11T12:25:15.898Z</time></trkpt><trkpt lat="44.5756431" lon="9.8027537"><ele>1114.3333333333333</ele><time>2026-04-11T12:25:16.898Z</time></trkpt><trkpt lat="44.5756808" lon="9.8028253"><ele>1114.0</ele><time>2026-04-11T12:25:17.898Z</time></trkpt><trkpt lat="44.5757099" lon="9.8029962"><ele>1113.6000000000001</ele><time>2026-04-11T12:25:19.899Z</time></trkpt><trkpt lat="44.5757338" lon="9.8030937"><ele>1113.2</ele><time>2026-04-11T12:25:20.898Z</time></trkpt><trkpt lat="44.5757309" lon="9.8032571"><ele>1112.8000000000002</ele><time>2026-04-11T12:25:22.898Z</time></trkpt><trkpt lat="44.5757366" lon="9.8033776"><ele>1112.4</ele><time>2026-04-11T12:25:24.898Z</time></trkpt><trkpt lat="44.5757761" lon="9.8035013"><ele>1112.0</ele><time>2026-04-11T12:25:26.898Z</time></trkpt><trkpt lat="44.5758359" lon="9.8036401"><ele>1112.0</ele><time>2026-04-11T12:25:28.897Z</time></trkpt><trkpt lat="44.5758835" lon="9.8038107"><ele>1112.0</ele><time>2026-04-11T12:25:30.898Z</time></trkpt><trkpt lat="44.5759333" lon="9.8039813"><ele>1112.0</ele><time>2026-04-11T12:25:32.897Z</time></trkpt><trkpt lat="44.5759765" lon="9.8040547"><ele>1112.0</ele><time>2026-04-11T12:25:33.897Z</time></trkpt><trkpt lat="44.5760561" lon="9.8041407"><ele>1112.0</ele><time>2026-04-11T12:25:35.898Z</time></trkpt><trkpt lat="44.5761083" lon="9.8042546"><ele>1111.2</ele><time>2026-04-11T12:25:37.898Z</time></trkpt><trkpt lat="44.5761758" lon="9.804336"><ele>1110.4</ele><time>2026-04-11T12:25:39.898Z</time></trkpt><trkpt lat="44.5762518" lon="9.8044233"><ele>1109.6</ele><time>2026-04-11T12:25:41.898Z</time></trkpt><trkpt lat="44.5763673" lon="9.8044979"><ele>1108.8</ele><time>2026-04-11T12:25:43.898Z</time></trkpt><trkpt lat="44.5764443" lon="9.80459"><ele>1108.0</ele><time>2026-04-11T12:25:45.897Z</time></trkpt><trkpt lat="44.5764835" lon="9.8047264"><ele>1108.0</ele><time>2026-04-11T12:25:47.897Z</time></trkpt><trkpt lat="44.5765287" lon="9.8048357"><ele>1108.0</ele><time>2026-04-11T12:25:49.897Z</time></trkpt><trkpt lat="44.5765825" lon="9.8049718"><ele>1108.0</ele><time>2026-04-11T12:25:51.897Z</time></trkpt><trkpt lat="44.5766446" lon="9.8051085"><ele>1108.0</ele><time>2026-04-11T12:25:53.898Z</time></trkpt><trkpt lat="44.5767112" lon="9.8052377"><ele>1108.0</ele><time>2026-04-11T12:25:55.898Z</time></trkpt><trkpt lat="44.57676" lon="9.8053712"><ele>1107.6666666666665</ele><time>2026-04-11T12:25:57.898Z</time></trkpt><trkpt lat="44.5768219" lon="9.8055048"><ele>1107.3333333333333</ele><time>2026-04-11T12:25:59.897Z</time></trkpt><trkpt lat="44.5769086" lon="9.8056061"><ele>1107.0</ele><time>2026-04-11T12:26:01.898Z</time></trkpt><trkpt lat="44.5769695" lon="9.8056425"><ele>1106.6666666666667</ele><time>2026-04-11T12:26:02.897Z</time></trkpt><trkpt lat="44.5770272" lon="9.8056959"><ele>1106.3333333333335</ele><time>2026-04-11T12:26:03.898Z</time></trkpt><trkpt lat="44.5770785" lon="9.8057645"><ele>1106.0</ele><time>2026-04-11T12:26:04.898Z</time></trkpt><trkpt lat="44.5771269" lon="9.80584"><ele>1106.0</ele><time>2026-04-11T12:26:05.898Z</time></trkpt><trkpt lat="44.5771928" lon="9.8059196"><ele>1106.0</ele><time>2026-04-11T12:26:06.898Z</time></trkpt><trkpt lat="44.5772569" lon="9.8059858"><ele>1106.0</ele><time>2026-04-11T12:26:07.898Z</time></trkpt><trkpt lat="44.5773246" lon="9.8060356"><ele>1106.0</ele><time>2026-04-11T12:26:08.897Z</time></trkpt><trkpt lat="44.5773928" lon="9.8061016"><ele>1106.0</ele><time>2026-04-11T12:26:09.897Z</time></trkpt><trkpt lat="44.5775168" lon="9.8062099"><ele>1106.1666666666667</ele><time>2026-04-11T12:26:11.898Z</time></trkpt><trkpt lat="44.5775724" lon="9.8062576"><ele>1106.3333333333335</ele><time>2026-04-11T12:26:12.899Z</time></trkpt><trkpt lat="44.5777198" lon="9.8063292"><ele>1106.5</ele><time>2026-04-11T12:26:14.898Z</time></trkpt><trkpt lat="44.5777781" lon="9.8063749"><ele>1106.6666666666667</ele><time>2026-04-11T12:26:15.898Z</time></trkpt><trkpt lat="44.5778425" lon="9.8063996"><ele>1106.8333333333333</ele><time>2026-04-11T12:26:16.897Z</time></trkpt><trkpt lat="44.5779147" lon="9.8064044"><ele>1107.0</ele><time>2026-04-11T12:26:17.898Z</time></trkpt><trkpt lat="44.5780348" lon="9.8064353"><ele>1107.0</ele><time>2026-04-11T12:26:19.898Z</time></trkpt><trkpt lat="44.5780986" lon="9.806455"><ele>1107.0</ele><time>2026-04-11T12:26:20.897Z</time></trkpt><trkpt lat="44.5781771" lon="9.80653"><ele>1107.0</ele><time>2026-04-11T12:26:22.897Z</time></trkpt><trkpt lat="44.5782836" lon="9.8066284"><ele>1107.0</ele><time>2026-04-11T12:26:24.898Z</time></trkpt><trkpt lat="44.578356" lon="9.8067055"><ele>1107.0</ele><time>2026-04-11T12:26:25.898Z</time></trkpt><trkpt lat="44.5784195" lon="9.8067865"><ele>1106.6666666666667</ele><time>2026-04-11T12:26:26.898Z</time></trkpt><trkpt lat="44.5784773" lon="9.8068681"><ele>1106.3333333333333</ele><time>2026-04-11T12:26:27.898Z</time></trkpt><trkpt lat="44.5785386" lon="9.8069199"><ele>1106.0</ele><time>2026-04-11T12:26:28.897Z</time></trkpt><trkpt lat="44.5786022" lon="9.8069761"><ele>1105.6666666666665</ele><time>2026-04-11T12:26:29.897Z</time></trkpt><trkpt lat="44.5786683" lon="9.8069919"><ele>1105.3333333333333</ele><time>2026-04-11T12:26:30.898Z</time></trkpt><trkpt lat="44.5787802" lon="9.8070638"><ele>1105.0</ele><time>2026-04-11T12:26:32.898Z</time></trkpt><trkpt lat="44.5788871" lon="9.8071442"><ele>1105.0</ele><time>2026-04-11T12:26:34.899Z</time></trkpt><trkpt lat="44.5789788" lon="9.807217"><ele>1105.0</ele><time>2026-04-11T12:26:36.898Z</time></trkpt><trkpt lat="44.5790478" lon="9.8072483"><ele>1105.0</ele><time>2026-04-11T12:26:37.897Z</time></trkpt><trkpt lat="44.5791112" lon="9.8072865"><ele>1105.0</ele><time>2026-04-11T12:26:38.897Z</time></trkpt><trkpt lat="44.5791764" lon="9.8073249"><ele>1105.0</ele><time>2026-04-11T12:26:39.897Z</time></trkpt><trkpt lat="44.5792394" lon="9.8073694"><ele>1105.0</ele><time>2026-04-11T12:26:40.897Z</time></trkpt><trkpt lat="44.5793068" lon="9.8073998"><ele>1105.0</ele><time>2026-04-11T12:26:41.897Z</time></trkpt><trkpt lat="44.5793793" lon="9.8073966"><ele>1105.0</ele><time>2026-04-11T12:26:42.897Z</time></trkpt><trkpt lat="44.5794482" lon="9.8074124"><ele>1105.0</ele><time>2026-04-11T12:26:43.896Z</time></trkpt><trkpt lat="44.5795501" lon="9.807483"><ele>1105.0</ele><time>2026-04-11T12:26:45.897Z</time></trkpt><trkpt lat="44.579626" lon="9.8075177"><ele>1105.0</ele><time>2026-04-11T12:26:47.896Z</time></trkpt><trkpt lat="44.5797232" lon="9.8075196"><ele>1105.0</ele><time>2026-04-11T12:26:50.897Z</time></trkpt><trkpt lat="44.579813" lon="9.8075106"><ele>1104.8</ele><time>2026-04-11T12:26:53.897Z</time></trkpt><trkpt lat="44.5798976" lon="9.807525"><ele>1104.6</ele><time>2026-04-11T12:26:55.897Z</time></trkpt><trkpt lat="44.579989" lon="9.8075042"><ele>1104.4</ele><time>2026-04-11T12:26:57.897Z</time></trkpt><trkpt lat="44.5801093" lon="9.8075626"><ele>1104.2</ele><time>2026-04-11T12:26:59.896Z</time></trkpt><trkpt lat="44.5802292" lon="9.8076255"><ele>1104.0</ele><time>2026-04-11T12:27:01.896Z</time></trkpt><trkpt lat="44.5803189" lon="9.8076502"><ele>1103.6666666666667</ele><time>2026-04-11T12:27:03.897Z</time></trkpt><trkpt lat="44.5804019" lon="9.8076551"><ele>1103.3333333333333</ele><time>2026-04-11T12:27:04.897Z</time></trkpt><trkpt lat="44.5805181" lon="9.8076036"><ele>1103.0</ele><time>2026-04-11T12:27:06.897Z</time></trkpt><trkpt lat="44.5805837" lon="9.8075822"><ele>1102.6666666666665</ele><time>2026-04-11T12:27:07.896Z</time></trkpt><trkpt lat="44.5806509" lon="9.8075566"><ele>1102.3333333333333</ele><time>2026-04-11T12:27:08.897Z</time></trkpt><trkpt lat="44.5807485" lon="9.8075284"><ele>1102.0</ele><time>2026-04-11T12:27:10.896Z</time></trkpt><trkpt lat="44.5808173" lon="9.8075202"><ele>1102.0</ele><time>2026-04-11T12:27:11.897Z</time></trkpt><trkpt lat="44.5809268" lon="9.8075121"><ele>1102.0</ele><time>2026-04-11T12:27:13.897Z</time></trkpt><trkpt lat="44.5810382" lon="9.8075332"><ele>1102.0</ele><time>2026-04-11T12:27:15.897Z</time></trkpt><trkpt lat="44.5811306" lon="9.8075555"><ele>1102.0</ele><time>2026-04-11T12:27:17.896Z</time></trkpt><trkpt lat="44.581234" lon="9.8076232"><ele>1102.0</ele><time>2026-04-11T12:27:19.896Z</time></trkpt><trkpt lat="44.5813179" lon="9.8076941"><ele>1102.6666666666665</ele><time>2026-04-11T12:27:21.896Z</time></trkpt><trkpt lat="44.5813836" lon="9.8077553"><ele>1103.3333333333333</ele><time>2026-04-11T12:27:23.896Z</time></trkpt><trkpt lat="44.5814506" lon="9.8078393"><ele>1104.0</ele><time>2026-04-11T12:27:25.897Z</time></trkpt><trkpt lat="44.5815127" lon="9.8079233"><ele>1104.6666666666667</ele><time>2026-04-11T12:27:28.896Z</time></trkpt><trkpt lat="44.5815455" lon="9.8080105"><ele>1105.3333333333335</ele><time>2026-04-11T12:27:30.897Z</time></trkpt><trkpt lat="44.5816089" lon="9.8081188"><ele>1106.0</ele><time>2026-04-11T12:27:32.897Z</time></trkpt><trkpt lat="44.5816832" lon="9.8081679"><ele>1106.0</ele><time>2026-04-11T12:27:34.897Z</time></trkpt><trkpt lat="44.5817283" lon="9.8082589"><ele>1106.0</ele><time>2026-04-11T12:27:36.897Z</time></trkpt><trkpt lat="44.5817506" lon="9.8083948"><ele>1106.0</ele><time>2026-04-11T12:27:38.897Z</time></trkpt><trkpt lat="44.5817952" lon="9.8085477"><ele>1106.0</ele><time>2026-04-11T12:27:40.898Z</time></trkpt><trkpt lat="44.5818274" lon="9.8086891"><ele>1106.0</ele><time>2026-04-11T12:27:42.897Z</time></trkpt><trkpt lat="44.5818619" lon="9.8088141"><ele>1105.3999999999999</ele><time>2026-04-11T12:27:44.896Z</time></trkpt><trkpt lat="44.5818912" lon="9.8089445"><ele>1104.8</ele><time>2026-04-11T12:27:46.896Z</time></trkpt><trkpt lat="44.5818827" lon="9.8091022"><ele>1104.1999999999998</ele><time>2026-04-11T12:27:48.897Z</time></trkpt><trkpt lat="44.5818743" lon="9.8092631"><ele>1103.6</ele><time>2026-04-11T12:27:50.896Z</time></trkpt><trkpt lat="44.5818487" lon="9.8094004"><ele>1103.0</ele><time>2026-04-11T12:27:52.897Z</time></trkpt><trkpt lat="44.5818304" lon="9.809514"><ele>1103.0</ele><time>2026-04-11T12:27:54.897Z</time></trkpt><trkpt lat="44.5818255" lon="9.8096549"><ele>1103.0</ele><time>2026-04-11T12:27:56.897Z</time></trkpt><trkpt lat="44.5818301" lon="9.8097986"><ele>1103.0</ele><time>2026-04-11T12:27:58.896Z</time></trkpt><trkpt lat="44.5818357" lon="9.8099805"><ele>1103.0</ele><time>2026-04-11T12:28:01.897Z</time></trkpt><trkpt lat="44.5817877" lon="9.8101005"><ele>1103.0</ele><time>2026-04-11T12:28:03.897Z</time></trkpt><trkpt lat="44.5817427" lon="9.8101844"><ele>1103.8</ele><time>2026-04-11T12:28:05.896Z</time></trkpt><trkpt lat="44.5817037" lon="9.8102964"><ele>1104.6</ele><time>2026-04-11T12:28:07.897Z</time></trkpt><trkpt lat="44.5816743" lon="9.8104401"><ele>1105.4</ele><time>2026-04-11T12:28:09.897Z</time></trkpt><trkpt lat="44.5816526" lon="9.8105799"><ele>1106.2</ele><time>2026-04-11T12:28:11.897Z</time></trkpt><trkpt lat="44.5816355" lon="9.8107222"><ele>1107.0</ele><time>2026-04-11T12:28:13.897Z</time></trkpt><trkpt lat="44.5816575" lon="9.8108679"><ele>1107.0</ele><time>2026-04-11T12:28:16.896Z</time></trkpt><trkpt lat="44.5817005" lon="9.8109798"><ele>1107.0</ele><time>2026-04-11T12:28:18.897Z</time></trkpt><trkpt lat="44.5817088" lon="9.8111163"><ele>1107.0</ele><time>2026-04-11T12:28:20.897Z</time></trkpt><trkpt lat="44.58173" lon="9.8112848"><ele>1107.0</ele><time>2026-04-11T12:28:22.897Z</time></trkpt><trkpt lat="44.5817435" lon="9.8114352"><ele>1107.0</ele><time>2026-04-11T12:28:24.897Z</time></trkpt><trkpt lat="44.5817544" lon="9.8115496"><ele>1107.3333333333333</ele><time>2026-04-11T12:28:26.897Z</time></trkpt><trkpt lat="44.5818147" lon="9.8116476"><ele>1107.6666666666667</ele><time>2026-04-11T12:28:29.896Z</time></trkpt><trkpt lat="44.5818904" lon="9.8116926"><ele>1108.0</ele><time>2026-04-11T12:28:31.897Z</time></trkpt><trkpt lat="44.5819532" lon="9.8117048"><ele>1108.3333333333335</ele><time>2026-04-11T12:28:33.897Z</time></trkpt><trkpt lat="44.582041" lon="9.8116491"><ele>1108.6666666666667</ele><time>2026-04-11T12:28:36.896Z</time></trkpt><trkpt lat="44.5821247" lon="9.8116278"><ele>1109.0</ele><time>2026-04-11T12:28:38.897Z</time></trkpt><trkpt lat="44.5821838" lon="9.8115744"><ele>1108.9999999999998</ele><time>2026-04-11T12:28:39.897Z</time></trkpt><trkpt lat="44.5822472" lon="9.8115555"><ele>1109.0</ele><time>2026-04-11T12:28:41.897Z</time></trkpt><trkpt lat="44.5823278" lon="9.8115511"><ele>1109.0</ele><time>2026-04-11T12:28:44.896Z</time></trkpt><trkpt lat="44.5824071" lon="9.8115191"><ele>1109.0</ele><time>2026-04-11T12:28:47.896Z</time></trkpt><trkpt lat="44.5824767" lon="9.8115101"><ele>1109.0</ele><time>2026-04-11T12:28:49.897Z</time></trkpt><trkpt lat="44.5825464" lon="9.8115107"><ele>1108.9999999999998</ele><time>2026-04-11T12:28:51.898Z</time></trkpt><trkpt lat="44.5826262" lon="9.8115099"><ele>1109.0</ele><time>2026-04-11T12:28:53.896Z</time></trkpt><trkpt lat="44.5827559" lon="9.8115774"><ele>1106.0</ele><time>2026-04-11T12:28:55.896Z</time></trkpt><trkpt lat="44.5828526" lon="9.8116441"><ele>1103.0</ele><time>2026-04-11T12:28:57.896Z</time></trkpt><trkpt lat="44.5829402" lon="9.8116893"><ele>1100.0</ele><time>2026-04-11T12:28:59.896Z</time></trkpt><trkpt lat="44.5830273" lon="9.8117294"><ele>1097.0</ele><time>2026-04-11T12:29:01.897Z</time></trkpt><trkpt lat="44.5831364" lon="9.8117654"><ele>1094.0</ele><time>2026-04-11T12:29:03.897Z</time></trkpt><trkpt lat="44.5832037" lon="9.8117797"><ele>1094.0</ele><time>2026-04-11T12:29:04.897Z</time></trkpt><trkpt lat="44.5832709" lon="9.8117815"><ele>1094.0</ele><time>2026-04-11T12:29:05.896Z</time></trkpt><trkpt lat="44.5833858" lon="9.8117885"><ele>1094.0</ele><time>2026-04-11T12:29:07.897Z</time></trkpt><trkpt lat="44.5835016" lon="9.811797"><ele>1094.0</ele><time>2026-04-11T12:29:09.897Z</time></trkpt><trkpt lat="44.5836135" lon="9.8118791"><ele>1094.0</ele><time>2026-04-11T12:29:11.896Z</time></trkpt><trkpt lat="44.5836739" lon="9.8119324"><ele>1094.5714285714284</ele><time>2026-04-11T12:29:12.897Z</time></trkpt><trkpt lat="44.5837306" lon="9.8119942"><ele>1095.142857142857</ele><time>2026-04-11T12:29:13.897Z</time></trkpt><trkpt lat="44.5837813" lon="9.8120517"><ele>1095.7142857142858</ele><time>2026-04-11T12:29:14.897Z</time></trkpt><trkpt lat="44.583838" lon="9.8120972"><ele>1096.2857142857142</ele><time>2026-04-11T12:29:15.897Z</time></trkpt><trkpt lat="44.5838934" lon="9.812166"><ele>1096.857142857143</ele><time>2026-04-11T12:29:16.897Z</time></trkpt><trkpt lat="44.5839437" lon="9.8122437"><ele>1097.4285714285713</ele><time>2026-04-11T12:29:17.897Z</time></trkpt><trkpt lat="44.5839861" lon="9.8123151"><ele>1098.0</ele><time>2026-04-11T12:29:18.897Z</time></trkpt><trkpt lat="44.5840204" lon="9.8123928"><ele>1098.0</ele><time>2026-04-11T12:29:19.897Z</time></trkpt><trkpt lat="44.5840478" lon="9.8124733"><ele>1098.0</ele><time>2026-04-11T12:29:20.896Z</time></trkpt><trkpt lat="44.5840771" lon="9.8125571"><ele>1098.0</ele><time>2026-04-11T12:29:21.897Z</time></trkpt><trkpt lat="44.5841045" lon="9.8126491"><ele>1098.0</ele><time>2026-04-11T12:29:22.897Z</time></trkpt><trkpt lat="44.5841377" lon="9.8127274"><ele>1098.0</ele><time>2026-04-11T12:29:23.897Z</time></trkpt><trkpt lat="44.5841926" lon="9.8128863"><ele>1098.0</ele><time>2026-04-11T12:29:25.897Z</time></trkpt><trkpt lat="44.5842521" lon="9.8129993"><ele>1098.8</ele><time>2026-04-11T12:29:27.897Z</time></trkpt><trkpt lat="44.5843447" lon="9.8131453"><ele>1099.6</ele><time>2026-04-11T12:29:30.897Z</time></trkpt><trkpt lat="44.5843873" lon="9.8132111"><ele>1100.4</ele><time>2026-04-11T12:29:31.897Z</time></trkpt><trkpt lat="44.5844828" lon="9.8133161"><ele>1101.2</ele><time>2026-04-11T12:29:33.897Z</time></trkpt><trkpt lat="44.5845392" lon="9.8133861"><ele>1102.0</ele><time>2026-04-11T12:29:34.897Z</time></trkpt><trkpt lat="44.5846402" lon="9.8134276"><ele>1102.0</ele><time>2026-04-11T12:29:36.897Z</time></trkpt><trkpt lat="44.5847027" lon="9.8134713"><ele>1102.0</ele><time>2026-04-11T12:29:37.896Z</time></trkpt><trkpt lat="44.584767" lon="9.8135061"><ele>1102.0</ele><time>2026-04-11T12:29:38.897Z</time></trkpt><trkpt lat="44.5848794" lon="9.8135816"><ele>1102.0</ele><time>2026-04-11T12:29:40.896Z</time></trkpt><trkpt lat="44.5849414" lon="9.8136614"><ele>1102.0</ele><time>2026-04-11T12:30:25.896Z</time></trkpt><trkpt lat="44.5850283" lon="9.8137014"><ele>1102.0</ele><time>2026-04-11T12:30:27.897Z</time></trkpt><trkpt lat="44.5851198" lon="9.8137248"><ele>1103.1666666666665</ele><time>2026-04-11T12:30:29.896Z</time></trkpt><trkpt lat="44.5852073" lon="9.8137454"><ele>1104.3333333333333</ele><time>2026-04-11T12:30:31.897Z</time></trkpt><trkpt lat="44.5852966" lon="9.81382"><ele>1105.5</ele><time>2026-04-11T12:30:33.897Z</time></trkpt><trkpt lat="44.5853643" lon="9.8138922"><ele>1106.6666666666667</ele><time>2026-04-11T12:30:36.897Z</time></trkpt><trkpt lat="44.5854422" lon="9.8139516"><ele>1107.8333333333335</ele><time>2026-04-11T12:30:40.896Z</time></trkpt><trkpt lat="44.5854247" lon="9.8140617"><ele>1109.0</ele><time>2026-04-11T12:30:44.915Z</time></trkpt><trkpt lat="44.5853568" lon="9.8141174"><ele>1108.9999999999998</ele><time>2026-04-11T12:30:50.897Z</time></trkpt><trkpt lat="44.5852994" lon="9.8141706"><ele>1109.0</ele><time>2026-04-11T12:30:53.896Z</time></trkpt><trkpt lat="44.5852932" lon="9.8142601"><ele>1109.0</ele><time>2026-04-11T12:30:56.896Z</time></trkpt><trkpt lat="44.5853119" lon="9.8143503"><ele>1109.0</ele><time>2026-04-11T12:31:00.896Z</time></trkpt><trkpt lat="44.5853496" lon="9.8144338"><ele>1109.0</ele><time>2026-04-11T12:31:02.897Z</time></trkpt><trkpt lat="44.5854156" lon="9.8145216"><ele>1108.9999999999998</ele><time>2026-04-11T12:31:05.897Z</time></trkpt><trkpt lat="44.5854523" lon="9.8146158"><ele>1109.0</ele><time>2026-04-11T12:31:07.896Z</time></trkpt><trkpt lat="44.5854776" lon="9.8147482"><ele>1115.2</ele><time>2026-04-11T12:31:10.896Z</time></trkpt><trkpt lat="44.5854965" lon="9.8148786"><ele>1121.4</ele><time>2026-04-11T12:31:12.896Z</time></trkpt><trkpt lat="44.585536" lon="9.8150204"><ele>1127.6</ele><time>2026-04-11T12:31:14.896Z</time></trkpt><trkpt lat="44.5855831" lon="9.8151553"><ele>1133.8</ele><time>2026-04-11T12:31:16.897Z</time></trkpt><trkpt lat="44.5855946" lon="9.81531"><ele>1140.0</ele><time>2026-04-11T12:31:18.897Z</time></trkpt><trkpt lat="44.5856272" lon="9.8154515"><ele>1141.6</ele><time>2026-04-11T12:31:20.896Z</time></trkpt><trkpt lat="44.5856657" lon="9.8155733"><ele>1143.2</ele><time>2026-04-11T12:31:22.897Z</time></trkpt><trkpt lat="44.585695" lon="9.815692"><ele>1144.8</ele><time>2026-04-11T12:32:44.896Z</time></trkpt><trkpt lat="44.5857064" lon="9.8157998"><ele>1146.4</ele><time>2026-04-11T12:32:46.897Z</time></trkpt><trkpt lat="44.585735" lon="9.8159734"><ele>1148.0</ele><time>2026-04-11T12:32:48.897Z</time></trkpt><trkpt lat="44.5857612" lon="9.8160704"><ele>1149.3333333333335</ele><time>2026-04-11T12:32:49.897Z</time></trkpt><trkpt lat="44.5857698" lon="9.8161598"><ele>1150.6666666666667</ele><time>2026-04-11T12:32:50.896Z</time></trkpt><trkpt lat="44.585777" lon="9.8162538"><ele>1152.0</ele><time>2026-04-11T12:32:51.896Z</time></trkpt><trkpt lat="44.5858009" lon="9.8163673"><ele>1153.3333333333333</ele><time>2026-04-11T12:32:52.897Z</time></trkpt><trkpt lat="44.5858307" lon="9.816471"><ele>1154.6666666666665</ele><time>2026-04-11T12:32:53.897Z</time></trkpt><trkpt lat="44.5858681" lon="9.8165629"><ele>1156.0</ele><time>2026-04-11T12:32:54.897Z</time></trkpt><trkpt lat="44.5858962" lon="9.816673"><ele>1156.0</ele><time>2026-04-11T12:32:55.897Z</time></trkpt><trkpt lat="44.5858975" lon="9.8167932"><ele>1156.0</ele><time>2026-04-11T12:32:56.896Z</time></trkpt><trkpt lat="44.5859081" lon="9.8169274"><ele>1156.0</ele><time>2026-04-11T12:32:57.897Z</time></trkpt><trkpt lat="44.5858591" lon="9.8170597"><ele>1156.0</ele><time>2026-04-11T12:32:58.897Z</time></trkpt><trkpt lat="44.5858416" lon="9.8171596"><ele>1156.0</ele><time>2026-04-11T12:32:59.897Z</time></trkpt><trkpt lat="44.5858614" lon="9.8172533"><ele>1156.0</ele><time>2026-04-11T12:33:00.897Z</time></trkpt><trkpt lat="44.5858955" lon="9.8174142"><ele>1159.0</ele><time>2026-04-11T12:33:02.897Z</time></trkpt><trkpt lat="44.5859505" lon="9.8176734"><ele>1162.0</ele><time>2026-04-11T12:33:05.897Z</time></trkpt><trkpt lat="44.586" lon="9.8177641"><ele>1165.0</ele><time>2026-04-11T12:33:07.897Z</time></trkpt><trkpt lat="44.5860453" lon="9.8178431"><ele>1168.0</ele><time>2026-04-11T12:33:09.897Z</time></trkpt><trkpt lat="44.5861139" lon="9.817888"><ele>1171.0</ele><time>2026-04-11T12:33:11.897Z</time></trkpt><trkpt lat="44.5861733" lon="9.8179307"><ele>1171.0</ele><time>2026-04-11T12:33:12.897Z</time></trkpt><trkpt lat="44.5862645" lon="9.8179847"><ele>1171.0</ele><time>2026-04-11T12:33:14.897Z</time></trkpt><trkpt lat="44.5863452" lon="9.818031"><ele>1171.0</ele><time>2026-04-11T12:33:17.897Z</time></trkpt><trkpt lat="44.5864322" lon="9.8181538"><ele>1171.0</ele><time>2026-04-11T12:33:25.897Z</time></trkpt><trkpt lat="44.5864976" lon="9.8182481"><ele>1171.0</ele><time>2026-04-11T12:33:26.897Z</time></trkpt><trkpt lat="44.586554" lon="9.8183637"><ele>1171.0</ele><time>2026-04-11T12:33:27.896Z</time></trkpt><trkpt lat="44.5866129" lon="9.8184961"><ele>1171.0</ele><time>2026-04-11T12:33:28.896Z</time></trkpt><trkpt lat="44.5866589" lon="9.8186046"><ele>1171.0</ele><time>2026-04-11T12:33:29.897Z</time></trkpt><trkpt lat="44.5867002" lon="9.8187243"><ele>1171.0</ele><time>2026-04-11T12:33:30.897Z</time></trkpt><trkpt lat="44.5867369" lon="9.8188446"><ele>1171.0</ele><time>2026-04-11T12:33:31.897Z</time></trkpt><trkpt lat="44.5867629" lon="9.8189801"><ele>1171.0</ele><time>2026-04-11T12:33:32.896Z</time></trkpt><trkpt lat="44.5867666" lon="9.8191606"><ele>1171.0</ele><time>2026-04-11T12:33:34.897Z</time></trkpt><trkpt lat="44.5867809" lon="9.8192767"><ele>1171.0</ele><time>2026-04-11T12:33:35.897Z</time></trkpt><trkpt lat="44.5868254" lon="9.8193853"><ele>1171.0</ele><time>2026-04-11T12:33:36.896Z</time></trkpt><trkpt lat="44.5868449" lon="9.8194976"><ele>1171.0</ele><time>2026-04-11T12:33:37.897Z</time></trkpt><trkpt lat="44.5868788" lon="9.8195733"><ele>1171.0</ele><time>2026-04-11T12:33:38.896Z</time></trkpt><trkpt lat="44.5869223" lon="9.8196544"><ele>1170.2</ele><time>2026-04-11T12:33:39.897Z</time></trkpt><trkpt lat="44.5870088" lon="9.8198121"><ele>1169.3999999999999</ele><time>2026-04-11T12:33:41.897Z</time></trkpt><trkpt lat="44.5870696" lon="9.8198981"><ele>1168.6</ele><time>2026-04-11T12:33:42.897Z</time></trkpt><trkpt lat="44.5871265" lon="9.8199863"><ele>1167.8</ele><time>2026-04-11T12:33:43.897Z</time></trkpt><trkpt lat="44.5871783" lon="9.8200573"><ele>1167.0</ele><time>2026-04-11T12:33:44.896Z</time></trkpt><trkpt lat="44.5872379" lon="9.8201162"><ele>1162.3333333333333</ele><time>2026-04-11T12:33:45.896Z</time></trkpt><trkpt lat="44.5873167" lon="9.8201623"><ele>1157.6666666666667</ele><time>2026-04-11T12:33:46.896Z</time></trkpt><trkpt lat="44.5873832" lon="9.8201811"><ele>1153.0</ele><time>2026-04-11T12:33:47.896Z</time></trkpt><trkpt lat="44.5874727" lon="9.820197"><ele>1148.3333333333335</ele><time>2026-04-11T12:33:48.896Z</time></trkpt><trkpt lat="44.58755" lon="9.8202229"><ele>1143.6666666666667</ele><time>2026-04-11T12:33:49.896Z</time></trkpt><trkpt lat="44.5876374" lon="9.8202881"><ele>1139.0</ele><time>2026-04-11T12:33:51.897Z</time></trkpt><trkpt lat="44.5877007" lon="9.8203267"><ele>1139.0</ele><time>2026-04-11T12:33:52.897Z</time></trkpt><trkpt lat="44.5877586" lon="9.8203675"><ele>1139.0</ele><time>2026-04-11T12:33:53.896Z</time></trkpt><trkpt lat="44.5878269" lon="9.8203669"><ele>1139.0</ele><time>2026-04-11T12:33:54.897Z</time></trkpt><trkpt lat="44.5878996" lon="9.8203647"><ele>1139.0</ele><time>2026-04-11T12:33:55.897Z</time></trkpt><trkpt lat="44.5880062" lon="9.8203759"><ele>1139.0</ele><time>2026-04-11T12:33:57.897Z</time></trkpt><trkpt lat="44.5880714" lon="9.8203861"><ele>1139.0</ele><time>2026-04-11T12:33:58.897Z</time></trkpt><trkpt lat="44.5881535" lon="9.8204093"><ele>1139.8333333333335</ele><time>2026-04-11T12:33:59.896Z</time></trkpt><trkpt lat="44.5882437" lon="9.8204336"><ele>1140.6666666666667</ele><time>2026-04-11T12:34:00.897Z</time></trkpt><trkpt lat="44.5883242" lon="9.8204474"><ele>1141.5</ele><time>2026-04-11T12:34:01.897Z</time></trkpt><trkpt lat="44.5884013" lon="9.8204667"><ele>1142.3333333333333</ele><time>2026-04-11T12:34:02.897Z</time></trkpt><trkpt lat="44.5884787" lon="9.8204763"><ele>1143.1666666666665</ele><time>2026-04-11T12:34:04.897Z</time></trkpt><trkpt lat="44.5885585" lon="9.820477"><ele>1144.0</ele><time>2026-04-11T12:34:06.897Z</time></trkpt><trkpt lat="44.5887024" lon="9.8205096"><ele>1144.4</ele><time>2026-04-11T12:34:08.896Z</time></trkpt><trkpt lat="44.588819" lon="9.8205133"><ele>1144.8000000000002</ele><time>2026-04-11T12:34:09.896Z</time></trkpt><trkpt lat="44.5889223" lon="9.8205205"><ele>1145.1999999999998</ele><time>2026-04-11T12:34:10.897Z</time></trkpt><trkpt lat="44.5890215" lon="9.8205431"><ele>1145.6</ele><time>2026-04-11T12:34:11.897Z</time></trkpt><trkpt lat="44.589106" lon="9.8205584"><ele>1146.0</ele><time>2026-04-11T12:34:12.896Z</time></trkpt><trkpt lat="44.5891931" lon="9.8205703"><ele>1146.0</ele><time>2026-04-11T12:34:13.896Z</time></trkpt><trkpt lat="44.5892601" lon="9.8205936"><ele>1146.0</ele><time>2026-04-11T12:34:14.897Z</time></trkpt><trkpt lat="44.5893259" lon="9.8206118"><ele>1146.0</ele><time>2026-04-11T12:34:15.897Z</time></trkpt><trkpt lat="44.5893938" lon="9.820636"><ele>1146.0</ele><time>2026-04-11T12:34:16.897Z</time></trkpt><trkpt lat="44.5894507" lon="9.8206836"><ele>1146.0</ele><time>2026-04-11T12:34:17.896Z</time></trkpt><trkpt lat="44.5895091" lon="9.8207267"><ele>1146.0</ele><time>2026-04-11T12:34:18.897Z</time></trkpt><trkpt lat="44.5895692" lon="9.8207675"><ele>1146.0</ele><time>2026-04-11T12:34:19.897Z</time></trkpt><trkpt lat="44.5896431" lon="9.8208061"><ele>1148.0</ele><time>2026-04-11T12:34:20.897Z</time></trkpt><trkpt lat="44.5897299" lon="9.8208516"><ele>1150.0</ele><time>2026-04-11T12:34:21.896Z</time></trkpt><trkpt lat="44.589808" lon="9.8208732"><ele>1152.0</ele><time>2026-04-11T12:34:22.897Z</time></trkpt><trkpt lat="44.5898829" lon="9.8208779"><ele>1154.0</ele><time>2026-04-11T12:34:23.897Z</time></trkpt><trkpt lat="44.5899567" lon="9.8208681"><ele>1156.0</ele><time>2026-04-11T12:34:24.897Z</time></trkpt><trkpt lat="44.590022" lon="9.8208728"><ele>1158.0</ele><time>2026-04-11T12:34:25.897Z</time></trkpt><trkpt lat="44.590149" lon="9.8208951"><ele>1158.0</ele><time>2026-04-11T12:34:27.897Z</time></trkpt><trkpt lat="44.5902712" lon="9.8209068"><ele>1158.0</ele><time>2026-04-11T12:34:29.896Z</time></trkpt><trkpt lat="44.5903977" lon="9.8208988"><ele>1158.0</ele><time>2026-04-11T12:34:31.897Z</time></trkpt><trkpt lat="44.5904824" lon="9.820858"><ele>1158.0</ele><time>2026-04-11T12:34:32.896Z</time></trkpt><trkpt lat="44.5905619" lon="9.8208542"><ele>1158.0</ele><time>2026-04-11T12:34:33.897Z</time></trkpt><trkpt lat="44.5906418" lon="9.8208368"><ele>1159.6</ele><time>2026-04-11T12:34:34.896Z</time></trkpt><trkpt lat="44.5907227" lon="9.8208342"><ele>1161.1999999999998</ele><time>2026-04-11T12:34:35.897Z</time></trkpt><trkpt lat="44.5908038" lon="9.820734"><ele>1162.8</ele><time>2026-04-11T12:34:37.896Z</time></trkpt><trkpt lat="44.590881" lon="9.8206499"><ele>1164.3999999999999</ele><time>2026-04-11T12:34:39.897Z</time></trkpt><trkpt lat="44.5909607" lon="9.820565"><ele>1166.0</ele><time>2026-04-11T12:34:41.897Z</time></trkpt><trkpt lat="44.5910525" lon="9.8204911"><ele>1166.0</ele><time>2026-04-11T12:34:43.897Z</time></trkpt><trkpt lat="44.5911205" lon="9.8204426"><ele>1166.0</ele><time>2026-04-11T12:34:45.897Z</time></trkpt><trkpt lat="44.5912138" lon="9.8203421"><ele>1166.0</ele><time>2026-04-11T12:34:47.897Z</time></trkpt><trkpt lat="44.5912627" lon="9.8202633"><ele>1166.0</ele><time>2026-04-11T12:34:48.897Z</time></trkpt><trkpt lat="44.5913447" lon="9.8201112"><ele>1166.0</ele><time>2026-04-11T12:34:50.896Z</time></trkpt><trkpt lat="44.5913931" lon="9.8199545"><ele>1167.6666666666667</ele><time>2026-04-11T12:34:52.896Z</time></trkpt><trkpt lat="44.591405" lon="9.8197886"><ele>1169.3333333333335</ele><time>2026-04-11T12:34:54.897Z</time></trkpt><trkpt lat="44.5914233" lon="9.8196896"><ele>1171.0</ele><time>2026-04-11T12:34:55.897Z</time></trkpt><trkpt lat="44.5914464" lon="9.8196009"><ele>1172.6666666666667</ele><time>2026-04-11T12:34:56.897Z</time></trkpt><trkpt lat="44.5914588" lon="9.8195132"><ele>1174.3333333333333</ele><time>2026-04-11T12:34:57.896Z</time></trkpt><trkpt lat="44.5914903" lon="9.8194312"><ele>1176.0</ele><time>2026-04-11T12:34:58.897Z</time></trkpt><trkpt lat="44.5915465" lon="9.8193433"><ele>1175.3999999999999</ele><time>2026-04-11T12:34:59.897Z</time></trkpt><trkpt lat="44.5915799" lon="9.8192422"><ele>1174.8</ele><time>2026-04-11T12:35:00.897Z</time></trkpt><trkpt lat="44.5916276" lon="9.8191594"><ele>1174.1999999999998</ele><time>2026-04-11T12:35:01.897Z</time></trkpt><trkpt lat="44.5917096" lon="9.8190442"><ele>1173.6</ele><time>2026-04-11T12:35:03.897Z</time></trkpt><trkpt lat="44.591769" lon="9.8189611"><ele>1173.0</ele><time>2026-04-11T12:35:06.896Z</time></trkpt><trkpt lat="44.5918742" lon="9.8189695"><ele>1173.0</ele><time>2026-04-11T12:35:08.897Z</time></trkpt><trkpt lat="44.5919613" lon="9.8190349"><ele>1173.0</ele><time>2026-04-11T12:35:10.897Z</time></trkpt><trkpt lat="44.5920099" lon="9.8190917"><ele>1173.0</ele><time>2026-04-11T12:35:11.897Z</time></trkpt><trkpt lat="44.5920622" lon="9.819159"><ele>1173.0</ele><time>2026-04-11T12:35:13.896Z</time></trkpt><trkpt lat="44.5921281" lon="9.8191928"><ele>1173.0</ele><time>2026-04-11T12:35:15.897Z</time></trkpt><trkpt lat="44.5922228" lon="9.8192009"><ele>1173.0</ele><time>2026-04-11T12:35:17.898Z</time></trkpt><trkpt lat="44.59229" lon="9.8192256"><ele>1172.5</ele><time>2026-04-11T12:35:19.896Z</time></trkpt><trkpt lat="44.5923772" lon="9.8192107"><ele>1172.0</ele><time>2026-04-11T12:35:22.896Z</time></trkpt><trkpt lat="44.5924341" lon="9.8191371"><ele>1171.5</ele><time>2026-04-11T12:35:24.897Z</time></trkpt><trkpt lat="44.5924925" lon="9.8190718"><ele>1171.0</ele><time>2026-04-11T12:35:26.897Z</time></trkpt><trkpt lat="44.5925584" lon="9.8190259"><ele>1170.5</ele><time>2026-04-11T12:35:28.897Z</time></trkpt><trkpt lat="44.5926448" lon="9.8190488"><ele>1170.0</ele><time>2026-04-11T12:35:30.897Z</time></trkpt><trkpt lat="44.5927336" lon="9.8190756"><ele>1170.0</ele><time>2026-04-11T12:35:32.896Z</time></trkpt><trkpt lat="44.592805" lon="9.8190763"><ele>1170.0</ele><time>2026-04-11T12:35:33.897Z</time></trkpt><trkpt lat="44.5929298" lon="9.8191197"><ele>1170.0</ele><time>2026-04-11T12:35:35.897Z</time></trkpt><trkpt lat="44.5930162" lon="9.8191815"><ele>1170.0</ele><time>2026-04-11T12:35:36.896Z</time></trkpt><trkpt lat="44.5931221" lon="9.8192863"><ele>1170.0</ele><time>2026-04-11T12:35:38.897Z</time></trkpt><trkpt lat="44.593187" lon="9.8193481"><ele>1166.4</ele><time>2026-04-11T12:35:39.897Z</time></trkpt><trkpt lat="44.5933016" lon="9.8194615"><ele>1162.8</ele><time>2026-04-11T12:35:41.896Z</time></trkpt><trkpt lat="44.5933661" lon="9.8195343"><ele>1159.2</ele><time>2026-04-11T12:35:42.896Z</time></trkpt><trkpt lat="44.5934339" lon="9.8195977"><ele>1155.6</ele><time>2026-04-11T12:35:43.897Z</time></trkpt><trkpt lat="44.5934801" lon="9.8196662"><ele>1152.0</ele><time>2026-04-11T12:35:44.897Z</time></trkpt><trkpt lat="44.5935457" lon="9.8197646"><ele>1152.0</ele><time>2026-04-11T12:35:46.896Z</time></trkpt><trkpt lat="44.59365" lon="9.8198396"><ele>1152.0</ele><time>2026-04-11T12:35:48.897Z</time></trkpt><trkpt lat="44.5937031" lon="9.8199057"><ele>1152.0</ele><time>2026-04-11T12:35:50.897Z</time></trkpt><trkpt lat="44.5938333" lon="9.819995"><ele>1152.0</ele><time>2026-04-11T12:35:53.896Z</time></trkpt><trkpt lat="44.5939082" lon="9.8200668"><ele>1152.0</ele><time>2026-04-11T12:35:55.897Z</time></trkpt><trkpt lat="44.5939675" lon="9.8200988"><ele>1146.3333333333333</ele><time>2026-04-11T12:35:57.896Z</time></trkpt><trkpt lat="44.5940135" lon="9.8201614"><ele>1140.6666666666667</ele><time>2026-04-11T12:35:59.897Z</time></trkpt><trkpt lat="44.5940568" lon="9.8202395"><ele>1135.0</ele><time>2026-04-11T12:36:01.896Z</time></trkpt><trkpt lat="44.5941342" lon="9.8203131"><ele>1129.3333333333335</ele><time>2026-04-11T12:36:03.896Z</time></trkpt><trkpt lat="44.594214" lon="9.820356"><ele>1123.6666666666667</ele><time>2026-04-11T12:36:05.897Z</time></trkpt><trkpt lat="44.5942777" lon="9.8204034"><ele>1118.0</ele><time>2026-04-11T12:36:06.897Z</time></trkpt><trkpt lat="44.5943729" lon="9.8204282"><ele>1118.0</ele><time>2026-04-11T12:36:07.897Z</time></trkpt><trkpt lat="44.5944535" lon="9.820456"><ele>1118.0</ele><time>2026-04-11T12:36:08.897Z</time></trkpt><trkpt lat="44.5945067" lon="9.8205202"><ele>1118.0</ele><time>2026-04-11T12:36:09.897Z</time></trkpt><trkpt lat="44.5945654" lon="9.8205729"><ele>1118.0</ele><time>2026-04-11T12:36:10.897Z</time></trkpt><trkpt lat="44.5946196" lon="9.8206327"><ele>1118.0</ele><time>2026-04-11T12:36:11.897Z</time></trkpt><trkpt lat="44.5947354" lon="9.8206791"><ele>1118.0</ele><time>2026-04-11T12:36:13.896Z</time></trkpt><trkpt lat="44.5948485" lon="9.8207321"><ele>1118.8</ele><time>2026-04-11T12:36:15.896Z</time></trkpt><trkpt lat="44.5949513" lon="9.820718"><ele>1119.6</ele><time>2026-04-11T12:36:17.897Z</time></trkpt><trkpt lat="44.5950878" lon="9.8206995"><ele>1120.4</ele><time>2026-04-11T12:36:19.896Z</time></trkpt><trkpt lat="44.5951586" lon="9.8206892"><ele>1121.2</ele><time>2026-04-11T12:36:20.897Z</time></trkpt><trkpt lat="44.595258" lon="9.8207"><ele>1122.0</ele><time>2026-04-11T12:36:22.897Z</time></trkpt><trkpt lat="44.5953436" lon="9.8206251"><ele>1123.5</ele><time>2026-04-11T12:36:24.896Z</time></trkpt><trkpt lat="44.5954579" lon="9.8205475"><ele>1125.0</ele><time>2026-04-11T12:36:26.897Z</time></trkpt><trkpt lat="44.595523" lon="9.8205182"><ele>1126.5</ele><time>2026-04-11T12:36:27.897Z</time></trkpt><trkpt lat="44.5955939" lon="9.8205133"><ele>1128.0</ele><time>2026-04-11T12:36:28.897Z</time></trkpt><trkpt lat="44.5956652" lon="9.8205143"><ele>1129.5</ele><time>2026-04-11T12:36:29.897Z</time></trkpt><trkpt lat="44.5957522" lon="9.820557"><ele>1131.0</ele><time>2026-04-11T12:36:31.897Z</time></trkpt><trkpt lat="44.5958402" lon="9.8205314"><ele>1131.0</ele><time>2026-04-11T12:36:33.896Z</time></trkpt><trkpt lat="44.5959283" lon="9.8204712"><ele>1131.0</ele><time>2026-04-11T12:36:35.897Z</time></trkpt><trkpt lat="44.5959935" lon="9.8203971"><ele>1131.0</ele><time>2026-04-11T12:36:38.897Z</time></trkpt><trkpt lat="44.5960237" lon="9.8203062"><ele>1131.0</ele><time>2026-04-11T12:36:40.896Z</time></trkpt><trkpt lat="44.5960707" lon="9.8202247"><ele>1131.0</ele><time>2026-04-11T12:36:42.897Z</time></trkpt><trkpt lat="44.5961406" lon="9.8201737"><ele>1131.0</ele><time>2026-04-11T12:36:44.897Z</time></trkpt><trkpt lat="44.5961912" lon="9.8200985"><ele>1131.5</ele><time>2026-04-11T12:36:46.897Z</time></trkpt><trkpt lat="44.5961937" lon="9.8200079"><ele>1132.0</ele><time>2026-04-11T12:36:57.897Z</time></trkpt><trkpt lat="44.5961613" lon="9.8198917"><ele>1132.5</ele><time>2026-04-11T12:36:59.896Z</time></trkpt><trkpt lat="44.5961557" lon="9.8197337"><ele>1133.0</ele><time>2026-04-11T12:37:01.896Z</time></trkpt><trkpt lat="44.5961578" lon="9.8196238"><ele>1133.5</ele><time>2026-04-11T12:37:02.897Z</time></trkpt><trkpt lat="44.5961586" lon="9.8195043"><ele>1134.0</ele><time>2026-04-11T12:37:03.897Z</time></trkpt><trkpt lat="44.5961681" lon="9.8194061"><ele>1131.0</ele><time>2026-04-11T12:37:04.897Z</time></trkpt><trkpt lat="44.5962304" lon="9.8192715"><ele>1128.0</ele><time>2026-04-11T12:37:06.898Z</time></trkpt><trkpt lat="44.5963244" lon="9.8191862"><ele>1125.0</ele><time>2026-04-11T12:37:08.896Z</time></trkpt><trkpt lat="44.596393" lon="9.8191691"><ele>1122.0</ele><time>2026-04-11T12:37:09.897Z</time></trkpt><trkpt lat="44.59651" lon="9.8191101"><ele>1119.0</ele><time>2026-04-11T12:37:11.897Z</time></trkpt><trkpt lat="44.5965604" lon="9.81905"><ele>1119.0</ele><time>2026-04-11T12:37:12.896Z</time></trkpt><trkpt lat="44.5966228" lon="9.8189153"><ele>1119.0</ele><time>2026-04-11T12:37:14.896Z</time></trkpt><trkpt lat="44.596677" lon="9.818807"><ele>1119.0</ele><time>2026-04-11T12:37:16.897Z</time></trkpt><trkpt lat="44.5967074" lon="9.8186491"><ele>1119.0</ele><time>2026-04-11T12:37:18.896Z</time></trkpt><trkpt lat="44.5966784" lon="9.8184431"><ele>1117.0</ele><time>2026-04-11T12:37:20.896Z</time></trkpt><trkpt lat="44.5966513" lon="9.8183325"><ele>1115.0</ele><time>2026-04-11T12:37:21.896Z</time></trkpt><trkpt lat="44.5966336" lon="9.8182098"><ele>1113.0</ele><time>2026-04-11T12:37:22.897Z</time></trkpt><trkpt lat="44.5966061" lon="9.818088"><ele>1111.0</ele><time>2026-04-11T12:37:23.896Z</time></trkpt><trkpt lat="44.5965673" lon="9.8179685"><ele>1109.0</ele><time>2026-04-11T12:37:24.897Z</time></trkpt><trkpt lat="44.5965296" lon="9.8178647"><ele>1107.0</ele><time>2026-04-11T12:37:25.897Z</time></trkpt><trkpt lat="44.5964946" lon="9.8177775"><ele>1106.5</ele><time>2026-04-11T12:37:26.897Z</time></trkpt><trkpt lat="44.5964774" lon="9.8176142"><ele>1106.0</ele><time>2026-04-11T12:37:28.896Z</time></trkpt><trkpt lat="44.5964902" lon="9.8175232"><ele>1105.5</ele><time>2026-04-11T12:37:29.897Z</time></trkpt><trkpt lat="44.5965692" lon="9.8174141"><ele>1105.0</ele><time>2026-04-11T12:37:31.897Z</time></trkpt><trkpt lat="44.5966271" lon="9.8173786"><ele>1104.5</ele><time>2026-04-11T12:37:32.897Z</time></trkpt><trkpt lat="44.5966882" lon="9.8173453"><ele>1104.0</ele><time>2026-04-11T12:37:33.898Z</time></trkpt><trkpt lat="44.5967513" lon="9.8173078"><ele>1104.0</ele><time>2026-04-11T12:37:34.897Z</time></trkpt><trkpt lat="44.5968085" lon="9.8172654"><ele>1104.0</ele><time>2026-04-11T12:37:35.897Z</time></trkpt><trkpt lat="44.5968699" lon="9.8172029"><ele>1104.0</ele><time>2026-04-11T12:37:36.898Z</time></trkpt><trkpt lat="44.5969836" lon="9.8171466"><ele>1104.0</ele><time>2026-04-11T12:37:38.897Z</time></trkpt><trkpt lat="44.597077" lon="9.8171012"><ele>1104.0</ele><time>2026-04-11T12:37:40.897Z</time></trkpt><trkpt lat="44.5971508" lon="9.8169711"><ele>1104.2</ele><time>2026-04-11T12:37:42.897Z</time></trkpt><trkpt lat="44.5972031" lon="9.816825"><ele>1104.4</ele><time>2026-04-11T12:37:44.897Z</time></trkpt><trkpt lat="44.5972556" lon="9.8166844"><ele>1104.6</ele><time>2026-04-11T12:37:46.897Z</time></trkpt><trkpt lat="44.5973384" lon="9.8165855"><ele>1104.8</ele><time>2026-04-11T12:37:48.896Z</time></trkpt><trkpt lat="44.5974313" lon="9.8165109"><ele>1105.0</ele><time>2026-04-11T12:37:50.897Z</time></trkpt><trkpt lat="44.5975205" lon="9.8164457"><ele>1105.0</ele><time>2026-04-11T12:37:52.897Z</time></trkpt><trkpt lat="44.5975791" lon="9.8163212"><ele>1105.0</ele><time>2026-04-11T12:37:54.897Z</time></trkpt><trkpt lat="44.5976137" lon="9.8161913"><ele>1105.0</ele><time>2026-04-11T12:37:56.896Z</time></trkpt><trkpt lat="44.597621" lon="9.8160533"><ele>1105.0</ele><time>2026-04-11T12:37:58.897Z</time></trkpt><trkpt lat="44.5976099" lon="9.815932"><ele>1105.0</ele><time>2026-04-11T12:38:00.896Z</time></trkpt><trkpt lat="44.5975948" lon="9.8158187"><ele>1102.0</ele><time>2026-04-11T12:38:02.897Z</time></trkpt><trkpt lat="44.5975732" lon="9.8156847"><ele>1099.0</ele><time>2026-04-11T12:38:04.897Z</time></trkpt><trkpt lat="44.5975492" lon="9.8155328"><ele>1096.0</ele><time>2026-04-11T12:38:06.897Z</time></trkpt><trkpt lat="44.5975711" lon="9.8153995"><ele>1093.0</ele><time>2026-04-11T12:38:08.897Z</time></trkpt><trkpt lat="44.5976553" lon="9.8152989"><ele>1090.0</ele><time>2026-04-11T12:38:10.898Z</time></trkpt><trkpt lat="44.5977664" lon="9.8152161"><ele>1090.0</ele><time>2026-04-11T12:38:12.896Z</time></trkpt><trkpt lat="44.5978266" lon="9.8151629"><ele>1090.0</ele><time>2026-04-11T12:38:13.897Z</time></trkpt><trkpt lat="44.5978856" lon="9.815124"><ele>1090.0</ele><time>2026-04-11T12:38:14.896Z</time></trkpt><trkpt lat="44.5979437" lon="9.815082"><ele>1090.0</ele><time>2026-04-11T12:38:15.896Z</time></trkpt><trkpt lat="44.5980015" lon="9.8150359"><ele>1090.0</ele><time>2026-04-11T12:38:16.897Z</time></trkpt><trkpt lat="44.5980536" lon="9.8149786"><ele>1090.0</ele><time>2026-04-11T12:38:17.897Z</time></trkpt><trkpt lat="44.5981126" lon="9.8149297"><ele>1090.0</ele><time>2026-04-11T12:38:18.897Z</time></trkpt><trkpt lat="44.5981724" lon="9.8148736"><ele>1092.142857142857</ele><time>2026-04-11T12:38:19.897Z</time></trkpt><trkpt lat="44.598232" lon="9.8148232"><ele>1094.2857142857144</ele><time>2026-04-11T12:38:20.896Z</time></trkpt><trkpt lat="44.5982925" lon="9.8147764"><ele>1096.4285714285716</ele><time>2026-04-11T12:38:21.896Z</time></trkpt><trkpt lat="44.5983548" lon="9.8147245"><ele>1098.5714285714287</ele><time>2026-04-11T12:38:22.897Z</time></trkpt><trkpt lat="44.5984187" lon="9.8146757"><ele>1100.7142857142858</ele><time>2026-04-11T12:38:23.897Z</time></trkpt><trkpt lat="44.5984794" lon="9.8146358"><ele>1102.857142857143</ele><time>2026-04-11T12:38:24.896Z</time></trkpt><trkpt lat="44.5985351" lon="9.8145886"><ele>1105.0</ele><time>2026-04-11T12:38:25.896Z</time></trkpt><trkpt lat="44.5986085" lon="9.8145109"><ele>1106.3333333333333</ele><time>2026-04-11T12:38:27.897Z</time></trkpt><trkpt lat="44.5986736" lon="9.8145728"><ele>1107.6666666666665</ele><time>2026-04-11T12:55:05.896Z</time></trkpt><trkpt lat="44.5987198" lon="9.8147196"><ele>1109.0</ele><time>2026-04-11T12:55:07.896Z</time></trkpt><trkpt lat="44.5987449" lon="9.814803"><ele>1110.3333333333333</ele><time>2026-04-11T12:55:08.896Z</time></trkpt><trkpt lat="44.598768" lon="9.8148891"><ele>1111.6666666666667</ele><time>2026-04-11T12:55:09.896Z</time></trkpt><trkpt lat="44.5987878" lon="9.8149814"><ele>1113.0</ele><time>2026-04-11T12:55:10.896Z</time></trkpt><trkpt lat="44.5987944" lon="9.8150774"><ele>1116.5</ele><time>2026-04-11T12:55:11.895Z</time></trkpt><trkpt lat="44.5988015" lon="9.8152434"><ele>1120.0</ele><time>2026-04-11T12:55:13.896Z</time></trkpt><trkpt lat="44.5988735" lon="9.8153401"><ele>1123.5</ele><time>2026-04-11T12:55:15.896Z</time></trkpt><trkpt lat="44.59901" lon="9.8153719"><ele>1127.0</ele><time>2026-04-11T12:55:17.896Z</time></trkpt><trkpt lat="44.5991259" lon="9.8153723"><ele>1127.0</ele><time>2026-04-11T12:55:18.896Z</time></trkpt><trkpt lat="44.5992079" lon="9.8153639"><ele>1127.0</ele><time>2026-04-11T12:55:19.896Z</time></trkpt><trkpt lat="44.5992813" lon="9.8153168"><ele>1127.0</ele><time>2026-04-11T12:55:20.896Z</time></trkpt><trkpt lat="44.5993449" lon="9.8152468"><ele>1127.0</ele><time>2026-04-11T12:55:21.895Z</time></trkpt><trkpt lat="44.5994031" lon="9.8151645"><ele>1127.0</ele><time>2026-04-11T12:55:22.895Z</time></trkpt><trkpt lat="44.599465" lon="9.8150979"><ele>1127.0</ele><time>2026-04-11T12:55:23.896Z</time></trkpt><trkpt lat="44.5995303" lon="9.8150562"><ele>1126.6</ele><time>2026-04-11T12:55:24.896Z</time></trkpt><trkpt lat="44.599593" lon="9.8150263"><ele>1126.2</ele><time>2026-04-11T12:55:25.896Z</time></trkpt><trkpt lat="44.5997041" lon="9.8150379"><ele>1125.8</ele><time>2026-04-11T12:55:27.896Z</time></trkpt><trkpt lat="44.5998034" lon="9.815014"><ele>1125.4</ele><time>2026-04-11T12:55:28.896Z</time></trkpt><trkpt lat="44.5999672" lon="9.8150736"><ele>1125.0</ele><time>2026-04-11T12:55:30.896Z</time></trkpt><trkpt lat="44.6000365" lon="9.8151344"><ele>1127.2857142857142</ele><time>2026-04-11T12:55:31.895Z</time></trkpt><trkpt lat="44.600084" lon="9.815208"><ele>1129.5714285714287</ele><time>2026-04-11T12:55:32.896Z</time></trkpt><trkpt lat="44.6001252" lon="9.8152868"><ele>1131.857142857143</ele><time>2026-04-11T12:55:33.896Z</time></trkpt><trkpt lat="44.6001686" lon="9.8153658"><ele>1134.142857142857</ele><time>2026-04-11T12:55:34.896Z</time></trkpt><trkpt lat="44.6001961" lon="9.8154508"><ele>1136.4285714285716</ele><time>2026-04-11T12:55:35.896Z</time></trkpt><trkpt lat="44.6002071" lon="9.8155487"><ele>1138.7142857142858</ele><time>2026-04-11T12:55:36.895Z</time></trkpt><trkpt lat="44.600211" lon="9.8156378"><ele>1141.0</ele><time>2026-04-11T12:55:37.896Z</time></trkpt><trkpt lat="44.6001488" lon="9.8157153"><ele>1141.0</ele><time>2026-04-11T12:55:38.896Z</time></trkpt><trkpt lat="44.6001106" lon="9.8159095"><ele>1141.0</ele><time>2026-04-11T12:55:40.896Z</time></trkpt><trkpt lat="44.6001813" lon="9.8160284"><ele>1141.0</ele><time>2026-04-11T12:55:42.896Z</time></trkpt><trkpt lat="44.6002535" lon="9.8160348"><ele>1141.0</ele><time>2026-04-11T12:55:43.896Z</time></trkpt><trkpt lat="44.6003255" lon="9.8160342"><ele>1141.0</ele><time>2026-04-11T12:55:44.896Z</time></trkpt><trkpt lat="44.6003943" lon="9.8160504"><ele>1143.6666666666665</ele><time>2026-04-11T12:55:45.896Z</time></trkpt><trkpt lat="44.6004625" lon="9.8160921"><ele>1146.3333333333333</ele><time>2026-04-11T12:55:46.896Z</time></trkpt><trkpt lat="44.6005165" lon="9.8161514"><ele>1149.0</ele><time>2026-04-11T12:55:47.896Z</time></trkpt><trkpt lat="44.6005526" lon="9.8162435"><ele>1151.6666666666667</ele><time>2026-04-11T12:55:48.896Z</time></trkpt><trkpt lat="44.6005522" lon="9.8164276"><ele>1154.3333333333335</ele><time>2026-04-11T12:55:50.897Z</time></trkpt><trkpt lat="44.6005114" lon="9.8165359"><ele>1157.0</ele><time>2026-04-11T12:55:51.896Z</time></trkpt><trkpt lat="44.6004588" lon="9.8166206"><ele>1157.0</ele><time>2026-04-11T12:55:52.895Z</time></trkpt><trkpt lat="44.6004031" lon="9.8167076"><ele>1157.0</ele><time>2026-04-11T12:55:53.897Z</time></trkpt><trkpt lat="44.6003512" lon="9.8167933"><ele>1157.0</ele><time>2026-04-11T12:55:54.896Z</time></trkpt><trkpt lat="44.6003211" lon="9.8168919"><ele>1157.0</ele><time>2026-04-11T12:55:55.895Z</time></trkpt><trkpt lat="44.600313" lon="9.817"><ele>1157.0</ele><time>2026-04-11T12:55:56.896Z</time></trkpt><trkpt lat="44.6003163" lon="9.8171162"><ele>1157.0</ele><time>2026-04-11T12:55:57.896Z</time></trkpt><trkpt lat="44.6003149" lon="9.8172434"><ele>1157.3333333333335</ele><time>2026-04-11T12:55:58.896Z</time></trkpt><trkpt lat="44.6003225" lon="9.8173535"><ele>1157.6666666666667</ele><time>2026-04-11T12:55:59.896Z</time></trkpt><trkpt lat="44.6003335" lon="9.8175078"><ele>1158.0</ele><time>2026-04-11T12:56:01.896Z</time></trkpt><trkpt lat="44.6004119" lon="9.817598"><ele>1158.3333333333333</ele><time>2026-04-11T12:56:03.895Z</time></trkpt><trkpt lat="44.6004791" lon="9.8175966"><ele>1158.6666666666665</ele><time>2026-04-11T12:56:04.895Z</time></trkpt><trkpt lat="44.6005579" lon="9.8175666"><ele>1159.0</ele><time>2026-04-11T12:56:05.895Z</time></trkpt><trkpt lat="44.6006302" lon="9.8175246"><ele>1159.8</ele><time>2026-04-11T12:56:06.896Z</time></trkpt><trkpt lat="44.6007" lon="9.8174721"><ele>1160.6000000000001</ele><time>2026-04-11T12:56:07.896Z</time></trkpt><trkpt lat="44.6007767" lon="9.8174238"><ele>1161.4</ele><time>2026-04-11T12:56:08.896Z</time></trkpt><trkpt lat="44.6008909" lon="9.8174297"><ele>1162.2</ele><time>2026-04-11T12:56:10.895Z</time></trkpt><trkpt lat="44.6009262" lon="9.81762"><ele>1163.0</ele><time>2026-04-11T12:56:13.896Z</time></trkpt><trkpt lat="44.6008934" lon="9.8177205"><ele>1164.1666666666667</ele><time>2026-04-11T12:56:15.896Z</time></trkpt><trkpt lat="44.6008484" lon="9.8178853"><ele>1165.3333333333335</ele><time>2026-04-11T12:56:17.895Z</time></trkpt><trkpt lat="44.6008179" lon="9.8179817"><ele>1166.5</ele><time>2026-04-11T12:56:18.896Z</time></trkpt><trkpt lat="44.6007818" lon="9.8180852"><ele>1167.6666666666667</ele><time>2026-04-11T12:56:19.896Z</time></trkpt><trkpt lat="44.6007512" lon="9.8181776"><ele>1168.8333333333333</ele><time>2026-04-11T12:56:20.895Z</time></trkpt><trkpt lat="44.6007222" lon="9.8182763"><ele>1170.0</ele><time>2026-04-11T12:56:21.896Z</time></trkpt><trkpt lat="44.6006916" lon="9.8183752"><ele>1170.0</ele><time>2026-04-11T12:56:22.896Z</time></trkpt><trkpt lat="44.600669" lon="9.8184754"><ele>1170.0</ele><time>2026-04-11T12:56:23.895Z</time></trkpt><trkpt lat="44.6006571" lon="9.8185666"><ele>1170.0</ele><time>2026-04-11T12:56:24.895Z</time></trkpt><trkpt lat="44.6006624" lon="9.8186799"><ele>1170.0</ele><time>2026-04-11T12:56:26.896Z</time></trkpt><trkpt lat="44.6006906" lon="9.8188113"><ele>1170.0</ele><time>2026-04-11T12:56:28.896Z</time></trkpt><trkpt lat="44.6007113" lon="9.8188982"><ele>1170.0</ele><time>2026-04-11T12:56:29.896Z</time></trkpt><trkpt lat="44.6007289" lon="9.8190325"><ele>1171.0</ele><time>2026-04-11T12:56:31.896Z</time></trkpt><trkpt lat="44.6007572" lon="9.8191756"><ele>1172.0</ele><time>2026-04-11T12:56:33.895Z</time></trkpt><trkpt lat="44.6008219" lon="9.8192138"><ele>1173.0</ele><time>2026-04-11T12:56:35.895Z</time></trkpt><trkpt lat="44.6008741" lon="9.8191003"><ele>1174.0</ele><time>2026-04-11T12:56:38.896Z</time></trkpt><trkpt lat="44.6009413" lon="9.8190673"><ele>1175.0</ele><time>2026-04-11T12:56:39.896Z</time></trkpt><trkpt lat="44.6009909" lon="9.818986"><ele>1176.0</ele><time>2026-04-11T12:56:40.896Z</time></trkpt><trkpt lat="44.6010615" lon="9.8189016"><ele>1176.0</ele><time>2026-04-11T12:56:41.896Z</time></trkpt><trkpt lat="44.6011186" lon="9.8188303"><ele>1176.0</ele><time>2026-04-11T12:56:42.895Z</time></trkpt><trkpt lat="44.6011861" lon="9.8187627"><ele>1176.0</ele><time>2026-04-11T12:56:43.895Z</time></trkpt><trkpt lat="44.6012529" lon="9.8187835"><ele>1176.0</ele><time>2026-04-11T12:56:44.896Z</time></trkpt><trkpt lat="44.6013166" lon="9.8187359"><ele>1176.0</ele><time>2026-04-11T12:56:45.896Z</time></trkpt><trkpt lat="44.601402" lon="9.8186777"><ele>1176.0</ele><time>2026-04-11T12:56:47.896Z</time></trkpt><trkpt lat="44.6015144" lon="9.8186199"><ele>1174.1666666666667</ele><time>2026-04-11T12:56:49.895Z</time></trkpt><trkpt lat="44.6015811" lon="9.8185897"><ele>1172.3333333333333</ele><time>2026-04-11T12:56:50.896Z</time></trkpt><trkpt lat="44.6016546" lon="9.818686"><ele>1170.5</ele><time>2026-04-11T12:56:51.895Z</time></trkpt><trkpt lat="44.6017275" lon="9.8187182"><ele>1168.6666666666665</ele><time>2026-04-11T12:56:52.896Z</time></trkpt><trkpt lat="44.6017929" lon="9.8187619"><ele>1166.8333333333333</ele><time>2026-04-11T12:56:53.896Z</time></trkpt><trkpt lat="44.6019052" lon="9.818823"><ele>1165.0</ele><time>2026-04-11T12:56:55.896Z</time></trkpt><trkpt lat="44.602002" lon="9.8188963"><ele>1162.8333333333333</ele><time>2026-04-11T12:56:57.896Z</time></trkpt><trkpt lat="44.602052" lon="9.8189673"><ele>1160.6666666666665</ele><time>2026-04-11T12:56:58.895Z</time></trkpt><trkpt lat="44.6020784" lon="9.8190486"><ele>1158.5</ele><time>2026-04-11T12:56:59.895Z</time></trkpt><trkpt lat="44.6021373" lon="9.8191146"><ele>1156.3333333333333</ele><time>2026-04-11T12:57:00.896Z</time></trkpt><trkpt lat="44.6022102" lon="9.8191999"><ele>1154.1666666666667</ele><time>2026-04-11T12:57:01.896Z</time></trkpt><trkpt lat="44.6022669" lon="9.8192802"><ele>1152.0</ele><time>2026-04-11T12:57:02.896Z</time></trkpt><trkpt lat="44.6023069" lon="9.8193573"><ele>1152.0</ele><time>2026-04-11T12:57:03.896Z</time></trkpt><trkpt lat="44.6023665" lon="9.8195243"><ele>1152.0</ele><time>2026-04-11T12:57:05.896Z</time></trkpt><trkpt lat="44.6024303" lon="9.8196597"><ele>1152.0</ele><time>2026-04-11T12:57:07.895Z</time></trkpt><trkpt lat="44.6025131" lon="9.8197758"><ele>1152.0</ele><time>2026-04-11T12:57:09.895Z</time></trkpt><trkpt lat="44.6025982" lon="9.8197716"><ele>1152.0</ele><time>2026-04-11T12:57:11.896Z</time></trkpt><trkpt lat="44.6026457" lon="9.8196262"><ele>1152.0</ele><time>2026-04-11T12:57:14.896Z</time></trkpt><trkpt lat="44.6026841" lon="9.8195414"><ele>1152.0</ele><time>2026-04-11T12:57:15.895Z</time></trkpt><trkpt lat="44.6027271" lon="9.8194596"><ele>1152.0</ele><time>2026-04-11T12:57:16.896Z</time></trkpt><trkpt lat="44.6027799" lon="9.8193815"><ele>1152.0</ele><time>2026-04-11T12:57:17.896Z</time></trkpt><trkpt lat="44.6028412" lon="9.8193043"><ele>1152.0</ele><time>2026-04-11T12:57:18.896Z</time></trkpt><trkpt lat="44.602914" lon="9.8192285"><ele>1148.8</ele><time>2026-04-11T12:57:19.895Z</time></trkpt><trkpt lat="44.6029933" lon="9.8191456"><ele>1145.6</ele><time>2026-04-11T12:57:20.896Z</time></trkpt><trkpt lat="44.6030522" lon="9.8190223"><ele>1142.3999999999999</ele><time>2026-04-11T12:57:21.896Z</time></trkpt><trkpt lat="44.6031244" lon="9.818909"><ele>1139.2</ele><time>2026-04-11T12:57:22.896Z</time></trkpt><trkpt lat="44.6031701" lon="9.8187751"><ele>1136.0</ele><time>2026-04-11T12:57:23.896Z</time></trkpt><trkpt lat="44.6032422" lon="9.8186795"><ele>1136.0</ele><time>2026-04-11T12:57:24.895Z</time></trkpt><trkpt lat="44.6033123" lon="9.8185805"><ele>1136.0</ele><time>2026-04-11T12:57:25.896Z</time></trkpt><trkpt lat="44.6033792" lon="9.8184873"><ele>1136.0</ele><time>2026-04-11T12:57:26.896Z</time></trkpt><trkpt lat="44.6034407" lon="9.8184164"><ele>1136.0</ele><time>2026-04-11T12:57:27.896Z</time></trkpt><trkpt lat="44.6035048" lon="9.8183272"><ele>1136.0</ele><time>2026-04-11T12:57:28.896Z</time></trkpt><trkpt lat="44.603568" lon="9.8182372"><ele>1136.8</ele><time>2026-04-11T12:57:29.896Z</time></trkpt><trkpt lat="44.6036209" lon="9.8181344"><ele>1137.6</ele><time>2026-04-11T12:57:30.897Z</time></trkpt><trkpt lat="44.6036915" lon="9.8180473"><ele>1138.4</ele><time>2026-04-11T12:57:31.895Z</time></trkpt><trkpt lat="44.6037709" lon="9.8179575"><ele>1139.2</ele><time>2026-04-11T12:57:32.896Z</time></trkpt><trkpt lat="44.60382" lon="9.8178503"><ele>1140.0</ele><time>2026-04-11T12:57:33.896Z</time></trkpt><trkpt lat="44.603879" lon="9.8177758"><ele>1137.0</ele><time>2026-04-11T12:57:34.896Z</time></trkpt><trkpt lat="44.6039048" lon="9.8176704"><ele>1134.0</ele><time>2026-04-11T12:57:35.896Z</time></trkpt><trkpt lat="44.6040096" lon="9.8175964"><ele>1131.0</ele><time>2026-04-11T12:57:36.896Z</time></trkpt><trkpt lat="44.6041148" lon="9.817505"><ele>1128.0</ele><time>2026-04-11T12:57:37.896Z</time></trkpt><trkpt lat="44.6042122" lon="9.8174264"><ele>1125.0</ele><time>2026-04-11T12:57:38.896Z</time></trkpt><trkpt lat="44.6042815" lon="9.8173268"><ele>1125.0</ele><time>2026-04-11T12:57:39.896Z</time></trkpt><trkpt lat="44.6043578" lon="9.8172506"><ele>1125.0</ele><time>2026-04-11T12:57:40.896Z</time></trkpt><trkpt lat="44.6043865" lon="9.8171505"><ele>1125.0</ele><time>2026-04-11T12:57:41.895Z</time></trkpt><trkpt lat="44.6044396" lon="9.8170742"><ele>1125.0</ele><time>2026-04-11T12:57:42.896Z</time></trkpt><trkpt lat="44.6044877" lon="9.8169754"><ele>1125.0</ele><time>2026-04-11T12:57:43.895Z</time></trkpt><trkpt lat="44.6044861" lon="9.8168576"><ele>1125.0</ele><time>2026-04-11T12:57:44.896Z</time></trkpt><trkpt lat="44.6045607" lon="9.8167606"><ele>1120.8</ele><time>2026-04-11T12:57:45.895Z</time></trkpt><trkpt lat="44.6046286" lon="9.8166695"><ele>1116.6</ele><time>2026-04-11T12:57:46.895Z</time></trkpt><trkpt lat="44.6047046" lon="9.8165815"><ele>1112.4</ele><time>2026-04-11T12:57:47.895Z</time></trkpt><trkpt lat="44.6047619" lon="9.8164636"><ele>1108.2</ele><time>2026-04-11T12:57:48.895Z</time></trkpt><trkpt lat="44.6048034" lon="9.8163485"><ele>1104.0</ele><time>2026-04-11T12:57:49.895Z</time></trkpt><trkpt lat="44.6048755" lon="9.8163297"><ele>1104.0</ele><time>2026-04-11T12:57:50.896Z</time></trkpt><trkpt lat="44.6049351" lon="9.816282"><ele>1104.0</ele><time>2026-04-11T12:57:51.896Z</time></trkpt><trkpt lat="44.6050364" lon="9.8163437"><ele>1104.0</ele><time>2026-04-11T12:57:53.896Z</time></trkpt><trkpt lat="44.6050484" lon="9.8165106"><ele>1104.0</ele><time>2026-04-11T12:57:55.895Z</time></trkpt><trkpt lat="44.6050083" lon="9.81665"><ele>1104.0</ele><time>2026-04-11T12:57:57.896Z</time></trkpt><trkpt lat="44.605084" lon="9.8167234"><ele>1104.0</ele><time>2026-04-11T12:58:00.895Z</time></trkpt><trkpt lat="44.6051534" lon="9.8165877"><ele>1104.0</ele><time>2026-04-11T12:58:02.896Z</time></trkpt><trkpt lat="44.6052405" lon="9.8164464"><ele>1104.0</ele><time>2026-04-11T12:58:04.896Z</time></trkpt><trkpt lat="44.6052718" lon="9.8163314"><ele>1104.0</ele><time>2026-04-11T12:58:05.895Z</time></trkpt><trkpt lat="44.6053125" lon="9.8162312"><ele>1104.0</ele><time>2026-04-11T12:58:06.896Z</time></trkpt><trkpt lat="44.6053745" lon="9.8161414"><ele>1101.3333333333333</ele><time>2026-04-11T12:58:07.896Z</time></trkpt><trkpt lat="44.6054304" lon="9.8160637"><ele>1098.6666666666667</ele><time>2026-04-11T12:58:08.896Z</time></trkpt><trkpt lat="44.6054643" lon="9.8159675"><ele>1096.0</ele><time>2026-04-11T12:58:09.896Z</time></trkpt><trkpt lat="44.6054985" lon="9.8158721"><ele>1093.3333333333335</ele><time>2026-04-11T12:58:10.895Z</time></trkpt><trkpt lat="44.6055232" lon="9.8157807"><ele>1090.6666666666667</ele><time>2026-04-11T12:58:11.896Z</time></trkpt><trkpt lat="44.6055456" lon="9.8156792"><ele>1088.0</ele><time>2026-04-11T12:58:12.896Z</time></trkpt><trkpt lat="44.6055735" lon="9.8155483"><ele>1086.8</ele><time>2026-04-11T12:58:13.895Z</time></trkpt><trkpt lat="44.6056095" lon="9.8154208"><ele>1085.6</ele><time>2026-04-11T12:58:14.896Z</time></trkpt><trkpt lat="44.6056736" lon="9.8153178"><ele>1084.4</ele><time>2026-04-11T12:58:15.896Z</time></trkpt><trkpt lat="44.6057047" lon="9.8151938"><ele>1083.2</ele><time>2026-04-11T12:58:16.896Z</time></trkpt><trkpt lat="44.6057507" lon="9.8151178"><ele>1082.0</ele><time>2026-04-11T12:58:17.896Z</time></trkpt><trkpt lat="44.6058578" lon="9.8150888"><ele>1082.0</ele><time>2026-04-11T12:58:18.896Z</time></trkpt><trkpt lat="44.6059587" lon="9.8149347"><ele>1082.0</ele><time>2026-04-11T12:58:20.896Z</time></trkpt><trkpt lat="44.6060314" lon="9.814837"><ele>1082.0</ele><time>2026-04-11T12:58:21.895Z</time></trkpt><trkpt lat="44.6061068" lon="9.8147518"><ele>1082.0</ele><time>2026-04-11T12:58:22.896Z</time></trkpt><trkpt lat="44.6062118" lon="9.8146769"><ele>1076.2</ele><time>2026-04-11T12:58:23.896Z</time></trkpt><trkpt lat="44.6062943" lon="9.8145933"><ele>1070.4</ele><time>2026-04-11T12:58:24.896Z</time></trkpt><trkpt lat="44.6063714" lon="9.8145135"><ele>1064.6</ele><time>2026-04-11T12:58:25.896Z</time></trkpt><trkpt lat="44.6064315" lon="9.8144312"><ele>1058.8</ele><time>2026-04-11T12:58:26.896Z</time></trkpt><trkpt lat="44.6064914" lon="9.8143298"><ele>1053.0</ele><time>2026-04-11T12:58:27.896Z</time></trkpt><trkpt lat="44.6065391" lon="9.8141947"><ele>1053.0</ele><time>2026-04-11T12:58:28.896Z</time></trkpt><trkpt lat="44.6065555" lon="9.8140715"><ele>1053.0</ele><time>2026-04-11T12:58:29.897Z</time></trkpt><trkpt lat="44.6065315" lon="9.813906"><ele>1053.0</ele><time>2026-04-11T12:58:30.896Z</time></trkpt><trkpt lat="44.6065321" lon="9.8137503"><ele>1053.0</ele><time>2026-04-11T12:58:31.896Z</time></trkpt><trkpt lat="44.6065531" lon="9.8135999"><ele>1053.0</ele><time>2026-04-11T12:58:32.896Z</time></trkpt><trkpt lat="44.6065697" lon="9.8134489"><ele>1052.8</ele><time>2026-04-11T12:58:33.896Z</time></trkpt><trkpt lat="44.6064903" lon="9.8133513"><ele>1052.6</ele><time>2026-04-11T12:58:34.896Z</time></trkpt><trkpt lat="44.6065124" lon="9.8132489"><ele>1052.4</ele><time>2026-04-11T12:58:35.896Z</time></trkpt><trkpt lat="44.6065056" lon="9.8131103"><ele>1052.2</ele><time>2026-04-11T12:58:36.896Z</time></trkpt><trkpt lat="44.6064406" lon="9.8129942"><ele>1052.0</ele><time>2026-04-11T12:58:37.896Z</time></trkpt><trkpt lat="44.6064086" lon="9.8128611"><ele>1052.0</ele><time>2026-04-11T12:58:38.896Z</time></trkpt><trkpt lat="44.6064068" lon="9.8127069"><ele>1052.0</ele><time>2026-04-11T12:58:39.896Z</time></trkpt><trkpt lat="44.6064216" lon="9.8125733"><ele>1052.0</ele><time>2026-04-11T12:58:40.896Z</time></trkpt><trkpt lat="44.6064789" lon="9.8123753"><ele>1052.0</ele><time>2026-04-11T12:58:42.896Z</time></trkpt><trkpt lat="44.6066023" lon="9.8122771"><ele>1052.25</ele><time>2026-04-11T12:58:43.896Z</time></trkpt><trkpt lat="44.6067117" lon="9.8121809"><ele>1052.5</ele><time>2026-04-11T12:58:44.895Z</time></trkpt><trkpt lat="44.606846" lon="9.8121715"><ele>1052.75</ele><time>2026-04-11T12:58:45.896Z</time></trkpt><trkpt lat="44.6069162" lon="9.8120865"><ele>1053.0</ele><time>2026-04-11T12:58:46.896Z</time></trkpt><trkpt lat="44.6069405" lon="9.8119507"><ele>1053.0</ele><time>2026-04-11T12:58:47.896Z</time></trkpt><trkpt lat="44.6069734" lon="9.8118459"><ele>1053.0</ele><time>2026-04-11T12:58:48.896Z</time></trkpt><trkpt lat="44.6069786" lon="9.8117241"><ele>1053.0</ele><time>2026-04-11T12:58:49.896Z</time></trkpt><trkpt lat="44.6069934" lon="9.8116078"><ele>1053.0</ele><time>2026-04-11T12:58:50.896Z</time></trkpt><trkpt lat="44.6069624" lon="9.8114147"><ele>1053.0</ele><time>2026-04-11T12:58:52.896Z</time></trkpt><trkpt lat="44.6069542" lon="9.811314"><ele>1053.0</ele><time>2026-04-11T12:58:53.895Z</time></trkpt><trkpt lat="44.6069726" lon="9.8111933"><ele>1053.0</ele><time>2026-04-11T12:58:54.896Z</time></trkpt><trkpt lat="44.6069921" lon="9.8110857"><ele>1053.0</ele><time>2026-04-11T12:58:55.896Z</time></trkpt><trkpt lat="44.6070059" lon="9.8109543"><ele>1053.0</ele><time>2026-04-11T12:58:56.895Z</time></trkpt><trkpt lat="44.6070577" lon="9.8108723"><ele>1053.0</ele><time>2026-04-11T12:58:57.896Z</time></trkpt><trkpt lat="44.607246" lon="9.8108907"><ele>1049.1666666666667</ele><time>2026-04-11T12:58:58.896Z</time></trkpt><trkpt lat="44.6073251" lon="9.810837"><ele>1045.3333333333333</ele><time>2026-04-11T12:58:59.895Z</time></trkpt><trkpt lat="44.6074162" lon="9.8107718"><ele>1041.5</ele><time>2026-04-11T12:59:00.896Z</time></trkpt><trkpt lat="44.6074756" lon="9.8106838"><ele>1037.6666666666665</ele><time>2026-04-11T12:59:01.896Z</time></trkpt><trkpt lat="44.6075207" lon="9.8105761"><ele>1033.8333333333333</ele><time>2026-04-11T12:59:02.895Z</time></trkpt><trkpt lat="44.6075307" lon="9.8104673"><ele>1030.0</ele><time>2026-04-11T12:59:03.896Z</time></trkpt><trkpt lat="44.6075377" lon="9.8103649"><ele>1030.0</ele><time>2026-04-11T12:59:04.896Z</time></trkpt><trkpt lat="44.6075215" lon="9.8102235"><ele>1030.0</ele><time>2026-04-11T12:59:05.895Z</time></trkpt><trkpt lat="44.6075224" lon="9.8101152"><ele>1030.0</ele><time>2026-04-11T12:59:06.896Z</time></trkpt><trkpt lat="44.607501" lon="9.8099574"><ele>1030.0</ele><time>2026-04-11T12:59:07.896Z</time></trkpt><trkpt lat="44.6075002" lon="9.8098221"><ele>1030.0</ele><time>2026-04-11T12:59:08.895Z</time></trkpt><trkpt lat="44.6075173" lon="9.8096917"><ele>1028.8</ele><time>2026-04-11T12:59:09.897Z</time></trkpt><trkpt lat="44.607535" lon="9.8095498"><ele>1027.6</ele><time>2026-04-11T12:59:10.896Z</time></trkpt><trkpt lat="44.6075508" lon="9.809401"><ele>1026.4</ele><time>2026-04-11T12:59:11.896Z</time></trkpt><trkpt lat="44.6075772" lon="9.8092434"><ele>1025.2</ele><time>2026-04-11T12:59:12.896Z</time></trkpt><trkpt lat="44.60763" lon="9.8090934"><ele>1024.0</ele><time>2026-04-11T12:59:13.896Z</time></trkpt><trkpt lat="44.6076745" lon="9.8089472"><ele>1023.75</ele><time>2026-04-11T12:59:14.896Z</time></trkpt><trkpt lat="44.6077102" lon="9.8087861"><ele>1023.5</ele><time>2026-04-11T12:59:15.896Z</time></trkpt><trkpt lat="44.6077861" lon="9.8086349"><ele>1023.25</ele><time>2026-04-11T12:59:16.896Z</time></trkpt><trkpt lat="44.6078349" lon="9.8085048"><ele>1023.0</ele><time>2026-04-11T12:59:17.896Z</time></trkpt><trkpt lat="44.6078843" lon="9.8083656"><ele>1017.5999999999999</ele><time>2026-04-11T12:59:18.895Z</time></trkpt><trkpt lat="44.6079427" lon="9.8082096"><ele>1012.1999999999999</ele><time>2026-04-11T12:59:19.895Z</time></trkpt><trkpt lat="44.6079874" lon="9.8081062"><ele>1006.8</ele><time>2026-04-11T12:59:20.895Z</time></trkpt><trkpt lat="44.608055" lon="9.8080117"><ele>1001.4</ele><time>2026-04-11T12:59:21.895Z</time></trkpt><trkpt lat="44.6081376" lon="9.8078745"><ele>996.0</ele><time>2026-04-11T12:59:23.896Z</time></trkpt><trkpt lat="44.6082203" lon="9.807846"><ele>996.0</ele><time>2026-04-11T12:59:24.896Z</time></trkpt><trkpt lat="44.6082931" lon="9.8078102"><ele>995.9999999999999</ele><time>2026-04-11T12:59:25.896Z</time></trkpt><trkpt lat="44.6083738" lon="9.8077634"><ele>995.9999999999999</ele><time>2026-04-11T12:59:26.895Z</time></trkpt><trkpt lat="44.6084836" lon="9.8077146"><ele>996.0</ele><time>2026-04-11T12:59:27.896Z</time></trkpt><trkpt lat="44.6085392" lon="9.8075752"><ele>996.0</ele><time>2026-04-11T12:59:28.895Z</time></trkpt><trkpt lat="44.6085856" lon="9.8074589"><ele>996.8</ele><time>2026-04-11T12:59:29.896Z</time></trkpt><trkpt lat="44.6086498" lon="9.8073747"><ele>997.5999999999999</ele><time>2026-04-11T12:59:30.895Z</time></trkpt><trkpt lat="44.6086877" lon="9.8072694"><ele>998.4</ele><time>2026-04-11T12:59:31.896Z</time></trkpt><trkpt lat="44.6087585" lon="9.8071913"><ele>999.2</ele><time>2026-04-11T12:59:32.895Z</time></trkpt><trkpt lat="44.6088432" lon="9.8071116"><ele>1000.0</ele><time>2026-04-11T12:59:33.896Z</time></trkpt><trkpt lat="44.608925" lon="9.8070663"><ele>996.4</ele><time>2026-04-11T12:59:34.896Z</time></trkpt><trkpt lat="44.6090289" lon="9.8071171"><ele>992.8</ele><time>2026-04-11T12:59:35.895Z</time></trkpt><trkpt lat="44.609106" lon="9.8071114"><ele>989.2</ele><time>2026-04-11T12:59:36.896Z</time></trkpt><trkpt lat="44.609186" lon="9.8071512"><ele>985.6</ele><time>2026-04-11T12:59:37.895Z</time></trkpt><trkpt lat="44.6093108" lon="9.8072302"><ele>982.0</ele><time>2026-04-11T12:59:38.896Z</time></trkpt><trkpt lat="44.6093688" lon="9.8073106"><ele>982.0</ele><time>2026-04-11T12:59:39.896Z</time></trkpt><trkpt lat="44.6094415" lon="9.8073571"><ele>982.0</ele><time>2026-04-11T12:59:40.895Z</time></trkpt><trkpt lat="44.6095125" lon="9.8073862"><ele>982.0</ele><time>2026-04-11T12:59:41.896Z</time></trkpt><trkpt lat="44.6095818" lon="9.8073827"><ele>982.0</ele><time>2026-04-11T12:59:42.895Z</time></trkpt><trkpt lat="44.6096768" lon="9.8073088"><ele>982.0</ele><time>2026-04-11T12:59:43.896Z</time></trkpt><trkpt lat="44.6096879" lon="9.807144"><ele>979.1666666666666</ele><time>2026-04-11T12:59:44.895Z</time></trkpt><trkpt lat="44.6097321" lon="9.8070699"><ele>976.3333333333333</ele><time>2026-04-11T12:59:45.896Z</time></trkpt><trkpt lat="44.6097807" lon="9.8069888"><ele>973.5</ele><time>2026-04-11T12:59:46.896Z</time></trkpt><trkpt lat="44.6098337" lon="9.8069014"><ele>970.6666666666667</ele><time>2026-04-11T12:59:47.896Z</time></trkpt><trkpt lat="44.6098915" lon="9.8068458"><ele>967.8333333333334</ele><time>2026-04-11T12:59:48.896Z</time></trkpt><trkpt lat="44.6099675" lon="9.8068481"><ele>965.0</ele><time>2026-04-11T12:59:49.895Z</time></trkpt><trkpt lat="44.610048" lon="9.8069157"><ele>965.0</ele><time>2026-04-11T12:59:50.896Z</time></trkpt><trkpt lat="44.6101238" lon="9.8069561"><ele>965.0</ele><time>2026-04-11T12:59:51.895Z</time></trkpt><trkpt lat="44.6101985" lon="9.8070089"><ele>965.0</ele><time>2026-04-11T12:59:52.896Z</time></trkpt><trkpt lat="44.6102711" lon="9.8071303"><ele>965.0</ele><time>2026-04-11T12:59:53.895Z</time></trkpt><trkpt lat="44.6103384" lon="9.8072398"><ele>965.0</ele><time>2026-04-11T12:59:54.896Z</time></trkpt><trkpt lat="44.6103936" lon="9.8073103"><ele>960.0</ele><time>2026-04-11T12:59:55.896Z</time></trkpt><trkpt lat="44.6104508" lon="9.8073831"><ele>955.0</ele><time>2026-04-11T12:59:56.896Z</time></trkpt><trkpt lat="44.6105029" lon="9.8074848"><ele>950.0</ele><time>2026-04-11T12:59:57.896Z</time></trkpt><trkpt lat="44.6105232" lon="9.807623"><ele>945.0</ele><time>2026-04-11T12:59:58.896Z</time></trkpt><trkpt lat="44.6105353" lon="9.8077546"><ele>940.0</ele><time>2026-04-11T12:59:59.896Z</time></trkpt><trkpt lat="44.6105414" lon="9.8078846"><ele>938.8</ele><time>2026-04-11T13:00:00.896Z</time></trkpt><trkpt lat="44.6105579" lon="9.8080187"><ele>937.6</ele><time>2026-04-11T13:00:01.896Z</time></trkpt><trkpt lat="44.6105785" lon="9.8081702"><ele>936.4000000000001</ele><time>2026-04-11T13:00:02.896Z</time></trkpt><trkpt lat="44.6105932" lon="9.808321"><ele>935.2</ele><time>2026-04-11T13:00:03.896Z</time></trkpt><trkpt lat="44.610613" lon="9.8084433"><ele>934.0</ele><time>2026-04-11T13:00:04.895Z</time></trkpt><trkpt lat="44.610637" lon="9.808575"><ele>933.4000000000001</ele><time>2026-04-11T13:00:05.896Z</time></trkpt><trkpt lat="44.6106414" lon="9.8086963"><ele>932.8000000000001</ele><time>2026-04-11T13:00:06.896Z</time></trkpt><trkpt lat="44.6106698" lon="9.8088378"><ele>932.1999999999999</ele><time>2026-04-11T13:00:07.896Z</time></trkpt><trkpt lat="44.6106723" lon="9.8089777"><ele>931.5999999999999</ele><time>2026-04-11T13:00:08.896Z</time></trkpt><trkpt lat="44.6106903" lon="9.8091224"><ele>931.0</ele><time>2026-04-11T13:00:09.896Z</time></trkpt><trkpt lat="44.6107428" lon="9.8093695"><ele>930.4999999999999</ele><time>2026-04-11T13:00:11.895Z</time></trkpt><trkpt lat="44.6107797" lon="9.8094908"><ele>930.0</ele><time>2026-04-11T13:00:12.896Z</time></trkpt><trkpt lat="44.6108514" lon="9.8095986"><ele>929.5</ele><time>2026-04-11T13:00:13.895Z</time></trkpt><trkpt lat="44.6109157" lon="9.8096715"><ele>929.0</ele><time>2026-04-11T13:00:14.896Z</time></trkpt><trkpt lat="44.6109588" lon="9.8097669"><ele>928.4999999999999</ele><time>2026-04-11T13:00:15.895Z</time></trkpt><trkpt lat="44.6109461" lon="9.809884"><ele>928.0</ele><time>2026-04-11T13:00:16.896Z</time></trkpt><trkpt lat="44.6109125" lon="9.8099902"><ele>928.0</ele><time>2026-04-11T13:00:17.895Z</time></trkpt><trkpt lat="44.6108815" lon="9.8101094"><ele>928.0</ele><time>2026-04-11T13:00:18.896Z</time></trkpt><trkpt lat="44.6108687" lon="9.8102493"><ele>928.0</ele><time>2026-04-11T13:00:19.896Z</time></trkpt><trkpt lat="44.6108492" lon="9.8103874"><ele>928.0</ele><time>2026-04-11T13:00:20.896Z</time></trkpt><trkpt lat="44.6108532" lon="9.8105356"><ele>928.0</ele><time>2026-04-11T13:00:21.895Z</time></trkpt><trkpt lat="44.6108433" lon="9.8106815"><ele>926.25</ele><time>2026-04-11T13:00:22.897Z</time></trkpt><trkpt lat="44.610854" lon="9.8108518"><ele>924.5</ele><time>2026-04-11T13:00:23.896Z</time></trkpt><trkpt lat="44.6108681" lon="9.8110183"><ele>922.75</ele><time>2026-04-11T13:00:24.895Z</time></trkpt><trkpt lat="44.6108792" lon="9.8111557"><ele>921.0</ele><time>2026-04-11T13:00:25.896Z</time></trkpt><trkpt lat="44.610918" lon="9.8113306"><ele>919.8</ele><time>2026-04-11T13:00:26.895Z</time></trkpt><trkpt lat="44.6109367" lon="9.8114879"><ele>918.5999999999999</ele><time>2026-04-11T13:00:27.896Z</time></trkpt><trkpt lat="44.610958" lon="9.8116335"><ele>917.4</ele><time>2026-04-11T13:00:28.896Z</time></trkpt><trkpt lat="44.6109539" lon="9.811783"><ele>916.2</ele><time>2026-04-11T13:00:29.895Z</time></trkpt><trkpt lat="44.610958" lon="9.81193"><ele>915.0</ele><time>2026-04-11T13:00:30.896Z</time></trkpt><trkpt lat="44.610965" lon="9.8120747"><ele>915.25</ele><time>2026-04-11T13:00:31.896Z</time></trkpt><trkpt lat="44.6109642" lon="9.8122184"><ele>915.5</ele><time>2026-04-11T13:00:32.896Z</time></trkpt><trkpt lat="44.6109596" lon="9.8123581"><ele>915.75</ele><time>2026-04-11T13:00:33.896Z</time></trkpt><trkpt lat="44.6109628" lon="9.8124896"><ele>916.0</ele><time>2026-04-11T13:00:34.896Z</time></trkpt><trkpt lat="44.610994" lon="9.8127465"><ele>915.9999999999999</ele><time>2026-04-11T13:00:36.896Z</time></trkpt><trkpt lat="44.6110161" lon="9.8128622"><ele>916.0</ele><time>2026-04-11T13:00:37.896Z</time></trkpt><trkpt lat="44.6110184" lon="9.812979"><ele>916.0</ele><time>2026-04-11T13:00:38.896Z</time></trkpt><trkpt lat="44.6110019" lon="9.8131081"><ele>916.0</ele><time>2026-04-11T13:00:39.896Z</time></trkpt><trkpt lat="44.610979" lon="9.8132249"><ele>915.9999999999999</ele><time>2026-04-11T13:00:40.896Z</time></trkpt><trkpt lat="44.6109673" lon="9.8133329"><ele>916.0</ele><time>2026-04-11T13:00:41.896Z</time></trkpt><trkpt lat="44.6110175" lon="9.8134282"><ele>918.3333333333333</ele><time>2026-04-11T13:00:42.896Z</time></trkpt><trkpt lat="44.6110553" lon="9.8135151"><ele>920.6666666666666</ele><time>2026-04-11T13:00:43.896Z</time></trkpt><trkpt lat="44.6111032" lon="9.8136088"><ele>923.0</ele><time>2026-04-11T13:00:44.896Z</time></trkpt><trkpt lat="44.6111676" lon="9.813686"><ele>925.3333333333333</ele><time>2026-04-11T13:00:45.895Z</time></trkpt><trkpt lat="44.6112307" lon="9.8137759"><ele>927.6666666666666</ele><time>2026-04-11T13:00:46.895Z</time></trkpt><trkpt lat="44.6113242" lon="9.8138479"><ele>930.0</ele><time>2026-04-11T13:00:47.896Z</time></trkpt><trkpt lat="44.6113947" lon="9.8139523"><ele>923.4</ele><time>2026-04-11T13:00:48.895Z</time></trkpt><trkpt lat="44.6114527" lon="9.8140751"><ele>916.8</ele><time>2026-04-11T13:00:49.896Z</time></trkpt><trkpt lat="44.6115183" lon="9.8141866"><ele>910.2</ele><time>2026-04-11T13:00:50.896Z</time></trkpt><trkpt lat="44.6115831" lon="9.8143019"><ele>903.6</ele><time>2026-04-11T13:00:51.896Z</time></trkpt><trkpt lat="44.6116172" lon="9.8144497"><ele>897.0</ele><time>2026-04-11T13:00:52.896Z</time></trkpt><trkpt lat="44.6116712" lon="9.8145921"><ele>897.0</ele><time>2026-04-11T13:00:53.895Z</time></trkpt><trkpt lat="44.6117473" lon="9.8148517"><ele>897.0</ele><time>2026-04-11T13:00:55.896Z</time></trkpt><trkpt lat="44.6117942" lon="9.8149777"><ele>897.0</ele><time>2026-04-11T13:00:56.897Z</time></trkpt><trkpt lat="44.6118298" lon="9.8150782"><ele>897.0</ele><time>2026-04-11T13:00:57.895Z</time></trkpt><trkpt lat="44.6118745" lon="9.8151925"><ele>896.0</ele><time>2026-04-11T13:00:58.896Z</time></trkpt><trkpt lat="44.6118577" lon="9.8153316"><ele>895.0</ele><time>2026-04-11T13:00:59.895Z</time></trkpt><trkpt lat="44.6118571" lon="9.815454"><ele>894.0</ele><time>2026-04-11T13:01:00.896Z</time></trkpt><trkpt lat="44.6118475" lon="9.8155785"><ele>893.0</ele><time>2026-04-11T13:01:01.895Z</time></trkpt><trkpt lat="44.6118491" lon="9.8157071"><ele>892.0</ele><time>2026-04-11T13:01:02.896Z</time></trkpt><trkpt lat="44.6118637" lon="9.8158207"><ele>891.9999999999999</ele><time>2026-04-11T13:01:03.895Z</time></trkpt><trkpt lat="44.611887" lon="9.8159266"><ele>892.0</ele><time>2026-04-11T13:01:04.896Z</time></trkpt><trkpt lat="44.6119181" lon="9.8160356"><ele>892.0</ele><time>2026-04-11T13:01:05.895Z</time></trkpt><trkpt lat="44.6119297" lon="9.8161522"><ele>892.0</ele><time>2026-04-11T13:01:06.896Z</time></trkpt><trkpt lat="44.6119502" lon="9.8162695"><ele>891.9999999999999</ele><time>2026-04-11T13:01:07.896Z</time></trkpt><trkpt lat="44.6119771" lon="9.8164011"><ele>892.0</ele><time>2026-04-11T13:01:08.895Z</time></trkpt><trkpt lat="44.6120048" lon="9.8165089"><ele>885.0</ele><time>2026-04-11T13:01:09.896Z</time></trkpt><trkpt lat="44.6120389" lon="9.8166148"><ele>878.0</ele><time>2026-04-11T13:01:10.895Z</time></trkpt><trkpt lat="44.6121267" lon="9.8166694"><ele>871.0</ele><time>2026-04-11T13:01:11.896Z</time></trkpt><trkpt lat="44.6121996" lon="9.8168429"><ele>864.0</ele><time>2026-04-11T13:01:13.897Z</time></trkpt><trkpt lat="44.612224" lon="9.8169571"><ele>857.0</ele><time>2026-04-11T13:01:14.896Z</time></trkpt><trkpt lat="44.6122358" lon="9.81709"><ele>856.0</ele><time>2026-04-11T13:01:15.895Z</time></trkpt><trkpt lat="44.6122369" lon="9.8172313"><ele>855.0</ele><time>2026-04-11T13:01:16.896Z</time></trkpt><trkpt lat="44.6122326" lon="9.8173844"><ele>854.0</ele><time>2026-04-11T13:01:17.896Z</time></trkpt><trkpt lat="44.6122047" lon="9.8175296"><ele>853.0</ele><time>2026-04-11T13:01:18.896Z</time></trkpt><trkpt lat="44.6121873" lon="9.8176711"><ele>852.0</ele><time>2026-04-11T13:01:19.896Z</time></trkpt><trkpt lat="44.6121701" lon="9.8177912"><ele>851.3333333333334</ele><time>2026-04-11T13:01:20.896Z</time></trkpt><trkpt lat="44.6121581" lon="9.8179007"><ele>850.6666666666667</ele><time>2026-04-11T13:01:21.896Z</time></trkpt><trkpt lat="44.6121644" lon="9.8180007"><ele>850.0</ele><time>2026-04-11T13:01:22.896Z</time></trkpt><trkpt lat="44.612182" lon="9.8180988"><ele>849.3333333333334</ele><time>2026-04-11T13:01:23.896Z</time></trkpt><trkpt lat="44.6122483" lon="9.8181754"><ele>848.6666666666667</ele><time>2026-04-11T13:01:24.895Z</time></trkpt><trkpt lat="44.6122985" lon="9.8182481"><ele>848.0</ele><time>2026-04-11T13:01:25.895Z</time></trkpt><trkpt lat="44.6123689" lon="9.8183319"><ele>848.0</ele><time>2026-04-11T13:01:26.896Z</time></trkpt><trkpt lat="44.6124237" lon="9.8184472"><ele>848.0</ele><time>2026-04-11T13:01:27.896Z</time></trkpt><trkpt lat="44.6124665" lon="9.8185738"><ele>848.0</ele><time>2026-04-11T13:01:28.896Z</time></trkpt><trkpt lat="44.6124979" lon="9.8187051"><ele>848.0</ele><time>2026-04-11T13:01:29.895Z</time></trkpt><trkpt lat="44.6125347" lon="9.8188455"><ele>848.0</ele><time>2026-04-11T13:01:30.896Z</time></trkpt><trkpt lat="44.6125764" lon="9.8189802"><ele>847.75</ele><time>2026-04-11T13:01:31.896Z</time></trkpt><trkpt lat="44.6126354" lon="9.8192608"><ele>847.5</ele><time>2026-04-11T13:01:33.896Z</time></trkpt><trkpt lat="44.6126623" lon="9.8193974"><ele>847.25</ele><time>2026-04-11T13:01:34.895Z</time></trkpt><trkpt lat="44.6126846" lon="9.8195197"><ele>847.0</ele><time>2026-04-11T13:01:35.896Z</time></trkpt><trkpt lat="44.612711" lon="9.8196312"><ele>837.5</ele><time>2026-04-11T13:01:36.895Z</time></trkpt><trkpt lat="44.6128352" lon="9.819766"><ele>828.0</ele><time>2026-04-11T13:01:39.895Z</time></trkpt><trkpt lat="44.612964" lon="9.8197022"><ele>818.5</ele><time>2026-04-11T13:01:41.896Z</time></trkpt><trkpt lat="44.6130351" lon="9.8197021"><ele>809.0</ele><time>2026-04-11T13:01:42.896Z</time></trkpt><trkpt lat="44.6131517" lon="9.8197977"><ele>809.0</ele><time>2026-04-11T13:01:44.896Z</time></trkpt><trkpt lat="44.6131594" lon="9.8199302"><ele>809.0</ele><time>2026-04-11T13:01:45.896Z</time></trkpt><trkpt lat="44.6131588" lon="9.8200777"><ele>809.0</ele><time>2026-04-11T13:01:46.895Z</time></trkpt><trkpt lat="44.6131267" lon="9.8201923"><ele>809.0</ele><time>2026-04-11T13:01:47.896Z</time></trkpt><trkpt lat="44.6131004" lon="9.8204915"><ele>807.2</ele><time>2026-04-11T13:01:49.895Z</time></trkpt><trkpt lat="44.6130956" lon="9.8206356"><ele>805.4000000000001</ele><time>2026-04-11T13:01:50.896Z</time></trkpt><trkpt lat="44.6130645" lon="9.8207847"><ele>803.6</ele><time>2026-04-11T13:01:51.896Z</time></trkpt><trkpt lat="44.6130383" lon="9.8209363"><ele>801.8</ele><time>2026-04-11T13:01:52.896Z</time></trkpt><trkpt lat="44.6130219" lon="9.8210936"><ele>800.0</ele><time>2026-04-11T13:01:53.896Z</time></trkpt><trkpt lat="44.6130061" lon="9.8212349"><ele>799.6666666666667</ele><time>2026-04-11T13:01:54.896Z</time></trkpt><trkpt lat="44.6129849" lon="9.8213673"><ele>799.3333333333334</ele><time>2026-04-11T13:01:55.895Z</time></trkpt><trkpt lat="44.6129426" lon="9.8214754"><ele>799.0</ele><time>2026-04-11T13:01:56.896Z</time></trkpt><trkpt lat="44.6128924" lon="9.821579"><ele>798.6666666666667</ele><time>2026-04-11T13:01:57.896Z</time></trkpt><trkpt lat="44.6128189" lon="9.8216508"><ele>798.3333333333334</ele><time>2026-04-11T13:01:58.896Z</time></trkpt><trkpt lat="44.6127633" lon="9.8217436"><ele>798.0</ele><time>2026-04-11T13:01:59.895Z</time></trkpt><trkpt lat="44.6127198" lon="9.8218593"><ele>798.0</ele><time>2026-04-11T13:02:00.896Z</time></trkpt><trkpt lat="44.6126863" lon="9.8219846"><ele>798.0</ele><time>2026-04-11T13:02:01.895Z</time></trkpt><trkpt lat="44.6126561" lon="9.8221201"><ele>798.0</ele><time>2026-04-11T13:02:02.896Z</time></trkpt><trkpt lat="44.6126297" lon="9.8222625"><ele>798.0</ele><time>2026-04-11T13:02:03.896Z</time></trkpt><trkpt lat="44.6126291" lon="9.8223949"><ele>798.0</ele><time>2026-04-11T13:02:04.897Z</time></trkpt><trkpt lat="44.6126371" lon="9.8225209"><ele>798.0</ele><time>2026-04-11T13:02:05.896Z</time></trkpt><trkpt lat="44.6126402" lon="9.8226369"><ele>798.0</ele><time>2026-04-11T13:02:06.895Z</time></trkpt><trkpt lat="44.6126298" lon="9.8227544"><ele>798.0</ele><time>2026-04-11T13:02:07.896Z</time></trkpt><trkpt lat="44.6126064" lon="9.822868"><ele>798.0</ele><time>2026-04-11T13:02:08.896Z</time></trkpt><trkpt lat="44.6125653" lon="9.8229639"><ele>798.0</ele><time>2026-04-11T13:02:09.895Z</time></trkpt><trkpt lat="44.6125181" lon="9.8230421"><ele>798.0</ele><time>2026-04-11T13:02:10.896Z</time></trkpt><trkpt lat="44.6124642" lon="9.8231125"><ele>796.3333333333334</ele><time>2026-04-11T13:02:11.895Z</time></trkpt><trkpt lat="44.6124186" lon="9.8231959"><ele>794.6666666666667</ele><time>2026-04-11T13:02:12.896Z</time></trkpt><trkpt lat="44.6124084" lon="9.8233"><ele>793.0</ele><time>2026-04-11T13:02:13.895Z</time></trkpt><trkpt lat="44.6124247" lon="9.823393"><ele>791.3333333333334</ele><time>2026-04-11T13:02:14.896Z</time></trkpt><trkpt lat="44.6124498" lon="9.8234876"><ele>789.6666666666667</ele><time>2026-04-11T13:02:15.896Z</time></trkpt><trkpt lat="44.6125327" lon="9.8235457"><ele>788.0</ele><time>2026-04-11T13:02:16.896Z</time></trkpt><trkpt lat="44.6125899" lon="9.8236059"><ele>788.0</ele><time>2026-04-11T13:02:17.895Z</time></trkpt><trkpt lat="44.6126899" lon="9.8236495"><ele>788.0</ele><time>2026-04-11T13:02:19.895Z</time></trkpt><trkpt lat="44.6127608" lon="9.82364"><ele>788.0</ele><time>2026-04-11T13:02:21.896Z</time></trkpt><trkpt lat="44.6127824" lon="9.8237356"><ele>788.0</ele><time>2026-04-11T13:02:24.896Z</time></trkpt><trkpt lat="44.6127602" lon="9.8238855"><ele>788.0</ele><time>2026-04-11T13:02:27.896Z</time></trkpt><trkpt lat="44.6127595" lon="9.8240561"><ele>788.0000000000001</ele><time>2026-04-11T13:02:29.896Z</time></trkpt><trkpt lat="44.6128047" lon="9.8242123"><ele>788.0</ele><time>2026-04-11T13:02:31.896Z</time></trkpt><trkpt lat="44.6128367" lon="9.824296"><ele>788.0</ele><time>2026-04-11T13:02:32.895Z</time></trkpt><trkpt lat="44.6128502" lon="9.8244017"><ele>788.0</ele><time>2026-04-11T13:02:33.896Z</time></trkpt><trkpt lat="44.6128494" lon="9.8245149"><ele>788.0000000000001</ele><time>2026-04-11T13:02:34.896Z</time></trkpt><trkpt lat="44.6128552" lon="9.8246323"><ele>788.0</ele><time>2026-04-11T13:02:35.896Z</time></trkpt><trkpt lat="44.6128303" lon="9.8247384"><ele>787.6666666666667</ele><time>2026-04-11T13:02:36.895Z</time></trkpt><trkpt lat="44.6127879" lon="9.8248152"><ele>787.3333333333334</ele><time>2026-04-11T13:02:37.897Z</time></trkpt><trkpt lat="44.612721" lon="9.8248615"><ele>787.0</ele><time>2026-04-11T13:02:39.896Z</time></trkpt><trkpt lat="44.6126417" lon="9.8248233"><ele>786.6666666666667</ele><time>2026-04-11T13:02:41.895Z</time></trkpt><trkpt lat="44.6125985" lon="9.8247395"><ele>786.3333333333334</ele><time>2026-04-11T13:02:42.896Z</time></trkpt><trkpt lat="44.6125501" lon="9.8246122"><ele>786.0</ele><time>2026-04-11T13:02:44.895Z</time></trkpt><trkpt lat="44.6125128" lon="9.8244942"><ele>786.0</ele><time>2026-04-11T13:02:46.896Z</time></trkpt><trkpt lat="44.6124638" lon="9.8243588"><ele>786.0</ele><time>2026-04-11T13:02:48.896Z</time></trkpt><trkpt lat="44.6124011" lon="9.8242354"><ele>786.0</ele><time>2026-04-11T13:02:50.896Z</time></trkpt><trkpt lat="44.6123445" lon="9.8241952"><ele>786.0</ele><time>2026-04-11T13:02:51.895Z</time></trkpt><trkpt lat="44.6122511" lon="9.8241666"><ele>786.0</ele><time>2026-04-11T13:02:53.896Z</time></trkpt><trkpt lat="44.6122462" lon="9.8242868"><ele>786.0</ele><time>2026-04-11T13:02:54.896Z</time></trkpt><trkpt lat="44.6121825" lon="9.8243758"><ele>786.0</ele><time>2026-04-11T13:02:56.896Z</time></trkpt><trkpt lat="44.6121182" lon="9.824463"><ele>786.0</ele><time>2026-04-11T13:02:58.895Z</time></trkpt><trkpt lat="44.6120428" lon="9.8245212"><ele>786.0</ele><time>2026-04-11T13:03:00.896Z</time></trkpt><trkpt lat="44.6119403" lon="9.8245867"><ele>786.0</ele><time>2026-04-11T13:03:02.896Z</time></trkpt><trkpt lat="44.6118427" lon="9.8246498"><ele>791.8</ele><time>2026-04-11T13:03:04.897Z</time></trkpt><trkpt lat="44.6117587" lon="9.8247493"><ele>797.5999999999999</ele><time>2026-04-11T13:03:06.896Z</time></trkpt><trkpt lat="44.6116741" lon="9.8248578"><ele>803.4</ele><time>2026-04-11T13:03:08.896Z</time></trkpt><trkpt lat="44.6116002" lon="9.8249829"><ele>809.2</ele><time>2026-04-11T13:03:10.896Z</time></trkpt><trkpt lat="44.6115549" lon="9.8250471"><ele>815.0</ele><time>2026-04-11T13:03:11.896Z</time></trkpt><trkpt lat="44.6114609" lon="9.8251331"><ele>813.5000000000001</ele><time>2026-04-11T13:03:13.895Z</time></trkpt><trkpt lat="44.6113686" lon="9.8252278"><ele>812.0</ele><time>2026-04-11T13:03:15.896Z</time></trkpt><trkpt lat="44.6112876" lon="9.8253209"><ele>810.5</ele><time>2026-04-11T13:03:17.896Z</time></trkpt><trkpt lat="44.6112734" lon="9.8254315"><ele>809.0</ele><time>2026-04-11T13:03:21.896Z</time></trkpt><trkpt lat="44.6112263" lon="9.8255067"><ele>807.5000000000001</ele><time>2026-04-11T13:03:23.897Z</time></trkpt><trkpt lat="44.6111676" lon="9.8255645"><ele>806.0</ele><time>2026-04-11T13:03:25.896Z</time></trkpt><trkpt lat="44.6111347" lon="9.8256477"><ele>809.6666666666667</ele><time>2026-04-11T13:03:27.896Z</time></trkpt><trkpt lat="44.6110903" lon="9.8257459"><ele>813.3333333333334</ele><time>2026-04-11T13:03:30.896Z</time></trkpt><trkpt lat="44.6110357" lon="9.8258361"><ele>817.0</ele><time>2026-04-11T13:03:32.896Z</time></trkpt><trkpt lat="44.6109637" lon="9.8258863"><ele>820.6666666666667</ele><time>2026-04-11T13:03:34.896Z</time></trkpt><trkpt lat="44.6109199" lon="9.8259712"><ele>824.3333333333334</ele><time>2026-04-11T13:03:43.896Z</time></trkpt><trkpt lat="44.6108682" lon="9.8260324"><ele>828.0</ele><time>2026-04-11T13:03:47.895Z</time></trkpt><trkpt lat="44.610807" lon="9.8260576"><ele>828.0</ele><time>2026-04-11T13:03:49.896Z</time></trkpt><trkpt lat="44.6107425" lon="9.8261178"><ele>828.0</ele><time>2026-04-11T13:03:51.896Z</time></trkpt><trkpt lat="44.6106989" lon="9.8262537"><ele>828.0</ele><time>2026-04-11T13:03:54.895Z</time></trkpt><trkpt lat="44.6106729" lon="9.8263691"><ele>828.0</ele><time>2026-04-11T13:03:57.896Z</time></trkpt><trkpt lat="44.6105968" lon="9.8264042"><ele>828.0</ele><time>2026-04-11T13:04:00.895Z</time></trkpt><trkpt lat="44.6105626" lon="9.826502"><ele>828.0</ele><time>2026-04-11T13:04:03.896Z</time></trkpt><trkpt lat="44.6105845" lon="9.8266203"><ele>828.0</ele><time>2026-04-11T13:04:06.896Z</time></trkpt><trkpt lat="44.6105447" lon="9.8267037"><ele>828.0</ele><time>2026-04-11T13:04:08.895Z</time></trkpt><trkpt lat="44.6104671" lon="9.8267371"><ele>828.0</ele><time>2026-04-11T13:04:10.896Z</time></trkpt><trkpt lat="44.6103775" lon="9.8267094"><ele>828.0</ele><time>2026-04-11T13:04:12.896Z</time></trkpt><trkpt lat="44.6103033" lon="9.8266506"><ele>828.0</ele><time>2026-04-11T13:04:14.897Z</time></trkpt><trkpt lat="44.6102244" lon="9.8266314"><ele>828.0</ele><time>2026-04-11T13:04:16.896Z</time></trkpt><trkpt lat="44.6101543" lon="9.8266885"><ele>830.6666666666666</ele><time>2026-04-11T13:04:18.896Z</time></trkpt><trkpt lat="44.6101199" lon="9.8267783"><ele>833.3333333333333</ele><time>2026-04-11T13:04:20.896Z</time></trkpt><trkpt lat="44.6100678" lon="9.8268691"><ele>836.0</ele><time>2026-04-11T13:04:22.896Z</time></trkpt><trkpt lat="44.6100052" lon="9.8269635"><ele>838.6666666666666</ele><time>2026-04-11T13:04:24.896Z</time></trkpt><trkpt lat="44.6099674" lon="9.8270447"><ele>841.3333333333333</ele><time>2026-04-11T13:04:26.896Z</time></trkpt><trkpt lat="44.6099439" lon="9.8271587"><ele>844.0</ele><time>2026-04-11T13:04:29.896Z</time></trkpt><trkpt lat="44.6099665" lon="9.8272602"><ele>844.6</ele><time>2026-04-11T13:04:32.896Z</time></trkpt><trkpt lat="44.6099691" lon="9.8273693"><ele>845.2</ele><time>2026-04-11T13:04:34.896Z</time></trkpt><trkpt lat="44.6098985" lon="9.8274679"><ele>845.8000000000001</ele><time>2026-04-11T13:04:36.896Z</time></trkpt><trkpt lat="44.6098493" lon="9.8275491"><ele>846.4000000000001</ele><time>2026-04-11T13:04:38.896Z</time></trkpt><trkpt lat="44.6098454" lon="9.8276763"><ele>847.0</ele><time>2026-04-11T13:04:41.896Z</time></trkpt><trkpt lat="44.6098963" lon="9.8278443"><ele>848.3333333333333</ele><time>2026-04-11T13:04:43.896Z</time></trkpt><trkpt lat="44.6099116" lon="9.8279374"><ele>849.6666666666666</ele><time>2026-04-11T13:04:44.896Z</time></trkpt><trkpt lat="44.6099092" lon="9.8280451"><ele>851.0</ele><time>2026-04-11T13:04:46.896Z</time></trkpt><trkpt lat="44.6098665" lon="9.8281311"><ele>852.3333333333333</ele><time>2026-04-11T13:04:48.896Z</time></trkpt><trkpt lat="44.6097785" lon="9.8282088"><ele>853.6666666666666</ele><time>2026-04-11T13:04:50.896Z</time></trkpt><trkpt lat="44.6097001" lon="9.8282698"><ele>855.0</ele><time>2026-04-11T13:04:52.896Z</time></trkpt><trkpt lat="44.6096217" lon="9.8283666"><ele>855.5</ele><time>2026-04-11T13:04:54.896Z</time></trkpt><trkpt lat="44.6095454" lon="9.8285107"><ele>856.0</ele><time>2026-04-11T13:04:56.896Z</time></trkpt><trkpt lat="44.6094885" lon="9.8286321"><ele>856.5</ele><time>2026-04-11T13:04:58.895Z</time></trkpt><trkpt lat="44.6094487" lon="9.828766"><ele>857.0</ele><time>2026-04-11T13:05:00.896Z</time></trkpt><trkpt lat="44.6095654" lon="9.8289842"><ele>857.0</ele><time>2026-04-11T13:05:03.895Z</time></trkpt><trkpt lat="44.6096579" lon="9.8290708"><ele>857.0</ele><time>2026-04-11T13:05:05.896Z</time></trkpt><trkpt lat="44.6097168" lon="9.8291293"><ele>857.0</ele><time>2026-04-11T13:05:07.895Z</time></trkpt><trkpt lat="44.6097401" lon="9.829221"><ele>857.0</ele><time>2026-04-11T13:05:09.895Z</time></trkpt><trkpt lat="44.6097562" lon="9.829357"><ele>857.0</ele><time>2026-04-11T13:05:12.896Z</time></trkpt><trkpt lat="44.6097833" lon="9.8295099"><ele>856.6666666666667</ele><time>2026-04-11T13:05:14.895Z</time></trkpt><trkpt lat="44.6097662" lon="9.8296232"><ele>856.3333333333334</ele><time>2026-04-11T13:05:16.896Z</time></trkpt><trkpt lat="44.609776" lon="9.8297197"><ele>856.0</ele><time>2026-04-11T13:05:18.895Z</time></trkpt><trkpt lat="44.6098039" lon="9.8298392"><ele>855.6666666666667</ele><time>2026-04-11T13:05:20.896Z</time></trkpt><trkpt lat="44.6098081" lon="9.8299865"><ele>855.3333333333334</ele><time>2026-04-11T13:05:22.896Z</time></trkpt><trkpt lat="44.6097497" lon="9.8300652"><ele>855.0</ele><time>2026-04-11T13:05:24.896Z</time></trkpt><trkpt lat="44.6097001" lon="9.8301868"><ele>853.2</ele><time>2026-04-11T13:05:26.895Z</time></trkpt><trkpt lat="44.6096618" lon="9.8303917"><ele>851.4</ele><time>2026-04-11T13:05:29.896Z</time></trkpt><trkpt lat="44.6097022" lon="9.8305001"><ele>849.5999999999999</ele><time>2026-04-11T13:05:31.896Z</time></trkpt><trkpt lat="44.6097314" lon="9.8306086"><ele>847.8</ele><time>2026-04-11T13:05:33.896Z</time></trkpt><trkpt lat="44.6097025" lon="9.830756"><ele>846.0</ele><time>2026-04-11T13:05:35.896Z</time></trkpt><trkpt lat="44.6096945" lon="9.8308808"><ele>845.1999999999999</ele><time>2026-04-11T13:05:37.896Z</time></trkpt><trkpt lat="44.6097385" lon="9.8310104"><ele>844.4</ele><time>2026-04-11T13:05:39.896Z</time></trkpt><trkpt lat="44.6097623" lon="9.8311697"><ele>843.6</ele><time>2026-04-11T13:05:41.896Z</time></trkpt><trkpt lat="44.6097655" lon="9.8312824"><ele>842.8</ele><time>2026-04-11T13:05:43.896Z</time></trkpt><trkpt lat="44.6097546" lon="9.8313774"><ele>842.0</ele><time>2026-04-11T13:05:45.896Z</time></trkpt><trkpt lat="44.6097826" lon="9.8314924"><ele>842.0000000000001</ele><time>2026-04-11T13:05:47.895Z</time></trkpt><trkpt lat="44.6098198" lon="9.831584"><ele>842.0</ele><time>2026-04-11T13:05:48.896Z</time></trkpt><trkpt lat="44.6098591" lon="9.8317245"><ele>842.0</ele><time>2026-04-11T13:05:50.896Z</time></trkpt><trkpt lat="44.6099233" lon="9.8317522"><ele>842.0</ele><time>2026-04-11T13:05:52.895Z</time></trkpt><trkpt lat="44.6099933" lon="9.8317871"><ele>842.0000000000001</ele><time>2026-04-11T13:05:54.895Z</time></trkpt><trkpt lat="44.6100168" lon="9.8319192"><ele>842.0</ele><time>2026-04-11T13:05:56.896Z</time></trkpt><trkpt lat="44.6100264" lon="9.832031"><ele>842.3333333333334</ele><time>2026-04-11T13:05:57.895Z</time></trkpt><trkpt lat="44.610037" lon="9.83215"><ele>842.6666666666667</ele><time>2026-04-11T13:05:58.895Z</time></trkpt><trkpt lat="44.6100256" lon="9.8322483"><ele>843.0</ele><time>2026-04-11T13:05:59.896Z</time></trkpt><trkpt lat="44.6100034" lon="9.8323377"><ele>843.3333333333333</ele><time>2026-04-11T13:06:00.896Z</time></trkpt><trkpt lat="44.6099399" lon="9.8324839"><ele>843.6666666666666</ele><time>2026-04-11T13:06:02.897Z</time></trkpt><trkpt lat="44.6098566" lon="9.8325609"><ele>844.0</ele><time>2026-04-11T13:06:04.895Z</time></trkpt><trkpt lat="44.6098165" lon="9.8326854"><ele>845.0</ele><time>2026-04-11T13:06:06.897Z</time></trkpt><trkpt lat="44.6097715" lon="9.8328191"><ele>846.0</ele><time>2026-04-11T13:06:08.896Z</time></trkpt><trkpt lat="44.6097263" lon="9.8329522"><ele>847.0</ele><time>2026-04-11T13:06:10.896Z</time></trkpt><trkpt lat="44.6096458" lon="9.8330716"><ele>848.0</ele><time>2026-04-11T13:06:12.895Z</time></trkpt><trkpt lat="44.6095966" lon="9.8331415"><ele>849.0</ele><time>2026-04-11T13:06:13.896Z</time></trkpt><trkpt lat="44.6095238" lon="9.8332831"><ele>849.6</ele><time>2026-04-11T13:06:15.896Z</time></trkpt><trkpt lat="44.6094898" lon="9.833375"><ele>850.2</ele><time>2026-04-11T13:06:16.896Z</time></trkpt><trkpt lat="44.6094499" lon="9.8334766"><ele>850.8000000000001</ele><time>2026-04-11T13:06:17.895Z</time></trkpt><trkpt lat="44.6093638" lon="9.8336827"><ele>851.4000000000001</ele><time>2026-04-11T13:06:19.896Z</time></trkpt><trkpt lat="44.6093204" lon="9.83379"><ele>852.0</ele><time>2026-04-11T13:06:20.895Z</time></trkpt><trkpt lat="44.6092781" lon="9.8338995"><ele>852.5</ele><time>2026-04-11T13:06:21.896Z</time></trkpt><trkpt lat="44.6092375" lon="9.8340088"><ele>853.0</ele><time>2026-04-11T13:06:22.896Z</time></trkpt><trkpt lat="44.6091941" lon="9.8341127"><ele>853.5</ele><time>2026-04-11T13:06:23.896Z</time></trkpt><trkpt lat="44.6091537" lon="9.8342178"><ele>854.0</ele><time>2026-04-11T13:06:24.896Z</time></trkpt><trkpt lat="44.6091229" lon="9.8343358"><ele>854.5</ele><time>2026-04-11T13:06:25.896Z</time></trkpt><trkpt lat="44.6091088" lon="9.8344672"><ele>855.0</ele><time>2026-04-11T13:06:26.895Z</time></trkpt><trkpt lat="44.6091122" lon="9.8346037"><ele>855.2</ele><time>2026-04-11T13:06:27.896Z</time></trkpt><trkpt lat="44.6091181" lon="9.8347406"><ele>855.4</ele><time>2026-04-11T13:06:28.896Z</time></trkpt><trkpt lat="44.6091148" lon="9.8348674"><ele>855.5999999999999</ele><time>2026-04-11T13:06:29.896Z</time></trkpt><trkpt lat="44.6090986" lon="9.8349896"><ele>855.8</ele><time>2026-04-11T13:06:30.896Z</time></trkpt><trkpt lat="44.6090732" lon="9.8351084"><ele>856.0</ele><time>2026-04-11T13:06:31.895Z</time></trkpt><trkpt lat="44.6090328" lon="9.8352228"><ele>856.0</ele><time>2026-04-11T13:06:32.896Z</time></trkpt><trkpt lat="44.6089847" lon="9.8353419"><ele>855.9999999999999</ele><time>2026-04-11T13:06:33.896Z</time></trkpt><trkpt lat="44.6089082" lon="9.8354456"><ele>855.9999999999999</ele><time>2026-04-11T13:06:34.896Z</time></trkpt><trkpt lat="44.6088279" lon="9.8355272"><ele>856.0</ele><time>2026-04-11T13:06:35.896Z</time></trkpt><trkpt lat="44.608757" lon="9.8356088"><ele>856.0</ele><time>2026-04-11T13:06:36.896Z</time></trkpt><trkpt lat="44.6086938" lon="9.8356916"><ele>859.1999999999999</ele><time>2026-04-11T13:06:37.896Z</time></trkpt><trkpt lat="44.6086414" lon="9.8357791"><ele>862.3999999999999</ele><time>2026-04-11T13:06:38.896Z</time></trkpt><trkpt lat="44.6085937" lon="9.8358864"><ele>865.6</ele><time>2026-04-11T13:06:39.896Z</time></trkpt><trkpt lat="44.6085432" lon="9.8360154"><ele>868.8</ele><time>2026-04-11T13:06:40.896Z</time></trkpt><trkpt lat="44.6084933" lon="9.8361608"><ele>872.0</ele><time>2026-04-11T13:06:41.896Z</time></trkpt><trkpt lat="44.6084499" lon="9.8363173"><ele>872.0</ele><time>2026-04-11T13:06:42.895Z</time></trkpt><trkpt lat="44.6084069" lon="9.8364709"><ele>872.0</ele><time>2026-04-11T13:06:43.897Z</time></trkpt><trkpt lat="44.6083645" lon="9.8366271"><ele>872.0</ele><time>2026-04-11T13:06:44.896Z</time></trkpt><trkpt lat="44.6083199" lon="9.8367841"><ele>872.0</ele><time>2026-04-11T13:06:45.896Z</time></trkpt><trkpt lat="44.6082811" lon="9.8369373"><ele>872.0</ele><time>2026-04-11T13:06:46.896Z</time></trkpt><trkpt lat="44.6082365" lon="9.8370886"><ele>872.0</ele><time>2026-04-11T13:06:47.896Z</time></trkpt><trkpt lat="44.6081941" lon="9.8372369"><ele>872.0</ele><time>2026-04-11T13:06:48.896Z</time></trkpt><trkpt lat="44.6081548" lon="9.8373768"><ele>872.0</ele><time>2026-04-11T13:06:49.896Z</time></trkpt><trkpt lat="44.608121" lon="9.8375126"><ele>872.0</ele><time>2026-04-11T13:06:50.896Z</time></trkpt><trkpt lat="44.6080921" lon="9.8376477"><ele>872.0</ele><time>2026-04-11T13:06:51.896Z</time></trkpt><trkpt lat="44.6080678" lon="9.8377893"><ele>872.0</ele><time>2026-04-11T13:06:52.896Z</time></trkpt><trkpt lat="44.6080432" lon="9.8379222"><ele>872.0</ele><time>2026-04-11T13:06:53.896Z</time></trkpt><trkpt lat="44.6080133" lon="9.8380506"><ele>872.0</ele><time>2026-04-11T13:06:54.895Z</time></trkpt><trkpt lat="44.6079763" lon="9.8381806"><ele>872.0</ele><time>2026-04-11T13:06:55.896Z</time></trkpt><trkpt lat="44.6079417" lon="9.8383057"><ele>872.0</ele><time>2026-04-11T13:06:56.896Z</time></trkpt><trkpt lat="44.6079005" lon="9.8384235"><ele>872.0</ele><time>2026-04-11T13:06:57.895Z</time></trkpt><trkpt lat="44.6078555" lon="9.8385253"><ele>872.0</ele><time>2026-04-11T13:06:58.896Z</time></trkpt><trkpt lat="44.6078011" lon="9.8386272"><ele>872.0</ele><time>2026-04-11T13:06:59.896Z</time></trkpt><trkpt lat="44.6077331" lon="9.8387256"><ele>872.0</ele><time>2026-04-11T13:07:00.896Z</time></trkpt><trkpt lat="44.6076596" lon="9.8388284"><ele>873.5</ele><time>2026-04-11T13:07:01.895Z</time></trkpt><trkpt lat="44.6075814" lon="9.8389366"><ele>875.0</ele><time>2026-04-11T13:07:02.896Z</time></trkpt><trkpt lat="44.6075041" lon="9.8390577"><ele>876.5</ele><time>2026-04-11T13:07:03.895Z</time></trkpt><trkpt lat="44.6074278" lon="9.839182"><ele>878.0</ele><time>2026-04-11T13:07:04.896Z</time></trkpt><trkpt lat="44.6073486" lon="9.8393071"><ele>878.0</ele><time>2026-04-11T13:07:05.896Z</time></trkpt><trkpt lat="44.6072699" lon="9.8394256"><ele>878.0</ele><time>2026-04-11T13:07:06.895Z</time></trkpt><trkpt lat="44.607187" lon="9.8395394"><ele>878.0</ele><time>2026-04-11T13:07:07.897Z</time></trkpt><trkpt lat="44.6071158" lon="9.8396366"><ele>878.0</ele><time>2026-04-11T13:07:08.896Z</time></trkpt><trkpt lat="44.6070428" lon="9.8397321"><ele>878.0</ele><time>2026-04-11T13:07:09.896Z</time></trkpt><trkpt lat="44.6069644" lon="9.8398219"><ele>878.5999999999999</ele><time>2026-04-11T13:07:10.896Z</time></trkpt><trkpt lat="44.6068754" lon="9.8399119"><ele>879.1999999999999</ele><time>2026-04-11T13:07:11.896Z</time></trkpt><trkpt lat="44.6067797" lon="9.8399972"><ele>879.8</ele><time>2026-04-11T13:07:12.895Z</time></trkpt><trkpt lat="44.6066812" lon="9.8400736"><ele>880.4</ele><time>2026-04-11T13:07:13.896Z</time></trkpt><trkpt lat="44.6065909" lon="9.8401532"><ele>881.0</ele><time>2026-04-11T13:07:14.896Z</time></trkpt><trkpt lat="44.6065064" lon="9.8402386"><ele>881.0</ele><time>2026-04-11T13:07:15.895Z</time></trkpt><trkpt lat="44.6064186" lon="9.8403298"><ele>880.9999999999999</ele><time>2026-04-11T13:07:16.896Z</time></trkpt><trkpt lat="44.6063288" lon="9.8404196"><ele>880.9999999999999</ele><time>2026-04-11T13:07:17.896Z</time></trkpt><trkpt lat="44.6062392" lon="9.8405113"><ele>881.0</ele><time>2026-04-11T13:07:18.895Z</time></trkpt><trkpt lat="44.6061502" lon="9.8405945"><ele>881.0</ele><time>2026-04-11T13:07:19.896Z</time></trkpt><trkpt lat="44.6060644" lon="9.8406763"><ele>882.1999999999999</ele><time>2026-04-11T13:07:20.896Z</time></trkpt><trkpt lat="44.6059873" lon="9.8407582"><ele>883.3999999999999</ele><time>2026-04-11T13:07:21.897Z</time></trkpt><trkpt lat="44.6059089" lon="9.8408334"><ele>884.6</ele><time>2026-04-11T13:07:22.896Z</time></trkpt><trkpt lat="44.6058295" lon="9.8409074"><ele>885.8</ele><time>2026-04-11T13:07:23.896Z</time></trkpt><trkpt lat="44.6057532" lon="9.8409761"><ele>887.0</ele><time>2026-04-11T13:07:24.895Z</time></trkpt><trkpt lat="44.6056806" lon="9.8410299"><ele>884.4000000000001</ele><time>2026-04-11T13:07:25.896Z</time></trkpt><trkpt lat="44.6056072" lon="9.8410898"><ele>881.8000000000001</ele><time>2026-04-11T13:07:26.896Z</time></trkpt><trkpt lat="44.6054519" lon="9.8411956"><ele>879.2</ele><time>2026-04-11T13:07:28.896Z</time></trkpt><trkpt lat="44.6053695" lon="9.8412178"><ele>876.6</ele><time>2026-04-11T13:07:29.896Z</time></trkpt><trkpt lat="44.6052827" lon="9.8412144"><ele>874.0</ele><time>2026-04-11T13:07:30.896Z</time></trkpt><trkpt lat="44.6052034" lon="9.8411877"><ele>873.0</ele><time>2026-04-11T13:07:31.896Z</time></trkpt><trkpt lat="44.6051221" lon="9.8411495"><ele>872.0000000000001</ele><time>2026-04-11T13:07:32.896Z</time></trkpt><trkpt lat="44.6050446" lon="9.841101"><ele>871.0000000000001</ele><time>2026-04-11T13:07:33.896Z</time></trkpt><trkpt lat="44.6049622" lon="9.8410754"><ele>870.0</ele><time>2026-04-11T13:07:34.896Z</time></trkpt><trkpt lat="44.6047922" lon="9.8410894"><ele>869.0</ele><time>2026-04-11T13:07:36.896Z</time></trkpt><trkpt lat="44.6047078" lon="9.8410971"><ele>869.0</ele><time>2026-04-11T13:07:37.895Z</time></trkpt><trkpt lat="44.6046196" lon="9.8410727"><ele>869.0000000000001</ele><time>2026-04-11T13:07:38.896Z</time></trkpt><trkpt lat="44.6045358" lon="9.8410278"><ele>869.0000000000001</ele><time>2026-04-11T13:07:39.896Z</time></trkpt><trkpt lat="44.6044473" lon="9.8409859"><ele>869.0</ele><time>2026-04-11T13:07:40.896Z</time></trkpt><trkpt lat="44.6043516" lon="9.8409772"><ele>869.0</ele><time>2026-04-11T13:07:41.895Z</time></trkpt><trkpt lat="44.6042528" lon="9.8409917"><ele>867.0</ele><time>2026-04-11T13:07:42.896Z</time></trkpt><trkpt lat="44.6041538" lon="9.8410208"><ele>865.0000000000001</ele><time>2026-04-11T13:07:43.895Z</time></trkpt><trkpt lat="44.604062" lon="9.8410498"><ele>863.0000000000001</ele><time>2026-04-11T13:07:44.896Z</time></trkpt><trkpt lat="44.6039748" lon="9.841084"><ele>861.0</ele><time>2026-04-11T13:07:45.895Z</time></trkpt><trkpt lat="44.6038412" lon="9.8411588"><ele>859.0</ele><time>2026-04-11T13:07:47.896Z</time></trkpt><trkpt lat="44.6038007" lon="9.8412514"><ele>859.0</ele><time>2026-04-11T13:07:49.896Z</time></trkpt><trkpt lat="44.6038509" lon="9.8413364"><ele>859.0000000000001</ele><time>2026-04-11T13:07:51.896Z</time></trkpt><trkpt lat="44.6039638" lon="9.841454"><ele>859.0000000000001</ele><time>2026-04-11T13:07:53.896Z</time></trkpt><trkpt lat="44.6040217" lon="9.841545"><ele>859.0</ele><time>2026-04-11T13:07:54.896Z</time></trkpt><trkpt lat="44.6040727" lon="9.841654"><ele>859.0</ele><time>2026-04-11T13:07:55.895Z</time></trkpt><trkpt lat="44.6041201" lon="9.8417689"><ele>856.8000000000001</ele><time>2026-04-11T13:07:56.896Z</time></trkpt><trkpt lat="44.6041671" lon="9.8418935"><ele>854.6000000000001</ele><time>2026-04-11T13:07:57.896Z</time></trkpt><trkpt lat="44.6042119" lon="9.8420154"><ele>852.4</ele><time>2026-04-11T13:07:58.896Z</time></trkpt><trkpt lat="44.6042618" lon="9.8421402"><ele>850.2</ele><time>2026-04-11T13:07:59.896Z</time></trkpt><trkpt lat="44.6043163" lon="9.8422748"><ele>848.0</ele><time>2026-04-11T13:08:00.896Z</time></trkpt><trkpt lat="44.6043712" lon="9.8424099"><ele>848.0</ele><time>2026-04-11T13:08:01.896Z</time></trkpt><trkpt lat="44.6044284" lon="9.8425496"><ele>848.0</ele><time>2026-04-11T13:08:02.896Z</time></trkpt><trkpt lat="44.6044828" lon="9.8426916"><ele>848.0</ele><time>2026-04-11T13:08:03.896Z</time></trkpt><trkpt lat="44.604537" lon="9.8428344"><ele>848.0</ele><time>2026-04-11T13:08:04.896Z</time></trkpt><trkpt lat="44.6045878" lon="9.8429777"><ele>847.5</ele><time>2026-04-11T13:08:05.896Z</time></trkpt><trkpt lat="44.6046392" lon="9.8431186"><ele>847.0</ele><time>2026-04-11T13:08:06.896Z</time></trkpt><trkpt lat="44.6046923" lon="9.8432608"><ele>846.5</ele><time>2026-04-11T13:08:07.896Z</time></trkpt><trkpt lat="44.6047411" lon="9.8434001"><ele>846.0</ele><time>2026-04-11T13:08:08.895Z</time></trkpt><trkpt lat="44.6047928" lon="9.8435397"><ele>843.4</ele><time>2026-04-11T13:08:09.896Z</time></trkpt><trkpt lat="44.6048425" lon="9.8436759"><ele>840.8</ele><time>2026-04-11T13:08:10.895Z</time></trkpt><trkpt lat="44.6048866" lon="9.8438125"><ele>838.1999999999999</ele><time>2026-04-11T13:08:11.896Z</time></trkpt><trkpt lat="44.604937" lon="9.8439363"><ele>835.5999999999999</ele><time>2026-04-11T13:08:12.895Z</time></trkpt><trkpt lat="44.6049958" lon="9.8440397"><ele>833.0</ele><time>2026-04-11T13:08:13.896Z</time></trkpt><trkpt lat="44.6050731" lon="9.8440995"><ele>833.0000000000001</ele><time>2026-04-11T13:08:14.895Z</time></trkpt><trkpt lat="44.6051513" lon="9.8441192"><ele>833.0</ele><time>2026-04-11T13:08:15.896Z</time></trkpt><trkpt lat="44.6052335" lon="9.8440882"><ele>833.0</ele><time>2026-04-11T13:08:16.895Z</time></trkpt><trkpt lat="44.6053081" lon="9.8440219"><ele>833.0</ele><time>2026-04-11T13:08:17.896Z</time></trkpt><trkpt lat="44.6053726" lon="9.8439267"><ele>833.0000000000001</ele><time>2026-04-11T13:08:18.895Z</time></trkpt><trkpt lat="44.6054382" lon="9.8438301"><ele>833.0</ele><time>2026-04-11T13:08:19.896Z</time></trkpt><trkpt lat="44.6055184" lon="9.8437555"><ele>831.2</ele><time>2026-04-11T13:08:20.896Z</time></trkpt><trkpt lat="44.6056067" lon="9.8436966"><ele>829.4</ele><time>2026-04-11T13:08:21.895Z</time></trkpt><trkpt lat="44.6057005" lon="9.8436694"><ele>827.6</ele><time>2026-04-11T13:08:22.896Z</time></trkpt><trkpt lat="44.6057974" lon="9.8436692"><ele>825.8000000000001</ele><time>2026-04-11T13:08:23.896Z</time></trkpt><trkpt lat="44.6058944" lon="9.8436973"><ele>824.0</ele><time>2026-04-11T13:08:24.896Z</time></trkpt><trkpt lat="44.6059889" lon="9.8437558"><ele>824.0</ele><time>2026-04-11T13:08:25.896Z</time></trkpt><trkpt lat="44.6060749" lon="9.8438416"><ele>824.0</ele><time>2026-04-11T13:08:26.896Z</time></trkpt><trkpt lat="44.6061553" lon="9.8439346"><ele>824.0</ele><time>2026-04-11T13:08:27.896Z</time></trkpt><trkpt lat="44.606234" lon="9.8440336"><ele>824.0</ele><time>2026-04-11T13:08:28.896Z</time></trkpt><trkpt lat="44.6063168" lon="9.8441218"><ele>824.0</ele><time>2026-04-11T13:08:29.896Z</time></trkpt><trkpt lat="44.6064064" lon="9.8441726"><ele>823.8000000000001</ele><time>2026-04-11T13:08:30.896Z</time></trkpt><trkpt lat="44.606504" lon="9.8441906"><ele>823.6</ele><time>2026-04-11T13:08:31.895Z</time></trkpt><trkpt lat="44.6066015" lon="9.8441728"><ele>823.4</ele><time>2026-04-11T13:08:32.896Z</time></trkpt><trkpt lat="44.6067008" lon="9.8441214"><ele>823.2</ele><time>2026-04-11T13:08:33.896Z</time></trkpt><trkpt lat="44.6068029" lon="9.8440618"><ele>823.0</ele><time>2026-04-11T13:08:34.895Z</time></trkpt><trkpt lat="44.6069024" lon="9.8439981"><ele>821.0</ele><time>2026-04-11T13:08:35.895Z</time></trkpt><trkpt lat="44.6070019" lon="9.8439376"><ele>819.0</ele><time>2026-04-11T13:08:36.896Z</time></trkpt><trkpt lat="44.607101" lon="9.843881"><ele>817.0</ele><time>2026-04-11T13:08:37.896Z</time></trkpt><trkpt lat="44.6072005" lon="9.8438362"><ele>815.0</ele><time>2026-04-11T13:08:38.896Z</time></trkpt><trkpt lat="44.6073004" lon="9.8438048"><ele>813.0</ele><time>2026-04-11T13:08:39.896Z</time></trkpt><trkpt lat="44.6074008" lon="9.843793"><ele>813.0</ele><time>2026-04-11T13:08:40.895Z</time></trkpt><trkpt lat="44.6075" lon="9.8437974"><ele>813.0</ele><time>2026-04-11T13:08:41.895Z</time></trkpt><trkpt lat="44.6075964" lon="9.8438206"><ele>813.0</ele><time>2026-04-11T13:08:42.896Z</time></trkpt><trkpt lat="44.6076932" lon="9.8438663"><ele>813.0</ele><time>2026-04-11T13:08:43.896Z</time></trkpt><trkpt lat="44.6077825" lon="9.8439329"><ele>813.0</ele><time>2026-04-11T13:08:44.895Z</time></trkpt><trkpt lat="44.6078707" lon="9.8440198"><ele>813.4</ele><time>2026-04-11T13:08:45.897Z</time></trkpt><trkpt lat="44.6079514" lon="9.8441102"><ele>813.8</ele><time>2026-04-11T13:08:46.896Z</time></trkpt><trkpt lat="44.6080319" lon="9.8441907"><ele>814.2</ele><time>2026-04-11T13:08:47.895Z</time></trkpt><trkpt lat="44.6081191" lon="9.8442553"><ele>814.6</ele><time>2026-04-11T13:08:48.896Z</time></trkpt><trkpt lat="44.6082159" lon="9.8443036"><ele>815.0</ele><time>2026-04-11T13:08:49.896Z</time></trkpt><trkpt lat="44.6083223" lon="9.8443306"><ele>812.2</ele><time>2026-04-11T13:08:50.895Z</time></trkpt><trkpt lat="44.6084301" lon="9.8443385"><ele>809.4</ele><time>2026-04-11T13:08:51.895Z</time></trkpt><trkpt lat="44.6085383" lon="9.8443638"><ele>806.5999999999999</ele><time>2026-04-11T13:08:52.896Z</time></trkpt><trkpt lat="44.6086391" lon="9.8444217"><ele>803.8</ele><time>2026-04-11T13:08:53.895Z</time></trkpt><trkpt lat="44.6087215" lon="9.8445114"><ele>801.0</ele><time>2026-04-11T13:08:54.896Z</time></trkpt><trkpt lat="44.6087968" lon="9.8446125"><ele>801.0</ele><time>2026-04-11T13:08:55.896Z</time></trkpt><trkpt lat="44.6088692" lon="9.8447018"><ele>801.0</ele><time>2026-04-11T13:08:56.896Z</time></trkpt><trkpt lat="44.6089566" lon="9.8447469"><ele>801.0</ele><time>2026-04-11T13:08:57.895Z</time></trkpt><trkpt lat="44.6090435" lon="9.8447478"><ele>801.0</ele><time>2026-04-11T13:08:58.896Z</time></trkpt><trkpt lat="44.60912" lon="9.8447079"><ele>801.0</ele><time>2026-04-11T13:08:59.896Z</time></trkpt><trkpt lat="44.6092099" lon="9.8446421"><ele>801.0</ele><time>2026-04-11T13:09:00.895Z</time></trkpt><trkpt lat="44.6092899" lon="9.8445071"><ele>801.0</ele><time>2026-04-11T13:09:01.895Z</time></trkpt><trkpt lat="44.6093726" lon="9.8443855"><ele>801.0</ele><time>2026-04-11T13:09:02.896Z</time></trkpt><trkpt lat="44.6094556" lon="9.8442656"><ele>801.0</ele><time>2026-04-11T13:09:03.896Z</time></trkpt><trkpt lat="44.6095398" lon="9.8441519"><ele>800.8</ele><time>2026-04-11T13:09:04.896Z</time></trkpt><trkpt lat="44.6096234" lon="9.8440483"><ele>800.5999999999999</ele><time>2026-04-11T13:09:05.896Z</time></trkpt><trkpt lat="44.6097131" lon="9.8439585"><ele>800.4</ele><time>2026-04-11T13:09:06.896Z</time></trkpt><trkpt lat="44.6098045" lon="9.8438906"><ele>800.2</ele><time>2026-04-11T13:09:07.896Z</time></trkpt><trkpt lat="44.609899" lon="9.843849"><ele>800.0</ele><time>2026-04-11T13:09:08.895Z</time></trkpt><trkpt lat="44.6100053" lon="9.8438473"><ele>800.0</ele><time>2026-04-11T13:09:09.896Z</time></trkpt><trkpt lat="44.610111" lon="9.8438843"><ele>800.0</ele><time>2026-04-11T13:09:10.896Z</time></trkpt><trkpt lat="44.6102158" lon="9.8439405"><ele>800.0</ele><time>2026-04-11T13:09:11.895Z</time></trkpt><trkpt lat="44.6103133" lon="9.8440204"><ele>800.0</ele><time>2026-04-11T13:09:12.895Z</time></trkpt><trkpt lat="44.6104079" lon="9.8441028"><ele>800.0</ele><time>2026-04-11T13:09:13.896Z</time></trkpt><trkpt lat="44.6104964" lon="9.8441832"><ele>800.8</ele><time>2026-04-11T13:09:14.896Z</time></trkpt><trkpt lat="44.6105857" lon="9.8442609"><ele>801.6</ele><time>2026-04-11T13:09:15.895Z</time></trkpt><trkpt lat="44.6106695" lon="9.8443365"><ele>802.4000000000001</ele><time>2026-04-11T13:09:16.896Z</time></trkpt><trkpt lat="44.610739" lon="9.8444088"><ele>803.2</ele><time>2026-04-11T13:09:17.895Z</time></trkpt><trkpt lat="44.6107961" lon="9.844496"><ele>804.0</ele><time>2026-04-11T13:09:18.896Z</time></trkpt><trkpt lat="44.6108425" lon="9.8446069"><ele>802.2</ele><time>2026-04-11T13:09:19.896Z</time></trkpt><trkpt lat="44.6108805" lon="9.8447357"><ele>800.4000000000001</ele><time>2026-04-11T13:09:20.896Z</time></trkpt><trkpt lat="44.6109078" lon="9.844866"><ele>798.6</ele><time>2026-04-11T13:09:21.895Z</time></trkpt><trkpt lat="44.6109278" lon="9.8449896"><ele>796.8</ele><time>2026-04-11T13:09:22.896Z</time></trkpt><trkpt lat="44.6109448" lon="9.8451097"><ele>795.0</ele><time>2026-04-11T13:09:23.896Z</time></trkpt><trkpt lat="44.6109668" lon="9.8452236"><ele>794.0</ele><time>2026-04-11T13:09:24.896Z</time></trkpt><trkpt lat="44.6110025" lon="9.845328"><ele>793.0</ele><time>2026-04-11T13:09:25.896Z</time></trkpt><trkpt lat="44.6110583" lon="9.845416"><ele>792.0</ele><time>2026-04-11T13:09:26.895Z</time></trkpt><trkpt lat="44.611137" lon="9.8454882"><ele>791.0</ele><time>2026-04-11T13:09:27.896Z</time></trkpt><trkpt lat="44.611237" lon="9.8455386"><ele>790.0</ele><time>2026-04-11T13:09:28.895Z</time></trkpt><trkpt lat="44.6113459" lon="9.8455758"><ele>790.0</ele><time>2026-04-11T13:09:29.896Z</time></trkpt><trkpt lat="44.6114605" lon="9.8456174"><ele>790.0</ele><time>2026-04-11T13:09:30.896Z</time></trkpt><trkpt lat="44.6115701" lon="9.8456801"><ele>790.0</ele><time>2026-04-11T13:09:31.896Z</time></trkpt><trkpt lat="44.6116787" lon="9.8457584"><ele>790.0</ele><time>2026-04-11T13:09:32.896Z</time></trkpt><trkpt lat="44.6117793" lon="9.8458384"><ele>790.0</ele><time>2026-04-11T13:09:33.896Z</time></trkpt><trkpt lat="44.6118718" lon="9.8459179"><ele>790.0</ele><time>2026-04-11T13:09:34.895Z</time></trkpt><trkpt lat="44.6119589" lon="9.8459944"><ele>790.0</ele><time>2026-04-11T13:09:35.896Z</time></trkpt><trkpt lat="44.6120565" lon="9.846054"><ele>790.0</ele><time>2026-04-11T13:09:36.895Z</time></trkpt><trkpt lat="44.6122686" lon="9.8461403"><ele>788.5</ele><time>2026-04-11T13:09:38.895Z</time></trkpt><trkpt lat="44.6123784" lon="9.8461815"><ele>787.0</ele><time>2026-04-11T13:09:39.896Z</time></trkpt><trkpt lat="44.6124916" lon="9.8462286"><ele>785.5</ele><time>2026-04-11T13:09:40.896Z</time></trkpt><trkpt lat="44.6126046" lon="9.84629"><ele>784.0</ele><time>2026-04-11T13:09:41.896Z</time></trkpt><trkpt lat="44.6127152" lon="9.8463684"><ele>784.75</ele><time>2026-04-11T13:09:42.896Z</time></trkpt><trkpt lat="44.6128234" lon="9.8464657"><ele>785.5</ele><time>2026-04-11T13:09:43.896Z</time></trkpt><trkpt lat="44.6129261" lon="9.8465876"><ele>786.25</ele><time>2026-04-11T13:09:44.896Z</time></trkpt><trkpt lat="44.6130212" lon="9.8467237"><ele>787.0</ele><time>2026-04-11T13:09:45.895Z</time></trkpt><trkpt lat="44.6131115" lon="9.8468569"><ele>784.6666666666666</ele><time>2026-04-11T13:09:46.896Z</time></trkpt><trkpt lat="44.6131978" lon="9.846987"><ele>782.3333333333333</ele><time>2026-04-11T13:09:47.895Z</time></trkpt><trkpt lat="44.6133606" lon="9.8472385"><ele>780.0</ele><time>2026-04-11T13:09:49.896Z</time></trkpt><trkpt lat="44.6134312" lon="9.8473672"><ele>780.0</ele><time>2026-04-11T13:09:50.896Z</time></trkpt><trkpt lat="44.6134949" lon="9.8474958"><ele>780.0</ele><time>2026-04-11T13:09:51.895Z</time></trkpt><trkpt lat="44.6135578" lon="9.8476352"><ele>780.0</ele><time>2026-04-11T13:09:52.896Z</time></trkpt><trkpt lat="44.6136161" lon="9.8477782"><ele>780.0</ele><time>2026-04-11T13:09:53.896Z</time></trkpt><trkpt lat="44.6136748" lon="9.8479323"><ele>780.0</ele><time>2026-04-11T13:09:54.895Z</time></trkpt><trkpt lat="44.6137266" lon="9.8480949"><ele>780.0</ele><time>2026-04-11T13:09:55.896Z</time></trkpt><trkpt lat="44.6137784" lon="9.8482636"><ele>780.0</ele><time>2026-04-11T13:09:56.896Z</time></trkpt><trkpt lat="44.6138277" lon="9.8484292"><ele>780.0</ele><time>2026-04-11T13:09:57.896Z</time></trkpt><trkpt lat="44.6138775" lon="9.8485911"><ele>780.0</ele><time>2026-04-11T13:09:58.896Z</time></trkpt><trkpt lat="44.6139284" lon="9.8487516"><ele>780.0</ele><time>2026-04-11T13:09:59.896Z</time></trkpt><trkpt lat="44.613985" lon="9.8489106"><ele>780.0</ele><time>2026-04-11T13:10:00.895Z</time></trkpt><trkpt lat="44.6140462" lon="9.8490707"><ele>780.0</ele><time>2026-04-11T13:10:01.896Z</time></trkpt><trkpt lat="44.6141082" lon="9.8492107"><ele>777.5</ele><time>2026-04-11T13:10:02.896Z</time></trkpt><trkpt lat="44.6141727" lon="9.8493446"><ele>775.0</ele><time>2026-04-11T13:10:03.895Z</time></trkpt><trkpt lat="44.6142322" lon="9.8494807"><ele>772.5</ele><time>2026-04-11T13:10:04.896Z</time></trkpt><trkpt lat="44.6142903" lon="9.8496117"><ele>770.0</ele><time>2026-04-11T13:10:05.896Z</time></trkpt><trkpt lat="44.6143506" lon="9.8497431"><ele>770.0</ele><time>2026-04-11T13:10:06.896Z</time></trkpt><trkpt lat="44.6144178" lon="9.8498603"><ele>770.0</ele><time>2026-04-11T13:10:07.896Z</time></trkpt><trkpt lat="44.6144937" lon="9.8499635"><ele>770.0</ele><time>2026-04-11T13:10:08.895Z</time></trkpt><trkpt lat="44.6145811" lon="9.8500574"><ele>770.0</ele><time>2026-04-11T13:10:09.896Z</time></trkpt><trkpt lat="44.6146759" lon="9.8501357"><ele>770.0</ele><time>2026-04-11T13:10:10.896Z</time></trkpt><trkpt lat="44.6147794" lon="9.8501999"><ele>770.3333333333334</ele><time>2026-04-11T13:10:11.896Z</time></trkpt><trkpt lat="44.6148875" lon="9.8502377"><ele>770.6666666666667</ele><time>2026-04-11T13:10:12.896Z</time></trkpt><trkpt lat="44.6151194" lon="9.8502363"><ele>771.0</ele><time>2026-04-11T13:10:14.895Z</time></trkpt><trkpt lat="44.6152412" lon="9.8502231"><ele>771.25</ele><time>2026-04-11T13:10:15.896Z</time></trkpt><trkpt lat="44.6153627" lon="9.8502093"><ele>771.5</ele><time>2026-04-11T13:10:16.896Z</time></trkpt><trkpt lat="44.6154884" lon="9.8502064"><ele>771.75</ele><time>2026-04-11T13:10:17.896Z</time></trkpt><trkpt lat="44.6156151" lon="9.8502196"><ele>772.0</ele><time>2026-04-11T13:10:18.896Z</time></trkpt><trkpt lat="44.6157494" lon="9.8502393"><ele>772.0</ele><time>2026-04-11T13:10:19.895Z</time></trkpt><trkpt lat="44.6158843" lon="9.8502629"><ele>772.0</ele><time>2026-04-11T13:10:20.896Z</time></trkpt><trkpt lat="44.6160225" lon="9.8502905"><ele>772.0</ele><time>2026-04-11T13:10:21.896Z</time></trkpt><trkpt lat="44.6161613" lon="9.8503225"><ele>772.0</ele><time>2026-04-11T13:10:22.895Z</time></trkpt><trkpt lat="44.6162953" lon="9.8503697"><ele>773.5</ele><time>2026-04-11T13:10:23.896Z</time></trkpt><trkpt lat="44.616428" lon="9.8504279"><ele>775.0</ele><time>2026-04-11T13:10:24.896Z</time></trkpt><trkpt lat="44.616552" lon="9.8504879"><ele>776.5</ele><time>2026-04-11T13:10:25.895Z</time></trkpt><trkpt lat="44.6166516" lon="9.8505296"><ele>778.0</ele><time>2026-04-11T13:10:26.896Z</time></trkpt><trkpt lat="44.6167258" lon="9.8505533"><ele>777.9999999999999</ele><time>2026-04-11T13:10:27.896Z</time></trkpt><trkpt lat="44.616834" lon="9.8505877"><ele>778.0</ele><time>2026-04-11T13:10:29.895Z</time></trkpt><trkpt lat="44.6168833" lon="9.8506591"><ele>778.0</ele><time>2026-04-11T13:10:32.897Z</time></trkpt><trkpt lat="44.6167979" lon="9.8506315"><ele>778.0</ele><time>2026-04-11T13:10:36.896Z</time></trkpt><trkpt lat="44.616764" lon="9.8505416"><ele>777.9999999999999</ele><time>2026-04-11T13:10:38.896Z</time></trkpt><trkpt lat="44.6168303" lon="9.8504368"><ele>778.0</ele><time>2026-04-11T13:10:40.896Z</time></trkpt><trkpt lat="44.6168782" lon="9.8503666"><ele>777.9999999999999</ele><time>2026-04-11T13:10:41.895Z</time></trkpt><trkpt lat="44.6169327" lon="9.8502901"><ele>778.0</ele><time>2026-04-11T13:10:42.896Z</time></trkpt><trkpt lat="44.6169818" lon="9.8502045"><ele>778.0</ele><time>2026-04-11T13:10:43.896Z</time></trkpt><trkpt lat="44.6170489" lon="9.8501323"><ele>778.0</ele><time>2026-04-11T13:10:44.895Z</time></trkpt><trkpt lat="44.6171099" lon="9.8500596"><ele>777.9999999999999</ele><time>2026-04-11T13:10:45.896Z</time></trkpt><trkpt lat="44.6171708" lon="9.8500055"><ele>778.0</ele><time>2026-04-11T13:10:46.896Z</time></trkpt><trkpt lat="44.6172845" lon="9.8500069"><ele>778.8</ele><time>2026-04-11T13:10:48.896Z</time></trkpt><trkpt lat="44.6173515" lon="9.8500538"><ele>779.5999999999999</ele><time>2026-04-11T13:10:49.895Z</time></trkpt><trkpt lat="44.6174268" lon="9.8501119"><ele>780.4000000000001</ele><time>2026-04-11T13:10:50.895Z</time></trkpt><trkpt lat="44.617517" lon="9.8501804"><ele>781.2</ele><time>2026-04-11T13:10:51.896Z</time></trkpt><trkpt lat="44.6176085" lon="9.8502479"><ele>782.0</ele><time>2026-04-11T13:10:52.895Z</time></trkpt><trkpt lat="44.6176946" lon="9.8503149"><ele>782.75</ele><time>2026-04-11T13:10:53.896Z</time></trkpt><trkpt lat="44.6177804" lon="9.8503848"><ele>783.5</ele><time>2026-04-11T13:10:54.896Z</time></trkpt><trkpt lat="44.6179404" lon="9.8505181"><ele>784.25</ele><time>2026-04-11T13:10:56.895Z</time></trkpt><trkpt lat="44.6180012" lon="9.8505894"><ele>785.0</ele><time>2026-04-11T13:10:57.896Z</time></trkpt><trkpt lat="44.6180606" lon="9.8506795"><ele>786.5714285714286</ele><time>2026-04-11T13:10:58.896Z</time></trkpt><trkpt lat="44.6181113" lon="9.8507738"><ele>788.1428571428571</ele><time>2026-04-11T13:10:59.896Z</time></trkpt><trkpt lat="44.6181626" lon="9.8508592"><ele>789.7142857142857</ele><time>2026-04-11T13:11:00.896Z</time></trkpt><trkpt lat="44.6182157" lon="9.8509368"><ele>791.2857142857142</ele><time>2026-04-11T13:11:01.895Z</time></trkpt><trkpt lat="44.6182741" lon="9.8509976"><ele>792.8571428571429</ele><time>2026-04-11T13:11:02.895Z</time></trkpt><trkpt lat="44.6183303" lon="9.851038"><ele>794.4285714285713</ele><time>2026-04-11T13:11:03.896Z</time></trkpt><trkpt lat="44.6183972" lon="9.8510572"><ele>796.0</ele><time>2026-04-11T13:11:04.896Z</time></trkpt><trkpt lat="44.6184751" lon="9.8510689"><ele>795.9999999999999</ele><time>2026-04-11T13:11:05.895Z</time></trkpt><trkpt lat="44.6185507" lon="9.8510661"><ele>796.0</ele><time>2026-04-11T13:11:06.896Z</time></trkpt><trkpt lat="44.618626" lon="9.8510595"><ele>796.0</ele><time>2026-04-11T13:11:07.896Z</time></trkpt><trkpt lat="44.6187124" lon="9.8510493"><ele>796.0</ele><time>2026-04-11T13:11:08.896Z</time></trkpt><trkpt lat="44.6188009" lon="9.8510409"><ele>795.9999999999999</ele><time>2026-04-11T13:11:09.895Z</time></trkpt><trkpt lat="44.618884" lon="9.8510208"><ele>796.0</ele><time>2026-04-11T13:11:10.896Z</time></trkpt><trkpt lat="44.6189615" lon="9.8509884"><ele>798.0</ele><time>2026-04-11T13:11:11.896Z</time></trkpt><trkpt lat="44.619029" lon="9.8509425"><ele>800.0</ele><time>2026-04-11T13:11:12.895Z</time></trkpt><trkpt lat="44.6191134" lon="9.8508904"><ele>802.0</ele><time>2026-04-11T13:11:13.896Z</time></trkpt><trkpt lat="44.6192063" lon="9.8509106"><ele>804.0</ele><time>2026-04-11T13:11:15.896Z</time></trkpt><trkpt lat="44.6192943" lon="9.8510015"><ele>806.0</ele><time>2026-04-11T13:11:17.895Z</time></trkpt><trkpt lat="44.6193622" lon="9.8510813"><ele>806.0</ele><time>2026-04-11T13:11:19.896Z</time></trkpt><trkpt lat="44.6194294" lon="9.8511756"><ele>806.0</ele><time>2026-04-11T13:11:22.896Z</time></trkpt><trkpt lat="44.6194994" lon="9.8512825"><ele>806.0</ele><time>2026-04-11T13:11:24.896Z</time></trkpt><trkpt lat="44.6195953" lon="9.85127"><ele>806.0</ele><time>2026-04-11T13:11:26.895Z</time></trkpt><trkpt lat="44.6197062" lon="9.8512406"><ele>806.0</ele><time>2026-04-11T13:11:28.896Z</time></trkpt><trkpt lat="44.6197726" lon="9.8512247"><ele>806.0</ele><time>2026-04-11T13:11:29.896Z</time></trkpt><trkpt lat="44.6198463" lon="9.8512236"><ele>806.0</ele><time>2026-04-11T13:11:30.896Z</time></trkpt><trkpt lat="44.6199698" lon="9.8511669"><ele>806.0</ele><time>2026-04-11T13:11:32.896Z</time></trkpt><trkpt lat="44.6200727" lon="9.8511424"><ele>806.0</ele><time>2026-04-11T13:11:34.896Z</time></trkpt><trkpt lat="44.6201891" lon="9.8511503"><ele>806.0</ele><time>2026-04-11T13:11:36.896Z</time></trkpt><trkpt lat="44.6203165" lon="9.851171"><ele>804.0000000000001</ele><time>2026-04-11T13:11:38.896Z</time></trkpt><trkpt lat="44.6203817" lon="9.8511846"><ele>802.0</ele><time>2026-04-11T13:11:39.896Z</time></trkpt><trkpt lat="44.6205171" lon="9.8512016"><ele>800.0</ele><time>2026-04-11T13:11:41.896Z</time></trkpt><trkpt lat="44.6205866" lon="9.8511919"><ele>798.0</ele><time>2026-04-11T13:11:42.895Z</time></trkpt><trkpt lat="44.6206625" lon="9.8512169"><ele>796.0000000000001</ele><time>2026-04-11T13:11:43.896Z</time></trkpt><trkpt lat="44.6207375" lon="9.8512173"><ele>794.0</ele><time>2026-04-11T13:11:44.896Z</time></trkpt><trkpt lat="44.6208695" lon="9.851177"><ele>794.0000000000001</ele><time>2026-04-11T13:11:46.896Z</time></trkpt><trkpt lat="44.6209339" lon="9.8511584"><ele>794.0</ele><time>2026-04-11T13:11:47.896Z</time></trkpt><trkpt lat="44.6210484" lon="9.8511276"><ele>794.0</ele><time>2026-04-11T13:11:49.895Z</time></trkpt><trkpt lat="44.6211263" lon="9.8511194"><ele>794.0</ele><time>2026-04-11T13:11:50.896Z</time></trkpt><trkpt lat="44.6211931" lon="9.8511095"><ele>794.0000000000001</ele><time>2026-04-11T13:11:51.896Z</time></trkpt><trkpt lat="44.6212901" lon="9.8511083"><ele>794.0</ele><time>2026-04-11T13:11:53.895Z</time></trkpt><trkpt lat="44.6213539" lon="9.8511082"><ele>792.4000000000001</ele><time>2026-04-11T13:11:54.896Z</time></trkpt><trkpt lat="44.6214272" lon="9.8510938"><ele>790.8</ele><time>2026-04-11T13:11:55.895Z</time></trkpt><trkpt lat="44.6215019" lon="9.8510722"><ele>789.2</ele><time>2026-04-11T13:11:56.896Z</time></trkpt><trkpt lat="44.6215809" lon="9.8510663"><ele>787.5999999999999</ele><time>2026-04-11T13:11:57.895Z</time></trkpt><trkpt lat="44.6217302" lon="9.8510713"><ele>786.0</ele><time>2026-04-11T13:11:59.896Z</time></trkpt><trkpt lat="44.6218074" lon="9.8511051"><ele>786.0</ele><time>2026-04-11T13:12:00.896Z</time></trkpt><trkpt lat="44.6218846" lon="9.8511672"><ele>786.0</ele><time>2026-04-11T13:12:01.895Z</time></trkpt><trkpt lat="44.621959" lon="9.8512492"><ele>786.0</ele><time>2026-04-11T13:12:02.896Z</time></trkpt><trkpt lat="44.6220312" lon="9.8513433"><ele>786.0</ele><time>2026-04-11T13:12:03.895Z</time></trkpt><trkpt lat="44.6221078" lon="9.8514311"><ele>786.0</ele><time>2026-04-11T13:12:04.896Z</time></trkpt><trkpt lat="44.6221854" lon="9.8515189"><ele>786.8</ele><time>2026-04-11T13:12:05.896Z</time></trkpt><trkpt lat="44.6222657" lon="9.8515927"><ele>787.5999999999999</ele><time>2026-04-11T13:12:06.896Z</time></trkpt><trkpt lat="44.6223516" lon="9.8516459"><ele>788.4</ele><time>2026-04-11T13:12:07.895Z</time></trkpt><trkpt lat="44.6224441" lon="9.8516721"><ele>789.2</ele><time>2026-04-11T13:12:08.896Z</time></trkpt><trkpt lat="44.6225419" lon="9.8516759"><ele>790.0</ele><time>2026-04-11T13:12:09.896Z</time></trkpt><trkpt lat="44.6226413" lon="9.8516687"><ele>790.0</ele><time>2026-04-11T13:12:10.896Z</time></trkpt><trkpt lat="44.6227458" lon="9.8516589"><ele>790.0</ele><time>2026-04-11T13:12:11.896Z</time></trkpt><trkpt lat="44.6228549" lon="9.8516454"><ele>790.0</ele><time>2026-04-11T13:12:12.895Z</time></trkpt><trkpt lat="44.6229711" lon="9.8516258"><ele>790.0</ele><time>2026-04-11T13:12:13.896Z</time></trkpt><trkpt lat="44.6230758" lon="9.8515908"><ele>790.0</ele><time>2026-04-11T13:12:14.895Z</time></trkpt><trkpt lat="44.6231793" lon="9.8515525"><ele>790.25</ele><time>2026-04-11T13:12:15.896Z</time></trkpt><trkpt lat="44.6232838" lon="9.8515069"><ele>790.5</ele><time>2026-04-11T13:12:16.896Z</time></trkpt><trkpt lat="44.6233888" lon="9.851455"><ele>790.75</ele><time>2026-04-11T13:12:17.896Z</time></trkpt><trkpt lat="44.6234998" lon="9.8514075"><ele>791.0</ele><time>2026-04-11T13:12:18.896Z</time></trkpt><trkpt lat="44.6236154" lon="9.8513816"><ele>791.5</ele><time>2026-04-11T13:12:19.896Z</time></trkpt><trkpt lat="44.6237342" lon="9.8513867"><ele>792.0</ele><time>2026-04-11T13:12:20.895Z</time></trkpt><trkpt lat="44.6238512" lon="9.8514087"><ele>792.5</ele><time>2026-04-11T13:12:21.896Z</time></trkpt><trkpt lat="44.6239742" lon="9.8514434"><ele>793.0</ele><time>2026-04-11T13:12:22.895Z</time></trkpt><trkpt lat="44.6240974" lon="9.8514791"><ele>793.0</ele><time>2026-04-11T13:12:23.896Z</time></trkpt><trkpt lat="44.6242235" lon="9.8515139"><ele>793.0</ele><time>2026-04-11T13:12:24.895Z</time></trkpt><trkpt lat="44.6243525" lon="9.8515478"><ele>793.0</ele><time>2026-04-11T13:12:25.896Z</time></trkpt><trkpt lat="44.6244799" lon="9.8515793"><ele>793.0</ele><time>2026-04-11T13:12:26.895Z</time></trkpt><trkpt lat="44.6246032" lon="9.8516134"><ele>793.5</ele><time>2026-04-11T13:12:27.896Z</time></trkpt><trkpt lat="44.6247236" lon="9.8516501"><ele>794.0</ele><time>2026-04-11T13:12:28.896Z</time></trkpt><trkpt lat="44.6248464" lon="9.8516914"><ele>794.5</ele><time>2026-04-11T13:12:29.896Z</time></trkpt><trkpt lat="44.6249629" lon="9.8517423"><ele>795.0</ele><time>2026-04-11T13:12:30.896Z</time></trkpt><trkpt lat="44.6250731" lon="9.8518216"><ele>795.0</ele><time>2026-04-11T13:12:31.896Z</time></trkpt><trkpt lat="44.625181" lon="9.8519166"><ele>795.0</ele><time>2026-04-11T13:12:32.895Z</time></trkpt><trkpt lat="44.625286" lon="9.8520154"><ele>795.0</ele><time>2026-04-11T13:12:33.897Z</time></trkpt><trkpt lat="44.625388" lon="9.8521127"><ele>795.0</ele><time>2026-04-11T13:12:34.896Z</time></trkpt><trkpt lat="44.6254998" lon="9.8522124"><ele>798.25</ele><time>2026-04-11T13:12:35.896Z</time></trkpt><trkpt lat="44.625615" lon="9.8523094"><ele>801.5</ele><time>2026-04-11T13:12:36.895Z</time></trkpt><trkpt lat="44.6257288" lon="9.8524108"><ele>804.75</ele><time>2026-04-11T13:12:37.896Z</time></trkpt><trkpt lat="44.6258446" lon="9.852511"><ele>808.0</ele><time>2026-04-11T13:12:38.896Z</time></trkpt><trkpt lat="44.6259617" lon="9.8526107"><ele>808.8</ele><time>2026-04-11T13:12:39.896Z</time></trkpt><trkpt lat="44.6260708" lon="9.8527057"><ele>809.5999999999999</ele><time>2026-04-11T13:12:40.896Z</time></trkpt><trkpt lat="44.6261618" lon="9.8527862"><ele>810.4000000000001</ele><time>2026-04-11T13:12:41.896Z</time></trkpt><trkpt lat="44.6262511" lon="9.8528602"><ele>811.2</ele><time>2026-04-11T13:12:42.896Z</time></trkpt><trkpt lat="44.6263402" lon="9.8529281"><ele>812.0</ele><time>2026-04-11T13:12:43.896Z</time></trkpt><trkpt lat="44.6264374" lon="9.852984"><ele>812.0</ele><time>2026-04-11T13:12:44.896Z</time></trkpt><trkpt lat="44.626543" lon="9.8530182"><ele>812.0</ele><time>2026-04-11T13:12:45.896Z</time></trkpt><trkpt lat="44.6266495" lon="9.8530483"><ele>812.0</ele><time>2026-04-11T13:12:46.896Z</time></trkpt><trkpt lat="44.6267495" lon="9.8530743"><ele>812.0</ele><time>2026-04-11T13:12:47.897Z</time></trkpt><trkpt lat="44.6268647" lon="9.8531064"><ele>812.0</ele><time>2026-04-11T13:12:48.895Z</time></trkpt><trkpt lat="44.6270573" lon="9.8531827"><ele>814.25</ele><time>2026-04-11T13:12:50.895Z</time></trkpt><trkpt lat="44.6271599" lon="9.8532232"><ele>816.5</ele><time>2026-04-11T13:12:51.896Z</time></trkpt><trkpt lat="44.6272667" lon="9.853281"><ele>818.75</ele><time>2026-04-11T13:12:52.896Z</time></trkpt><trkpt lat="44.6273731" lon="9.8533374"><ele>821.0</ele><time>2026-04-11T13:12:53.896Z</time></trkpt><trkpt lat="44.6275569" lon="9.853445"><ele>820.1666666666667</ele><time>2026-04-11T13:12:55.895Z</time></trkpt><trkpt lat="44.6276268" lon="9.8534897"><ele>819.3333333333334</ele><time>2026-04-11T13:12:56.896Z</time></trkpt><trkpt lat="44.6276842" lon="9.8535524"><ele>818.5</ele><time>2026-04-11T13:12:57.896Z</time></trkpt><trkpt lat="44.6277762" lon="9.8536142"><ele>817.6666666666667</ele><time>2026-04-11T13:12:59.896Z</time></trkpt><trkpt lat="44.627849" lon="9.85358"><ele>816.8333333333334</ele><time>2026-04-11T13:13:01.896Z</time></trkpt><trkpt lat="44.6279435" lon="9.8535048"><ele>816.0</ele><time>2026-04-11T13:13:03.896Z</time></trkpt><trkpt lat="44.628131" lon="9.8533512"><ele>819.5</ele><time>2026-04-11T13:13:06.896Z</time></trkpt><trkpt lat="44.6281945" lon="9.8532912"><ele>823.0</ele><time>2026-04-11T13:13:07.895Z</time></trkpt><trkpt lat="44.6282475" lon="9.8532413"><ele>826.5</ele><time>2026-04-11T13:13:08.896Z</time></trkpt><trkpt lat="44.6282619" lon="9.853073"><ele>830.0</ele><time>2026-04-11T13:13:10.896Z</time></trkpt><trkpt lat="44.6282502" lon="9.8529823"><ele>833.5</ele><time>2026-04-11T13:13:11.896Z</time></trkpt><trkpt lat="44.6282323" lon="9.8528916"><ele>837.0</ele><time>2026-04-11T13:13:12.896Z</time></trkpt><trkpt lat="44.6282736" lon="9.8527924"><ele>837.0</ele><time>2026-04-11T13:13:14.896Z</time></trkpt><trkpt lat="44.6283514" lon="9.8528498"><ele>837.0</ele><time>2026-04-11T13:13:17.896Z</time></trkpt><trkpt lat="44.6284103" lon="9.8529081"><ele>837.0</ele><time>2026-04-11T13:13:41.896Z</time></trkpt><trkpt lat="44.6284881" lon="9.852955"><ele>837.0</ele><time>2026-04-11T13:13:44.896Z</time></trkpt><trkpt lat="44.6285783" lon="9.8529514"><ele>837.0</ele><time>2026-04-11T13:13:46.896Z</time></trkpt><trkpt lat="44.6286685" lon="9.852949"><ele>837.0</ele><time>2026-04-11T13:13:48.895Z</time></trkpt><trkpt lat="44.6287316" lon="9.8529554"><ele>838.7142857142858</ele><time>2026-04-11T13:13:49.896Z</time></trkpt><trkpt lat="44.6287994" lon="9.8529691"><ele>840.4285714285714</ele><time>2026-04-11T13:13:50.896Z</time></trkpt><trkpt lat="44.6288655" lon="9.8529879"><ele>842.1428571428571</ele><time>2026-04-11T13:13:51.895Z</time></trkpt><trkpt lat="44.6289387" lon="9.8530214"><ele>843.8571428571429</ele><time>2026-04-11T13:13:52.896Z</time></trkpt><trkpt lat="44.6290069" lon="9.8530394"><ele>845.5714285714286</ele><time>2026-04-11T13:13:53.896Z</time></trkpt><trkpt lat="44.6290696" lon="9.8530579"><ele>847.2857142857143</ele><time>2026-04-11T13:13:54.896Z</time></trkpt><trkpt lat="44.6291396" lon="9.8530746"><ele>849.0</ele><time>2026-04-11T13:13:55.895Z</time></trkpt><trkpt lat="44.6292632" lon="9.8531129"><ele>849.0</ele><time>2026-04-11T13:13:57.896Z</time></trkpt><trkpt lat="44.6293259" lon="9.8531522"><ele>849.0</ele><time>2026-04-11T13:13:58.895Z</time></trkpt><trkpt lat="44.6293905" lon="9.8532022"><ele>849.0</ele><time>2026-04-11T13:13:59.896Z</time></trkpt><trkpt lat="44.6294483" lon="9.853258"><ele>849.0</ele><time>2026-04-11T13:14:00.896Z</time></trkpt><trkpt lat="44.6295525" lon="9.853372"><ele>849.0</ele><time>2026-04-11T13:14:02.896Z</time></trkpt><trkpt lat="44.6296119" lon="9.853417"><ele>849.0</ele><time>2026-04-11T13:14:03.896Z</time></trkpt><trkpt lat="44.6296749" lon="9.8534614"><ele>850.5</ele><time>2026-04-11T13:14:04.896Z</time></trkpt><trkpt lat="44.6297383" lon="9.8534859"><ele>852.0</ele><time>2026-04-11T13:14:05.896Z</time></trkpt><trkpt lat="44.6298041" lon="9.8534951"><ele>853.5</ele><time>2026-04-11T13:14:06.896Z</time></trkpt><trkpt lat="44.6299239" lon="9.8534655"><ele>855.0</ele><time>2026-04-11T13:14:08.896Z</time></trkpt><trkpt lat="44.6299874" lon="9.8534492"><ele>856.5</ele><time>2026-04-11T13:14:09.895Z</time></trkpt><trkpt lat="44.6301146" lon="9.8534769"><ele>858.0</ele><time>2026-04-11T13:14:11.896Z</time></trkpt><trkpt lat="44.6301781" lon="9.853521"><ele>858.0</ele><time>2026-04-11T13:14:12.895Z</time></trkpt><trkpt lat="44.6302465" lon="9.8535693"><ele>858.0</ele><time>2026-04-11T13:14:13.896Z</time></trkpt><trkpt lat="44.6303203" lon="9.8535976"><ele>858.0</ele><time>2026-04-11T13:14:14.895Z</time></trkpt><trkpt lat="44.6303851" lon="9.8536028"><ele>858.0</ele><time>2026-04-11T13:14:15.895Z</time></trkpt><trkpt lat="44.6304971" lon="9.8535667"><ele>858.0</ele><time>2026-04-11T13:14:17.895Z</time></trkpt><trkpt lat="44.6305976" lon="9.8534911"><ele>858.0</ele><time>2026-04-11T13:14:19.895Z</time></trkpt><trkpt lat="44.6306726" lon="9.8534899"><ele>859.0</ele><time>2026-04-11T13:14:20.895Z</time></trkpt><trkpt lat="44.6307489" lon="9.8534844"><ele>860.0</ele><time>2026-04-11T13:14:21.896Z</time></trkpt><trkpt lat="44.630836" lon="9.8534754"><ele>861.0</ele><time>2026-04-11T13:14:22.896Z</time></trkpt><trkpt lat="44.6309143" lon="9.8534713"><ele>862.0</ele><time>2026-04-11T13:14:23.895Z</time></trkpt><trkpt lat="44.6309916" lon="9.853471"><ele>863.0</ele><time>2026-04-11T13:14:24.896Z</time></trkpt><trkpt lat="44.6311114" lon="9.8535234"><ele>864.0</ele><time>2026-04-11T13:14:26.896Z</time></trkpt><trkpt lat="44.63117" lon="9.8535701"><ele>865.1666666666666</ele><time>2026-04-11T13:14:27.897Z</time></trkpt><trkpt lat="44.6312326" lon="9.8536234"><ele>866.3333333333333</ele><time>2026-04-11T13:14:28.896Z</time></trkpt><trkpt lat="44.6313057" lon="9.8536631"><ele>867.5</ele><time>2026-04-11T13:14:29.896Z</time></trkpt><trkpt lat="44.6313843" lon="9.8536805"><ele>868.6666666666666</ele><time>2026-04-11T13:14:30.895Z</time></trkpt><trkpt lat="44.6314618" lon="9.8536745"><ele>869.8333333333333</ele><time>2026-04-11T13:14:31.896Z</time></trkpt><trkpt lat="44.6315389" lon="9.8536716"><ele>871.0</ele><time>2026-04-11T13:14:32.896Z</time></trkpt><trkpt lat="44.6316885" lon="9.8536343"><ele>871.0</ele><time>2026-04-11T13:14:34.896Z</time></trkpt><trkpt lat="44.6317737" lon="9.8536247"><ele>870.9999999999999</ele><time>2026-04-11T13:14:35.896Z</time></trkpt><trkpt lat="44.6318535" lon="9.8536162"><ele>870.9999999999999</ele><time>2026-04-11T13:14:36.896Z</time></trkpt><trkpt lat="44.6319284" lon="9.8536095"><ele>871.0</ele><time>2026-04-11T13:14:37.895Z</time></trkpt><trkpt lat="44.6320346" lon="9.8535557"><ele>871.0</ele><time>2026-04-11T13:14:39.896Z</time></trkpt><trkpt lat="44.6321052" lon="9.853431"><ele>874.8333333333333</ele><time>2026-04-11T13:14:41.895Z</time></trkpt><trkpt lat="44.6321211" lon="9.8533338"><ele>878.6666666666666</ele><time>2026-04-11T13:14:42.896Z</time></trkpt><trkpt lat="44.6321846" lon="9.8532147"><ele>882.5</ele><time>2026-04-11T13:14:44.896Z</time></trkpt><trkpt lat="44.6322708" lon="9.8531502"><ele>886.3333333333333</ele><time>2026-04-11T13:14:46.895Z</time></trkpt><trkpt lat="44.6323444" lon="9.853139"><ele>890.1666666666666</ele><time>2026-04-11T13:14:47.896Z</time></trkpt><trkpt lat="44.6324171" lon="9.8531314"><ele>894.0</ele><time>2026-04-11T13:14:48.896Z</time></trkpt><trkpt lat="44.6325281" lon="9.853171"><ele>894.0</ele><time>2026-04-11T13:14:50.896Z</time></trkpt><trkpt lat="44.6326471" lon="9.8532494"><ele>894.0000000000001</ele><time>2026-04-11T13:14:52.896Z</time></trkpt><trkpt lat="44.6327238" lon="9.8533119"><ele>894.0000000000001</ele><time>2026-04-11T13:14:53.896Z</time></trkpt><trkpt lat="44.6328125" lon="9.8533829"><ele>894.0</ele><time>2026-04-11T13:14:54.896Z</time></trkpt><trkpt lat="44.6328925" lon="9.8534503"><ele>894.0</ele><time>2026-04-11T13:14:55.897Z</time></trkpt><trkpt lat="44.6329882" lon="9.8534953"><ele>896.5</ele><time>2026-04-11T13:14:57.895Z</time></trkpt><trkpt lat="44.6330851" lon="9.8534798"><ele>899.0</ele><time>2026-04-11T13:14:59.896Z</time></trkpt><trkpt lat="44.6331374" lon="9.8534056"><ele>901.5</ele><time>2026-04-11T13:15:00.896Z</time></trkpt><trkpt lat="44.6332021" lon="9.8533502"><ele>904.0</ele><time>2026-04-11T13:15:01.895Z</time></trkpt><trkpt lat="44.6332731" lon="9.8533404"><ele>906.5</ele><time>2026-04-11T13:15:02.896Z</time></trkpt><trkpt lat="44.6333353" lon="9.8533159"><ele>909.0</ele><time>2026-04-11T13:15:03.896Z</time></trkpt><trkpt lat="44.6334524" lon="9.8533359"><ele>909.25</ele><time>2026-04-11T13:15:05.896Z</time></trkpt><trkpt lat="44.63352" lon="9.8533377"><ele>909.5</ele><time>2026-04-11T13:15:06.896Z</time></trkpt><trkpt lat="44.6337245" lon="9.8533921"><ele>909.75</ele><time>2026-04-11T13:15:08.896Z</time></trkpt><trkpt lat="44.6337916" lon="9.8533737"><ele>910.0</ele><time>2026-04-11T13:15:09.896Z</time></trkpt><trkpt lat="44.6340035" lon="9.8533391"><ele>913.3333333333333</ele><time>2026-04-11T13:15:11.896Z</time></trkpt><trkpt lat="44.634087" lon="9.8533239"><ele>916.6666666666666</ele><time>2026-04-11T13:15:12.896Z</time></trkpt><trkpt lat="44.6341574" lon="9.8533329"><ele>920.0</ele><time>2026-04-11T13:15:13.896Z</time></trkpt><trkpt lat="44.6342319" lon="9.8533654"><ele>923.3333333333333</ele><time>2026-04-11T13:15:14.896Z</time></trkpt><trkpt lat="44.6343027" lon="9.8533883"><ele>926.6666666666666</ele><time>2026-04-11T13:15:15.895Z</time></trkpt><trkpt lat="44.6343784" lon="9.8533862"><ele>930.0</ele><time>2026-04-11T13:15:16.896Z</time></trkpt><trkpt lat="44.6344628" lon="9.8533662"><ele>933.0</ele><time>2026-04-11T13:15:17.895Z</time></trkpt><trkpt lat="44.634556" lon="9.8533411"><ele>936.0</ele><time>2026-04-11T13:15:18.896Z</time></trkpt><trkpt lat="44.6346505" lon="9.8533341"><ele>939.0</ele><time>2026-04-11T13:15:19.896Z</time></trkpt><trkpt lat="44.6347398" lon="9.8533229"><ele>942.0</ele><time>2026-04-11T13:15:20.895Z</time></trkpt><trkpt lat="44.6348189" lon="9.8532934"><ele>945.0</ele><time>2026-04-11T13:15:21.896Z</time></trkpt><trkpt lat="44.634899" lon="9.853266"><ele>948.0</ele><time>2026-04-11T13:15:22.896Z</time></trkpt><trkpt lat="44.6349113" lon="9.8531297"><ele>948.0</ele><time>2026-04-11T13:15:23.896Z</time></trkpt><trkpt lat="44.6349586" lon="9.8530531"><ele>948.0</ele><time>2026-04-11T13:15:24.895Z</time></trkpt><trkpt lat="44.6350194" lon="9.8529974"><ele>948.0</ele><time>2026-04-11T13:15:25.895Z</time></trkpt><trkpt lat="44.6350867" lon="9.8529539"><ele>948.0</ele><time>2026-04-11T13:15:26.895Z</time></trkpt><trkpt lat="44.6351524" lon="9.852952"><ele>948.0</ele><time>2026-04-11T13:15:28.896Z</time></trkpt><trkpt lat="44.6352209" lon="9.8530366"><ele>948.0</ele><time>2026-04-11T13:15:31.896Z</time></trkpt><trkpt lat="44.6352701" lon="9.8531662"><ele>948.0</ele><time>2026-04-11T13:15:33.895Z</time></trkpt><trkpt lat="44.6352817" lon="9.8532544"><ele>948.0</ele><time>2026-04-11T13:15:34.895Z</time></trkpt><trkpt lat="44.6352758" lon="9.8533561"><ele>948.0</ele><time>2026-04-11T13:15:35.896Z</time></trkpt><trkpt lat="44.6352752" lon="9.8534679"><ele>948.0</ele><time>2026-04-11T13:15:36.896Z</time></trkpt><trkpt lat="44.6352926" lon="9.853567"><ele>948.0</ele><time>2026-04-11T13:15:37.896Z</time></trkpt><trkpt lat="44.6353753" lon="9.8537067"><ele>948.0</ele><time>2026-04-11T13:15:39.895Z</time></trkpt><trkpt lat="44.6354677" lon="9.8538452"><ele>950.0</ele><time>2026-04-11T13:15:41.895Z</time></trkpt><trkpt lat="44.6355245" lon="9.8539218"><ele>952.0</ele><time>2026-04-11T13:15:42.896Z</time></trkpt><trkpt lat="44.6355771" lon="9.8540033"><ele>954.0</ele><time>2026-04-11T13:15:43.896Z</time></trkpt><trkpt lat="44.6356346" lon="9.8540894"><ele>956.0</ele><time>2026-04-11T13:15:44.896Z</time></trkpt><trkpt lat="44.6356948" lon="9.8541894"><ele>958.0</ele><time>2026-04-11T13:15:45.896Z</time></trkpt><trkpt lat="44.6357452" lon="9.8542836"><ele>960.0</ele><time>2026-04-11T13:15:46.895Z</time></trkpt><trkpt lat="44.635834" lon="9.8544965"><ele>960.5</ele><time>2026-04-11T13:15:48.896Z</time></trkpt><trkpt lat="44.6358794" lon="9.8545907"><ele>961.0</ele><time>2026-04-11T13:15:49.896Z</time></trkpt><trkpt lat="44.6359495" lon="9.8547299"><ele>961.5</ele><time>2026-04-11T13:15:51.896Z</time></trkpt><trkpt lat="44.6359885" lon="9.8548081"><ele>962.0</ele><time>2026-04-11T13:15:52.896Z</time></trkpt><trkpt lat="44.6360372" lon="9.8548862"><ele>962.5</ele><time>2026-04-11T13:15:53.896Z</time></trkpt><trkpt lat="44.6360991" lon="9.8549282"><ele>963.0</ele><time>2026-04-11T13:15:54.896Z</time></trkpt><trkpt lat="44.636156" lon="9.8550521"><ele>962.6666666666666</ele><time>2026-04-11T13:15:56.896Z</time></trkpt><trkpt lat="44.6361849" lon="9.855183"><ele>962.3333333333333</ele><time>2026-04-11T13:15:58.896Z</time></trkpt><trkpt lat="44.6361636" lon="9.8552755"><ele>962.0</ele><time>2026-04-11T13:16:40.895Z</time></trkpt><trkpt lat="44.6361095" lon="9.8553748"><ele>961.6666666666666</ele><time>2026-04-11T13:16:43.895Z</time></trkpt><trkpt lat="44.6360383" lon="9.8555067"><ele>961.3333333333333</ele><time>2026-04-11T13:16:45.896Z</time></trkpt><trkpt lat="44.6360091" lon="9.8555903"><ele>961.0</ele><time>2026-04-11T13:16:46.896Z</time></trkpt><trkpt lat="44.6359698" lon="9.855674"><ele>960.9999999999999</ele><time>2026-04-11T13:16:47.895Z</time></trkpt><trkpt lat="44.6359234" lon="9.8557551"><ele>961.0</ele><time>2026-04-11T13:16:48.896Z</time></trkpt><trkpt lat="44.6358781" lon="9.8558405"><ele>961.0</ele><time>2026-04-11T13:16:49.897Z</time></trkpt><trkpt lat="44.6358434" lon="9.8559283"><ele>961.0</ele><time>2026-04-11T13:16:50.896Z</time></trkpt><trkpt lat="44.6357944" lon="9.8560207"><ele>960.9999999999999</ele><time>2026-04-11T13:16:51.896Z</time></trkpt><trkpt lat="44.6357453" lon="9.8561052"><ele>961.0</ele><time>2026-04-11T13:16:52.896Z</time></trkpt><trkpt lat="44.6356933" lon="9.8561837"><ele>960.0</ele><time>2026-04-11T13:16:53.896Z</time></trkpt><trkpt lat="44.6356412" lon="9.8562742"><ele>958.9999999999999</ele><time>2026-04-11T13:16:54.896Z</time></trkpt><trkpt lat="44.6355891" lon="9.8563343"><ele>957.9999999999999</ele><time>2026-04-11T13:16:55.896Z</time></trkpt><trkpt lat="44.6354942" lon="9.8564399"><ele>957.0</ele><time>2026-04-11T13:16:57.895Z</time></trkpt><trkpt lat="44.6354902" lon="9.856563"><ele>956.0</ele><time>2026-04-11T13:16:59.895Z</time></trkpt><trkpt lat="44.6355602" lon="9.8566856"><ele>956.0000000000001</ele><time>2026-04-11T13:17:01.896Z</time></trkpt><trkpt lat="44.6355935" lon="9.8567672"><ele>956.0</ele><time>2026-04-11T13:17:02.896Z</time></trkpt><trkpt lat="44.6356252" lon="9.8568659"><ele>956.0</ele><time>2026-04-11T13:17:03.895Z</time></trkpt><trkpt lat="44.6356577" lon="9.8569863"><ele>956.0</ele><time>2026-04-11T13:17:04.896Z</time></trkpt><trkpt lat="44.6356842" lon="9.8571313"><ele>956.0000000000001</ele><time>2026-04-11T13:17:05.896Z</time></trkpt><trkpt lat="44.6357213" lon="9.857256"><ele>956.0</ele><time>2026-04-11T13:17:06.896Z</time></trkpt><trkpt lat="44.6357502" lon="9.8573613"><ele>955.8333333333334</ele><time>2026-04-11T13:17:07.896Z</time></trkpt><trkpt lat="44.6357588" lon="9.8574676"><ele>955.6666666666667</ele><time>2026-04-11T13:17:08.896Z</time></trkpt><trkpt lat="44.6357695" lon="9.8575841"><ele>955.5</ele><time>2026-04-11T13:17:09.895Z</time></trkpt><trkpt lat="44.6357418" lon="9.8577003"><ele>955.3333333333333</ele><time>2026-04-11T13:17:10.896Z</time></trkpt><trkpt lat="44.6357315" lon="9.8578101"><ele>955.1666666666666</ele><time>2026-04-11T13:17:11.896Z</time></trkpt><trkpt lat="44.6357621" lon="9.8579021"><ele>955.0</ele><time>2026-04-11T13:17:12.896Z</time></trkpt><trkpt lat="44.6358462" lon="9.8580036"><ele>954.8</ele><time>2026-04-11T13:17:13.896Z</time></trkpt><trkpt lat="44.6358787" lon="9.8581222"><ele>954.6</ele><time>2026-04-11T13:17:14.896Z</time></trkpt><trkpt lat="44.6359109" lon="9.8582139"><ele>954.4000000000001</ele><time>2026-04-11T13:17:15.896Z</time></trkpt><trkpt lat="44.6359893" lon="9.8583804"><ele>954.2</ele><time>2026-04-11T13:17:17.895Z</time></trkpt><trkpt lat="44.6360235" lon="9.8584946"><ele>954.0</ele><time>2026-04-11T13:17:18.896Z</time></trkpt><trkpt lat="44.6360148" lon="9.8586072"><ele>953.8000000000001</ele><time>2026-04-11T13:17:19.896Z</time></trkpt><trkpt lat="44.6360217" lon="9.8587689"><ele>953.6000000000001</ele><time>2026-04-11T13:17:20.896Z</time></trkpt><trkpt lat="44.6360076" lon="9.8588973"><ele>953.4</ele><time>2026-04-11T13:17:21.896Z</time></trkpt><trkpt lat="44.6359867" lon="9.8590335"><ele>953.2</ele><time>2026-04-11T13:17:22.896Z</time></trkpt><trkpt lat="44.6359829" lon="9.8591448"><ele>953.0</ele><time>2026-04-11T13:17:23.896Z</time></trkpt><trkpt lat="44.6360413" lon="9.8592857"><ele>952.3333333333334</ele><time>2026-04-11T13:17:24.896Z</time></trkpt><trkpt lat="44.6360395" lon="9.8594056"><ele>951.6666666666667</ele><time>2026-04-11T13:17:25.897Z</time></trkpt><trkpt lat="44.6360466" lon="9.8595087"><ele>951.0</ele><time>2026-04-11T13:17:26.896Z</time></trkpt><trkpt lat="44.6360329" lon="9.8596574"><ele>950.3333333333333</ele><time>2026-04-11T13:17:28.896Z</time></trkpt><trkpt lat="44.6360103" lon="9.859778"><ele>949.6666666666666</ele><time>2026-04-11T13:17:29.895Z</time></trkpt><trkpt lat="44.6359784" lon="9.8598981"><ele>949.0</ele><time>2026-04-11T13:17:30.895Z</time></trkpt><trkpt lat="44.6359534" lon="9.8600309"><ele>947.2</ele><time>2026-04-11T13:17:31.895Z</time></trkpt><trkpt lat="44.6359108" lon="9.8601516"><ele>945.4000000000001</ele><time>2026-04-11T13:17:32.895Z</time></trkpt><trkpt lat="44.6358442" lon="9.8602716"><ele>943.6</ele><time>2026-04-11T13:17:33.895Z</time></trkpt><trkpt lat="44.6358" lon="9.8603854"><ele>941.8</ele><time>2026-04-11T13:17:34.895Z</time></trkpt><trkpt lat="44.6357309" lon="9.8604859"><ele>940.0</ele><time>2026-04-11T13:17:35.896Z</time></trkpt><trkpt lat="44.6356793" lon="9.860572"><ele>939.9999999999999</ele><time>2026-04-11T13:17:36.896Z</time></trkpt><trkpt lat="44.6356362" lon="9.8606438"><ele>940.0</ele><time>2026-04-11T13:17:37.896Z</time></trkpt><trkpt lat="44.6355556" lon="9.860741"><ele>940.0</ele><time>2026-04-11T13:17:39.896Z</time></trkpt><trkpt lat="44.6355001" lon="9.860785"><ele>940.0</ele><time>2026-04-11T13:17:40.895Z</time></trkpt><trkpt lat="44.6354445" lon="9.8608484"><ele>939.9999999999999</ele><time>2026-04-11T13:17:42.895Z</time></trkpt><trkpt lat="44.6353914" lon="9.8609187"><ele>940.0</ele><time>2026-04-11T13:17:54.895Z</time></trkpt><trkpt lat="44.6353046" lon="9.8609929"><ele>936.9999999999999</ele><time>2026-04-11T13:17:56.896Z</time></trkpt><trkpt lat="44.6352569" lon="9.8610548"><ele>934.0</ele><time>2026-04-11T13:17:57.896Z</time></trkpt><trkpt lat="44.6352085" lon="9.8611231"><ele>931.0</ele><time>2026-04-11T13:17:58.895Z</time></trkpt><trkpt lat="44.635158" lon="9.8612036"><ele>928.0</ele><time>2026-04-11T13:17:59.896Z</time></trkpt><trkpt lat="44.6351024" lon="9.861286"><ele>924.9999999999999</ele><time>2026-04-11T13:18:00.897Z</time></trkpt><trkpt lat="44.6350447" lon="9.8613833"><ele>922.0</ele><time>2026-04-11T13:18:01.896Z</time></trkpt><trkpt lat="44.63499" lon="9.8614773"><ele>921.9999999999999</ele><time>2026-04-11T13:18:02.896Z</time></trkpt><trkpt lat="44.6349464" lon="9.8615875"><ele>922.0</ele><time>2026-04-11T13:18:03.897Z</time></trkpt><trkpt lat="44.6349009" lon="9.8616985"><ele>922.0</ele><time>2026-04-11T13:18:04.895Z</time></trkpt><trkpt lat="44.6348647" lon="9.8617916"><ele>922.0</ele><time>2026-04-11T13:18:05.896Z</time></trkpt><trkpt lat="44.6348081" lon="9.861853"><ele>921.9999999999999</ele><time>2026-04-11T13:18:06.896Z</time></trkpt><trkpt lat="44.6347536" lon="9.8619136"><ele>922.0</ele><time>2026-04-11T13:18:07.896Z</time></trkpt><trkpt lat="44.6346825" lon="9.8619445"><ele>919.8333333333333</ele><time>2026-04-11T13:18:08.896Z</time></trkpt><trkpt lat="44.6346148" lon="9.8619667"><ele>917.6666666666666</ele><time>2026-04-11T13:18:09.895Z</time></trkpt><trkpt lat="44.6345454" lon="9.8620084"><ele>915.5</ele><time>2026-04-11T13:18:10.896Z</time></trkpt><trkpt lat="44.6344923" lon="9.8620783"><ele>913.3333333333333</ele><time>2026-04-11T13:18:11.896Z</time></trkpt><trkpt lat="44.6344521" lon="9.8621616"><ele>911.1666666666666</ele><time>2026-04-11T13:18:12.896Z</time></trkpt><trkpt lat="44.6344226" lon="9.8622658"><ele>909.0</ele><time>2026-04-11T13:18:13.896Z</time></trkpt><trkpt lat="44.6343964" lon="9.8623744"><ele>909.0</ele><time>2026-04-11T13:18:14.896Z</time></trkpt><trkpt lat="44.6343629" lon="9.8624712"><ele>909.0</ele><time>2026-04-11T13:18:15.896Z</time></trkpt><trkpt lat="44.6343138" lon="9.8625659"><ele>909.0</ele><time>2026-04-11T13:18:16.895Z</time></trkpt><trkpt lat="44.6342678" lon="9.8626527"><ele>909.0</ele><time>2026-04-11T13:18:17.896Z</time></trkpt><trkpt lat="44.6342254" lon="9.8627373"><ele>909.0</ele><time>2026-04-11T13:18:18.896Z</time></trkpt><trkpt lat="44.6341854" lon="9.8628213"><ele>909.0</ele><time>2026-04-11T13:18:19.895Z</time></trkpt><trkpt lat="44.6340955" lon="9.8629226"><ele>906.7142857142857</ele><time>2026-04-11T13:18:21.896Z</time></trkpt><trkpt lat="44.6340294" lon="9.8629605"><ele>904.4285714285714</ele><time>2026-04-11T13:18:22.896Z</time></trkpt><trkpt lat="44.6339556" lon="9.8629856"><ele>902.1428571428571</ele><time>2026-04-11T13:18:23.896Z</time></trkpt><trkpt lat="44.6338773" lon="9.8630165"><ele>899.8571428571429</ele><time>2026-04-11T13:18:24.896Z</time></trkpt><trkpt lat="44.6338129" lon="9.8630468"><ele>897.5714285714287</ele><time>2026-04-11T13:18:25.896Z</time></trkpt><trkpt lat="44.6337427" lon="9.8630835"><ele>895.2857142857143</ele><time>2026-04-11T13:18:26.896Z</time></trkpt><trkpt lat="44.6336758" lon="9.8631006"><ele>893.0</ele><time>2026-04-11T13:18:27.896Z</time></trkpt><trkpt lat="44.6335582" lon="9.8632018"><ele>892.6666666666667</ele><time>2026-04-11T13:18:29.895Z</time></trkpt><trkpt lat="44.6334988" lon="9.8632372"><ele>892.3333333333334</ele><time>2026-04-11T13:18:30.896Z</time></trkpt><trkpt lat="44.6334324" lon="9.8633202"><ele>892.0</ele><time>2026-04-11T13:18:31.895Z</time></trkpt><trkpt lat="44.6333796" lon="9.8633707"><ele>891.6666666666667</ele><time>2026-04-11T13:18:32.896Z</time></trkpt><trkpt lat="44.6333586" lon="9.8634782"><ele>891.3333333333334</ele><time>2026-04-11T13:18:33.896Z</time></trkpt><trkpt lat="44.6332996" lon="9.8635514"><ele>891.0</ele><time>2026-04-11T13:18:34.896Z</time></trkpt><trkpt lat="44.6332033" lon="9.8635984"><ele>887.5</ele><time>2026-04-11T13:18:36.896Z</time></trkpt><trkpt lat="44.6331339" lon="9.8636739"><ele>884.0</ele><time>2026-04-11T13:18:38.896Z</time></trkpt><trkpt lat="44.6330499" lon="9.8637671"><ele>880.5</ele><time>2026-04-11T13:18:40.896Z</time></trkpt><trkpt lat="44.6329882" lon="9.8637856"><ele>877.0</ele><time>2026-04-11T13:18:41.895Z</time></trkpt><trkpt lat="44.632917" lon="9.8637971"><ele>873.5</ele><time>2026-04-11T13:18:42.896Z</time></trkpt><trkpt lat="44.632832" lon="9.8638158"><ele>870.0</ele><time>2026-04-11T13:18:43.895Z</time></trkpt><trkpt lat="44.6327361" lon="9.8638274"><ele>869.3333333333334</ele><time>2026-04-11T13:18:44.896Z</time></trkpt><trkpt lat="44.6326506" lon="9.8638344"><ele>868.6666666666667</ele><time>2026-04-11T13:18:45.895Z</time></trkpt><trkpt lat="44.632592" lon="9.8637823"><ele>868.0</ele><time>2026-04-11T13:18:46.896Z</time></trkpt><trkpt lat="44.632489" lon="9.863767"><ele>867.3333333333334</ele><time>2026-04-11T13:18:48.896Z</time></trkpt><trkpt lat="44.6324259" lon="9.8637798"><ele>866.6666666666667</ele><time>2026-04-11T13:18:50.896Z</time></trkpt><trkpt lat="44.6324319" lon="9.8639177"><ele>866.0</ele><time>2026-04-11T13:18:53.896Z</time></trkpt><trkpt lat="44.6324209" lon="9.8640766"><ele>866.0000000000001</ele><time>2026-04-11T13:18:55.896Z</time></trkpt><trkpt lat="44.6324057" lon="9.8641675"><ele>866.0</ele><time>2026-04-11T13:18:56.896Z</time></trkpt><trkpt lat="44.6323988" lon="9.8643405"><ele>866.0</ele><time>2026-04-11T13:18:58.896Z</time></trkpt><trkpt lat="44.6324402" lon="9.8644187"><ele>866.0</ele><time>2026-04-11T13:18:59.896Z</time></trkpt><trkpt lat="44.6324783" lon="9.8645702"><ele>866.0000000000001</ele><time>2026-04-11T13:19:01.896Z</time></trkpt><trkpt lat="44.6325225" lon="9.8646531"><ele>866.0</ele><time>2026-04-11T13:19:02.896Z</time></trkpt><trkpt lat="44.632581" lon="9.8648084"><ele>864.1666666666667</ele><time>2026-04-11T13:19:04.896Z</time></trkpt><trkpt lat="44.6326121" lon="9.8648931"><ele>862.3333333333334</ele><time>2026-04-11T13:19:05.896Z</time></trkpt><trkpt lat="44.6326539" lon="9.8650004"><ele>860.5</ele><time>2026-04-11T13:19:06.896Z</time></trkpt><trkpt lat="44.6326781" lon="9.8651129"><ele>858.6666666666667</ele><time>2026-04-11T13:19:07.896Z</time></trkpt><trkpt lat="44.6326977" lon="9.8652407"><ele>856.8333333333334</ele><time>2026-04-11T13:19:08.896Z</time></trkpt><trkpt lat="44.6327135" lon="9.8653802"><ele>855.0</ele><time>2026-04-11T13:19:09.896Z</time></trkpt><trkpt lat="44.6327352" lon="9.8655056"><ele>852.4</ele><time>2026-04-11T13:19:10.897Z</time></trkpt><trkpt lat="44.6327676" lon="9.8656479"><ele>849.8</ele><time>2026-04-11T13:19:11.895Z</time></trkpt><trkpt lat="44.6327929" lon="9.8657877"><ele>847.2</ele><time>2026-04-11T13:19:12.896Z</time></trkpt><trkpt lat="44.6328139" lon="9.865917"><ele>844.6</ele><time>2026-04-11T13:19:13.895Z</time></trkpt><trkpt lat="44.6328467" lon="9.8660405"><ele>842.0</ele><time>2026-04-11T13:19:14.896Z</time></trkpt><trkpt lat="44.632878" lon="9.86615"><ele>840.6</ele><time>2026-04-11T13:19:15.896Z</time></trkpt><trkpt lat="44.6328724" lon="9.8663555"><ele>839.2</ele><time>2026-04-11T13:19:17.896Z</time></trkpt><trkpt lat="44.6328506" lon="9.8664738"><ele>837.8</ele><time>2026-04-11T13:19:18.896Z</time></trkpt><trkpt lat="44.632843" lon="9.8665839"><ele>836.4</ele><time>2026-04-11T13:19:19.895Z</time></trkpt><trkpt lat="44.6328385" lon="9.8667128"><ele>835.0</ele><time>2026-04-11T13:19:20.896Z</time></trkpt><trkpt lat="44.6328428" lon="9.8668249"><ele>833.4999999999999</ele><time>2026-04-11T13:19:21.896Z</time></trkpt><trkpt lat="44.6328688" lon="9.866933"><ele>832.0</ele><time>2026-04-11T13:19:22.896Z</time></trkpt><trkpt lat="44.6329" lon="9.8670243"><ele>830.5</ele><time>2026-04-11T13:19:23.896Z</time></trkpt><trkpt lat="44.6329427" lon="9.8671138"><ele>829.0</ele><time>2026-04-11T13:19:24.896Z</time></trkpt><trkpt lat="44.6329856" lon="9.8671989"><ele>827.4999999999999</ele><time>2026-04-11T13:19:25.896Z</time></trkpt><trkpt lat="44.6330189" lon="9.8672942"><ele>826.0</ele><time>2026-04-11T13:19:26.896Z</time></trkpt><trkpt lat="44.6330336" lon="9.8673965"><ele>825.9999999999999</ele><time>2026-04-11T13:19:27.896Z</time></trkpt><trkpt lat="44.6330383" lon="9.8674897"><ele>826.0</ele><time>2026-04-11T13:19:28.896Z</time></trkpt><trkpt lat="44.6330415" lon="9.8675893"><ele>826.0</ele><time>2026-04-11T13:19:29.896Z</time></trkpt><trkpt lat="44.6330575" lon="9.8677439"><ele>826.0</ele><time>2026-04-11T13:19:31.897Z</time></trkpt><trkpt lat="44.6330877" lon="9.867828"><ele>825.9999999999999</ele><time>2026-04-11T13:19:33.895Z</time></trkpt><trkpt lat="44.6331503" lon="9.8679278"><ele>826.0</ele><time>2026-04-11T13:19:43.896Z</time></trkpt><trkpt lat="44.6332262" lon="9.8680423"><ele>824.5999999999999</ele><time>2026-04-11T13:19:45.896Z</time></trkpt><trkpt lat="44.6333065" lon="9.8681653"><ele>823.2</ele><time>2026-04-11T13:19:47.896Z</time></trkpt><trkpt lat="44.6333492" lon="9.8682314"><ele>821.8</ele><time>2026-04-11T13:19:48.896Z</time></trkpt><trkpt lat="44.6334302" lon="9.868369"><ele>820.4000000000001</ele><time>2026-04-11T13:19:50.897Z</time></trkpt><trkpt lat="44.6334694" lon="9.8684412"><ele>819.0</ele><time>2026-04-11T13:19:51.896Z</time></trkpt><trkpt lat="44.6334998" lon="9.8685957"><ele>818.8000000000001</ele><time>2026-04-11T13:19:53.895Z</time></trkpt><trkpt lat="44.6334553" lon="9.8687459"><ele>818.6</ele><time>2026-04-11T13:19:55.895Z</time></trkpt><trkpt lat="44.6333965" lon="9.8688957"><ele>818.4</ele><time>2026-04-11T13:19:57.896Z</time></trkpt><trkpt lat="44.6333978" lon="9.8689946"><ele>818.2</ele><time>2026-04-11T13:19:58.896Z</time></trkpt><trkpt lat="44.6333944" lon="9.8691047"><ele>818.0</ele><time>2026-04-11T13:19:59.897Z</time></trkpt><trkpt lat="44.6333833" lon="9.8692066"><ele>817.6666666666667</ele><time>2026-04-11T13:20:00.897Z</time></trkpt><trkpt lat="44.633371" lon="9.8693119"><ele>817.3333333333334</ele><time>2026-04-11T13:20:01.895Z</time></trkpt><trkpt lat="44.6333585" lon="9.8694061"><ele>817.0</ele><time>2026-04-11T13:20:02.896Z</time></trkpt><trkpt lat="44.6333792" lon="9.8695276"><ele>816.6666666666667</ele><time>2026-04-11T13:20:04.896Z</time></trkpt><trkpt lat="44.6334876" lon="9.8695645"><ele>816.3333333333334</ele><time>2026-04-11T13:20:06.895Z</time></trkpt><trkpt lat="44.633574" lon="9.8695901"><ele>816.0</ele><time>2026-04-11T13:20:08.895Z</time></trkpt><trkpt lat="44.6336434" lon="9.8696146"><ele>817.6666666666666</ele><time>2026-04-11T13:20:09.896Z</time></trkpt><trkpt lat="44.633695" lon="9.8696778"><ele>819.3333333333333</ele><time>2026-04-11T13:20:10.895Z</time></trkpt><trkpt lat="44.6337409" lon="9.8697595"><ele>821.0</ele><time>2026-04-11T13:20:11.896Z</time></trkpt><trkpt lat="44.6337771" lon="9.86986"><ele>822.6666666666666</ele><time>2026-04-11T13:20:12.896Z</time></trkpt><trkpt lat="44.6338195" lon="9.8699416"><ele>824.3333333333333</ele><time>2026-04-11T13:20:13.896Z</time></trkpt><trkpt lat="44.6338884" lon="9.8699985"><ele>826.0</ele><time>2026-04-11T13:20:14.896Z</time></trkpt><trkpt lat="44.6339549" lon="9.8700775"><ele>825.1999999999999</ele><time>2026-04-11T13:20:15.896Z</time></trkpt><trkpt lat="44.6340185" lon="9.8701466"><ele>824.4</ele><time>2026-04-11T13:20:16.896Z</time></trkpt><trkpt lat="44.63409" lon="9.8702394"><ele>823.6</ele><time>2026-04-11T13:20:17.896Z</time></trkpt><trkpt lat="44.6341585" lon="9.8703353"><ele>822.8</ele><time>2026-04-11T13:20:18.895Z</time></trkpt><trkpt lat="44.6342217" lon="9.8704311"><ele>822.0</ele><time>2026-04-11T13:20:19.895Z</time></trkpt><trkpt lat="44.6343169" lon="9.870499"><ele>822.0</ele><time>2026-04-11T13:20:20.896Z</time></trkpt><trkpt lat="44.6343947" lon="9.8705663"><ele>822.0</ele><time>2026-04-11T13:20:21.895Z</time></trkpt><trkpt lat="44.6344505" lon="9.8706493"><ele>822.0</ele><time>2026-04-11T13:20:22.896Z</time></trkpt><trkpt lat="44.63451" lon="9.870739"><ele>822.0</ele><time>2026-04-11T13:20:23.895Z</time></trkpt><trkpt lat="44.6345675" lon="9.8708397"><ele>822.0</ele><time>2026-04-11T13:20:24.896Z</time></trkpt><trkpt lat="44.6346391" lon="9.8709507"><ele>824.8333333333334</ele><time>2026-04-11T13:20:25.896Z</time></trkpt><trkpt lat="44.6347081" lon="9.871067"><ele>827.6666666666667</ele><time>2026-04-11T13:20:26.896Z</time></trkpt><trkpt lat="44.63477" lon="9.8711648"><ele>830.5</ele><time>2026-04-11T13:20:27.896Z</time></trkpt><trkpt lat="44.6348064" lon="9.8712604"><ele>833.3333333333334</ele><time>2026-04-11T13:20:28.896Z</time></trkpt><trkpt lat="44.6348393" lon="9.8713463"><ele>836.1666666666667</ele><time>2026-04-11T13:20:29.896Z</time></trkpt><trkpt lat="44.6348793" lon="9.8714188"><ele>839.0</ele><time>2026-04-11T13:20:30.896Z</time></trkpt><trkpt lat="44.6349288" lon="9.8714919"><ele>839.0</ele><time>2026-04-11T13:20:31.896Z</time></trkpt><trkpt lat="44.6350197" lon="9.8715575"><ele>839.0</ele><time>2026-04-11T13:20:33.895Z</time></trkpt><trkpt lat="44.6351204" lon="9.8716388"><ele>839.0</ele><time>2026-04-11T13:20:35.895Z</time></trkpt><trkpt lat="44.6352012" lon="9.8716769"><ele>839.0</ele><time>2026-04-11T13:20:36.896Z</time></trkpt><trkpt lat="44.6352833" lon="9.8717185"><ele>839.0</ele><time>2026-04-11T13:20:37.895Z</time></trkpt><trkpt lat="44.6353645" lon="9.8717279"><ele>839.5000000000001</ele><time>2026-04-11T13:20:38.896Z</time></trkpt><trkpt lat="44.6354469" lon="9.8717496"><ele>840.0</ele><time>2026-04-11T13:20:39.896Z</time></trkpt><trkpt lat="44.6355381" lon="9.8717641"><ele>840.5</ele><time>2026-04-11T13:20:40.896Z</time></trkpt><trkpt lat="44.6356243" lon="9.8717259"><ele>841.0</ele><time>2026-04-11T13:20:41.896Z</time></trkpt><trkpt lat="44.6356942" lon="9.8717426"><ele>841.5000000000001</ele><time>2026-04-11T13:20:42.896Z</time></trkpt><trkpt lat="44.6357539" lon="9.8717814"><ele>842.0</ele><time>2026-04-11T13:20:43.896Z</time></trkpt><trkpt lat="44.6358169" lon="9.8718669"><ele>842.0</ele><time>2026-04-11T13:20:44.896Z</time></trkpt><trkpt lat="44.6358843" lon="9.8719837"><ele>842.0</ele><time>2026-04-11T13:20:45.895Z</time></trkpt><trkpt lat="44.6359567" lon="9.8720789"><ele>842.0</ele><time>2026-04-11T13:20:46.896Z</time></trkpt><trkpt lat="44.6360391" lon="9.8721908"><ele>842.0</ele><time>2026-04-11T13:20:47.896Z</time></trkpt><trkpt lat="44.6361447" lon="9.8723118"><ele>843.8</ele><time>2026-04-11T13:20:48.896Z</time></trkpt><trkpt lat="44.6362481" lon="9.8724208"><ele>845.6</ele><time>2026-04-11T13:20:49.896Z</time></trkpt><trkpt lat="44.6363363" lon="9.8724614"><ele>847.4</ele><time>2026-04-11T13:20:50.895Z</time></trkpt><trkpt lat="44.6364179" lon="9.8725076"><ele>849.1999999999999</ele><time>2026-04-11T13:20:51.896Z</time></trkpt><trkpt lat="44.6365157" lon="9.8725824"><ele>851.0</ele><time>2026-04-11T13:20:53.896Z</time></trkpt><trkpt lat="44.6365554" lon="9.8726705"><ele>851.0</ele><time>2026-04-11T13:20:55.896Z</time></trkpt><trkpt lat="44.636593" lon="9.8728047"><ele>851.0</ele><time>2026-04-11T13:21:27.896Z</time></trkpt><trkpt lat="44.6366691" lon="9.8729484"><ele>851.0</ele><time>2026-04-11T13:21:29.896Z</time></trkpt><trkpt lat="44.6367276" lon="9.8730209"><ele>851.0</ele><time>2026-04-11T13:21:30.895Z</time></trkpt><trkpt lat="44.6367938" lon="9.8731376"><ele>851.0</ele><time>2026-04-11T13:21:32.896Z</time></trkpt><trkpt lat="44.6368878" lon="9.8732611"><ele>853.8</ele><time>2026-04-11T13:21:34.896Z</time></trkpt><trkpt lat="44.6369967" lon="9.8733492"><ele>856.5999999999999</ele><time>2026-04-11T13:21:36.896Z</time></trkpt><trkpt lat="44.6370901" lon="9.8734339"><ele>859.4</ele><time>2026-04-11T13:21:38.895Z</time></trkpt><trkpt lat="44.6371718" lon="9.873523"><ele>862.2</ele><time>2026-04-11T13:21:40.895Z</time></trkpt><trkpt lat="44.6371854" lon="9.873663"><ele>865.0</ele><time>2026-04-11T13:21:42.896Z</time></trkpt><trkpt lat="44.6371852" lon="9.8738406"><ele>865.1666666666666</ele><time>2026-04-11T13:21:44.897Z</time></trkpt><trkpt lat="44.6371701" lon="9.8739554"><ele>865.3333333333333</ele><time>2026-04-11T13:21:45.896Z</time></trkpt><trkpt lat="44.637161" lon="9.8740739"><ele>865.5</ele><time>2026-04-11T13:21:46.896Z</time></trkpt><trkpt lat="44.6371523" lon="9.8741857"><ele>865.6666666666667</ele><time>2026-04-11T13:21:47.896Z</time></trkpt><trkpt lat="44.6371443" lon="9.8743103"><ele>865.8333333333334</ele><time>2026-04-11T13:21:48.896Z</time></trkpt><trkpt lat="44.6371215" lon="9.8744448"><ele>866.0</ele><time>2026-04-11T13:21:49.896Z</time></trkpt><trkpt lat="44.6371015" lon="9.8745718"><ele>866.1999999999999</ele><time>2026-04-11T13:21:50.896Z</time></trkpt><trkpt lat="44.6370805" lon="9.8746801"><ele>866.3999999999999</ele><time>2026-04-11T13:21:51.896Z</time></trkpt><trkpt lat="44.637059" lon="9.8747876"><ele>866.6</ele><time>2026-04-11T13:21:53.895Z</time></trkpt><trkpt lat="44.6370513" lon="9.8749726"><ele>866.8</ele><time>2026-04-11T13:21:55.896Z</time></trkpt><trkpt lat="44.6370817" lon="9.8750983"><ele>867.0</ele><time>2026-04-11T13:21:56.896Z</time></trkpt><trkpt lat="44.6371047" lon="9.8752273"><ele>867.0</ele><time>2026-04-11T13:21:58.896Z</time></trkpt><trkpt lat="44.6372019" lon="9.8752853"><ele>867.0</ele><time>2026-04-11T13:22:00.896Z</time></trkpt><trkpt lat="44.6372829" lon="9.8753188"><ele>867.0</ele><time>2026-04-11T13:22:01.896Z</time></trkpt><trkpt lat="44.6373552" lon="9.8753399"><ele>867.0</ele><time>2026-04-11T13:22:02.895Z</time></trkpt><trkpt lat="44.6374192" lon="9.8753542"><ele>867.0</ele><time>2026-04-11T13:22:03.895Z</time></trkpt><trkpt lat="44.6375715" lon="9.8753071"><ele>867.0</ele><time>2026-04-11T13:22:05.896Z</time></trkpt><trkpt lat="44.6376959" lon="9.8752336"><ele>867.0</ele><time>2026-04-11T13:22:07.896Z</time></trkpt><trkpt lat="44.6377856" lon="9.8752096"><ele>867.0</ele><time>2026-04-11T13:22:08.895Z</time></trkpt><trkpt lat="44.6378743" lon="9.8752155"><ele>867.0</ele><time>2026-04-11T13:22:09.896Z</time></trkpt><trkpt lat="44.6379546" lon="9.8752297"><ele>867.0</ele><time>2026-04-11T13:22:10.896Z</time></trkpt><trkpt lat="44.6380189" lon="9.8752513"><ele>869.8333333333334</ele><time>2026-04-11T13:22:11.896Z</time></trkpt><trkpt lat="44.6380875" lon="9.8753184"><ele>872.6666666666667</ele><time>2026-04-11T13:22:13.895Z</time></trkpt><trkpt lat="44.6380591" lon="9.8754134"><ele>875.5</ele><time>2026-04-11T13:22:15.896Z</time></trkpt><trkpt lat="44.6380081" lon="9.8755708"><ele>878.3333333333334</ele><time>2026-04-11T13:22:17.897Z</time></trkpt><trkpt lat="44.6379826" lon="9.8756681"><ele>881.1666666666667</ele><time>2026-04-11T13:22:18.896Z</time></trkpt><trkpt lat="44.6379501" lon="9.8757657"><ele>884.0</ele><time>2026-04-11T13:22:19.896Z</time></trkpt><trkpt lat="44.6379198" lon="9.8758761"><ele>884.0000000000001</ele><time>2026-04-11T13:22:20.896Z</time></trkpt><trkpt lat="44.6378942" lon="9.8759901"><ele>884.0</ele><time>2026-04-11T13:22:21.895Z</time></trkpt><trkpt lat="44.6378616" lon="9.8761056"><ele>884.0</ele><time>2026-04-11T13:22:22.895Z</time></trkpt><trkpt lat="44.6378309" lon="9.8762084"><ele>884.0</ele><time>2026-04-11T13:22:23.896Z</time></trkpt><trkpt lat="44.6378033" lon="9.8763111"><ele>884.0000000000001</ele><time>2026-04-11T13:22:24.896Z</time></trkpt><trkpt lat="44.637774" lon="9.8764063"><ele>884.0</ele><time>2026-04-11T13:22:25.896Z</time></trkpt><trkpt lat="44.6377441" lon="9.876494"><ele>883.3333333333334</ele><time>2026-04-11T13:22:26.896Z</time></trkpt><trkpt lat="44.6377102" lon="9.8765755"><ele>882.6666666666667</ele><time>2026-04-11T13:22:27.896Z</time></trkpt><trkpt lat="44.6376643" lon="9.8766506"><ele>882.0</ele><time>2026-04-11T13:22:28.896Z</time></trkpt><trkpt lat="44.6376034" lon="9.8767231"><ele>881.3333333333333</ele><time>2026-04-11T13:22:29.896Z</time></trkpt><trkpt lat="44.6375315" lon="9.8767744"><ele>880.6666666666666</ele><time>2026-04-11T13:22:30.896Z</time></trkpt><trkpt lat="44.6374659" lon="9.8768144"><ele>880.0</ele><time>2026-04-11T13:22:31.896Z</time></trkpt><trkpt lat="44.6373902" lon="9.8768515"><ele>878.4999999999999</ele><time>2026-04-11T13:22:32.896Z</time></trkpt><trkpt lat="44.6374186" lon="9.8767662"><ele>877.0</ele><time>2026-04-11T13:22:35.896Z</time></trkpt><trkpt lat="44.637532" lon="9.8767593"><ele>875.5</ele><time>2026-04-11T13:22:38.895Z</time></trkpt><trkpt lat="44.6375958" lon="9.8767198"><ele>874.0</ele><time>2026-04-11T13:22:39.896Z</time></trkpt><trkpt lat="44.6376688" lon="9.8766416"><ele>872.4999999999999</ele><time>2026-04-11T13:22:40.896Z</time></trkpt><trkpt lat="44.6377276" lon="9.8765354"><ele>871.0</ele><time>2026-04-11T13:22:41.896Z</time></trkpt><trkpt lat="44.637768" lon="9.8764075"><ele>874.25</ele><time>2026-04-11T13:22:42.896Z</time></trkpt><trkpt lat="44.6378066" lon="9.8762619"><ele>877.5</ele><time>2026-04-11T13:22:43.896Z</time></trkpt><trkpt lat="44.6378518" lon="9.8761153"><ele>880.75</ele><time>2026-04-11T13:22:44.896Z</time></trkpt><trkpt lat="44.6378991" lon="9.8759637"><ele>884.0</ele><time>2026-04-11T13:22:45.896Z</time></trkpt><trkpt lat="44.6379409" lon="9.8758233"><ele>884.0000000000001</ele><time>2026-04-11T13:22:46.896Z</time></trkpt><trkpt lat="44.6379822" lon="9.875688"><ele>884.0</ele><time>2026-04-11T13:22:47.896Z</time></trkpt><trkpt lat="44.6380171" lon="9.8755621"><ele>884.0</ele><time>2026-04-11T13:22:48.896Z</time></trkpt><trkpt lat="44.6380499" lon="9.8754549"><ele>884.0</ele><time>2026-04-11T13:22:49.896Z</time></trkpt><trkpt lat="44.6380903" lon="9.8753708"><ele>884.0000000000001</ele><time>2026-04-11T13:22:50.896Z</time></trkpt><trkpt lat="44.6381405" lon="9.8753138"><ele>884.0</ele><time>2026-04-11T13:22:51.896Z</time></trkpt><trkpt lat="44.638201" lon="9.8752788"><ele>884.0000000000001</ele><time>2026-04-11T13:22:52.896Z</time></trkpt><trkpt lat="44.6382646" lon="9.8752671"><ele>884.0</ele><time>2026-04-11T13:22:53.896Z</time></trkpt><trkpt lat="44.638336" lon="9.87526"><ele>884.0</ele><time>2026-04-11T13:22:54.895Z</time></trkpt><trkpt lat="44.6384064" lon="9.8752561"><ele>884.0</ele><time>2026-04-11T13:22:55.896Z</time></trkpt><trkpt lat="44.6384818" lon="9.875252"><ele>884.0</ele><time>2026-04-11T13:22:56.896Z</time></trkpt><trkpt lat="44.6385578" lon="9.8752296"><ele>884.0000000000001</ele><time>2026-04-11T13:22:57.896Z</time></trkpt><trkpt lat="44.6386336" lon="9.8752078"><ele>884.0</ele><time>2026-04-11T13:22:58.896Z</time></trkpt><trkpt lat="44.6387097" lon="9.8751778"><ele>886.6666666666667</ele><time>2026-04-11T13:22:59.897Z</time></trkpt><trkpt lat="44.6387812" lon="9.8751499"><ele>889.3333333333334</ele><time>2026-04-11T13:23:00.896Z</time></trkpt><trkpt lat="44.6388473" lon="9.8751201"><ele>892.0</ele><time>2026-04-11T13:23:01.896Z</time></trkpt><trkpt lat="44.63891" lon="9.8750927"><ele>894.6666666666667</ele><time>2026-04-11T13:23:02.896Z</time></trkpt><trkpt lat="44.6390221" lon="9.8750316"><ele>897.3333333333334</ele><time>2026-04-11T13:23:04.896Z</time></trkpt><trkpt lat="44.6391049" lon="9.8750544"><ele>900.0</ele><time>2026-04-11T13:23:06.896Z</time></trkpt><trkpt lat="44.6391477" lon="9.8751716"><ele>900.0</ele><time>2026-04-11T13:23:08.896Z</time></trkpt><trkpt lat="44.6391922" lon="9.8753109"><ele>900.0</ele><time>2026-04-11T13:23:10.896Z</time></trkpt><trkpt lat="44.6392566" lon="9.8754469"><ele>900.0</ele><time>2026-04-11T13:23:12.896Z</time></trkpt><trkpt lat="44.6393001" lon="9.875523"><ele>900.0</ele><time>2026-04-11T13:23:13.895Z</time></trkpt><trkpt lat="44.6393505" lon="9.8756069"><ele>900.0</ele><time>2026-04-11T13:23:14.896Z</time></trkpt><trkpt lat="44.6393968" lon="9.8756919"><ele>900.0</ele><time>2026-04-11T13:23:15.896Z</time></trkpt><trkpt lat="44.6394428" lon="9.875769"><ele>903.6</ele><time>2026-04-11T13:23:16.896Z</time></trkpt><trkpt lat="44.6394891" lon="9.8758503"><ele>907.2</ele><time>2026-04-11T13:23:17.896Z</time></trkpt><trkpt lat="44.6395515" lon="9.8759785"><ele>910.8</ele><time>2026-04-11T13:23:19.896Z</time></trkpt><trkpt lat="44.6396054" lon="9.876113"><ele>914.4</ele><time>2026-04-11T13:23:21.895Z</time></trkpt><trkpt lat="44.6396317" lon="9.8761952"><ele>918.0</ele><time>2026-04-11T13:23:22.895Z</time></trkpt><trkpt lat="44.6396791" lon="9.8763318"><ele>918.0</ele><time>2026-04-11T13:23:24.896Z</time></trkpt><trkpt lat="44.6397166" lon="9.8764644"><ele>918.0</ele><time>2026-04-11T13:23:26.896Z</time></trkpt><trkpt lat="44.6397301" lon="9.8765977"><ele>918.0</ele><time>2026-04-11T13:23:28.896Z</time></trkpt><trkpt lat="44.6397452" lon="9.8766852"><ele>918.0</ele><time>2026-04-11T13:23:30.896Z</time></trkpt><trkpt lat="44.6397301" lon="9.8768023"><ele>918.0</ele><time>2026-04-11T13:24:05.895Z</time></trkpt><trkpt lat="44.6396859" lon="9.8769033"><ele>918.0</ele><time>2026-04-11T13:24:07.895Z</time></trkpt><trkpt lat="44.639646" lon="9.8770155"><ele>916.4</ele><time>2026-04-11T13:24:09.896Z</time></trkpt><trkpt lat="44.6396666" lon="9.8771563"><ele>914.8</ele><time>2026-04-11T13:24:11.895Z</time></trkpt><trkpt lat="44.6397008" lon="9.8772766"><ele>913.2</ele><time>2026-04-11T13:24:13.896Z</time></trkpt><trkpt lat="44.6397616" lon="9.8773597"><ele>911.6</ele><time>2026-04-11T13:24:15.896Z</time></trkpt><trkpt lat="44.6398666" lon="9.877392"><ele>910.0</ele><time>2026-04-11T13:24:17.896Z</time></trkpt><trkpt lat="44.6399851" lon="9.8774207"><ele>910.0</ele><time>2026-04-11T13:24:19.894Z</time></trkpt><trkpt lat="44.6400589" lon="9.8773952"><ele>910.0</ele><time>2026-04-11T13:24:21.895Z</time></trkpt><trkpt lat="44.6401344" lon="9.8773536"><ele>910.0</ele><time>2026-04-11T13:24:23.895Z</time></trkpt><trkpt lat="44.6402019" lon="9.8773108"><ele>910.0</ele><time>2026-04-11T13:24:24.894Z</time></trkpt><trkpt lat="44.6402605" lon="9.8772768"><ele>910.0</ele><time>2026-04-11T13:24:25.895Z</time></trkpt><trkpt lat="44.6403248" lon="9.8772226"><ele>910.0</ele><time>2026-04-11T13:24:26.895Z</time></trkpt><trkpt lat="44.6403723" lon="9.877164"><ele>910.0</ele><time>2026-04-11T13:24:27.895Z</time></trkpt><trkpt lat="44.6405136" lon="9.877113"><ele>909.1428571428571</ele><time>2026-04-11T13:24:29.895Z</time></trkpt><trkpt lat="44.6405951" lon="9.8771194"><ele>908.2857142857142</ele><time>2026-04-11T13:24:30.895Z</time></trkpt><trkpt lat="44.6406657" lon="9.8771313"><ele>907.4285714285714</ele><time>2026-04-11T13:24:31.895Z</time></trkpt><trkpt lat="44.6407284" lon="9.87717"><ele>906.5714285714286</ele><time>2026-04-11T13:24:32.895Z</time></trkpt><trkpt lat="44.6407893" lon="9.8772191"><ele>905.7142857142857</ele><time>2026-04-11T13:24:33.895Z</time></trkpt><trkpt lat="44.6408497" lon="9.8772627"><ele>904.8571428571429</ele><time>2026-04-11T13:24:34.895Z</time></trkpt><trkpt lat="44.6409064" lon="9.8773114"><ele>904.0</ele><time>2026-04-11T13:24:35.895Z</time></trkpt><trkpt lat="44.6409556" lon="9.8773692"><ele>904.0</ele><time>2026-04-11T13:24:36.895Z</time></trkpt><trkpt lat="44.641016" lon="9.8774115"><ele>904.0000000000001</ele><time>2026-04-11T13:24:37.895Z</time></trkpt><trkpt lat="44.6411113" lon="9.8774822"><ele>904.0000000000001</ele><time>2026-04-11T13:24:39.895Z</time></trkpt><trkpt lat="44.6412142" lon="9.8775038"><ele>904.0</ele><time>2026-04-11T13:24:41.895Z</time></trkpt><trkpt lat="44.6413242" lon="9.8774755"><ele>904.0</ele><time>2026-04-11T13:24:43.894Z</time></trkpt><trkpt lat="44.6413927" lon="9.8774694"><ele>904.4000000000001</ele><time>2026-04-11T13:24:44.895Z</time></trkpt><trkpt lat="44.6414704" lon="9.8774848"><ele>904.8000000000001</ele><time>2026-04-11T13:24:45.895Z</time></trkpt><trkpt lat="44.6415497" lon="9.8775127"><ele>905.1999999999999</ele><time>2026-04-11T13:24:46.895Z</time></trkpt><trkpt lat="44.6416538" lon="9.8775268"><ele>905.5999999999999</ele><time>2026-04-11T13:24:48.895Z</time></trkpt><trkpt lat="44.6417165" lon="9.8775426"><ele>906.0</ele><time>2026-04-11T13:24:49.895Z</time></trkpt><trkpt lat="44.6418334" lon="9.8775926"><ele>904.0</ele><time>2026-04-11T13:24:51.894Z</time></trkpt><trkpt lat="44.641916" lon="9.8776745"><ele>901.9999999999999</ele><time>2026-04-11T13:24:53.894Z</time></trkpt><trkpt lat="44.641978" lon="9.877765"><ele>899.9999999999999</ele><time>2026-04-11T13:24:55.895Z</time></trkpt><trkpt lat="44.6420548" lon="9.8778729"><ele>898.0</ele><time>2026-04-11T13:24:57.895Z</time></trkpt><trkpt lat="44.6421174" lon="9.8779407"><ele>896.0</ele><time>2026-04-11T13:24:58.895Z</time></trkpt><trkpt lat="44.6421889" lon="9.8780133"><ele>896.0</ele><time>2026-04-11T13:24:59.894Z</time></trkpt><trkpt lat="44.6422356" lon="9.8781435"><ele>895.9999999999999</ele><time>2026-04-11T13:25:01.894Z</time></trkpt><trkpt lat="44.6422704" lon="9.8782302"><ele>895.9999999999999</ele><time>2026-04-11T13:25:02.894Z</time></trkpt><trkpt lat="44.6423609" lon="9.8783785"><ele>896.0</ele><time>2026-04-11T13:25:04.894Z</time></trkpt><trkpt lat="44.6424035" lon="9.8784552"><ele>896.0</ele><time>2026-04-11T13:25:05.895Z</time></trkpt><trkpt lat="44.6424441" lon="9.8785403"><ele>894.3333333333334</ele><time>2026-04-11T13:25:06.895Z</time></trkpt><trkpt lat="44.6425084" lon="9.8786814"><ele>892.6666666666667</ele><time>2026-04-11T13:25:08.895Z</time></trkpt><trkpt lat="44.6425508" lon="9.8787606"><ele>891.0</ele><time>2026-04-11T13:25:09.895Z</time></trkpt><trkpt lat="44.6425937" lon="9.878837"><ele>889.3333333333333</ele><time>2026-04-11T13:25:10.895Z</time></trkpt><trkpt lat="44.6426552" lon="9.8789825"><ele>887.6666666666666</ele><time>2026-04-11T13:25:12.895Z</time></trkpt><trkpt lat="44.6426893" lon="9.8790667"><ele>886.0</ele><time>2026-04-11T13:25:13.895Z</time></trkpt><trkpt lat="44.6427206" lon="9.8791571"><ele>887.0</ele><time>2026-04-11T13:25:14.896Z</time></trkpt><trkpt lat="44.6427743" lon="9.8793229"><ele>887.9999999999999</ele><time>2026-04-11T13:25:16.894Z</time></trkpt><trkpt lat="44.642805" lon="9.8794051"><ele>888.9999999999999</ele><time>2026-04-11T13:25:17.894Z</time></trkpt><trkpt lat="44.6428433" lon="9.8795585"><ele>890.0</ele><time>2026-04-11T13:25:19.894Z</time></trkpt><trkpt lat="44.6428814" lon="9.8796488"><ele>891.0</ele><time>2026-04-11T13:25:21.895Z</time></trkpt><trkpt lat="44.642941" lon="9.879687"><ele>891.0</ele><time>2026-04-11T13:25:23.896Z</time></trkpt><trkpt lat="44.6430226" lon="9.8797137"><ele>890.9999999999999</ele><time>2026-04-11T13:25:25.895Z</time></trkpt><trkpt lat="44.6431142" lon="9.8797131"><ele>890.9999999999999</ele><time>2026-04-11T13:25:27.895Z</time></trkpt><trkpt lat="44.6432232" lon="9.8796858"><ele>891.0</ele><time>2026-04-11T13:25:29.895Z</time></trkpt><trkpt lat="44.6433295" lon="9.8796674"><ele>891.0</ele><time>2026-04-11T13:25:31.895Z</time></trkpt><trkpt lat="44.6434137" lon="9.8797313"><ele>891.0</ele><time>2026-04-11T13:25:33.895Z</time></trkpt><trkpt lat="44.6434542" lon="9.8798157"><ele>890.9999999999999</ele><time>2026-04-11T13:25:34.894Z</time></trkpt><trkpt lat="44.6434945" lon="9.8799109"><ele>890.9999999999999</ele><time>2026-04-11T13:25:35.894Z</time></trkpt><trkpt lat="44.6435676" lon="9.8800318"><ele>891.0</ele><time>2026-04-11T13:25:36.894Z</time></trkpt><trkpt lat="44.6436312" lon="9.8801102"><ele>891.0</ele><time>2026-04-11T13:25:37.895Z</time></trkpt><trkpt lat="44.643702" lon="9.8802322"><ele>889.8</ele><time>2026-04-11T13:25:38.895Z</time></trkpt><trkpt lat="44.6437746" lon="9.8802951"><ele>888.5999999999999</ele><time>2026-04-11T13:25:39.895Z</time></trkpt><trkpt lat="44.6438371" lon="9.8803552"><ele>887.4</ele><time>2026-04-11T13:25:40.895Z</time></trkpt><trkpt lat="44.6439042" lon="9.8804141"><ele>886.2</ele><time>2026-04-11T13:25:41.895Z</time></trkpt><trkpt lat="44.6439834" lon="9.8804674"><ele>885.0</ele><time>2026-04-11T13:25:42.894Z</time></trkpt><trkpt lat="44.6441013" lon="9.8806214"><ele>885.0</ele><time>2026-04-11T13:25:43.894Z</time></trkpt><trkpt lat="44.6441959" lon="9.8807193"><ele>885.0</ele><time>2026-04-11T13:25:44.894Z</time></trkpt><trkpt lat="44.6442785" lon="9.8807885"><ele>885.0</ele><time>2026-04-11T13:25:45.894Z</time></trkpt><trkpt lat="44.644373" lon="9.8808857"><ele>885.0</ele><time>2026-04-11T13:25:46.894Z</time></trkpt><trkpt lat="44.6444757" lon="9.8809722"><ele>883.8</ele><time>2026-04-11T13:25:47.895Z</time></trkpt><trkpt lat="44.6445642" lon="9.8810589"><ele>882.6</ele><time>2026-04-11T13:25:48.894Z</time></trkpt><trkpt lat="44.6446499" lon="9.8811168"><ele>881.4000000000001</ele><time>2026-04-11T13:25:49.896Z</time></trkpt><trkpt lat="44.6447377" lon="9.8811727"><ele>880.2</ele><time>2026-04-11T13:25:50.895Z</time></trkpt><trkpt lat="44.6448476" lon="9.881184"><ele>879.0</ele><time>2026-04-11T13:25:51.895Z</time></trkpt><trkpt lat="44.6449555" lon="9.8811912"><ele>879.0</ele><time>2026-04-11T13:25:52.895Z</time></trkpt><trkpt lat="44.645049" lon="9.8812164"><ele>879.0</ele><time>2026-04-11T13:25:53.895Z</time></trkpt><trkpt lat="44.6451044" lon="9.8812755"><ele>879.0</ele><time>2026-04-11T13:25:54.894Z</time></trkpt><trkpt lat="44.6451733" lon="9.8813417"><ele>879.0</ele><time>2026-04-11T13:25:55.894Z</time></trkpt><trkpt lat="44.6452582" lon="9.8813938"><ele>879.0</ele><time>2026-04-11T13:25:56.894Z</time></trkpt><trkpt lat="44.6453538" lon="9.8814131"><ele>879.0</ele><time>2026-04-11T13:25:57.895Z</time></trkpt><trkpt lat="44.6454606" lon="9.8814242"><ele>880.8000000000001</ele><time>2026-04-11T13:25:58.895Z</time></trkpt><trkpt lat="44.6455741" lon="9.8814618"><ele>882.6000000000001</ele><time>2026-04-11T13:25:59.895Z</time></trkpt><trkpt lat="44.6456818" lon="9.8815061"><ele>884.4</ele><time>2026-04-11T13:26:00.895Z</time></trkpt><trkpt lat="44.6457888" lon="9.8815379"><ele>886.2</ele><time>2026-04-11T13:26:01.894Z</time></trkpt><trkpt lat="44.6458891" lon="9.8815595"><ele>888.0</ele><time>2026-04-11T13:26:02.894Z</time></trkpt><trkpt lat="44.6459842" lon="9.8815961"><ele>888.0</ele><time>2026-04-11T13:26:03.894Z</time></trkpt><trkpt lat="44.646068" lon="9.8816482"><ele>888.0</ele><time>2026-04-11T13:26:04.895Z</time></trkpt><trkpt lat="44.6461203" lon="9.8817281"><ele>888.0</ele><time>2026-04-11T13:26:05.895Z</time></trkpt><trkpt lat="44.6461644" lon="9.8818306"><ele>888.0</ele><time>2026-04-11T13:26:06.895Z</time></trkpt><trkpt lat="44.6462185" lon="9.8819343"><ele>888.0</ele><time>2026-04-11T13:26:07.895Z</time></trkpt><trkpt lat="44.6462646" lon="9.8820401"><ele>888.0</ele><time>2026-04-11T13:26:08.895Z</time></trkpt><trkpt lat="44.6463102" lon="9.8821403"><ele>890.4</ele><time>2026-04-11T13:26:09.894Z</time></trkpt><trkpt lat="44.6464201" lon="9.8822299"><ele>892.8</ele><time>2026-04-11T13:26:10.894Z</time></trkpt><trkpt lat="44.6464916" lon="9.882322"><ele>895.2</ele><time>2026-04-11T13:26:11.894Z</time></trkpt><trkpt lat="44.646553" lon="9.8824244"><ele>897.6</ele><time>2026-04-11T13:26:12.895Z</time></trkpt><trkpt lat="44.6466122" lon="9.88254"><ele>900.0</ele><time>2026-04-11T13:26:13.895Z</time></trkpt><trkpt lat="44.6466626" lon="9.8826708"><ele>901.0</ele><time>2026-04-11T13:26:14.895Z</time></trkpt><trkpt lat="44.6467166" lon="9.8827887"><ele>902.0</ele><time>2026-04-11T13:26:15.895Z</time></trkpt><trkpt lat="44.6467699" lon="9.8828904"><ele>903.0</ele><time>2026-04-11T13:26:16.896Z</time></trkpt><trkpt lat="44.6468164" lon="9.8829677"><ele>904.0</ele><time>2026-04-11T13:26:17.896Z</time></trkpt><trkpt lat="44.6468961" lon="9.8830478"><ele>905.0</ele><time>2026-04-11T13:26:18.895Z</time></trkpt><trkpt lat="44.6469511" lon="9.8831139"><ele>906.0</ele><time>2026-04-11T13:26:19.895Z</time></trkpt><trkpt lat="44.6470133" lon="9.8832042"><ele>907.3333333333334</ele><time>2026-04-11T13:26:20.894Z</time></trkpt><trkpt lat="44.6470451" lon="9.8833014"><ele>908.6666666666667</ele><time>2026-04-11T13:26:21.895Z</time></trkpt><trkpt lat="44.6470753" lon="9.8833821"><ele>910.0</ele><time>2026-04-11T13:26:22.895Z</time></trkpt><trkpt lat="44.6471288" lon="9.8834661"><ele>911.3333333333334</ele><time>2026-04-11T13:26:23.895Z</time></trkpt><trkpt lat="44.6472252" lon="9.883542"><ele>912.6666666666667</ele><time>2026-04-11T13:26:24.894Z</time></trkpt><trkpt lat="44.6472678" lon="9.8836074"><ele>914.0</ele><time>2026-04-11T13:26:25.895Z</time></trkpt><trkpt lat="44.6473233" lon="9.8836733"><ele>914.0</ele><time>2026-04-11T13:26:27.895Z</time></trkpt><trkpt lat="44.6473848" lon="9.8837511"><ele>914.0000000000001</ele><time>2026-04-11T13:26:29.895Z</time></trkpt><trkpt lat="44.6474926" lon="9.883833"><ele>914.0000000000001</ele><time>2026-04-11T13:26:31.895Z</time></trkpt><trkpt lat="44.6475463" lon="9.8839233"><ele>914.0</ele><time>2026-04-11T13:26:32.895Z</time></trkpt><trkpt lat="44.6476334" lon="9.8840025"><ele>914.0</ele><time>2026-04-11T13:26:33.895Z</time></trkpt><trkpt lat="44.6476938" lon="9.8840713"><ele>914.0000000000001</ele><time>2026-04-11T13:26:35.894Z</time></trkpt><trkpt lat="44.6477929" lon="9.8840883"><ele>914.0</ele><time>2026-04-11T13:26:37.895Z</time></trkpt><trkpt lat="44.6478609" lon="9.8840959"><ele>914.0</ele><time>2026-04-11T13:26:38.895Z</time></trkpt><trkpt lat="44.6479544" lon="9.8841294"><ele>914.0</ele><time>2026-04-11T13:26:39.895Z</time></trkpt><trkpt lat="44.6480275" lon="9.8841567"><ele>914.0000000000001</ele><time>2026-04-11T13:26:40.895Z</time></trkpt><trkpt lat="44.6481104" lon="9.8841828"><ele>914.0</ele><time>2026-04-11T13:26:41.894Z</time></trkpt><trkpt lat="44.648207" lon="9.8842521"><ele>915.4000000000001</ele><time>2026-04-11T13:26:42.894Z</time></trkpt><trkpt lat="44.648308" lon="9.8843396"><ele>916.8000000000001</ele><time>2026-04-11T13:26:43.894Z</time></trkpt><trkpt lat="44.6483997" lon="9.8844146"><ele>918.1999999999999</ele><time>2026-04-11T13:26:44.894Z</time></trkpt><trkpt lat="44.6484779" lon="9.8845033"><ele>919.5999999999999</ele><time>2026-04-11T13:26:45.895Z</time></trkpt><trkpt lat="44.6485355" lon="9.8845883"><ele>921.0</ele><time>2026-04-11T13:26:46.895Z</time></trkpt><trkpt lat="44.6486053" lon="9.8846578"><ele>923.1666666666666</ele><time>2026-04-11T13:26:47.896Z</time></trkpt><trkpt lat="44.648663" lon="9.884721"><ele>925.3333333333333</ele><time>2026-04-11T13:26:48.895Z</time></trkpt><trkpt lat="44.6487192" lon="9.8847849"><ele>927.5</ele><time>2026-04-11T13:26:49.895Z</time></trkpt><trkpt lat="44.6487776" lon="9.8848403"><ele>929.6666666666666</ele><time>2026-04-11T13:26:50.895Z</time></trkpt><trkpt lat="44.648829" lon="9.8849222"><ele>931.8333333333333</ele><time>2026-04-11T13:26:51.895Z</time></trkpt><trkpt lat="44.6489193" lon="9.8849357"><ele>934.0</ele><time>2026-04-11T13:26:53.894Z</time></trkpt><trkpt lat="44.6490238" lon="9.8849512"><ele>933.9999999999999</ele><time>2026-04-11T13:26:55.894Z</time></trkpt><trkpt lat="44.649153" lon="9.8849421"><ele>934.0</ele><time>2026-04-11T13:26:57.895Z</time></trkpt><trkpt lat="44.649217" lon="9.8849646"><ele>934.0</ele><time>2026-04-11T13:26:58.895Z</time></trkpt><trkpt lat="44.6492852" lon="9.8850023"><ele>934.0</ele><time>2026-04-11T13:26:59.895Z</time></trkpt><trkpt lat="44.6493151" lon="9.8851313"><ele>933.9999999999999</ele><time>2026-04-11T13:27:03.902Z</time></trkpt><trkpt lat="44.649351" lon="9.885214"><ele>934.0</ele><time>2026-04-11T13:27:06.895Z</time></trkpt><trkpt lat="44.6493916" lon="9.8852981"><ele>934.2</ele><time>2026-04-11T13:27:34.895Z</time></trkpt><trkpt lat="44.6494322" lon="9.8854794"><ele>934.4000000000001</ele><time>2026-04-11T13:27:36.895Z</time></trkpt><trkpt lat="44.6494588" lon="9.8855926"><ele>934.6</ele><time>2026-04-11T13:27:37.895Z</time></trkpt><trkpt lat="44.6494899" lon="9.8857156"><ele>934.8</ele><time>2026-04-11T13:27:38.894Z</time></trkpt><trkpt lat="44.6495274" lon="9.8858192"><ele>935.0</ele><time>2026-04-11T13:27:39.895Z</time></trkpt><trkpt lat="44.6495577" lon="9.8859314"><ele>935.5000000000001</ele><time>2026-04-11T13:27:40.895Z</time></trkpt><trkpt lat="44.6495997" lon="9.8860336"><ele>936.0</ele><time>2026-04-11T13:27:41.894Z</time></trkpt><trkpt lat="44.6496396" lon="9.8861426"><ele>936.5</ele><time>2026-04-11T13:27:42.895Z</time></trkpt><trkpt lat="44.6496841" lon="9.8862521"><ele>937.0</ele><time>2026-04-11T13:27:43.895Z</time></trkpt><trkpt lat="44.6497171" lon="9.8863567"><ele>937.5000000000001</ele><time>2026-04-11T13:27:44.895Z</time></trkpt><trkpt lat="44.6497364" lon="9.8864821"><ele>938.0</ele><time>2026-04-11T13:27:45.895Z</time></trkpt><trkpt lat="44.6497274" lon="9.8865961"><ele>938.0000000000001</ele><time>2026-04-11T13:27:46.896Z</time></trkpt><trkpt lat="44.6496868" lon="9.8866736"><ele>938.0</ele><time>2026-04-11T13:27:47.895Z</time></trkpt><trkpt lat="44.6497013" lon="9.8867745"><ele>938.0</ele><time>2026-04-11T13:27:48.895Z</time></trkpt><trkpt lat="44.6497184" lon="9.886907"><ele>938.0</ele><time>2026-04-11T13:27:50.896Z</time></trkpt><trkpt lat="44.649749" lon="9.8870172"><ele>938.0000000000001</ele><time>2026-04-11T13:27:55.894Z</time></trkpt><trkpt lat="44.6497891" lon="9.8871237"><ele>938.0</ele><time>2026-04-11T13:27:57.895Z</time></trkpt><trkpt lat="44.6498259" lon="9.8872286"><ele>938.8</ele><time>2026-04-11T13:27:59.895Z</time></trkpt><trkpt lat="44.6498727" lon="9.8873192"><ele>939.5999999999999</ele><time>2026-04-11T13:28:01.895Z</time></trkpt><trkpt lat="44.6498936" lon="9.8874272"><ele>940.4000000000001</ele><time>2026-04-11T13:28:03.895Z</time></trkpt><trkpt lat="44.6498997" lon="9.8875153"><ele>941.2</ele><time>2026-04-11T13:28:05.895Z</time></trkpt><trkpt lat="44.6498647" lon="9.8876219"><ele>942.0</ele><time>2026-04-11T13:28:08.895Z</time></trkpt><trkpt lat="44.6499543" lon="9.8878072"><ele>942.0</ele><time>2026-04-11T13:28:10.894Z</time></trkpt><trkpt lat="44.649997" lon="9.8878998"><ele>942.0</ele><time>2026-04-11T13:28:11.895Z</time></trkpt><trkpt lat="44.6500672" lon="9.888041"><ele>942.0</ele><time>2026-04-11T13:28:13.895Z</time></trkpt><trkpt lat="44.6500977" lon="9.8881225"><ele>942.0</ele><time>2026-04-11T13:28:14.895Z</time></trkpt><trkpt lat="44.6501631" lon="9.8882593"><ele>942.0</ele><time>2026-04-11T13:28:16.895Z</time></trkpt><trkpt lat="44.6501922" lon="9.888355"><ele>940.5</ele><time>2026-04-11T13:28:17.894Z</time></trkpt><trkpt lat="44.6502194" lon="9.8884663"><ele>939.0</ele><time>2026-04-11T13:28:18.895Z</time></trkpt><trkpt lat="44.6502632" lon="9.8885765"><ele>937.5</ele><time>2026-04-11T13:28:19.895Z</time></trkpt><trkpt lat="44.6502707" lon="9.8886816"><ele>936.0</ele><time>2026-04-11T13:28:20.895Z</time></trkpt><trkpt lat="44.6502801" lon="9.8887722"><ele>934.5</ele><time>2026-04-11T13:28:21.895Z</time></trkpt><trkpt lat="44.6502916" lon="9.8889286"><ele>933.0</ele><time>2026-04-11T13:28:23.896Z</time></trkpt><trkpt lat="44.6502258" lon="9.8888478"><ele>933.0</ele><time>2026-04-11T13:28:26.895Z</time></trkpt><trkpt lat="44.6501739" lon="9.8887698"><ele>933.0</ele><time>2026-04-11T13:28:28.895Z</time></trkpt><trkpt lat="44.6501144" lon="9.8887374"><ele>933.0</ele><time>2026-04-11T13:28:31.894Z</time></trkpt><trkpt lat="44.6500289" lon="9.88872"><ele>933.0</ele><time>2026-04-11T13:28:34.896Z</time></trkpt><trkpt lat="44.6499811" lon="9.8888086"><ele>933.0</ele><time>2026-04-11T13:28:36.895Z</time></trkpt><trkpt lat="44.6499855" lon="9.8889313"><ele>933.0</ele><time>2026-04-11T13:28:37.895Z</time></trkpt><trkpt lat="44.6500127" lon="9.8890342"><ele>933.0</ele><time>2026-04-11T13:28:38.895Z</time></trkpt><trkpt lat="44.6500189" lon="9.8891329"><ele>933.0</ele><time>2026-04-11T13:28:39.895Z</time></trkpt><trkpt lat="44.6500371" lon="9.8892177"><ele>933.0</ele><time>2026-04-11T13:28:40.895Z</time></trkpt><trkpt lat="44.6500528" lon="9.8893113"><ele>933.0</ele><time>2026-04-11T13:28:41.895Z</time></trkpt><trkpt lat="44.6500668" lon="9.8894062"><ele>933.0</ele><time>2026-04-11T13:28:42.894Z</time></trkpt><trkpt lat="44.650139" lon="9.8893921"><ele>933.0</ele><time>2026-04-11T13:28:43.895Z</time></trkpt><trkpt lat="44.6502965" lon="9.8894982"><ele>930.5</ele><time>2026-04-11T13:28:45.895Z</time></trkpt><trkpt lat="44.6503677" lon="9.8895606"><ele>928.0</ele><time>2026-04-11T13:28:46.894Z</time></trkpt><trkpt lat="44.6504088" lon="9.8896552"><ele>925.5</ele><time>2026-04-11T13:28:47.894Z</time></trkpt><trkpt lat="44.6504619" lon="9.8897639"><ele>923.0</ele><time>2026-04-11T13:28:48.895Z</time></trkpt><trkpt lat="44.6505128" lon="9.8898664"><ele>920.5</ele><time>2026-04-11T13:28:49.895Z</time></trkpt><trkpt lat="44.6505366" lon="9.8899604"><ele>918.0</ele><time>2026-04-11T13:28:50.895Z</time></trkpt><trkpt lat="44.6505716" lon="9.8900601"><ele>915.4</ele><time>2026-04-11T13:28:51.895Z</time></trkpt><trkpt lat="44.6505673" lon="9.8901485"><ele>912.8</ele><time>2026-04-11T13:28:52.895Z</time></trkpt><trkpt lat="44.6505291" lon="9.8903069"><ele>910.2</ele><time>2026-04-11T13:28:54.895Z</time></trkpt><trkpt lat="44.6505063" lon="9.8903926"><ele>907.6</ele><time>2026-04-11T13:28:55.895Z</time></trkpt><trkpt lat="44.6504643" lon="9.8905672"><ele>905.0</ele><time>2026-04-11T13:28:57.894Z</time></trkpt><trkpt lat="44.650402" lon="9.8906418"><ele>905.0000000000001</ele><time>2026-04-11T13:28:58.894Z</time></trkpt><trkpt lat="44.6503739" lon="9.8907221"><ele>905.0</ele><time>2026-04-11T13:28:59.896Z</time></trkpt><trkpt lat="44.6503138" lon="9.8907733"><ele>905.0</ele><time>2026-04-11T13:29:04.895Z</time></trkpt><trkpt lat="44.6502502" lon="9.8907293"><ele>905.0</ele><time>2026-04-11T13:29:08.894Z</time></trkpt><trkpt lat="44.6501967" lon="9.8906281"><ele>905.0000000000001</ele><time>2026-04-11T13:29:31.895Z</time></trkpt><trkpt lat="44.6501335" lon="9.8904635"><ele>905.0</ele><time>2026-04-11T13:29:33.895Z</time></trkpt><trkpt lat="44.6500974" lon="9.8903575"><ele>906.6666666666667</ele><time>2026-04-11T13:29:34.895Z</time></trkpt><trkpt lat="44.6500603" lon="9.8902779"><ele>908.3333333333334</ele><time>2026-04-11T13:29:35.895Z</time></trkpt><trkpt lat="44.649975" lon="9.8902368"><ele>910.0</ele><time>2026-04-11T13:29:37.894Z</time></trkpt><trkpt lat="44.6498784" lon="9.8902376"><ele>911.6666666666667</ele><time>2026-04-11T13:29:39.893Z</time></trkpt><trkpt lat="44.6498113" lon="9.8902838"><ele>913.3333333333334</ele><time>2026-04-11T13:29:40.893Z</time></trkpt><trkpt lat="44.6497312" lon="9.890301"><ele>915.0</ele><time>2026-04-11T13:29:41.894Z</time></trkpt><trkpt lat="44.6496291" lon="9.8903168"><ele>915.0</ele><time>2026-04-11T13:29:42.894Z</time></trkpt><trkpt lat="44.6495548" lon="9.8903499"><ele>915.0</ele><time>2026-04-11T13:29:43.894Z</time></trkpt><trkpt lat="44.6494847" lon="9.890349"><ele>915.0</ele><time>2026-04-11T13:29:44.894Z</time></trkpt><trkpt lat="44.6494103" lon="9.890348"><ele>915.0</ele><time>2026-04-11T13:29:45.894Z</time></trkpt><trkpt lat="44.6492822" lon="9.8903174"><ele>915.0</ele><time>2026-04-11T13:29:47.894Z</time></trkpt><trkpt lat="44.6491824" lon="9.8903372"><ele>912.2</ele><time>2026-04-11T13:29:48.894Z</time></trkpt><trkpt lat="44.6490879" lon="9.8903367"><ele>909.4</ele><time>2026-04-11T13:29:49.894Z</time></trkpt><trkpt lat="44.6490076" lon="9.8903508"><ele>906.5999999999999</ele><time>2026-04-11T13:29:50.893Z</time></trkpt><trkpt lat="44.6489248" lon="9.8903478"><ele>903.8</ele><time>2026-04-11T13:29:51.893Z</time></trkpt><trkpt lat="44.6488313" lon="9.890385"><ele>901.0</ele><time>2026-04-11T13:29:52.894Z</time></trkpt><trkpt lat="44.6487248" lon="9.8904334"><ele>900.9999999999999</ele><time>2026-04-11T13:29:53.893Z</time></trkpt><trkpt lat="44.6486341" lon="9.8905058"><ele>901.0</ele><time>2026-04-11T13:29:54.894Z</time></trkpt><trkpt lat="44.6485608" lon="9.8905135"><ele>901.0</ele><time>2026-04-11T13:29:55.893Z</time></trkpt><trkpt lat="44.6484733" lon="9.8905374"><ele>901.0</ele><time>2026-04-11T13:29:56.894Z</time></trkpt><trkpt lat="44.6483803" lon="9.8905985"><ele>900.9999999999999</ele><time>2026-04-11T13:29:58.894Z</time></trkpt><trkpt lat="44.6483226" lon="9.890646"><ele>901.0</ele><time>2026-04-11T13:30:00.893Z</time></trkpt><trkpt lat="44.6483651" lon="9.8905529"><ele>901.4</ele><time>2026-04-11T13:30:38.893Z</time></trkpt><trkpt lat="44.6483998" lon="9.8904414"><ele>901.8</ele><time>2026-04-11T13:30:40.894Z</time></trkpt><trkpt lat="44.6484493" lon="9.8902618"><ele>902.1999999999999</ele><time>2026-04-11T13:30:42.894Z</time></trkpt><trkpt lat="44.6484614" lon="9.8901421"><ele>902.5999999999999</ele><time>2026-04-11T13:30:43.894Z</time></trkpt><trkpt lat="44.6484654" lon="9.8900246"><ele>903.0</ele><time>2026-04-11T13:30:44.894Z</time></trkpt><trkpt lat="44.6484288" lon="9.8899234"><ele>903.0</ele><time>2026-04-11T13:30:45.893Z</time></trkpt><trkpt lat="44.648415" lon="9.8898193"><ele>903.0</ele><time>2026-04-11T13:30:46.893Z</time></trkpt><trkpt lat="44.6483834" lon="9.8897185"><ele>903.0</ele><time>2026-04-11T13:30:47.894Z</time></trkpt><trkpt lat="44.6483528" lon="9.8896341"><ele>903.0</ele><time>2026-04-11T13:30:48.894Z</time></trkpt><trkpt lat="44.64827" lon="9.8896315"><ele>903.0</ele><time>2026-04-11T13:30:49.894Z</time></trkpt><trkpt lat="44.6481662" lon="9.889613"><ele>903.0</ele><time>2026-04-11T13:30:51.894Z</time></trkpt><trkpt lat="44.648104" lon="9.8895824"><ele>903.0</ele><time>2026-04-11T13:30:53.894Z</time></trkpt><trkpt lat="44.6480309" lon="9.8895711"><ele>903.0</ele><time>2026-04-11T13:30:55.894Z</time></trkpt><trkpt lat="44.6479726" lon="9.8895346"><ele>903.0</ele><time>2026-04-11T13:30:57.894Z</time></trkpt><trkpt lat="44.6478897" lon="9.8896065"><ele>903.0</ele><time>2026-04-11T13:31:10.893Z</time></trkpt><trkpt lat="44.6478232" lon="9.8896209"><ele>903.0</ele><time>2026-04-11T13:31:12.894Z</time></trkpt><trkpt lat="44.6477548" lon="9.889508"><ele>903.0</ele><time>2026-04-11T13:31:14.894Z</time></trkpt><trkpt lat="44.6477475" lon="9.8894028"><ele>899.5999999999999</ele><time>2026-04-11T13:31:15.894Z</time></trkpt><trkpt lat="44.6477245" lon="9.8892381"><ele>896.1999999999999</ele><time>2026-04-11T13:31:17.894Z</time></trkpt><trkpt lat="44.6476988" lon="9.8891116"><ele>892.8</ele><time>2026-04-11T13:31:19.894Z</time></trkpt><trkpt lat="44.6476389" lon="9.8889927"><ele>889.4</ele><time>2026-04-11T13:31:21.894Z</time></trkpt><trkpt lat="44.6475634" lon="9.8890258"><ele>886.0</ele><time>2026-04-11T13:31:22.893Z</time></trkpt><trkpt lat="44.647449" lon="9.8890173"><ele>885.9999999999999</ele><time>2026-04-11T13:31:24.894Z</time></trkpt><trkpt lat="44.6473426" lon="9.8889807"><ele>886.0</ele><time>2026-04-11T13:31:26.894Z</time></trkpt><trkpt lat="44.6472764" lon="9.8889546"><ele>886.0</ele><time>2026-04-11T13:31:27.894Z</time></trkpt><trkpt lat="44.6472264" lon="9.8890233"><ele>886.0</ele><time>2026-04-11T13:31:28.894Z</time></trkpt><trkpt lat="44.6471102" lon="9.8890637"><ele>885.9999999999999</ele><time>2026-04-11T13:31:30.894Z</time></trkpt><trkpt lat="44.6470423" lon="9.8890976"><ele>886.0</ele><time>2026-04-11T13:31:31.893Z</time></trkpt><trkpt lat="44.6469835" lon="9.8891493"><ele>883.25</ele><time>2026-04-11T13:31:32.893Z</time></trkpt><trkpt lat="44.6468608" lon="9.8892225"><ele>880.5</ele><time>2026-04-11T13:31:34.894Z</time></trkpt><trkpt lat="44.6467643" lon="9.8892671"><ele>877.75</ele><time>2026-04-11T13:31:36.894Z</time></trkpt><trkpt lat="44.6466492" lon="9.8893483"><ele>875.0</ele><time>2026-04-11T13:31:38.894Z</time></trkpt><trkpt lat="44.6465587" lon="9.8894588"><ele>872.2</ele><time>2026-04-11T13:31:40.894Z</time></trkpt><trkpt lat="44.6464803" lon="9.8895543"><ele>869.4</ele><time>2026-04-11T13:31:42.893Z</time></trkpt><trkpt lat="44.6463981" lon="9.88966"><ele>866.5999999999999</ele><time>2026-04-11T13:31:44.894Z</time></trkpt><trkpt lat="44.646325" lon="9.8897634"><ele>863.8</ele><time>2026-04-11T13:31:46.894Z</time></trkpt><trkpt lat="44.6462441" lon="9.889848"><ele>861.0</ele><time>2026-04-11T13:31:48.893Z</time></trkpt><trkpt lat="44.6461587" lon="9.8898959"><ele>856.5999999999999</ele><time>2026-04-11T13:31:50.894Z</time></trkpt><trkpt lat="44.6460795" lon="9.8898531"><ele>852.1999999999999</ele><time>2026-04-11T13:31:52.894Z</time></trkpt><trkpt lat="44.6460179" lon="9.8897141"><ele>847.8</ele><time>2026-04-11T13:31:54.894Z</time></trkpt><trkpt lat="44.645944" lon="9.8895762"><ele>843.4000000000001</ele><time>2026-04-11T13:31:56.894Z</time></trkpt><trkpt lat="44.6458757" lon="9.8895541"><ele>839.0</ele><time>2026-04-11T13:31:57.893Z</time></trkpt><trkpt lat="44.6457989" lon="9.8895537"><ele>839.0</ele><time>2026-04-11T13:31:58.894Z</time></trkpt><trkpt lat="44.6457283" lon="9.8895678"><ele>839.0</ele><time>2026-04-11T13:31:59.894Z</time></trkpt><trkpt lat="44.6456517" lon="9.8895963"><ele>839.0</ele><time>2026-04-11T13:32:01.894Z</time></trkpt><trkpt lat="44.6455551" lon="9.8895941"><ele>839.0</ele><time>2026-04-11T13:32:04.895Z</time></trkpt><trkpt lat="44.6454473" lon="9.8895898"><ele>839.0</ele><time>2026-04-11T13:32:06.894Z</time></trkpt><trkpt lat="44.6453423" lon="9.8895583"><ele>835.0</ele><time>2026-04-11T13:32:08.893Z</time></trkpt><trkpt lat="44.6452531" lon="9.8895008"><ele>831.0</ele><time>2026-04-11T13:32:10.895Z</time></trkpt><trkpt lat="44.6451409" lon="9.8894468"><ele>827.0</ele><time>2026-04-11T13:32:12.894Z</time></trkpt><trkpt lat="44.6450647" lon="9.8893973"><ele>823.0</ele><time>2026-04-11T13:32:14.894Z</time></trkpt><trkpt lat="44.6450091" lon="9.8894443"><ele>819.0</ele><time>2026-04-11T13:32:17.893Z</time></trkpt><trkpt lat="44.6450389" lon="9.8895817"><ele>819.0</ele><time>2026-04-11T13:32:19.893Z</time></trkpt><trkpt lat="44.6450845" lon="9.8896627"><ele>819.0</ele><time>2026-04-11T13:32:20.893Z</time></trkpt><trkpt lat="44.6451451" lon="9.8897545"><ele>819.0</ele><time>2026-04-11T13:32:21.893Z</time></trkpt><trkpt lat="44.6452075" lon="9.88986"><ele>819.0</ele><time>2026-04-11T13:32:22.894Z</time></trkpt><trkpt lat="44.6452787" lon="9.889976"><ele>819.0</ele><time>2026-04-11T13:32:23.894Z</time></trkpt><trkpt lat="44.6453423" lon="9.8901048"><ele>822.25</ele><time>2026-04-11T13:32:24.894Z</time></trkpt><trkpt lat="44.6453857" lon="9.8902518"><ele>825.5</ele><time>2026-04-11T13:32:25.894Z</time></trkpt><trkpt lat="44.6454191" lon="9.8904158"><ele>828.75</ele><time>2026-04-11T13:32:26.894Z</time></trkpt><trkpt lat="44.6454399" lon="9.8905924"><ele>832.0</ele><time>2026-04-11T13:32:27.894Z</time></trkpt><trkpt lat="44.6454592" lon="9.8907745"><ele>831.25</ele><time>2026-04-11T13:32:28.894Z</time></trkpt><trkpt lat="44.6454781" lon="9.8909597"><ele>830.5</ele><time>2026-04-11T13:32:29.894Z</time></trkpt><trkpt lat="44.6455058" lon="9.8911536"><ele>829.75</ele><time>2026-04-11T13:32:30.894Z</time></trkpt><trkpt lat="44.6455376" lon="9.8913528"><ele>829.0</ele><time>2026-04-11T13:32:31.894Z</time></trkpt><trkpt lat="44.6455652" lon="9.8915523"><ele>829.0</ele><time>2026-04-11T13:32:32.894Z</time></trkpt><trkpt lat="44.6455888" lon="9.8917484"><ele>829.0</ele><time>2026-04-11T13:32:33.894Z</time></trkpt><trkpt lat="44.6456069" lon="9.8919424"><ele>829.0</ele><time>2026-04-11T13:32:34.894Z</time></trkpt><trkpt lat="44.6456386" lon="9.8921319"><ele>829.0</ele><time>2026-04-11T13:32:35.894Z</time></trkpt><trkpt lat="44.6456927" lon="9.8923032"><ele>827.0</ele><time>2026-04-11T13:32:36.893Z</time></trkpt><trkpt lat="44.6457668" lon="9.8924523"><ele>825.0</ele><time>2026-04-11T13:32:37.893Z</time></trkpt><trkpt lat="44.6458688" lon="9.8925758"><ele>823.0</ele><time>2026-04-11T13:32:38.893Z</time></trkpt><trkpt lat="44.6459743" lon="9.8926926"><ele>821.0</ele><time>2026-04-11T13:32:39.894Z</time></trkpt><trkpt lat="44.6460633" lon="9.8928342"><ele>823.0</ele><time>2026-04-11T13:32:40.894Z</time></trkpt><trkpt lat="44.6461334" lon="9.8929966"><ele>825.0</ele><time>2026-04-11T13:32:41.895Z</time></trkpt><trkpt lat="44.6461792" lon="9.8931723"><ele>827.0</ele><time>2026-04-11T13:32:42.894Z</time></trkpt><trkpt lat="44.6462002" lon="9.893358"><ele>829.0</ele><time>2026-04-11T13:32:43.894Z</time></trkpt><trkpt lat="44.6461823" lon="9.8935303"><ele>829.0</ele><time>2026-04-11T13:32:44.894Z</time></trkpt><trkpt lat="44.6461385" lon="9.8936851"><ele>829.0</ele><time>2026-04-11T13:32:45.894Z</time></trkpt><trkpt lat="44.6460921" lon="9.8938352"><ele>829.0</ele><time>2026-04-11T13:32:46.894Z</time></trkpt><trkpt lat="44.6460533" lon="9.8939805"><ele>829.0</ele><time>2026-04-11T13:32:47.894Z</time></trkpt><trkpt lat="44.6460343" lon="9.8941209"><ele>829.0</ele><time>2026-04-11T13:32:48.894Z</time></trkpt><trkpt lat="44.6460417" lon="9.8942385"><ele>826.4000000000001</ele><time>2026-04-11T13:32:49.894Z</time></trkpt><trkpt lat="44.6460863" lon="9.8943478"><ele>823.8</ele><time>2026-04-11T13:32:50.894Z</time></trkpt><trkpt lat="44.6461548" lon="9.894467"><ele>821.2</ele><time>2026-04-11T13:32:51.893Z</time></trkpt><trkpt lat="44.6462321" lon="9.8945774"><ele>818.5999999999999</ele><time>2026-04-11T13:32:52.894Z</time></trkpt><trkpt lat="44.6463168" lon="9.894697"><ele>816.0</ele><time>2026-04-11T13:32:53.894Z</time></trkpt><trkpt lat="44.6464045" lon="9.8948242"><ele>816.0</ele><time>2026-04-11T13:32:54.894Z</time></trkpt><trkpt lat="44.6464898" lon="9.8949606"><ele>816.0</ele><time>2026-04-11T13:32:55.894Z</time></trkpt><trkpt lat="44.6465651" lon="9.8950986"><ele>816.0</ele><time>2026-04-11T13:32:56.894Z</time></trkpt><trkpt lat="44.6466212" lon="9.8952375"><ele>816.0</ele><time>2026-04-11T13:32:57.894Z</time></trkpt><trkpt lat="44.6466655" lon="9.8953881"><ele>815.8</ele><time>2026-04-11T13:32:58.894Z</time></trkpt><trkpt lat="44.6466829" lon="9.895541"><ele>815.5999999999999</ele><time>2026-04-11T13:32:59.893Z</time></trkpt><trkpt lat="44.6466727" lon="9.8956927"><ele>815.4</ele><time>2026-04-11T13:33:00.893Z</time></trkpt><trkpt lat="44.6466372" lon="9.8958392"><ele>815.2</ele><time>2026-04-11T13:33:01.894Z</time></trkpt><trkpt lat="44.6465824" lon="9.8959789"><ele>815.0</ele><time>2026-04-11T13:33:02.894Z</time></trkpt><trkpt lat="44.6465342" lon="9.8961146"><ele>816.25</ele><time>2026-04-11T13:33:03.894Z</time></trkpt><trkpt lat="44.6464942" lon="9.8962486"><ele>817.5</ele><time>2026-04-11T13:33:04.894Z</time></trkpt><trkpt lat="44.646454" lon="9.8964244"><ele>818.75</ele><time>2026-04-11T13:33:05.894Z</time></trkpt><trkpt lat="44.6464202" lon="9.8965897"><ele>820.0</ele><time>2026-04-11T13:33:06.894Z</time></trkpt><trkpt lat="44.6464093" lon="9.8967402"><ele>819.25</ele><time>2026-04-11T13:33:07.894Z</time></trkpt><trkpt lat="44.6464506" lon="9.8969289"><ele>818.5</ele><time>2026-04-11T13:33:08.894Z</time></trkpt><trkpt lat="44.64648" lon="9.8971033"><ele>817.75</ele><time>2026-04-11T13:33:09.894Z</time></trkpt><trkpt lat="44.6465243" lon="9.897276"><ele>817.0</ele><time>2026-04-11T13:33:10.894Z</time></trkpt><trkpt lat="44.6465674" lon="9.8974419"><ele>814.75</ele><time>2026-04-11T13:33:11.894Z</time></trkpt><trkpt lat="44.646594" lon="9.8976088"><ele>812.5</ele><time>2026-04-11T13:33:12.893Z</time></trkpt><trkpt lat="44.6466169" lon="9.897773"><ele>810.25</ele><time>2026-04-11T13:33:13.893Z</time></trkpt><trkpt lat="44.6466278" lon="9.8979292"><ele>808.0</ele><time>2026-04-11T13:33:14.893Z</time></trkpt><trkpt lat="44.6466408" lon="9.8980867"><ele>808.0</ele><time>2026-04-11T13:33:15.893Z</time></trkpt><trkpt lat="44.6466514" lon="9.8982362"><ele>808.0</ele><time>2026-04-11T13:33:16.893Z</time></trkpt><trkpt lat="44.6466684" lon="9.8983882"><ele>808.0</ele><time>2026-04-11T13:33:17.894Z</time></trkpt><trkpt lat="44.6466755" lon="9.8985322"><ele>808.0</ele><time>2026-04-11T13:33:18.893Z</time></trkpt><trkpt lat="44.646686" lon="9.8986752"><ele>808.0</ele><time>2026-04-11T13:33:19.894Z</time></trkpt><trkpt lat="44.6466994" lon="9.8988026"><ele>807.9999999999999</ele><time>2026-04-11T13:33:20.894Z</time></trkpt><trkpt lat="44.6467085" lon="9.8989172"><ele>808.0</ele><time>2026-04-11T13:33:21.894Z</time></trkpt><trkpt lat="44.6467157" lon="9.8990185"><ele>808.0</ele><time>2026-04-11T13:33:22.894Z</time></trkpt><trkpt lat="44.6467213" lon="9.8991604"><ele>808.0</ele><time>2026-04-11T13:33:24.893Z</time></trkpt><trkpt lat="44.6466897" lon="9.8992447"><ele>807.9999999999999</ele><time>2026-04-11T13:33:26.894Z</time></trkpt><trkpt lat="44.6466249" lon="9.8992753"><ele>808.0</ele><time>2026-04-11T13:33:29.893Z</time></trkpt><trkpt lat="44.6465894" lon="9.8993968"><ele>807.8</ele><time>2026-04-11T13:33:34.894Z</time></trkpt><trkpt lat="44.6465897" lon="9.8995434"><ele>807.5999999999999</ele><time>2026-04-11T13:33:36.894Z</time></trkpt><trkpt lat="44.646567" lon="9.8997027"><ele>807.4000000000001</ele><time>2026-04-11T13:33:38.893Z</time></trkpt><trkpt lat="44.6465542" lon="9.8998545"><ele>807.2</ele><time>2026-04-11T13:33:40.893Z</time></trkpt><trkpt lat="44.6465299" lon="9.9000038"><ele>807.0</ele><time>2026-04-11T13:33:42.894Z</time></trkpt><trkpt lat="44.6465158" lon="9.9000932"><ele>805.7142857142858</ele><time>2026-04-11T13:33:43.894Z</time></trkpt><trkpt lat="44.6464895" lon="9.9001826"><ele>804.4285714285714</ele><time>2026-04-11T13:33:44.893Z</time></trkpt><trkpt lat="44.6464579" lon="9.9002699"><ele>803.1428571428571</ele><time>2026-04-11T13:33:45.894Z</time></trkpt><trkpt lat="44.646428" lon="9.9003672"><ele>801.8571428571429</ele><time>2026-04-11T13:33:46.894Z</time></trkpt><trkpt lat="44.6464031" lon="9.9004703"><ele>800.5714285714286</ele><time>2026-04-11T13:33:47.894Z</time></trkpt><trkpt lat="44.6463871" lon="9.9005775"><ele>799.2857142857143</ele><time>2026-04-11T13:33:48.894Z</time></trkpt><trkpt lat="44.6463714" lon="9.9006758"><ele>798.0</ele><time>2026-04-11T13:33:49.894Z</time></trkpt><trkpt lat="44.6463598" lon="9.9007725"><ele>798.0</ele><time>2026-04-11T13:33:50.894Z</time></trkpt><trkpt lat="44.6463497" lon="9.9008744"><ele>798.0</ele><time>2026-04-11T13:33:51.895Z</time></trkpt><trkpt lat="44.6463478" lon="9.9009642"><ele>798.0</ele><time>2026-04-11T13:33:52.894Z</time></trkpt><trkpt lat="44.6463552" lon="9.9011307"><ele>798.0</ele><time>2026-04-11T13:33:54.894Z</time></trkpt><trkpt lat="44.646344" lon="9.9012266"><ele>798.0</ele><time>2026-04-11T13:33:55.894Z</time></trkpt><trkpt lat="44.6463239" lon="9.9013244"><ele>798.0</ele><time>2026-04-11T13:33:56.894Z</time></trkpt><trkpt lat="44.6463062" lon="9.9014226"><ele>800.2</ele><time>2026-04-11T13:33:57.894Z</time></trkpt><trkpt lat="44.6462913" lon="9.9015171"><ele>802.4</ele><time>2026-04-11T13:33:58.894Z</time></trkpt><trkpt lat="44.6462696" lon="9.9016014"><ele>804.6</ele><time>2026-04-11T13:33:59.894Z</time></trkpt><trkpt lat="44.6462048" lon="9.9017312"><ele>806.8000000000001</ele><time>2026-04-11T13:34:01.894Z</time></trkpt><trkpt lat="44.646103" lon="9.9018249"><ele>809.0</ele><time>2026-04-11T13:34:03.894Z</time></trkpt><trkpt lat="44.6460251" lon="9.9019578"><ele>809.0000000000001</ele><time>2026-04-11T13:34:05.894Z</time></trkpt><trkpt lat="44.645968" lon="9.9021122"><ele>809.0</ele><time>2026-04-11T13:34:07.894Z</time></trkpt><trkpt lat="44.6459188" lon="9.90218"><ele>809.0</ele><time>2026-04-11T13:34:08.893Z</time></trkpt><trkpt lat="44.6458672" lon="9.9022461"><ele>809.0</ele><time>2026-04-11T13:34:09.893Z</time></trkpt><trkpt lat="44.6458232" lon="9.9023182"><ele>809.0000000000001</ele><time>2026-04-11T13:34:10.893Z</time></trkpt><trkpt lat="44.6457894" lon="9.9023985"><ele>809.0</ele><time>2026-04-11T13:34:11.893Z</time></trkpt><trkpt lat="44.6457695" lon="9.9024899"><ele>807.8333333333334</ele><time>2026-04-11T13:34:12.893Z</time></trkpt><trkpt lat="44.6457578" lon="9.9025884"><ele>806.6666666666667</ele><time>2026-04-11T13:34:13.894Z</time></trkpt><trkpt lat="44.6457496" lon="9.9027026"><ele>805.5</ele><time>2026-04-11T13:34:14.894Z</time></trkpt><trkpt lat="44.6457415" lon="9.9028128"><ele>804.3333333333333</ele><time>2026-04-11T13:34:15.894Z</time></trkpt><trkpt lat="44.6457285" lon="9.902905"><ele>803.1666666666666</ele><time>2026-04-11T13:34:16.894Z</time></trkpt><trkpt lat="44.6457036" lon="9.9030795"><ele>802.0</ele><time>2026-04-11T13:34:18.893Z</time></trkpt><trkpt lat="44.6456946" lon="9.9031715"><ele>801.9999999999999</ele><time>2026-04-11T13:34:19.894Z</time></trkpt><trkpt lat="44.645689" lon="9.9032791"><ele>802.0</ele><time>2026-04-11T13:34:20.893Z</time></trkpt><trkpt lat="44.6456859" lon="9.9033943"><ele>802.0</ele><time>2026-04-11T13:34:21.894Z</time></trkpt><trkpt lat="44.6456931" lon="9.9035213"><ele>802.0</ele><time>2026-04-11T13:34:22.893Z</time></trkpt><trkpt lat="44.6457012" lon="9.903651"><ele>801.9999999999999</ele><time>2026-04-11T13:34:23.894Z</time></trkpt><trkpt lat="44.6457115" lon="9.9037658"><ele>802.0</ele><time>2026-04-11T13:34:24.893Z</time></trkpt><trkpt lat="44.6457197" lon="9.9038817"><ele>801.4999999999999</ele><time>2026-04-11T13:34:25.894Z</time></trkpt><trkpt lat="44.6457232" lon="9.9040044"><ele>801.0</ele><time>2026-04-11T13:34:26.894Z</time></trkpt><trkpt lat="44.6457234" lon="9.9041203"><ele>800.5</ele><time>2026-04-11T13:34:27.894Z</time></trkpt><trkpt lat="44.6457249" lon="9.9042263"><ele>800.0</ele><time>2026-04-11T13:34:28.893Z</time></trkpt><trkpt lat="44.6456804" lon="9.9043727"><ele>799.4999999999999</ele><time>2026-04-11T13:34:30.894Z</time></trkpt><trkpt lat="44.6456555" lon="9.9044602"><ele>799.0</ele><time>2026-04-11T13:34:31.894Z</time></trkpt><trkpt lat="44.6456237" lon="9.9045489"><ele>797.6</ele><time>2026-04-11T13:34:32.894Z</time></trkpt><trkpt lat="44.6455887" lon="9.9046237"><ele>796.2</ele><time>2026-04-11T13:34:33.894Z</time></trkpt><trkpt lat="44.6455404" lon="9.9046889"><ele>794.8000000000001</ele><time>2026-04-11T13:34:34.893Z</time></trkpt><trkpt lat="44.6454844" lon="9.9047578"><ele>793.4000000000001</ele><time>2026-04-11T13:34:35.893Z</time></trkpt><trkpt lat="44.6453976" lon="9.904877"><ele>792.0</ele><time>2026-04-11T13:34:37.894Z</time></trkpt><trkpt lat="44.6453114" lon="9.9050246"><ele>794.8333333333334</ele><time>2026-04-11T13:34:39.894Z</time></trkpt><trkpt lat="44.6452728" lon="9.9051273"><ele>797.6666666666667</ele><time>2026-04-11T13:34:40.894Z</time></trkpt><trkpt lat="44.6451879" lon="9.905236"><ele>800.5</ele><time>2026-04-11T13:34:42.893Z</time></trkpt><trkpt lat="44.645141" lon="9.9053261"><ele>803.3333333333334</ele><time>2026-04-11T13:34:43.894Z</time></trkpt><trkpt lat="44.6451298" lon="9.9054208"><ele>806.1666666666667</ele><time>2026-04-11T13:34:44.894Z</time></trkpt><trkpt lat="44.6451169" lon="9.9055098"><ele>809.0</ele><time>2026-04-11T13:34:45.892Z</time></trkpt><trkpt lat="44.6451469" lon="9.9056112"><ele>809.0000000000001</ele><time>2026-04-11T13:34:46.893Z</time></trkpt><trkpt lat="44.6451901" lon="9.9056965"><ele>809.0</ele><time>2026-04-11T13:34:47.892Z</time></trkpt><trkpt lat="44.6452583" lon="9.9057811"><ele>809.0</ele><time>2026-04-11T13:34:49.893Z</time></trkpt><trkpt lat="44.6452704" lon="9.905892"><ele>809.0</ele><time>2026-04-11T13:34:51.892Z</time></trkpt><trkpt lat="44.64526" lon="9.9059946"><ele>809.0000000000001</ele><time>2026-04-11T13:34:53.893Z</time></trkpt><trkpt lat="44.6452201" lon="9.9061498"><ele>809.0</ele><time>2026-04-11T13:34:55.893Z</time></trkpt><trkpt lat="44.6451938" lon="9.906239"><ele>807.0</ele><time>2026-04-11T13:34:56.892Z</time></trkpt><trkpt lat="44.6451934" lon="9.9063406"><ele>805.0</ele><time>2026-04-11T13:34:57.893Z</time></trkpt><trkpt lat="44.645179" lon="9.9064422"><ele>803.0</ele><time>2026-04-11T13:34:58.893Z</time></trkpt><trkpt lat="44.645119" lon="9.9065551"><ele>801.0</ele><time>2026-04-11T13:35:00.893Z</time></trkpt><trkpt lat="44.6450937" lon="9.9066918"><ele>799.0</ele><time>2026-04-11T13:35:02.893Z</time></trkpt><trkpt lat="44.6451051" lon="9.9068574"><ele>797.4999999999999</ele><time>2026-04-11T13:35:04.893Z</time></trkpt><trkpt lat="44.6450866" lon="9.9069539"><ele>796.0</ele><time>2026-04-11T13:35:05.893Z</time></trkpt><trkpt lat="44.6450568" lon="9.9070548"><ele>794.5</ele><time>2026-04-11T13:35:06.893Z</time></trkpt><trkpt lat="44.6450294" lon="9.9071379"><ele>793.0</ele><time>2026-04-11T13:35:07.893Z</time></trkpt><trkpt lat="44.6449964" lon="9.9072739"><ele>791.4999999999999</ele><time>2026-04-11T13:35:09.892Z</time></trkpt><trkpt lat="44.6450012" lon="9.9073992"><ele>790.0</ele><time>2026-04-11T13:35:11.893Z</time></trkpt><trkpt lat="44.6450345" lon="9.9075148"><ele>788.0</ele><time>2026-04-11T13:35:13.893Z</time></trkpt><trkpt lat="44.6450678" lon="9.9076441"><ele>786.0</ele><time>2026-04-11T13:35:15.894Z</time></trkpt><trkpt lat="44.6450961" lon="9.9077918"><ele>784.0</ele><time>2026-04-11T13:35:17.893Z</time></trkpt><trkpt lat="44.6450918" lon="9.9079438"><ele>782.0</ele><time>2026-04-11T13:35:19.893Z</time></trkpt><trkpt lat="44.6450455" lon="9.9080855"><ele>780.0</ele><time>2026-04-11T13:35:21.892Z</time></trkpt><trkpt lat="44.6450361" lon="9.9082253"><ele>780.0</ele><time>2026-04-11T13:35:23.892Z</time></trkpt><trkpt lat="44.6450801" lon="9.9083913"><ele>780.0</ele><time>2026-04-11T13:35:25.893Z</time></trkpt><trkpt lat="44.6451385" lon="9.9085535"><ele>780.0</ele><time>2026-04-11T13:35:27.893Z</time></trkpt><trkpt lat="44.64517" lon="9.9086308"><ele>780.0</ele><time>2026-04-11T13:35:28.893Z</time></trkpt><trkpt lat="44.6451902" lon="9.9087246"><ele>780.0</ele><time>2026-04-11T13:35:29.893Z</time></trkpt><trkpt lat="44.645188" lon="9.9088334"><ele>777.0</ele><time>2026-04-11T13:35:31.893Z</time></trkpt><trkpt lat="44.6452273" lon="9.9089714"><ele>774.0</ele><time>2026-04-11T13:35:33.893Z</time></trkpt><trkpt lat="44.6453446" lon="9.9090502"><ele>771.0</ele><time>2026-04-11T13:35:35.892Z</time></trkpt><trkpt lat="44.6454238" lon="9.9091311"><ele>768.0</ele><time>2026-04-11T13:35:37.893Z</time></trkpt><trkpt lat="44.6454713" lon="9.9091993"><ele>765.0</ele><time>2026-04-11T13:35:38.893Z</time></trkpt><trkpt lat="44.6455369" lon="9.9092847"><ele>763.3333333333334</ele><time>2026-04-11T13:35:40.892Z</time></trkpt><trkpt lat="44.6455889" lon="9.9093429"><ele>761.6666666666666</ele><time>2026-04-11T13:35:42.893Z</time></trkpt><trkpt lat="44.6456245" lon="9.909445"><ele>760.0</ele><time>2026-04-11T13:35:45.893Z</time></trkpt><trkpt lat="44.6456728" lon="9.909545"><ele>758.3333333333333</ele><time>2026-04-11T13:35:47.893Z</time></trkpt><trkpt lat="44.6456729" lon="9.9096355"><ele>756.6666666666666</ele><time>2026-04-11T13:35:49.893Z</time></trkpt><trkpt lat="44.645664" lon="9.9097425"><ele>755.0</ele><time>2026-04-11T13:35:51.893Z</time></trkpt><trkpt lat="44.6456455" lon="9.9099056"><ele>754.4</ele><time>2026-04-11T13:35:53.893Z</time></trkpt><trkpt lat="44.6456918" lon="9.9100794"><ele>753.8</ele><time>2026-04-11T13:35:55.893Z</time></trkpt><trkpt lat="44.6457219" lon="9.9101767"><ele>753.2</ele><time>2026-04-11T13:35:56.892Z</time></trkpt><trkpt lat="44.6457635" lon="9.9102752"><ele>752.6</ele><time>2026-04-11T13:35:57.892Z</time></trkpt><trkpt lat="44.6457749" lon="9.9103834"><ele>752.0</ele><time>2026-04-11T13:35:58.893Z</time></trkpt><trkpt lat="44.6458255" lon="9.9104872"><ele>752.0</ele><time>2026-04-11T13:35:59.893Z</time></trkpt><trkpt lat="44.6458483" lon="9.9105951"><ele>752.0</ele><time>2026-04-11T13:36:00.893Z</time></trkpt><trkpt lat="44.6458443" lon="9.9106964"><ele>752.0</ele><time>2026-04-11T13:36:01.893Z</time></trkpt><trkpt lat="44.6458642" lon="9.9107898"><ele>752.0</ele><time>2026-04-11T13:36:02.892Z</time></trkpt><trkpt lat="44.6458612" lon="9.9108788"><ele>752.0</ele><time>2026-04-11T13:36:03.893Z</time></trkpt><trkpt lat="44.6458812" lon="9.9109706"><ele>752.0</ele><time>2026-04-11T13:36:04.893Z</time></trkpt><trkpt lat="44.6459309" lon="9.9111014"><ele>751.4000000000001</ele><time>2026-04-11T13:36:06.893Z</time></trkpt><trkpt lat="44.6459545" lon="9.911282"><ele>750.8000000000001</ele><time>2026-04-11T13:36:08.893Z</time></trkpt><trkpt lat="44.6459699" lon="9.9114322"><ele>750.2</ele><time>2026-04-11T13:36:10.893Z</time></trkpt><trkpt lat="44.6459815" lon="9.9115676"><ele>749.6</ele><time>2026-04-11T13:36:12.892Z</time></trkpt><trkpt lat="44.6459954" lon="9.9116751"><ele>749.0</ele><time>2026-04-11T13:36:14.892Z</time></trkpt><trkpt lat="44.6460115" lon="9.9118018"><ele>748.4000000000001</ele><time>2026-04-11T13:36:17.892Z</time></trkpt><trkpt lat="44.6460466" lon="9.911927"><ele>747.8</ele><time>2026-04-11T13:36:19.893Z</time></trkpt><trkpt lat="44.6460783" lon="9.9120601"><ele>747.2</ele><time>2026-04-11T13:36:21.893Z</time></trkpt><trkpt lat="44.6461275" lon="9.9121602"><ele>746.5999999999999</ele><time>2026-04-11T13:36:23.893Z</time></trkpt><trkpt lat="44.6461892" lon="9.9122582"><ele>746.0</ele><time>2026-04-11T13:36:25.893Z</time></trkpt><trkpt lat="44.6462466" lon="9.9123613"><ele>748.1999999999999</ele><time>2026-04-11T13:36:27.893Z</time></trkpt><trkpt lat="44.6462359" lon="9.9124644"><ele>750.4</ele><time>2026-04-11T13:36:29.892Z</time></trkpt><trkpt lat="44.6462487" lon="9.9126026"><ele>752.6</ele><time>2026-04-11T13:36:32.893Z</time></trkpt><trkpt lat="44.6462666" lon="9.9127365"><ele>754.8</ele><time>2026-04-11T13:36:34.893Z</time></trkpt><trkpt lat="44.646268" lon="9.9128644"><ele>757.0</ele><time>2026-04-11T13:36:36.893Z</time></trkpt><trkpt lat="44.6463032" lon="9.9130637"><ele>757.1666666666667</ele><time>2026-04-11T13:36:38.893Z</time></trkpt><trkpt lat="44.6463357" lon="9.9131651"><ele>757.3333333333334</ele><time>2026-04-11T13:36:39.892Z</time></trkpt><trkpt lat="44.6463381" lon="9.9132754"><ele>757.5</ele><time>2026-04-11T13:36:40.893Z</time></trkpt><trkpt lat="44.6463252" lon="9.913381"><ele>757.6666666666666</ele><time>2026-04-11T13:36:41.893Z</time></trkpt><trkpt lat="44.6463256" lon="9.9135127"><ele>757.8333333333333</ele><time>2026-04-11T13:36:42.892Z</time></trkpt><trkpt lat="44.6462969" lon="9.9136299"><ele>758.0</ele><time>2026-04-11T13:36:43.892Z</time></trkpt><trkpt lat="44.6462838" lon="9.9137609"><ele>758.5</ele><time>2026-04-11T13:36:44.892Z</time></trkpt><trkpt lat="44.646267" lon="9.9138483"><ele>759.0</ele><time>2026-04-11T13:36:45.893Z</time></trkpt><trkpt lat="44.6462485" lon="9.9139511"><ele>759.5</ele><time>2026-04-11T13:36:46.893Z</time></trkpt><trkpt lat="44.6462357" lon="9.9140741"><ele>760.0</ele><time>2026-04-11T13:36:47.893Z</time></trkpt><trkpt lat="44.6462036" lon="9.9141917"><ele>760.5</ele><time>2026-04-11T13:36:48.893Z</time></trkpt><trkpt lat="44.6461807" lon="9.914305"><ele>761.0</ele><time>2026-04-11T13:36:49.892Z</time></trkpt><trkpt lat="44.6461582" lon="9.9143953"><ele>759.4</ele><time>2026-04-11T13:36:50.893Z</time></trkpt><trkpt lat="44.6461589" lon="9.9145663"><ele>757.8</ele><time>2026-04-11T13:36:52.893Z</time></trkpt><trkpt lat="44.6461677" lon="9.9146564"><ele>756.1999999999999</ele><time>2026-04-11T13:36:53.892Z</time></trkpt><trkpt lat="44.6461775" lon="9.9148319"><ele>754.5999999999999</ele><time>2026-04-11T13:36:55.893Z</time></trkpt><trkpt lat="44.6461455" lon="9.9149924"><ele>753.0</ele><time>2026-04-11T13:36:57.893Z</time></trkpt><trkpt lat="44.6460741" lon="9.9150537"><ele>753.4</ele><time>2026-04-11T13:36:58.893Z</time></trkpt><trkpt lat="44.646003" lon="9.915188"><ele>753.8</ele><time>2026-04-11T13:37:00.892Z</time></trkpt><trkpt lat="44.6459736" lon="9.9153492"><ele>754.2</ele><time>2026-04-11T13:37:02.893Z</time></trkpt><trkpt lat="44.6459635" lon="9.9154417"><ele>754.6</ele><time>2026-04-11T13:37:03.893Z</time></trkpt><trkpt lat="44.6459576" lon="9.9155414"><ele>755.0</ele><time>2026-04-11T13:37:04.893Z</time></trkpt><trkpt lat="44.6459547" lon="9.9156524"><ele>755.0</ele><time>2026-04-11T13:37:05.893Z</time></trkpt><trkpt lat="44.6459454" lon="9.9157645"><ele>755.0</ele><time>2026-04-11T13:37:06.893Z</time></trkpt><trkpt lat="44.6459461" lon="9.9159024"><ele>755.0</ele><time>2026-04-11T13:37:07.893Z</time></trkpt><trkpt lat="44.6459408" lon="9.9160264"><ele>755.0</ele><time>2026-04-11T13:37:08.893Z</time></trkpt><trkpt lat="44.6459196" lon="9.9161377"><ele>755.0</ele><time>2026-04-11T13:37:09.893Z</time></trkpt><trkpt lat="44.6459129" lon="9.9162501"><ele>755.0</ele><time>2026-04-11T13:37:10.892Z</time></trkpt><trkpt lat="44.6459165" lon="9.9163552"><ele>754.0</ele><time>2026-04-11T13:37:11.893Z</time></trkpt><trkpt lat="44.6459204" lon="9.9164528"><ele>753.0</ele><time>2026-04-11T13:37:12.893Z</time></trkpt><trkpt lat="44.6459776" lon="9.9165428"><ele>752.0</ele><time>2026-04-11T13:37:13.892Z</time></trkpt><trkpt lat="44.6459907" lon="9.9166384"><ele>751.0</ele><time>2026-04-11T13:37:14.892Z</time></trkpt><trkpt lat="44.6459859" lon="9.9167327"><ele>750.0</ele><time>2026-04-11T13:37:15.892Z</time></trkpt><trkpt lat="44.6459755" lon="9.9168244"><ele>749.0</ele><time>2026-04-11T13:37:16.892Z</time></trkpt><trkpt lat="44.645947" lon="9.9169976"><ele>747.1666666666666</ele><time>2026-04-11T13:37:18.893Z</time></trkpt><trkpt lat="44.6459506" lon="9.9170865"><ele>745.3333333333333</ele><time>2026-04-11T13:37:19.893Z</time></trkpt><trkpt lat="44.6459723" lon="9.9172604"><ele>743.5</ele><time>2026-04-11T13:37:21.893Z</time></trkpt><trkpt lat="44.645987" lon="9.917348"><ele>741.6666666666666</ele><time>2026-04-11T13:37:22.893Z</time></trkpt><trkpt lat="44.6460673" lon="9.9174918"><ele>739.8333333333334</ele><time>2026-04-11T13:37:24.892Z</time></trkpt><trkpt lat="44.6461223" lon="9.9175374"><ele>738.0</ele><time>2026-04-11T13:37:25.893Z</time></trkpt><trkpt lat="44.6462253" lon="9.9176041"><ele>736.4</ele><time>2026-04-11T13:37:27.893Z</time></trkpt><trkpt lat="44.6463205" lon="9.9175551"><ele>734.8</ele><time>2026-04-11T13:37:29.893Z</time></trkpt><trkpt lat="44.6463858" lon="9.9175417"><ele>733.2</ele><time>2026-04-11T13:37:32.892Z</time></trkpt><trkpt lat="44.646338" lon="9.9176139"><ele>731.6</ele><time>2026-04-11T13:37:33.892Z</time></trkpt><trkpt lat="44.6462704" lon="9.9177421"><ele>730.0</ele><time>2026-04-11T13:37:35.894Z</time></trkpt><trkpt lat="44.646174" lon="9.9177934"><ele>730.0</ele><time>2026-04-11T13:37:36.893Z</time></trkpt><trkpt lat="44.6460913" lon="9.917908"><ele>730.0</ele><time>2026-04-11T13:37:38.893Z</time></trkpt><trkpt lat="44.6461262" lon="9.9179897"><ele>730.0</ele><time>2026-04-11T13:37:40.892Z</time></trkpt><trkpt lat="44.6461487" lon="9.9180838"><ele>730.0</ele><time>2026-04-11T13:37:43.893Z</time></trkpt><trkpt lat="44.6461866" lon="9.9182219"><ele>730.0</ele><time>2026-04-11T13:37:45.893Z</time></trkpt><trkpt lat="44.6462424" lon="9.9183922"><ele>730.6</ele><time>2026-04-11T13:37:47.893Z</time></trkpt><trkpt lat="44.64628" lon="9.9184894"><ele>731.2</ele><time>2026-04-11T13:37:48.893Z</time></trkpt><trkpt lat="44.6463025" lon="9.9185809"><ele>731.8</ele><time>2026-04-11T13:37:49.892Z</time></trkpt><trkpt lat="44.6463031" lon="9.9187498"><ele>732.4</ele><time>2026-04-11T13:37:51.893Z</time></trkpt><trkpt lat="44.646256" lon="9.9189108"><ele>733.0</ele><time>2026-04-11T13:37:53.892Z</time></trkpt><trkpt lat="44.6462185" lon="9.9190499"><ele>733.0</ele><time>2026-04-11T13:37:55.892Z</time></trkpt><trkpt lat="44.6461994" lon="9.9191995"><ele>733.0</ele><time>2026-04-11T13:37:57.893Z</time></trkpt><trkpt lat="44.6462192" lon="9.9193493"><ele>733.0</ele><time>2026-04-11T13:37:59.892Z</time></trkpt><trkpt lat="44.6462067" lon="9.9195301"><ele>733.0</ele><time>2026-04-11T13:38:01.893Z</time></trkpt><trkpt lat="44.6462077" lon="9.9196201"><ele>733.0</ele><time>2026-04-11T13:38:02.892Z</time></trkpt><trkpt lat="44.6462252" lon="9.9197132"><ele>733.2</ele><time>2026-04-11T13:38:03.894Z</time></trkpt><trkpt lat="44.6462623" lon="9.9198715"><ele>733.4</ele><time>2026-04-11T13:38:05.893Z</time></trkpt><trkpt lat="44.6462834" lon="9.9199551"><ele>733.6</ele><time>2026-04-11T13:38:06.893Z</time></trkpt><trkpt lat="44.6463793" lon="9.920088"><ele>733.8000000000001</ele><time>2026-04-11T13:38:08.893Z</time></trkpt><trkpt lat="44.6464836" lon="9.9202005"><ele>734.0</ele><time>2026-04-11T13:38:10.892Z</time></trkpt><trkpt lat="44.6465547" lon="9.9202602"><ele>734.0</ele><time>2026-04-11T13:38:11.893Z</time></trkpt><trkpt lat="44.6466232" lon="9.9203162"><ele>734.0</ele><time>2026-04-11T13:38:12.893Z</time></trkpt><trkpt lat="44.6466833" lon="9.9203803"><ele>734.0</ele><time>2026-04-11T13:38:13.893Z</time></trkpt><trkpt lat="44.6467482" lon="9.9204475"><ele>734.0</ele><time>2026-04-11T13:38:14.893Z</time></trkpt><trkpt lat="44.646816" lon="9.920522"><ele>734.0</ele><time>2026-04-11T13:38:16.892Z</time></trkpt><trkpt lat="44.6468973" lon="9.9206034"><ele>734.0</ele><time>2026-04-11T13:38:18.892Z</time></trkpt><trkpt lat="44.6469947" lon="9.9206594"><ele>734.0</ele><time>2026-04-11T13:38:20.893Z</time></trkpt><trkpt lat="44.6470727" lon="9.9206994"><ele>734.0</ele><time>2026-04-11T13:38:21.893Z</time></trkpt><trkpt lat="44.6471474" lon="9.9207427"><ele>734.0</ele><time>2026-04-11T13:38:22.893Z</time></trkpt><trkpt lat="44.6472713" lon="9.9207463"><ele>734.0</ele><time>2026-04-11T13:38:23.893Z</time></trkpt><trkpt lat="44.6473325" lon="9.9207886"><ele>734.0</ele><time>2026-04-11T13:38:24.893Z</time></trkpt><trkpt lat="44.6473989" lon="9.9208265"><ele>734.0</ele><time>2026-04-11T13:38:25.893Z</time></trkpt><trkpt lat="44.6475072" lon="9.9208929"><ele>734.0</ele><time>2026-04-11T13:38:27.892Z</time></trkpt><trkpt lat="44.6475959" lon="9.920897"><ele>734.0</ele><time>2026-04-11T13:38:29.893Z</time></trkpt><trkpt lat="44.647655" lon="9.9209318"><ele>734.0</ele><time>2026-04-11T13:38:30.893Z</time></trkpt><trkpt lat="44.6477161" lon="9.9209646"><ele>734.0</ele><time>2026-04-11T13:38:31.893Z</time></trkpt><trkpt lat="44.6478033" lon="9.9209958"><ele>734.0</ele><time>2026-04-11T13:38:32.893Z</time></trkpt><trkpt lat="44.6478778" lon="9.9210439"><ele>734.0</ele><time>2026-04-11T13:38:33.892Z</time></trkpt><trkpt lat="44.6479495" lon="9.9211093"><ele>734.0</ele><time>2026-04-11T13:38:34.892Z</time></trkpt><trkpt lat="44.6479983" lon="9.9211703"><ele>734.0</ele><time>2026-04-11T13:38:35.892Z</time></trkpt><trkpt lat="44.6480512" lon="9.9212459"><ele>734.0</ele><time>2026-04-11T13:38:36.892Z</time></trkpt><trkpt lat="44.6480963" lon="9.9213174"><ele>734.0</ele><time>2026-04-11T13:38:37.893Z</time></trkpt><trkpt lat="44.6481394" lon="9.9213863"><ele>734.0</ele><time>2026-04-11T13:38:38.893Z</time></trkpt><trkpt lat="44.6481898" lon="9.9214569"><ele>734.0</ele><time>2026-04-11T13:38:39.893Z</time></trkpt><trkpt lat="44.6482984" lon="9.921478"><ele>734.0</ele><time>2026-04-11T13:38:40.893Z</time></trkpt><trkpt lat="44.6483878" lon="9.921535"><ele>734.0</ele><time>2026-04-11T13:38:41.894Z</time></trkpt><trkpt lat="44.6484774" lon="9.9216115"><ele>734.0</ele><time>2026-04-11T13:38:42.893Z</time></trkpt><trkpt lat="44.6485615" lon="9.9216521"><ele>734.0</ele><time>2026-04-11T13:38:43.893Z</time></trkpt><trkpt lat="44.6486748" lon="9.9217139"><ele>734.0</ele><time>2026-04-11T13:38:44.892Z</time></trkpt><trkpt lat="44.6487664" lon="9.9217533"><ele>732.2</ele><time>2026-04-11T13:38:45.893Z</time></trkpt><trkpt lat="44.6488549" lon="9.9218101"><ele>730.4000000000001</ele><time>2026-04-11T13:38:46.893Z</time></trkpt><trkpt lat="44.6489258" lon="9.9218659"><ele>728.6</ele><time>2026-04-11T13:38:47.893Z</time></trkpt><trkpt lat="44.6490191" lon="9.9219604"><ele>726.8</ele><time>2026-04-11T13:38:49.893Z</time></trkpt><trkpt lat="44.64911" lon="9.9220644"><ele>725.0</ele><time>2026-04-11T13:38:51.893Z</time></trkpt><trkpt lat="44.6491619" lon="9.9221333"><ele>725.0</ele><time>2026-04-11T13:38:52.893Z</time></trkpt><trkpt lat="44.649216" lon="9.9221827"><ele>725.0</ele><time>2026-04-11T13:38:53.893Z</time></trkpt><trkpt lat="44.6492667" lon="9.9222467"><ele>725.0</ele><time>2026-04-11T13:38:54.893Z</time></trkpt><trkpt lat="44.6493304" lon="9.922415"><ele>725.0</ele><time>2026-04-11T13:38:56.892Z</time></trkpt><trkpt lat="44.6493622" lon="9.9225143"><ele>725.0</ele><time>2026-04-11T13:38:57.894Z</time></trkpt><trkpt lat="44.6493722" lon="9.9226236"><ele>725.0</ele><time>2026-04-11T13:38:58.893Z</time></trkpt><trkpt lat="44.6493494" lon="9.9227393"><ele>725.5</ele><time>2026-04-11T13:38:59.892Z</time></trkpt><trkpt lat="44.6493959" lon="9.9228723"><ele>726.0</ele><time>2026-04-11T13:39:01.892Z</time></trkpt><trkpt lat="44.6494165" lon="9.9229876"><ele>726.5</ele><time>2026-04-11T13:39:03.892Z</time></trkpt><trkpt lat="44.6494855" lon="9.9231045"><ele>727.0</ele><time>2026-04-11T13:39:05.892Z</time></trkpt><trkpt lat="44.6495391" lon="9.9231714"><ele>727.5</ele><time>2026-04-11T13:39:06.892Z</time></trkpt><trkpt lat="44.6495874" lon="9.9232452"><ele>728.0</ele><time>2026-04-11T13:39:07.892Z</time></trkpt><trkpt lat="44.6496423" lon="9.9233153"><ele>724.1666666666666</ele><time>2026-04-11T13:39:08.893Z</time></trkpt><trkpt lat="44.6497071" lon="9.923379"><ele>720.3333333333333</ele><time>2026-04-11T13:39:09.893Z</time></trkpt><trkpt lat="44.6498338" lon="9.9234207"><ele>716.5</ele><time>2026-04-11T13:39:11.892Z</time></trkpt><trkpt lat="44.6498991" lon="9.9234453"><ele>712.6666666666666</ele><time>2026-04-11T13:39:12.893Z</time></trkpt><trkpt lat="44.6499644" lon="9.9234542"><ele>708.8333333333334</ele><time>2026-04-11T13:39:13.893Z</time></trkpt><trkpt lat="44.6500387" lon="9.9235288"><ele>705.0</ele><time>2026-04-11T13:39:15.893Z</time></trkpt><trkpt lat="44.6500808" lon="9.9236611"><ele>704.6</ele><time>2026-04-11T13:39:17.893Z</time></trkpt><trkpt lat="44.6500763" lon="9.9238148"><ele>704.2</ele><time>2026-04-11T13:39:20.893Z</time></trkpt><trkpt lat="44.6501002" lon="9.9240292"><ele>703.8</ele><time>2026-04-11T13:39:22.893Z</time></trkpt><trkpt lat="44.65014" lon="9.9241565"><ele>703.4</ele><time>2026-04-11T13:39:23.893Z</time></trkpt><trkpt lat="44.6501769" lon="9.9242448"><ele>703.0</ele><time>2026-04-11T13:39:24.893Z</time></trkpt><trkpt lat="44.6502008" lon="9.9243356"><ele>701.0</ele><time>2026-04-11T13:39:25.893Z</time></trkpt><trkpt lat="44.6502292" lon="9.9244332"><ele>699.0</ele><time>2026-04-11T13:39:26.893Z</time></trkpt><trkpt lat="44.6502738" lon="9.9245223"><ele>697.0</ele><time>2026-04-11T13:39:28.893Z</time></trkpt><trkpt lat="44.6503489" lon="9.9245596"><ele>695.0</ele><time>2026-04-11T13:39:30.892Z</time></trkpt><trkpt lat="44.6504318" lon="9.9245971"><ele>693.0</ele><time>2026-04-11T13:39:32.892Z</time></trkpt><trkpt lat="44.6505881" lon="9.9245793"><ele>693.0</ele><time>2026-04-11T13:39:34.893Z</time></trkpt><trkpt lat="44.6506577" lon="9.92456"><ele>693.0</ele><time>2026-04-11T13:39:35.893Z</time></trkpt><trkpt lat="44.6507195" lon="9.9245926"><ele>693.0</ele><time>2026-04-11T13:39:42.892Z</time></trkpt><trkpt lat="44.6507887" lon="9.9245763"><ele>693.0</ele><time>2026-04-11T13:39:44.893Z</time></trkpt><trkpt lat="44.6508557" lon="9.9245028"><ele>693.0</ele><time>2026-04-11T13:39:46.893Z</time></trkpt><trkpt lat="44.6509188" lon="9.9244881"><ele>693.0</ele><time>2026-04-11T13:39:47.893Z</time></trkpt><trkpt lat="44.6509957" lon="9.9244648"><ele>693.0</ele><time>2026-04-11T13:39:48.893Z</time></trkpt><trkpt lat="44.6510756" lon="9.9244535"><ele>697.0</ele><time>2026-04-11T13:39:49.893Z</time></trkpt><trkpt lat="44.6511507" lon="9.92444"><ele>701.0</ele><time>2026-04-11T13:39:50.892Z</time></trkpt><trkpt lat="44.6512157" lon="9.9244438"><ele>705.0</ele><time>2026-04-11T13:39:51.893Z</time></trkpt><trkpt lat="44.6512794" lon="9.92444"><ele>709.0</ele><time>2026-04-11T13:39:52.893Z</time></trkpt><trkpt lat="44.651403" lon="9.9244306"><ele>713.0</ele><time>2026-04-11T13:39:54.893Z</time></trkpt><trkpt lat="44.6515257" lon="9.9244195"><ele>713.0</ele><time>2026-04-11T13:39:56.893Z</time></trkpt><trkpt lat="44.6515972" lon="9.9244086"><ele>713.0</ele><time>2026-04-11T13:39:57.893Z</time></trkpt><trkpt lat="44.6516722" lon="9.9244206"><ele>713.0</ele><time>2026-04-11T13:39:58.893Z</time></trkpt><trkpt lat="44.6517924" lon="9.9243817"><ele>713.0</ele><time>2026-04-11T13:40:00.893Z</time></trkpt><trkpt lat="44.6518938" lon="9.9243382"><ele>713.0</ele><time>2026-04-11T13:40:01.892Z</time></trkpt><trkpt lat="44.6519798" lon="9.9242804"><ele>707.8</ele><time>2026-04-11T13:40:02.892Z</time></trkpt><trkpt lat="44.6520571" lon="9.9242263"><ele>702.5999999999999</ele><time>2026-04-11T13:40:03.893Z</time></trkpt><trkpt lat="44.6521647" lon="9.9241342"><ele>697.4000000000001</ele><time>2026-04-11T13:40:05.893Z</time></trkpt><trkpt lat="44.6522307" lon="9.9241509"><ele>692.2</ele><time>2026-04-11T13:40:06.893Z</time></trkpt><trkpt lat="44.6523367" lon="9.924195"><ele>687.0</ele><time>2026-04-11T13:40:07.892Z</time></trkpt><trkpt lat="44.6524168" lon="9.9242275"><ele>687.0</ele><time>2026-04-11T13:40:08.893Z</time></trkpt><trkpt lat="44.6525167" lon="9.9242339"><ele>687.0</ele><time>2026-04-11T13:40:09.893Z</time></trkpt><trkpt lat="44.6525904" lon="9.9241418"><ele>687.0</ele><time>2026-04-11T13:40:10.893Z</time></trkpt><trkpt lat="44.6526711" lon="9.924105"><ele>687.0</ele><time>2026-04-11T13:40:11.893Z</time></trkpt><trkpt lat="44.6527634" lon="9.9240755"><ele>687.0</ele><time>2026-04-11T13:40:12.893Z</time></trkpt><trkpt lat="44.6528343" lon="9.9240669"><ele>687.0</ele><time>2026-04-11T13:40:13.892Z</time></trkpt><trkpt lat="44.6528597" lon="9.9241591"><ele>687.6</ele><time>2026-04-11T13:40:14.893Z</time></trkpt><trkpt lat="44.6529248" lon="9.9241908"><ele>688.2</ele><time>2026-04-11T13:40:15.893Z</time></trkpt><trkpt lat="44.6529935" lon="9.9242446"><ele>688.8</ele><time>2026-04-11T13:40:16.893Z</time></trkpt><trkpt lat="44.6531052" lon="9.9242767"><ele>689.4</ele><time>2026-04-11T13:40:18.893Z</time></trkpt><trkpt lat="44.6532148" lon="9.9243445"><ele>690.0</ele><time>2026-04-11T13:40:20.893Z</time></trkpt><trkpt lat="44.653351" lon="9.9243958"><ele>689.0</ele><time>2026-04-11T13:40:22.893Z</time></trkpt><trkpt lat="44.65342" lon="9.9243831"><ele>688.0</ele><time>2026-04-11T13:40:23.894Z</time></trkpt><trkpt lat="44.6535269" lon="9.9244278"><ele>687.0</ele><time>2026-04-11T13:40:25.893Z</time></trkpt><trkpt lat="44.6535935" lon="9.9245214"><ele>686.0</ele><time>2026-04-11T13:40:26.893Z</time></trkpt><trkpt lat="44.6535845" lon="9.9247029"><ele>685.0</ele><time>2026-04-11T13:40:27.892Z</time></trkpt><trkpt lat="44.6536491" lon="9.9247785"><ele>685.0</ele><time>2026-04-11T13:40:28.893Z</time></trkpt><trkpt lat="44.653716" lon="9.9248585"><ele>685.0</ele><time>2026-04-11T13:40:29.893Z</time></trkpt><trkpt lat="44.6537775" lon="9.9249097"><ele>685.0</ele><time>2026-04-11T13:40:30.892Z</time></trkpt><trkpt lat="44.6538521" lon="9.9249745"><ele>685.0</ele><time>2026-04-11T13:40:32.892Z</time></trkpt><trkpt lat="44.6539721" lon="9.9250632"><ele>685.0</ele><time>2026-04-11T13:40:34.892Z</time></trkpt><trkpt lat="44.654028" lon="9.9251285"><ele>685.5</ele><time>2026-04-11T13:40:35.892Z</time></trkpt><trkpt lat="44.6541106" lon="9.92516"><ele>686.0</ele><time>2026-04-11T13:40:37.892Z</time></trkpt><trkpt lat="44.6541802" lon="9.9251609"><ele>686.5</ele><time>2026-04-11T13:40:38.892Z</time></trkpt><trkpt lat="44.6542478" lon="9.9251407"><ele>687.0</ele><time>2026-04-11T13:40:39.893Z</time></trkpt><trkpt lat="44.6543619" lon="9.9251611"><ele>687.5</ele><time>2026-04-11T13:40:41.891Z</time></trkpt><trkpt lat="44.6544294" lon="9.9251694"><ele>688.0</ele><time>2026-04-11T13:40:42.892Z</time></trkpt><trkpt lat="44.6545136" lon="9.9251639"><ele>685.5999999999999</ele><time>2026-04-11T13:40:44.892Z</time></trkpt><trkpt lat="44.6546098" lon="9.9251879"><ele>683.1999999999999</ele><time>2026-04-11T13:40:46.892Z</time></trkpt><trkpt lat="44.6546695" lon="9.9252819"><ele>680.8</ele><time>2026-04-11T13:40:47.892Z</time></trkpt><trkpt lat="44.6547246" lon="9.9253727"><ele>678.4</ele><time>2026-04-11T13:40:48.892Z</time></trkpt><trkpt lat="44.6548099" lon="9.9255129"><ele>676.0</ele><time>2026-04-11T13:40:50.892Z</time></trkpt><trkpt lat="44.6548716" lon="9.9255788"><ele>676.0</ele><time>2026-04-11T13:40:51.892Z</time></trkpt><trkpt lat="44.6549269" lon="9.9256369"><ele>676.0</ele><time>2026-04-11T13:40:52.892Z</time></trkpt><trkpt lat="44.6549748" lon="9.9257007"><ele>676.0</ele><time>2026-04-11T13:40:53.892Z</time></trkpt><trkpt lat="44.6550267" lon="9.9257611"><ele>676.0</ele><time>2026-04-11T13:40:54.892Z</time></trkpt><trkpt lat="44.6551088" lon="9.9258129"><ele>676.0</ele><time>2026-04-11T13:40:55.891Z</time></trkpt><trkpt lat="44.6551878" lon="9.9258721"><ele>676.0</ele><time>2026-04-11T13:40:56.892Z</time></trkpt><trkpt lat="44.6552891" lon="9.9259489"><ele>681.0</ele><time>2026-04-11T13:40:57.891Z</time></trkpt><trkpt lat="44.6554062" lon="9.926011"><ele>686.0</ele><time>2026-04-11T13:40:58.891Z</time></trkpt><trkpt lat="44.6555153" lon="9.9260563"><ele>691.0</ele><time>2026-04-11T13:40:59.891Z</time></trkpt><trkpt lat="44.6556337" lon="9.9260845"><ele>696.0</ele><time>2026-04-11T13:41:00.892Z</time></trkpt><trkpt lat="44.6557583" lon="9.9261086"><ele>696.0</ele><time>2026-04-11T13:41:01.892Z</time></trkpt><trkpt lat="44.6558871" lon="9.9261289"><ele>696.0</ele><time>2026-04-11T13:41:02.892Z</time></trkpt><trkpt lat="44.656008" lon="9.9261406"><ele>696.0</ele><time>2026-04-11T13:41:03.891Z</time></trkpt><trkpt lat="44.6561202" lon="9.9261419"><ele>696.0</ele><time>2026-04-11T13:41:04.891Z</time></trkpt><trkpt lat="44.6562212" lon="9.9261252"><ele>695.0</ele><time>2026-04-11T13:41:05.891Z</time></trkpt><trkpt lat="44.6563353" lon="9.9260968"><ele>694.0</ele><time>2026-04-11T13:41:06.892Z</time></trkpt><trkpt lat="44.6564344" lon="9.9260946"><ele>693.0</ele><time>2026-04-11T13:41:07.892Z</time></trkpt><trkpt lat="44.6565366" lon="9.9260851"><ele>692.0</ele><time>2026-04-11T13:41:08.892Z</time></trkpt><trkpt lat="44.6566227" lon="9.9261026"><ele>691.0</ele><time>2026-04-11T13:41:09.892Z</time></trkpt><trkpt lat="44.656713" lon="9.9261433"><ele>691.0</ele><time>2026-04-11T13:41:10.892Z</time></trkpt><trkpt lat="44.656796" lon="9.926175"><ele>691.0</ele><time>2026-04-11T13:41:11.892Z</time></trkpt><trkpt lat="44.6568644" lon="9.9262238"><ele>691.0</ele><time>2026-04-11T13:41:12.893Z</time></trkpt><trkpt lat="44.6569656" lon="9.9262885"><ele>691.0</ele><time>2026-04-11T13:41:13.892Z</time></trkpt><trkpt lat="44.657034" lon="9.9263869"><ele>691.0</ele><time>2026-04-11T13:41:14.892Z</time></trkpt><trkpt lat="44.6571365" lon="9.9264853"><ele>689.1999999999999</ele><time>2026-04-11T13:41:15.892Z</time></trkpt><trkpt lat="44.6571523" lon="9.9266815"><ele>687.4</ele><time>2026-04-11T13:41:16.892Z</time></trkpt><trkpt lat="44.6572282" lon="9.9267667"><ele>685.6</ele><time>2026-04-11T13:41:17.891Z</time></trkpt><trkpt lat="44.6572963" lon="9.9268539"><ele>683.8</ele><time>2026-04-11T13:41:18.891Z</time></trkpt><trkpt lat="44.6573899" lon="9.9269178"><ele>682.0</ele><time>2026-04-11T13:41:19.891Z</time></trkpt><trkpt lat="44.6574579" lon="9.9269897"><ele>682.0</ele><time>2026-04-11T13:41:20.892Z</time></trkpt><trkpt lat="44.6575414" lon="9.9270505"><ele>682.0</ele><time>2026-04-11T13:41:21.892Z</time></trkpt><trkpt lat="44.6576138" lon="9.927124"><ele>682.0</ele><time>2026-04-11T13:41:22.892Z</time></trkpt><trkpt lat="44.6576648" lon="9.9271813"><ele>682.0</ele><time>2026-04-11T13:41:23.892Z</time></trkpt><trkpt lat="44.6576726" lon="9.9272788"><ele>682.0</ele><time>2026-04-11T13:41:24.892Z</time></trkpt><trkpt lat="44.6577353" lon="9.9274577"><ele>682.6</ele><time>2026-04-11T13:41:26.891Z</time></trkpt><trkpt lat="44.6577613" lon="9.9276724"><ele>683.2</ele><time>2026-04-11T13:41:27.891Z</time></trkpt><trkpt lat="44.6577832" lon="9.9277851"><ele>683.8</ele><time>2026-04-11T13:41:28.891Z</time></trkpt><trkpt lat="44.6578209" lon="9.9279076"><ele>684.4</ele><time>2026-04-11T13:41:29.891Z</time></trkpt><trkpt lat="44.6578731" lon="9.9279946"><ele>685.0</ele><time>2026-04-11T13:41:30.891Z</time></trkpt><trkpt lat="44.6579349" lon="9.9280643"><ele>680.3333333333334</ele><time>2026-04-11T13:41:31.892Z</time></trkpt><trkpt lat="44.6579691" lon="9.9281999"><ele>675.6666666666667</ele><time>2026-04-11T13:41:33.892Z</time></trkpt><trkpt lat="44.6579315" lon="9.9283472"><ele>671.0</ele><time>2026-04-11T13:41:35.891Z</time></trkpt><trkpt lat="44.6579191" lon="9.9284413"><ele>666.3333333333334</ele><time>2026-04-11T13:41:36.892Z</time></trkpt><trkpt lat="44.6579201" lon="9.9285372"><ele>661.6666666666666</ele><time>2026-04-11T13:41:37.892Z</time></trkpt><trkpt lat="44.6579328" lon="9.9286582"><ele>657.0</ele><time>2026-04-11T13:41:38.892Z</time></trkpt><trkpt lat="44.65791" lon="9.9287587"><ele>656.8</ele><time>2026-04-11T13:41:39.892Z</time></trkpt><trkpt lat="44.6578999" lon="9.928859"><ele>656.6</ele><time>2026-04-11T13:41:40.891Z</time></trkpt><trkpt lat="44.6578573" lon="9.9290357"><ele>656.4</ele><time>2026-04-11T13:41:42.891Z</time></trkpt><trkpt lat="44.657825" lon="9.9291657"><ele>656.1999999999999</ele><time>2026-04-11T13:41:43.891Z</time></trkpt><trkpt lat="44.6578097" lon="9.9292758"><ele>656.0</ele><time>2026-04-11T13:41:44.891Z</time></trkpt><trkpt lat="44.6577812" lon="9.9293643"><ele>658.4</ele><time>2026-04-11T13:41:45.891Z</time></trkpt><trkpt lat="44.6577595" lon="9.929545"><ele>660.8</ele><time>2026-04-11T13:41:47.891Z</time></trkpt><trkpt lat="44.6576989" lon="9.9296309"><ele>663.1999999999999</ele><time>2026-04-11T13:41:48.891Z</time></trkpt><trkpt lat="44.6576719" lon="9.9297541"><ele>665.5999999999999</ele><time>2026-04-11T13:41:50.892Z</time></trkpt><trkpt lat="44.6576664" lon="9.9299334"><ele>668.0</ele><time>2026-04-11T13:41:52.892Z</time></trkpt><trkpt lat="44.657674" lon="9.9300333"><ele>665.8333333333333</ele><time>2026-04-11T13:41:53.892Z</time></trkpt><trkpt lat="44.657731" lon="9.9301031"><ele>663.6666666666666</ele><time>2026-04-11T13:41:54.893Z</time></trkpt><trkpt lat="44.6577832" lon="9.9301845"><ele>661.5</ele><time>2026-04-11T13:41:55.893Z</time></trkpt><trkpt lat="44.6578593" lon="9.9302518"><ele>659.3333333333334</ele><time>2026-04-11T13:41:56.892Z</time></trkpt><trkpt lat="44.6579383" lon="9.9303158"><ele>657.1666666666667</ele><time>2026-04-11T13:41:57.892Z</time></trkpt><trkpt lat="44.6580039" lon="9.9303774"><ele>655.0</ele><time>2026-04-11T13:41:58.892Z</time></trkpt><trkpt lat="44.6580734" lon="9.9304239"><ele>652.6666666666667</ele><time>2026-04-11T13:41:59.892Z</time></trkpt><trkpt lat="44.6581518" lon="9.930462"><ele>650.3333333333334</ele><time>2026-04-11T13:42:00.892Z</time></trkpt><trkpt lat="44.6582308" lon="9.9304957"><ele>648.0</ele><time>2026-04-11T13:42:01.892Z</time></trkpt><trkpt lat="44.6582906" lon="9.9305295"><ele>645.6666666666666</ele><time>2026-04-11T13:42:02.892Z</time></trkpt><trkpt lat="44.6583286" lon="9.9306271"><ele>643.3333333333333</ele><time>2026-04-11T13:42:04.892Z</time></trkpt><trkpt lat="44.6582946" lon="9.9307605"><ele>641.0</ele><time>2026-04-11T13:42:06.892Z</time></trkpt><trkpt lat="44.6582263" lon="9.9309083"><ele>640.5714285714286</ele><time>2026-04-11T13:42:08.892Z</time></trkpt><trkpt lat="44.6581804" lon="9.9309862"><ele>640.1428571428571</ele><time>2026-04-11T13:42:09.891Z</time></trkpt><trkpt lat="44.6581384" lon="9.9310725"><ele>639.7142857142858</ele><time>2026-04-11T13:42:10.891Z</time></trkpt><trkpt lat="44.6580903" lon="9.931153"><ele>639.2857142857142</ele><time>2026-04-11T13:42:11.891Z</time></trkpt><trkpt lat="44.658046" lon="9.9312358"><ele>638.8571428571428</ele><time>2026-04-11T13:42:12.892Z</time></trkpt><trkpt lat="44.658027" lon="9.9313255"><ele>638.4285714285714</ele><time>2026-04-11T13:42:13.892Z</time></trkpt><trkpt lat="44.6580027" lon="9.9314089"><ele>638.0</ele><time>2026-04-11T13:42:14.892Z</time></trkpt><trkpt lat="44.6579742" lon="9.9315297"><ele>638.0</ele><time>2026-04-11T13:42:16.891Z</time></trkpt><trkpt lat="44.6579171" lon="9.931637"><ele>638.0</ele><time>2026-04-11T13:42:18.892Z</time></trkpt><trkpt lat="44.6578569" lon="9.9316897"><ele>638.0</ele><time>2026-04-11T13:42:19.892Z</time></trkpt><trkpt lat="44.6577747" lon="9.931734"><ele>638.0</ele><time>2026-04-11T13:42:20.892Z</time></trkpt><trkpt lat="44.6576765" lon="9.9318159"><ele>638.0</ele><time>2026-04-11T13:42:21.892Z</time></trkpt><trkpt lat="44.6575869" lon="9.9318882"><ele>638.0</ele><time>2026-04-11T13:42:22.892Z</time></trkpt><trkpt lat="44.6575324" lon="9.9319868"><ele>638.0</ele><time>2026-04-11T13:42:23.892Z</time></trkpt><trkpt lat="44.65746" lon="9.9321056"><ele>638.0</ele><time>2026-04-11T13:42:25.892Z</time></trkpt><trkpt lat="44.6574645" lon="9.9322075"><ele>638.0</ele><time>2026-04-11T13:42:26.892Z</time></trkpt><trkpt lat="44.6574535" lon="9.9323256"><ele>638.0</ele><time>2026-04-11T13:42:27.892Z</time></trkpt><trkpt lat="44.6574477" lon="9.9324263"><ele>638.0</ele><time>2026-04-11T13:42:28.892Z</time></trkpt><trkpt lat="44.6575666" lon="9.9324634"><ele>636.8</ele><time>2026-04-11T13:42:29.892Z</time></trkpt><trkpt lat="44.6576458" lon="9.9325864"><ele>635.5999999999999</ele><time>2026-04-11T13:42:31.892Z</time></trkpt><trkpt lat="44.6576815" lon="9.9326776"><ele>634.4000000000001</ele><time>2026-04-11T13:42:32.892Z</time></trkpt><trkpt lat="44.6576973" lon="9.9327661"><ele>633.2</ele><time>2026-04-11T13:42:33.892Z</time></trkpt><trkpt lat="44.6576969" lon="9.9329351"><ele>632.0</ele><time>2026-04-11T13:42:34.892Z</time></trkpt><trkpt lat="44.6577075" lon="9.9330621"><ele>632.0</ele><time>2026-04-11T13:42:35.892Z</time></trkpt><trkpt lat="44.6577231" lon="9.9332048"><ele>632.0</ele><time>2026-04-11T13:42:36.892Z</time></trkpt><trkpt lat="44.6577398" lon="9.9333237"><ele>632.0</ele><time>2026-04-11T13:42:37.893Z</time></trkpt><trkpt lat="44.657718" lon="9.9334247"><ele>632.0</ele><time>2026-04-11T13:42:38.892Z</time></trkpt><trkpt lat="44.6577221" lon="9.9335327"><ele>632.0</ele><time>2026-04-11T13:42:39.891Z</time></trkpt><trkpt lat="44.6577442" lon="9.9337083"><ele>631.0</ele><time>2026-04-11T13:42:41.891Z</time></trkpt><trkpt lat="44.657751" lon="9.9338002"><ele>630.0</ele><time>2026-04-11T13:42:42.891Z</time></trkpt><trkpt lat="44.6577439" lon="9.9339193"><ele>629.0</ele><time>2026-04-11T13:42:44.891Z</time></trkpt><trkpt lat="44.6577297" lon="9.9340767"><ele>628.0</ele><time>2026-04-11T13:42:46.891Z</time></trkpt><trkpt lat="44.6577209" lon="9.934212"><ele>627.0</ele><time>2026-04-11T13:42:48.892Z</time></trkpt><trkpt lat="44.6577123" lon="9.9343109"><ele>626.0</ele><time>2026-04-11T13:42:50.892Z</time></trkpt><trkpt lat="44.6577131" lon="9.9344507"><ele>625.4</ele><time>2026-04-11T13:42:52.892Z</time></trkpt><trkpt lat="44.657782" lon="9.934642"><ele>624.8</ele><time>2026-04-11T13:42:54.892Z</time></trkpt><trkpt lat="44.6578052" lon="9.9347502"><ele>624.1999999999999</ele><time>2026-04-11T13:42:55.892Z</time></trkpt><trkpt lat="44.657846" lon="9.9348511"><ele>623.6</ele><time>2026-04-11T13:42:56.893Z</time></trkpt><trkpt lat="44.6578341" lon="9.9349525"><ele>623.0</ele><time>2026-04-11T13:42:58.892Z</time></trkpt><trkpt lat="44.6578199" lon="9.9351434"><ele>620.8333333333333</ele><time>2026-04-11T13:43:00.892Z</time></trkpt><trkpt lat="44.6577825" lon="9.9352492"><ele>618.6666666666666</ele><time>2026-04-11T13:43:01.891Z</time></trkpt><trkpt lat="44.6576909" lon="9.9353128"><ele>616.5</ele><time>2026-04-11T13:43:02.892Z</time></trkpt><trkpt lat="44.6576418" lon="9.9353839"><ele>614.3333333333334</ele><time>2026-04-11T13:43:03.892Z</time></trkpt><trkpt lat="44.6575967" lon="9.9354739"><ele>612.1666666666667</ele><time>2026-04-11T13:43:04.892Z</time></trkpt><trkpt lat="44.6575748" lon="9.9355846"><ele>610.0</ele><time>2026-04-11T13:43:05.893Z</time></trkpt><trkpt lat="44.6575512" lon="9.9356834"><ele>610.0</ele><time>2026-04-11T13:43:06.892Z</time></trkpt><trkpt lat="44.65756" lon="9.9357809"><ele>610.0</ele><time>2026-04-11T13:43:07.892Z</time></trkpt><trkpt lat="44.6575749" lon="9.9358817"><ele>610.0</ele><time>2026-04-11T13:43:08.892Z</time></trkpt><trkpt lat="44.6576407" lon="9.9359496"><ele>610.0</ele><time>2026-04-11T13:43:09.892Z</time></trkpt><trkpt lat="44.6576896" lon="9.9360369"><ele>610.0</ele><time>2026-04-11T13:43:10.892Z</time></trkpt><trkpt lat="44.6577707" lon="9.9361379"><ele>610.0</ele><time>2026-04-11T13:43:11.892Z</time></trkpt><trkpt lat="44.6578298" lon="9.9362409"><ele>606.8333333333334</ele><time>2026-04-11T13:43:12.892Z</time></trkpt><trkpt lat="44.6578647" lon="9.9363368"><ele>603.6666666666667</ele><time>2026-04-11T13:43:13.892Z</time></trkpt><trkpt lat="44.6579047" lon="9.9364353"><ele>600.5</ele><time>2026-04-11T13:43:14.892Z</time></trkpt><trkpt lat="44.6579218" lon="9.9365355"><ele>597.3333333333334</ele><time>2026-04-11T13:43:15.893Z</time></trkpt><trkpt lat="44.6579477" lon="9.9366275"><ele>594.1666666666666</ele><time>2026-04-11T13:43:16.892Z</time></trkpt><trkpt lat="44.6579907" lon="9.9367393"><ele>591.0</ele><time>2026-04-11T13:43:18.892Z</time></trkpt><trkpt lat="44.6580461" lon="9.9368444"><ele>591.0</ele><time>2026-04-11T13:43:20.892Z</time></trkpt><trkpt lat="44.6581134" lon="9.9369987"><ele>591.0</ele><time>2026-04-11T13:43:22.892Z</time></trkpt><trkpt lat="44.6581327" lon="9.9370881"><ele>591.0</ele><time>2026-04-11T13:43:23.891Z</time></trkpt><trkpt lat="44.6581557" lon="9.9371725"><ele>591.0</ele><time>2026-04-11T13:43:24.891Z</time></trkpt><trkpt lat="44.658223" lon="9.9372402"><ele>591.0</ele><time>2026-04-11T13:43:25.893Z</time></trkpt><trkpt lat="44.6582919" lon="9.9373238"><ele>591.0</ele><time>2026-04-11T13:43:26.892Z</time></trkpt><trkpt lat="44.658356" lon="9.9373978"><ele>591.0</ele><time>2026-04-11T13:43:27.892Z</time></trkpt><trkpt lat="44.6584242" lon="9.9374501"><ele>591.0</ele><time>2026-04-11T13:43:28.891Z</time></trkpt><trkpt lat="44.658587" lon="9.9374841"><ele>591.0</ele><time>2026-04-11T13:43:30.892Z</time></trkpt><trkpt lat="44.6586879" lon="9.9375381"><ele>591.0</ele><time>2026-04-11T13:43:31.891Z</time></trkpt><trkpt lat="44.6587814" lon="9.9375876"><ele>591.0</ele><time>2026-04-11T13:43:32.892Z</time></trkpt><trkpt lat="44.658857" lon="9.937646"><ele>591.0</ele><time>2026-04-11T13:43:33.892Z</time></trkpt><trkpt lat="44.6589297" lon="9.9377024"><ele>591.0</ele><time>2026-04-11T13:43:34.891Z</time></trkpt><trkpt lat="44.659002" lon="9.9377856"><ele>591.0</ele><time>2026-04-11T13:43:35.892Z</time></trkpt><trkpt lat="44.6590827" lon="9.937864"><ele>591.0</ele><time>2026-04-11T13:43:36.892Z</time></trkpt><trkpt lat="44.6591608" lon="9.937907"><ele>591.0</ele><time>2026-04-11T13:43:37.892Z</time></trkpt><trkpt lat="44.6592486" lon="9.9379246"><ele>591.0</ele><time>2026-04-11T13:43:38.891Z</time></trkpt><trkpt lat="44.6593137" lon="9.9379284"><ele>591.0</ele><time>2026-04-11T13:43:39.892Z</time></trkpt><trkpt lat="44.6593818" lon="9.9379561"><ele>591.0</ele><time>2026-04-11T13:43:40.891Z</time></trkpt><trkpt lat="44.6594469" lon="9.9379915"><ele>591.0</ele><time>2026-04-11T13:43:41.891Z</time></trkpt><trkpt lat="44.6595108" lon="9.9380191"><ele>591.0</ele><time>2026-04-11T13:43:42.891Z</time></trkpt><trkpt lat="44.6595739" lon="9.9381079"><ele>591.0</ele><time>2026-04-11T13:43:43.891Z</time></trkpt><trkpt lat="44.6596136" lon="9.9382041"><ele>591.0</ele><time>2026-04-11T13:43:44.891Z</time></trkpt><trkpt lat="44.6596691" lon="9.9382975"><ele>590.0</ele><time>2026-04-11T13:43:45.891Z</time></trkpt><trkpt lat="44.6597063" lon="9.9384022"><ele>589.0</ele><time>2026-04-11T13:43:46.891Z</time></trkpt><trkpt lat="44.6597647" lon="9.9384933"><ele>588.0</ele><time>2026-04-11T13:43:47.891Z</time></trkpt><trkpt lat="44.6598231" lon="9.9385669"><ele>587.0</ele><time>2026-04-11T13:43:48.891Z</time></trkpt><trkpt lat="44.6598722" lon="9.9386854"><ele>586.0</ele><time>2026-04-11T13:43:49.892Z</time></trkpt><trkpt lat="44.6599309" lon="9.9387656"><ele>585.0</ele><time>2026-04-11T13:43:50.892Z</time></trkpt><trkpt lat="44.6599984" lon="9.9388768"><ele>585.0</ele><time>2026-04-11T13:43:51.892Z</time></trkpt><trkpt lat="44.6600677" lon="9.9389908"><ele>585.0</ele><time>2026-04-11T13:43:52.892Z</time></trkpt><trkpt lat="44.660127" lon="9.9391066"><ele>585.0</ele><time>2026-04-11T13:43:53.892Z</time></trkpt><trkpt lat="44.6601857" lon="9.9391905"><ele>585.0</ele><time>2026-04-11T13:43:54.892Z</time></trkpt><trkpt lat="44.660254" lon="9.9392422"><ele>585.0</ele><time>2026-04-11T13:43:55.892Z</time></trkpt><trkpt lat="44.6603119" lon="9.9393364"><ele>584.6666666666666</ele><time>2026-04-11T13:43:56.891Z</time></trkpt><trkpt lat="44.6603499" lon="9.9394124"><ele>584.3333333333334</ele><time>2026-04-11T13:43:57.891Z</time></trkpt><trkpt lat="44.6603922" lon="9.9395203"><ele>584.0</ele><time>2026-04-11T13:43:58.891Z</time></trkpt><trkpt lat="44.6604621" lon="9.9396213"><ele>583.6666666666667</ele><time>2026-04-11T13:43:59.892Z</time></trkpt><trkpt lat="44.6605198" lon="9.939692"><ele>583.3333333333334</ele><time>2026-04-11T13:44:00.892Z</time></trkpt><trkpt lat="44.6605507" lon="9.9397796"><ele>583.0</ele><time>2026-04-11T13:44:01.891Z</time></trkpt><trkpt lat="44.6605573" lon="9.9399111"><ele>583.0</ele><time>2026-04-11T13:44:02.892Z</time></trkpt><trkpt lat="44.6605837" lon="9.940035"><ele>583.0</ele><time>2026-04-11T13:44:03.892Z</time></trkpt><trkpt lat="44.6606133" lon="9.9401592"><ele>583.0</ele><time>2026-04-11T13:44:04.891Z</time></trkpt><trkpt lat="44.6606485" lon="9.9402828"><ele>583.0</ele><time>2026-04-11T13:44:05.891Z</time></trkpt><trkpt lat="44.6606974" lon="9.9403901"><ele>583.0</ele><time>2026-04-11T13:44:06.891Z</time></trkpt><trkpt lat="44.6607529" lon="9.9404676"><ele>583.0</ele><time>2026-04-11T13:44:07.891Z</time></trkpt><trkpt lat="44.6608556" lon="9.9405197"><ele>584.0</ele><time>2026-04-11T13:44:08.892Z</time></trkpt><trkpt lat="44.6609353" lon="9.9405997"><ele>585.0</ele><time>2026-04-11T13:44:09.892Z</time></trkpt><trkpt lat="44.6610195" lon="9.940682"><ele>586.0</ele><time>2026-04-11T13:44:10.892Z</time></trkpt><trkpt lat="44.6610508" lon="9.9408536"><ele>587.0</ele><time>2026-04-11T13:44:11.891Z</time></trkpt><trkpt lat="44.6610909" lon="9.9409765"><ele>588.0</ele><time>2026-04-11T13:44:12.892Z</time></trkpt><trkpt lat="44.6611105" lon="9.9411486"><ele>584.6</ele><time>2026-04-11T13:44:13.891Z</time></trkpt><trkpt lat="44.661127" lon="9.9412845"><ele>581.1999999999999</ele><time>2026-04-11T13:44:14.892Z</time></trkpt><trkpt lat="44.6611564" lon="9.9414275"><ele>577.8</ele><time>2026-04-11T13:44:15.891Z</time></trkpt><trkpt lat="44.661225" lon="9.9415074"><ele>574.4</ele><time>2026-04-11T13:44:17.891Z</time></trkpt><trkpt lat="44.6612614" lon="9.9415918"><ele>571.0</ele><time>2026-04-11T13:44:18.891Z</time></trkpt><trkpt lat="44.6612986" lon="9.94171"><ele>573.4</ele><time>2026-04-11T13:44:19.892Z</time></trkpt><trkpt lat="44.6613609" lon="9.9418323"><ele>575.8</ele><time>2026-04-11T13:44:20.892Z</time></trkpt><trkpt lat="44.6614288" lon="9.9419063"><ele>578.1999999999999</ele><time>2026-04-11T13:44:21.892Z</time></trkpt><trkpt lat="44.6614858" lon="9.9419913"><ele>580.6</ele><time>2026-04-11T13:44:22.892Z</time></trkpt><trkpt lat="44.6615691" lon="9.9420613"><ele>583.0</ele><time>2026-04-11T13:44:23.891Z</time></trkpt><trkpt lat="44.6616376" lon="9.9421504"><ele>583.0</ele><time>2026-04-11T13:44:24.891Z</time></trkpt><trkpt lat="44.6616699" lon="9.9422846"><ele>583.0</ele><time>2026-04-11T13:44:25.891Z</time></trkpt><trkpt lat="44.6617092" lon="9.9424111"><ele>583.0</ele><time>2026-04-11T13:44:26.891Z</time></trkpt><trkpt lat="44.6616493" lon="9.9425134"><ele>583.0</ele><time>2026-04-11T13:44:27.892Z</time></trkpt><trkpt lat="44.6616584" lon="9.9426204"><ele>583.0</ele><time>2026-04-11T13:44:28.893Z</time></trkpt><trkpt lat="44.6616497" lon="9.9427478"><ele>582.25</ele><time>2026-04-11T13:44:29.892Z</time></trkpt><trkpt lat="44.6616513" lon="9.9429218"><ele>581.5</ele><time>2026-04-11T13:44:30.891Z</time></trkpt><trkpt lat="44.6616447" lon="9.9431"><ele>580.75</ele><time>2026-04-11T13:44:31.891Z</time></trkpt><trkpt lat="44.6615956" lon="9.9433082"><ele>580.0</ele><time>2026-04-11T13:44:32.892Z</time></trkpt><trkpt lat="44.6615778" lon="9.9435053"><ele>576.6</ele><time>2026-04-11T13:44:33.892Z</time></trkpt><trkpt lat="44.6615393" lon="9.9436706"><ele>573.2</ele><time>2026-04-11T13:44:34.893Z</time></trkpt><trkpt lat="44.6615219" lon="9.9438117"><ele>569.8</ele><time>2026-04-11T13:44:35.892Z</time></trkpt><trkpt lat="44.661521" lon="9.943941"><ele>566.4</ele><time>2026-04-11T13:44:36.891Z</time></trkpt><trkpt lat="44.6615233" lon="9.9440687"><ele>563.0</ele><time>2026-04-11T13:44:37.891Z</time></trkpt><trkpt lat="44.6615517" lon="9.9441849"><ele>559.8</ele><time>2026-04-11T13:44:38.891Z</time></trkpt><trkpt lat="44.6615785" lon="9.9442924"><ele>556.5999999999999</ele><time>2026-04-11T13:44:39.891Z</time></trkpt><trkpt lat="44.6615949" lon="9.9444096"><ele>553.4000000000001</ele><time>2026-04-11T13:44:40.891Z</time></trkpt><trkpt lat="44.6616133" lon="9.9445514"><ele>550.2</ele><time>2026-04-11T13:44:41.892Z</time></trkpt><trkpt lat="44.6616052" lon="9.9446713"><ele>547.0</ele><time>2026-04-11T13:44:42.892Z</time></trkpt><trkpt lat="44.661584" lon="9.9448241"><ele>547.0</ele><time>2026-04-11T13:44:43.891Z</time></trkpt><trkpt lat="44.6615169" lon="9.9449996"><ele>547.0</ele><time>2026-04-11T13:44:45.892Z</time></trkpt><trkpt lat="44.6614967" lon="9.9451254"><ele>547.0</ele><time>2026-04-11T13:44:46.892Z</time></trkpt><trkpt lat="44.6614834" lon="9.9452275"><ele>547.0</ele><time>2026-04-11T13:44:47.893Z</time></trkpt><trkpt lat="44.6614742" lon="9.9453419"><ele>547.0</ele><time>2026-04-11T13:44:48.891Z</time></trkpt><trkpt lat="44.6614487" lon="9.9454674"><ele>546.0</ele><time>2026-04-11T13:44:49.891Z</time></trkpt><trkpt lat="44.6615243" lon="9.9455985"><ele>545.0</ele><time>2026-04-11T13:44:50.892Z</time></trkpt><trkpt lat="44.6615557" lon="9.9456992"><ele>544.0</ele><time>2026-04-11T13:44:51.891Z</time></trkpt><trkpt lat="44.6615743" lon="9.9458014"><ele>543.0</ele><time>2026-04-11T13:44:52.892Z</time></trkpt><trkpt lat="44.661591" lon="9.9458934"><ele>542.0</ele><time>2026-04-11T13:44:53.892Z</time></trkpt><trkpt lat="44.6616129" lon="9.9460654"><ele>542.0</ele><time>2026-04-11T13:44:55.891Z</time></trkpt><trkpt lat="44.6616036" lon="9.9461952"><ele>542.0</ele><time>2026-04-11T13:44:56.892Z</time></trkpt><trkpt lat="44.6615774" lon="9.9463586"><ele>542.0</ele><time>2026-04-11T13:44:57.892Z</time></trkpt><trkpt lat="44.6615425" lon="9.9465364"><ele>542.0</ele><time>2026-04-11T13:44:58.891Z</time></trkpt><trkpt lat="44.6615183" lon="9.9467628"><ele>545.0</ele><time>2026-04-11T13:44:59.893Z</time></trkpt><trkpt lat="44.661508" lon="9.9470109"><ele>548.0</ele><time>2026-04-11T13:45:00.892Z</time></trkpt><trkpt lat="44.6614783" lon="9.9472654"><ele>551.0</ele><time>2026-04-11T13:45:01.892Z</time></trkpt><trkpt lat="44.6614341" lon="9.9474851"><ele>550.25</ele><time>2026-04-11T13:45:02.892Z</time></trkpt><trkpt lat="44.6614004" lon="9.9477007"><ele>549.5</ele><time>2026-04-11T13:45:03.891Z</time></trkpt><trkpt lat="44.6613723" lon="9.9478908"><ele>548.75</ele><time>2026-04-11T13:45:04.892Z</time></trkpt><trkpt lat="44.6613424" lon="9.9480446"><ele>548.0</ele><time>2026-04-11T13:45:05.892Z</time></trkpt><trkpt lat="44.6612935" lon="9.9481731"><ele>548.0</ele><time>2026-04-11T13:45:06.892Z</time></trkpt><trkpt lat="44.661221" lon="9.9482648"><ele>548.0</ele><time>2026-04-11T13:45:07.892Z</time></trkpt><trkpt lat="44.6611383" lon="9.9483302"><ele>548.0</ele><time>2026-04-11T13:45:08.893Z</time></trkpt><trkpt lat="44.6610556" lon="9.9483682"><ele>548.0</ele><time>2026-04-11T13:45:09.892Z</time></trkpt><trkpt lat="44.6609938" lon="9.9484021"><ele>548.0</ele><time>2026-04-11T13:45:10.891Z</time></trkpt><trkpt lat="44.6609509" lon="9.948484"><ele>548.0</ele><time>2026-04-11T13:45:12.892Z</time></trkpt><trkpt lat="44.6608707" lon="9.9484856"><ele>548.0</ele><time>2026-04-11T14:10:06.884Z</time></trkpt><trkpt lat="44.660906" lon="9.9483773"><ele>548.0</ele><time>2026-04-11T14:11:23.884Z</time></trkpt><trkpt lat="44.6610118" lon="9.9483547"><ele>548.0</ele><time>2026-04-11T14:11:25.884Z</time></trkpt><trkpt lat="44.6610834" lon="9.9483452"><ele>548.0</ele><time>2026-04-11T14:11:26.884Z</time></trkpt><trkpt lat="44.6611611" lon="9.9483332"><ele>548.0</ele><time>2026-04-11T14:11:27.884Z</time></trkpt><trkpt lat="44.6612416" lon="9.9483283"><ele>548.0</ele><time>2026-04-11T14:11:28.883Z</time></trkpt><trkpt lat="44.6613292" lon="9.9483225"><ele>548.0</ele><time>2026-04-11T14:11:29.884Z</time></trkpt><trkpt lat="44.6614227" lon="9.9483179"><ele>548.0</ele><time>2026-04-11T14:11:30.884Z</time></trkpt><trkpt lat="44.661537" lon="9.9483238"><ele>548.0</ele><time>2026-04-11T14:11:31.883Z</time></trkpt><trkpt lat="44.661659" lon="9.9483416"><ele>548.0</ele><time>2026-04-11T14:11:32.884Z</time></trkpt><trkpt lat="44.6617889" lon="9.9483881"><ele>543.25</ele><time>2026-04-11T14:11:33.883Z</time></trkpt><trkpt lat="44.6619132" lon="9.9484513"><ele>538.5</ele><time>2026-04-11T14:11:34.883Z</time></trkpt><trkpt lat="44.662037" lon="9.9485143"><ele>533.75</ele><time>2026-04-11T14:11:35.883Z</time></trkpt><trkpt lat="44.6621639" lon="9.9485652"><ele>529.0</ele><time>2026-04-11T14:11:36.884Z</time></trkpt><trkpt lat="44.6622874" lon="9.948613"><ele>528.75</ele><time>2026-04-11T14:11:37.884Z</time></trkpt><trkpt lat="44.6624069" lon="9.948672"><ele>528.5</ele><time>2026-04-11T14:11:38.884Z</time></trkpt><trkpt lat="44.6625203" lon="9.948741"><ele>528.25</ele><time>2026-04-11T14:11:39.883Z</time></trkpt><trkpt lat="44.6626274" lon="9.9488192"><ele>528.0</ele><time>2026-04-11T14:11:40.883Z</time></trkpt><trkpt lat="44.6627316" lon="9.9489043"><ele>531.25</ele><time>2026-04-11T14:11:41.884Z</time></trkpt><trkpt lat="44.6628347" lon="9.9489863"><ele>534.5</ele><time>2026-04-11T14:11:42.883Z</time></trkpt><trkpt lat="44.6629398" lon="9.9490638"><ele>537.75</ele><time>2026-04-11T14:11:43.884Z</time></trkpt><trkpt lat="44.6630436" lon="9.9491338"><ele>541.0</ele><time>2026-04-11T14:11:44.883Z</time></trkpt><trkpt lat="44.6631503" lon="9.9491986"><ele>537.4</ele><time>2026-04-11T14:11:45.884Z</time></trkpt><trkpt lat="44.6632616" lon="9.9492617"><ele>533.8</ele><time>2026-04-11T14:11:46.883Z</time></trkpt><trkpt lat="44.663361" lon="9.9493142"><ele>530.1999999999999</ele><time>2026-04-11T14:11:47.883Z</time></trkpt><trkpt lat="44.66344" lon="9.9493873"><ele>526.6</ele><time>2026-04-11T14:11:48.884Z</time></trkpt><trkpt lat="44.6634846" lon="9.949484"><ele>523.0</ele><time>2026-04-11T14:11:49.884Z</time></trkpt><trkpt lat="44.6634924" lon="9.949594"><ele>523.0</ele><time>2026-04-11T14:11:50.884Z</time></trkpt><trkpt lat="44.6634596" lon="9.9496959"><ele>523.0</ele><time>2026-04-11T14:11:51.883Z</time></trkpt><trkpt lat="44.6633987" lon="9.9497623"><ele>523.0</ele><time>2026-04-11T14:11:52.884Z</time></trkpt><trkpt lat="44.6633222" lon="9.9497825"><ele>523.0</ele><time>2026-04-11T14:11:53.883Z</time></trkpt><trkpt lat="44.663234" lon="9.9497687"><ele>523.0</ele><time>2026-04-11T14:11:54.884Z</time></trkpt><trkpt lat="44.6631404" lon="9.9497393"><ele>523.0</ele><time>2026-04-11T14:11:55.883Z</time></trkpt><trkpt lat="44.6630411" lon="9.9497009"><ele>523.0</ele><time>2026-04-11T14:11:56.883Z</time></trkpt><trkpt lat="44.6629404" lon="9.949656"><ele>523.0</ele><time>2026-04-11T14:11:57.883Z</time></trkpt><trkpt lat="44.6628378" lon="9.9496171"><ele>523.0</ele><time>2026-04-11T14:11:58.883Z</time></trkpt><trkpt lat="44.6627316" lon="9.9495769"><ele>523.0</ele><time>2026-04-11T14:11:59.883Z</time></trkpt><trkpt lat="44.6626192" lon="9.9495392"><ele>523.0</ele><time>2026-04-11T14:12:00.882Z</time></trkpt><trkpt lat="44.6625026" lon="9.9495122"><ele>520.1999999999999</ele><time>2026-04-11T14:12:01.883Z</time></trkpt><trkpt lat="44.6623857" lon="9.9495102"><ele>517.4</ele><time>2026-04-11T14:12:02.882Z</time></trkpt><trkpt lat="44.6622741" lon="9.9495253"><ele>514.5999999999999</ele><time>2026-04-11T14:12:03.883Z</time></trkpt><trkpt lat="44.6621642" lon="9.9495566"><ele>511.79999999999995</ele><time>2026-04-11T14:12:04.883Z</time></trkpt><trkpt lat="44.6620594" lon="9.9495864"><ele>509.0</ele><time>2026-04-11T14:12:05.882Z</time></trkpt><trkpt lat="44.6619522" lon="9.9496106"><ele>508.66666666666663</ele><time>2026-04-11T14:12:06.883Z</time></trkpt><trkpt lat="44.6618464" lon="9.949632"><ele>508.3333333333333</ele><time>2026-04-11T14:12:07.883Z</time></trkpt><trkpt lat="44.6617439" lon="9.9496446"><ele>508.0</ele><time>2026-04-11T14:12:08.883Z</time></trkpt><trkpt lat="44.6616565" lon="9.9496599"><ele>507.66666666666663</ele><time>2026-04-11T14:12:09.883Z</time></trkpt><trkpt lat="44.6615792" lon="9.9496871"><ele>507.3333333333333</ele><time>2026-04-11T14:12:10.883Z</time></trkpt><trkpt lat="44.6615202" lon="9.949745"><ele>507.0</ele><time>2026-04-11T14:12:11.883Z</time></trkpt><trkpt lat="44.6614979" lon="9.949919"><ele>507.0</ele><time>2026-04-11T14:12:13.883Z</time></trkpt><trkpt lat="44.6615387" lon="9.9500022"><ele>507.0</ele><time>2026-04-11T14:12:14.883Z</time></trkpt><trkpt lat="44.6616026" lon="9.9500582"><ele>507.0</ele><time>2026-04-11T14:12:15.883Z</time></trkpt><trkpt lat="44.6616891" lon="9.9500911"><ele>507.0</ele><time>2026-04-11T14:12:16.882Z</time></trkpt><trkpt lat="44.6617796" lon="9.9500955"><ele>507.0</ele><time>2026-04-11T14:12:17.882Z</time></trkpt><trkpt lat="44.6618712" lon="9.9501205"><ele>507.0</ele><time>2026-04-11T14:12:18.883Z</time></trkpt><trkpt lat="44.6619595" lon="9.9501786"><ele>504.8</ele><time>2026-04-11T14:12:19.883Z</time></trkpt><trkpt lat="44.6620336" lon="9.9502629"><ele>502.6</ele><time>2026-04-11T14:12:20.882Z</time></trkpt><trkpt lat="44.6620881" lon="9.9503932"><ele>500.40000000000003</ele><time>2026-04-11T14:12:21.883Z</time></trkpt><trkpt lat="44.6621364" lon="9.9505289"><ele>498.20000000000005</ele><time>2026-04-11T14:12:22.883Z</time></trkpt><trkpt lat="44.6621834" lon="9.9506793"><ele>496.0</ele><time>2026-04-11T14:12:23.882Z</time></trkpt><trkpt lat="44.6622293" lon="9.9508361"><ele>492.5</ele><time>2026-04-11T14:12:24.883Z</time></trkpt><trkpt lat="44.662284" lon="9.950993"><ele>489.0</ele><time>2026-04-11T14:12:25.882Z</time></trkpt><trkpt lat="44.6623468" lon="9.9511302"><ele>485.5</ele><time>2026-04-11T14:12:26.883Z</time></trkpt><trkpt lat="44.6624143" lon="9.9512647"><ele>482.0</ele><time>2026-04-11T14:12:27.882Z</time></trkpt><trkpt lat="44.662474" lon="9.9513786"><ele>481.99999999999994</ele><time>2026-04-11T14:12:28.883Z</time></trkpt><trkpt lat="44.6625329" lon="9.9514721"><ele>482.0</ele><time>2026-04-11T14:12:29.883Z</time></trkpt><trkpt lat="44.6626048" lon="9.9515331"><ele>482.0</ele><time>2026-04-11T14:12:30.882Z</time></trkpt><trkpt lat="44.662681" lon="9.9515667"><ele>482.0</ele><time>2026-04-11T14:12:31.883Z</time></trkpt><trkpt lat="44.6627532" lon="9.9515896"><ele>481.99999999999994</ele><time>2026-04-11T14:12:32.883Z</time></trkpt><trkpt lat="44.6628135" lon="9.9516296"><ele>482.0</ele><time>2026-04-11T14:12:33.883Z</time></trkpt><trkpt lat="44.6628621" lon="9.95169"><ele>479.20000000000005</ele><time>2026-04-11T14:12:34.883Z</time></trkpt><trkpt lat="44.6628874" lon="9.9517794"><ele>476.40000000000003</ele><time>2026-04-11T14:12:35.882Z</time></trkpt><trkpt lat="44.6628885" lon="9.9518736"><ele>473.59999999999997</ele><time>2026-04-11T14:12:36.883Z</time></trkpt><trkpt lat="44.6628652" lon="9.9519573"><ele>470.79999999999995</ele><time>2026-04-11T14:12:37.883Z</time></trkpt><trkpt lat="44.66276" lon="9.9520521"><ele>468.0</ele><time>2026-04-11T14:12:39.883Z</time></trkpt><trkpt lat="44.6626348" lon="9.9520589"><ele>468.0</ele><time>2026-04-11T14:12:41.882Z</time></trkpt><trkpt lat="44.6625193" lon="9.95202"><ele>467.99999999999994</ele><time>2026-04-11T14:12:43.883Z</time></trkpt><trkpt lat="44.6624139" lon="9.9519656"><ele>467.99999999999994</ele><time>2026-04-11T14:12:45.883Z</time></trkpt><trkpt lat="44.6623224" lon="9.9518605"><ele>468.0</ele><time>2026-04-11T14:12:47.883Z</time></trkpt><trkpt lat="44.6622815" lon="9.9517901"><ele>468.0</ele><time>2026-04-11T14:12:48.883Z</time></trkpt><trkpt lat="44.6622456" lon="9.9517125"><ele>468.8571428571429</ele><time>2026-04-11T14:12:49.883Z</time></trkpt><trkpt lat="44.662203" lon="9.951633"><ele>469.7142857142858</ele><time>2026-04-11T14:12:50.883Z</time></trkpt><trkpt lat="44.6621468" lon="9.9515767"><ele>470.57142857142856</ele><time>2026-04-11T14:12:51.882Z</time></trkpt><trkpt lat="44.6620783" lon="9.9515496"><ele>471.42857142857144</ele><time>2026-04-11T14:12:52.883Z</time></trkpt><trkpt lat="44.6620078" lon="9.9515508"><ele>472.2857142857143</ele><time>2026-04-11T14:12:53.882Z</time></trkpt><trkpt lat="44.6619375" lon="9.9515717"><ele>473.1428571428571</ele><time>2026-04-11T14:12:54.883Z</time></trkpt><trkpt lat="44.661872" lon="9.9515993"><ele>473.99999999999994</ele><time>2026-04-11T14:12:55.883Z</time></trkpt><trkpt lat="44.6618072" lon="9.9516221"><ele>473.99999999999994</ele><time>2026-04-11T14:12:56.882Z</time></trkpt><trkpt lat="44.6617417" lon="9.9516369"><ele>474.0</ele><time>2026-04-11T14:12:57.883Z</time></trkpt><trkpt lat="44.6616705" lon="9.9516469"><ele>473.99999999999994</ele><time>2026-04-11T14:12:58.883Z</time></trkpt><trkpt lat="44.661597" lon="9.9516683"><ele>473.99999999999994</ele><time>2026-04-11T14:12:59.883Z</time></trkpt><trkpt lat="44.6615313" lon="9.9517037"><ele>474.0</ele><time>2026-04-11T14:13:00.883Z</time></trkpt><trkpt lat="44.6614725" lon="9.9517588"><ele>473.99999999999994</ele><time>2026-04-11T14:13:01.883Z</time></trkpt><trkpt lat="44.6614296" lon="9.9518417"><ele>473.99999999999994</ele><time>2026-04-11T14:13:02.882Z</time></trkpt><trkpt lat="44.6614041" lon="9.9519426"><ele>471.6666666666667</ele><time>2026-04-11T14:13:03.883Z</time></trkpt><trkpt lat="44.661392" lon="9.9520593"><ele>469.33333333333337</ele><time>2026-04-11T14:13:04.883Z</time></trkpt><trkpt lat="44.6613904" lon="9.9521733"><ele>467.0</ele><time>2026-04-11T14:13:05.883Z</time></trkpt><trkpt lat="44.6613921" lon="9.952292"><ele>464.6666666666667</ele><time>2026-04-11T14:13:06.882Z</time></trkpt><trkpt lat="44.6613996" lon="9.952415"><ele>462.33333333333337</ele><time>2026-04-11T14:13:07.883Z</time></trkpt><trkpt lat="44.66143" lon="9.9525322"><ele>460.0</ele><time>2026-04-11T14:13:08.884Z</time></trkpt><trkpt lat="44.6614841" lon="9.9526346"><ele>457.4</ele><time>2026-04-11T14:13:09.883Z</time></trkpt><trkpt lat="44.6615531" lon="9.9527229"><ele>454.8</ele><time>2026-04-11T14:13:10.883Z</time></trkpt><trkpt lat="44.6616266" lon="9.9528091"><ele>452.20000000000005</ele><time>2026-04-11T14:13:11.883Z</time></trkpt><trkpt lat="44.6616978" lon="9.9528889"><ele>449.6</ele><time>2026-04-11T14:13:12.882Z</time></trkpt><trkpt lat="44.6617777" lon="9.9529661"><ele>447.0</ele><time>2026-04-11T14:13:13.883Z</time></trkpt><trkpt lat="44.661868" lon="9.9530179"><ele>447.3333333333333</ele><time>2026-04-11T14:13:14.882Z</time></trkpt><trkpt lat="44.6619617" lon="9.9530387"><ele>447.66666666666663</ele><time>2026-04-11T14:13:15.883Z</time></trkpt><trkpt lat="44.6620509" lon="9.9530194"><ele>448.0</ele><time>2026-04-11T14:13:16.882Z</time></trkpt><trkpt lat="44.6621386" lon="9.9529906"><ele>448.3333333333333</ele><time>2026-04-11T14:13:17.883Z</time></trkpt><trkpt lat="44.6622199" lon="9.9529994"><ele>448.66666666666663</ele><time>2026-04-11T14:13:18.883Z</time></trkpt><trkpt lat="44.6622866" lon="9.9530559"><ele>449.0</ele><time>2026-04-11T14:13:19.883Z</time></trkpt><trkpt lat="44.6623182" lon="9.9531512"><ele>448.99999999999994</ele><time>2026-04-11T14:13:20.883Z</time></trkpt><trkpt lat="44.662311" lon="9.9532612"><ele>449.0</ele><time>2026-04-11T14:13:21.883Z</time></trkpt><trkpt lat="44.6622722" lon="9.9533621"><ele>449.0</ele><time>2026-04-11T14:13:22.883Z</time></trkpt><trkpt lat="44.6622237" lon="9.953454"><ele>449.0</ele><time>2026-04-11T14:13:23.883Z</time></trkpt><trkpt lat="44.6621642" lon="9.9535436"><ele>448.99999999999994</ele><time>2026-04-11T14:13:24.883Z</time></trkpt><trkpt lat="44.6620955" lon="9.9536291"><ele>449.0</ele><time>2026-04-11T14:13:25.882Z</time></trkpt><trkpt lat="44.6620117" lon="9.9536832"><ele>445.79999999999995</ele><time>2026-04-11T14:13:26.883Z</time></trkpt><trkpt lat="44.6619204" lon="9.9536929"><ele>442.59999999999997</ele><time>2026-04-11T14:13:27.883Z</time></trkpt><trkpt lat="44.6618312" lon="9.9536858"><ele>439.4</ele><time>2026-04-11T14:13:28.883Z</time></trkpt><trkpt lat="44.6617408" lon="9.9536931"><ele>436.2</ele><time>2026-04-11T14:13:29.883Z</time></trkpt><trkpt lat="44.6616498" lon="9.9537171"><ele>433.0</ele><time>2026-04-11T14:13:30.883Z</time></trkpt><trkpt lat="44.661556" lon="9.9537578"><ele>433.00000000000006</ele><time>2026-04-11T14:13:31.883Z</time></trkpt><trkpt lat="44.6614696" lon="9.9537955"><ele>433.0</ele><time>2026-04-11T14:13:32.883Z</time></trkpt><trkpt lat="44.6613797" lon="9.9538317"><ele>433.0</ele><time>2026-04-11T14:13:33.882Z</time></trkpt><trkpt lat="44.6612974" lon="9.9538693"><ele>433.0</ele><time>2026-04-11T14:13:34.883Z</time></trkpt><trkpt lat="44.6612415" lon="9.953938"><ele>433.00000000000006</ele><time>2026-04-11T14:13:35.883Z</time></trkpt><trkpt lat="44.6611996" lon="9.9540252"><ele>433.0</ele><time>2026-04-11T14:13:36.883Z</time></trkpt><trkpt lat="44.661225" lon="9.9541228"><ele>433.00000000000006</ele><time>2026-04-11T14:13:37.883Z</time></trkpt><trkpt lat="44.6612653" lon="9.9542035"><ele>433.0</ele><time>2026-04-11T14:13:38.883Z</time></trkpt><trkpt lat="44.661332" lon="9.9542376"><ele>433.0</ele><time>2026-04-11T14:13:39.882Z</time></trkpt><trkpt lat="44.6613934" lon="9.9542595"><ele>433.0</ele><time>2026-04-11T14:13:40.883Z</time></trkpt><trkpt lat="44.6614717" lon="9.9541843"><ele>433.00000000000006</ele><time>2026-04-11T14:13:41.882Z</time></trkpt><trkpt lat="44.6615364" lon="9.9541409"><ele>433.0</ele><time>2026-04-11T14:13:42.883Z</time></trkpt><trkpt lat="44.6616157" lon="9.9541327"><ele>432.99999999999994</ele><time>2026-04-11T14:13:43.882Z</time></trkpt><trkpt lat="44.6616725" lon="9.9541846"><ele>433.0</ele><time>2026-04-11T14:13:44.883Z</time></trkpt><trkpt lat="44.6617041" lon="9.9542723"><ele>433.0</ele><time>2026-04-11T14:13:45.882Z</time></trkpt><trkpt lat="44.6616897" lon="9.9543643"><ele>433.0</ele><time>2026-04-11T14:13:46.883Z</time></trkpt><trkpt lat="44.661639" lon="9.9544217"><ele>433.0</ele><time>2026-04-11T14:13:47.882Z</time></trkpt><trkpt lat="44.6615719" lon="9.9544467"><ele>432.99999999999994</ele><time>2026-04-11T14:13:48.882Z</time></trkpt><trkpt lat="44.6614965" lon="9.9544478"><ele>433.0</ele><time>2026-04-11T14:13:49.883Z</time></trkpt><trkpt lat="44.6614198" lon="9.9544332"><ele>430.71428571428567</ele><time>2026-04-11T14:13:50.883Z</time></trkpt><trkpt lat="44.6613462" lon="9.9544424"><ele>428.42857142857144</ele><time>2026-04-11T14:13:51.882Z</time></trkpt><trkpt lat="44.6612835" lon="9.9544868"><ele>426.1428571428571</ele><time>2026-04-11T14:13:52.883Z</time></trkpt><trkpt lat="44.6612473" lon="9.9545659"><ele>423.85714285714283</ele><time>2026-04-11T14:13:53.883Z</time></trkpt><trkpt lat="44.6612449" lon="9.9546663"><ele>421.57142857142856</ele><time>2026-04-11T14:13:54.882Z</time></trkpt><trkpt lat="44.6612712" lon="9.9547536"><ele>419.2857142857143</ele><time>2026-04-11T14:13:55.883Z</time></trkpt><trkpt lat="44.6613211" lon="9.9548287"><ele>417.0</ele><time>2026-04-11T14:13:56.882Z</time></trkpt><trkpt lat="44.6613921" lon="9.9548887"><ele>417.0</ele><time>2026-04-11T14:13:57.883Z</time></trkpt><trkpt lat="44.661466" lon="9.954937"><ele>417.0</ele><time>2026-04-11T14:13:58.883Z</time></trkpt><trkpt lat="44.6615656" lon="9.9549474"><ele>417.0</ele><time>2026-04-11T14:13:59.882Z</time></trkpt><trkpt lat="44.6616542" lon="9.9549446"><ele>417.0</ele><time>2026-04-11T14:14:00.883Z</time></trkpt><trkpt lat="44.6617488" lon="9.9549258"><ele>417.0</ele><time>2026-04-11T14:14:01.883Z</time></trkpt><trkpt lat="44.6618367" lon="9.9548996"><ele>417.0</ele><time>2026-04-11T14:14:02.883Z</time></trkpt><trkpt lat="44.6619264" lon="9.954867"><ele>417.0</ele><time>2026-04-11T14:14:03.882Z</time></trkpt><trkpt lat="44.6620104" lon="9.9548224"><ele>417.0</ele><time>2026-04-11T14:14:04.883Z</time></trkpt><trkpt lat="44.6620858" lon="9.954762"><ele>417.0</ele><time>2026-04-11T14:14:05.882Z</time></trkpt><trkpt lat="44.6621643" lon="9.9546973"><ele>417.0</ele><time>2026-04-11T14:14:06.883Z</time></trkpt><trkpt lat="44.6622466" lon="9.9546369"><ele>415.8333333333333</ele><time>2026-04-11T14:14:07.882Z</time></trkpt><trkpt lat="44.6623295" lon="9.9545943"><ele>414.66666666666663</ele><time>2026-04-11T14:14:08.882Z</time></trkpt><trkpt lat="44.6624175" lon="9.9545672"><ele>413.5</ele><time>2026-04-11T14:14:09.883Z</time></trkpt><trkpt lat="44.6625056" lon="9.9545715"><ele>412.3333333333333</ele><time>2026-04-11T14:14:10.883Z</time></trkpt><trkpt lat="44.6625883" lon="9.9545984"><ele>411.16666666666663</ele><time>2026-04-11T14:14:11.882Z</time></trkpt><trkpt lat="44.6626686" lon="9.9546448"><ele>410.0</ele><time>2026-04-11T14:14:12.883Z</time></trkpt><trkpt lat="44.6627504" lon="9.9546951"><ele>408.4</ele><time>2026-04-11T14:14:13.883Z</time></trkpt><trkpt lat="44.6628336" lon="9.9547441"><ele>406.8</ele><time>2026-04-11T14:14:14.883Z</time></trkpt><trkpt lat="44.6629178" lon="9.9547863"><ele>405.20000000000005</ele><time>2026-04-11T14:14:15.883Z</time></trkpt><trkpt lat="44.6629932" lon="9.9548409"><ele>403.6</ele><time>2026-04-11T14:14:16.883Z</time></trkpt><trkpt lat="44.6630447" lon="9.954925"><ele>402.0</ele><time>2026-04-11T14:14:17.882Z</time></trkpt><trkpt lat="44.6630378" lon="9.9551146"><ele>400.8333333333333</ele><time>2026-04-11T14:14:19.882Z</time></trkpt><trkpt lat="44.6629735" lon="9.9551707"><ele>399.66666666666663</ele><time>2026-04-11T14:14:20.883Z</time></trkpt><trkpt lat="44.6629002" lon="9.9552052"><ele>398.5</ele><time>2026-04-11T14:14:21.883Z</time></trkpt><trkpt lat="44.6628097" lon="9.9552315"><ele>397.3333333333333</ele><time>2026-04-11T14:14:22.884Z</time></trkpt><trkpt lat="44.6627182" lon="9.9552603"><ele>396.16666666666663</ele><time>2026-04-11T14:14:23.883Z</time></trkpt><trkpt lat="44.6626278" lon="9.9553121"><ele>395.0</ele><time>2026-04-11T14:14:24.883Z</time></trkpt><trkpt lat="44.6625433" lon="9.9553779"><ele>395.0</ele><time>2026-04-11T14:14:25.883Z</time></trkpt><trkpt lat="44.6624612" lon="9.9554607"><ele>395.0</ele><time>2026-04-11T14:14:26.883Z</time></trkpt><trkpt lat="44.6623845" lon="9.9555483"><ele>395.0</ele><time>2026-04-11T14:14:27.883Z</time></trkpt><trkpt lat="44.6623163" lon="9.9556414"><ele>395.0</ele><time>2026-04-11T14:14:28.883Z</time></trkpt><trkpt lat="44.6622501" lon="9.9557478"><ele>395.0</ele><time>2026-04-11T14:14:29.882Z</time></trkpt><trkpt lat="44.6621869" lon="9.9558556"><ele>392.8</ele><time>2026-04-11T14:14:30.883Z</time></trkpt><trkpt lat="44.662123" lon="9.9559592"><ele>390.6</ele><time>2026-04-11T14:14:31.883Z</time></trkpt><trkpt lat="44.6620673" lon="9.9560601"><ele>388.4</ele><time>2026-04-11T14:14:32.882Z</time></trkpt><trkpt lat="44.6620318" lon="9.9561767"><ele>386.2</ele><time>2026-04-11T14:14:33.882Z</time></trkpt><trkpt lat="44.6620195" lon="9.9563041"><ele>384.0</ele><time>2026-04-11T14:14:34.883Z</time></trkpt><trkpt lat="44.6620263" lon="9.9564319"><ele>384.0</ele><time>2026-04-11T14:14:35.883Z</time></trkpt><trkpt lat="44.6620274" lon="9.956699"><ele>384.0</ele><time>2026-04-11T14:14:37.883Z</time></trkpt><trkpt lat="44.6620084" lon="9.9568362"><ele>384.0</ele><time>2026-04-11T14:14:38.883Z</time></trkpt><trkpt lat="44.6619719" lon="9.956964"><ele>384.0</ele><time>2026-04-11T14:14:39.883Z</time></trkpt><trkpt lat="44.6619229" lon="9.9570861"><ele>383.0</ele><time>2026-04-11T14:14:40.882Z</time></trkpt><trkpt lat="44.6618566" lon="9.9571986"><ele>382.0</ele><time>2026-04-11T14:14:41.883Z</time></trkpt><trkpt lat="44.661786" lon="9.9572992"><ele>381.0</ele><time>2026-04-11T14:14:42.883Z</time></trkpt><trkpt lat="44.6617203" lon="9.9574026"><ele>380.0</ele><time>2026-04-11T14:14:43.882Z</time></trkpt><trkpt lat="44.6616583" lon="9.9575173"><ele>379.0</ele><time>2026-04-11T14:14:44.882Z</time></trkpt><trkpt lat="44.6616098" lon="9.9576415"><ele>377.0</ele><time>2026-04-11T14:14:45.883Z</time></trkpt><trkpt lat="44.6615687" lon="9.9577763"><ele>375.0</ele><time>2026-04-11T14:14:46.883Z</time></trkpt><trkpt lat="44.6615398" lon="9.9579179"><ele>373.0</ele><time>2026-04-11T14:14:47.883Z</time></trkpt><trkpt lat="44.6615149" lon="9.9580654"><ele>371.0</ele><time>2026-04-11T14:14:48.883Z</time></trkpt><trkpt lat="44.6614909" lon="9.95821"><ele>369.0</ele><time>2026-04-11T14:14:49.882Z</time></trkpt><trkpt lat="44.6614675" lon="9.9583536"><ele>367.0</ele><time>2026-04-11T14:14:50.884Z</time></trkpt><trkpt lat="44.6614382" lon="9.9584957"><ele>365.0</ele><time>2026-04-11T14:14:51.883Z</time></trkpt><trkpt lat="44.6614124" lon="9.9586384"><ele>363.0</ele><time>2026-04-11T14:14:52.882Z</time></trkpt><trkpt lat="44.661383" lon="9.9587839"><ele>361.0</ele><time>2026-04-11T14:14:53.882Z</time></trkpt><trkpt lat="44.6613537" lon="9.9589298"><ele>359.0</ele><time>2026-04-11T14:14:54.883Z</time></trkpt><trkpt lat="44.6613227" lon="9.9590746"><ele>357.4</ele><time>2026-04-11T14:14:55.883Z</time></trkpt><trkpt lat="44.661288" lon="9.9592185"><ele>355.79999999999995</ele><time>2026-04-11T14:14:56.883Z</time></trkpt><trkpt lat="44.6612565" lon="9.9593629"><ele>354.20000000000005</ele><time>2026-04-11T14:14:57.883Z</time></trkpt><trkpt lat="44.6612301" lon="9.9595053"><ele>352.6</ele><time>2026-04-11T14:14:58.882Z</time></trkpt><trkpt lat="44.6612132" lon="9.9596464"><ele>351.0</ele><time>2026-04-11T14:14:59.883Z</time></trkpt><trkpt lat="44.6612208" lon="9.959791"><ele>351.0</ele><time>2026-04-11T14:15:00.882Z</time></trkpt><trkpt lat="44.6612486" lon="9.9599274"><ele>351.0</ele><time>2026-04-11T14:15:01.883Z</time></trkpt><trkpt lat="44.661291" lon="9.9600421"><ele>351.0</ele><time>2026-04-11T14:15:02.883Z</time></trkpt><trkpt lat="44.661332" lon="9.9601632"><ele>351.0</ele><time>2026-04-11T14:15:03.883Z</time></trkpt><trkpt lat="44.6613572" lon="9.9602873"><ele>351.0</ele><time>2026-04-11T14:15:04.883Z</time></trkpt><trkpt lat="44.6613653" lon="9.9604112"><ele>350.5</ele><time>2026-04-11T14:15:05.883Z</time></trkpt><trkpt lat="44.6613658" lon="9.9605342"><ele>350.0</ele><time>2026-04-11T14:15:06.883Z</time></trkpt><trkpt lat="44.6613643" lon="9.9606561"><ele>349.5</ele><time>2026-04-11T14:15:07.882Z</time></trkpt><trkpt lat="44.661359" lon="9.9607743"><ele>349.0</ele><time>2026-04-11T14:15:08.883Z</time></trkpt><trkpt lat="44.6613403" lon="9.9608892"><ele>348.5</ele><time>2026-04-11T14:15:09.882Z</time></trkpt><trkpt lat="44.6613011" lon="9.9609936"><ele>348.0</ele><time>2026-04-11T14:15:10.883Z</time></trkpt><trkpt lat="44.6612327" lon="9.9610663"><ele>347.6666666666667</ele><time>2026-04-11T14:15:11.882Z</time></trkpt><trkpt lat="44.6611523" lon="9.9610939"><ele>347.3333333333333</ele><time>2026-04-11T14:15:12.883Z</time></trkpt><trkpt lat="44.6610744" lon="9.9610924"><ele>347.0</ele><time>2026-04-11T14:15:13.883Z</time></trkpt><trkpt lat="44.6610067" lon="9.9610688"><ele>346.66666666666663</ele><time>2026-04-11T14:15:14.883Z</time></trkpt><trkpt lat="44.6609472" lon="9.9610145"><ele>346.3333333333333</ele><time>2026-04-11T14:15:15.882Z</time></trkpt><trkpt lat="44.6608997" lon="9.960936"><ele>346.0</ele><time>2026-04-11T14:15:16.882Z</time></trkpt><trkpt lat="44.6608539" lon="9.9608448"><ele>346.0</ele><time>2026-04-11T14:15:17.883Z</time></trkpt><trkpt lat="44.6608177" lon="9.9607419"><ele>346.0</ele><time>2026-04-11T14:15:18.882Z</time></trkpt><trkpt lat="44.6608014" lon="9.9606256"><ele>346.0</ele><time>2026-04-11T14:15:19.883Z</time></trkpt><trkpt lat="44.6608129" lon="9.9605065"><ele>346.0</ele><time>2026-04-11T14:15:20.883Z</time></trkpt><trkpt lat="44.6608388" lon="9.960388"><ele>346.0</ele><time>2026-04-11T14:15:21.884Z</time></trkpt><trkpt lat="44.6608583" lon="9.9602629"><ele>346.0</ele><time>2026-04-11T14:15:22.883Z</time></trkpt><trkpt lat="44.6608472" lon="9.9601403"><ele>346.8333333333333</ele><time>2026-04-11T14:15:23.883Z</time></trkpt><trkpt lat="44.6608149" lon="9.9600312"><ele>347.66666666666663</ele><time>2026-04-11T14:15:24.883Z</time></trkpt><trkpt lat="44.6607627" lon="9.9599372"><ele>348.5</ele><time>2026-04-11T14:15:25.882Z</time></trkpt><trkpt lat="44.6606995" lon="9.9598672"><ele>349.3333333333333</ele><time>2026-04-11T14:15:26.883Z</time></trkpt><trkpt lat="44.6606225" lon="9.9598155"><ele>350.1666666666667</ele><time>2026-04-11T14:15:27.883Z</time></trkpt><trkpt lat="44.6605343" lon="9.959778"><ele>351.0</ele><time>2026-04-11T14:15:28.883Z</time></trkpt><trkpt lat="44.6604385" lon="9.9597469"><ele>351.0</ele><time>2026-04-11T14:15:29.883Z</time></trkpt><trkpt lat="44.6603321" lon="9.9597245"><ele>351.0</ele><time>2026-04-11T14:15:30.883Z</time></trkpt><trkpt lat="44.6602176" lon="9.9597259"><ele>351.0</ele><time>2026-04-11T14:15:31.882Z</time></trkpt><trkpt lat="44.6601012" lon="9.9597273"><ele>351.0</ele><time>2026-04-11T14:15:32.884Z</time></trkpt><trkpt lat="44.6599839" lon="9.9597208"><ele>349.4</ele><time>2026-04-11T14:15:33.882Z</time></trkpt><trkpt lat="44.6598711" lon="9.9597121"><ele>347.8</ele><time>2026-04-11T14:15:34.882Z</time></trkpt><trkpt lat="44.659761" lon="9.9597026"><ele>346.2</ele><time>2026-04-11T14:15:35.883Z</time></trkpt><trkpt lat="44.6596505" lon="9.9596984"><ele>344.59999999999997</ele><time>2026-04-11T14:15:36.882Z</time></trkpt><trkpt lat="44.6595425" lon="9.9597088"><ele>343.0</ele><time>2026-04-11T14:15:37.883Z</time></trkpt><trkpt lat="44.6594398" lon="9.9597543"><ele>343.0</ele><time>2026-04-11T14:15:38.883Z</time></trkpt><trkpt lat="44.6593506" lon="9.9598273"><ele>343.0</ele><time>2026-04-11T14:15:39.882Z</time></trkpt><trkpt lat="44.6592652" lon="9.9599207"><ele>343.0</ele><time>2026-04-11T14:15:40.883Z</time></trkpt><trkpt lat="44.6591865" lon="9.9600251"><ele>343.0</ele><time>2026-04-11T14:15:41.883Z</time></trkpt><trkpt lat="44.6591091" lon="9.9601298"><ele>343.0</ele><time>2026-04-11T14:15:42.883Z</time></trkpt><trkpt lat="44.6590493" lon="9.9602405"><ele>340.2</ele><time>2026-04-11T14:15:43.883Z</time></trkpt><trkpt lat="44.6589791" lon="9.9603282"><ele>337.4</ele><time>2026-04-11T14:15:44.882Z</time></trkpt><trkpt lat="44.6588995" lon="9.9603814"><ele>334.59999999999997</ele><time>2026-04-11T14:15:45.883Z</time></trkpt><trkpt lat="44.6588099" lon="9.9603973"><ele>331.79999999999995</ele><time>2026-04-11T14:15:46.883Z</time></trkpt><trkpt lat="44.658706" lon="9.9603901"><ele>329.0</ele><time>2026-04-11T14:15:47.883Z</time></trkpt><trkpt lat="44.6584952" lon="9.9604375"><ele>329.0</ele><time>2026-04-11T14:15:49.882Z</time></trkpt><trkpt lat="44.6583938" lon="9.9605116"><ele>329.0</ele><time>2026-04-11T14:15:50.883Z</time></trkpt><trkpt lat="44.6582966" lon="9.9606008"><ele>329.0</ele><time>2026-04-11T14:15:51.883Z</time></trkpt><trkpt lat="44.6582047" lon="9.9606988"><ele>329.0</ele><time>2026-04-11T14:15:52.884Z</time></trkpt><trkpt lat="44.6581122" lon="9.9607954"><ele>326.83333333333337</ele><time>2026-04-11T14:15:53.884Z</time></trkpt><trkpt lat="44.6580347" lon="9.9608931"><ele>324.6666666666667</ele><time>2026-04-11T14:15:54.883Z</time></trkpt><trkpt lat="44.6579767" lon="9.9609901"><ele>322.5</ele><time>2026-04-11T14:15:55.883Z</time></trkpt><trkpt lat="44.6579399" lon="9.9610989"><ele>320.3333333333333</ele><time>2026-04-11T14:15:56.882Z</time></trkpt><trkpt lat="44.6579333" lon="9.9612117"><ele>318.16666666666663</ele><time>2026-04-11T14:15:57.883Z</time></trkpt><trkpt lat="44.6579666" lon="9.9613079"><ele>316.0</ele><time>2026-04-11T14:15:58.882Z</time></trkpt><trkpt lat="44.6580339" lon="9.9613765"><ele>316.0</ele><time>2026-04-11T14:15:59.883Z</time></trkpt><trkpt lat="44.6581317" lon="9.9614193"><ele>316.0</ele><time>2026-04-11T14:16:00.882Z</time></trkpt><trkpt lat="44.6582469" lon="9.9614302"><ele>316.0</ele><time>2026-04-11T14:16:01.883Z</time></trkpt><trkpt lat="44.6583796" lon="9.9614263"><ele>316.0</ele><time>2026-04-11T14:16:02.882Z</time></trkpt><trkpt lat="44.6585153" lon="9.9614246"><ele>315.25</ele><time>2026-04-11T14:16:03.883Z</time></trkpt><trkpt lat="44.6586477" lon="9.9614225"><ele>314.5</ele><time>2026-04-11T14:16:04.883Z</time></trkpt><trkpt lat="44.6587788" lon="9.9614162"><ele>313.75</ele><time>2026-04-11T14:16:05.882Z</time></trkpt><trkpt lat="44.6589075" lon="9.9614045"><ele>313.0</ele><time>2026-04-11T14:16:06.883Z</time></trkpt><trkpt lat="44.6590327" lon="9.9614161"><ele>313.0</ele><time>2026-04-11T14:16:07.883Z</time></trkpt><trkpt lat="44.6591492" lon="9.9614782"><ele>313.0</ele><time>2026-04-11T14:16:08.883Z</time></trkpt><trkpt lat="44.6592598" lon="9.9615853"><ele>313.0</ele><time>2026-04-11T14:16:09.882Z</time></trkpt><trkpt lat="44.6593662" lon="9.9617087"><ele>313.0</ele><time>2026-04-11T14:16:10.883Z</time></trkpt><trkpt lat="44.6594636" lon="9.9618125"><ele>310.16666666666663</ele><time>2026-04-11T14:16:11.883Z</time></trkpt><trkpt lat="44.6595605" lon="9.9619078"><ele>307.3333333333333</ele><time>2026-04-11T14:16:12.883Z</time></trkpt><trkpt lat="44.6596306" lon="9.9619987"><ele>304.5</ele><time>2026-04-11T14:16:13.883Z</time></trkpt><trkpt lat="44.6596682" lon="9.9621049"><ele>301.6666666666667</ele><time>2026-04-11T14:16:14.883Z</time></trkpt><trkpt lat="44.6596597" lon="9.9622076"><ele>298.83333333333337</ele><time>2026-04-11T14:16:15.883Z</time></trkpt><trkpt lat="44.6596149" lon="9.9622786"><ele>296.0</ele><time>2026-04-11T14:16:16.883Z</time></trkpt><trkpt lat="44.6595451" lon="9.9623125"><ele>296.0</ele><time>2026-04-11T14:16:17.883Z</time></trkpt><trkpt lat="44.6594585" lon="9.9623113"><ele>296.0</ele><time>2026-04-11T14:16:18.883Z</time></trkpt><trkpt lat="44.6593766" lon="9.9623102"><ele>296.0</ele><time>2026-04-11T14:16:19.883Z</time></trkpt><trkpt lat="44.6593079" lon="9.9623402"><ele>296.0</ele><time>2026-04-11T14:16:20.883Z</time></trkpt><trkpt lat="44.6592636" lon="9.9624181"><ele>296.0</ele><time>2026-04-11T14:16:21.882Z</time></trkpt><trkpt lat="44.6592942" lon="9.9625899"><ele>296.0</ele><time>2026-04-11T14:16:23.883Z</time></trkpt><trkpt lat="44.6593584" lon="9.9626396"><ele>294.0</ele><time>2026-04-11T14:16:24.883Z</time></trkpt><trkpt lat="44.65945" lon="9.9626558"><ele>292.0</ele><time>2026-04-11T14:16:25.883Z</time></trkpt><trkpt lat="44.6595447" lon="9.9626514"><ele>290.0</ele><time>2026-04-11T14:16:26.883Z</time></trkpt><trkpt lat="44.6596284" lon="9.9626628"><ele>288.0</ele><time>2026-04-11T14:16:27.883Z</time></trkpt><trkpt lat="44.6596883" lon="9.9627719"><ele>286.0</ele><time>2026-04-11T14:16:29.882Z</time></trkpt><trkpt lat="44.6596222" lon="9.962911"><ele>286.0</ele><time>2026-04-11T14:16:31.883Z</time></trkpt><trkpt lat="44.6595554" lon="9.9629691"><ele>286.0</ele><time>2026-04-11T14:16:32.882Z</time></trkpt><trkpt lat="44.65948" lon="9.9630031"><ele>286.0</ele><time>2026-04-11T14:16:33.883Z</time></trkpt><trkpt lat="44.6593988" lon="9.963019"><ele>286.0</ele><time>2026-04-11T14:16:34.883Z</time></trkpt><trkpt lat="44.6593195" lon="9.9630148"><ele>286.0</ele><time>2026-04-11T14:16:35.883Z</time></trkpt><trkpt lat="44.6592422" lon="9.9629959"><ele>286.0</ele><time>2026-04-11T14:16:36.883Z</time></trkpt><trkpt lat="44.6591586" lon="9.9629716"><ele>286.0</ele><time>2026-04-11T14:16:37.884Z</time></trkpt><trkpt lat="44.6590648" lon="9.9629517"><ele>286.0</ele><time>2026-04-11T14:16:38.883Z</time></trkpt><trkpt lat="44.6589704" lon="9.9629568"><ele>286.0</ele><time>2026-04-11T14:16:39.883Z</time></trkpt><trkpt lat="44.6588823" lon="9.9629704"><ele>286.0</ele><time>2026-04-11T14:16:40.883Z</time></trkpt><trkpt lat="44.6588079" lon="9.9630099"><ele>286.0</ele><time>2026-04-11T14:16:41.882Z</time></trkpt><trkpt lat="44.6587552" lon="9.963084"><ele>286.0</ele><time>2026-04-11T14:16:42.882Z</time></trkpt><trkpt lat="44.6587371" lon="9.963183"><ele>286.0</ele><time>2026-04-11T14:16:43.883Z</time></trkpt><trkpt lat="44.6587656" lon="9.9632838"><ele>286.0</ele><time>2026-04-11T14:16:44.884Z</time></trkpt><trkpt lat="44.658824" lon="9.9633541"><ele>286.0</ele><time>2026-04-11T14:16:45.883Z</time></trkpt><trkpt lat="44.6589086" lon="9.9633765"><ele>286.0</ele><time>2026-04-11T14:16:46.883Z</time></trkpt><trkpt lat="44.6590166" lon="9.96336"><ele>286.0</ele><time>2026-04-11T14:16:47.882Z</time></trkpt><trkpt lat="44.6591229" lon="9.9633715"><ele>282.75</ele><time>2026-04-11T14:16:48.883Z</time></trkpt><trkpt lat="44.6592399" lon="9.9634189"><ele>279.5</ele><time>2026-04-11T14:16:49.883Z</time></trkpt><trkpt lat="44.6593494" lon="9.9634947"><ele>276.25</ele><time>2026-04-11T14:16:50.882Z</time></trkpt><trkpt lat="44.6594585" lon="9.9635595"><ele>273.0</ele><time>2026-04-11T14:16:51.883Z</time></trkpt><trkpt lat="44.6595701" lon="9.9635943"><ele>271.75</ele><time>2026-04-11T14:16:52.883Z</time></trkpt><trkpt lat="44.6596896" lon="9.9636314"><ele>270.5</ele><time>2026-04-11T14:16:53.883Z</time></trkpt><trkpt lat="44.6598101" lon="9.9635239"><ele>269.25</ele><time>2026-04-11T14:16:54.883Z</time></trkpt><trkpt lat="44.6599115" lon="9.9634558"><ele>268.0</ele><time>2026-04-11T14:16:55.882Z</time></trkpt><trkpt lat="44.6600193" lon="9.9633877"><ele>268.25</ele><time>2026-04-11T14:16:56.883Z</time></trkpt><trkpt lat="44.6601317" lon="9.9633342"><ele>268.5</ele><time>2026-04-11T14:16:57.883Z</time></trkpt><trkpt lat="44.6602478" lon="9.9633114"><ele>268.75</ele><time>2026-04-11T14:16:58.882Z</time></trkpt><trkpt lat="44.6603605" lon="9.9633328"><ele>269.0</ele><time>2026-04-11T14:16:59.883Z</time></trkpt><trkpt lat="44.6604715" lon="9.9633935"><ele>269.0</ele><time>2026-04-11T14:17:00.882Z</time></trkpt><trkpt lat="44.660562" lon="9.9634877"><ele>269.0</ele><time>2026-04-11T14:17:01.882Z</time></trkpt><trkpt lat="44.6606314" lon="9.9636174"><ele>269.0</ele><time>2026-04-11T14:17:02.882Z</time></trkpt><trkpt lat="44.6606764" lon="9.9637623"><ele>269.0</ele><time>2026-04-11T14:17:03.882Z</time></trkpt><trkpt lat="44.6607186" lon="9.9639237"><ele>269.0</ele><time>2026-04-11T14:17:04.882Z</time></trkpt><trkpt lat="44.6607538" lon="9.9640823"><ele>269.0</ele><time>2026-04-11T14:17:05.883Z</time></trkpt><trkpt lat="44.6607664" lon="9.9642351"><ele>269.0</ele><time>2026-04-11T14:17:06.882Z</time></trkpt><trkpt lat="44.6607355" lon="9.9643863"><ele>269.0</ele><time>2026-04-11T14:17:07.883Z</time></trkpt><trkpt lat="44.660677" lon="9.9645316"><ele>266.0</ele><time>2026-04-11T14:17:08.882Z</time></trkpt><trkpt lat="44.660615" lon="9.9646858"><ele>263.0</ele><time>2026-04-11T14:17:09.883Z</time></trkpt><trkpt lat="44.6605503" lon="9.9648471"><ele>260.0</ele><time>2026-04-11T14:17:10.883Z</time></trkpt><trkpt lat="44.6604923" lon="9.9650175"><ele>257.0</ele><time>2026-04-11T14:17:11.883Z</time></trkpt><trkpt lat="44.6604565" lon="9.9651805"><ele>255.33333333333334</ele><time>2026-04-11T14:17:12.883Z</time></trkpt><trkpt lat="44.6604264" lon="9.9653183"><ele>253.66666666666669</ele><time>2026-04-11T14:17:13.883Z</time></trkpt><trkpt lat="44.6604192" lon="9.9654567"><ele>252.0</ele><time>2026-04-11T14:17:14.883Z</time></trkpt><trkpt lat="44.6604406" lon="9.965569"><ele>250.33333333333331</ele><time>2026-04-11T14:17:15.883Z</time></trkpt><trkpt lat="44.6604963" lon="9.9656482"><ele>248.66666666666666</ele><time>2026-04-11T14:17:16.884Z</time></trkpt><trkpt lat="44.6605788" lon="9.9656813"><ele>247.0</ele><time>2026-04-11T14:17:17.882Z</time></trkpt><trkpt lat="44.6606785" lon="9.9656956"><ele>247.0</ele><time>2026-04-11T14:17:18.883Z</time></trkpt><trkpt lat="44.66077" lon="9.9657347"><ele>247.0</ele><time>2026-04-11T14:17:19.882Z</time></trkpt><trkpt lat="44.6608512" lon="9.9658168"><ele>247.0</ele><time>2026-04-11T14:17:20.883Z</time></trkpt><trkpt lat="44.6609078" lon="9.9659364"><ele>247.0</ele><time>2026-04-11T14:17:21.883Z</time></trkpt><trkpt lat="44.6609429" lon="9.966082"><ele>247.0</ele><time>2026-04-11T14:17:22.883Z</time></trkpt><trkpt lat="44.6609702" lon="9.966231"><ele>246.6</ele><time>2026-04-11T14:17:23.884Z</time></trkpt><trkpt lat="44.6609993" lon="9.9663813"><ele>246.2</ele><time>2026-04-11T14:17:24.883Z</time></trkpt><trkpt lat="44.6610265" lon="9.9665329"><ele>245.8</ele><time>2026-04-11T14:17:25.883Z</time></trkpt><trkpt lat="44.6610501" lon="9.9666847"><ele>245.4</ele><time>2026-04-11T14:17:26.883Z</time></trkpt><trkpt lat="44.6610812" lon="9.9668268"><ele>245.0</ele><time>2026-04-11T14:17:27.883Z</time></trkpt><trkpt lat="44.6611343" lon="9.9669585"><ele>244.8</ele><time>2026-04-11T14:17:28.883Z</time></trkpt><trkpt lat="44.6612072" lon="9.967065"><ele>244.6</ele><time>2026-04-11T14:17:29.883Z</time></trkpt><trkpt lat="44.6612901" lon="9.9671682"><ele>244.39999999999998</ele><time>2026-04-11T14:17:30.882Z</time></trkpt><trkpt lat="44.6613708" lon="9.967279"><ele>244.2</ele><time>2026-04-11T14:17:31.882Z</time></trkpt><trkpt lat="44.6614351" lon="9.9674014"><ele>244.0</ele><time>2026-04-11T14:17:32.882Z</time></trkpt><trkpt lat="44.6614764" lon="9.9675429"><ele>244.0</ele><time>2026-04-11T14:17:33.883Z</time></trkpt><trkpt lat="44.6614884" lon="9.9676962"><ele>244.0</ele><time>2026-04-11T14:17:34.883Z</time></trkpt><trkpt lat="44.66148" lon="9.9678577"><ele>244.0</ele><time>2026-04-11T14:17:35.883Z</time></trkpt><trkpt lat="44.6614743" lon="9.9680184"><ele>244.0</ele><time>2026-04-11T14:17:36.883Z</time></trkpt><trkpt lat="44.6614882" lon="9.9681822"><ele>244.0</ele><time>2026-04-11T14:17:37.883Z</time></trkpt><trkpt lat="44.6615281" lon="9.9683385"><ele>244.0</ele><time>2026-04-11T14:17:38.882Z</time></trkpt><trkpt lat="44.6615943" lon="9.9684797"><ele>244.0</ele><time>2026-04-11T14:17:39.883Z</time></trkpt><trkpt lat="44.6616799" lon="9.9685991"><ele>244.0</ele><time>2026-04-11T14:17:40.883Z</time></trkpt><trkpt lat="44.6617809" lon="9.9686914"><ele>246.25</ele><time>2026-04-11T14:17:41.882Z</time></trkpt><trkpt lat="44.6618944" lon="9.9687556"><ele>248.5</ele><time>2026-04-11T14:17:42.883Z</time></trkpt><trkpt lat="44.6620208" lon="9.9687851"><ele>250.75</ele><time>2026-04-11T14:17:43.883Z</time></trkpt><trkpt lat="44.6621457" lon="9.968821"><ele>253.0</ele><time>2026-04-11T14:17:44.882Z</time></trkpt><trkpt lat="44.6622792" lon="9.9687982"><ele>253.0</ele><time>2026-04-11T14:17:45.883Z</time></trkpt><trkpt lat="44.6624105" lon="9.9687411"><ele>253.0</ele><time>2026-04-11T14:17:46.883Z</time></trkpt><trkpt lat="44.6625293" lon="9.9687181"><ele>253.0</ele><time>2026-04-11T14:17:47.883Z</time></trkpt><trkpt lat="44.6626486" lon="9.9687092"><ele>253.0</ele><time>2026-04-11T14:17:48.882Z</time></trkpt><trkpt lat="44.6627707" lon="9.9687694"><ele>251.25</ele><time>2026-04-11T14:17:49.883Z</time></trkpt><trkpt lat="44.662892" lon="9.9688648"><ele>249.5</ele><time>2026-04-11T14:17:50.883Z</time></trkpt><trkpt lat="44.6630175" lon="9.9689304"><ele>247.75</ele><time>2026-04-11T14:17:51.882Z</time></trkpt><trkpt lat="44.6631427" lon="9.9689915"><ele>246.0</ele><time>2026-04-11T14:17:52.883Z</time></trkpt><trkpt lat="44.6632687" lon="9.9690556"><ele>246.0</ele><time>2026-04-11T14:17:53.882Z</time></trkpt><trkpt lat="44.6633839" lon="9.969131"><ele>246.0</ele><time>2026-04-11T14:17:54.883Z</time></trkpt><trkpt lat="44.6634968" lon="9.9692249"><ele>246.0</ele><time>2026-04-11T14:17:55.884Z</time></trkpt><trkpt lat="44.6636057" lon="9.9693441"><ele>246.0</ele><time>2026-04-11T14:17:56.882Z</time></trkpt><trkpt lat="44.6636944" lon="9.9694924"><ele>244.75</ele><time>2026-04-11T14:17:57.883Z</time></trkpt><trkpt lat="44.6637614" lon="9.9696658"><ele>243.5</ele><time>2026-04-11T14:17:58.883Z</time></trkpt><trkpt lat="44.6638331" lon="9.9698357"><ele>242.25</ele><time>2026-04-11T14:17:59.883Z</time></trkpt><trkpt lat="44.6639175" lon="9.9699956"><ele>241.0</ele><time>2026-04-11T14:18:00.884Z</time></trkpt><trkpt lat="44.6640045" lon="9.9701508"><ele>241.0</ele><time>2026-04-11T14:18:01.882Z</time></trkpt><trkpt lat="44.6640895" lon="9.9703039"><ele>241.0</ele><time>2026-04-11T14:18:02.883Z</time></trkpt><trkpt lat="44.6641688" lon="9.9704591"><ele>241.0</ele><time>2026-04-11T14:18:03.883Z</time></trkpt><trkpt lat="44.6642175" lon="9.9706224"><ele>241.0</ele><time>2026-04-11T14:18:04.882Z</time></trkpt><trkpt lat="44.6642381" lon="9.9707958"><ele>240.4</ele><time>2026-04-11T14:18:05.883Z</time></trkpt><trkpt lat="44.6642607" lon="9.9709549"><ele>239.8</ele><time>2026-04-11T14:18:06.882Z</time></trkpt><trkpt lat="44.664299" lon="9.9711097"><ele>239.20000000000002</ele><time>2026-04-11T14:18:07.883Z</time></trkpt><trkpt lat="44.6643609" lon="9.9712333"><ele>238.60000000000002</ele><time>2026-04-11T14:18:08.883Z</time></trkpt><trkpt lat="44.664449" lon="9.9713113"><ele>238.0</ele><time>2026-04-11T14:18:09.882Z</time></trkpt><trkpt lat="44.6645443" lon="9.9713488"><ele>238.0</ele><time>2026-04-11T14:18:10.883Z</time></trkpt><trkpt lat="44.6646551" lon="9.9713667"><ele>238.0</ele><time>2026-04-11T14:18:11.883Z</time></trkpt><trkpt lat="44.6647636" lon="9.9713959"><ele>238.0</ele><time>2026-04-11T14:18:12.883Z</time></trkpt><trkpt lat="44.6648682" lon="9.9714516"><ele>238.0</ele><time>2026-04-11T14:18:13.883Z</time></trkpt><trkpt lat="44.6649666" lon="9.9715367"><ele>238.0</ele><time>2026-04-11T14:18:14.883Z</time></trkpt><trkpt lat="44.6650639" lon="9.9716352"><ele>238.5</ele><time>2026-04-11T14:18:15.883Z</time></trkpt><trkpt lat="44.6651661" lon="9.9717293"><ele>239.0</ele><time>2026-04-11T14:18:16.882Z</time></trkpt><trkpt lat="44.6652791" lon="9.9718172"><ele>239.5</ele><time>2026-04-11T14:18:17.883Z</time></trkpt><trkpt lat="44.6653926" lon="9.9719044"><ele>240.0</ele><time>2026-04-11T14:18:18.883Z</time></trkpt><trkpt lat="44.6655094" lon="9.9719869"><ele>240.0</ele><time>2026-04-11T14:18:19.883Z</time></trkpt><trkpt lat="44.665623" lon="9.9720739"><ele>240.0</ele><time>2026-04-11T14:18:20.883Z</time></trkpt><trkpt lat="44.6657307" lon="9.9721765"><ele>240.0</ele><time>2026-04-11T14:18:21.882Z</time></trkpt><trkpt lat="44.665838" lon="9.9722892"><ele>240.0</ele><time>2026-04-11T14:18:22.883Z</time></trkpt><trkpt lat="44.6659451" lon="9.9724028"><ele>240.0</ele><time>2026-04-11T14:18:23.883Z</time></trkpt><trkpt lat="44.6660503" lon="9.9725149"><ele>240.0</ele><time>2026-04-11T14:18:24.883Z</time></trkpt><trkpt lat="44.6661563" lon="9.9726286"><ele>240.0</ele><time>2026-04-11T14:18:25.883Z</time></trkpt><trkpt lat="44.6662734" lon="9.9727198"><ele>240.0</ele><time>2026-04-11T14:18:26.882Z</time></trkpt><trkpt lat="44.6664016" lon="9.9727724"><ele>240.75</ele><time>2026-04-11T14:18:27.883Z</time></trkpt><trkpt lat="44.6665341" lon="9.9728051"><ele>241.5</ele><time>2026-04-11T14:18:28.882Z</time></trkpt><trkpt lat="44.6666643" lon="9.9728383"><ele>242.25</ele><time>2026-04-11T14:18:29.883Z</time></trkpt><trkpt lat="44.6667942" lon="9.9728714"><ele>243.0</ele><time>2026-04-11T14:18:30.883Z</time></trkpt><trkpt lat="44.6669201" lon="9.9729027"><ele>242.5</ele><time>2026-04-11T14:18:31.882Z</time></trkpt><trkpt lat="44.6670489" lon="9.9729273"><ele>242.0</ele><time>2026-04-11T14:18:32.883Z</time></trkpt><trkpt lat="44.6671774" lon="9.9729384"><ele>241.5</ele><time>2026-04-11T14:18:33.882Z</time></trkpt><trkpt lat="44.6673051" lon="9.9729405"><ele>241.0</ele><time>2026-04-11T14:18:34.883Z</time></trkpt><trkpt lat="44.6674373" lon="9.9729183"><ele>241.0</ele><time>2026-04-11T14:18:35.882Z</time></trkpt><trkpt lat="44.6675668" lon="9.9728753"><ele>241.0</ele><time>2026-04-11T14:18:36.883Z</time></trkpt><trkpt lat="44.6676881" lon="9.9728294"><ele>241.0</ele><time>2026-04-11T14:18:37.883Z</time></trkpt><trkpt lat="44.6678092" lon="9.9727988"><ele>241.0</ele><time>2026-04-11T14:18:38.883Z</time></trkpt><trkpt lat="44.6679301" lon="9.9727986"><ele>241.5</ele><time>2026-04-11T14:18:39.884Z</time></trkpt><trkpt lat="44.6680501" lon="9.972837"><ele>242.0</ele><time>2026-04-11T14:18:40.882Z</time></trkpt><trkpt lat="44.6681728" lon="9.972902"><ele>242.5</ele><time>2026-04-11T14:18:41.883Z</time></trkpt><trkpt lat="44.6683019" lon="9.9729755"><ele>243.0</ele><time>2026-04-11T14:18:42.883Z</time></trkpt><trkpt lat="44.6684353" lon="9.973036"><ele>243.0</ele><time>2026-04-11T14:18:43.883Z</time></trkpt><trkpt lat="44.668567" lon="9.9731003"><ele>243.0</ele><time>2026-04-11T14:18:44.882Z</time></trkpt><trkpt lat="44.6686912" lon="9.9731713"><ele>243.0</ele><time>2026-04-11T14:18:45.882Z</time></trkpt><trkpt lat="44.6688179" lon="9.973254"><ele>243.0</ele><time>2026-04-11T14:18:46.882Z</time></trkpt><trkpt lat="44.6688876" lon="9.9734369"><ele>243.75</ele><time>2026-04-11T14:18:47.883Z</time></trkpt><trkpt lat="44.6689907" lon="9.9735675"><ele>244.5</ele><time>2026-04-11T14:18:48.882Z</time></trkpt><trkpt lat="44.669103" lon="9.9736816"><ele>245.25</ele><time>2026-04-11T14:18:49.883Z</time></trkpt><trkpt lat="44.6692293" lon="9.9737578"><ele>246.0</ele><time>2026-04-11T14:18:50.883Z</time></trkpt><trkpt lat="44.6693637" lon="9.9738175"><ele>242.5</ele><time>2026-04-11T14:18:51.883Z</time></trkpt><trkpt lat="44.6694905" lon="9.9738892"><ele>239.0</ele><time>2026-04-11T14:18:52.883Z</time></trkpt><trkpt lat="44.6696067" lon="9.9739842"><ele>235.5</ele><time>2026-04-11T14:18:53.882Z</time></trkpt><trkpt lat="44.669714" lon="9.9740853"><ele>232.0</ele><time>2026-04-11T14:18:54.883Z</time></trkpt><trkpt lat="44.6698209" lon="9.9741866"><ele>235.0</ele><time>2026-04-11T14:18:55.883Z</time></trkpt><trkpt lat="44.669921" lon="9.9742902"><ele>238.0</ele><time>2026-04-11T14:18:56.883Z</time></trkpt><trkpt lat="44.6700229" lon="9.9744065"><ele>241.0</ele><time>2026-04-11T14:18:57.883Z</time></trkpt><trkpt lat="44.6701138" lon="9.9745335"><ele>244.0</ele><time>2026-04-11T14:18:58.882Z</time></trkpt><trkpt lat="44.6701973" lon="9.9746739"><ele>241.25</ele><time>2026-04-11T14:18:59.883Z</time></trkpt><trkpt lat="44.6702762" lon="9.9748352"><ele>238.5</ele><time>2026-04-11T14:19:00.884Z</time></trkpt><trkpt lat="44.6703504" lon="9.9750113"><ele>235.75</ele><time>2026-04-11T14:19:01.883Z</time></trkpt><trkpt lat="44.6704236" lon="9.9751868"><ele>233.0</ele><time>2026-04-11T14:19:02.883Z</time></trkpt><trkpt lat="44.670505" lon="9.9753615"><ele>233.0</ele><time>2026-04-11T14:19:03.882Z</time></trkpt><trkpt lat="44.6706035" lon="9.9755261"><ele>233.0</ele><time>2026-04-11T14:19:04.883Z</time></trkpt><trkpt lat="44.670712" lon="9.9756844"><ele>233.0</ele><time>2026-04-11T14:19:05.883Z</time></trkpt><trkpt lat="44.6708265" lon="9.9758386"><ele>231.0</ele><time>2026-04-11T14:19:06.882Z</time></trkpt><trkpt lat="44.6709368" lon="9.9759882"><ele>229.0</ele><time>2026-04-11T14:19:07.883Z</time></trkpt><trkpt lat="44.6710492" lon="9.9761312"><ele>227.0</ele><time>2026-04-11T14:19:08.883Z</time></trkpt><trkpt lat="44.6711685" lon="9.9762563"><ele>227.0</ele><time>2026-04-11T14:19:09.882Z</time></trkpt><trkpt lat="44.671294" lon="9.9763694"><ele>227.0</ele><time>2026-04-11T14:19:10.883Z</time></trkpt><trkpt lat="44.6714192" lon="9.9764803"><ele>227.0</ele><time>2026-04-11T14:19:11.883Z</time></trkpt><trkpt lat="44.6715512" lon="9.9765983"><ele>235.33333333333334</ele><time>2026-04-11T14:19:12.882Z</time></trkpt><trkpt lat="44.6716782" lon="9.9767225"><ele>243.66666666666669</ele><time>2026-04-11T14:19:13.883Z</time></trkpt><trkpt lat="44.6717971" lon="9.9768578"><ele>252.0</ele><time>2026-04-11T14:19:14.883Z</time></trkpt><trkpt lat="44.6719119" lon="9.9769841"><ele>245.0</ele><time>2026-04-11T14:19:15.883Z</time></trkpt><trkpt lat="44.6720206" lon="9.9771055"><ele>238.0</ele><time>2026-04-11T14:19:16.882Z</time></trkpt><trkpt lat="44.6721277" lon="9.9772195"><ele>231.0</ele><time>2026-04-11T14:19:17.883Z</time></trkpt><trkpt lat="44.6722348" lon="9.9773221"><ele>224.0</ele><time>2026-04-11T14:19:18.883Z</time></trkpt><trkpt lat="44.672356" lon="9.9773856"><ele>224.0</ele><time>2026-04-11T14:19:19.882Z</time></trkpt><trkpt lat="44.6724855" lon="9.9774096"><ele>224.0</ele><time>2026-04-11T14:19:20.882Z</time></trkpt><trkpt lat="44.6726182" lon="9.9774297"><ele>224.0</ele><time>2026-04-11T14:19:21.883Z</time></trkpt><trkpt lat="44.672751" lon="9.9774349"><ele>224.0</ele><time>2026-04-11T14:19:22.883Z</time></trkpt><trkpt lat="44.672881" lon="9.977451"><ele>223.25</ele><time>2026-04-11T14:19:23.883Z</time></trkpt><trkpt lat="44.6730084" lon="9.9774832"><ele>222.5</ele><time>2026-04-11T14:19:24.882Z</time></trkpt><trkpt lat="44.6731338" lon="9.9775351"><ele>221.75</ele><time>2026-04-11T14:19:25.883Z</time></trkpt><trkpt lat="44.6732535" lon="9.977599"><ele>221.0</ele><time>2026-04-11T14:19:26.883Z</time></trkpt><trkpt lat="44.6733798" lon="9.9776621"><ele>225.5</ele><time>2026-04-11T14:19:27.883Z</time></trkpt><trkpt lat="44.6735001" lon="9.9777276"><ele>230.0</ele><time>2026-04-11T14:19:28.883Z</time></trkpt><trkpt lat="44.6736284" lon="9.9777956"><ele>234.5</ele><time>2026-04-11T14:19:29.883Z</time></trkpt><trkpt lat="44.6737548" lon="9.9778628"><ele>239.0</ele><time>2026-04-11T14:19:30.883Z</time></trkpt><trkpt lat="44.6738848" lon="9.9779298"><ele>239.0</ele><time>2026-04-11T14:19:31.883Z</time></trkpt><trkpt lat="44.6740158" lon="9.9779942"><ele>239.0</ele><time>2026-04-11T14:19:32.882Z</time></trkpt><trkpt lat="44.6741453" lon="9.9780558"><ele>239.0</ele><time>2026-04-11T14:19:33.883Z</time></trkpt><trkpt lat="44.6742785" lon="9.9781097"><ele>239.0</ele><time>2026-04-11T14:19:34.883Z</time></trkpt><trkpt lat="44.6744131" lon="9.9781431"><ele>236.5</ele><time>2026-04-11T14:19:35.883Z</time></trkpt><trkpt lat="44.6745482" lon="9.9781537"><ele>234.0</ele><time>2026-04-11T14:19:36.882Z</time></trkpt><trkpt lat="44.6746802" lon="9.9781502"><ele>231.5</ele><time>2026-04-11T14:19:37.883Z</time></trkpt><trkpt lat="44.67481" lon="9.9781413"><ele>229.0</ele><time>2026-04-11T14:19:38.882Z</time></trkpt><trkpt lat="44.6749441" lon="9.9781313"><ele>229.0</ele><time>2026-04-11T14:19:39.883Z</time></trkpt><trkpt lat="44.6750753" lon="9.9781335"><ele>229.0</ele><time>2026-04-11T14:19:40.882Z</time></trkpt><trkpt lat="44.675203" lon="9.9781523"><ele>229.0</ele><time>2026-04-11T14:19:41.883Z</time></trkpt><trkpt lat="44.675328" lon="9.9781957"><ele>229.0</ele><time>2026-04-11T14:19:42.882Z</time></trkpt><trkpt lat="44.6754446" lon="9.9782517"><ele>226.25</ele><time>2026-04-11T14:19:43.883Z</time></trkpt><trkpt lat="44.6755594" lon="9.9783198"><ele>223.5</ele><time>2026-04-11T14:19:44.883Z</time></trkpt><trkpt lat="44.6756743" lon="9.9783902"><ele>220.75</ele><time>2026-04-11T14:19:45.882Z</time></trkpt><trkpt lat="44.6757961" lon="9.9784274"><ele>218.0</ele><time>2026-04-11T14:19:46.883Z</time></trkpt><trkpt lat="44.6759213" lon="9.9784443"><ele>222.75</ele><time>2026-04-11T14:19:47.882Z</time></trkpt><trkpt lat="44.6760456" lon="9.9784622"><ele>227.5</ele><time>2026-04-11T14:19:48.882Z</time></trkpt><trkpt lat="44.6761705" lon="9.9785022"><ele>232.25</ele><time>2026-04-11T14:19:49.883Z</time></trkpt><trkpt lat="44.6762847" lon="9.9785673"><ele>237.0</ele><time>2026-04-11T14:19:50.882Z</time></trkpt><trkpt lat="44.6763927" lon="9.9786466"><ele>237.0</ele><time>2026-04-11T14:19:51.882Z</time></trkpt><trkpt lat="44.6764992" lon="9.9787297"><ele>237.0</ele><time>2026-04-11T14:19:52.882Z</time></trkpt><trkpt lat="44.6766028" lon="9.9788194"><ele>237.0</ele><time>2026-04-11T14:19:53.882Z</time></trkpt><trkpt lat="44.676708" lon="9.9789293"><ele>237.0</ele><time>2026-04-11T14:19:54.882Z</time></trkpt><trkpt lat="44.676816" lon="9.9790322"><ele>237.0</ele><time>2026-04-11T14:19:55.883Z</time></trkpt><trkpt lat="44.6769334" lon="9.9791256"><ele>237.0</ele><time>2026-04-11T14:19:56.882Z</time></trkpt><trkpt lat="44.6770563" lon="9.9792105"><ele>237.0</ele><time>2026-04-11T14:19:57.881Z</time></trkpt><trkpt lat="44.6771757" lon="9.9792966"><ele>237.0</ele><time>2026-04-11T14:19:58.882Z</time></trkpt><trkpt lat="44.6772964" lon="9.9793795"><ele>236.0</ele><time>2026-04-11T14:19:59.882Z</time></trkpt><trkpt lat="44.6774171" lon="9.9794557"><ele>235.0</ele><time>2026-04-11T14:20:00.881Z</time></trkpt><trkpt lat="44.6775448" lon="9.9795222"><ele>234.0</ele><time>2026-04-11T14:20:01.882Z</time></trkpt><trkpt lat="44.677671" lon="9.97958"><ele>233.0</ele><time>2026-04-11T14:20:02.881Z</time></trkpt><trkpt lat="44.677793" lon="9.9796513"><ele>233.0</ele><time>2026-04-11T14:20:03.882Z</time></trkpt><trkpt lat="44.678025" lon="9.9798173"><ele>233.0</ele><time>2026-04-11T14:20:05.882Z</time></trkpt><trkpt lat="44.6781415" lon="9.9798991"><ele>233.0</ele><time>2026-04-11T14:20:06.882Z</time></trkpt><trkpt lat="44.6782578" lon="9.979976"><ele>234.25</ele><time>2026-04-11T14:20:07.882Z</time></trkpt><trkpt lat="44.6783779" lon="9.9800425"><ele>235.5</ele><time>2026-04-11T14:20:08.882Z</time></trkpt><trkpt lat="44.678503" lon="9.9800981"><ele>236.75</ele><time>2026-04-11T14:20:09.882Z</time></trkpt><trkpt lat="44.6786263" lon="9.9801579"><ele>238.0</ele><time>2026-04-11T14:20:10.881Z</time></trkpt><trkpt lat="44.6787517" lon="9.9802206"><ele>238.0</ele><time>2026-04-11T14:20:11.881Z</time></trkpt><trkpt lat="44.678874" lon="9.9802957"><ele>238.0</ele><time>2026-04-11T14:20:12.881Z</time></trkpt><trkpt lat="44.678998" lon="9.9803768"><ele>238.0</ele><time>2026-04-11T14:20:13.881Z</time></trkpt><trkpt lat="44.6791166" lon="9.9804639"><ele>238.0</ele><time>2026-04-11T14:20:14.882Z</time></trkpt><trkpt lat="44.6792341" lon="9.980545"><ele>238.0</ele><time>2026-04-11T14:20:15.881Z</time></trkpt><trkpt lat="44.6793507" lon="9.9806232"><ele>238.0</ele><time>2026-04-11T14:20:16.882Z</time></trkpt><trkpt lat="44.6794654" lon="9.9806984"><ele>238.0</ele><time>2026-04-11T14:20:17.882Z</time></trkpt><trkpt lat="44.6795844" lon="9.9807678"><ele>238.0</ele><time>2026-04-11T14:20:18.881Z</time></trkpt><trkpt lat="44.6797001" lon="9.980842"><ele>238.0</ele><time>2026-04-11T14:20:19.882Z</time></trkpt><trkpt lat="44.6798186" lon="9.9809196"><ele>238.0</ele><time>2026-04-11T14:20:20.881Z</time></trkpt><trkpt lat="44.6799352" lon="9.9810092"><ele>238.0</ele><time>2026-04-11T14:20:21.882Z</time></trkpt><trkpt lat="44.6800489" lon="9.9811123"><ele>238.0</ele><time>2026-04-11T14:20:22.882Z</time></trkpt><trkpt lat="44.6801574" lon="9.9812247"><ele>238.0</ele><time>2026-04-11T14:20:23.881Z</time></trkpt><trkpt lat="44.6802564" lon="9.9813465"><ele>238.0</ele><time>2026-04-11T14:20:24.881Z</time></trkpt><trkpt lat="44.6803544" lon="9.9814782"><ele>238.0</ele><time>2026-04-11T14:20:25.882Z</time></trkpt><trkpt lat="44.6804516" lon="9.9816038"><ele>238.0</ele><time>2026-04-11T14:20:26.882Z</time></trkpt><trkpt lat="44.6805546" lon="9.9817078"><ele>236.75</ele><time>2026-04-11T14:20:27.882Z</time></trkpt><trkpt lat="44.6806701" lon="9.9817926"><ele>235.5</ele><time>2026-04-11T14:20:28.882Z</time></trkpt><trkpt lat="44.6807919" lon="9.981873"><ele>234.25</ele><time>2026-04-11T14:20:29.882Z</time></trkpt><trkpt lat="44.6809094" lon="9.9819483"><ele>233.0</ele><time>2026-04-11T14:20:30.881Z</time></trkpt><trkpt lat="44.6810194" lon="9.9820275"><ele>228.60000000000002</ele><time>2026-04-11T14:20:31.882Z</time></trkpt><trkpt lat="44.6811119" lon="9.9820912"><ele>224.20000000000002</ele><time>2026-04-11T14:20:32.882Z</time></trkpt><trkpt lat="44.68118" lon="9.9821364"><ele>219.8</ele><time>2026-04-11T14:20:33.881Z</time></trkpt><trkpt lat="44.6812412" lon="9.9822267"><ele>215.4</ele><time>2026-04-11T14:20:35.882Z</time></trkpt><trkpt lat="44.6812665" lon="9.9823535"><ele>211.0</ele><time>2026-04-11T14:20:37.882Z</time></trkpt><trkpt lat="44.6813054" lon="9.9824991"><ele>210.66666666666666</ele><time>2026-04-11T14:20:39.881Z</time></trkpt><trkpt lat="44.6813306" lon="9.9825896"><ele>210.33333333333331</ele><time>2026-04-11T14:20:40.882Z</time></trkpt><trkpt lat="44.6813546" lon="9.9826857"><ele>210.0</ele><time>2026-04-11T14:20:41.881Z</time></trkpt><trkpt lat="44.6813794" lon="9.9827737"><ele>209.66666666666669</ele><time>2026-04-11T14:20:42.882Z</time></trkpt><trkpt lat="44.6814647" lon="9.9829041"><ele>209.33333333333334</ele><time>2026-04-11T14:20:44.881Z</time></trkpt><trkpt lat="44.6815422" lon="9.9829415"><ele>209.0</ele><time>2026-04-11T14:20:45.882Z</time></trkpt><trkpt lat="44.6816406" lon="9.9829729"><ele>209.0</ele><time>2026-04-11T14:20:46.882Z</time></trkpt><trkpt lat="44.6817559" lon="9.9830092"><ele>209.0</ele><time>2026-04-11T14:20:47.881Z</time></trkpt><trkpt lat="44.6818734" lon="9.9830479"><ele>209.0</ele><time>2026-04-11T14:20:48.882Z</time></trkpt><trkpt lat="44.6819877" lon="9.9830814"><ele>209.0</ele><time>2026-04-11T14:20:49.882Z</time></trkpt><trkpt lat="44.6820805" lon="9.9831156"><ele>206.79999999999998</ele><time>2026-04-11T14:20:50.882Z</time></trkpt><trkpt lat="44.6821593" lon="9.9831475"><ele>204.6</ele><time>2026-04-11T14:20:51.882Z</time></trkpt><trkpt lat="44.6822577" lon="9.9832521"><ele>202.4</ele><time>2026-04-11T14:20:53.882Z</time></trkpt><trkpt lat="44.6822904" lon="9.9834279"><ele>200.2</ele><time>2026-04-11T14:20:55.882Z</time></trkpt><trkpt lat="44.6822966" lon="9.9835502"><ele>198.0</ele><time>2026-04-11T14:20:56.881Z</time></trkpt><trkpt lat="44.682296" lon="9.9836711"><ele>198.0</ele><time>2026-04-11T14:20:57.882Z</time></trkpt><trkpt lat="44.6822932" lon="9.9837995"><ele>198.0</ele><time>2026-04-11T14:20:58.881Z</time></trkpt><trkpt lat="44.6822833" lon="9.9839329"><ele>198.0</ele><time>2026-04-11T14:20:59.882Z</time></trkpt><trkpt lat="44.6822766" lon="9.9840566"><ele>198.0</ele><time>2026-04-11T14:21:00.882Z</time></trkpt><trkpt lat="44.682266" lon="9.9841913"><ele>198.0</ele><time>2026-04-11T14:21:01.882Z</time></trkpt><trkpt lat="44.6822429" lon="9.984467"><ele>197.8</ele><time>2026-04-11T14:21:03.881Z</time></trkpt><trkpt lat="44.6822153" lon="9.9845986"><ele>197.60000000000002</ele><time>2026-04-11T14:21:04.882Z</time></trkpt><trkpt lat="44.6821783" lon="9.984728"><ele>197.39999999999998</ele><time>2026-04-11T14:21:05.882Z</time></trkpt><trkpt lat="44.6821405" lon="9.9848629"><ele>197.2</ele><time>2026-04-11T14:21:06.882Z</time></trkpt><trkpt lat="44.6821036" lon="9.9850024"><ele>197.0</ele><time>2026-04-11T14:21:07.881Z</time></trkpt><trkpt lat="44.6820625" lon="9.9851422"><ele>196.8</ele><time>2026-04-11T14:21:08.882Z</time></trkpt><trkpt lat="44.682021" lon="9.9852823"><ele>196.6</ele><time>2026-04-11T14:21:09.883Z</time></trkpt><trkpt lat="44.6819824" lon="9.9854252"><ele>196.4</ele><time>2026-04-11T14:21:10.882Z</time></trkpt><trkpt lat="44.6819485" lon="9.9855717"><ele>196.20000000000002</ele><time>2026-04-11T14:21:11.882Z</time></trkpt><trkpt lat="44.6819198" lon="9.9857223"><ele>196.0</ele><time>2026-04-11T14:21:12.882Z</time></trkpt><trkpt lat="44.6818679" lon="9.9860277"><ele>196.0</ele><time>2026-04-11T14:21:14.881Z</time></trkpt><trkpt lat="44.6818447" lon="9.9861832"><ele>196.0</ele><time>2026-04-11T14:21:15.882Z</time></trkpt><trkpt lat="44.6818203" lon="9.986337"><ele>196.0</ele><time>2026-04-11T14:21:16.882Z</time></trkpt><trkpt lat="44.6817907" lon="9.9864852"><ele>196.0</ele><time>2026-04-11T14:21:17.882Z</time></trkpt><trkpt lat="44.6817574" lon="9.9866379"><ele>196.0</ele><time>2026-04-11T14:21:18.883Z</time></trkpt><trkpt lat="44.6817234" lon="9.9867905"><ele>196.0</ele><time>2026-04-11T14:21:19.882Z</time></trkpt><trkpt lat="44.6816889" lon="9.9869367"><ele>196.0</ele><time>2026-04-11T14:21:20.882Z</time></trkpt><trkpt lat="44.6816539" lon="9.9870694"><ele>196.0</ele><time>2026-04-11T14:21:21.882Z</time></trkpt><trkpt lat="44.681626" lon="9.9871958"><ele>196.0</ele><time>2026-04-11T14:21:22.882Z</time></trkpt><trkpt lat="44.6816155" lon="9.9873167"><ele>196.0</ele><time>2026-04-11T14:21:23.881Z</time></trkpt><trkpt lat="44.6816208" lon="9.987445"><ele>195.60000000000002</ele><time>2026-04-11T14:21:24.882Z</time></trkpt><trkpt lat="44.6816343" lon="9.987584"><ele>195.2</ele><time>2026-04-11T14:21:25.881Z</time></trkpt><trkpt lat="44.6816489" lon="9.9877297"><ele>194.8</ele><time>2026-04-11T14:21:26.882Z</time></trkpt><trkpt lat="44.6816661" lon="9.9878751"><ele>194.39999999999998</ele><time>2026-04-11T14:21:27.882Z</time></trkpt><trkpt lat="44.6816845" lon="9.9880267"><ele>194.0</ele><time>2026-04-11T14:21:28.882Z</time></trkpt><trkpt lat="44.6817071" lon="9.9881786"><ele>194.0</ele><time>2026-04-11T14:21:29.882Z</time></trkpt><trkpt lat="44.6817296" lon="9.9883269"><ele>194.0</ele><time>2026-04-11T14:21:30.881Z</time></trkpt><trkpt lat="44.6817373" lon="9.9884736"><ele>194.0</ele><time>2026-04-11T14:21:31.882Z</time></trkpt><trkpt lat="44.6817331" lon="9.9886187"><ele>194.0</ele><time>2026-04-11T14:21:32.882Z</time></trkpt><trkpt lat="44.6817267" lon="9.988764"><ele>194.0</ele><time>2026-04-11T14:21:33.882Z</time></trkpt><trkpt lat="44.681721" lon="9.9889033"><ele>194.0</ele><time>2026-04-11T14:21:34.881Z</time></trkpt><trkpt lat="44.6817159" lon="9.9890401"><ele>194.0</ele><time>2026-04-11T14:21:35.882Z</time></trkpt><trkpt lat="44.6817181" lon="9.9891868"><ele>194.0</ele><time>2026-04-11T14:21:36.882Z</time></trkpt><trkpt lat="44.6817234" lon="9.9893353"><ele>194.0</ele><time>2026-04-11T14:21:37.882Z</time></trkpt><trkpt lat="44.6817296" lon="9.9894831"><ele>194.0</ele><time>2026-04-11T14:21:38.882Z</time></trkpt><trkpt lat="44.6817382" lon="9.9897776"><ele>194.2</ele><time>2026-04-11T14:21:40.881Z</time></trkpt><trkpt lat="44.6817464" lon="9.9899224"><ele>194.39999999999998</ele><time>2026-04-11T14:21:41.882Z</time></trkpt><trkpt lat="44.6817547" lon="9.9900652"><ele>194.6</ele><time>2026-04-11T14:21:42.882Z</time></trkpt><trkpt lat="44.6817648" lon="9.9902079"><ele>194.8</ele><time>2026-04-11T14:21:43.881Z</time></trkpt><trkpt lat="44.6817731" lon="9.9903477"><ele>195.0</ele><time>2026-04-11T14:21:44.882Z</time></trkpt><trkpt lat="44.6817829" lon="9.9904847"><ele>195.4</ele><time>2026-04-11T14:21:45.882Z</time></trkpt><trkpt lat="44.6817869" lon="9.9906233"><ele>195.8</ele><time>2026-04-11T14:21:46.881Z</time></trkpt><trkpt lat="44.6817856" lon="9.9907618"><ele>196.2</ele><time>2026-04-11T14:21:47.882Z</time></trkpt><trkpt lat="44.6817863" lon="9.9908997"><ele>196.6</ele><time>2026-04-11T14:21:48.881Z</time></trkpt><trkpt lat="44.6817821" lon="9.9910389"><ele>197.0</ele><time>2026-04-11T14:21:49.881Z</time></trkpt><trkpt lat="44.681775" lon="9.9911758"><ele>196.2</ele><time>2026-04-11T14:21:50.882Z</time></trkpt><trkpt lat="44.6817599" lon="9.9913133"><ele>195.39999999999998</ele><time>2026-04-11T14:21:51.882Z</time></trkpt><trkpt lat="44.6817401" lon="9.9914467"><ele>194.60000000000002</ele><time>2026-04-11T14:21:52.882Z</time></trkpt><trkpt lat="44.6817119" lon="9.9915747"><ele>193.8</ele><time>2026-04-11T14:21:53.882Z</time></trkpt><trkpt lat="44.6816826" lon="9.9916927"><ele>193.0</ele><time>2026-04-11T14:21:54.882Z</time></trkpt><trkpt lat="44.6816504" lon="9.9918"><ele>192.66666666666666</ele><time>2026-04-11T14:21:55.881Z</time></trkpt><trkpt lat="44.6816222" lon="9.9919005"><ele>192.33333333333331</ele><time>2026-04-11T14:21:56.882Z</time></trkpt><trkpt lat="44.6815975" lon="9.9919933"><ele>192.0</ele><time>2026-04-11T14:21:57.882Z</time></trkpt><trkpt lat="44.6815775" lon="9.9920836"><ele>191.66666666666666</ele><time>2026-04-11T14:21:58.882Z</time></trkpt><trkpt lat="44.6815625" lon="9.9921702"><ele>191.33333333333331</ele><time>2026-04-11T14:21:59.882Z</time></trkpt><trkpt lat="44.6815505" lon="9.9923253"><ele>191.0</ele><time>2026-04-11T14:22:01.881Z</time></trkpt><trkpt lat="44.6815474" lon="9.9924571"><ele>190.83333333333331</ele><time>2026-04-11T14:22:03.882Z</time></trkpt><trkpt lat="44.6815692" lon="9.9925477"><ele>190.66666666666666</ele><time>2026-04-11T14:22:05.882Z</time></trkpt><trkpt lat="44.6815929" lon="9.9926646"><ele>190.5</ele><time>2026-04-11T14:22:07.882Z</time></trkpt><trkpt lat="44.681611" lon="9.9927979"><ele>190.33333333333334</ele><time>2026-04-11T14:22:09.881Z</time></trkpt><trkpt lat="44.6816214" lon="9.9929307"><ele>190.16666666666669</ele><time>2026-04-11T14:22:11.882Z</time></trkpt><trkpt lat="44.6816369" lon="9.9930551"><ele>190.0</ele><time>2026-04-11T14:22:13.883Z</time></trkpt><trkpt lat="44.6816704" lon="9.9931546"><ele>190.0</ele><time>2026-04-11T14:22:15.882Z</time></trkpt><trkpt lat="44.6816874" lon="9.9932629"><ele>190.0</ele><time>2026-04-11T14:22:18.882Z</time></trkpt><trkpt lat="44.68161" lon="9.9933065"><ele>190.0</ele><time>2026-04-11T14:22:24.882Z</time></trkpt><trkpt lat="44.6815168" lon="9.9933272"><ele>190.0</ele><time>2026-04-11T14:22:27.882Z</time></trkpt><trkpt lat="44.6814692" lon="9.9934259"><ele>190.0</ele><time>2026-04-11T14:22:29.882Z</time></trkpt><trkpt lat="44.6814501" lon="9.9935267"><ele>190.0</ele><time>2026-04-11T14:22:31.882Z</time></trkpt><trkpt lat="44.681431" lon="9.9936503"><ele>189.83333333333334</ele><time>2026-04-11T14:22:33.882Z</time></trkpt><trkpt lat="44.6814224" lon="9.9937653"><ele>189.66666666666669</ele><time>2026-04-11T14:22:35.881Z</time></trkpt><trkpt lat="44.6814024" lon="9.9938637"><ele>189.5</ele><time>2026-04-11T14:22:37.881Z</time></trkpt><trkpt lat="44.6813708" lon="9.9939736"><ele>189.33333333333334</ele><time>2026-04-11T14:22:40.882Z</time></trkpt><trkpt lat="44.6813485" lon="9.9940785"><ele>189.16666666666666</ele><time>2026-04-11T14:22:42.882Z</time></trkpt><trkpt lat="44.6813141" lon="9.9942092"><ele>189.0</ele><time>2026-04-11T14:22:44.881Z</time></trkpt><trkpt lat="44.6812814" lon="9.9943424"><ele>189.0</ele><time>2026-04-11T14:22:46.882Z</time></trkpt><trkpt lat="44.6812498" lon="9.9944786"><ele>189.0</ele><time>2026-04-11T14:22:48.881Z</time></trkpt><trkpt lat="44.6812206" lon="9.9946162"><ele>189.0</ele><time>2026-04-11T14:22:50.881Z</time></trkpt><trkpt lat="44.6811925" lon="9.9947604"><ele>189.0</ele><time>2026-04-11T14:22:52.882Z</time></trkpt><trkpt lat="44.6811727" lon="9.9949258"><ele>189.0</ele><time>2026-04-11T14:22:54.882Z</time></trkpt><trkpt lat="44.6811613" lon="9.9950135"><ele>189.0</ele><time>2026-04-11T14:22:55.882Z</time></trkpt><trkpt lat="44.6811266" lon="9.9951879"><ele>189.0</ele><time>2026-04-11T14:22:57.882Z</time></trkpt><trkpt lat="44.681111" lon="9.9952849"><ele>189.0</ele><time>2026-04-11T14:22:58.882Z</time></trkpt><trkpt lat="44.6810959" lon="9.9953882"><ele>189.0</ele><time>2026-04-11T14:22:59.881Z</time></trkpt><trkpt lat="44.6810799" lon="9.9954915"><ele>189.0</ele><time>2026-04-11T14:23:00.882Z</time></trkpt><trkpt lat="44.6810626" lon="9.995601"><ele>189.0</ele><time>2026-04-11T14:23:01.881Z</time></trkpt><trkpt lat="44.6810465" lon="9.9957096"><ele>189.16666666666666</ele><time>2026-04-11T14:23:02.882Z</time></trkpt><trkpt lat="44.681029" lon="9.9958177"><ele>189.33333333333334</ele><time>2026-04-11T14:23:03.881Z</time></trkpt><trkpt lat="44.681009" lon="9.9959284"><ele>189.5</ele><time>2026-04-11T14:23:04.882Z</time></trkpt><trkpt lat="44.6809908" lon="9.996043"><ele>189.66666666666669</ele><time>2026-04-11T14:23:05.882Z</time></trkpt><trkpt lat="44.6809737" lon="9.9961536"><ele>189.83333333333334</ele><time>2026-04-11T14:23:06.882Z</time></trkpt><trkpt lat="44.6809583" lon="9.996265"><ele>190.0</ele><time>2026-04-11T14:23:07.882Z</time></trkpt><trkpt lat="44.6809388" lon="9.9963713"><ele>190.0</ele><time>2026-04-11T14:23:08.882Z</time></trkpt><trkpt lat="44.6809141" lon="9.9964784"><ele>190.0</ele><time>2026-04-11T14:23:09.882Z</time></trkpt><trkpt lat="44.6808826" lon="9.9965862"><ele>190.0</ele><time>2026-04-11T14:23:10.881Z</time></trkpt><trkpt lat="44.6808549" lon="9.9967012"><ele>190.0</ele><time>2026-04-11T14:23:11.882Z</time></trkpt><trkpt lat="44.6808284" lon="9.9968165"><ele>190.0</ele><time>2026-04-11T14:23:12.882Z</time></trkpt><trkpt lat="44.6808059" lon="9.9969337"><ele>190.0</ele><time>2026-04-11T14:23:13.882Z</time></trkpt><trkpt lat="44.680789" lon="9.9970583"><ele>189.6</ele><time>2026-04-11T14:23:14.881Z</time></trkpt><trkpt lat="44.6807784" lon="9.9971865"><ele>189.2</ele><time>2026-04-11T14:23:15.882Z</time></trkpt><trkpt lat="44.6807728" lon="9.9973142"><ele>188.8</ele><time>2026-04-11T14:23:16.882Z</time></trkpt><trkpt lat="44.6807675" lon="9.9974452"><ele>188.4</ele><time>2026-04-11T14:23:17.882Z</time></trkpt><trkpt lat="44.6807677" lon="9.9975751"><ele>188.0</ele><time>2026-04-11T14:23:18.882Z</time></trkpt><trkpt lat="44.680769" lon="9.9977065"><ele>188.0</ele><time>2026-04-11T14:23:19.882Z</time></trkpt><trkpt lat="44.6807683" lon="9.9978275"><ele>188.0</ele><time>2026-04-11T14:23:20.881Z</time></trkpt><trkpt lat="44.6807693" lon="9.9979367"><ele>188.0</ele><time>2026-04-11T14:23:21.882Z</time></trkpt><trkpt lat="44.6807681" lon="9.9980314"><ele>188.0</ele><time>2026-04-11T14:23:22.881Z</time></trkpt><trkpt lat="44.6807687" lon="9.9981793"><ele>188.0</ele><time>2026-04-11T14:23:24.881Z</time></trkpt><trkpt lat="44.6807772" lon="9.9982771"><ele>188.0</ele><time>2026-04-11T14:23:26.881Z</time></trkpt><trkpt lat="44.6807776" lon="9.9984099"><ele>188.0</ele><time>2026-04-11T14:23:28.882Z</time></trkpt><trkpt lat="44.6807581" lon="9.9986747"><ele>188.0</ele><time>2026-04-11T14:23:31.882Z</time></trkpt><trkpt lat="44.6807517" lon="9.9988501"><ele>188.0</ele><time>2026-04-11T14:23:33.881Z</time></trkpt><trkpt lat="44.680758" lon="9.9989981"><ele>188.0</ele><time>2026-04-11T14:23:35.882Z</time></trkpt><trkpt lat="44.6807555" lon="9.9991346"><ele>187.8</ele><time>2026-04-11T14:23:37.882Z</time></trkpt><trkpt lat="44.6807475" lon="9.9992453"><ele>187.60000000000002</ele><time>2026-04-11T14:23:38.882Z</time></trkpt><trkpt lat="44.6807359" lon="9.9993738"><ele>187.39999999999998</ele><time>2026-04-11T14:23:39.881Z</time></trkpt><trkpt lat="44.6807271" lon="9.9995301"><ele>187.2</ele><time>2026-04-11T14:23:40.882Z</time></trkpt><trkpt lat="44.6807105" lon="9.999691"><ele>187.0</ele><time>2026-04-11T14:23:41.882Z</time></trkpt><trkpt lat="44.6806869" lon="9.9998464"><ele>187.0</ele><time>2026-04-11T14:23:42.882Z</time></trkpt><trkpt lat="44.6806541" lon="9.9999929"><ele>187.0</ele><time>2026-04-11T14:23:43.882Z</time></trkpt><trkpt lat="44.6806123" lon="10.0001503"><ele>187.0</ele><time>2026-04-11T14:23:44.882Z</time></trkpt><trkpt lat="44.6805689" lon="10.0003126"><ele>187.0</ele><time>2026-04-11T14:23:45.882Z</time></trkpt><trkpt lat="44.6805217" lon="10.0004789"><ele>187.0</ele><time>2026-04-11T14:23:46.881Z</time></trkpt><trkpt lat="44.6804724" lon="10.000644"><ele>187.0</ele><time>2026-04-11T14:23:47.882Z</time></trkpt><trkpt lat="44.6804232" lon="10.000819"><ele>187.0</ele><time>2026-04-11T14:23:48.882Z</time></trkpt><trkpt lat="44.6803749" lon="10.0010019"><ele>187.0</ele><time>2026-04-11T14:23:49.882Z</time></trkpt><trkpt lat="44.6803234" lon="10.0011819"><ele>187.0</ele><time>2026-04-11T14:23:50.882Z</time></trkpt><trkpt lat="44.6802696" lon="10.0013646"><ele>187.0</ele><time>2026-04-11T14:23:51.882Z</time></trkpt><trkpt lat="44.6802198" lon="10.0015479"><ele>187.0</ele><time>2026-04-11T14:23:52.882Z</time></trkpt><trkpt lat="44.6801755" lon="10.0017343"><ele>187.0</ele><time>2026-04-11T14:23:53.882Z</time></trkpt><trkpt lat="44.6801344" lon="10.001921"><ele>187.0</ele><time>2026-04-11T14:23:54.881Z</time></trkpt><trkpt lat="44.6800984" lon="10.0021056"><ele>187.0</ele><time>2026-04-11T14:23:55.882Z</time></trkpt><trkpt lat="44.6800611" lon="10.0022833"><ele>187.0</ele><time>2026-04-11T14:23:56.883Z</time></trkpt><trkpt lat="44.680026" lon="10.0024556"><ele>187.0</ele><time>2026-04-11T14:23:57.882Z</time></trkpt><trkpt lat="44.6799937" lon="10.0026261"><ele>187.0</ele><time>2026-04-11T14:23:58.882Z</time></trkpt><trkpt lat="44.6799649" lon="10.0028002"><ele>187.0</ele><time>2026-04-11T14:23:59.881Z</time></trkpt><trkpt lat="44.6799396" lon="10.0029807"><ele>187.0</ele><time>2026-04-11T14:24:00.882Z</time></trkpt><trkpt lat="44.6799179" lon="10.0031684"><ele>187.0</ele><time>2026-04-11T14:24:01.881Z</time></trkpt><trkpt lat="44.6799069" lon="10.0033546"><ele>186.75</ele><time>2026-04-11T14:24:02.882Z</time></trkpt><trkpt lat="44.679894" lon="10.0035363"><ele>186.5</ele><time>2026-04-11T14:24:03.882Z</time></trkpt><trkpt lat="44.6798831" lon="10.0037186"><ele>186.25</ele><time>2026-04-11T14:24:04.881Z</time></trkpt><trkpt lat="44.6798714" lon="10.0038981"><ele>186.0</ele><time>2026-04-11T14:24:05.882Z</time></trkpt><trkpt lat="44.6798617" lon="10.0040629"><ele>186.0</ele><time>2026-04-11T14:24:06.882Z</time></trkpt><trkpt lat="44.6798584" lon="10.0042171"><ele>186.0</ele><time>2026-04-11T14:24:07.882Z</time></trkpt><trkpt lat="44.6798543" lon="10.0043707"><ele>186.0</ele><time>2026-04-11T14:24:08.882Z</time></trkpt><trkpt lat="44.6798524" lon="10.0045311"><ele>186.0</ele><time>2026-04-11T14:24:09.882Z</time></trkpt><trkpt lat="44.6798604" lon="10.0046916"><ele>186.0</ele><time>2026-04-11T14:24:10.881Z</time></trkpt><trkpt lat="44.6798749" lon="10.0048583"><ele>186.25</ele><time>2026-04-11T14:24:11.882Z</time></trkpt><trkpt lat="44.6798923" lon="10.0050201"><ele>186.5</ele><time>2026-04-11T14:24:12.881Z</time></trkpt><trkpt lat="44.6799159" lon="10.0051827"><ele>186.75</ele><time>2026-04-11T14:24:13.882Z</time></trkpt><trkpt lat="44.6799444" lon="10.0053422"><ele>187.0</ele><time>2026-04-11T14:24:14.882Z</time></trkpt><trkpt lat="44.6800118" lon="10.005656"><ele>187.0</ele><time>2026-04-11T14:24:16.881Z</time></trkpt><trkpt lat="44.6800471" lon="10.005806"><ele>187.0</ele><time>2026-04-11T14:24:17.882Z</time></trkpt><trkpt lat="44.6800737" lon="10.0059575"><ele>187.0</ele><time>2026-04-11T14:24:18.881Z</time></trkpt><trkpt lat="44.6800944" lon="10.0061133"><ele>187.0</ele><time>2026-04-11T14:24:19.881Z</time></trkpt><trkpt lat="44.6801117" lon="10.0062689"><ele>187.0</ele><time>2026-04-11T14:24:20.882Z</time></trkpt><trkpt lat="44.6801295" lon="10.0064212"><ele>187.5</ele><time>2026-04-11T14:24:21.882Z</time></trkpt><trkpt lat="44.6801506" lon="10.0065617"><ele>188.0</ele><time>2026-04-11T14:24:22.882Z</time></trkpt><trkpt lat="44.6801747" lon="10.0066833"><ele>188.5</ele><time>2026-04-11T14:24:23.882Z</time></trkpt><trkpt lat="44.6802055" lon="10.0067932"><ele>189.0</ele><time>2026-04-11T14:24:24.882Z</time></trkpt><trkpt lat="44.6802353" lon="10.0068932"><ele>189.5</ele><time>2026-04-11T14:24:25.882Z</time></trkpt><trkpt lat="44.6802621" lon="10.0069884"><ele>190.0</ele><time>2026-04-11T14:24:26.881Z</time></trkpt><trkpt lat="44.6802852" lon="10.0070797"><ele>188.83333333333334</ele><time>2026-04-11T14:24:27.882Z</time></trkpt><trkpt lat="44.6803065" lon="10.0071667"><ele>187.66666666666669</ele><time>2026-04-11T14:24:28.882Z</time></trkpt><trkpt lat="44.6803185" lon="10.0072585"><ele>186.5</ele><time>2026-04-11T14:24:29.882Z</time></trkpt><trkpt lat="44.680327" lon="10.0073509"><ele>185.33333333333334</ele><time>2026-04-11T14:24:30.882Z</time></trkpt><trkpt lat="44.6803281" lon="10.0075322"><ele>184.16666666666666</ele><time>2026-04-11T14:24:32.882Z</time></trkpt><trkpt lat="44.6803166" lon="10.0076304"><ele>183.0</ele><time>2026-04-11T14:24:33.882Z</time></trkpt><trkpt lat="44.6803029" lon="10.0077296"><ele>183.0</ele><time>2026-04-11T14:24:34.882Z</time></trkpt><trkpt lat="44.6802973" lon="10.0078362"><ele>183.0</ele><time>2026-04-11T14:24:35.883Z</time></trkpt><trkpt lat="44.6802985" lon="10.0079506"><ele>183.0</ele><time>2026-04-11T14:24:36.882Z</time></trkpt><trkpt lat="44.6803031" lon="10.0080694"><ele>183.0</ele><time>2026-04-11T14:24:37.881Z</time></trkpt><trkpt lat="44.6803111" lon="10.008185"><ele>183.0</ele><time>2026-04-11T14:24:38.882Z</time></trkpt><trkpt lat="44.6803274" lon="10.0083001"><ele>183.0</ele><time>2026-04-11T14:24:39.881Z</time></trkpt><trkpt lat="44.6803522" lon="10.0084214"><ele>183.0</ele><time>2026-04-11T14:24:40.882Z</time></trkpt><trkpt lat="44.6803768" lon="10.0085426"><ele>183.0</ele><time>2026-04-11T14:24:41.882Z</time></trkpt><trkpt lat="44.6804002" lon="10.0086717"><ele>183.0</ele><time>2026-04-11T14:24:42.882Z</time></trkpt><trkpt lat="44.6804165" lon="10.0088067"><ele>183.0</ele><time>2026-04-11T14:24:43.882Z</time></trkpt><trkpt lat="44.6804278" lon="10.0089462"><ele>183.0</ele><time>2026-04-11T14:24:44.881Z</time></trkpt><trkpt lat="44.6804387" lon="10.0090864"><ele>182.8</ele><time>2026-04-11T14:24:45.882Z</time></trkpt><trkpt lat="44.6804486" lon="10.009228"><ele>182.60000000000002</ele><time>2026-04-11T14:24:46.881Z</time></trkpt><trkpt lat="44.680462" lon="10.0093706"><ele>182.39999999999998</ele><time>2026-04-11T14:24:47.882Z</time></trkpt><trkpt lat="44.6804769" lon="10.0095205"><ele>182.2</ele><time>2026-04-11T14:24:48.882Z</time></trkpt><trkpt lat="44.6804927" lon="10.0096652"><ele>182.0</ele><time>2026-04-11T14:24:49.882Z</time></trkpt><trkpt lat="44.6805124" lon="10.009803"><ele>182.0</ele><time>2026-04-11T14:24:50.882Z</time></trkpt><trkpt lat="44.6805346" lon="10.0099301"><ele>182.0</ele><time>2026-04-11T14:24:51.882Z</time></trkpt><trkpt lat="44.6805549" lon="10.0100501"><ele>182.0</ele><time>2026-04-11T14:24:52.882Z</time></trkpt><trkpt lat="44.6805727" lon="10.0101672"><ele>182.0</ele><time>2026-04-11T14:24:53.882Z</time></trkpt><trkpt lat="44.6805925" lon="10.0102908"><ele>182.0</ele><time>2026-04-11T14:24:54.882Z</time></trkpt><trkpt lat="44.6806188" lon="10.0104142"><ele>182.0</ele><time>2026-04-11T14:24:55.882Z</time></trkpt><trkpt lat="44.680644" lon="10.0105364"><ele>182.0</ele><time>2026-04-11T14:24:56.881Z</time></trkpt><trkpt lat="44.6806679" lon="10.0106646"><ele>182.0</ele><time>2026-04-11T14:24:57.882Z</time></trkpt><trkpt lat="44.6806929" lon="10.0107941"><ele>182.0</ele><time>2026-04-11T14:24:58.882Z</time></trkpt><trkpt lat="44.6807164" lon="10.01092"><ele>182.0</ele><time>2026-04-11T14:24:59.882Z</time></trkpt><trkpt lat="44.6807402" lon="10.0110448"><ele>182.0</ele><time>2026-04-11T14:25:00.882Z</time></trkpt><trkpt lat="44.6807602" lon="10.0111652"><ele>181.83333333333331</ele><time>2026-04-11T14:25:01.882Z</time></trkpt><trkpt lat="44.680783" lon="10.0112805"><ele>181.66666666666666</ele><time>2026-04-11T14:25:02.882Z</time></trkpt><trkpt lat="44.6808016" lon="10.0113977"><ele>181.5</ele><time>2026-04-11T14:25:03.882Z</time></trkpt><trkpt lat="44.6808242" lon="10.0115178"><ele>181.33333333333334</ele><time>2026-04-11T14:25:04.882Z</time></trkpt><trkpt lat="44.6808435" lon="10.0116325"><ele>181.16666666666669</ele><time>2026-04-11T14:25:05.881Z</time></trkpt><trkpt lat="44.6808644" lon="10.0117428"><ele>181.0</ele><time>2026-04-11T14:25:06.882Z</time></trkpt><trkpt lat="44.6808868" lon="10.0118465"><ele>180.85714285714286</ele><time>2026-04-11T14:25:07.882Z</time></trkpt><trkpt lat="44.6809093" lon="10.011943"><ele>180.71428571428572</ele><time>2026-04-11T14:25:08.882Z</time></trkpt><trkpt lat="44.6809292" lon="10.0120348"><ele>180.57142857142856</ele><time>2026-04-11T14:25:09.882Z</time></trkpt><trkpt lat="44.6809536" lon="10.0121227"><ele>180.42857142857144</ele><time>2026-04-11T14:25:10.882Z</time></trkpt><trkpt lat="44.6809779" lon="10.0122082"><ele>180.2857142857143</ele><time>2026-04-11T14:25:11.882Z</time></trkpt><trkpt lat="44.680999" lon="10.0122928"><ele>180.14285714285714</ele><time>2026-04-11T14:25:12.882Z</time></trkpt><trkpt lat="44.6810199" lon="10.0123793"><ele>180.0</ele><time>2026-04-11T14:25:13.881Z</time></trkpt><trkpt lat="44.6810409" lon="10.0124636"><ele>180.2</ele><time>2026-04-11T14:25:14.882Z</time></trkpt><trkpt lat="44.6810686" lon="10.0126424"><ele>180.4</ele><time>2026-04-11T14:25:16.881Z</time></trkpt><trkpt lat="44.6810873" lon="10.0127369"><ele>180.60000000000002</ele><time>2026-04-11T14:25:17.882Z</time></trkpt><trkpt lat="44.6811081" lon="10.0128316"><ele>180.8</ele><time>2026-04-11T14:25:18.882Z</time></trkpt><trkpt lat="44.6811417" lon="10.0130042"><ele>181.0</ele><time>2026-04-11T14:25:20.882Z</time></trkpt><trkpt lat="44.6811736" lon="10.0131525"><ele>180.20000000000002</ele><time>2026-04-11T14:25:22.881Z</time></trkpt><trkpt lat="44.6812083" lon="10.0133"><ele>179.4</ele><time>2026-04-11T14:25:24.881Z</time></trkpt><trkpt lat="44.6812282" lon="10.0134382"><ele>178.6</ele><time>2026-04-11T14:25:26.882Z</time></trkpt><trkpt lat="44.6812521" lon="10.0135605"><ele>177.8</ele><time>2026-04-11T14:25:28.881Z</time></trkpt><trkpt lat="44.6812223" lon="10.0136526"><ele>177.0</ele><time>2026-04-11T14:25:31.882Z</time></trkpt><trkpt lat="44.681222" lon="10.0137936"><ele>177.0</ele><time>2026-04-11T14:25:34.881Z</time></trkpt><trkpt lat="44.6812303" lon="10.0139226"><ele>177.0</ele><time>2026-04-11T14:25:36.881Z</time></trkpt><trkpt lat="44.6812715" lon="10.0140033"><ele>177.0</ele><time>2026-04-11T14:25:38.882Z</time></trkpt><trkpt lat="44.681321" lon="10.0141043"><ele>177.0</ele><time>2026-04-11T14:25:40.882Z</time></trkpt><trkpt lat="44.6813573" lon="10.0142672"><ele>177.0</ele><time>2026-04-11T14:25:42.882Z</time></trkpt><trkpt lat="44.6813677" lon="10.0143665"><ele>177.0</ele><time>2026-04-11T14:25:43.881Z</time></trkpt><trkpt lat="44.6813843" lon="10.0144748"><ele>177.0</ele><time>2026-04-11T14:25:44.882Z</time></trkpt><trkpt lat="44.6814054" lon="10.0145895"><ele>177.0</ele><time>2026-04-11T14:25:45.881Z</time></trkpt><trkpt lat="44.6814273" lon="10.0147054"><ele>177.0</ele><time>2026-04-11T14:25:46.882Z</time></trkpt><trkpt lat="44.6814715" lon="10.014919"><ele>177.0</ele><time>2026-04-11T14:25:48.883Z</time></trkpt><trkpt lat="44.6814933" lon="10.0150076"><ele>177.0</ele><time>2026-04-11T14:25:49.882Z</time></trkpt><trkpt lat="44.6815279" lon="10.0151674"><ele>177.0</ele><time>2026-04-11T14:25:51.882Z</time></trkpt><trkpt lat="44.681557" lon="10.0153267"><ele>177.0</ele><time>2026-04-11T14:25:53.882Z</time></trkpt><trkpt lat="44.6815734" lon="10.015417"><ele>177.0</ele><time>2026-04-11T14:25:54.881Z</time></trkpt><trkpt lat="44.6815802" lon="10.0155117"><ele>177.0</ele><time>2026-04-11T14:25:55.882Z</time></trkpt><trkpt lat="44.681581" lon="10.015601"><ele>177.0</ele><time>2026-04-11T14:25:56.881Z</time></trkpt><trkpt lat="44.6815493" lon="10.0157613"><ele>177.0</ele><time>2026-04-11T14:25:58.881Z</time></trkpt><trkpt lat="44.6815302" lon="10.015848"><ele>177.33333333333334</ele><time>2026-04-11T14:25:59.882Z</time></trkpt><trkpt lat="44.6815077" lon="10.015937"><ele>177.66666666666666</ele><time>2026-04-11T14:26:00.882Z</time></trkpt><trkpt lat="44.681483" lon="10.0160299"><ele>178.0</ele><time>2026-04-11T14:26:01.882Z</time></trkpt><trkpt lat="44.6814555" lon="10.0161164"><ele>178.33333333333331</ele><time>2026-04-11T14:26:02.882Z</time></trkpt><trkpt lat="44.6814245" lon="10.0162686"><ele>178.66666666666666</ele><time>2026-04-11T14:26:04.882Z</time></trkpt><trkpt lat="44.6814772" lon="10.0164203"><ele>179.0</ele><time>2026-04-11T14:26:07.882Z</time></trkpt><trkpt lat="44.6816091" lon="10.0164897"><ele>179.0</ele><time>2026-04-11T14:26:09.882Z</time></trkpt><trkpt lat="44.6817022" lon="10.0165005"><ele>179.0</ele><time>2026-04-11T14:26:10.882Z</time></trkpt><trkpt lat="44.6818111" lon="10.0164955"><ele>179.0</ele><time>2026-04-11T14:26:11.881Z</time></trkpt><trkpt lat="44.6819313" lon="10.0164879"><ele>179.0</ele><time>2026-04-11T14:26:12.882Z</time></trkpt><trkpt lat="44.6820621" lon="10.0164774"><ele>178.25</ele><time>2026-04-11T14:26:13.882Z</time></trkpt><trkpt lat="44.6821915" lon="10.0164702"><ele>177.5</ele><time>2026-04-11T14:26:14.881Z</time></trkpt><trkpt lat="44.682326" lon="10.0164623"><ele>176.75</ele><time>2026-04-11T14:26:15.882Z</time></trkpt><trkpt lat="44.6824605" lon="10.0164508"><ele>176.0</ele><time>2026-04-11T14:26:16.882Z</time></trkpt><trkpt lat="44.6825946" lon="10.0164422"><ele>176.0</ele><time>2026-04-11T14:26:17.882Z</time></trkpt><trkpt lat="44.6827263" lon="10.0164367"><ele>176.0</ele><time>2026-04-11T14:26:18.881Z</time></trkpt><trkpt lat="44.6828564" lon="10.0164308"><ele>176.0</ele><time>2026-04-11T14:26:19.882Z</time></trkpt><trkpt lat="44.6829847" lon="10.0164254"><ele>176.0</ele><time>2026-04-11T14:26:20.881Z</time></trkpt><trkpt lat="44.683116" lon="10.0164255"><ele>176.25</ele><time>2026-04-11T14:26:21.882Z</time></trkpt><trkpt lat="44.683242" lon="10.0164213"><ele>176.5</ele><time>2026-04-11T14:26:22.881Z</time></trkpt><trkpt lat="44.6833703" lon="10.0164184"><ele>176.75</ele><time>2026-04-11T14:26:23.882Z</time></trkpt><trkpt lat="44.6834919" lon="10.0164147"><ele>177.0</ele><time>2026-04-11T14:26:24.882Z</time></trkpt><trkpt lat="44.6836156" lon="10.0164108"><ele>179.0</ele><time>2026-04-11T14:26:25.882Z</time></trkpt><trkpt lat="44.6837418" lon="10.0164074"><ele>181.0</ele><time>2026-04-11T14:26:26.882Z</time></trkpt><trkpt lat="44.6838635" lon="10.0164029"><ele>183.0</ele><time>2026-04-11T14:26:27.882Z</time></trkpt><trkpt lat="44.6839884" lon="10.0163997"><ele>185.0</ele><time>2026-04-11T14:26:28.882Z</time></trkpt><trkpt lat="44.6841129" lon="10.0163909"><ele>185.0</ele><time>2026-04-11T14:26:29.882Z</time></trkpt><trkpt lat="44.6842381" lon="10.0163846"><ele>185.0</ele><time>2026-04-11T14:26:30.882Z</time></trkpt><trkpt lat="44.6843628" lon="10.0163775"><ele>185.0</ele><time>2026-04-11T14:26:31.881Z</time></trkpt><trkpt lat="44.6844902" lon="10.0163728"><ele>185.0</ele><time>2026-04-11T14:26:32.881Z</time></trkpt><trkpt lat="44.6846138" lon="10.0163687"><ele>184.0</ele><time>2026-04-11T14:26:33.882Z</time></trkpt><trkpt lat="44.6847341" lon="10.016362"><ele>183.0</ele><time>2026-04-11T14:26:34.882Z</time></trkpt><trkpt lat="44.6848586" lon="10.0163548"><ele>182.0</ele><time>2026-04-11T14:26:35.882Z</time></trkpt><trkpt lat="44.6849807" lon="10.0163518"><ele>181.0</ele><time>2026-04-11T14:26:36.882Z</time></trkpt><trkpt lat="44.6851027" lon="10.0163449"><ele>181.0</ele><time>2026-04-11T14:26:37.881Z</time></trkpt><trkpt lat="44.6852169" lon="10.0163391"><ele>181.0</ele><time>2026-04-11T14:26:38.882Z</time></trkpt><trkpt lat="44.6853255" lon="10.0163336"><ele>181.0</ele><time>2026-04-11T14:26:39.882Z</time></trkpt><trkpt lat="44.6854206" lon="10.0163296"><ele>181.0</ele><time>2026-04-11T14:26:40.882Z</time></trkpt><trkpt lat="44.6855035" lon="10.0163391"><ele>181.0</ele><time>2026-04-11T14:26:41.881Z</time></trkpt><trkpt lat="44.6856083" lon="10.0164017"><ele>181.60000000000002</ele><time>2026-04-11T14:26:43.882Z</time></trkpt><trkpt lat="44.6856869" lon="10.0165557"><ele>182.2</ele><time>2026-04-11T14:26:45.882Z</time></trkpt><trkpt lat="44.6857121" lon="10.0166707"><ele>182.8</ele><time>2026-04-11T14:26:46.882Z</time></trkpt><trkpt lat="44.6857139" lon="10.0167976"><ele>183.39999999999998</ele><time>2026-04-11T14:26:47.882Z</time></trkpt><trkpt lat="44.68569" lon="10.0169249"><ele>184.0</ele><time>2026-04-11T14:26:48.882Z</time></trkpt><trkpt lat="44.6856449" lon="10.017055"><ele>184.5</ele><time>2026-04-11T14:26:49.882Z</time></trkpt><trkpt lat="44.6855882" lon="10.0171943"><ele>185.0</ele><time>2026-04-11T14:26:50.882Z</time></trkpt><trkpt lat="44.6855371" lon="10.017339"><ele>185.5</ele><time>2026-04-11T14:26:51.882Z</time></trkpt><trkpt lat="44.685492" lon="10.0174908"><ele>186.0</ele><time>2026-04-11T14:26:52.882Z</time></trkpt><trkpt lat="44.6854198" lon="10.0178055"><ele>186.33333333333334</ele><time>2026-04-11T14:26:54.882Z</time></trkpt><trkpt lat="44.6853738" lon="10.0181492"><ele>186.66666666666669</ele><time>2026-04-11T14:26:56.882Z</time></trkpt><trkpt lat="44.6853547" lon="10.0183314"><ele>187.0</ele><time>2026-04-11T14:26:57.881Z</time></trkpt><trkpt lat="44.685337" lon="10.0185198"><ele>186.5</ele><time>2026-04-11T14:26:58.882Z</time></trkpt><trkpt lat="44.6853194" lon="10.0187172"><ele>186.0</ele><time>2026-04-11T14:26:59.882Z</time></trkpt><trkpt lat="44.6853024" lon="10.0189192"><ele>185.5</ele><time>2026-04-11T14:27:00.882Z</time></trkpt><trkpt lat="44.6852858" lon="10.0191195"><ele>185.0</ele><time>2026-04-11T14:27:01.882Z</time></trkpt><trkpt lat="44.6852644" lon="10.0193271"><ele>184.5</ele><time>2026-04-11T14:27:02.882Z</time></trkpt><trkpt lat="44.685242" lon="10.0195346"><ele>184.0</ele><time>2026-04-11T14:27:03.882Z</time></trkpt><trkpt lat="44.6852272" lon="10.0197376"><ele>183.5</ele><time>2026-04-11T14:27:04.882Z</time></trkpt><trkpt lat="44.6852187" lon="10.0199444"><ele>183.0</ele><time>2026-04-11T14:27:05.882Z</time></trkpt><trkpt lat="44.6852154" lon="10.0201498"><ele>181.75</ele><time>2026-04-11T14:27:06.882Z</time></trkpt><trkpt lat="44.6852197" lon="10.0203516"><ele>180.5</ele><time>2026-04-11T14:27:07.882Z</time></trkpt><trkpt lat="44.6852287" lon="10.0205522"><ele>179.25</ele><time>2026-04-11T14:27:08.882Z</time></trkpt><trkpt lat="44.6852412" lon="10.0207512"><ele>178.0</ele><time>2026-04-11T14:27:09.881Z</time></trkpt><trkpt lat="44.6852516" lon="10.020948"><ele>178.0</ele><time>2026-04-11T14:27:10.882Z</time></trkpt><trkpt lat="44.6852599" lon="10.0211435"><ele>178.0</ele><time>2026-04-11T14:27:11.882Z</time></trkpt><trkpt lat="44.685264" lon="10.021336"><ele>178.0</ele><time>2026-04-11T14:27:12.882Z</time></trkpt><trkpt lat="44.6852693" lon="10.0215275"><ele>178.0</ele><time>2026-04-11T14:27:13.881Z</time></trkpt><trkpt lat="44.685275" lon="10.0217156"><ele>178.25</ele><time>2026-04-11T14:27:14.882Z</time></trkpt><trkpt lat="44.6852788" lon="10.0219054"><ele>178.5</ele><time>2026-04-11T14:27:15.882Z</time></trkpt><trkpt lat="44.6852842" lon="10.022096"><ele>178.75</ele><time>2026-04-11T14:27:16.882Z</time></trkpt><trkpt lat="44.6852929" lon="10.022286"><ele>179.0</ele><time>2026-04-11T14:27:17.881Z</time></trkpt><trkpt lat="44.6853072" lon="10.0226726"><ele>179.75</ele><time>2026-04-11T14:27:19.881Z</time></trkpt><trkpt lat="44.6853154" lon="10.0228704"><ele>180.5</ele><time>2026-04-11T14:27:20.882Z</time></trkpt><trkpt lat="44.6853216" lon="10.0230683"><ele>181.25</ele><time>2026-04-11T14:27:21.882Z</time></trkpt><trkpt lat="44.6853268" lon="10.0232649"><ele>182.0</ele><time>2026-04-11T14:27:22.881Z</time></trkpt><trkpt lat="44.6853335" lon="10.0234584"><ele>182.25</ele><time>2026-04-11T14:27:23.882Z</time></trkpt><trkpt lat="44.6853385" lon="10.0236498"><ele>182.5</ele><time>2026-04-11T14:27:24.881Z</time></trkpt><trkpt lat="44.6853455" lon="10.0238407"><ele>182.75</ele><time>2026-04-11T14:27:25.881Z</time></trkpt><trkpt lat="44.6853544" lon="10.0240295"><ele>183.0</ele><time>2026-04-11T14:27:26.882Z</time></trkpt><trkpt lat="44.6853648" lon="10.0242164"><ele>182.5</ele><time>2026-04-11T14:27:27.882Z</time></trkpt><trkpt lat="44.6853819" lon="10.024406"><ele>182.0</ele><time>2026-04-11T14:27:28.882Z</time></trkpt><trkpt lat="44.6854075" lon="10.0245913"><ele>181.5</ele><time>2026-04-11T14:27:29.882Z</time></trkpt><trkpt lat="44.6854417" lon="10.024775"><ele>181.0</ele><time>2026-04-11T14:27:30.882Z</time></trkpt><trkpt lat="44.685482" lon="10.0249558"><ele>180.75</ele><time>2026-04-11T14:27:31.882Z</time></trkpt><trkpt lat="44.6855306" lon="10.0251345"><ele>180.5</ele><time>2026-04-11T14:27:32.881Z</time></trkpt><trkpt lat="44.6855855" lon="10.0253069"><ele>180.25</ele><time>2026-04-11T14:27:33.882Z</time></trkpt><trkpt lat="44.6856457" lon="10.0254728"><ele>180.0</ele><time>2026-04-11T14:27:34.883Z</time></trkpt><trkpt lat="44.6857113" lon="10.0256348"><ele>180.0</ele><time>2026-04-11T14:27:35.881Z</time></trkpt><trkpt lat="44.6857803" lon="10.0257864"><ele>180.0</ele><time>2026-04-11T14:27:36.882Z</time></trkpt><trkpt lat="44.6858536" lon="10.0259365"><ele>180.0</ele><time>2026-04-11T14:27:37.881Z</time></trkpt><trkpt lat="44.6860088" lon="10.0262352"><ele>180.0</ele><time>2026-04-11T14:27:39.882Z</time></trkpt><trkpt lat="44.6860861" lon="10.0263884"><ele>180.0</ele><time>2026-04-11T14:27:40.881Z</time></trkpt><trkpt lat="44.6861595" lon="10.0265464"><ele>180.0</ele><time>2026-04-11T14:27:41.881Z</time></trkpt><trkpt lat="44.6862283" lon="10.0267043"><ele>180.0</ele><time>2026-04-11T14:27:42.882Z</time></trkpt><trkpt lat="44.6862982" lon="10.0268654"><ele>180.5</ele><time>2026-04-11T14:27:43.881Z</time></trkpt><trkpt lat="44.686364" lon="10.027027"><ele>181.0</ele><time>2026-04-11T14:27:44.882Z</time></trkpt><trkpt lat="44.6864254" lon="10.0271853"><ele>181.5</ele><time>2026-04-11T14:27:45.882Z</time></trkpt><trkpt lat="44.6864824" lon="10.0273464"><ele>182.0</ele><time>2026-04-11T14:27:46.881Z</time></trkpt><trkpt lat="44.6865351" lon="10.0275118"><ele>182.0</ele><time>2026-04-11T14:27:47.882Z</time></trkpt><trkpt lat="44.6865868" lon="10.0276797"><ele>182.0</ele><time>2026-04-11T14:27:48.881Z</time></trkpt><trkpt lat="44.686633" lon="10.0278492"><ele>182.0</ele><time>2026-04-11T14:27:49.882Z</time></trkpt><trkpt lat="44.6866749" lon="10.0280262"><ele>182.0</ele><time>2026-04-11T14:27:50.882Z</time></trkpt><trkpt lat="44.6867537" lon="10.028384"><ele>181.33333333333331</ele><time>2026-04-11T14:27:52.882Z</time></trkpt><trkpt lat="44.6867917" lon="10.0285656"><ele>180.66666666666666</ele><time>2026-04-11T14:27:53.882Z</time></trkpt><trkpt lat="44.6868265" lon="10.0287514"><ele>180.0</ele><time>2026-04-11T14:27:54.881Z</time></trkpt><trkpt lat="44.6868802" lon="10.029145"><ele>179.0</ele><time>2026-04-11T14:27:56.882Z</time></trkpt><trkpt lat="44.6868953" lon="10.0293498"><ele>178.0</ele><time>2026-04-11T14:27:57.882Z</time></trkpt><trkpt lat="44.6869057" lon="10.029554"><ele>177.0</ele><time>2026-04-11T14:27:58.882Z</time></trkpt><trkpt lat="44.6869122" lon="10.0297577"><ele>176.0</ele><time>2026-04-11T14:27:59.881Z</time></trkpt><trkpt lat="44.6869245" lon="10.0303582"><ele>176.5</ele><time>2026-04-11T14:28:02.881Z</time></trkpt><trkpt lat="44.6869358" lon="10.0305507"><ele>177.0</ele><time>2026-04-11T14:28:03.882Z</time></trkpt><trkpt lat="44.6869447" lon="10.0307364"><ele>177.5</ele><time>2026-04-11T14:28:04.882Z</time></trkpt><trkpt lat="44.6869651" lon="10.0309223"><ele>178.0</ele><time>2026-04-11T14:28:05.882Z</time></trkpt><trkpt lat="44.6869911" lon="10.031094"><ele>178.0</ele><time>2026-04-11T14:28:06.881Z</time></trkpt><trkpt lat="44.6870204" lon="10.031251"><ele>178.0</ele><time>2026-04-11T14:28:07.882Z</time></trkpt><trkpt lat="44.6870477" lon="10.0314011"><ele>178.0</ele><time>2026-04-11T14:28:08.882Z</time></trkpt><trkpt lat="44.687063" lon="10.0315471"><ele>178.0</ele><time>2026-04-11T14:28:09.882Z</time></trkpt><trkpt lat="44.6870663" lon="10.031702"><ele>178.0</ele><time>2026-04-11T14:28:10.883Z</time></trkpt><trkpt lat="44.6870659" lon="10.0318618"><ele>177.75</ele><time>2026-04-11T14:28:11.881Z</time></trkpt><trkpt lat="44.6870702" lon="10.0320274"><ele>177.5</ele><time>2026-04-11T14:28:12.882Z</time></trkpt><trkpt lat="44.6870753" lon="10.0321951"><ele>177.25</ele><time>2026-04-11T14:28:13.881Z</time></trkpt><trkpt lat="44.6870789" lon="10.0323609"><ele>177.0</ele><time>2026-04-11T14:28:14.882Z</time></trkpt><trkpt lat="44.6870833" lon="10.0325196"><ele>176.33333333333334</ele><time>2026-04-11T14:28:15.882Z</time></trkpt><trkpt lat="44.6870926" lon="10.0328443"><ele>175.66666666666669</ele><time>2026-04-11T14:28:17.882Z</time></trkpt><trkpt lat="44.6870947" lon="10.0330068"><ele>175.0</ele><time>2026-04-11T14:28:18.882Z</time></trkpt><trkpt lat="44.6870966" lon="10.0331619"><ele>175.0</ele><time>2026-04-11T14:28:19.882Z</time></trkpt><trkpt lat="44.6870993" lon="10.0332847"><ele>175.0</ele><time>2026-04-11T14:28:20.881Z</time></trkpt><trkpt lat="44.6871179" lon="10.0333848"><ele>175.0</ele><time>2026-04-11T14:28:21.882Z</time></trkpt><trkpt lat="44.6872052" lon="10.0334963"><ele>175.0</ele><time>2026-04-11T14:28:23.882Z</time></trkpt><trkpt lat="44.6872679" lon="10.0335121"><ele>175.0</ele><time>2026-04-11T14:28:24.881Z</time></trkpt><trkpt lat="44.687339" lon="10.0335278"><ele>175.0</ele><time>2026-04-11T14:28:25.882Z</time></trkpt><trkpt lat="44.6874138" lon="10.0335767"><ele>174.4</ele><time>2026-04-11T14:28:26.882Z</time></trkpt><trkpt lat="44.6874722" lon="10.0336631"><ele>173.8</ele><time>2026-04-11T14:28:27.882Z</time></trkpt><trkpt lat="44.6875276" lon="10.0337745"><ele>173.2</ele><time>2026-04-11T14:28:28.881Z</time></trkpt><trkpt lat="44.687581" lon="10.0339111"><ele>172.6</ele><time>2026-04-11T14:28:29.881Z</time></trkpt><trkpt lat="44.687641" lon="10.0340354"><ele>172.0</ele><time>2026-04-11T14:28:30.88Z</time></trkpt><trkpt lat="44.6877116" lon="10.0341748"><ele>175.0</ele><time>2026-04-11T14:28:31.881Z</time></trkpt><trkpt lat="44.6877739" lon="10.0343296"><ele>178.0</ele><time>2026-04-11T14:28:32.88Z</time></trkpt><trkpt lat="44.6878247" lon="10.0345014"><ele>181.0</ele><time>2026-04-11T14:28:33.881Z</time></trkpt><trkpt lat="44.6878603" lon="10.0346811"><ele>184.0</ele><time>2026-04-11T14:28:34.88Z</time></trkpt><trkpt lat="44.6878783" lon="10.0348565"><ele>184.0</ele><time>2026-04-11T14:28:35.881Z</time></trkpt><trkpt lat="44.6878941" lon="10.0350258"><ele>184.0</ele><time>2026-04-11T14:28:36.88Z</time></trkpt><trkpt lat="44.6879152" lon="10.0351956"><ele>184.0</ele><time>2026-04-11T14:28:37.882Z</time></trkpt><trkpt lat="44.6879405" lon="10.0353674"><ele>184.0</ele><time>2026-04-11T14:28:38.88Z</time></trkpt><trkpt lat="44.6879665" lon="10.0355446"><ele>184.0</ele><time>2026-04-11T14:28:39.881Z</time></trkpt><trkpt lat="44.6879903" lon="10.0357275"><ele>184.0</ele><time>2026-04-11T14:28:40.881Z</time></trkpt><trkpt lat="44.6880038" lon="10.0358998"><ele>184.0</ele><time>2026-04-11T14:28:41.881Z</time></trkpt><trkpt lat="44.6879542" lon="10.0364393"><ele>183.75</ele><time>2026-04-11T14:28:44.882Z</time></trkpt><trkpt lat="44.6879281" lon="10.0366242"><ele>183.5</ele><time>2026-04-11T14:28:45.881Z</time></trkpt><trkpt lat="44.6879008" lon="10.0368069"><ele>183.25</ele><time>2026-04-11T14:28:46.88Z</time></trkpt><trkpt lat="44.6878831" lon="10.0369831"><ele>183.0</ele><time>2026-04-11T14:28:47.881Z</time></trkpt><trkpt lat="44.6878792" lon="10.0371442"><ele>182.4</ele><time>2026-04-11T14:28:48.881Z</time></trkpt><trkpt lat="44.6878746" lon="10.0372914"><ele>181.8</ele><time>2026-04-11T14:28:49.88Z</time></trkpt><trkpt lat="44.6878751" lon="10.0374479"><ele>181.2</ele><time>2026-04-11T14:28:50.881Z</time></trkpt><trkpt lat="44.6878747" lon="10.037606"><ele>180.6</ele><time>2026-04-11T14:28:51.881Z</time></trkpt><trkpt lat="44.6878698" lon="10.0377664"><ele>180.0</ele><time>2026-04-11T14:28:52.881Z</time></trkpt><trkpt lat="44.6878641" lon="10.0379309"><ele>181.5</ele><time>2026-04-11T14:28:53.881Z</time></trkpt><trkpt lat="44.6878539" lon="10.0384028"><ele>183.0</ele><time>2026-04-11T14:28:56.881Z</time></trkpt><trkpt lat="44.6878697" lon="10.0388881"><ele>182.5</ele><time>2026-04-11T14:28:59.881Z</time></trkpt><trkpt lat="44.6878554" lon="10.0393742"><ele>182.0</ele><time>2026-04-11T14:29:02.88Z</time></trkpt><trkpt lat="44.6878574" lon="10.0398347"><ele>181.2</ele><time>2026-04-11T14:29:05.881Z</time></trkpt><trkpt lat="44.6878619" lon="10.0399904"><ele>180.39999999999998</ele><time>2026-04-11T14:29:06.881Z</time></trkpt><trkpt lat="44.68785" lon="10.040146"><ele>179.60000000000002</ele><time>2026-04-11T14:29:07.88Z</time></trkpt><trkpt lat="44.6878224" lon="10.0402902"><ele>178.8</ele><time>2026-04-11T14:29:08.881Z</time></trkpt><trkpt lat="44.6877827" lon="10.0404339"><ele>178.0</ele><time>2026-04-11T14:29:09.88Z</time></trkpt><trkpt lat="44.6877262" lon="10.0405554"><ele>179.0</ele><time>2026-04-11T14:29:10.881Z</time></trkpt><trkpt lat="44.6876497" lon="10.0406536"><ele>180.0</ele><time>2026-04-11T14:29:11.881Z</time></trkpt><trkpt lat="44.6875753" lon="10.0407472"><ele>181.0</ele><time>2026-04-11T14:29:12.881Z</time></trkpt><trkpt lat="44.687507" lon="10.0408546"><ele>182.0</ele><time>2026-04-11T14:29:13.881Z</time></trkpt><trkpt lat="44.6873705" lon="10.0410954"><ele>182.0</ele><time>2026-04-11T14:29:15.88Z</time></trkpt><trkpt lat="44.6873139" lon="10.0412181"><ele>182.0</ele><time>2026-04-11T14:29:16.881Z</time></trkpt><trkpt lat="44.6872592" lon="10.0413464"><ele>182.0</ele><time>2026-04-11T14:29:17.881Z</time></trkpt><trkpt lat="44.687208" lon="10.0414769"><ele>182.0</ele><time>2026-04-11T14:29:18.881Z</time></trkpt><trkpt lat="44.6871595" lon="10.0416061"><ele>182.0</ele><time>2026-04-11T14:29:19.881Z</time></trkpt><trkpt lat="44.6871319" lon="10.0417367"><ele>185.0</ele><time>2026-04-11T14:29:20.881Z</time></trkpt><trkpt lat="44.6871113" lon="10.0418671"><ele>188.0</ele><time>2026-04-11T14:29:21.881Z</time></trkpt><trkpt lat="44.6871392" lon="10.041979"><ele>191.0</ele><time>2026-04-11T14:29:22.881Z</time></trkpt><trkpt lat="44.6871474" lon="10.0421079"><ele>194.0</ele><time>2026-04-11T14:29:23.88Z</time></trkpt><trkpt lat="44.6872692" lon="10.0423502"><ele>194.0</ele><time>2026-04-11T14:29:25.881Z</time></trkpt><trkpt lat="44.6873331" lon="10.0424837"><ele>194.0</ele><time>2026-04-11T14:29:26.88Z</time></trkpt><trkpt lat="44.6873884" lon="10.0426262"><ele>194.0</ele><time>2026-04-11T14:29:27.881Z</time></trkpt><trkpt lat="44.6874406" lon="10.0427725"><ele>194.0</ele><time>2026-04-11T14:29:28.881Z</time></trkpt><trkpt lat="44.6874893" lon="10.0429174"><ele>194.0</ele><time>2026-04-11T14:29:29.881Z</time></trkpt><trkpt lat="44.6875375" lon="10.04306"><ele>194.0</ele><time>2026-04-11T14:29:30.88Z</time></trkpt><trkpt lat="44.6875811" lon="10.0431926"><ele>194.0</ele><time>2026-04-11T14:29:31.881Z</time></trkpt><trkpt lat="44.6876225" lon="10.0433179"><ele>194.0</ele><time>2026-04-11T14:29:32.881Z</time></trkpt><trkpt lat="44.6876578" lon="10.0434545"><ele>194.0</ele><time>2026-04-11T14:29:33.88Z</time></trkpt><trkpt lat="44.6877104" lon="10.0437431"><ele>193.33333333333334</ele><time>2026-04-11T14:29:35.881Z</time></trkpt><trkpt lat="44.6877403" lon="10.0438916"><ele>192.66666666666669</ele><time>2026-04-11T14:29:36.88Z</time></trkpt><trkpt lat="44.6878376" lon="10.0443437"><ele>192.0</ele><time>2026-04-11T14:29:39.881Z</time></trkpt><trkpt lat="44.6879924" lon="10.0450949"><ele>191.8</ele><time>2026-04-11T14:29:44.881Z</time></trkpt><trkpt lat="44.6880208" lon="10.0452467"><ele>191.6</ele><time>2026-04-11T14:29:45.881Z</time></trkpt><trkpt lat="44.6880519" lon="10.0453884"><ele>191.4</ele><time>2026-04-11T14:29:46.881Z</time></trkpt><trkpt lat="44.6880753" lon="10.0455325"><ele>191.20000000000002</ele><time>2026-04-11T14:29:47.881Z</time></trkpt><trkpt lat="44.6880989" lon="10.0456786"><ele>191.0</ele><time>2026-04-11T14:29:48.882Z</time></trkpt><trkpt lat="44.6881313" lon="10.0458221"><ele>190.4</ele><time>2026-04-11T14:29:49.88Z</time></trkpt><trkpt lat="44.6881645" lon="10.0459627"><ele>189.8</ele><time>2026-04-11T14:29:50.881Z</time></trkpt><trkpt lat="44.6881945" lon="10.046108"><ele>189.20000000000002</ele><time>2026-04-11T14:29:51.881Z</time></trkpt><trkpt lat="44.6882251" lon="10.046255"><ele>188.60000000000002</ele><time>2026-04-11T14:29:52.881Z</time></trkpt><trkpt lat="44.6882555" lon="10.0464064"><ele>188.0</ele><time>2026-04-11T14:29:53.881Z</time></trkpt><trkpt lat="44.6882833" lon="10.0465622"><ele>188.0</ele><time>2026-04-11T14:29:54.881Z</time></trkpt><trkpt lat="44.6883103" lon="10.0467167"><ele>188.0</ele><time>2026-04-11T14:29:55.881Z</time></trkpt><trkpt lat="44.6883444" lon="10.0468729"><ele>188.0</ele><time>2026-04-11T14:29:56.88Z</time></trkpt><trkpt lat="44.6883733" lon="10.047032"><ele>188.0</ele><time>2026-04-11T14:29:57.881Z</time></trkpt><trkpt lat="44.6883992" lon="10.0471959"><ele>187.33333333333331</ele><time>2026-04-11T14:29:58.88Z</time></trkpt><trkpt lat="44.6884412" lon="10.0475326"><ele>186.66666666666666</ele><time>2026-04-11T14:30:00.881Z</time></trkpt><trkpt lat="44.6884607" lon="10.0477044"><ele>186.0</ele><time>2026-04-11T14:30:01.881Z</time></trkpt><trkpt lat="44.6884793" lon="10.0478686"><ele>186.0</ele><time>2026-04-11T14:30:02.881Z</time></trkpt><trkpt lat="44.6884954" lon="10.0480313"><ele>186.0</ele><time>2026-04-11T14:30:03.88Z</time></trkpt><trkpt lat="44.6885049" lon="10.0481894"><ele>186.0</ele><time>2026-04-11T14:30:04.881Z</time></trkpt><trkpt lat="44.688513" lon="10.0483478"><ele>186.0</ele><time>2026-04-11T14:30:05.881Z</time></trkpt><trkpt lat="44.6885259" lon="10.048507"><ele>185.75</ele><time>2026-04-11T14:30:06.881Z</time></trkpt><trkpt lat="44.6885367" lon="10.0486641"><ele>185.5</ele><time>2026-04-11T14:30:07.881Z</time></trkpt><trkpt lat="44.6885535" lon="10.0488238"><ele>185.25</ele><time>2026-04-11T14:30:08.881Z</time></trkpt><trkpt lat="44.6885684" lon="10.048983"><ele>185.0</ele><time>2026-04-11T14:30:09.881Z</time></trkpt><trkpt lat="44.6885809" lon="10.0491418"><ele>187.0</ele><time>2026-04-11T14:30:10.88Z</time></trkpt><trkpt lat="44.6885994" lon="10.0493009"><ele>189.0</ele><time>2026-04-11T14:30:11.881Z</time></trkpt><trkpt lat="44.6886179" lon="10.0494577"><ele>191.0</ele><time>2026-04-11T14:30:12.881Z</time></trkpt><trkpt lat="44.6886346" lon="10.0496046"><ele>193.0</ele><time>2026-04-11T14:30:13.88Z</time></trkpt><trkpt lat="44.6886484" lon="10.0497406"><ele>195.0</ele><time>2026-04-11T14:30:14.881Z</time></trkpt><trkpt lat="44.6886567" lon="10.0498688"><ele>195.2</ele><time>2026-04-11T14:30:15.88Z</time></trkpt><trkpt lat="44.688649" lon="10.0500084"><ele>195.4</ele><time>2026-04-11T14:30:16.881Z</time></trkpt><trkpt lat="44.6886308" lon="10.0501567"><ele>195.60000000000002</ele><time>2026-04-11T14:30:17.881Z</time></trkpt><trkpt lat="44.6886056" lon="10.0503049"><ele>195.8</ele><time>2026-04-11T14:30:18.881Z</time></trkpt><trkpt lat="44.6885786" lon="10.0504521"><ele>196.0</ele><time>2026-04-11T14:30:19.881Z</time></trkpt><trkpt lat="44.6885521" lon="10.0505972"><ele>194.0</ele><time>2026-04-11T14:30:20.881Z</time></trkpt><trkpt lat="44.6885191" lon="10.0507378"><ele>192.0</ele><time>2026-04-11T14:30:21.88Z</time></trkpt><trkpt lat="44.6884861" lon="10.0508752"><ele>190.0</ele><time>2026-04-11T14:30:22.881Z</time></trkpt><trkpt lat="44.6884576" lon="10.0510122"><ele>188.0</ele><time>2026-04-11T14:30:23.88Z</time></trkpt><trkpt lat="44.6884276" lon="10.0511328"><ele>186.0</ele><time>2026-04-11T14:30:24.881Z</time></trkpt><trkpt lat="44.6884018" lon="10.0512478"><ele>185.66666666666666</ele><time>2026-04-11T14:30:25.881Z</time></trkpt><trkpt lat="44.6883753" lon="10.0513521"><ele>185.33333333333334</ele><time>2026-04-11T14:30:26.881Z</time></trkpt><trkpt lat="44.6883363" lon="10.0514975"><ele>185.0</ele><time>2026-04-11T14:30:28.881Z</time></trkpt><trkpt lat="44.6883589" lon="10.0516159"><ele>184.66666666666669</ele><time>2026-04-11T14:30:30.881Z</time></trkpt><trkpt lat="44.6883328" lon="10.051726"><ele>184.33333333333334</ele><time>2026-04-11T14:36:29.88Z</time></trkpt><trkpt lat="44.6883855" lon="10.0516583"><ele>184.0</ele><time>2026-04-11T14:40:09.879Z</time></trkpt><trkpt lat="44.688437" lon="10.0516059"><ele>184.0</ele><time>2026-04-11T14:40:15.878Z</time></trkpt><trkpt lat="44.6883606" lon="10.0515902"><ele>184.0</ele><time>2026-04-11T14:40:21.879Z</time></trkpt><trkpt lat="44.6881742" lon="10.051759"><ele>184.0</ele><time>2026-04-11T14:40:23.878Z</time></trkpt><trkpt lat="44.6880949" lon="10.0518972"><ele>184.0</ele><time>2026-04-11T14:40:25.878Z</time></trkpt><trkpt lat="44.6880342" lon="10.0519989"><ele>181.0</ele><time>2026-04-11T14:40:27.879Z</time></trkpt><trkpt lat="44.6879554" lon="10.0520308"><ele>181.0</ele><time>2026-04-11T14:40:30.878Z</time></trkpt><trkpt lat="44.687886" lon="10.0520357"><ele>181.0</ele><time>2026-04-11T14:40:32.879Z</time></trkpt><trkpt lat="44.6878179" lon="10.0519903"><ele>181.0</ele><time>2026-04-11T14:40:34.879Z</time></trkpt></trkseg></trk></gpx>